<?xml version='1.0' encoding='UTF-8'?><gpx version="1.1" creator="JPX - https://github.com/jenetics/jpx" xmlns="http://www.topografix.com/GPX/1/1"><trk><trkseg><trkpt lat="41.680486849965405" lon="13.373670232614487"><ele>246.00000000000003</ele><time>2026-04-23T13:03:41.999Z</time></trkpt><trkpt lat="41.6804381235408" lon="13.37361684703104"><ele>246.0</ele><time>2026-04-23T13:03:44.999Z</time></trkpt><trkpt lat="41.68043174782753" lon="13.373532943948288"><ele>246.00000000000003</ele><time>2026-04-23T13:03:49Z</time></trkpt><trkpt lat="41.68042889075153" lon="13.373435123716561"><ele>246.00000000000003</ele><time>2026-04-23T13:03:53Z</time></trkpt><trkpt lat="41.68039148024401" lon="13.373352698749937"><ele>246.0</ele><time>2026-04-23T13:03:57Z</time></trkpt><trkpt lat="41.68038362747244" lon="13.373250847383254"><ele>246.00000000000003</ele><time>2026-04-23T13:04:02Z</time></trkpt><trkpt lat="41.68033490821523" lon="13.373161888104372"><ele>246.00000000000003</ele><time>2026-04-23T13:04:25Z</time></trkpt><trkpt lat="41.68023277163207" lon="13.373161222621809"><ele>245.66666666666666</ele><time>2026-04-23T13:04:27Z</time></trkpt><trkpt lat="41.680152003413475" lon="13.37316122652717"><ele>245.33333333333331</ele><time>2026-04-23T13:04:29Z</time></trkpt><trkpt lat="41.68007280689215" lon="13.373160458111592"><ele>245.0</ele><time>2026-04-23T13:04:31.001Z</time></trkpt><trkpt lat="41.67999216346655" lon="13.373183075633047"><ele>244.66666666666666</ele><time>2026-04-23T13:04:33.001Z</time></trkpt><trkpt lat="41.67990804047328" lon="13.373212638649441"><ele>244.33333333333331</ele><time>2026-04-23T13:04:35.001Z</time></trkpt><trkpt lat="41.679809554894675" lon="13.37322991522036"><ele>244.0</ele><time>2026-04-23T13:04:37.001Z</time></trkpt><trkpt lat="41.679697062944975" lon="13.373262670741239"><ele>243.99999999999997</ele><time>2026-04-23T13:04:39.001Z</time></trkpt><trkpt lat="41.679578188122136" lon="13.37327606935162"><ele>244.0</ele><time>2026-04-23T13:04:41.001Z</time></trkpt><trkpt lat="41.67950550865613" lon="13.373298895335507"><ele>244.0</ele><time>2026-04-23T13:04:42.001Z</time></trkpt><trkpt lat="41.67944288724662" lon="13.373320352148493"><ele>244.0</ele><time>2026-04-23T13:04:43.001Z</time></trkpt><trkpt lat="41.67935423749536" lon="13.373333818477011"><ele>243.99999999999997</ele><time>2026-04-23T13:04:45.001Z</time></trkpt><trkpt lat="41.67927645114715" lon="13.3733527262502"><ele>244.0</ele><time>2026-04-23T13:04:48.001Z</time></trkpt><trkpt lat="41.67923691619546" lon="13.373533051844179"><ele>243.49999999999997</ele><time>2026-04-23T13:04:56.001Z</time></trkpt><trkpt lat="41.67926400892499" lon="13.373622749127156"><ele>243.0</ele><time>2026-04-23T13:04:57.001Z</time></trkpt><trkpt lat="41.679292504153" lon="13.373715596830106"><ele>242.5</ele><time>2026-04-23T13:04:58.001Z</time></trkpt><trkpt lat="41.67931706271225" lon="13.373809642548494"><ele>242.0</ele><time>2026-04-23T13:04:59.001Z</time></trkpt><trkpt lat="41.679342986217705" lon="13.373912115705853"><ele>241.49999999999997</ele><time>2026-04-23T13:05:00.001Z</time></trkpt><trkpt lat="41.67936923625923" lon="13.374021764633813"><ele>241.0</ele><time>2026-04-23T13:05:01.001Z</time></trkpt><trkpt lat="41.67940004344665" lon="13.374137214318006"><ele>241.0</ele><time>2026-04-23T13:05:02.001Z</time></trkpt><trkpt lat="41.67942761316972" lon="13.37426699913241"><ele>241.00000000000003</ele><time>2026-04-23T13:05:03.001Z</time></trkpt><trkpt lat="41.67946213603879" lon="13.374412408728181"><ele>241.00000000000003</ele><time>2026-04-23T13:05:04.001Z</time></trkpt><trkpt lat="41.67949580496854" lon="13.37455608805413"><ele>241.0</ele><time>2026-04-23T13:05:05.001Z</time></trkpt><trkpt lat="41.679527532094035" lon="13.374694207320331"><ele>241.0</ele><time>2026-04-23T13:05:06.001Z</time></trkpt><trkpt lat="41.6795629853661" lon="13.374829646319299"><ele>241.8</ele><time>2026-04-23T13:05:07.001Z</time></trkpt><trkpt lat="41.67959594622382" lon="13.374966272160206"><ele>242.60000000000002</ele><time>2026-04-23T13:05:08.001Z</time></trkpt><trkpt lat="41.67963221494742" lon="13.375102189277392"><ele>243.4</ele><time>2026-04-23T13:05:09.001Z</time></trkpt><trkpt lat="41.67966477086714" lon="13.375229093295909"><ele>244.2</ele><time>2026-04-23T13:05:10.001Z</time></trkpt><trkpt lat="41.6796997217898" lon="13.375375107120824"><ele>245.0</ele><time>2026-04-23T13:05:11.001Z</time></trkpt><trkpt lat="41.679735467744024" lon="13.37552087461342"><ele>245.0</ele><time>2026-04-23T13:05:12.001Z</time></trkpt><trkpt lat="41.679772471650196" lon="13.375669503048185"><ele>245.0</ele><time>2026-04-23T13:05:13.001Z</time></trkpt><trkpt lat="41.67981288639961" lon="13.375817519904569"><ele>245.0</ele><time>2026-04-23T13:05:14.001Z</time></trkpt><trkpt lat="41.67985059421674" lon="13.375968513774746"><ele>245.0</ele><time>2026-04-23T13:05:15.001Z</time></trkpt><trkpt lat="41.679890468617536" lon="13.376118669708838"><ele>245.0</ele><time>2026-04-23T13:05:16.001Z</time></trkpt><trkpt lat="41.679931405940756" lon="13.376266998503528"><ele>245.0</ele><time>2026-04-23T13:05:17.001Z</time></trkpt><trkpt lat="41.67996687720108" lon="13.376400003369625"><ele>245.0</ele><time>2026-04-23T13:05:18.001Z</time></trkpt><trkpt lat="41.67999662403541" lon="13.37651280485574"><ele>245.0</ele><time>2026-04-23T13:05:19.001Z</time></trkpt><trkpt lat="41.68002059502359" lon="13.376598450840106"><ele>245.0</ele><time>2026-04-23T13:05:20.001Z</time></trkpt><trkpt lat="41.68004147708125" lon="13.376711002035693"><ele>245.16666666666669</ele><time>2026-04-23T13:05:22.001Z</time></trkpt><trkpt lat="41.68006861980655" lon="13.376798537763069"><ele>245.33333333333334</ele><time>2026-04-23T13:05:27Z</time></trkpt><trkpt lat="41.680202757807315" lon="13.376831022914114"><ele>245.5</ele><time>2026-04-23T13:05:29Z</time></trkpt><trkpt lat="41.680277314892066" lon="13.376830263005264"><ele>245.66666666666669</ele><time>2026-04-23T13:05:30Z</time></trkpt><trkpt lat="41.6803552453297" lon="13.376818634739239"><ele>245.83333333333334</ele><time>2026-04-23T13:05:31Z</time></trkpt><trkpt lat="41.68044465642815" lon="13.376819397252897"><ele>246.0</ele><time>2026-04-23T13:05:32Z</time></trkpt><trkpt lat="41.68053574496949" lon="13.376823059775672"><ele>246.4</ele><time>2026-04-23T13:05:33Z</time></trkpt><trkpt lat="41.68063530626534" lon="13.376822943452481"><ele>246.8</ele><time>2026-04-23T13:05:34Z</time></trkpt><trkpt lat="41.68073351309968" lon="13.376825747789594"><ele>247.20000000000002</ele><time>2026-04-23T13:05:35Z</time></trkpt><trkpt lat="41.68083783598291" lon="13.376824725627227"><ele>247.60000000000002</ele><time>2026-04-23T13:05:36Z</time></trkpt><trkpt lat="41.68094666323245" lon="13.376824663355157"><ele>248.0</ele><time>2026-04-23T13:05:37Z</time></trkpt><trkpt lat="41.68105754573123" lon="13.376825637230898"><ele>248.0</ele><time>2026-04-23T13:05:38Z</time></trkpt><trkpt lat="41.681165220891984" lon="13.3768286519462"><ele>248.0</ele><time>2026-04-23T13:05:39Z</time></trkpt><trkpt lat="41.6812635958068" lon="13.376821414929287"><ele>248.0</ele><time>2026-04-23T13:05:40Z</time></trkpt><trkpt lat="41.68135503603358" lon="13.376823962623872"><ele>248.0</ele><time>2026-04-23T13:05:41Z</time></trkpt><trkpt lat="41.68143922012909" lon="13.376824149184728"><ele>248.0</ele><time>2026-04-23T13:05:42Z</time></trkpt><trkpt lat="41.68151021943279" lon="13.37682389124962"><ele>248.0</ele><time>2026-04-23T13:05:43Z</time></trkpt><trkpt lat="41.68160588154404" lon="13.376823050199302"><ele>248.0</ele><time>2026-04-23T13:05:45Z</time></trkpt><trkpt lat="41.681703397113274" lon="13.376814484036064"><ele>248.0</ele><time>2026-04-23T13:05:48Z</time></trkpt><trkpt lat="41.68179743384962" lon="13.376804333936251"><ele>248.0</ele><time>2026-04-23T13:05:50Z</time></trkpt><trkpt lat="41.68191072584312" lon="13.37681000220718"><ele>248.0</ele><time>2026-04-23T13:05:52Z</time></trkpt><trkpt lat="41.681976961265065" lon="13.376804810899083"><ele>248.66666666666669</ele><time>2026-04-23T13:05:53Z</time></trkpt><trkpt lat="41.68204717590805" lon="13.376796379666649"><ele>249.33333333333334</ele><time>2026-04-23T13:05:54Z</time></trkpt><trkpt lat="41.68212561024878" lon="13.37678622774188"><ele>250.0</ele><time>2026-04-23T13:05:55Z</time></trkpt><trkpt lat="41.68220367279028" lon="13.37678302683686"><ele>250.66666666666669</ele><time>2026-04-23T13:05:56Z</time></trkpt><trkpt lat="41.68227826283372" lon="13.376790670712893"><ele>251.33333333333334</ele><time>2026-04-23T13:05:57Z</time></trkpt><trkpt lat="41.68237126470722" lon="13.376797445262781"><ele>252.0</ele><time>2026-04-23T13:05:58Z</time></trkpt><trkpt lat="41.682455367725446" lon="13.376802339758019"><ele>252.0</ele><time>2026-04-23T13:05:59Z</time></trkpt><trkpt lat="41.68254396712515" lon="13.376788391844999"><ele>252.0</ele><time>2026-04-23T13:06:00Z</time></trkpt><trkpt lat="41.682631897646196" lon="13.376780085504578"><ele>252.0</ele><time>2026-04-23T13:06:01Z</time></trkpt><trkpt lat="41.68271733638225" lon="13.376777146940055"><ele>252.0</ele><time>2026-04-23T13:06:02Z</time></trkpt><trkpt lat="41.68281351170913" lon="13.376769191970885"><ele>252.0</ele><time>2026-04-23T13:06:03Z</time></trkpt><trkpt lat="41.68290834726842" lon="13.376759630270884"><ele>252.33333333333334</ele><time>2026-04-23T13:06:04Z</time></trkpt><trkpt lat="41.683003092026716" lon="13.376750682162186"><ele>252.66666666666669</ele><time>2026-04-23T13:06:05Z</time></trkpt><trkpt lat="41.683089490657785" lon="13.376742835295785"><ele>253.0</ele><time>2026-04-23T13:06:06Z</time></trkpt><trkpt lat="41.6831708598542" lon="13.376737267516583"><ele>253.33333333333334</ele><time>2026-04-23T13:06:07Z</time></trkpt><trkpt lat="41.68325242173369" lon="13.376726332380187"><ele>253.66666666666669</ele><time>2026-04-23T13:06:08Z</time></trkpt><trkpt lat="41.68333262248831" lon="13.376713997999776"><ele>254.0</ele><time>2026-04-23T13:06:09Z</time></trkpt><trkpt lat="41.68340829844631" lon="13.376701979271747"><ele>254.00000000000003</ele><time>2026-04-23T13:06:10Z</time></trkpt><trkpt lat="41.68348102820994" lon="13.37669704100408"><ele>254.0</ele><time>2026-04-23T13:06:11Z</time></trkpt><trkpt lat="41.68354808772133" lon="13.376690738438194"><ele>254.0</ele><time>2026-04-23T13:06:12Z</time></trkpt><trkpt lat="41.68361786121077" lon="13.376676341354878"><ele>254.0</ele><time>2026-04-23T13:06:13Z</time></trkpt><trkpt lat="41.6836879308672" lon="13.376655539701094"><ele>254.00000000000003</ele><time>2026-04-23T13:06:14Z</time></trkpt><trkpt lat="41.683761766257" lon="13.376632063072492"><ele>254.0</ele><time>2026-04-23T13:06:15Z</time></trkpt><trkpt lat="41.68385184730411" lon="13.376599772351948"><ele>254.39999999999998</ele><time>2026-04-23T13:06:17Z</time></trkpt><trkpt lat="41.68392768541399" lon="13.37652603379527"><ele>254.79999999999998</ele><time>2026-04-23T13:06:26Z</time></trkpt><trkpt lat="41.683912829306834" lon="13.376330141771088"><ele>255.20000000000002</ele><time>2026-04-23T13:06:28Z</time></trkpt><trkpt lat="41.68390340569027" lon="13.376215013749016"><ele>255.60000000000002</ele><time>2026-04-23T13:06:29Z</time></trkpt><trkpt lat="41.68390076546225" lon="13.376107090498667"><ele>256.0</ele><time>2026-04-23T13:06:30Z</time></trkpt><trkpt lat="41.68389498073668" lon="13.37599189652652"><ele>256.16666666666663</ele><time>2026-04-23T13:06:31Z</time></trkpt><trkpt lat="41.68388975168919" lon="13.375871784584792"><ele>256.3333333333333</ele><time>2026-04-23T13:06:32Z</time></trkpt><trkpt lat="41.68387870338541" lon="13.375754121053545"><ele>256.5</ele><time>2026-04-23T13:06:33Z</time></trkpt><trkpt lat="41.68386751892602" lon="13.375641759172883"><ele>256.6666666666667</ele><time>2026-04-23T13:06:34Z</time></trkpt><trkpt lat="41.68385590490172" lon="13.375497752404456"><ele>256.83333333333337</ele><time>2026-04-23T13:06:36Z</time></trkpt><trkpt lat="41.68384148525116" lon="13.375396920923466"><ele>257.0</ele><time>2026-04-23T13:06:39Z</time></trkpt><trkpt lat="41.68382451989879" lon="13.375297834379266"><ele>257.25</ele><time>2026-04-23T13:06:43Z</time></trkpt><trkpt lat="41.68378948057957" lon="13.375155397333188"><ele>257.5</ele><time>2026-04-23T13:06:47Z</time></trkpt><trkpt lat="41.68375872407" lon="13.37504618273271"><ele>257.75</ele><time>2026-04-23T13:06:48Z</time></trkpt><trkpt lat="41.68369488875422" lon="13.374898906770966"><ele>258.0</ele><time>2026-04-23T13:06:49Z</time></trkpt><trkpt lat="41.683620225978316" lon="13.3747413921362"><ele>257.0</ele><time>2026-04-23T13:06:50Z</time></trkpt><trkpt lat="41.68354049759531" lon="13.374568123749222"><ele>256.0</ele><time>2026-04-23T13:06:51Z</time></trkpt><trkpt lat="41.683456596519896" lon="13.374391572430572"><ele>255.0</ele><time>2026-04-23T13:06:52Z</time></trkpt><trkpt lat="41.68337395545448" lon="13.374202045967769"><ele>255.0</ele><time>2026-04-23T13:06:53Z</time></trkpt><trkpt lat="41.68329145739367" lon="13.37402130554683"><ele>255.0</ele><time>2026-04-23T13:06:54Z</time></trkpt><trkpt lat="41.683229119764576" lon="13.373864266524993"><ele>255.0</ele><time>2026-04-23T13:06:55Z</time></trkpt><trkpt lat="41.68317982719683" lon="13.373699991725003"><ele>255.0</ele><time>2026-04-23T13:06:56Z</time></trkpt><trkpt lat="41.68315180386002" lon="13.37353025865861"><ele>254.75</ele><time>2026-04-23T13:06:57Z</time></trkpt><trkpt lat="41.683137475137414" lon="13.373352220330124"><ele>254.5</ele><time>2026-04-23T13:06:58Z</time></trkpt><trkpt lat="41.68314007852212" lon="13.373176535107985"><ele>254.25</ele><time>2026-04-23T13:06:59Z</time></trkpt><trkpt lat="41.68316258687526" lon="13.373005145966676"><ele>254.0</ele><time>2026-04-23T13:07:00Z</time></trkpt><trkpt lat="41.68320068622175" lon="13.372838144375427"><ele>253.25</ele><time>2026-04-23T13:07:01Z</time></trkpt><trkpt lat="41.68324969290675" lon="13.372677059335226"><ele>252.5</ele><time>2026-04-23T13:07:02Z</time></trkpt><trkpt lat="41.683306651485346" lon="13.37251428934478"><ele>251.75</ele><time>2026-04-23T13:07:03Z</time></trkpt><trkpt lat="41.68337885314448" lon="13.372357945055569"><ele>251.0</ele><time>2026-04-23T13:07:04Z</time></trkpt><trkpt lat="41.68347168322193" lon="13.372220798567035"><ele>250.5</ele><time>2026-04-23T13:07:05Z</time></trkpt><trkpt lat="41.683575504326704" lon="13.372103293095268"><ele>250.0</ele><time>2026-04-23T13:07:06Z</time></trkpt><trkpt lat="41.68368971271933" lon="13.37200900643987"><ele>249.5</ele><time>2026-04-23T13:07:07Z</time></trkpt><trkpt lat="41.683805270367245" lon="13.371919924425582"><ele>249.0</ele><time>2026-04-23T13:07:08Z</time></trkpt><trkpt lat="41.68389599078679" lon="13.37182533732274"><ele>249.0</ele><time>2026-04-23T13:07:09Z</time></trkpt><trkpt lat="41.683954987724285" lon="13.371710108161947"><ele>248.99999999999997</ele><time>2026-04-23T13:07:10Z</time></trkpt><trkpt lat="41.68399535014734" lon="13.371579485564528"><ele>248.99999999999997</ele><time>2026-04-23T13:07:11Z</time></trkpt><trkpt lat="41.684009977840894" lon="13.371435083369915"><ele>249.0</ele><time>2026-04-23T13:07:12Z</time></trkpt><trkpt lat="41.68398830427507" lon="13.371276015055793"><ele>249.0</ele><time>2026-04-23T13:07:13Z</time></trkpt><trkpt lat="41.683946907111164" lon="13.3711135430722"><ele>249.25</ele><time>2026-04-23T13:07:14Z</time></trkpt><trkpt lat="41.68389759283405" lon="13.37095726280998"><ele>249.5</ele><time>2026-04-23T13:07:15Z</time></trkpt><trkpt lat="41.68383342405487" lon="13.37081241883467"><ele>249.75</ele><time>2026-04-23T13:07:16Z</time></trkpt><trkpt lat="41.6837704964633" lon="13.37066520715584"><ele>250.0</ele><time>2026-04-23T13:07:17Z</time></trkpt><trkpt lat="41.68372718287846" lon="13.370504407395693"><ele>250.25</ele><time>2026-04-23T13:07:18Z</time></trkpt><trkpt lat="41.683705730776126" lon="13.37033397061914"><ele>250.5</ele><time>2026-04-23T13:07:19Z</time></trkpt><trkpt lat="41.68370804524233" lon="13.370150807823741"><ele>250.75</ele><time>2026-04-23T13:07:20Z</time></trkpt><trkpt lat="41.683710184473775" lon="13.369967107987348"><ele>251.0</ele><time>2026-04-23T13:07:21Z</time></trkpt><trkpt lat="41.683701470496175" lon="13.369777069252013"><ele>251.25</ele><time>2026-04-23T13:07:22Z</time></trkpt><trkpt lat="41.683696566670676" lon="13.36958625569016"><ele>251.5</ele><time>2026-04-23T13:07:23Z</time></trkpt><trkpt lat="41.6836937525232" lon="13.36939087147289"><ele>251.75</ele><time>2026-04-23T13:07:24Z</time></trkpt><trkpt lat="41.683693364797506" lon="13.369191841060706"><ele>252.0</ele><time>2026-04-23T13:07:25Z</time></trkpt><trkpt lat="41.68370026156195" lon="13.368994453456507"><ele>252.0</ele><time>2026-04-23T13:07:26Z</time></trkpt><trkpt lat="41.683720249242825" lon="13.368792695654093"><ele>252.0</ele><time>2026-04-23T13:07:27Z</time></trkpt><trkpt lat="41.683749149460645" lon="13.368595818068906"><ele>252.0</ele><time>2026-04-23T13:07:28Z</time></trkpt><trkpt lat="41.68377865752563" lon="13.368389416458518"><ele>252.0</ele><time>2026-04-23T13:07:29Z</time></trkpt><trkpt lat="41.68379873632567" lon="13.368207848554494"><ele>252.0</ele><time>2026-04-23T13:07:30Z</time></trkpt><trkpt lat="41.68381520157956" lon="13.368037952867812"><ele>252.0</ele><time>2026-04-23T13:07:31Z</time></trkpt><trkpt lat="41.6838326656879" lon="13.367865200679939"><ele>252.0</ele><time>2026-04-23T13:07:32Z</time></trkpt><trkpt lat="41.6838565518485" lon="13.367705173821655"><ele>252.0</ele><time>2026-04-23T13:07:33Z</time></trkpt><trkpt lat="41.68387969063122" lon="13.367549428568577"><ele>252.0</ele><time>2026-04-23T13:07:34Z</time></trkpt><trkpt lat="41.68389545921427" lon="13.36738996466155"><ele>252.0</ele><time>2026-04-23T13:07:35Z</time></trkpt><trkpt lat="41.68390718741431" lon="13.367231329348508"><ele>252.0</ele><time>2026-04-23T13:07:36Z</time></trkpt><trkpt lat="41.683925894706164" lon="13.367069617817664"><ele>252.0</ele><time>2026-04-23T13:07:37Z</time></trkpt><trkpt lat="41.683944957062664" lon="13.366900501838956"><ele>252.0</ele><time>2026-04-23T13:07:38Z</time></trkpt><trkpt lat="41.68395893401924" lon="13.366717814707282"><ele>252.0</ele><time>2026-04-23T13:07:39Z</time></trkpt><trkpt lat="41.68398970066689" lon="13.366522347630106"><ele>252.0</ele><time>2026-04-23T13:07:40Z</time></trkpt><trkpt lat="41.68401820265576" lon="13.36632274615206"><ele>252.0</ele><time>2026-04-23T13:07:41Z</time></trkpt><trkpt lat="41.6840462394261" lon="13.366121455314332"><ele>252.0</ele><time>2026-04-23T13:07:42Z</time></trkpt><trkpt lat="41.68408312552849" lon="13.365928323671081"><ele>252.0</ele><time>2026-04-23T13:07:43Z</time></trkpt><trkpt lat="41.68412388534023" lon="13.365740680211964"><ele>252.0</ele><time>2026-04-23T13:07:44Z</time></trkpt><trkpt lat="41.68418816057511" lon="13.3655606330243"><ele>252.2</ele><time>2026-04-23T13:07:45Z</time></trkpt><trkpt lat="41.68425762752412" lon="13.365391159238255"><ele>252.39999999999998</ele><time>2026-04-23T13:07:46Z</time></trkpt><trkpt lat="41.684311110643286" lon="13.365274322390938"><ele>252.60000000000002</ele><time>2026-04-23T13:07:47Z</time></trkpt><trkpt lat="41.68436206565387" lon="13.36516242844352"><ele>252.8</ele><time>2026-04-23T13:07:48Z</time></trkpt><trkpt lat="41.684436669369255" lon="13.365084201451527"><ele>253.0</ele><time>2026-04-23T13:07:49Z</time></trkpt><trkpt lat="41.684527499603696" lon="13.36503968019025"><ele>253.2</ele><time>2026-04-23T13:07:50Z</time></trkpt><trkpt lat="41.68464525867456" lon="13.3650536962955"><ele>253.4</ele><time>2026-04-23T13:07:51Z</time></trkpt><trkpt lat="41.68475297120217" lon="13.36506920705852"><ele>253.59999999999997</ele><time>2026-04-23T13:07:52Z</time></trkpt><trkpt lat="41.68485277065386" lon="13.365045217110646"><ele>253.79999999999998</ele><time>2026-04-23T13:07:53Z</time></trkpt><trkpt lat="41.68492604168744" lon="13.364954694818545"><ele>254.0</ele><time>2026-04-23T13:07:54Z</time></trkpt><trkpt lat="41.68498111683275" lon="13.364817161179584"><ele>254.25</ele><time>2026-04-23T13:07:55Z</time></trkpt><trkpt lat="41.685014873423455" lon="13.364649264048602"><ele>254.5</ele><time>2026-04-23T13:07:56Z</time></trkpt><trkpt lat="41.685041194903064" lon="13.364471037065766"><ele>254.75</ele><time>2026-04-23T13:07:57Z</time></trkpt><trkpt lat="41.68509016308971" lon="13.364304372983842"><ele>255.0</ele><time>2026-04-23T13:07:58Z</time></trkpt><trkpt lat="41.685148162937644" lon="13.36415233662255"><ele>255.0</ele><time>2026-04-23T13:07:59Z</time></trkpt><trkpt lat="41.68519480142254" lon="13.363999087035529"><ele>255.0</ele><time>2026-04-23T13:08:00Z</time></trkpt><trkpt lat="41.68523267323545" lon="13.363837712479066"><ele>255.0</ele><time>2026-04-23T13:08:01Z</time></trkpt><trkpt lat="41.68526634693427" lon="13.363678118040935"><ele>255.0</ele><time>2026-04-23T13:08:02Z</time></trkpt><trkpt lat="41.685294224164" lon="13.36351149700162"><ele>255.0</ele><time>2026-04-23T13:08:03Z</time></trkpt><trkpt lat="41.68532114484053" lon="13.363340095798439"><ele>255.0</ele><time>2026-04-23T13:08:04Z</time></trkpt><trkpt lat="41.68534918672931" lon="13.363158914014706"><ele>255.0</ele><time>2026-04-23T13:08:05Z</time></trkpt><trkpt lat="41.68537553065311" lon="13.362958656492447"><ele>255.0</ele><time>2026-04-23T13:08:06Z</time></trkpt><trkpt lat="41.685408133479875" lon="13.362744121718183"><ele>255.33333333333331</ele><time>2026-04-23T13:08:07Z</time></trkpt><trkpt lat="41.68544111663788" lon="13.36250126706462"><ele>255.66666666666666</ele><time>2026-04-23T13:08:08Z</time></trkpt><trkpt lat="41.685475715838294" lon="13.362267774442357"><ele>256.0</ele><time>2026-04-23T13:08:09Z</time></trkpt><trkpt lat="41.685518478951465" lon="13.36206922062109"><ele>255.5</ele><time>2026-04-23T13:08:10Z</time></trkpt><trkpt lat="41.685577571699" lon="13.361895343516936"><ele>255.0</ele><time>2026-04-23T13:08:11Z</time></trkpt><trkpt lat="41.68563642833735" lon="13.36175825173553"><ele>254.5</ele><time>2026-04-23T13:08:12Z</time></trkpt><trkpt lat="41.68571941636694" lon="13.36166136470847"><ele>254.0</ele><time>2026-04-23T13:08:13Z</time></trkpt><trkpt lat="41.68582103884056" lon="13.361602361635748"><ele>254.0</ele><time>2026-04-23T13:08:14Z</time></trkpt><trkpt lat="41.68592927361229" lon="13.361557667739417"><ele>254.0</ele><time>2026-04-23T13:08:15Z</time></trkpt><trkpt lat="41.68602940408335" lon="13.36147246633509"><ele>254.0</ele><time>2026-04-23T13:08:16Z</time></trkpt><trkpt lat="41.68610994570269" lon="13.361327259761095"><ele>254.0</ele><time>2026-04-23T13:08:17Z</time></trkpt><trkpt lat="41.68616176987309" lon="13.361146543341276"><ele>254.0</ele><time>2026-04-23T13:08:18Z</time></trkpt><trkpt lat="41.686222033904855" lon="13.360959709603405"><ele>254.0</ele><time>2026-04-23T13:08:19Z</time></trkpt><trkpt lat="41.6862977278427" lon="13.36078236602837"><ele>254.0</ele><time>2026-04-23T13:08:20Z</time></trkpt><trkpt lat="41.686374721460645" lon="13.360601448443184"><ele>253.66666666666669</ele><time>2026-04-23T13:08:21Z</time></trkpt><trkpt lat="41.68644956532637" lon="13.360421875237623"><ele>253.33333333333331</ele><time>2026-04-23T13:08:22Z</time></trkpt><trkpt lat="41.68652862498473" lon="13.36024330941411"><ele>253.0</ele><time>2026-04-23T13:08:23Z</time></trkpt><trkpt lat="41.686603115019174" lon="13.360054899299243"><ele>253.0</ele><time>2026-04-23T13:08:24Z</time></trkpt><trkpt lat="41.68667734265371" lon="13.359860934069495"><ele>253.0</ele><time>2026-04-23T13:08:25Z</time></trkpt><trkpt lat="41.686755753572484" lon="13.359674530072432"><ele>253.0</ele><time>2026-04-23T13:08:26Z</time></trkpt><trkpt lat="41.68682474323361" lon="13.359481737333578"><ele>253.0</ele><time>2026-04-23T13:08:27Z</time></trkpt><trkpt lat="41.68690537754075" lon="13.359309229399164"><ele>253.0</ele><time>2026-04-23T13:08:28Z</time></trkpt><trkpt lat="41.68697500797775" lon="13.359126714479942"><ele>253.0</ele><time>2026-04-23T13:08:29Z</time></trkpt><trkpt lat="41.68705127049968" lon="13.358949321710272"><ele>253.0</ele><time>2026-04-23T13:08:30Z</time></trkpt><trkpt lat="41.687132526661806" lon="13.358763099031979"><ele>253.0</ele><time>2026-04-23T13:08:31Z</time></trkpt><trkpt lat="41.687207715754916" lon="13.358576203453115"><ele>253.0</ele><time>2026-04-23T13:08:32Z</time></trkpt><trkpt lat="41.68727787618611" lon="13.358387813871653"><ele>253.0</ele><time>2026-04-23T13:08:33Z</time></trkpt><trkpt lat="41.687332496338705" lon="13.358196385656449"><ele>253.0</ele><time>2026-04-23T13:08:34Z</time></trkpt><trkpt lat="41.687376893393065" lon="13.357985992297401"><ele>253.0</ele><time>2026-04-23T13:08:35Z</time></trkpt><trkpt lat="41.68742486416692" lon="13.357763218208035"><ele>253.0</ele><time>2026-04-23T13:08:36Z</time></trkpt><trkpt lat="41.687484285587566" lon="13.357519409767738"><ele>253.0</ele><time>2026-04-23T13:08:37Z</time></trkpt><trkpt lat="41.687548244538185" lon="13.357260544962537"><ele>253.0</ele><time>2026-04-23T13:08:38Z</time></trkpt><trkpt lat="41.687599803303634" lon="13.357044991850069"><ele>253.0</ele><time>2026-04-23T13:08:39Z</time></trkpt><trkpt lat="41.68764899816335" lon="13.356853316719494"><ele>253.0</ele><time>2026-04-23T13:08:40Z</time></trkpt><trkpt lat="41.68769671162948" lon="13.356700182827185"><ele>253.0</ele><time>2026-04-23T13:08:41Z</time></trkpt><trkpt lat="41.68775732176773" lon="13.356581006522989"><ele>253.0</ele><time>2026-04-23T13:08:42Z</time></trkpt><trkpt lat="41.68782905156284" lon="13.356482066155548"><ele>253.25</ele><time>2026-04-23T13:08:43Z</time></trkpt><trkpt lat="41.68793285081007" lon="13.356425844399483"><ele>253.5</ele><time>2026-04-23T13:08:44Z</time></trkpt><trkpt lat="41.68805028996212" lon="13.356450819481534"><ele>253.75</ele><time>2026-04-23T13:08:45Z</time></trkpt><trkpt lat="41.688159454830135" lon="13.356486211042894"><ele>254.0</ele><time>2026-04-23T13:08:46Z</time></trkpt><trkpt lat="41.688264842094114" lon="13.356509621334295"><ele>254.0</ele><time>2026-04-23T13:08:47Z</time></trkpt><trkpt lat="41.688385075419724" lon="13.356510151666955"><ele>254.0</ele><time>2026-04-23T13:08:48Z</time></trkpt><trkpt lat="41.68850331595383" lon="13.356452581969616"><ele>254.0</ele><time>2026-04-23T13:08:49Z</time></trkpt><trkpt lat="41.68860702867847" lon="13.35634348634193"><ele>254.0</ele><time>2026-04-23T13:08:50Z</time></trkpt><trkpt lat="41.68868723895759" lon="13.356187510172948"><ele>254.33333333333334</ele><time>2026-04-23T13:08:51Z</time></trkpt><trkpt lat="41.68876501917336" lon="13.356015031751626"><ele>254.66666666666669</ele><time>2026-04-23T13:08:52Z</time></trkpt><trkpt lat="41.68884772964181" lon="13.355837810026859"><ele>255.0</ele><time>2026-04-23T13:08:53Z</time></trkpt><trkpt lat="41.68893904337728" lon="13.355662668530863"><ele>255.0</ele><time>2026-04-23T13:08:54Z</time></trkpt><trkpt lat="41.68901293817315" lon="13.355481966368899"><ele>255.0</ele><time>2026-04-23T13:08:55Z</time></trkpt><trkpt lat="41.68909755247427" lon="13.355315102564715"><ele>255.0</ele><time>2026-04-23T13:08:56Z</time></trkpt><trkpt lat="41.68916587980814" lon="13.35516153306193"><ele>255.0</ele><time>2026-04-23T13:08:57Z</time></trkpt><trkpt lat="41.68924745668647" lon="13.355029611808849"><ele>255.0</ele><time>2026-04-23T13:08:58Z</time></trkpt><trkpt lat="41.68929997401201" lon="13.354870217278105"><ele>255.0</ele><time>2026-04-23T13:08:59Z</time></trkpt><trkpt lat="41.68936892938728" lon="13.354728537617964"><ele>255.0</ele><time>2026-04-23T13:09:00Z</time></trkpt><trkpt lat="41.68943642266458" lon="13.35458520213215"><ele>255.0</ele><time>2026-04-23T13:09:01Z</time></trkpt><trkpt lat="41.689501798185475" lon="13.354444425261525"><ele>255.75</ele><time>2026-04-23T13:09:02Z</time></trkpt><trkpt lat="41.68956091924337" lon="13.354301400724031"><ele>256.5</ele><time>2026-04-23T13:09:03Z</time></trkpt><trkpt lat="41.68962341435159" lon="13.354161221539007"><ele>257.25</ele><time>2026-04-23T13:09:04Z</time></trkpt><trkpt lat="41.68968426064277" lon="13.35401946812017"><ele>258.0</ele><time>2026-04-23T13:09:05Z</time></trkpt><trkpt lat="41.68974190631404" lon="13.353892641340936"><ele>257.8</ele><time>2026-04-23T13:09:06Z</time></trkpt><trkpt lat="41.68980317857619" lon="13.353752934910899"><ele>257.6</ele><time>2026-04-23T13:09:07Z</time></trkpt><trkpt lat="41.68986266124845" lon="13.35361946636148"><ele>257.4</ele><time>2026-04-23T13:09:08Z</time></trkpt><trkpt lat="41.68991451412005" lon="13.35348734552289"><ele>257.2</ele><time>2026-04-23T13:09:09Z</time></trkpt><trkpt lat="41.68996012470289" lon="13.353366846571728"><ele>257.0</ele><time>2026-04-23T13:09:10Z</time></trkpt><trkpt lat="41.68999031690663" lon="13.353227503918182"><ele>257.0</ele><time>2026-04-23T13:09:11Z</time></trkpt><trkpt lat="41.69001029683579" lon="13.35310074178914"><ele>257.0</ele><time>2026-04-23T13:09:12Z</time></trkpt><trkpt lat="41.69003598588035" lon="13.352993579419577"><ele>257.0</ele><time>2026-04-23T13:09:13Z</time></trkpt><trkpt lat="41.69005521467362" lon="13.352856543075182"><ele>257.0</ele><time>2026-04-23T13:09:15Z</time></trkpt><trkpt lat="41.69006270047411" lon="13.352759711457567"><ele>257.0</ele><time>2026-04-23T13:09:19Z</time></trkpt><trkpt lat="41.69006982450309" lon="13.352626414495932"><ele>257.0</ele><time>2026-04-23T13:09:22Z</time></trkpt><trkpt lat="41.690075030537585" lon="13.35250674462489"><ele>257.0</ele><time>2026-04-23T13:09:24Z</time></trkpt><trkpt lat="41.690075424378364" lon="13.352416500503127"><ele>257.0</ele><time>2026-04-23T13:09:26Z</time></trkpt><trkpt lat="41.69009344469834" lon="13.35232424233881"><ele>257.0</ele><time>2026-04-23T13:09:28Z</time></trkpt><trkpt lat="41.69011131951932" lon="13.35218461110861"><ele>257.0</ele><time>2026-04-23T13:09:30Z</time></trkpt><trkpt lat="41.69012619943875" lon="13.352041999323381"><ele>257.0</ele><time>2026-04-23T13:09:32Z</time></trkpt><trkpt lat="41.690123182840146" lon="13.351950079786087"><ele>257.0</ele><time>2026-04-23T13:09:34Z</time></trkpt><trkpt lat="41.69024092615297" lon="13.351963608591888"><ele>257.0</ele><time>2026-04-23T13:09:36Z</time></trkpt><trkpt lat="41.69031258073251" lon="13.35202491389102"><ele>257.0</ele><time>2026-04-23T13:09:37Z</time></trkpt><trkpt lat="41.69043696601482" lon="13.352016146805092"><ele>257.0</ele><time>2026-04-23T13:09:38Z</time></trkpt><trkpt lat="41.69053206733894" lon="13.35202464894198"><ele>257.0</ele><time>2026-04-23T13:09:39Z</time></trkpt><trkpt lat="41.69062577941356" lon="13.352040345991051"><ele>257.4</ele><time>2026-04-23T13:09:40Z</time></trkpt><trkpt lat="41.69072317982666" lon="13.35205769394738"><ele>257.79999999999995</ele><time>2026-04-23T13:09:41Z</time></trkpt><trkpt lat="41.69081982366575" lon="13.352077092905406"><ele>258.2</ele><time>2026-04-23T13:09:42Z</time></trkpt><trkpt lat="41.690919847212925" lon="13.352097447078004"><ele>258.59999999999997</ele><time>2026-04-23T13:09:43Z</time></trkpt><trkpt lat="41.69102150140215" lon="13.35211181995441"><ele>259.0</ele><time>2026-04-23T13:09:44Z</time></trkpt><trkpt lat="41.69112810377454" lon="13.352123873560192"><ele>259.0</ele><time>2026-04-23T13:09:45Z</time></trkpt><trkpt lat="41.69124060202566" lon="13.352130349626469"><ele>259.0</ele><time>2026-04-23T13:09:46Z</time></trkpt><trkpt lat="41.691355726662195" lon="13.35213537952011"><ele>259.0</ele><time>2026-04-23T13:09:47Z</time></trkpt><trkpt lat="41.69145612546196" lon="13.352139846732246"><ele>259.0</ele><time>2026-04-23T13:09:48Z</time></trkpt><trkpt lat="41.69153192152702" lon="13.352143591738953"><ele>259.0</ele><time>2026-04-23T13:09:49Z</time></trkpt><trkpt lat="41.691644536101386" lon="13.352142289899785"><ele>259.0</ele><time>2026-04-23T13:09:51Z</time></trkpt><trkpt lat="41.69172892365541" lon="13.352136768669379"><ele>259.0</ele><time>2026-04-23T13:09:53Z</time></trkpt><trkpt lat="41.69179788602483" lon="13.352139734420017"><ele>259.0</ele><time>2026-04-23T13:09:55Z</time></trkpt><trkpt lat="41.69188270095028" lon="13.352132190882584"><ele>259.0</ele><time>2026-04-23T13:09:57Z</time></trkpt><trkpt lat="41.69198267771722" lon="13.352122575549403"><ele>259.0</ele><time>2026-04-23T13:09:59Z</time></trkpt><trkpt lat="41.69207380983195" lon="13.352121718412604"><ele>259.0</ele><time>2026-04-23T13:10:01Z</time></trkpt><trkpt lat="41.692184750884785" lon="13.352113402394433"><ele>259.0</ele><time>2026-04-23T13:10:03Z</time></trkpt><trkpt lat="41.69229521528607" lon="13.352090790097272"><ele>259.0</ele><time>2026-04-23T13:10:04Z</time></trkpt><trkpt lat="41.69243708795356" lon="13.352100046143892"><ele>259.0</ele><time>2026-04-23T13:10:05Z</time></trkpt><trkpt lat="41.692596529561385" lon="13.352111603316803"><ele>259.0</ele><time>2026-04-23T13:10:06Z</time></trkpt><trkpt lat="41.69276624349416" lon="13.352108391814117"><ele>259.66666666666663</ele><time>2026-04-23T13:10:07Z</time></trkpt><trkpt lat="41.69294139071987" lon="13.352117440527376"><ele>260.3333333333333</ele><time>2026-04-23T13:10:08Z</time></trkpt><trkpt lat="41.69312459058118" lon="13.352142892182357"><ele>261.0</ele><time>2026-04-23T13:10:09Z</time></trkpt><trkpt lat="41.693312824700214" lon="13.352182975630434"><ele>261.3333333333333</ele><time>2026-04-23T13:10:10Z</time></trkpt><trkpt lat="41.69350572226261" lon="13.35223694365046"><ele>261.66666666666663</ele><time>2026-04-23T13:10:11Z</time></trkpt><trkpt lat="41.69369996210468" lon="13.352296713391988"><ele>262.0</ele><time>2026-04-23T13:10:12Z</time></trkpt><trkpt lat="41.693893456562456" lon="13.352361579878249"><ele>262.0</ele><time>2026-04-23T13:10:13Z</time></trkpt><trkpt lat="41.694090203929576" lon="13.352424261922716"><ele>262.0</ele><time>2026-04-23T13:10:14Z</time></trkpt><trkpt lat="41.69429205122092" lon="13.352484274148678"><ele>262.0</ele><time>2026-04-23T13:10:15Z</time></trkpt><trkpt lat="41.694495557071754" lon="13.352545616873153"><ele>262.66666666666663</ele><time>2026-04-23T13:10:16Z</time></trkpt><trkpt lat="41.69469787545954" lon="13.352613606847461"><ele>263.3333333333333</ele><time>2026-04-23T13:10:17Z</time></trkpt><trkpt lat="41.69489341075356" lon="13.352685049112164"><ele>264.0</ele><time>2026-04-23T13:10:18Z</time></trkpt><trkpt lat="41.69508998141845" lon="13.352760983642423"><ele>264.3333333333333</ele><time>2026-04-23T13:10:19Z</time></trkpt><trkpt lat="41.695287577060924" lon="13.352849168192359"><ele>264.66666666666663</ele><time>2026-04-23T13:10:20Z</time></trkpt><trkpt lat="41.69548168661023" lon="13.352949351178887"><ele>265.0</ele><time>2026-04-23T13:10:21Z</time></trkpt><trkpt lat="41.695670215459536" lon="13.35306694548545"><ele>265.3333333333333</ele><time>2026-04-23T13:10:22Z</time></trkpt><trkpt lat="41.69585468390248" lon="13.35319935332206"><ele>265.6666666666667</ele><time>2026-04-23T13:10:23Z</time></trkpt><trkpt lat="41.69603916437362" lon="13.353351668522084"><ele>266.0</ele><time>2026-04-23T13:10:24Z</time></trkpt><trkpt lat="41.69624277881047" lon="13.353525135032665"><ele>267.0</ele><time>2026-04-23T13:10:25Z</time></trkpt><trkpt lat="41.6964564955972" lon="13.353704393766815"><ele>268.0</ele><time>2026-04-23T13:10:26Z</time></trkpt><trkpt lat="41.69664383392214" lon="13.353861366047528"><ele>267.66666666666663</ele><time>2026-04-23T13:10:27Z</time></trkpt><trkpt lat="41.696816825292174" lon="13.35400554181403"><ele>267.3333333333333</ele><time>2026-04-23T13:10:28Z</time></trkpt><trkpt lat="41.696978207304504" lon="13.354154674786534"><ele>267.0</ele><time>2026-04-23T13:10:29Z</time></trkpt><trkpt lat="41.69711723530619" lon="13.35431382980115"><ele>267.6666666666667</ele><time>2026-04-23T13:10:30Z</time></trkpt><trkpt lat="41.69723770912107" lon="13.354515141131442"><ele>268.33333333333337</ele><time>2026-04-23T13:10:31Z</time></trkpt><trkpt lat="41.69734148280117" lon="13.354746646013961"><ele>269.0</ele><time>2026-04-23T13:10:32Z</time></trkpt><trkpt lat="41.6974561226599" lon="13.354976913922302"><ele>269.0</ele><time>2026-04-23T13:10:33Z</time></trkpt><trkpt lat="41.69758396420377" lon="13.355194429589456"><ele>269.0</ele><time>2026-04-23T13:10:34Z</time></trkpt><trkpt lat="41.6977217282755" lon="13.355397349472243"><ele>269.0</ele><time>2026-04-23T13:10:35Z</time></trkpt><trkpt lat="41.69786706080463" lon="13.355585974801278"><ele>269.6666666666667</ele><time>2026-04-23T13:10:36Z</time></trkpt><trkpt lat="41.698020306553744" lon="13.355755416506614"><ele>270.3333333333333</ele><time>2026-04-23T13:10:37Z</time></trkpt><trkpt lat="41.69816985104062" lon="13.3558980972076"><ele>271.0</ele><time>2026-04-23T13:10:38Z</time></trkpt><trkpt lat="41.6983305476213" lon="13.35603543112059"><ele>271.0</ele><time>2026-04-23T13:10:39Z</time></trkpt><trkpt lat="41.69850732697825" lon="13.356176002320817"><ele>271.0</ele><time>2026-04-23T13:10:40Z</time></trkpt><trkpt lat="41.69869372922769" lon="13.356317089157075"><ele>271.0</ele><time>2026-04-23T13:10:41Z</time></trkpt><trkpt lat="41.6988925833405" lon="13.356442606566388"><ele>272.5</ele><time>2026-04-23T13:10:42Z</time></trkpt><trkpt lat="41.699106130774645" lon="13.356532832321466"><ele>274.0</ele><time>2026-04-23T13:10:43Z</time></trkpt><trkpt lat="41.699338127465055" lon="13.356602412300031"><ele>274.0</ele><time>2026-04-23T13:10:44Z</time></trkpt><trkpt lat="41.699572372223216" lon="13.356677656557915"><ele>274.0</ele><time>2026-04-23T13:10:45Z</time></trkpt><trkpt lat="41.69980016611109" lon="13.356759112282338"><ele>274.0</ele><time>2026-04-23T13:10:46Z</time></trkpt><trkpt lat="41.70002193699329" lon="13.356846805492575"><ele>274.0</ele><time>2026-04-23T13:10:47Z</time></trkpt><trkpt lat="41.70024017662133" lon="13.356935849651059"><ele>275.0</ele><time>2026-04-23T13:10:48Z</time></trkpt><trkpt lat="41.70045706110308" lon="13.35702460458397"><ele>276.0</ele><time>2026-04-23T13:10:49Z</time></trkpt><trkpt lat="41.70067333943772" lon="13.357104803109381"><ele>276.0</ele><time>2026-04-23T13:10:50Z</time></trkpt><trkpt lat="41.7008749091942" lon="13.357169942646015"><ele>276.0</ele><time>2026-04-23T13:10:51Z</time></trkpt><trkpt lat="41.70106032385381" lon="13.35722133422326"><ele>276.0</ele><time>2026-04-23T13:10:52Z</time></trkpt><trkpt lat="41.70123823818928" lon="13.35726846747809"><ele>276.3333333333333</ele><time>2026-04-23T13:10:53Z</time></trkpt><trkpt lat="41.70141491732865" lon="13.35731701095441"><ele>276.66666666666663</ele><time>2026-04-23T13:10:54Z</time></trkpt><trkpt lat="41.70158567425782" lon="13.35736731752386"><ele>277.0</ele><time>2026-04-23T13:10:55Z</time></trkpt><trkpt lat="41.70175221205763" lon="13.357413611346693"><ele>277.0</ele><time>2026-04-23T13:10:56Z</time></trkpt><trkpt lat="41.70190894151893" lon="13.357456444550802"><ele>277.0</ele><time>2026-04-23T13:10:57Z</time></trkpt><trkpt lat="41.70204972567304" lon="13.357496489139338"><ele>277.0</ele><time>2026-04-23T13:10:58Z</time></trkpt><trkpt lat="41.70217948216856" lon="13.357533295467714"><ele>277.0</ele><time>2026-04-23T13:10:59Z</time></trkpt><trkpt lat="41.702298694789924" lon="13.357565626600362"><ele>277.16666666666663</ele><time>2026-04-23T13:11:00Z</time></trkpt><trkpt lat="41.70239983509819" lon="13.357596137001636"><ele>277.3333333333333</ele><time>2026-04-23T13:11:01Z</time></trkpt><trkpt lat="41.70248007197941" lon="13.357618117847515"><ele>277.5</ele><time>2026-04-23T13:11:02Z</time></trkpt><trkpt lat="41.70254267765364" lon="13.357631825926356"><ele>277.6666666666667</ele><time>2026-04-23T13:11:03Z</time></trkpt><trkpt lat="41.70261896285523" lon="13.357645151190683"><ele>277.83333333333337</ele><time>2026-04-23T13:11:05Z</time></trkpt><trkpt lat="41.70268825280675" lon="13.357658515589558"><ele>278.0</ele><time>2026-04-23T13:11:10Z</time></trkpt><trkpt lat="41.70276848531803" lon="13.357667706572704"><ele>278.6</ele><time>2026-04-23T13:11:17Z</time></trkpt><trkpt lat="41.702841810360496" lon="13.357687690768266"><ele>279.20000000000005</ele><time>2026-04-23T13:11:18Z</time></trkpt><trkpt lat="41.702932687865655" lon="13.357708912581613"><ele>279.8</ele><time>2026-04-23T13:11:19Z</time></trkpt><trkpt lat="41.70302920238533" lon="13.357726739354861"><ele>280.40000000000003</ele><time>2026-04-23T13:11:20Z</time></trkpt><trkpt lat="41.70313632977159" lon="13.357746103483986"><ele>281.0</ele><time>2026-04-23T13:11:21Z</time></trkpt><trkpt lat="41.703262072834384" lon="13.3577637634913"><ele>281.0</ele><time>2026-04-23T13:11:22Z</time></trkpt><trkpt lat="41.703400535741224" lon="13.357783387875461"><ele>281.0</ele><time>2026-04-23T13:11:23Z</time></trkpt><trkpt lat="41.70354898012696" lon="13.357813270676301"><ele>281.0</ele><time>2026-04-23T13:11:24Z</time></trkpt><trkpt lat="41.7037012247489" lon="13.357855141093607"><ele>281.0</ele><time>2026-04-23T13:11:25Z</time></trkpt><trkpt lat="41.703857901549924" lon="13.357890558122067"><ele>281.33333333333337</ele><time>2026-04-23T13:11:26Z</time></trkpt><trkpt lat="41.70402104079341" lon="13.35792619509543"><ele>281.6666666666667</ele><time>2026-04-23T13:11:27Z</time></trkpt><trkpt lat="41.70419058437943" lon="13.357963560431616"><ele>282.0</ele><time>2026-04-23T13:11:28Z</time></trkpt><trkpt lat="41.704359742463524" lon="13.358006345450045"><ele>282.6666666666667</ele><time>2026-04-23T13:11:29Z</time></trkpt><trkpt lat="41.70453474245541" lon="13.35804902754101"><ele>283.33333333333337</ele><time>2026-04-23T13:11:30Z</time></trkpt><trkpt lat="41.704715590928004" lon="13.358097124916162"><ele>284.0</ele><time>2026-04-23T13:11:31Z</time></trkpt><trkpt lat="41.70489629018403" lon="13.358152301861418"><ele>284.0</ele><time>2026-04-23T13:11:32Z</time></trkpt><trkpt lat="41.705056288434626" lon="13.358206212882902"><ele>284.0</ele><time>2026-04-23T13:11:33Z</time></trkpt><trkpt lat="41.70520357998959" lon="13.35828092214851"><ele>284.0</ele><time>2026-04-23T13:11:34Z</time></trkpt><trkpt lat="41.70537023333658" lon="13.358331246957437"><ele>284.0</ele><time>2026-04-23T13:11:35Z</time></trkpt><trkpt lat="41.70552948943231" lon="13.358406438358061"><ele>284.0</ele><time>2026-04-23T13:11:36Z</time></trkpt><trkpt lat="41.70570354365094" lon="13.358473043754067"><ele>284.0</ele><time>2026-04-23T13:11:37Z</time></trkpt><trkpt lat="41.70589159551766" lon="13.35854500097523"><ele>283.5</ele><time>2026-04-23T13:11:38Z</time></trkpt><trkpt lat="41.7061253192989" lon="13.358604194888901"><ele>283.0</ele><time>2026-04-23T13:11:39Z</time></trkpt><trkpt lat="41.706368848703406" lon="13.358660061896693"><ele>283.0</ele><time>2026-04-23T13:11:40Z</time></trkpt><trkpt lat="41.706573468808585" lon="13.358685828171945"><ele>283.0</ele><time>2026-04-23T13:11:41Z</time></trkpt><trkpt lat="41.70675975308669" lon="13.358696735619514"><ele>283.0</ele><time>2026-04-23T13:11:42Z</time></trkpt><trkpt lat="41.706954650848786" lon="13.358712459436166"><ele>285.0</ele><time>2026-04-23T13:11:43Z</time></trkpt><trkpt lat="41.70718072973299" lon="13.35872215782234"><ele>287.0</ele><time>2026-04-23T13:11:44Z</time></trkpt><trkpt lat="41.70743199984718" lon="13.358737685279301"><ele>287.0</ele><time>2026-04-23T13:11:45Z</time></trkpt><trkpt lat="41.70767325846734" lon="13.358770561313507"><ele>287.0</ele><time>2026-04-23T13:11:46Z</time></trkpt><trkpt lat="41.707916459879975" lon="13.358799314939928"><ele>289.0</ele><time>2026-04-23T13:11:47Z</time></trkpt><trkpt lat="41.70815432352333" lon="13.358819572821712"><ele>291.0</ele><time>2026-04-23T13:11:48Z</time></trkpt><trkpt lat="41.708380791576445" lon="13.358841968303182"><ele>291.6666666666667</ele><time>2026-04-23T13:11:49Z</time></trkpt><trkpt lat="41.708580142607" lon="13.358862703447073"><ele>292.33333333333337</ele><time>2026-04-23T13:11:50Z</time></trkpt><trkpt lat="41.70876515671674" lon="13.358881342609996"><ele>293.0</ele><time>2026-04-23T13:11:51Z</time></trkpt><trkpt lat="41.70893508945529" lon="13.358877982150899"><ele>293.6666666666667</ele><time>2026-04-23T13:11:52Z</time></trkpt><trkpt lat="41.709087781060965" lon="13.358848191807091"><ele>294.3333333333333</ele><time>2026-04-23T13:11:53Z</time></trkpt><trkpt lat="41.709235281163096" lon="13.35877569439431"><ele>295.0</ele><time>2026-04-23T13:11:54Z</time></trkpt><trkpt lat="41.7093758977135" lon="13.358658691877551"><ele>296.3333333333333</ele><time>2026-04-23T13:11:55Z</time></trkpt><trkpt lat="41.70949486555876" lon="13.358520815713344"><ele>297.6666666666667</ele><time>2026-04-23T13:11:56Z</time></trkpt><trkpt lat="41.709609579888294" lon="13.358355005218597"><ele>299.0</ele><time>2026-04-23T13:11:57Z</time></trkpt><trkpt lat="41.70973302303308" lon="13.358174114964932"><ele>298.6666666666667</ele><time>2026-04-23T13:11:58Z</time></trkpt><trkpt lat="41.70986712830422" lon="13.35798689576824"><ele>298.3333333333333</ele><time>2026-04-23T13:11:59Z</time></trkpt><trkpt lat="41.710011935780514" lon="13.357800995989594"><ele>298.0</ele><time>2026-04-23T13:12:00Z</time></trkpt><trkpt lat="41.710150167020835" lon="13.357611743940108"><ele>299.0</ele><time>2026-04-23T13:12:01Z</time></trkpt><trkpt lat="41.71028517326918" lon="13.357418541828752"><ele>300.0</ele><time>2026-04-23T13:12:02Z</time></trkpt><trkpt lat="41.71042300083878" lon="13.357222975256866"><ele>301.0</ele><time>2026-04-23T13:12:03Z</time></trkpt><trkpt lat="41.710562318146145" lon="13.357022648551583"><ele>301.66666666666663</ele><time>2026-04-23T13:12:04Z</time></trkpt><trkpt lat="41.71070206822793" lon="13.356825172055784"><ele>302.3333333333333</ele><time>2026-04-23T13:12:05Z</time></trkpt><trkpt lat="41.710834814553394" lon="13.356622292325037"><ele>303.0</ele><time>2026-04-23T13:12:06Z</time></trkpt><trkpt lat="41.7109834930735" lon="13.356434686825258"><ele>304.0</ele><time>2026-04-23T13:12:07Z</time></trkpt><trkpt lat="41.71111546034069" lon="13.356226887276177"><ele>305.0</ele><time>2026-04-23T13:12:08Z</time></trkpt><trkpt lat="41.711258446974014" lon="13.356044617926422"><ele>306.0</ele><time>2026-04-23T13:12:09Z</time></trkpt><trkpt lat="41.711389520135775" lon="13.355838770831383"><ele>306.0</ele><time>2026-04-23T13:12:10Z</time></trkpt><trkpt lat="41.71153562772656" lon="13.35565673536461"><ele>306.0</ele><time>2026-04-23T13:12:11Z</time></trkpt><trkpt lat="41.71166606428644" lon="13.355448889265624"><ele>306.0</ele><time>2026-04-23T13:12:12Z</time></trkpt><trkpt lat="41.71180735064874" lon="13.35524474072894"><ele>307.6666666666667</ele><time>2026-04-23T13:12:13Z</time></trkpt><trkpt lat="41.71195560033896" lon="13.355039949743158"><ele>309.33333333333337</ele><time>2026-04-23T13:12:14Z</time></trkpt><trkpt lat="41.71210759570189" lon="13.354827914321183"><ele>311.0</ele><time>2026-04-23T13:12:15Z</time></trkpt><trkpt lat="41.71225873796072" lon="13.35460617203472"><ele>311.0</ele><time>2026-04-23T13:12:16Z</time></trkpt><trkpt lat="41.712414382142626" lon="13.354380194416743"><ele>311.0</ele><time>2026-04-23T13:12:17Z</time></trkpt><trkpt lat="41.71257293563616" lon="13.354157868683949"><ele>311.0</ele><time>2026-04-23T13:12:18Z</time></trkpt><trkpt lat="41.71273248017494" lon="13.353933664829285"><ele>311.0</ele><time>2026-04-23T13:12:19Z</time></trkpt><trkpt lat="41.71289064665988" lon="13.353707450872998"><ele>313.0</ele><time>2026-04-23T13:12:20Z</time></trkpt><trkpt lat="41.713050573681535" lon="13.353483945001587"><ele>315.0</ele><time>2026-04-23T13:12:21Z</time></trkpt><trkpt lat="41.713218516024675" lon="13.353272700672706"><ele>315.0</ele><time>2026-04-23T13:12:22Z</time></trkpt><trkpt lat="41.71339490215659" lon="13.35308153845599"><ele>315.0</ele><time>2026-04-23T13:12:23Z</time></trkpt><trkpt lat="41.71357922153895" lon="13.35290756725579"><ele>316.3333333333333</ele><time>2026-04-23T13:12:24Z</time></trkpt><trkpt lat="41.713770602223946" lon="13.352754928104336"><ele>317.66666666666663</ele><time>2026-04-23T13:12:25Z</time></trkpt><trkpt lat="41.71396951711577" lon="13.352619950174388"><ele>319.0</ele><time>2026-04-23T13:12:26Z</time></trkpt><trkpt lat="41.71417270423646" lon="13.352506239361537"><ele>319.0</ele><time>2026-04-23T13:12:27Z</time></trkpt><trkpt lat="41.71438214674509" lon="13.352417244116962"><ele>319.0</ele><time>2026-04-23T13:12:28Z</time></trkpt><trkpt lat="41.714596121495006" lon="13.352338180321636"><ele>319.0</ele><time>2026-04-23T13:12:29Z</time></trkpt><trkpt lat="41.71481259714378" lon="13.352278026183301"><ele>322.5</ele><time>2026-04-23T13:12:30Z</time></trkpt><trkpt lat="41.715035852330764" lon="13.352243479384782"><ele>326.0</ele><time>2026-04-23T13:12:31Z</time></trkpt><trkpt lat="41.715265529547615" lon="13.352224714595778"><ele>323.5</ele><time>2026-04-23T13:12:32Z</time></trkpt><trkpt lat="41.71550050852942" lon="13.352205220699245"><ele>321.0</ele><time>2026-04-23T13:12:33Z</time></trkpt><trkpt lat="41.715743415922866" lon="13.35218231698198"><ele>321.0</ele><time>2026-04-23T13:12:34Z</time></trkpt><trkpt lat="41.715989503172196" lon="13.352156476434955"><ele>321.0</ele><time>2026-04-23T13:12:35Z</time></trkpt><trkpt lat="41.71623114710988" lon="13.352129283069393"><ele>322.6666666666667</ele><time>2026-04-23T13:12:36Z</time></trkpt><trkpt lat="41.71644583647987" lon="13.352098841398137"><ele>324.33333333333337</ele><time>2026-04-23T13:12:37Z</time></trkpt><trkpt lat="41.716642657223495" lon="13.352053026137025"><ele>326.0</ele><time>2026-04-23T13:12:38Z</time></trkpt><trkpt lat="41.71684125914995" lon="13.351953564781565"><ele>325.6666666666667</ele><time>2026-04-23T13:12:39Z</time></trkpt><trkpt lat="41.71702516906098" lon="13.351821963213027"><ele>325.3333333333333</ele><time>2026-04-23T13:12:40Z</time></trkpt><trkpt lat="41.71719335956729" lon="13.351654607030614"><ele>325.0</ele><time>2026-04-23T13:12:41Z</time></trkpt><trkpt lat="41.71734161620663" lon="13.35148821814124"><ele>325.66666666666663</ele><time>2026-04-23T13:12:42Z</time></trkpt><trkpt lat="41.71746644669801" lon="13.351327912411396"><ele>326.3333333333333</ele><time>2026-04-23T13:12:43Z</time></trkpt><trkpt lat="41.71758576490747" lon="13.35116309203444"><ele>327.0</ele><time>2026-04-23T13:12:44Z</time></trkpt><trkpt lat="41.71769640743402" lon="13.350988453370697"><ele>326.0</ele><time>2026-04-23T13:12:45Z</time></trkpt><trkpt lat="41.71778608586205" lon="13.350813041988395"><ele>325.0</ele><time>2026-04-23T13:12:46Z</time></trkpt><trkpt lat="41.71786460884044" lon="13.350627723608417"><ele>324.0</ele><time>2026-04-23T13:12:47Z</time></trkpt><trkpt lat="41.717940033314555" lon="13.350450201553638"><ele>324.0</ele><time>2026-04-23T13:12:48Z</time></trkpt><trkpt lat="41.718007027595846" lon="13.35028881957891"><ele>324.0</ele><time>2026-04-23T13:12:49Z</time></trkpt><trkpt lat="41.71807389499395" lon="13.350132583849746"><ele>324.0</ele><time>2026-04-23T13:12:50Z</time></trkpt><trkpt lat="41.718145578770496" lon="13.349972852230504"><ele>324.0</ele><time>2026-04-23T13:12:51Z</time></trkpt><trkpt lat="41.718215650106174" lon="13.349816788599243"><ele>325.5</ele><time>2026-04-23T13:12:52Z</time></trkpt><trkpt lat="41.7182817730097" lon="13.349667279392625"><ele>327.0</ele><time>2026-04-23T13:12:53Z</time></trkpt><trkpt lat="41.71834255470476" lon="13.349522529737474"><ele>328.5</ele><time>2026-04-23T13:12:54Z</time></trkpt><trkpt lat="41.71840226159075" lon="13.349386030473578"><ele>330.0</ele><time>2026-04-23T13:12:55Z</time></trkpt><trkpt lat="41.718464293881624" lon="13.34925241128754"><ele>330.0</ele><time>2026-04-23T13:12:56Z</time></trkpt><trkpt lat="41.71852546476167" lon="13.349107952330186"><ele>330.0</ele><time>2026-04-23T13:12:57Z</time></trkpt><trkpt lat="41.71858543071519" lon="13.348957840075622"><ele>330.0</ele><time>2026-04-23T13:12:58Z</time></trkpt><trkpt lat="41.71865523757053" lon="13.348813260393511"><ele>330.0</ele><time>2026-04-23T13:12:59Z</time></trkpt><trkpt lat="41.71872717691341" lon="13.348668910178622"><ele>329.6</ele><time>2026-04-23T13:13:00Z</time></trkpt><trkpt lat="41.71878740558827" lon="13.34852570388892"><ele>329.2</ele><time>2026-04-23T13:13:01Z</time></trkpt><trkpt lat="41.71883842639352" lon="13.34840068204726"><ele>328.79999999999995</ele><time>2026-04-23T13:13:02Z</time></trkpt><trkpt lat="41.71888355539533" lon="13.348293042167855"><ele>328.4</ele><time>2026-04-23T13:13:03Z</time></trkpt><trkpt lat="41.718927421556295" lon="13.348195281312005"><ele>328.0</ele><time>2026-04-23T13:13:04Z</time></trkpt><trkpt lat="41.71897043757344" lon="13.348102258294492"><ele>329.0</ele><time>2026-04-23T13:13:05Z</time></trkpt><trkpt lat="41.71902474210851" lon="13.348005725567912"><ele>330.0</ele><time>2026-04-23T13:13:06Z</time></trkpt><trkpt lat="41.719102980213464" lon="13.347929593827736"><ele>331.0</ele><time>2026-04-23T13:13:07Z</time></trkpt><trkpt lat="41.71918980368874" lon="13.347895496678605"><ele>332.0</ele><time>2026-04-23T13:13:08Z</time></trkpt><trkpt lat="41.71930307247641" lon="13.347918906176801"><ele>333.0</ele><time>2026-04-23T13:13:09Z</time></trkpt><trkpt lat="41.719439602791006" lon="13.348002715010436"><ele>333.3333333333333</ele><time>2026-04-23T13:13:10Z</time></trkpt><trkpt lat="41.719617600460886" lon="13.34810287589438"><ele>333.66666666666663</ele><time>2026-04-23T13:13:11Z</time></trkpt><trkpt lat="41.71980209006315" lon="13.348185696382009"><ele>334.0</ele><time>2026-04-23T13:13:12Z</time></trkpt><trkpt lat="41.71996269899938" lon="13.348272015026398"><ele>334.0</ele><time>2026-04-23T13:13:13Z</time></trkpt><trkpt lat="41.7200863850076" lon="13.348394328031157"><ele>334.0</ele><time>2026-04-23T13:13:14Z</time></trkpt><trkpt lat="41.720198106022984" lon="13.3485584975246"><ele>334.0</ele><time>2026-04-23T13:13:15Z</time></trkpt><trkpt lat="41.72027730697478" lon="13.348759193342413"><ele>339.66666666666663</ele><time>2026-04-23T13:13:16Z</time></trkpt><trkpt lat="41.720338439336075" lon="13.349005032811679"><ele>345.3333333333333</ele><time>2026-04-23T13:13:17Z</time></trkpt><trkpt lat="41.72040268044254" lon="13.34922816300894"><ele>351.0</ele><time>2026-04-23T13:13:18Z</time></trkpt><trkpt lat="41.720454740641586" lon="13.349416304020714"><ele>351.0</ele><time>2026-04-23T13:13:19Z</time></trkpt><trkpt lat="41.72050417215845" lon="13.349584131818334"><ele>351.0</ele><time>2026-04-23T13:13:20Z</time></trkpt><trkpt lat="41.720569148273135" lon="13.349755063120117"><ele>351.0</ele><time>2026-04-23T13:13:21Z</time></trkpt><trkpt lat="41.72067083306048" lon="13.349906455041298"><ele>351.0</ele><time>2026-04-23T13:13:22Z</time></trkpt><trkpt lat="41.720792807343415" lon="13.350046761521225"><ele>352.6666666666667</ele><time>2026-04-23T13:13:23Z</time></trkpt><trkpt lat="41.72091083965902" lon="13.350190428085353"><ele>354.33333333333337</ele><time>2026-04-23T13:13:24Z</time></trkpt><trkpt lat="41.7210463166815" lon="13.350293423012067"><ele>356.0</ele><time>2026-04-23T13:13:25Z</time></trkpt><trkpt lat="41.721171489966366" lon="13.350412133899713"><ele>356.0</ele><time>2026-04-23T13:13:26Z</time></trkpt><trkpt lat="41.72128682375218" lon="13.350524685286828"><ele>356.0</ele><time>2026-04-23T13:13:27Z</time></trkpt><trkpt lat="41.721406511560936" lon="13.350642609721278"><ele>356.0</ele><time>2026-04-23T13:13:28Z</time></trkpt><trkpt lat="41.72152281271527" lon="13.350776333861873"><ele>356.0</ele><time>2026-04-23T13:13:29Z</time></trkpt><trkpt lat="41.72165221346169" lon="13.350902667011486"><ele>355.5</ele><time>2026-04-23T13:13:30Z</time></trkpt><trkpt lat="41.721758787796226" lon="13.351006449266523"><ele>355.0</ele><time>2026-04-23T13:13:31Z</time></trkpt><trkpt lat="41.72186423008722" lon="13.35108231589702"><ele>354.5</ele><time>2026-04-23T13:13:32Z</time></trkpt><trkpt lat="41.721956649628154" lon="13.351175437498068"><ele>354.0</ele><time>2026-04-23T13:13:33Z</time></trkpt><trkpt lat="41.72203899901623" lon="13.351255213466294"><ele>354.0</ele><time>2026-04-23T13:13:34Z</time></trkpt><trkpt lat="41.7221188799384" lon="13.3513161575383"><ele>354.0</ele><time>2026-04-23T13:13:35Z</time></trkpt><trkpt lat="41.722195727372295" lon="13.351337573273993"><ele>354.0</ele><time>2026-04-23T13:13:36Z</time></trkpt><trkpt lat="41.72227795912356" lon="13.3513276873879"><ele>354.0</ele><time>2026-04-23T13:13:37Z</time></trkpt><trkpt lat="41.72235861973631" lon="13.351272313691398"><ele>354.0</ele><time>2026-04-23T13:13:38Z</time></trkpt><trkpt lat="41.722417072115846" lon="13.351174195142866"><ele>354.0</ele><time>2026-04-23T13:13:39Z</time></trkpt><trkpt lat="41.72243312364474" lon="13.35105693185711"><ele>354.0</ele><time>2026-04-23T13:13:40Z</time></trkpt><trkpt lat="41.722415232585206" lon="13.35092836069257"><ele>354.0</ele><time>2026-04-23T13:13:41Z</time></trkpt><trkpt lat="41.722361350362355" lon="13.350785390066799"><ele>354.0</ele><time>2026-04-23T13:13:42Z</time></trkpt><trkpt lat="41.72228536787735" lon="13.350645112122924"><ele>354.0</ele><time>2026-04-23T13:13:43Z</time></trkpt><trkpt lat="41.72221432517672" lon="13.350504980003906"><ele>357.0</ele><time>2026-04-23T13:13:44Z</time></trkpt><trkpt lat="41.722129340533" lon="13.350352287935863"><ele>360.0</ele><time>2026-04-23T13:13:45Z</time></trkpt><trkpt lat="41.72203785882855" lon="13.350140049288248"><ele>363.0</ele><time>2026-04-23T13:13:46Z</time></trkpt><trkpt lat="41.72190837296681" lon="13.349921125984768"><ele>364.0</ele><time>2026-04-23T13:13:47Z</time></trkpt><trkpt lat="41.72178097564852" lon="13.349676491378316"><ele>365.0</ele><time>2026-04-23T13:13:48Z</time></trkpt><trkpt lat="41.72168078845994" lon="13.34947578641292"><ele>366.0</ele><time>2026-04-23T13:13:49Z</time></trkpt><trkpt lat="41.72158765862791" lon="13.349296779005844"><ele>366.0</ele><time>2026-04-23T13:13:50Z</time></trkpt><trkpt lat="41.72150635204098" lon="13.349134565707384"><ele>366.0</ele><time>2026-04-23T13:13:51Z</time></trkpt><trkpt lat="41.721432001382766" lon="13.34896642048446"><ele>366.0</ele><time>2026-04-23T13:13:52Z</time></trkpt><trkpt lat="41.72134370871195" lon="13.348805110820534"><ele>366.0</ele><time>2026-04-23T13:13:53Z</time></trkpt><trkpt lat="41.721273331589046" lon="13.348634865024072"><ele>369.0</ele><time>2026-04-23T13:13:54Z</time></trkpt><trkpt lat="41.72122432011231" lon="13.34845486322813"><ele>372.0</ele><time>2026-04-23T13:13:55Z</time></trkpt><trkpt lat="41.721198902558356" lon="13.348264673783296"><ele>375.0</ele><time>2026-04-23T13:13:56Z</time></trkpt><trkpt lat="41.72119018065962" lon="13.34804384393282"><ele>376.3333333333333</ele><time>2026-04-23T13:13:57Z</time></trkpt><trkpt lat="41.72119484823905" lon="13.347776840620359"><ele>377.66666666666663</ele><time>2026-04-23T13:13:58Z</time></trkpt><trkpt lat="41.721224175243464" lon="13.347474688284398"><ele>379.0</ele><time>2026-04-23T13:13:59Z</time></trkpt><trkpt lat="41.72124802553101" lon="13.347140007817671"><ele>380.0</ele><time>2026-04-23T13:14:00Z</time></trkpt><trkpt lat="41.7212554449274" lon="13.346820075761137"><ele>381.0</ele><time>2026-04-23T13:14:01Z</time></trkpt><trkpt lat="41.72126356707786" lon="13.346517057600895"><ele>381.3333333333333</ele><time>2026-04-23T13:14:02Z</time></trkpt><trkpt lat="41.721269782266106" lon="13.346253347198873"><ele>381.66666666666663</ele><time>2026-04-23T13:14:03Z</time></trkpt><trkpt lat="41.72127484892886" lon="13.346024944153537"><ele>382.0</ele><time>2026-04-23T13:14:04Z</time></trkpt><trkpt lat="41.72128349228714" lon="13.3458323877984"><ele>382.0</ele><time>2026-04-23T13:14:05Z</time></trkpt><trkpt lat="41.72129113690259" lon="13.345689721119102"><ele>382.0</ele><time>2026-04-23T13:14:06Z</time></trkpt><trkpt lat="41.7213166789339" lon="13.345563196911176"><ele>382.0</ele><time>2026-04-23T13:14:07Z</time></trkpt><trkpt lat="41.72138074096368" lon="13.345443285154873"><ele>382.0</ele><time>2026-04-23T13:14:08Z</time></trkpt><trkpt lat="41.721470008545985" lon="13.345363917713708"><ele>382.0</ele><time>2026-04-23T13:14:09Z</time></trkpt><trkpt lat="41.72156604387948" lon="13.34533868566779"><ele>382.0</ele><time>2026-04-23T13:14:10Z</time></trkpt><trkpt lat="41.72166423773029" lon="13.345385398436841"><ele>382.0</ele><time>2026-04-23T13:14:11Z</time></trkpt><trkpt lat="41.721741845818364" lon="13.345497217701325"><ele>382.0</ele><time>2026-04-23T13:14:12Z</time></trkpt><trkpt lat="41.72175796055144" lon="13.345675893462888"><ele>382.0</ele><time>2026-04-23T13:14:13Z</time></trkpt><trkpt lat="41.72180244515405" lon="13.345893355148407"><ele>382.0</ele><time>2026-04-23T13:14:14Z</time></trkpt><trkpt lat="41.72182045584199" lon="13.34616084614401"><ele>382.0</ele><time>2026-04-23T13:14:15Z</time></trkpt><trkpt lat="41.7218698784893" lon="13.346398572864302"><ele>382.0</ele><time>2026-04-23T13:14:16Z</time></trkpt><trkpt lat="41.72190542710897" lon="13.346650932323918"><ele>385.66666666666663</ele><time>2026-04-23T13:14:17Z</time></trkpt><trkpt lat="41.7219386783586" lon="13.34691008048162"><ele>389.3333333333333</ele><time>2026-04-23T13:14:18Z</time></trkpt><trkpt lat="41.72197775772716" lon="13.3471732035974"><ele>393.0</ele><time>2026-04-23T13:14:19Z</time></trkpt><trkpt lat="41.72201416768876" lon="13.347414119936694"><ele>393.0</ele><time>2026-04-23T13:14:20Z</time></trkpt><trkpt lat="41.722057198804876" lon="13.347615678041723"><ele>393.0</ele><time>2026-04-23T13:14:21Z</time></trkpt><trkpt lat="41.7221282856194" lon="13.347778892611947"><ele>393.0</ele><time>2026-04-23T13:14:22Z</time></trkpt><trkpt lat="41.722223964323625" lon="13.347933525856549"><ele>393.0</ele><time>2026-04-23T13:14:23Z</time></trkpt><trkpt lat="41.7223613250743" lon="13.34801759461419"><ele>393.0</ele><time>2026-04-23T13:14:24Z</time></trkpt><trkpt lat="41.722518081433904" lon="13.34800738817986"><ele>393.0</ele><time>2026-04-23T13:14:25Z</time></trkpt><trkpt lat="41.72268728087492" lon="13.347975898342435"><ele>393.0</ele><time>2026-04-23T13:14:26Z</time></trkpt><trkpt lat="41.72288599877127" lon="13.347943954426292"><ele>395.66666666666663</ele><time>2026-04-23T13:14:27Z</time></trkpt><trkpt lat="41.72307807885901" lon="13.347897850376565"><ele>398.3333333333333</ele><time>2026-04-23T13:14:28Z</time></trkpt><trkpt lat="41.7232488267183" lon="13.347839180423716"><ele>401.0</ele><time>2026-04-23T13:14:29Z</time></trkpt><trkpt lat="41.72343248498417" lon="13.347800313246728"><ele>401.66666666666663</ele><time>2026-04-23T13:14:30Z</time></trkpt><trkpt lat="41.72361941342508" lon="13.347762647387972"><ele>402.33333333333337</ele><time>2026-04-23T13:14:31Z</time></trkpt><trkpt lat="41.72380399129217" lon="13.34773563001989"><ele>403.0</ele><time>2026-04-23T13:14:32Z</time></trkpt><trkpt lat="41.723969443478936" lon="13.347712893517427"><ele>403.0</ele><time>2026-04-23T13:14:33Z</time></trkpt><trkpt lat="41.72412223285235" lon="13.347697905068681"><ele>403.0</ele><time>2026-04-23T13:14:34Z</time></trkpt><trkpt lat="41.724279859510325" lon="13.347681986641494"><ele>403.0</ele><time>2026-04-23T13:14:35Z</time></trkpt><trkpt lat="41.724447988707674" lon="13.347661627171401"><ele>403.6666666666667</ele><time>2026-04-23T13:14:36Z</time></trkpt><trkpt lat="41.724620551710295" lon="13.347627719255545"><ele>404.33333333333337</ele><time>2026-04-23T13:14:37Z</time></trkpt><trkpt lat="41.724795258717215" lon="13.347583725829917"><ele>405.0</ele><time>2026-04-23T13:14:38Z</time></trkpt><trkpt lat="41.7249755146412" lon="13.347542867223224"><ele>405.0</ele><time>2026-04-23T13:14:39Z</time></trkpt><trkpt lat="41.72515243305086" lon="13.34749215672534"><ele>405.0</ele><time>2026-04-23T13:14:40Z</time></trkpt><trkpt lat="41.725331361822825" lon="13.34743827162344"><ele>405.0</ele><time>2026-04-23T13:14:41Z</time></trkpt><trkpt lat="41.72550782248156" lon="13.347387803949612"><ele>405.66666666666663</ele><time>2026-04-23T13:14:42Z</time></trkpt><trkpt lat="41.72568562581665" lon="13.347335720541519"><ele>406.3333333333333</ele><time>2026-04-23T13:14:43Z</time></trkpt><trkpt lat="41.725863059825805" lon="13.347284004707602"><ele>407.0</ele><time>2026-04-23T13:14:44Z</time></trkpt><trkpt lat="41.72602920056147" lon="13.347234846678981"><ele>416.0</ele><time>2026-04-23T13:14:45Z</time></trkpt><trkpt lat="41.72617773165643" lon="13.347192943041675"><ele>425.0</ele><time>2026-04-23T13:14:46Z</time></trkpt><trkpt lat="41.726329449618945" lon="13.347150453699841"><ele>434.0</ele><time>2026-04-23T13:14:47Z</time></trkpt><trkpt lat="41.72648275012" lon="13.347110028168043"><ele>434.0</ele><time>2026-04-23T13:14:48Z</time></trkpt><trkpt lat="41.72663447830378" lon="13.347065486578197"><ele>434.0</ele><time>2026-04-23T13:14:49Z</time></trkpt><trkpt lat="41.72678395735733" lon="13.347023658884899"><ele>434.0</ele><time>2026-04-23T13:14:50Z</time></trkpt><trkpt lat="41.72693308265962" lon="13.346982531447942"><ele>432.5</ele><time>2026-04-23T13:14:51Z</time></trkpt><trkpt lat="41.72707826567341" lon="13.346941273141956"><ele>431.0</ele><time>2026-04-23T13:14:52Z</time></trkpt><trkpt lat="41.72722148142993" lon="13.346901529815678"><ele>429.5</ele><time>2026-04-23T13:14:53Z</time></trkpt><trkpt lat="41.72736332971793" lon="13.346853765205505"><ele>428.0</ele><time>2026-04-23T13:14:54Z</time></trkpt><trkpt lat="41.72751027797644" lon="13.346785424655085"><ele>428.0</ele><time>2026-04-23T13:14:55Z</time></trkpt><trkpt lat="41.72767129032046" lon="13.346702599892874"><ele>428.0</ele><time>2026-04-23T13:14:56Z</time></trkpt><trkpt lat="41.727833874533744" lon="13.346613646909805"><ele>428.0</ele><time>2026-04-23T13:14:57Z</time></trkpt><trkpt lat="41.727994677228935" lon="13.346524759218347"><ele>431.66666666666663</ele><time>2026-04-23T13:14:58Z</time></trkpt><trkpt lat="41.72814073421778" lon="13.346445714602936"><ele>435.33333333333337</ele><time>2026-04-23T13:14:59Z</time></trkpt><trkpt lat="41.72827168176156" lon="13.346369470155363"><ele>439.0</ele><time>2026-04-23T13:15:00Z</time></trkpt><trkpt lat="41.72840910153626" lon="13.346287659833317"><ele>439.0</ele><time>2026-04-23T13:15:01Z</time></trkpt><trkpt lat="41.72854772681554" lon="13.346197778621097"><ele>439.0</ele><time>2026-04-23T13:15:02Z</time></trkpt><trkpt lat="41.72868906088315" lon="13.346105662621806"><ele>439.0</ele><time>2026-04-23T13:15:03Z</time></trkpt><trkpt lat="41.728834377972134" lon="13.346028693049615"><ele>436.25</ele><time>2026-04-23T13:15:04Z</time></trkpt><trkpt lat="41.728977528409146" lon="13.345952766951683"><ele>433.5</ele><time>2026-04-23T13:15:05Z</time></trkpt><trkpt lat="41.729102117219874" lon="13.345882074943143"><ele>430.75</ele><time>2026-04-23T13:15:06Z</time></trkpt><trkpt lat="41.72922157423489" lon="13.34580753232712"><ele>428.0</ele><time>2026-04-23T13:15:07Z</time></trkpt><trkpt lat="41.72933470409625" lon="13.345741796117974"><ele>428.2</ele><time>2026-04-23T13:15:08Z</time></trkpt><trkpt lat="41.729440883940335" lon="13.345682191558645"><ele>428.4</ele><time>2026-04-23T13:15:09Z</time></trkpt><trkpt lat="41.729541000875635" lon="13.345625012716276"><ele>428.59999999999997</ele><time>2026-04-23T13:15:10Z</time></trkpt><trkpt lat="41.72963737269712" lon="13.34556533624574"><ele>428.79999999999995</ele><time>2026-04-23T13:15:11Z</time></trkpt><trkpt lat="41.729734273783166" lon="13.345506038414282"><ele>429.0</ele><time>2026-04-23T13:15:12Z</time></trkpt><trkpt lat="41.72983467824929" lon="13.345453788744262"><ele>430.79999999999995</ele><time>2026-04-23T13:15:13Z</time></trkpt><trkpt lat="41.72992925730491" lon="13.345405748590805"><ele>432.59999999999997</ele><time>2026-04-23T13:15:14Z</time></trkpt><trkpt lat="41.73002115896278" lon="13.345365155686318"><ele>434.4</ele><time>2026-04-23T13:15:15Z</time></trkpt><trkpt lat="41.73011196391357" lon="13.345327779837973"><ele>436.2</ele><time>2026-04-23T13:15:16Z</time></trkpt><trkpt lat="41.73020326803126" lon="13.345304134026895"><ele>438.0</ele><time>2026-04-23T13:15:17Z</time></trkpt><trkpt lat="41.730288061528654" lon="13.345284309762773"><ele>438.0</ele><time>2026-04-23T13:15:18Z</time></trkpt><trkpt lat="41.73036204945632" lon="13.345268626719209"><ele>438.0</ele><time>2026-04-23T13:15:19Z</time></trkpt><trkpt lat="41.73043579614967" lon="13.345253771870597"><ele>438.0</ele><time>2026-04-23T13:15:20Z</time></trkpt><trkpt lat="41.73050389639499" lon="13.34523211882489"><ele>438.0</ele><time>2026-04-23T13:15:21Z</time></trkpt><trkpt lat="41.730563096817725" lon="13.345202897157085"><ele>438.0</ele><time>2026-04-23T13:15:22Z</time></trkpt><trkpt lat="41.73067285129275" lon="13.345146741432787"><ele>438.0</ele><time>2026-04-23T13:15:24Z</time></trkpt><trkpt lat="41.73076390031188" lon="13.345103988230223"><ele>438.0</ele><time>2026-04-23T13:15:26Z</time></trkpt><trkpt lat="41.730834984047206" lon="13.345070929194032"><ele>438.0</ele><time>2026-04-23T13:15:28Z</time></trkpt><trkpt lat="41.73093996633208" lon="13.34506346372087"><ele>438.0</ele><time>2026-04-23T13:15:30Z</time></trkpt><trkpt lat="41.73100432043069" lon="13.345050648267673"><ele>438.0</ele><time>2026-04-23T13:15:31Z</time></trkpt><trkpt lat="41.7310586146232" lon="13.344992528581972"><ele>438.0</ele><time>2026-04-23T13:15:32Z</time></trkpt><trkpt lat="41.73109791376538" lon="13.344908263077729"><ele>438.0</ele><time>2026-04-23T13:15:33Z</time></trkpt><trkpt lat="41.731137531369185" lon="13.344822437897921"><ele>439.79999999999995</ele><time>2026-04-23T13:15:34Z</time></trkpt><trkpt lat="41.731187218083434" lon="13.34473733715372"><ele>441.59999999999997</ele><time>2026-04-23T13:15:35Z</time></trkpt><trkpt lat="41.73124718839494" lon="13.344657458525491"><ele>443.40000000000003</ele><time>2026-04-23T13:15:35.999Z</time></trkpt><trkpt lat="41.731334543310446" lon="13.344589866250708"><ele>445.20000000000005</ele><time>2026-04-23T13:15:36.999Z</time></trkpt><trkpt lat="41.7314353618095" lon="13.34454097216577"><ele>447.0</ele><time>2026-04-23T13:15:38Z</time></trkpt><trkpt lat="41.73155612485083" lon="13.3444911156625"><ele>443.33333333333337</ele><time>2026-04-23T13:15:39Z</time></trkpt><trkpt lat="41.73169824019037" lon="13.344426424048784"><ele>439.6666666666667</ele><time>2026-04-23T13:15:40Z</time></trkpt><trkpt lat="41.7318667414741" lon="13.34434093401303"><ele>436.0</ele><time>2026-04-23T13:15:41Z</time></trkpt><trkpt lat="41.732027989403086" lon="13.344285294032822"><ele>436.0</ele><time>2026-04-23T13:15:42Z</time></trkpt><trkpt lat="41.73216463982398" lon="13.344233481645322"><ele>436.0</ele><time>2026-04-23T13:15:43Z</time></trkpt><trkpt lat="41.73228651038576" lon="13.344184375306329"><ele>436.0</ele><time>2026-04-23T13:15:44Z</time></trkpt><trkpt lat="41.73240288658516" lon="13.344136800985186"><ele>436.0</ele><time>2026-04-23T13:15:45Z</time></trkpt><trkpt lat="41.73252668304331" lon="13.344086634942075"><ele>436.0</ele><time>2026-04-23T13:15:46Z</time></trkpt><trkpt lat="41.73264315710221" lon="13.344038453760248"><ele>436.0</ele><time>2026-04-23T13:15:47Z</time></trkpt><trkpt lat="41.73275635158651" lon="13.343988299061527"><ele>436.0</ele><time>2026-04-23T13:15:48Z</time></trkpt><trkpt lat="41.73287785240044" lon="13.343937634491658"><ele>436.0</ele><time>2026-04-23T13:15:49Z</time></trkpt><trkpt lat="41.73300993087619" lon="13.343887099016758"><ele>431.0</ele><time>2026-04-23T13:15:50Z</time></trkpt><trkpt lat="41.73314741921499" lon="13.343829705639225"><ele>426.0</ele><time>2026-04-23T13:15:51Z</time></trkpt><trkpt lat="41.73329447103823" lon="13.34378573641449"><ele>421.0</ele><time>2026-04-23T13:15:52Z</time></trkpt><trkpt lat="41.73344667139424" lon="13.343753107803737"><ele>416.0</ele><time>2026-04-23T13:15:53Z</time></trkpt><trkpt lat="41.73360957141898" lon="13.3437259046702"><ele>415.3333333333333</ele><time>2026-04-23T13:15:54Z</time></trkpt><trkpt lat="41.73380988850954" lon="13.343691589096748"><ele>414.66666666666663</ele><time>2026-04-23T13:15:55Z</time></trkpt><trkpt lat="41.73403177959416" lon="13.343664685647445"><ele>414.0</ele><time>2026-04-23T13:15:56Z</time></trkpt><trkpt lat="41.734254184233606" lon="13.343645555581771"><ele>413.33333333333337</ele><time>2026-04-23T13:15:57Z</time></trkpt><trkpt lat="41.7344744712778" lon="13.343629310394439"><ele>412.6666666666667</ele><time>2026-04-23T13:15:58Z</time></trkpt><trkpt lat="41.73470132696506" lon="13.34364411511173"><ele>412.0</ele><time>2026-04-23T13:15:59Z</time></trkpt><trkpt lat="41.734931414968024" lon="13.343691058423778"><ele>412.0</ele><time>2026-04-23T13:16:00Z</time></trkpt><trkpt lat="41.7351634601489" lon="13.343775782636902"><ele>412.0</ele><time>2026-04-23T13:16:01Z</time></trkpt><trkpt lat="41.735403555043476" lon="13.34389098011954"><ele>415.5</ele><time>2026-04-23T13:16:02Z</time></trkpt><trkpt lat="41.73564279263998" lon="13.344023539423548"><ele>419.0</ele><time>2026-04-23T13:16:03Z</time></trkpt><trkpt lat="41.73585268156918" lon="13.34415160812044"><ele>419.0</ele><time>2026-04-23T13:16:04Z</time></trkpt><trkpt lat="41.73604925885234" lon="13.344276868547766"><ele>419.0</ele><time>2026-04-23T13:16:05Z</time></trkpt><trkpt lat="41.73625305125072" lon="13.344392296609355"><ele>419.0</ele><time>2026-04-23T13:16:06Z</time></trkpt><trkpt lat="41.73647405010447" lon="13.344475638374252"><ele>417.0</ele><time>2026-04-23T13:16:07Z</time></trkpt><trkpt lat="41.736704028342245" lon="13.344530851304716"><ele>415.0</ele><time>2026-04-23T13:16:08Z</time></trkpt><trkpt lat="41.736938826695734" lon="13.34456851793426"><ele>413.0</ele><time>2026-04-23T13:16:09Z</time></trkpt><trkpt lat="41.737183601329846" lon="13.34457350411173"><ele>411.0</ele><time>2026-04-23T13:16:10Z</time></trkpt><trkpt lat="41.737432919027675" lon="13.344554638981293"><ele>411.0</ele><time>2026-04-23T13:16:11Z</time></trkpt><trkpt lat="41.737684845836114" lon="13.344510939465945"><ele>411.0</ele><time>2026-04-23T13:16:12Z</time></trkpt><trkpt lat="41.73793856703397" lon="13.34443934427595"><ele>409.5</ele><time>2026-04-23T13:16:13Z</time></trkpt><trkpt lat="41.73819269525485" lon="13.344338982362745"><ele>408.0</ele><time>2026-04-23T13:16:14Z</time></trkpt><trkpt lat="41.73844016141094" lon="13.344244524322923"><ele>406.5</ele><time>2026-04-23T13:16:15Z</time></trkpt><trkpt lat="41.73868970156148" lon="13.344153049194446"><ele>405.0</ele><time>2026-04-23T13:16:16Z</time></trkpt><trkpt lat="41.73894299751875" lon="13.3440635704559"><ele>405.0</ele><time>2026-04-23T13:16:17Z</time></trkpt><trkpt lat="41.73919642439438" lon="13.34397612476135"><ele>405.0</ele><time>2026-04-23T13:16:18Z</time></trkpt><trkpt lat="41.73945190303442" lon="13.343888332703822"><ele>401.0</ele><time>2026-04-23T13:16:19Z</time></trkpt><trkpt lat="41.73970489499364" lon="13.343795758759304"><ele>397.0</ele><time>2026-04-23T13:16:20Z</time></trkpt><trkpt lat="41.739957786358154" lon="13.34370516428916"><ele>397.0</ele><time>2026-04-23T13:16:21Z</time></trkpt><trkpt lat="41.74021073566466" lon="13.343614975652358"><ele>397.0</ele><time>2026-04-23T13:16:22Z</time></trkpt><trkpt lat="41.740462660384" lon="13.343530329219302"><ele>397.0</ele><time>2026-04-23T13:16:23Z</time></trkpt><trkpt lat="41.74069688188061" lon="13.34345015736169"><ele>397.0</ele><time>2026-04-23T13:16:24Z</time></trkpt><trkpt lat="41.74091490020546" lon="13.343370089917606"><ele>402.6666666666667</ele><time>2026-04-23T13:16:25Z</time></trkpt><trkpt lat="41.74110946685956" lon="13.343288158253111"><ele>408.33333333333337</ele><time>2026-04-23T13:16:26Z</time></trkpt><trkpt lat="41.74129036739982" lon="13.343196538957937"><ele>414.0</ele><time>2026-04-23T13:16:27Z</time></trkpt><trkpt lat="41.74144649774395" lon="13.343075703529726"><ele>407.33333333333337</ele><time>2026-04-23T13:16:28Z</time></trkpt><trkpt lat="41.741572988694294" lon="13.3429192070188"><ele>400.6666666666667</ele><time>2026-04-23T13:16:29Z</time></trkpt><trkpt lat="41.74167231674509" lon="13.342723258090723"><ele>394.0</ele><time>2026-04-23T13:16:30Z</time></trkpt><trkpt lat="41.74173753598248" lon="13.34248992405697"><ele>394.0</ele><time>2026-04-23T13:16:31Z</time></trkpt><trkpt lat="41.74176360819619" lon="13.342228846897257"><ele>394.0</ele><time>2026-04-23T13:16:32Z</time></trkpt><trkpt lat="41.74176099826106" lon="13.34194726868847"><ele>394.0</ele><time>2026-04-23T13:16:33Z</time></trkpt><trkpt lat="41.74174395932992" lon="13.341645064037559"><ele>393.0</ele><time>2026-04-23T13:16:34Z</time></trkpt><trkpt lat="41.74173018966812" lon="13.34137318927926"><ele>392.0</ele><time>2026-04-23T13:16:35Z</time></trkpt><trkpt lat="41.741719157278446" lon="13.341124350070908"><ele>391.0</ele><time>2026-04-23T13:16:36Z</time></trkpt><trkpt lat="41.74172104465169" lon="13.34088128028115"><ele>391.0</ele><time>2026-04-23T13:16:37Z</time></trkpt><trkpt lat="41.74173273919244" lon="13.340628229879794"><ele>391.0</ele><time>2026-04-23T13:16:38Z</time></trkpt><trkpt lat="41.74176336531887" lon="13.340370470760082"><ele>391.0</ele><time>2026-04-23T13:16:39Z</time></trkpt><trkpt lat="41.74182480136049" lon="13.340116707853817"><ele>391.0</ele><time>2026-04-23T13:16:40Z</time></trkpt><trkpt lat="41.74191432303152" lon="13.33986827021477"><ele>391.0</ele><time>2026-04-23T13:16:41Z</time></trkpt><trkpt lat="41.74201485719625" lon="13.339619906006275"><ele>391.0</ele><time>2026-04-23T13:16:42Z</time></trkpt><trkpt lat="41.74211566903956" lon="13.339369300218298"><ele>391.0</ele><time>2026-04-23T13:16:43Z</time></trkpt><trkpt lat="41.742207031084625" lon="13.339140222567945"><ele>391.0</ele><time>2026-04-23T13:16:44Z</time></trkpt><trkpt lat="41.74229386927638" lon="13.33892650063512"><ele>391.0</ele><time>2026-04-23T13:16:45Z</time></trkpt><trkpt lat="41.74237594804999" lon="13.338725603524265"><ele>389.6666666666667</ele><time>2026-04-23T13:16:46Z</time></trkpt><trkpt lat="41.74246052126429" lon="13.33854259397612"><ele>388.33333333333337</ele><time>2026-04-23T13:16:47Z</time></trkpt><trkpt lat="41.74256628946815" lon="13.33839181700462"><ele>387.0</ele><time>2026-04-23T13:16:48Z</time></trkpt><trkpt lat="41.74269665480439" lon="13.33826140023418"><ele>387.0</ele><time>2026-04-23T13:16:49Z</time></trkpt><trkpt lat="41.74278545055333" lon="13.338100102335483"><ele>387.0</ele><time>2026-04-23T13:16:50Z</time></trkpt><trkpt lat="41.74302011984017" lon="13.33810648416987"><ele>387.0</ele><time>2026-04-23T13:16:51Z</time></trkpt><trkpt lat="41.74320032020757" lon="13.338097879784025"><ele>387.0</ele><time>2026-04-23T13:16:52Z</time></trkpt><trkpt lat="41.74338966707314" lon="13.338131998977227"><ele>387.0</ele><time>2026-04-23T13:16:53Z</time></trkpt><trkpt lat="41.743580858259804" lon="13.338177929279317"><ele>387.0</ele><time>2026-04-23T13:16:54Z</time></trkpt><trkpt lat="41.7437744668917" lon="13.338222724948613"><ele>385.6666666666667</ele><time>2026-04-23T13:16:55Z</time></trkpt><trkpt lat="41.7439526710175" lon="13.338267682571509"><ele>384.33333333333337</ele><time>2026-04-23T13:16:56Z</time></trkpt><trkpt lat="41.744119500523084" lon="13.338313482212852"><ele>383.0</ele><time>2026-04-23T13:16:57Z</time></trkpt><trkpt lat="41.74426666087698" lon="13.338362536555957"><ele>382.0</ele><time>2026-04-23T13:16:58Z</time></trkpt><trkpt lat="41.744399763898684" lon="13.338408083412478"><ele>381.0</ele><time>2026-04-23T13:16:59Z</time></trkpt><trkpt lat="41.74452749817085" lon="13.338443631697993"><ele>380.0</ele><time>2026-04-23T13:17:00Z</time></trkpt><trkpt lat="41.74465150161591" lon="13.338474442254588"><ele>379.0</ele><time>2026-04-23T13:17:01Z</time></trkpt><trkpt lat="41.744768502281374" lon="13.338506012819442"><ele>379.0</ele><time>2026-04-23T13:17:02Z</time></trkpt><trkpt lat="41.74486326333382" lon="13.338534698785509"><ele>379.0</ele><time>2026-04-23T13:17:03Z</time></trkpt><trkpt lat="41.744953856685655" lon="13.338561391111828"><ele>379.0</ele><time>2026-04-23T13:17:04Z</time></trkpt><trkpt lat="41.74503420119507" lon="13.338583354998269"><ele>379.0</ele><time>2026-04-23T13:17:05Z</time></trkpt><trkpt lat="41.74514772805367" lon="13.338609823118357"><ele>379.0</ele><time>2026-04-23T13:17:07Z</time></trkpt><trkpt lat="41.745281410170044" lon="13.338624683810819"><ele>377.79999999999995</ele><time>2026-04-23T13:17:09Z</time></trkpt><trkpt lat="41.74536539286943" lon="13.338626051857844"><ele>376.59999999999997</ele><time>2026-04-23T13:17:10Z</time></trkpt><trkpt lat="41.74546777612819" lon="13.338620180155562"><ele>375.4</ele><time>2026-04-23T13:17:11Z</time></trkpt><trkpt lat="41.7455764971903" lon="13.338601672060998"><ele>374.2</ele><time>2026-04-23T13:17:12Z</time></trkpt><trkpt lat="41.745688324514106" lon="13.33857234858748"><ele>373.0</ele><time>2026-04-23T13:17:13Z</time></trkpt><trkpt lat="41.74580596981096" lon="13.338520998818987"><ele>373.0</ele><time>2026-04-23T13:17:14Z</time></trkpt><trkpt lat="41.74592771784572" lon="13.338455676917361"><ele>373.0</ele><time>2026-04-23T13:17:15Z</time></trkpt><trkpt lat="41.746057286623234" lon="13.338377488614729"><ele>373.0</ele><time>2026-04-23T13:17:16Z</time></trkpt><trkpt lat="41.7461952499869" lon="13.338282382215334"><ele>373.0</ele><time>2026-04-23T13:17:17Z</time></trkpt><trkpt lat="41.74633647368915" lon="13.338173382252439"><ele>373.66666666666663</ele><time>2026-04-23T13:17:18Z</time></trkpt><trkpt lat="41.746460147588174" lon="13.33805652321497"><ele>374.3333333333333</ele><time>2026-04-23T13:17:19Z</time></trkpt><trkpt lat="41.74657232027976" lon="13.33792445839166"><ele>375.0</ele><time>2026-04-23T13:17:20Z</time></trkpt><trkpt lat="41.74668419037174" lon="13.337772242425112"><ele>375.0</ele><time>2026-04-23T13:17:21Z</time></trkpt><trkpt lat="41.746795820138274" lon="13.337606531554037"><ele>375.0</ele><time>2026-04-23T13:17:22Z</time></trkpt><trkpt lat="41.74691694240721" lon="13.33742162288825"><ele>375.0</ele><time>2026-04-23T13:17:23Z</time></trkpt><trkpt lat="41.747046065671086" lon="13.33721730870354"><ele>377.0</ele><time>2026-04-23T13:17:24Z</time></trkpt><trkpt lat="41.747190974749905" lon="13.337022675609768"><ele>379.0</ele><time>2026-04-23T13:17:25Z</time></trkpt><trkpt lat="41.7473440946182" lon="13.336819568884707"><ele>381.0</ele><time>2026-04-23T13:17:26Z</time></trkpt><trkpt lat="41.74749672938973" lon="13.33660024623455"><ele>380.3333333333333</ele><time>2026-04-23T13:17:27Z</time></trkpt><trkpt lat="41.74764511251059" lon="13.336385861071944"><ele>379.66666666666663</ele><time>2026-04-23T13:17:28Z</time></trkpt><trkpt lat="41.74779391649231" lon="13.336173098489567"><ele>379.0</ele><time>2026-04-23T13:17:29Z</time></trkpt><trkpt lat="41.747945833918685" lon="13.335955783434777"><ele>381.5</ele><time>2026-04-23T13:17:29.999Z</time></trkpt><trkpt lat="41.74809923421704" lon="13.335732476524877"><ele>384.0</ele><time>2026-04-23T13:17:30.999Z</time></trkpt><trkpt lat="41.748251602757115" lon="13.335507248815926"><ele>384.5</ele><time>2026-04-23T13:17:31.999Z</time></trkpt><trkpt lat="41.748400587846454" lon="13.335278711084815"><ele>385.0</ele><time>2026-04-23T13:17:32.999Z</time></trkpt><trkpt lat="41.74854166773549" lon="13.33504393784721"><ele>386.0</ele><time>2026-04-23T13:17:33.999Z</time></trkpt><trkpt lat="41.74867563611794" lon="13.334805711079268"><ele>387.0</ele><time>2026-04-23T13:17:34.999Z</time></trkpt><trkpt lat="41.74878947524264" lon="13.33458002127254"><ele>388.0</ele><time>2026-04-23T13:17:35.999Z</time></trkpt><trkpt lat="41.74888656123136" lon="13.334351790174571"><ele>389.0</ele><time>2026-04-23T13:17:36.999Z</time></trkpt><trkpt lat="41.74897572425772" lon="13.334111405690948"><ele>390.0</ele><time>2026-04-23T13:17:37.999Z</time></trkpt><trkpt lat="41.74906291190368" lon="13.333867018195336"><ele>391.0</ele><time>2026-04-23T13:17:38.999Z</time></trkpt><trkpt lat="41.749141296759014" lon="13.333617771266821"><ele>391.33333333333337</ele><time>2026-04-23T13:17:39.999Z</time></trkpt><trkpt lat="41.749207262260356" lon="13.33336312943442"><ele>391.66666666666663</ele><time>2026-04-23T13:17:40.999Z</time></trkpt><trkpt lat="41.749271676034894" lon="13.333111391620374"><ele>392.0</ele><time>2026-04-23T13:17:41.999Z</time></trkpt><trkpt lat="41.74933583815216" lon="13.33285450529801"><ele>391.66666666666663</ele><time>2026-04-23T13:17:42.999Z</time></trkpt><trkpt lat="41.74939937364188" lon="13.332594665534538"><ele>391.33333333333337</ele><time>2026-04-23T13:17:44Z</time></trkpt><trkpt lat="41.74946896406516" lon="13.332323975748361"><ele>391.0</ele><time>2026-04-23T13:17:45Z</time></trkpt><trkpt lat="41.74953979176493" lon="13.332055521652267"><ele>394.33333333333337</ele><time>2026-04-23T13:17:46Z</time></trkpt><trkpt lat="41.74960071192683" lon="13.33182669635765"><ele>397.66666666666663</ele><time>2026-04-23T13:17:47Z</time></trkpt><trkpt lat="41.749680102593736" lon="13.331635691012421"><ele>401.0</ele><time>2026-04-23T13:17:48Z</time></trkpt><trkpt lat="41.749800649688275" lon="13.331478122574827"><ele>406.66666666666663</ele><time>2026-04-23T13:17:49Z</time></trkpt><trkpt lat="41.74995129257926" lon="13.331364116196914"><ele>412.33333333333337</ele><time>2026-04-23T13:17:50Z</time></trkpt><trkpt lat="41.75014764272028" lon="13.331288987309843"><ele>418.0</ele><time>2026-04-23T13:17:51Z</time></trkpt><trkpt lat="41.750387128952376" lon="13.3312530064377"><ele>418.0</ele><time>2026-04-23T13:17:52Z</time></trkpt><trkpt lat="41.750632590712456" lon="13.331206046859913"><ele>418.0</ele><time>2026-04-23T13:17:53Z</time></trkpt><trkpt lat="41.750861234700906" lon="13.331083249007245"><ele>411.0</ele><time>2026-04-23T13:17:54Z</time></trkpt><trkpt lat="41.75109391642683" lon="13.33090720613217"><ele>404.0</ele><time>2026-04-23T13:17:55Z</time></trkpt><trkpt lat="41.75132908620786" lon="13.330750303998855"><ele>404.0</ele><time>2026-04-23T13:17:56Z</time></trkpt><trkpt lat="41.751562178080995" lon="13.330597689315377"><ele>404.0</ele><time>2026-04-23T13:17:57Z</time></trkpt><trkpt lat="41.751785236893504" lon="13.330450100475053"><ele>407.3333333333333</ele><time>2026-04-23T13:17:58Z</time></trkpt><trkpt lat="41.75199009938661" lon="13.33032211114071"><ele>410.66666666666663</ele><time>2026-04-23T13:17:59Z</time></trkpt><trkpt lat="41.752194495593066" lon="13.330219067912592"><ele>414.0</ele><time>2026-04-23T13:18:00Z</time></trkpt><trkpt lat="41.75241422059322" lon="13.330156344843779"><ele>414.0</ele><time>2026-04-23T13:18:01Z</time></trkpt><trkpt lat="41.7526382543328" lon="13.330136333935073"><ele>414.0</ele><time>2026-04-23T13:18:02Z</time></trkpt><trkpt lat="41.752858630059826" lon="13.330155796327036"><ele>414.0</ele><time>2026-04-23T13:18:03Z</time></trkpt><trkpt lat="41.75307428910228" lon="13.330203034286074"><ele>414.0</ele><time>2026-04-23T13:18:04Z</time></trkpt><trkpt lat="41.75325407756258" lon="13.330230248943954"><ele>414.0</ele><time>2026-04-23T13:18:05Z</time></trkpt><trkpt lat="41.753420232490555" lon="13.330205639877592"><ele>414.0</ele><time>2026-04-23T13:18:06Z</time></trkpt><trkpt lat="41.75357028045171" lon="13.330122002020028"><ele>414.0</ele><time>2026-04-23T13:18:07Z</time></trkpt><trkpt lat="41.75372649858229" lon="13.329980614671381"><ele>414.0</ele><time>2026-04-23T13:18:08Z</time></trkpt><trkpt lat="41.75388109224646" lon="13.329776143446098"><ele>414.0</ele><time>2026-04-23T13:18:09Z</time></trkpt><trkpt lat="41.75404325457284" lon="13.32952505732812"><ele>419.5</ele><time>2026-04-23T13:18:10Z</time></trkpt><trkpt lat="41.75420474858611" lon="13.329258062594326"><ele>425.0</ele><time>2026-04-23T13:18:11Z</time></trkpt><trkpt lat="41.75436694725663" lon="13.328975864566146"><ele>421.0</ele><time>2026-04-23T13:18:12Z</time></trkpt><trkpt lat="41.75452654775132" lon="13.328679987381324"><ele>417.0</ele><time>2026-04-23T13:18:13Z</time></trkpt><trkpt lat="41.754681459719095" lon="13.328375128166593"><ele>417.0</ele><time>2026-04-23T13:18:14Z</time></trkpt><trkpt lat="41.754837199697036" lon="13.328073926735067"><ele>417.0</ele><time>2026-04-23T13:18:15Z</time></trkpt><trkpt lat="41.75499763383287" lon="13.327777225038957"><ele>418.0</ele><time>2026-04-23T13:18:16Z</time></trkpt><trkpt lat="41.755153124897525" lon="13.327485533886113"><ele>419.0</ele><time>2026-04-23T13:18:17Z</time></trkpt><trkpt lat="41.755307841464855" lon="13.327188733612525"><ele>419.0</ele><time>2026-04-23T13:18:18Z</time></trkpt><trkpt lat="41.75546560494279" lon="13.326888955320147"><ele>419.0</ele><time>2026-04-23T13:18:19Z</time></trkpt><trkpt lat="41.75564874600983" lon="13.326582504901838"><ele>422.5</ele><time>2026-04-23T13:18:20Z</time></trkpt><trkpt lat="41.75582225893963" lon="13.326231542256851"><ele>426.0</ele><time>2026-04-23T13:18:21Z</time></trkpt><trkpt lat="41.756018859855445" lon="13.325908452947209"><ele>424.5</ele><time>2026-04-23T13:18:22Z</time></trkpt><trkpt lat="41.75619763977144" lon="13.32559573885023"><ele>423.0</ele><time>2026-04-23T13:18:23Z</time></trkpt><trkpt lat="41.7563695503671" lon="13.325277973995835"><ele>423.0</ele><time>2026-04-23T13:18:24Z</time></trkpt><trkpt lat="41.75653574322209" lon="13.324967414334049"><ele>423.0</ele><time>2026-04-23T13:18:25Z</time></trkpt><trkpt lat="41.756700505011445" lon="13.324662829855479"><ele>425.0</ele><time>2026-04-23T13:18:26Z</time></trkpt><trkpt lat="41.75685136839867" lon="13.32437574030832"><ele>427.0</ele><time>2026-04-23T13:18:27Z</time></trkpt><trkpt lat="41.75698734022796" lon="13.32410348580338"><ele>426.0</ele><time>2026-04-23T13:18:28Z</time></trkpt><trkpt lat="41.75711506337358" lon="13.323850848766144"><ele>425.0</ele><time>2026-04-23T13:18:29Z</time></trkpt><trkpt lat="41.757241073004685" lon="13.323610011667284"><ele>424.0</ele><time>2026-04-23T13:18:30Z</time></trkpt><trkpt lat="41.75737749447412" lon="13.323373430912495"><ele>424.0</ele><time>2026-04-23T13:18:31Z</time></trkpt><trkpt lat="41.75752771441181" lon="13.323145231599495"><ele>424.0</ele><time>2026-04-23T13:18:32Z</time></trkpt><trkpt lat="41.75770239458423" lon="13.322948516977453"><ele>425.0</ele><time>2026-04-23T13:18:33Z</time></trkpt><trkpt lat="41.757900440150344" lon="13.322788641238413"><ele>426.0</ele><time>2026-04-23T13:18:34Z</time></trkpt><trkpt lat="41.7581087634363" lon="13.32266579257343"><ele>426.0</ele><time>2026-04-23T13:18:35Z</time></trkpt><trkpt lat="41.75832609753627" lon="13.322570718943917"><ele>426.0</ele><time>2026-04-23T13:18:36Z</time></trkpt><trkpt lat="41.758545832492366" lon="13.322472734627613"><ele>426.5</ele><time>2026-04-23T13:18:37Z</time></trkpt><trkpt lat="41.75876890430345" lon="13.32237590532875"><ele>427.0</ele><time>2026-04-23T13:18:38Z</time></trkpt><trkpt lat="41.75899148307025" lon="13.322282064441287"><ele>430.0</ele><time>2026-04-23T13:18:39Z</time></trkpt><trkpt lat="41.759214314598275" lon="13.322187390514644"><ele>433.0</ele><time>2026-04-23T13:18:40Z</time></trkpt><trkpt lat="41.75943785090841" lon="13.322095060306951"><ele>433.0</ele><time>2026-04-23T13:18:41Z</time></trkpt><trkpt lat="41.75966215709938" lon="13.32200805577892"><ele>433.0</ele><time>2026-04-23T13:18:42Z</time></trkpt><trkpt lat="41.75988839465338" lon="13.321927450958821"><ele>433.0</ele><time>2026-04-23T13:18:43Z</time></trkpt><trkpt lat="41.760113111863696" lon="13.321854726295921"><ele>433.0</ele><time>2026-04-23T13:18:44Z</time></trkpt><trkpt lat="41.76033698013434" lon="13.321782577098109"><ele>431.0</ele><time>2026-04-23T13:18:45Z</time></trkpt><trkpt lat="41.76055951297811" lon="13.321709298150074"><ele>429.0</ele><time>2026-04-23T13:18:46Z</time></trkpt><trkpt lat="41.76078179710012" lon="13.321633158508096"><ele>429.0</ele><time>2026-04-23T13:18:47Z</time></trkpt><trkpt lat="41.761002443577716" lon="13.321551021373677"><ele>429.0</ele><time>2026-04-23T13:18:48Z</time></trkpt><trkpt lat="41.76122362344395" lon="13.321474679544046"><ele>428.5</ele><time>2026-04-23T13:18:49Z</time></trkpt><trkpt lat="41.76144618451696" lon="13.321403188886096"><ele>428.0</ele><time>2026-04-23T13:18:50Z</time></trkpt><trkpt lat="41.76166518780195" lon="13.32133142505644"><ele>430.3333333333333</ele><time>2026-04-23T13:18:51Z</time></trkpt><trkpt lat="41.76187840588538" lon="13.321260644551122"><ele>432.66666666666663</ele><time>2026-04-23T13:18:52Z</time></trkpt><trkpt lat="41.76208711708386" lon="13.321192653704156"><ele>435.0</ele><time>2026-04-23T13:18:53Z</time></trkpt><trkpt lat="41.76228997799338" lon="13.321121895157182"><ele>435.0</ele><time>2026-04-23T13:18:54Z</time></trkpt><trkpt lat="41.76248512387247" lon="13.321038364647949"><ele>435.0</ele><time>2026-04-23T13:18:55Z</time></trkpt><trkpt lat="41.76267347100109" lon="13.320936105282923"><ele>435.0</ele><time>2026-04-23T13:18:56Z</time></trkpt><trkpt lat="41.762854855632504" lon="13.320820948507935"><ele>435.33333333333337</ele><time>2026-04-23T13:18:57Z</time></trkpt><trkpt lat="41.76303193105048" lon="13.320712347013119"><ele>435.6666666666667</ele><time>2026-04-23T13:18:58Z</time></trkpt><trkpt lat="41.76320367925088" lon="13.320610152031263"><ele>436.0</ele><time>2026-04-23T13:18:59Z</time></trkpt><trkpt lat="41.76336294817919" lon="13.32051213735658"><ele>437.33333333333337</ele><time>2026-04-23T13:19:00Z</time></trkpt><trkpt lat="41.76351134510878" lon="13.320420741748572"><ele>438.66666666666663</ele><time>2026-04-23T13:19:01Z</time></trkpt><trkpt lat="41.763660879699756" lon="13.320333180598878"><ele>440.0</ele><time>2026-04-23T13:19:02Z</time></trkpt><trkpt lat="41.763799091765854" lon="13.320256321428705"><ele>440.0</ele><time>2026-04-23T13:19:03Z</time></trkpt><trkpt lat="41.76392552788347" lon="13.320189725924513"><ele>440.0</ele><time>2026-04-23T13:19:04Z</time></trkpt><trkpt lat="41.764050954269365" lon="13.320129175776307"><ele>440.0</ele><time>2026-04-23T13:19:05Z</time></trkpt><trkpt lat="41.76417114063663" lon="13.32007234300686"><ele>440.0</ele><time>2026-04-23T13:19:06Z</time></trkpt><trkpt lat="41.764279156706095" lon="13.32002349393457"><ele>440.66666666666663</ele><time>2026-04-23T13:19:07Z</time></trkpt><trkpt lat="41.76437130378471" lon="13.319983234063049"><ele>441.3333333333333</ele><time>2026-04-23T13:19:08Z</time></trkpt><trkpt lat="41.764449693577916" lon="13.319951990430003"><ele>442.0</ele><time>2026-04-23T13:19:09Z</time></trkpt><trkpt lat="41.764518988953185" lon="13.3199255464737"><ele>442.66666666666663</ele><time>2026-04-23T13:19:10Z</time></trkpt><trkpt lat="41.7645925166682" lon="13.319902249035616"><ele>443.3333333333333</ele><time>2026-04-23T13:19:11Z</time></trkpt><trkpt lat="41.76467164718859" lon="13.319880954163505"><ele>444.0</ele><time>2026-04-23T13:19:12Z</time></trkpt><trkpt lat="41.764753480496324" lon="13.31985362283625"><ele>444.0</ele><time>2026-04-23T13:19:13Z</time></trkpt><trkpt lat="41.764835479793106" lon="13.319829585453213"><ele>444.0</ele><time>2026-04-23T13:19:14Z</time></trkpt><trkpt lat="41.76492469164777" lon="13.319807730676894"><ele>444.0</ele><time>2026-04-23T13:19:15Z</time></trkpt><trkpt lat="41.765020592017045" lon="13.319794606271309"><ele>444.0</ele><time>2026-04-23T13:19:16Z</time></trkpt><trkpt lat="41.76512480249428" lon="13.31978266032541"><ele>444.0</ele><time>2026-04-23T13:19:17Z</time></trkpt><trkpt lat="41.76523585307984" lon="13.319769218976987"><ele>445.25</ele><time>2026-04-23T13:19:18Z</time></trkpt><trkpt lat="41.76535281810682" lon="13.319768898063085"><ele>446.5</ele><time>2026-04-23T13:19:19Z</time></trkpt><trkpt lat="41.76547391007457" lon="13.31977395727811"><ele>447.75</ele><time>2026-04-23T13:19:20Z</time></trkpt><trkpt lat="41.76559982854364" lon="13.319783076847301"><ele>449.0</ele><time>2026-04-23T13:19:21Z</time></trkpt><trkpt lat="41.765733573218625" lon="13.319798797765452"><ele>449.0</ele><time>2026-04-23T13:19:22Z</time></trkpt><trkpt lat="41.76587468574653" lon="13.319819639439308"><ele>449.0</ele><time>2026-04-23T13:19:23Z</time></trkpt><trkpt lat="41.76601549391703" lon="13.319845556195755"><ele>449.0</ele><time>2026-04-23T13:19:24Z</time></trkpt><trkpt lat="41.766151638684725" lon="13.319875463344632"><ele>449.0</ele><time>2026-04-23T13:19:25Z</time></trkpt><trkpt lat="41.76629129982546" lon="13.319917849016425"><ele>450.0</ele><time>2026-04-23T13:19:26Z</time></trkpt><trkpt lat="41.76643567575792" lon="13.319972653408422"><ele>451.0</ele><time>2026-04-23T13:19:27Z</time></trkpt><trkpt lat="41.76658309982447" lon="13.320035551206036"><ele>452.0</ele><time>2026-04-23T13:19:28Z</time></trkpt><trkpt lat="41.76673463581009" lon="13.320096059071242"><ele>453.66666666666663</ele><time>2026-04-23T13:19:29Z</time></trkpt><trkpt lat="41.766890705776156" lon="13.320153652905779"><ele>455.33333333333337</ele><time>2026-04-23T13:19:30Z</time></trkpt><trkpt lat="41.76705142074495" lon="13.320206343001093"><ele>457.0</ele><time>2026-04-23T13:19:31Z</time></trkpt><trkpt lat="41.76722018042856" lon="13.320239467393218"><ele>457.0</ele><time>2026-04-23T13:19:32Z</time></trkpt><trkpt lat="41.76739233056598" lon="13.320249713775643"><ele>457.0</ele><time>2026-04-23T13:19:33Z</time></trkpt><trkpt lat="41.767563211197825" lon="13.320236047071004"><ele>457.0</ele><time>2026-04-23T13:19:34Z</time></trkpt><trkpt lat="41.76772928409185" lon="13.320194872221888"><ele>457.33333333333337</ele><time>2026-04-23T13:19:34.999Z</time></trkpt><trkpt lat="41.76788806648641" lon="13.320132447209462"><ele>457.66666666666663</ele><time>2026-04-23T13:19:35.999Z</time></trkpt><trkpt lat="41.76803901699618" lon="13.320053506062434"><ele>458.0</ele><time>2026-04-23T13:19:36.999Z</time></trkpt><trkpt lat="41.768185554300544" lon="13.319968518902051"><ele>458.0</ele><time>2026-04-23T13:19:37.999Z</time></trkpt><trkpt lat="41.768329878928604" lon="13.319887716442048"><ele>458.0</ele><time>2026-04-23T13:19:38.999Z</time></trkpt><trkpt lat="41.76847052582959" lon="13.319806399866177"><ele>458.0</ele><time>2026-04-23T13:19:39.999Z</time></trkpt><trkpt lat="41.76861123069767" lon="13.319727435590709"><ele>460.0</ele><time>2026-04-23T13:19:40.999Z</time></trkpt><trkpt lat="41.768752657083986" lon="13.31964591993151"><ele>462.0</ele><time>2026-04-23T13:19:41.999Z</time></trkpt><trkpt lat="41.768892578088646" lon="13.319566826362278"><ele>464.0</ele><time>2026-04-23T13:19:42.999Z</time></trkpt><trkpt lat="41.76903244085984" lon="13.319486590962061"><ele>464.0</ele><time>2026-04-23T13:19:43.999Z</time></trkpt><trkpt lat="41.76917358510485" lon="13.319402617840636"><ele>464.0</ele><time>2026-04-23T13:19:44.999Z</time></trkpt><trkpt lat="41.76931784671081" lon="13.319316260079665"><ele>464.0</ele><time>2026-04-23T13:19:45.999Z</time></trkpt><trkpt lat="41.76946437514031" lon="13.319228093493138"><ele>464.0</ele><time>2026-04-23T13:19:46.999Z</time></trkpt><trkpt lat="41.76961343212486" lon="13.31913998765504"><ele>464.0</ele><time>2026-04-23T13:19:47.999Z</time></trkpt><trkpt lat="41.76976465480697" lon="13.319051462131073"><ele>464.0</ele><time>2026-04-23T13:19:48.999Z</time></trkpt><trkpt lat="41.76991843875391" lon="13.318962687504818"><ele>465.66666666666663</ele><time>2026-04-23T13:19:50Z</time></trkpt><trkpt lat="41.7700735482537" lon="13.318871592969002"><ele>467.33333333333337</ele><time>2026-04-23T13:19:51Z</time></trkpt><trkpt lat="41.77022917672277" lon="13.3187753974287"><ele>469.0</ele><time>2026-04-23T13:19:52Z</time></trkpt><trkpt lat="41.77038741508329" lon="13.318678548053931"><ele>469.33333333333337</ele><time>2026-04-23T13:19:53Z</time></trkpt><trkpt lat="41.77054639372375" lon="13.3185760065315"><ele>469.66666666666663</ele><time>2026-04-23T13:19:54Z</time></trkpt><trkpt lat="41.77070917054576" lon="13.318471403403933"><ele>470.0</ele><time>2026-04-23T13:19:55Z</time></trkpt><trkpt lat="41.77087628146316" lon="13.318379506018742"><ele>471.3333333333333</ele><time>2026-04-23T13:19:56Z</time></trkpt><trkpt lat="41.77103996652581" lon="13.31831435174691"><ele>472.66666666666663</ele><time>2026-04-23T13:19:57Z</time></trkpt><trkpt lat="41.771193978807844" lon="13.31827427885166"><ele>474.0</ele><time>2026-04-23T13:19:58Z</time></trkpt><trkpt lat="41.771345619654284" lon="13.318256451518002"><ele>474.0</ele><time>2026-04-23T13:19:59Z</time></trkpt><trkpt lat="41.77150066263577" lon="13.318262216009716"><ele>474.0</ele><time>2026-04-23T13:20:00Z</time></trkpt><trkpt lat="41.77165651740403" lon="13.318288956316144"><ele>474.0</ele><time>2026-04-23T13:20:01Z</time></trkpt><trkpt lat="41.77181101493181" lon="13.318332383486567"><ele>475.33333333333337</ele><time>2026-04-23T13:20:02Z</time></trkpt><trkpt lat="41.771965730690425" lon="13.318394302729747"><ele>476.6666666666667</ele><time>2026-04-23T13:20:03Z</time></trkpt><trkpt lat="41.77211125345979" lon="13.318489820810855"><ele>478.0</ele><time>2026-04-23T13:20:04Z</time></trkpt><trkpt lat="41.772242940173875" lon="13.318618600682813"><ele>478.0</ele><time>2026-04-23T13:20:05Z</time></trkpt><trkpt lat="41.77236599832261" lon="13.318765639397448"><ele>478.0</ele><time>2026-04-23T13:20:06Z</time></trkpt><trkpt lat="41.77248946236571" lon="13.318917979428504"><ele>478.0</ele><time>2026-04-23T13:20:07Z</time></trkpt><trkpt lat="41.77261257038583" lon="13.319067510838329"><ele>479.0</ele><time>2026-04-23T13:20:08Z</time></trkpt><trkpt lat="41.7727338089011" lon="13.319218516317477"><ele>480.0</ele><time>2026-04-23T13:20:09Z</time></trkpt><trkpt lat="41.77284326564564" lon="13.31935609175908"><ele>481.0</ele><time>2026-04-23T13:20:10Z</time></trkpt><trkpt lat="41.772942700067944" lon="13.319481063522792"><ele>481.0</ele><time>2026-04-23T13:20:11Z</time></trkpt><trkpt lat="41.77303489679459" lon="13.319595628800194"><ele>481.0</ele><time>2026-04-23T13:20:12Z</time></trkpt><trkpt lat="41.77312422905803" lon="13.319708248550205"><ele>481.0</ele><time>2026-04-23T13:20:13Z</time></trkpt><trkpt lat="41.77321422939591" lon="13.319822806093795"><ele>481.0</ele><time>2026-04-23T13:20:14Z</time></trkpt><trkpt lat="41.773305250761794" lon="13.319935610041982"><ele>480.6</ele><time>2026-04-23T13:20:15Z</time></trkpt><trkpt lat="41.773391963004826" lon="13.32004537677649"><ele>480.20000000000005</ele><time>2026-04-23T13:20:16Z</time></trkpt><trkpt lat="41.77347341094746" lon="13.320144075057138"><ele>479.79999999999995</ele><time>2026-04-23T13:20:17Z</time></trkpt><trkpt lat="41.77355470742156" lon="13.320243424213443"><ele>479.4</ele><time>2026-04-23T13:20:18Z</time></trkpt><trkpt lat="41.773630009571534" lon="13.320331219191155"><ele>479.0</ele><time>2026-04-23T13:20:19Z</time></trkpt><trkpt lat="41.77370568566177" lon="13.320414091887379"><ele>478.79999999999995</ele><time>2026-04-23T13:20:20Z</time></trkpt><trkpt lat="41.773789493927524" lon="13.32049269526086"><ele>478.59999999999997</ele><time>2026-04-23T13:20:21Z</time></trkpt><trkpt lat="41.77388115743807" lon="13.320556247006223"><ele>478.4</ele><time>2026-04-23T13:20:22Z</time></trkpt><trkpt lat="41.77398154107508" lon="13.320598915640335"><ele>478.2</ele><time>2026-04-23T13:20:23Z</time></trkpt><trkpt lat="41.7740848754859" lon="13.320616523929482"><ele>478.0</ele><time>2026-04-23T13:20:24Z</time></trkpt><trkpt lat="41.774186742797426" lon="13.320620098262546"><ele>478.0</ele><time>2026-04-23T13:20:25Z</time></trkpt><trkpt lat="41.774290982824326" lon="13.320609618399477"><ele>477.99999999999994</ele><time>2026-04-23T13:20:26Z</time></trkpt><trkpt lat="41.774397423412644" lon="13.32058349945796"><ele>477.99999999999994</ele><time>2026-04-23T13:20:27Z</time></trkpt><trkpt lat="41.774505467283966" lon="13.320547877338061"><ele>478.0</ele><time>2026-04-23T13:20:28Z</time></trkpt><trkpt lat="41.774620189737306" lon="13.320504792886036"><ele>478.0</ele><time>2026-04-23T13:20:29Z</time></trkpt><trkpt lat="41.77473496451342" lon="13.320447685013855"><ele>479.6666666666667</ele><time>2026-04-23T13:20:30Z</time></trkpt><trkpt lat="41.774859396815046" lon="13.320375774846873"><ele>481.33333333333337</ele><time>2026-04-23T13:20:31Z</time></trkpt><trkpt lat="41.7750011165531" lon="13.320301480484789"><ele>483.0</ele><time>2026-04-23T13:20:32Z</time></trkpt><trkpt lat="41.77515924001469" lon="13.320214466513068"><ele>483.33333333333337</ele><time>2026-04-23T13:20:33Z</time></trkpt><trkpt lat="41.775329136133955" lon="13.320128686129108"><ele>483.6666666666667</ele><time>2026-04-23T13:20:34Z</time></trkpt><trkpt lat="41.775506182953016" lon="13.320046783305965"><ele>484.0</ele><time>2026-04-23T13:20:35Z</time></trkpt><trkpt lat="41.77569050332453" lon="13.319966925594564"><ele>484.0</ele><time>2026-04-23T13:20:36Z</time></trkpt><trkpt lat="41.775886043772296" lon="13.319881119516076"><ele>484.0</ele><time>2026-04-23T13:20:37Z</time></trkpt><trkpt lat="41.77607969530547" lon="13.319794925147342"><ele>484.0</ele><time>2026-04-23T13:20:38Z</time></trkpt><trkpt lat="41.77627623277487" lon="13.31970760952103"><ele>486.0</ele><time>2026-04-23T13:20:39Z</time></trkpt><trkpt lat="41.77647730040407" lon="13.319620539962884"><ele>488.0</ele><time>2026-04-23T13:20:40Z</time></trkpt><trkpt lat="41.776680678835035" lon="13.319529623713631"><ele>490.0</ele><time>2026-04-23T13:20:41Z</time></trkpt><trkpt lat="41.776884210573144" lon="13.319436038697962"><ele>490.0</ele><time>2026-04-23T13:20:42Z</time></trkpt><trkpt lat="41.77708998679929" lon="13.319340933660962"><ele>490.0</ele><time>2026-04-23T13:20:43Z</time></trkpt><trkpt lat="41.77729402360726" lon="13.319244319730986"><ele>490.0</ele><time>2026-04-23T13:20:44Z</time></trkpt><trkpt lat="41.777492212920116" lon="13.31915297764951"><ele>489.0</ele><time>2026-04-23T13:20:45Z</time></trkpt><trkpt lat="41.77769178148916" lon="13.319061449460182"><ele>488.0</ele><time>2026-04-23T13:20:46Z</time></trkpt><trkpt lat="41.777893788049624" lon="13.318965255150355"><ele>487.0</ele><time>2026-04-23T13:20:47Z</time></trkpt><trkpt lat="41.77809437167877" lon="13.318873556401007"><ele>489.33333333333337</ele><time>2026-04-23T13:20:48Z</time></trkpt><trkpt lat="41.77829663128587" lon="13.318784077511026"><ele>491.66666666666663</ele><time>2026-04-23T13:20:49Z</time></trkpt><trkpt lat="41.77849973493699" lon="13.318690415496167"><ele>494.0</ele><time>2026-04-23T13:20:50Z</time></trkpt><trkpt lat="41.77870080634204" lon="13.318586025403096"><ele>494.0</ele><time>2026-04-23T13:20:51Z</time></trkpt><trkpt lat="41.77889008321652" lon="13.318442154681655"><ele>494.0</ele><time>2026-04-23T13:20:52Z</time></trkpt><trkpt lat="41.77906647752852" lon="13.318259188573677"><ele>494.0</ele><time>2026-04-23T13:20:53Z</time></trkpt><trkpt lat="41.77922988478094" lon="13.318048591868923"><ele>493.5</ele><time>2026-04-23T13:20:54Z</time></trkpt><trkpt lat="41.77938106930154" lon="13.317816592797852"><ele>493.0</ele><time>2026-04-23T13:20:55Z</time></trkpt><trkpt lat="41.77953126988547" lon="13.317578548964049"><ele>493.0</ele><time>2026-04-23T13:20:56Z</time></trkpt><trkpt lat="41.77968466002934" lon="13.317334247559618"><ele>493.0</ele><time>2026-04-23T13:20:57Z</time></trkpt><trkpt lat="41.77983823997282" lon="13.317082539401575"><ele>495.5</ele><time>2026-04-23T13:20:58Z</time></trkpt><trkpt lat="41.7799940265908" lon="13.316835269908633"><ele>498.0</ele><time>2026-04-23T13:20:59Z</time></trkpt><trkpt lat="41.780150548191806" lon="13.31658600407027"><ele>495.5</ele><time>2026-04-23T13:21:00Z</time></trkpt><trkpt lat="41.78030604491035" lon="13.316336078518969"><ele>493.0</ele><time>2026-04-23T13:21:01Z</time></trkpt><trkpt lat="41.78046326185742" lon="13.316082230662364"><ele>493.0</ele><time>2026-04-23T13:21:02Z</time></trkpt><trkpt lat="41.780622445134355" lon="13.31582367380337"><ele>493.0</ele><time>2026-04-23T13:21:03Z</time></trkpt><trkpt lat="41.780781998390026" lon="13.31557858612798"><ele>496.0</ele><time>2026-04-23T13:21:04Z</time></trkpt><trkpt lat="41.78094928197578" lon="13.315376450538317"><ele>499.0</ele><time>2026-04-23T13:21:05Z</time></trkpt><trkpt lat="41.781139864616506" lon="13.315214462229429"><ele>499.0</ele><time>2026-04-23T13:21:06Z</time></trkpt><trkpt lat="41.781352924657625" lon="13.315089804801422"><ele>499.0</ele><time>2026-04-23T13:21:07Z</time></trkpt><trkpt lat="41.78158671218469" lon="13.315020838987886"><ele>499.0</ele><time>2026-04-23T13:21:08Z</time></trkpt><trkpt lat="41.78183456412275" lon="13.314996355166558"><ele>499.0</ele><time>2026-04-23T13:21:09Z</time></trkpt><trkpt lat="41.78210010845409" lon="13.314995300474997"><ele>498.5</ele><time>2026-04-23T13:21:10Z</time></trkpt><trkpt lat="41.7823728536113" lon="13.314988748205971"><ele>498.0</ele><time>2026-04-23T13:21:11Z</time></trkpt><trkpt lat="41.78264669909291" lon="13.314988408387975"><ele>499.5</ele><time>2026-04-23T13:21:12Z</time></trkpt><trkpt lat="41.782918654441225" lon="13.314985768049274"><ele>501.0</ele><time>2026-04-23T13:21:13Z</time></trkpt><trkpt lat="41.78319167834615" lon="13.314982950987046"><ele>501.0</ele><time>2026-04-23T13:21:14Z</time></trkpt><trkpt lat="41.783459866943296" lon="13.314984895211584"><ele>501.0</ele><time>2026-04-23T13:21:15Z</time></trkpt><trkpt lat="41.78372384563512" lon="13.314985488459422"><ele>502.0</ele><time>2026-04-23T13:21:16Z</time></trkpt><trkpt lat="41.78397983024088" lon="13.314993306929939"><ele>503.0</ele><time>2026-04-23T13:21:17Z</time></trkpt><trkpt lat="41.78423168783065" lon="13.31500338930081"><ele>505.5</ele><time>2026-04-23T13:21:18Z</time></trkpt><trkpt lat="41.784479625801794" lon="13.315004311821237"><ele>508.0</ele><time>2026-04-23T13:21:19Z</time></trkpt><trkpt lat="41.78473454743308" lon="13.314991498536584"><ele>508.0</ele><time>2026-04-23T13:21:20Z</time></trkpt><trkpt lat="41.78498039028468" lon="13.314985407469766"><ele>508.0</ele><time>2026-04-23T13:21:21Z</time></trkpt><trkpt lat="41.78522391552751" lon="13.314947953853427"><ele>510.0</ele><time>2026-04-23T13:21:22Z</time></trkpt><trkpt lat="41.78546208182049" lon="13.314863335481379"><ele>512.0</ele><time>2026-04-23T13:21:23Z</time></trkpt><trkpt lat="41.78569254881479" lon="13.314731064430582"><ele>513.0</ele><time>2026-04-23T13:21:24Z</time></trkpt><trkpt lat="41.785908887438076" lon="13.314547854352801"><ele>514.0</ele><time>2026-04-23T13:21:25Z</time></trkpt><trkpt lat="41.78612146599011" lon="13.31432177739146"><ele>514.0</ele><time>2026-04-23T13:21:26Z</time></trkpt><trkpt lat="41.78633731232248" lon="13.31410004024191"><ele>514.0</ele><time>2026-04-23T13:21:27Z</time></trkpt><trkpt lat="41.78655761442613" lon="13.313889743519285"><ele>516.0</ele><time>2026-04-23T13:21:28Z</time></trkpt><trkpt lat="41.78677789363973" lon="13.313673244207134"><ele>518.0</ele><time>2026-04-23T13:21:29Z</time></trkpt><trkpt lat="41.78699981585267" lon="13.31345686339267"><ele>519.5</ele><time>2026-04-23T13:21:30Z</time></trkpt><trkpt lat="41.78722070954528" lon="13.313242102372286"><ele>521.0</ele><time>2026-04-23T13:21:31Z</time></trkpt><trkpt lat="41.78743707459413" lon="13.31302632115535"><ele>522.0</ele><time>2026-04-23T13:21:32Z</time></trkpt><trkpt lat="41.78763197083635" lon="13.31282992881858"><ele>523.0</ele><time>2026-04-23T13:21:33Z</time></trkpt><trkpt lat="41.78781922512149" lon="13.312639554838588"><ele>524.0</ele><time>2026-04-23T13:21:34Z</time></trkpt><trkpt lat="41.788016046223646" lon="13.31245290546816"><ele>525.0</ele><time>2026-04-23T13:21:35Z</time></trkpt><trkpt lat="41.78819685240559" lon="13.312279229726434"><ele>525.6666666666666</ele><time>2026-04-23T13:21:35.999Z</time></trkpt><trkpt lat="41.78837458165957" lon="13.31212092830467"><ele>526.3333333333333</ele><time>2026-04-23T13:21:36.999Z</time></trkpt><trkpt lat="41.7885512834521" lon="13.312011759741873"><ele>527.0</ele><time>2026-04-23T13:21:37.999Z</time></trkpt><trkpt lat="41.78874012921289" lon="13.311955206027351"><ele>528.6666666666666</ele><time>2026-04-23T13:21:38.999Z</time></trkpt><trkpt lat="41.78893579451247" lon="13.311936945196818"><ele>530.3333333333334</ele><time>2026-04-23T13:21:39.999Z</time></trkpt><trkpt lat="41.78912273004736" lon="13.311979754377674"><ele>532.0</ele><time>2026-04-23T13:21:40.999Z</time></trkpt><trkpt lat="41.78930288132567" lon="13.31208181934662"><ele>535.0</ele><time>2026-04-23T13:21:41.999Z</time></trkpt><trkpt lat="41.78946930193309" lon="13.312236772291055"><ele>538.0</ele><time>2026-04-23T13:21:42.999Z</time></trkpt><trkpt lat="41.789612837089194" lon="13.31243658062843"><ele>541.0</ele><time>2026-04-23T13:21:43.999Z</time></trkpt><trkpt lat="41.789718576033295" lon="13.312671465530094"><ele>541.0</ele><time>2026-04-23T13:21:44.999Z</time></trkpt><trkpt lat="41.7897833365206" lon="13.312931017823804"><ele>541.0</ele><time>2026-04-23T13:21:45.999Z</time></trkpt><trkpt lat="41.789809997961704" lon="13.313221996889537"><ele>541.0</ele><time>2026-04-23T13:21:46.999Z</time></trkpt><trkpt lat="41.789837273557495" lon="13.313507386566647"><ele>541.0</ele><time>2026-04-23T13:21:47.999Z</time></trkpt><trkpt lat="41.78987285636531" lon="13.313788963130001"><ele>541.0</ele><time>2026-04-23T13:21:48.999Z</time></trkpt><trkpt lat="41.789915293583284" lon="13.31404878477421"><ele>541.0</ele><time>2026-04-23T13:21:49.999Z</time></trkpt><trkpt lat="41.789960412066286" lon="13.314280760655915"><ele>540.6666666666667</ele><time>2026-04-23T13:21:50.999Z</time></trkpt><trkpt lat="41.79002162885408" lon="13.314502708463204"><ele>540.3333333333334</ele><time>2026-04-23T13:21:51.999Z</time></trkpt><trkpt lat="41.79009612390346" lon="13.314717573666899"><ele>540.0</ele><time>2026-04-23T13:21:52.999Z</time></trkpt><trkpt lat="41.790162424438066" lon="13.314904781471158"><ele>545.0</ele><time>2026-04-23T13:21:53.999Z</time></trkpt><trkpt lat="41.79022287110442" lon="13.31506689883137"><ele>550.0</ele><time>2026-04-23T13:21:55Z</time></trkpt><trkpt lat="41.79027696422411" lon="13.315212039957663"><ele>555.0</ele><time>2026-04-23T13:21:56Z</time></trkpt><trkpt lat="41.7903233262696" lon="13.315339479445726"><ele>560.0</ele><time>2026-04-23T13:21:57Z</time></trkpt><trkpt lat="41.790363436031626" lon="13.315458092492667"><ele>558.4</ele><time>2026-04-23T13:21:58Z</time></trkpt><trkpt lat="41.79040383330677" lon="13.315583099022541"><ele>556.8</ele><time>2026-04-23T13:21:59Z</time></trkpt><trkpt lat="41.79045273955852" lon="13.31571067282304"><ele>555.2</ele><time>2026-04-23T13:22:00Z</time></trkpt><trkpt lat="41.790510482312285" lon="13.315838936662914"><ele>553.6</ele><time>2026-04-23T13:22:01Z</time></trkpt><trkpt lat="41.79057713257958" lon="13.315963336047352"><ele>552.0</ele><time>2026-04-23T13:22:02Z</time></trkpt><trkpt lat="41.79065582194325" lon="13.316079906616153"><ele>552.0</ele><time>2026-04-23T13:22:03Z</time></trkpt><trkpt lat="41.79073595892055" lon="13.316168644097974"><ele>552.0</ele><time>2026-04-23T13:22:04Z</time></trkpt><trkpt lat="41.79081129592849" lon="13.316233104487386"><ele>552.0</ele><time>2026-04-23T13:22:05Z</time></trkpt><trkpt lat="41.79088496050737" lon="13.31629300867066"><ele>552.0</ele><time>2026-04-23T13:22:06Z</time></trkpt><trkpt lat="41.790964143026784" lon="13.31635144257373"><ele>552.0</ele><time>2026-04-23T13:22:07Z</time></trkpt><trkpt lat="41.79104388627771" lon="13.316400506296604"><ele>551.6</ele><time>2026-04-23T13:22:08Z</time></trkpt><trkpt lat="41.79112190145196" lon="13.316451261848743"><ele>551.2</ele><time>2026-04-23T13:22:09Z</time></trkpt><trkpt lat="41.79120562175423" lon="13.316499285696462"><ele>550.8</ele><time>2026-04-23T13:22:10Z</time></trkpt><trkpt lat="41.791297945360064" lon="13.316542978554637"><ele>550.4</ele><time>2026-04-23T13:22:11Z</time></trkpt><trkpt lat="41.79139620251643" lon="13.31658548362768"><ele>550.0</ele><time>2026-04-23T13:22:12Z</time></trkpt><trkpt lat="41.79150145488534" lon="13.316626772877195"><ele>550.0</ele><time>2026-04-23T13:22:13Z</time></trkpt><trkpt lat="41.791619320689044" lon="13.316654896628386"><ele>550.0</ele><time>2026-04-23T13:22:14Z</time></trkpt><trkpt lat="41.79173663299783" lon="13.316661500352938"><ele>550.0</ele><time>2026-04-23T13:22:15Z</time></trkpt><trkpt lat="41.79183689598362" lon="13.316656659080786"><ele>550.0</ele><time>2026-04-23T13:22:16Z</time></trkpt><trkpt lat="41.79194906850305" lon="13.31664080869923"><ele>550.8</ele><time>2026-04-23T13:22:17Z</time></trkpt><trkpt lat="41.79206582314231" lon="13.316613409717565"><ele>551.6</ele><time>2026-04-23T13:22:18Z</time></trkpt><trkpt lat="41.79217835146339" lon="13.316572227336263"><ele>552.4</ele><time>2026-04-23T13:22:19Z</time></trkpt><trkpt lat="41.792270466793994" lon="13.31652971675027"><ele>553.2</ele><time>2026-04-23T13:22:20Z</time></trkpt><trkpt lat="41.792362697034726" lon="13.316483502161272"><ele>554.0</ele><time>2026-04-23T13:22:21Z</time></trkpt><trkpt lat="41.79245050967051" lon="13.316440532355308"><ele>557.6</ele><time>2026-04-23T13:22:22Z</time></trkpt><trkpt lat="41.79254966713348" lon="13.316390711313511"><ele>561.2</ele><time>2026-04-23T13:22:23Z</time></trkpt><trkpt lat="41.792651682507284" lon="13.316339261212951"><ele>564.8000000000001</ele><time>2026-04-23T13:22:24Z</time></trkpt><trkpt lat="41.79274388056411" lon="13.316293212063126"><ele>568.4</ele><time>2026-04-23T13:22:25Z</time></trkpt><trkpt lat="41.79283912555559" lon="13.316245363485256"><ele>572.0</ele><time>2026-04-23T13:22:26Z</time></trkpt><trkpt lat="41.79294653501295" lon="13.316190737408906"><ele>572.0</ele><time>2026-04-23T13:22:27Z</time></trkpt><trkpt lat="41.79305635936366" lon="13.316124924793932"><ele>572.0</ele><time>2026-04-23T13:22:28Z</time></trkpt><trkpt lat="41.79318414513566" lon="13.316047482011268"><ele>572.0</ele><time>2026-04-23T13:22:29Z</time></trkpt><trkpt lat="41.793349471127506" lon="13.315949636329286"><ele>572.0</ele><time>2026-04-23T13:22:30Z</time></trkpt><trkpt lat="41.79353603895602" lon="13.31583230708579"><ele>568.3333333333333</ele><time>2026-04-23T13:22:31Z</time></trkpt><trkpt lat="41.79374593195801" lon="13.315696651160401"><ele>564.6666666666666</ele><time>2026-04-23T13:22:32Z</time></trkpt><trkpt lat="41.793933004083605" lon="13.315577404051645"><ele>561.0</ele><time>2026-04-23T13:22:33Z</time></trkpt><trkpt lat="41.79416688039001" lon="13.315415717622965"><ele>565.3333333333334</ele><time>2026-04-23T13:22:34Z</time></trkpt><trkpt lat="41.79436703648952" lon="13.315253583652957"><ele>569.6666666666667</ele><time>2026-04-23T13:22:35Z</time></trkpt><trkpt lat="41.79454428910313" lon="13.315106078491077"><ele>574.0</ele><time>2026-04-23T13:22:36Z</time></trkpt><trkpt lat="41.79469902021189" lon="13.314969289477217"><ele>574.0</ele><time>2026-04-23T13:22:37Z</time></trkpt><trkpt lat="41.79485583967141" lon="13.314836076537357"><ele>574.0</ele><time>2026-04-23T13:22:38Z</time></trkpt><trkpt lat="41.79500949505868" lon="13.31470146323519"><ele>574.0</ele><time>2026-04-23T13:22:39Z</time></trkpt><trkpt lat="41.79516183336116" lon="13.314569097082515"><ele>575.3333333333334</ele><time>2026-04-23T13:22:40Z</time></trkpt><trkpt lat="41.79530243790207" lon="13.314452824210145"><ele>576.6666666666666</ele><time>2026-04-23T13:22:41Z</time></trkpt><trkpt lat="41.795432553126595" lon="13.314342584022551"><ele>578.0</ele><time>2026-04-23T13:22:42Z</time></trkpt><trkpt lat="41.79554953302163" lon="13.314243714668077"><ele>578.0</ele><time>2026-04-23T13:22:43Z</time></trkpt><trkpt lat="41.79565685513993" lon="13.314165309142021"><ele>578.0</ele><time>2026-04-23T13:22:44Z</time></trkpt><trkpt lat="41.7957634080895" lon="13.31412629977557"><ele>578.0</ele><time>2026-04-23T13:22:45Z</time></trkpt><trkpt lat="41.795873913693356" lon="13.314137481206757"><ele>578.0</ele><time>2026-04-23T13:22:46Z</time></trkpt><trkpt lat="41.79596616160068" lon="13.314208765051466"><ele>578.5</ele><time>2026-04-23T13:22:47Z</time></trkpt><trkpt lat="41.79603422513741" lon="13.314341878759043"><ele>579.0</ele><time>2026-04-23T13:22:48Z</time></trkpt><trkpt lat="41.79608715979774" lon="13.314522972489566"><ele>579.5</ele><time>2026-04-23T13:22:49Z</time></trkpt><trkpt lat="41.796159770282365" lon="13.31468993549163"><ele>580.0</ele><time>2026-04-23T13:22:50Z</time></trkpt><trkpt lat="41.796238116114885" lon="13.314874187813876"><ele>580.0</ele><time>2026-04-23T13:22:51Z</time></trkpt><trkpt lat="41.79630785411078" lon="13.315064480586331"><ele>580.0</ele><time>2026-04-23T13:22:52Z</time></trkpt><trkpt lat="41.79637794151214" lon="13.315254029084464"><ele>580.0</ele><time>2026-04-23T13:22:53Z</time></trkpt><trkpt lat="41.79643933787076" lon="13.315419723482865"><ele>580.0</ele><time>2026-04-23T13:22:54Z</time></trkpt><trkpt lat="41.79649590413497" lon="13.31556175479747"><ele>580.0</ele><time>2026-04-23T13:22:55Z</time></trkpt><trkpt lat="41.79656666650092" lon="13.31567015873107"><ele>580.0</ele><time>2026-04-23T13:22:56Z</time></trkpt><trkpt lat="41.79665495742537" lon="13.31573586692605"><ele>580.0</ele><time>2026-04-23T13:22:57Z</time></trkpt><trkpt lat="41.79676156431464" lon="13.315758294748122"><ele>580.0</ele><time>2026-04-23T13:22:58Z</time></trkpt><trkpt lat="41.79688112675832" lon="13.315742002205987"><ele>580.5</ele><time>2026-04-23T13:22:59Z</time></trkpt><trkpt lat="41.796999338417166" lon="13.315703806448985"><ele>581.0</ele><time>2026-04-23T13:23:00Z</time></trkpt><trkpt lat="41.797114699159486" lon="13.315652084191338"><ele>581.5</ele><time>2026-04-23T13:23:01Z</time></trkpt><trkpt lat="41.797224631427945" lon="13.315582778058081"><ele>582.0</ele><time>2026-04-23T13:23:02Z</time></trkpt><trkpt lat="41.79733553857506" lon="13.315505987075808"><ele>584.0</ele><time>2026-04-23T13:23:03Z</time></trkpt><trkpt lat="41.797444230439844" lon="13.315426067735114"><ele>586.0</ele><time>2026-04-23T13:23:04Z</time></trkpt><trkpt lat="41.79755278161712" lon="13.31534293640476"><ele>588.0</ele><time>2026-04-23T13:23:05Z</time></trkpt><trkpt lat="41.797653278871415" lon="13.315277941538122"><ele>590.0</ele><time>2026-04-23T13:23:06Z</time></trkpt><trkpt lat="41.797747769539924" lon="13.315257893092399"><ele>590.5</ele><time>2026-04-23T13:23:07Z</time></trkpt><trkpt lat="41.79784629211295" lon="13.315303461455791"><ele>591.0</ele><time>2026-04-23T13:23:08Z</time></trkpt><trkpt lat="41.79793477166413" lon="13.315406899484971"><ele>591.5</ele><time>2026-04-23T13:23:09Z</time></trkpt><trkpt lat="41.79801611133985" lon="13.315540121370136"><ele>592.0</ele><time>2026-04-23T13:23:10Z</time></trkpt><trkpt lat="41.79808479014557" lon="13.315689143416426"><ele>592.0</ele><time>2026-04-23T13:23:11Z</time></trkpt><trkpt lat="41.79816421652757" lon="13.315813209135"><ele>592.0</ele><time>2026-04-23T13:23:12Z</time></trkpt><trkpt lat="41.79824802797304" lon="13.31596450123994"><ele>592.0</ele><time>2026-04-23T13:23:13Z</time></trkpt><trkpt lat="41.79833460210908" lon="13.31610364994346"><ele>592.0</ele><time>2026-04-23T13:23:14Z</time></trkpt><trkpt lat="41.79840396542132" lon="13.316232178803277"><ele>592.0</ele><time>2026-04-23T13:23:15Z</time></trkpt><trkpt lat="41.79846581590806" lon="13.316332381631128"><ele>592.0</ele><time>2026-04-23T13:23:16Z</time></trkpt><trkpt lat="41.79853182814737" lon="13.316413417499025"><ele>592.0</ele><time>2026-04-23T13:23:17Z</time></trkpt><trkpt lat="41.79861758659625" lon="13.316467593277665"><ele>592.0</ele><time>2026-04-23T13:23:18Z</time></trkpt><trkpt lat="41.7987060054087" lon="13.316468813780743"><ele>592.0</ele><time>2026-04-23T13:23:19Z</time></trkpt><trkpt lat="41.798784716485564" lon="13.316416461125545"><ele>594.6</ele><time>2026-04-23T13:23:20Z</time></trkpt><trkpt lat="41.798845474091564" lon="13.316324332400045"><ele>597.2</ele><time>2026-04-23T13:23:21Z</time></trkpt><trkpt lat="41.798879179925635" lon="13.316217842230115"><ele>599.8</ele><time>2026-04-23T13:23:22Z</time></trkpt><trkpt lat="41.79887076362098" lon="13.31609866015782"><ele>602.4</ele><time>2026-04-23T13:23:23Z</time></trkpt><trkpt lat="41.798827118197664" lon="13.315971195765297"><ele>605.0</ele><time>2026-04-23T13:23:24Z</time></trkpt><trkpt lat="41.79877089026773" lon="13.315832033268594"><ele>605.0</ele><time>2026-04-23T13:23:25Z</time></trkpt><trkpt lat="41.798716874730715" lon="13.315678560278974"><ele>605.0</ele><time>2026-04-23T13:23:26Z</time></trkpt><trkpt lat="41.79866284395541" lon="13.31552266923043"><ele>605.0</ele><time>2026-04-23T13:23:27Z</time></trkpt><trkpt lat="41.79860965739573" lon="13.315366074143991"><ele>605.0</ele><time>2026-04-23T13:23:28Z</time></trkpt><trkpt lat="41.798559002787236" lon="13.31521904987511"><ele>604.4</ele><time>2026-04-23T13:23:29Z</time></trkpt><trkpt lat="41.79851234141363" lon="13.315078326217552"><ele>603.8</ele><time>2026-04-23T13:23:30Z</time></trkpt><trkpt lat="41.798471674499844" lon="13.314955339866282"><ele>603.2</ele><time>2026-04-23T13:23:31Z</time></trkpt><trkpt lat="41.7984340957055" lon="13.314860649739792"><ele>602.6</ele><time>2026-04-23T13:23:31.999Z</time></trkpt><trkpt lat="41.79842125132362" lon="13.314712237965866"><ele>602.0</ele><time>2026-04-23T13:23:33.999Z</time></trkpt><trkpt lat="41.798547613582976" lon="13.314656821525615"><ele>605.4</ele><time>2026-04-23T13:23:35.999Z</time></trkpt><trkpt lat="41.798611569441526" lon="13.31475177100909"><ele>608.8000000000001</ele><time>2026-04-23T13:23:36.999Z</time></trkpt><trkpt lat="41.798680302035905" lon="13.314847632191888"><ele>612.2</ele><time>2026-04-23T13:23:37.999Z</time></trkpt><trkpt lat="41.798749626895344" lon="13.314987535565994"><ele>615.6</ele><time>2026-04-23T13:23:38.999Z</time></trkpt><trkpt lat="41.79881508368108" lon="13.31510407173672"><ele>619.0</ele><time>2026-04-23T13:23:39.999Z</time></trkpt><trkpt lat="41.79888718269974" lon="13.315216682947446"><ele>619.0</ele><time>2026-04-23T13:23:40.999Z</time></trkpt><trkpt lat="41.79896327547957" lon="13.31534443561286"><ele>619.0</ele><time>2026-04-23T13:23:41.999Z</time></trkpt><trkpt lat="41.7990569801603" lon="13.315472477129079"><ele>619.0</ele><time>2026-04-23T13:23:42.999Z</time></trkpt><trkpt lat="41.79916492927136" lon="13.315586824007923"><ele>619.0</ele><time>2026-04-23T13:23:43.999Z</time></trkpt><trkpt lat="41.79929741549899" lon="13.315675067466474"><ele>622.6666666666667</ele><time>2026-04-23T13:23:44.999Z</time></trkpt><trkpt lat="41.799444842488676" lon="13.315757894247586"><ele>626.3333333333334</ele><time>2026-04-23T13:23:45.999Z</time></trkpt><trkpt lat="41.79958839246253" lon="13.31583409334163"><ele>630.0</ele><time>2026-04-23T13:23:46.999Z</time></trkpt><trkpt lat="41.79971768797629" lon="13.315912383626433"><ele>630.0</ele><time>2026-04-23T13:23:47.999Z</time></trkpt><trkpt lat="41.79980560804014" lon="13.315984347105083"><ele>630.0</ele><time>2026-04-23T13:23:48.999Z</time></trkpt><trkpt lat="41.79989071749682" lon="13.316080575611007"><ele>630.0</ele><time>2026-04-23T13:23:49.999Z</time></trkpt><trkpt lat="41.79996322390755" lon="13.316222231563987"><ele>630.0</ele><time>2026-04-23T13:23:50.999Z</time></trkpt><trkpt lat="41.80003845798041" lon="13.316368180557888"><ele>633.25</ele><time>2026-04-23T13:23:51.999Z</time></trkpt><trkpt lat="41.800115619988084" lon="13.316514297663026"><ele>636.5</ele><time>2026-04-23T13:23:52.999Z</time></trkpt><trkpt lat="41.80019233836513" lon="13.316660518174784"><ele>639.75</ele><time>2026-04-23T13:23:53.999Z</time></trkpt><trkpt lat="41.80026480325376" lon="13.316814178944933"><ele>643.0</ele><time>2026-04-23T13:23:54.999Z</time></trkpt><trkpt lat="41.800328294435445" lon="13.316954506930621"><ele>643.0</ele><time>2026-04-23T13:23:55.999Z</time></trkpt><trkpt lat="41.80037803154921" lon="13.317044551558512"><ele>643.0</ele><time>2026-04-23T13:23:56.999Z</time></trkpt><trkpt lat="41.80043670944267" lon="13.317098369912678"><ele>643.0</ele><time>2026-04-23T13:23:57.999Z</time></trkpt><trkpt lat="41.80050404683211" lon="13.317102963393117"><ele>643.0</ele><time>2026-04-23T13:23:58.999Z</time></trkpt><trkpt lat="41.800565197489895" lon="13.317049553475968"><ele>643.0</ele><time>2026-04-23T13:23:59.999Z</time></trkpt><trkpt lat="41.800613911343596" lon="13.316978087369291"><ele>643.0</ele><time>2026-04-23T13:24:01Z</time></trkpt><trkpt lat="41.80056408396365" lon="13.316819993700621"><ele>643.0</ele><time>2026-04-23T13:24:02Z</time></trkpt><trkpt lat="41.800492868879154" lon="13.316691050172276"><ele>643.0</ele><time>2026-04-23T13:24:03Z</time></trkpt><trkpt lat="41.80041750795842" lon="13.316532300330888"><ele>643.0</ele><time>2026-04-23T13:24:04Z</time></trkpt><trkpt lat="41.80034069971789" lon="13.316412012745083"><ele>643.0</ele><time>2026-04-23T13:24:05Z</time></trkpt><trkpt lat="41.800290639508894" lon="13.316273436489144"><ele>639.75</ele><time>2026-04-23T13:24:06Z</time></trkpt><trkpt lat="41.80022325427007" lon="13.316127469595685"><ele>636.5</ele><time>2026-04-23T13:24:07Z</time></trkpt><trkpt lat="41.800153152711935" lon="13.315975604468342"><ele>633.25</ele><time>2026-04-23T13:24:08Z</time></trkpt><trkpt lat="41.800080789667284" lon="13.3158238044384"><ele>630.0</ele><time>2026-04-23T13:24:09Z</time></trkpt><trkpt lat="41.8000032696263" lon="13.315679944138976"><ele>633.5</ele><time>2026-04-23T13:24:10Z</time></trkpt><trkpt lat="41.79992485331746" lon="13.315533985765049"><ele>637.0</ele><time>2026-04-23T13:24:11Z</time></trkpt><trkpt lat="41.799851168900254" lon="13.315390954445567"><ele>640.5</ele><time>2026-04-23T13:24:12Z</time></trkpt><trkpt lat="41.79978171306102" lon="13.315277840718753"><ele>644.0</ele><time>2026-04-23T13:24:13Z</time></trkpt><trkpt lat="41.79972134314764" lon="13.315173376881983"><ele>644.0</ele><time>2026-04-23T13:24:14Z</time></trkpt><trkpt lat="41.79967758019782" lon="13.315046573835737"><ele>644.0</ele><time>2026-04-23T13:24:15Z</time></trkpt><trkpt lat="41.799640002825264" lon="13.314923004089128"><ele>644.0</ele><time>2026-04-23T13:24:16Z</time></trkpt><trkpt lat="41.7996180162442" lon="13.31478915965928"><ele>644.0</ele><time>2026-04-23T13:24:17Z</time></trkpt><trkpt lat="41.79960827651738" lon="13.314652219248833"><ele>644.0</ele><time>2026-04-23T13:24:18Z</time></trkpt><trkpt lat="41.799603115492765" lon="13.314530214398488"><ele>645.0</ele><time>2026-04-23T13:24:19Z</time></trkpt><trkpt lat="41.79960527615053" lon="13.31442586712128"><ele>646.0</ele><time>2026-04-23T13:24:20Z</time></trkpt><trkpt lat="41.79959933372658" lon="13.31432932707712"><ele>647.0</ele><time>2026-04-23T13:24:21Z</time></trkpt><trkpt lat="41.79959232038276" lon="13.314232875459604"><ele>648.0</ele><time>2026-04-23T13:24:22Z</time></trkpt><trkpt lat="41.79957952990695" lon="13.314072531562053"><ele>649.0</ele><time>2026-04-23T13:24:24Z</time></trkpt><trkpt lat="41.79957042402537" lon="13.313898901245683"><ele>649.1666666666667</ele><time>2026-04-23T13:24:26Z</time></trkpt><trkpt lat="41.79956298657371" lon="13.313801481109783"><ele>649.3333333333334</ele><time>2026-04-23T13:24:27Z</time></trkpt><trkpt lat="41.79955450093493" lon="13.313700460899344"><ele>649.5</ele><time>2026-04-23T13:24:28Z</time></trkpt><trkpt lat="41.79954895780046" lon="13.313596792389347"><ele>649.6666666666666</ele><time>2026-04-23T13:24:29Z</time></trkpt><trkpt lat="41.79955758786047" lon="13.31349432458541"><ele>649.8333333333333</ele><time>2026-04-23T13:24:30Z</time></trkpt><trkpt lat="41.79965660298818" lon="13.313396934026004"><ele>650.0</ele><time>2026-04-23T13:24:32Z</time></trkpt><trkpt lat="41.799721222504466" lon="13.313436716354115"><ele>650.0</ele><time>2026-04-23T13:24:33Z</time></trkpt><trkpt lat="41.79972148152326" lon="13.313543699902018"><ele>650.0</ele><time>2026-04-23T13:24:34Z</time></trkpt><trkpt lat="41.799741594230326" lon="13.31366985208819"><ele>650.0</ele><time>2026-04-23T13:24:35Z</time></trkpt><trkpt lat="41.799778453980935" lon="13.313840035822748"><ele>650.0</ele><time>2026-04-23T13:24:36Z</time></trkpt><trkpt lat="41.799808830253355" lon="13.31399565706374"><ele>650.0</ele><time>2026-04-23T13:24:37Z</time></trkpt><trkpt lat="41.79982407312986" lon="13.31408888875991"><ele>650.0</ele><time>2026-04-23T13:24:38Z</time></trkpt><trkpt lat="41.79989809305825" lon="13.314179265959673"><ele>650.0</ele><time>2026-04-23T13:24:40Z</time></trkpt><trkpt lat="41.79998039575235" lon="13.314127916875098"><ele>650.0</ele><time>2026-04-23T13:24:41Z</time></trkpt><trkpt lat="41.79999205271248" lon="13.313990172593027"><ele>650.0</ele><time>2026-04-23T13:24:42Z</time></trkpt><trkpt lat="41.79997265094336" lon="13.3138714664797"><ele>650.0</ele><time>2026-04-23T13:24:43Z</time></trkpt><trkpt lat="41.79993730408426" lon="13.313739965824515"><ele>650.0</ele><time>2026-04-23T13:24:44Z</time></trkpt><trkpt lat="41.799903484189315" lon="13.313601769666713"><ele>650.0</ele><time>2026-04-23T13:24:45Z</time></trkpt><trkpt lat="41.79986089499492" lon="13.313452404803584"><ele>650.0</ele><time>2026-04-23T13:24:46Z</time></trkpt><trkpt lat="41.799802979276194" lon="13.313308194850446"><ele>650.0</ele><time>2026-04-23T13:24:47Z</time></trkpt><trkpt lat="41.79973213292406" lon="13.313170369120982"><ele>651.8</ele><time>2026-04-23T13:24:48Z</time></trkpt><trkpt lat="41.799641251714476" lon="13.3130494533769"><ele>653.6</ele><time>2026-04-23T13:24:49Z</time></trkpt><trkpt lat="41.799541811253135" lon="13.312956576938632"><ele>655.4000000000001</ele><time>2026-04-23T13:24:50Z</time></trkpt><trkpt lat="41.79946656040232" lon="13.312883514903056"><ele>657.2</ele><time>2026-04-23T13:24:51Z</time></trkpt><trkpt lat="41.7994153353513" lon="13.312812269682265"><ele>659.0</ele><time>2026-04-23T13:24:52Z</time></trkpt><trkpt lat="41.79939500768746" lon="13.312730977474951"><ele>659.0</ele><time>2026-04-23T13:24:53Z</time></trkpt><trkpt lat="41.799403389998766" lon="13.312646106289073"><ele>659.0</ele><time>2026-04-23T13:24:54Z</time></trkpt><trkpt lat="41.79944595233105" lon="13.312558335984658"><ele>659.0</ele><time>2026-04-23T13:24:56Z</time></trkpt><trkpt lat="41.79957684066382" lon="13.312608701994586"><ele>659.0</ele><time>2026-04-23T13:24:59Z</time></trkpt><trkpt lat="41.7996576424302" lon="13.312666760916157"><ele>659.0</ele><time>2026-04-23T13:25:00Z</time></trkpt><trkpt lat="41.79975412735622" lon="13.312731618112917"><ele>659.0</ele><time>2026-04-23T13:25:01Z</time></trkpt><trkpt lat="41.79983606699218" lon="13.31282324278557"><ele>659.0</ele><time>2026-04-23T13:25:02Z</time></trkpt><trkpt lat="41.79990889855685" lon="13.312888784720423"><ele>659.0</ele><time>2026-04-23T13:25:03Z</time></trkpt><trkpt lat="41.7999591012069" lon="13.312950331388135"><ele>659.0</ele><time>2026-04-23T13:25:04Z</time></trkpt><trkpt lat="41.80001161457988" lon="13.313038472120038"><ele>659.0</ele><time>2026-04-23T13:25:05Z</time></trkpt><trkpt lat="41.80007436638445" lon="13.31313842067845"><ele>659.0</ele><time>2026-04-23T13:25:06Z</time></trkpt><trkpt lat="41.80013273996373" lon="13.313262880399195"><ele>664.25</ele><time>2026-04-23T13:25:07Z</time></trkpt><trkpt lat="41.800174914124156" lon="13.313405724380786"><ele>669.5</ele><time>2026-04-23T13:25:08Z</time></trkpt><trkpt lat="41.800227276808535" lon="13.313548957590378"><ele>674.75</ele><time>2026-04-23T13:25:09Z</time></trkpt><trkpt lat="41.80026971906508" lon="13.313700747063098"><ele>680.0</ele><time>2026-04-23T13:25:10Z</time></trkpt><trkpt lat="41.80030384342215" lon="13.313864443153978"><ele>678.75</ele><time>2026-04-23T13:25:11Z</time></trkpt><trkpt lat="41.80037047878839" lon="13.314033135698656"><ele>677.5</ele><time>2026-04-23T13:25:12Z</time></trkpt><trkpt lat="41.80042569827881" lon="13.31423764197983"><ele>676.25</ele><time>2026-04-23T13:25:13Z</time></trkpt><trkpt lat="41.8004836980233" lon="13.314403427948115"><ele>675.0</ele><time>2026-04-23T13:25:14Z</time></trkpt><trkpt lat="41.800544749286466" lon="13.31454296959097"><ele>675.0</ele><time>2026-04-23T13:25:15Z</time></trkpt><trkpt lat="41.80061398729033" lon="13.314632967218538"><ele>675.0</ele><time>2026-04-23T13:25:16Z</time></trkpt><trkpt lat="41.80070042181637" lon="13.314649187513618"><ele>675.0</ele><time>2026-04-23T13:25:17Z</time></trkpt><trkpt lat="41.80080382452718" lon="13.314592005887963"><ele>675.0</ele><time>2026-04-23T13:25:18Z</time></trkpt><trkpt lat="41.800896558635316" lon="13.31446711428278"><ele>675.0</ele><time>2026-04-23T13:25:19Z</time></trkpt><trkpt lat="41.8009574765591" lon="13.314298427319065"><ele>675.0</ele><time>2026-04-23T13:25:20Z</time></trkpt><trkpt lat="41.80097261988911" lon="13.314126336001292"><ele>675.0</ele><time>2026-04-23T13:25:21Z</time></trkpt><trkpt lat="41.80093694212319" lon="13.313969680613917"><ele>675.0</ele><time>2026-04-23T13:25:22Z</time></trkpt><trkpt lat="41.80086093454291" lon="13.313821184524793"><ele>675.0</ele><time>2026-04-23T13:25:23Z</time></trkpt><trkpt lat="41.8007612752829" lon="13.31366855029636"><ele>676.25</ele><time>2026-04-23T13:25:24Z</time></trkpt><trkpt lat="41.80068595783318" lon="13.313511409861905"><ele>677.5</ele><time>2026-04-23T13:25:25Z</time></trkpt><trkpt lat="41.80066582836958" lon="13.313359367998636"><ele>678.75</ele><time>2026-04-23T13:25:26Z</time></trkpt><trkpt lat="41.80068133611116" lon="13.313184933346196"><ele>680.0</ele><time>2026-04-23T13:25:27Z</time></trkpt><trkpt lat="41.80071314237927" lon="13.312988162834994"><ele>681.6666666666666</ele><time>2026-04-23T13:25:28Z</time></trkpt><trkpt lat="41.80075879734413" lon="13.3127858623812"><ele>683.3333333333334</ele><time>2026-04-23T13:25:29Z</time></trkpt><trkpt lat="41.80077050777413" lon="13.312577938514668"><ele>685.0</ele><time>2026-04-23T13:25:30Z</time></trkpt><trkpt lat="41.800763804639914" lon="13.312384640446597"><ele>684.0</ele><time>2026-04-23T13:25:31Z</time></trkpt><trkpt lat="41.8007525180684" lon="13.312204915645852"><ele>683.0</ele><time>2026-04-23T13:25:32Z</time></trkpt><trkpt lat="41.80074619652932" lon="13.312055972480445"><ele>682.0</ele><time>2026-04-23T13:25:33Z</time></trkpt><trkpt lat="41.80077057541267" lon="13.31192271092531"><ele>681.0</ele><time>2026-04-23T13:25:34Z</time></trkpt><trkpt lat="41.80082758437234" lon="13.311806625783953"><ele>681.0</ele><time>2026-04-23T13:25:34.999Z</time></trkpt><trkpt lat="41.800904433078024" lon="13.311696734412925"><ele>681.0</ele><time>2026-04-23T13:25:35.999Z</time></trkpt><trkpt lat="41.800991706741456" lon="13.311591941420861"><ele>681.0</ele><time>2026-04-23T13:25:36.999Z</time></trkpt><trkpt lat="41.80108157187458" lon="13.311479219295624"><ele>681.0</ele><time>2026-04-23T13:25:37.999Z</time></trkpt><trkpt lat="41.80115235726656" lon="13.311377793055474"><ele>684.8</ele><time>2026-04-23T13:25:38.999Z</time></trkpt><trkpt lat="41.80120895716112" lon="13.311294861416966"><ele>688.5999999999999</ele><time>2026-04-23T13:25:39.999Z</time></trkpt><trkpt lat="41.80127225984114" lon="13.31119862358763"><ele>692.4</ele><time>2026-04-23T13:25:40.999Z</time></trkpt><trkpt lat="41.80135000154401" lon="13.31108369773366"><ele>696.2</ele><time>2026-04-23T13:25:41.999Z</time></trkpt><trkpt lat="41.80143721194022" lon="13.310953359420672"><ele>700.0</ele><time>2026-04-23T13:25:42.999Z</time></trkpt><trkpt lat="41.801528620781596" lon="13.310785107474045"><ele>700.0</ele><time>2026-04-23T13:25:43.999Z</time></trkpt><trkpt lat="41.80162702689954" lon="13.310583554777441"><ele>700.0</ele><time>2026-04-23T13:25:44.999Z</time></trkpt><trkpt lat="41.80174777140884" lon="13.31033610380832"><ele>700.0</ele><time>2026-04-23T13:25:45.999Z</time></trkpt><trkpt lat="41.801887368739415" lon="13.310074791464762"><ele>705.0</ele><time>2026-04-23T13:25:46.999Z</time></trkpt><trkpt lat="41.802040587241436" lon="13.309793678590177"><ele>710.0</ele><time>2026-04-23T13:25:47.999Z</time></trkpt><trkpt lat="41.80219201112363" lon="13.30949300186625"><ele>710.0</ele><time>2026-04-23T13:25:48.999Z</time></trkpt><trkpt lat="41.80230855508438" lon="13.309237341455876"><ele>710.0</ele><time>2026-04-23T13:25:49.999Z</time></trkpt><trkpt lat="41.80243575165824" lon="13.309018746419937"><ele>710.0</ele><time>2026-04-23T13:25:50.999Z</time></trkpt><trkpt lat="41.802603086335324" lon="13.30882012889947"><ele>723.3333333333333</ele><time>2026-04-23T13:25:51.999Z</time></trkpt><trkpt lat="41.80274522891265" lon="13.308638657546334"><ele>736.6666666666666</ele><time>2026-04-23T13:25:52.999Z</time></trkpt><trkpt lat="41.80285579796796" lon="13.308414193792531"><ele>750.0</ele><time>2026-04-23T13:25:53.999Z</time></trkpt><trkpt lat="41.802923970146445" lon="13.308123220888634"><ele>745.0</ele><time>2026-04-23T13:25:54.999Z</time></trkpt><trkpt lat="41.80297309262026" lon="13.307784330620532"><ele>740.0</ele><time>2026-04-23T13:25:55.999Z</time></trkpt><trkpt lat="41.80303879092738" lon="13.307494745506707"><ele>740.0</ele><time>2026-04-23T13:25:56.999Z</time></trkpt><trkpt lat="41.803162461020904" lon="13.307254363562084"><ele>740.0</ele><time>2026-04-23T13:25:57.999Z</time></trkpt><trkpt lat="41.80330428111595" lon="13.306987690912216"><ele>730.5</ele><time>2026-04-23T13:25:58.999Z</time></trkpt><trkpt lat="41.80346281925472" lon="13.306735220846978"><ele>721.0</ele><time>2026-04-23T13:25:59.999Z</time></trkpt><trkpt lat="41.80357508708106" lon="13.306440061876506"><ele>731.0</ele><time>2026-04-23T13:26:00.999Z</time></trkpt><trkpt lat="41.80365302112953" lon="13.306168759942217"><ele>741.0</ele><time>2026-04-23T13:26:01.999Z</time></trkpt><trkpt lat="41.80374006060986" lon="13.305951057962464"><ele>751.0</ele><time>2026-04-23T13:26:02.999Z</time></trkpt><trkpt lat="41.80387438688007" lon="13.305777890546425"><ele>751.0</ele><time>2026-04-23T13:26:03.999Z</time></trkpt><trkpt lat="41.80402716815088" lon="13.305647456194391"><ele>751.0</ele><time>2026-04-23T13:26:04.999Z</time></trkpt><trkpt lat="41.80412093927286" lon="13.30552647177702"><ele>751.0</ele><time>2026-04-23T13:26:05.999Z</time></trkpt><trkpt lat="41.804162390807704" lon="13.305363293015791"><ele>751.0</ele><time>2026-04-23T13:26:07Z</time></trkpt><trkpt lat="41.80416969137397" lon="13.305130645970202"><ele>749.6666666666667</ele><time>2026-04-23T13:26:08Z</time></trkpt><trkpt lat="41.80421772336059" lon="13.304884420289916"><ele>748.3333333333334</ele><time>2026-04-23T13:26:09Z</time></trkpt><trkpt lat="41.80435905263557" lon="13.304737986777955"><ele>747.0</ele><time>2026-04-23T13:26:10Z</time></trkpt><trkpt lat="41.804538072520884" lon="13.304549043201819"><ele>747.0</ele><time>2026-04-23T13:26:11Z</time></trkpt><trkpt lat="41.80470729948463" lon="13.304358219796143"><ele>747.0</ele><time>2026-04-23T13:26:12Z</time></trkpt><trkpt lat="41.80485068041559" lon="13.30422835518698"><ele>747.0</ele><time>2026-04-23T13:26:13Z</time></trkpt><trkpt lat="41.8050047594522" lon="13.304189276907346"><ele>747.0</ele><time>2026-04-23T13:26:14Z</time></trkpt><trkpt lat="41.8051565394842" lon="13.304147278276533"><ele>747.0</ele><time>2026-04-23T13:26:15Z</time></trkpt><trkpt lat="41.8053188919862" lon="13.304119186126394"><ele>747.0</ele><time>2026-04-23T13:26:16Z</time></trkpt><trkpt lat="41.80544566373402" lon="13.30410546210234"><ele>747.0</ele><time>2026-04-23T13:26:17Z</time></trkpt><trkpt lat="41.805544201445315" lon="13.304091735938991"><ele>754.75</ele><time>2026-04-23T13:26:18Z</time></trkpt><trkpt lat="41.805604837283816" lon="13.303995703241895"><ele>762.5</ele><time>2026-04-23T13:26:19Z</time></trkpt><trkpt lat="41.805643085583775" lon="13.30382044727376"><ele>770.25</ele><time>2026-04-23T13:26:20Z</time></trkpt><trkpt lat="41.80566036794343" lon="13.303580290505906"><ele>778.0</ele><time>2026-04-23T13:26:21Z</time></trkpt><trkpt lat="41.80563268582809" lon="13.303323701856852"><ele>779.6666666666666</ele><time>2026-04-23T13:26:22Z</time></trkpt><trkpt lat="41.80558651487133" lon="13.30305001207116"><ele>781.3333333333333</ele><time>2026-04-23T13:26:23Z</time></trkpt><trkpt lat="41.80556360917505" lon="13.302759155113435"><ele>783.0</ele><time>2026-04-23T13:26:24Z</time></trkpt><trkpt lat="41.80554376798579" lon="13.3024801469877"><ele>782.25</ele><time>2026-04-23T13:26:25Z</time></trkpt><trkpt lat="41.80551465981322" lon="13.302229776111053"><ele>781.5</ele><time>2026-04-23T13:26:26Z</time></trkpt><trkpt lat="41.80550600741583" lon="13.302035134374375"><ele>780.75</ele><time>2026-04-23T13:26:27Z</time></trkpt><trkpt lat="41.80549885968045" lon="13.301891908944372"><ele>780.0</ele><time>2026-04-23T13:26:28Z</time></trkpt><trkpt lat="41.80551054390663" lon="13.3018016954734"><ele>780.0</ele><time>2026-04-23T13:26:29Z</time></trkpt><trkpt lat="41.805606294622955" lon="13.301753763385143"><ele>780.0</ele><time>2026-04-23T13:26:31Z</time></trkpt><trkpt lat="41.80566602327148" lon="13.301819401517813"><ele>780.0</ele><time>2026-04-23T13:26:32Z</time></trkpt><trkpt lat="41.805699229936934" lon="13.301947028552396"><ele>780.0</ele><time>2026-04-23T13:26:33Z</time></trkpt><trkpt lat="41.805655278750514" lon="13.302130995435219"><ele>780.0</ele><time>2026-04-23T13:26:34Z</time></trkpt><trkpt lat="41.80566854825053" lon="13.302366913673689"><ele>779.3333333333333</ele><time>2026-04-23T13:26:35Z</time></trkpt><trkpt lat="41.805700301267514" lon="13.30260142403444"><ele>778.6666666666666</ele><time>2026-04-23T13:26:36Z</time></trkpt><trkpt lat="41.805768385944084" lon="13.302878701289817"><ele>778.0</ele><time>2026-04-23T13:26:37Z</time></trkpt><trkpt lat="41.80584654072849" lon="13.30317484130321"><ele>778.0</ele><time>2026-04-23T13:26:38Z</time></trkpt><trkpt lat="41.80592012390829" lon="13.303476324196499"><ele>778.0</ele><time>2026-04-23T13:26:39Z</time></trkpt><trkpt lat="41.805978631373016" lon="13.30377876872719"><ele>790.75</ele><time>2026-04-23T13:26:40Z</time></trkpt><trkpt lat="41.806024173149424" lon="13.304019112410007"><ele>803.5</ele><time>2026-04-23T13:26:41Z</time></trkpt><trkpt lat="41.80604688523468" lon="13.304202689802208"><ele>816.25</ele><time>2026-04-23T13:26:42Z</time></trkpt><trkpt lat="41.80605662520953" lon="13.30435517696534"><ele>829.0</ele><time>2026-04-23T13:26:43Z</time></trkpt><trkpt lat="41.80600723184867" lon="13.304494757534432"><ele>813.3333333333333</ele><time>2026-04-23T13:26:44Z</time></trkpt><trkpt lat="41.805898305019404" lon="13.304609817913683"><ele>797.6666666666667</ele><time>2026-04-23T13:26:45Z</time></trkpt><trkpt lat="41.805746743095504" lon="13.30468768418904"><ele>782.0</ele><time>2026-04-23T13:26:46Z</time></trkpt><trkpt lat="41.80557421898307" lon="13.30473469558376"><ele>781.0</ele><time>2026-04-23T13:26:47Z</time></trkpt><trkpt lat="41.805400917129916" lon="13.304813206824464"><ele>780.0</ele><time>2026-04-23T13:26:48Z</time></trkpt><trkpt lat="41.80529354653167" lon="13.3049150468058"><ele>779.0</ele><time>2026-04-23T13:26:49Z</time></trkpt><trkpt lat="41.80520354522098" lon="13.305044712756477"><ele>778.0</ele><time>2026-04-23T13:26:50Z</time></trkpt><trkpt lat="41.80514499669512" lon="13.305249977025767"><ele>778.0</ele><time>2026-04-23T13:26:51Z</time></trkpt><trkpt lat="41.805107368367764" lon="13.305519055468968"><ele>778.0</ele><time>2026-04-23T13:26:52Z</time></trkpt><trkpt lat="41.80504508783825" lon="13.305819252248074"><ele>778.0</ele><time>2026-04-23T13:26:53Z</time></trkpt><trkpt lat="41.80497510704914" lon="13.306099210497011"><ele>783.0</ele><time>2026-04-23T13:26:54Z</time></trkpt><trkpt lat="41.804866230649836" lon="13.306364172103134"><ele>788.0</ele><time>2026-04-23T13:26:55Z</time></trkpt><trkpt lat="41.804712534319975" lon="13.306576534627546"><ele>793.0</ele><time>2026-04-23T13:26:56Z</time></trkpt><trkpt lat="41.804594223709614" lon="13.306829727643011"><ele>801.0</ele><time>2026-04-23T13:26:57Z</time></trkpt><trkpt lat="41.80448160795635" lon="13.307083804596969"><ele>809.0</ele><time>2026-04-23T13:26:58Z</time></trkpt><trkpt lat="41.804405867911974" lon="13.307409208428851"><ele>804.0</ele><time>2026-04-23T13:26:59Z</time></trkpt><trkpt lat="41.804346324116466" lon="13.307774699471226"><ele>799.0</ele><time>2026-04-23T13:27:00Z</time></trkpt><trkpt lat="41.80430456507023" lon="13.308158107666761"><ele>799.0</ele><time>2026-04-23T13:27:01Z</time></trkpt><trkpt lat="41.804282761466915" lon="13.308483891762487"><ele>799.0</ele><time>2026-04-23T13:27:02Z</time></trkpt><trkpt lat="41.8042271311819" lon="13.308751830332334"><ele>803.6666666666666</ele><time>2026-04-23T13:27:03Z</time></trkpt><trkpt lat="41.80415194371961" lon="13.309020240303859"><ele>808.3333333333333</ele><time>2026-04-23T13:27:04Z</time></trkpt><trkpt lat="41.80405905182368" lon="13.30929413501357"><ele>813.0</ele><time>2026-04-23T13:27:05Z</time></trkpt><trkpt lat="41.80394023642098" lon="13.309581616233196"><ele>819.5</ele><time>2026-04-23T13:27:06Z</time></trkpt><trkpt lat="41.803808644492705" lon="13.30986088603063"><ele>826.0</ele><time>2026-04-23T13:27:07Z</time></trkpt><trkpt lat="41.80369939855062" lon="13.310110928156103"><ele>826.0</ele><time>2026-04-23T13:27:08Z</time></trkpt><trkpt lat="41.8036072209466" lon="13.310330146585713"><ele>826.0</ele><time>2026-04-23T13:27:09Z</time></trkpt><trkpt lat="41.80354781695781" lon="13.310508088617231"><ele>826.0</ele><time>2026-04-23T13:27:10Z</time></trkpt><trkpt lat="41.8035015041035" lon="13.310660781656141"><ele>827.75</ele><time>2026-04-23T13:27:11Z</time></trkpt><trkpt lat="41.80349208048958" lon="13.310797447158643"><ele>829.5</ele><time>2026-04-23T13:27:12Z</time></trkpt><trkpt lat="41.803534627389375" lon="13.310935044144927"><ele>831.25</ele><time>2026-04-23T13:27:13Z</time></trkpt><trkpt lat="41.80363372365894" lon="13.311030793841988"><ele>833.0</ele><time>2026-04-23T13:27:14Z</time></trkpt><trkpt lat="41.80375011329707" lon="13.31107519579829"><ele>833.0</ele><time>2026-04-23T13:27:15Z</time></trkpt><trkpt lat="41.803867919103524" lon="13.311040335892018"><ele>833.0</ele><time>2026-04-23T13:27:16Z</time></trkpt><trkpt lat="41.803958584036394" lon="13.310940651719692"><ele>833.0</ele><time>2026-04-23T13:27:17Z</time></trkpt><trkpt lat="41.804009713572604" lon="13.310778377297547"><ele>833.0</ele><time>2026-04-23T13:27:18Z</time></trkpt><trkpt lat="41.80402512683291" lon="13.310570053296535"><ele>830.6666666666667</ele><time>2026-04-23T13:27:19Z</time></trkpt><trkpt lat="41.80401380939542" lon="13.310312148002161"><ele>828.3333333333333</ele><time>2026-04-23T13:27:20Z</time></trkpt><trkpt lat="41.804054515923795" lon="13.310067664344446"><ele>826.0</ele><time>2026-04-23T13:27:21Z</time></trkpt><trkpt lat="41.80416281274266" lon="13.309846798860281"><ele>819.5</ele><time>2026-04-23T13:27:22Z</time></trkpt><trkpt lat="41.80432377088824" lon="13.309578694431147"><ele>813.0</ele><time>2026-04-23T13:27:23Z</time></trkpt><trkpt lat="41.80450395103902" lon="13.309267771059366"><ele>823.5</ele><time>2026-04-23T13:27:24Z</time></trkpt><trkpt lat="41.80467992601339" lon="13.308948826428374"><ele>834.0</ele><time>2026-04-23T13:27:25Z</time></trkpt><trkpt lat="41.804866479901534" lon="13.308632177892848"><ele>834.0</ele><time>2026-04-23T13:27:26Z</time></trkpt><trkpt lat="41.80504736945344" lon="13.308315075930372"><ele>834.0</ele><time>2026-04-23T13:27:27Z</time></trkpt><trkpt lat="41.80521107918474" lon="13.308028137275862"><ele>843.0</ele><time>2026-04-23T13:27:28Z</time></trkpt><trkpt lat="41.80537150198986" lon="13.307743769536945"><ele>852.0</ele><time>2026-04-23T13:27:29Z</time></trkpt><trkpt lat="41.80551744474082" lon="13.307438077287232"><ele>847.5</ele><time>2026-04-23T13:27:30Z</time></trkpt><trkpt lat="41.80565021164087" lon="13.3071030081193"><ele>843.0</ele><time>2026-04-23T13:27:31Z</time></trkpt><trkpt lat="41.80578152220383" lon="13.306765514601246"><ele>843.0</ele><time>2026-04-23T13:27:32Z</time></trkpt><trkpt lat="41.805887999611855" lon="13.306491190137383"><ele>843.0</ele><time>2026-04-23T13:27:33Z</time></trkpt><trkpt lat="41.80599172033425" lon="13.306239255148904"><ele>843.0</ele><time>2026-04-23T13:27:34Z</time></trkpt><trkpt lat="41.80609016901614" lon="13.306021567597588"><ele>850.3333333333333</ele><time>2026-04-23T13:27:35Z</time></trkpt><trkpt lat="41.80619906366743" lon="13.305840784441124"><ele>857.6666666666666</ele><time>2026-04-23T13:27:36Z</time></trkpt><trkpt lat="41.806354839524396" lon="13.305735798230737"><ele>865.0</ele><time>2026-04-23T13:27:37Z</time></trkpt><trkpt lat="41.8065353055639" lon="13.305636759922573"><ele>870.3333333333333</ele><time>2026-04-23T13:27:38Z</time></trkpt><trkpt lat="41.80673821941114" lon="13.305501882174873"><ele>875.6666666666667</ele><time>2026-04-23T13:27:39Z</time></trkpt><trkpt lat="41.80694167357506" lon="13.30539748519005"><ele>881.0</ele><time>2026-04-23T13:27:40Z</time></trkpt><trkpt lat="41.80709495245911" lon="13.305270722054571"><ele>881.0</ele><time>2026-04-23T13:27:41Z</time></trkpt><trkpt lat="41.80720816029443" lon="13.3051504970197"><ele>881.0</ele><time>2026-04-23T13:27:42Z</time></trkpt><trkpt lat="41.80728445801564" lon="13.305005041982216"><ele>881.0</ele><time>2026-04-23T13:27:43Z</time></trkpt><trkpt lat="41.807324437440734" lon="13.304815203073904"><ele>881.0</ele><time>2026-04-23T13:27:43.999Z</time></trkpt><trkpt lat="41.807330296532044" lon="13.304566166910408"><ele>880.0</ele><time>2026-04-23T13:27:44.999Z</time></trkpt><trkpt lat="41.80729401115236" lon="13.30427139099989"><ele>879.0</ele><time>2026-04-23T13:27:45.999Z</time></trkpt><trkpt lat="41.807238078333164" lon="13.303931082030415"><ele>883.5</ele><time>2026-04-23T13:27:46.999Z</time></trkpt><trkpt lat="41.80720794137444" lon="13.303571184104417"><ele>888.0</ele><time>2026-04-23T13:27:47.999Z</time></trkpt><trkpt lat="41.80716546929269" lon="13.303213256687242"><ele>891.5</ele><time>2026-04-23T13:27:48.999Z</time></trkpt><trkpt lat="41.80710780654981" lon="13.302863145010953"><ele>895.0</ele><time>2026-04-23T13:27:49.999Z</time></trkpt><trkpt lat="41.807089055631174" lon="13.302556732280818"><ele>895.0</ele><time>2026-04-23T13:27:50.999Z</time></trkpt><trkpt lat="41.807063942346126" lon="13.302288725590396"><ele>895.0</ele><time>2026-04-23T13:27:51.999Z</time></trkpt><trkpt lat="41.80706481321178" lon="13.30201490565681"><ele>895.0</ele><time>2026-04-23T13:27:52.999Z</time></trkpt><trkpt lat="41.80708285834748" lon="13.301745309841374"><ele>895.3333333333333</ele><time>2026-04-23T13:27:53.999Z</time></trkpt><trkpt lat="41.80711907447872" lon="13.301510870043307"><ele>895.6666666666667</ele><time>2026-04-23T13:27:54.999Z</time></trkpt><trkpt lat="41.80718733133436" lon="13.301319218050875"><ele>896.0</ele><time>2026-04-23T13:27:55.999Z</time></trkpt><trkpt lat="41.80729464192093" lon="13.301139947609785"><ele>891.6666666666667</ele><time>2026-04-23T13:27:56.999Z</time></trkpt><trkpt lat="41.80741321033343" lon="13.300950840549799"><ele>887.3333333333333</ele><time>2026-04-23T13:27:57.999Z</time></trkpt><trkpt lat="41.80748949747473" lon="13.300753539693373"><ele>883.0</ele><time>2026-04-23T13:27:58.999Z</time></trkpt><trkpt lat="41.80751917872608" lon="13.300512769047245"><ele>878.0</ele><time>2026-04-23T13:27:59.999Z</time></trkpt><trkpt lat="41.80755108898549" lon="13.30022834164898"><ele>873.0</ele><time>2026-04-23T13:28:00.999Z</time></trkpt><trkpt lat="41.80762946253764" lon="13.300024438936083"><ele>868.0</ele><time>2026-04-23T13:28:01.999Z</time></trkpt><trkpt lat="41.80771642632461" lon="13.299881364313359"><ele>872.25</ele><time>2026-04-23T13:28:02.999Z</time></trkpt><trkpt lat="41.80781653898547" lon="13.299767857675178"><ele>876.5</ele><time>2026-04-23T13:28:03.999Z</time></trkpt><trkpt lat="41.80793298255288" lon="13.29973454802166"><ele>880.75</ele><time>2026-04-23T13:28:04.999Z</time></trkpt><trkpt lat="41.80805814112098" lon="13.299736682229666"><ele>885.0</ele><time>2026-04-23T13:28:05.999Z</time></trkpt><trkpt lat="41.80817428808559" lon="13.299769686066348"><ele>888.5</ele><time>2026-04-23T13:28:06.999Z</time></trkpt><trkpt lat="41.8083107653768" lon="13.299825641868274"><ele>892.0</ele><time>2026-04-23T13:28:07.999Z</time></trkpt><trkpt lat="41.808431874691536" lon="13.299871099112947"><ele>895.5</ele><time>2026-04-23T13:28:08.999Z</time></trkpt><trkpt lat="41.80854064706175" lon="13.29982253107982"><ele>899.0</ele><time>2026-04-23T13:28:09.999Z</time></trkpt><trkpt lat="41.80865291372895" lon="13.299713153096382"><ele>905.0</ele><time>2026-04-23T13:28:10.999Z</time></trkpt><trkpt lat="41.80873176570448" lon="13.299536135032403"><ele>911.0</ele><time>2026-04-23T13:28:12Z</time></trkpt><trkpt lat="41.80877360823326" lon="13.299307908906375"><ele>917.0</ele><time>2026-04-23T13:28:13Z</time></trkpt><trkpt lat="41.80875127087446" lon="13.298982359496806"><ele>913.5</ele><time>2026-04-23T13:28:14Z</time></trkpt><trkpt lat="41.808780394811635" lon="13.298760315606724"><ele>910.0</ele><time>2026-04-23T13:28:15Z</time></trkpt><trkpt lat="41.80882988550399" lon="13.298629300946068"><ele>906.5</ele><time>2026-04-23T13:28:16Z</time></trkpt><trkpt lat="41.80888514337586" lon="13.298502158747802"><ele>903.0</ele><time>2026-04-23T13:28:17Z</time></trkpt><trkpt lat="41.80901489051241" lon="13.29840816162552"><ele>903.0</ele><time>2026-04-23T13:28:18Z</time></trkpt><trkpt lat="41.809201564574266" lon="13.29823186532249"><ele>903.0</ele><time>2026-04-23T13:28:19Z</time></trkpt><trkpt lat="41.80936510627199" lon="13.298078612967469"><ele>903.0</ele><time>2026-04-23T13:28:20Z</time></trkpt><trkpt lat="41.80950987702532" lon="13.297968357823896"><ele>902.5</ele><time>2026-04-23T13:28:21Z</time></trkpt><trkpt lat="41.809639939767926" lon="13.297930058185162"><ele>902.0</ele><time>2026-04-23T13:28:22Z</time></trkpt><trkpt lat="41.80976010043867" lon="13.297944020615898"><ele>901.5</ele><time>2026-04-23T13:28:23Z</time></trkpt><trkpt lat="41.80991780047868" lon="13.297955037222808"><ele>901.0</ele><time>2026-04-23T13:28:24Z</time></trkpt><trkpt lat="41.81006408118296" lon="13.297887432913944"><ele>907.0</ele><time>2026-04-23T13:28:25Z</time></trkpt><trkpt lat="41.81016131164369" lon="13.297719572995513"><ele>913.0</ele><time>2026-04-23T13:28:26Z</time></trkpt><trkpt lat="41.810222032770895" lon="13.297510614260208"><ele>919.0</ele><time>2026-04-23T13:28:27Z</time></trkpt><trkpt lat="41.810287775188065" lon="13.297286721043564"><ele>917.75</ele><time>2026-04-23T13:28:28Z</time></trkpt><trkpt lat="41.81038254944292" lon="13.297148632581864"><ele>916.5</ele><time>2026-04-23T13:28:29Z</time></trkpt><trkpt lat="41.81049227354764" lon="13.29707594855224"><ele>915.25</ele><time>2026-04-23T13:28:30Z</time></trkpt><trkpt lat="41.81063133980392" lon="13.297015353960722"><ele>914.0</ele><time>2026-04-23T13:28:31Z</time></trkpt><trkpt lat="41.810824528275994" lon="13.297010441514903"><ele>912.6666666666667</ele><time>2026-04-23T13:28:32Z</time></trkpt><trkpt lat="41.81105546953169" lon="13.297006385637841"><ele>911.3333333333333</ele><time>2026-04-23T13:28:33Z</time></trkpt><trkpt lat="41.811270849964586" lon="13.29702225173735"><ele>910.0</ele><time>2026-04-23T13:28:34Z</time></trkpt><trkpt lat="41.81141863068347" lon="13.297069415385565"><ele>910.0</ele><time>2026-04-23T13:28:35Z</time></trkpt><trkpt lat="41.81149691335462" lon="13.297134274442941"><ele>910.0</ele><time>2026-04-23T13:28:36Z</time></trkpt><trkpt lat="41.81157996773556" lon="13.29721743936093"><ele>910.0</ele><time>2026-04-23T13:28:37Z</time></trkpt><trkpt lat="41.811639350869285" lon="13.297410668874196"><ele>910.0</ele><time>2026-04-23T13:28:38Z</time></trkpt><trkpt lat="41.81172977737335" lon="13.29764138760253"><ele>914.0</ele><time>2026-04-23T13:28:39Z</time></trkpt><trkpt lat="41.811814044644585" lon="13.297883880548106"><ele>918.0</ele><time>2026-04-23T13:28:40Z</time></trkpt><trkpt lat="41.81194241991271" lon="13.298011726023544"><ele>922.0</ele><time>2026-04-23T13:28:41Z</time></trkpt><trkpt lat="41.812103835662995" lon="13.298097129879906"><ele>925.3333333333333</ele><time>2026-04-23T13:28:42Z</time></trkpt><trkpt lat="41.812228845233314" lon="13.298211489146908"><ele>928.6666666666667</ele><time>2026-04-23T13:28:43Z</time></trkpt><trkpt lat="41.81227679527431" lon="13.298430749630445"><ele>932.0</ele><time>2026-04-23T13:28:44Z</time></trkpt><trkpt lat="41.812306271517286" lon="13.298696640507586"><ele>936.0</ele><time>2026-04-23T13:28:45Z</time></trkpt><trkpt lat="41.812350994081115" lon="13.298983684492969"><ele>940.0</ele><time>2026-04-23T13:28:46Z</time></trkpt><trkpt lat="41.812425731292706" lon="13.299265762006637"><ele>944.0</ele><time>2026-04-23T13:28:47Z</time></trkpt><trkpt lat="41.81251554537213" lon="13.299513008363869"><ele>944.0</ele><time>2026-04-23T13:28:48Z</time></trkpt><trkpt lat="41.81264798558578" lon="13.299711155340646"><ele>944.0</ele><time>2026-04-23T13:28:49Z</time></trkpt><trkpt lat="41.81274303155636" lon="13.299861027821015"><ele>944.0</ele><time>2026-04-23T13:28:50Z</time></trkpt><trkpt lat="41.81283453885453" lon="13.29997542254457"><ele>947.0</ele><time>2026-04-23T13:28:51Z</time></trkpt><trkpt lat="41.812937132022554" lon="13.300044754457803"><ele>950.0</ele><time>2026-04-23T13:28:52Z</time></trkpt><trkpt lat="41.81306688664296" lon="13.300072273807569"><ele>953.0</ele><time>2026-04-23T13:28:53Z</time></trkpt><trkpt lat="41.81319412306381" lon="13.30003783718133"><ele>956.0</ele><time>2026-04-23T13:28:54Z</time></trkpt><trkpt lat="41.813299062205374" lon="13.29995146948988"><ele>956.0</ele><time>2026-04-23T13:28:55Z</time></trkpt><trkpt lat="41.81337911771211" lon="13.299798463169378"><ele>956.0</ele><time>2026-04-23T13:28:56Z</time></trkpt><trkpt lat="41.81342359916584" lon="13.299610360954382"><ele>956.0</ele><time>2026-04-23T13:28:57Z</time></trkpt><trkpt lat="41.81342791790954" lon="13.299391330629371"><ele>954.5</ele><time>2026-04-23T13:28:58Z</time></trkpt><trkpt lat="41.81338894064357" lon="13.2991906066981"><ele>953.0</ele><time>2026-04-23T13:28:59Z</time></trkpt><trkpt lat="41.81336662225922" lon="13.299048889969223"><ele>951.5</ele><time>2026-04-23T13:29:00Z</time></trkpt><trkpt lat="41.813385413714386" lon="13.298932408514254"><ele>950.0</ele><time>2026-04-23T13:29:01Z</time></trkpt><trkpt lat="41.81345897590501" lon="13.298825829979643"><ele>950.75</ele><time>2026-04-23T13:29:02Z</time></trkpt><trkpt lat="41.81356981282966" lon="13.298786949680501"><ele>951.5</ele><time>2026-04-23T13:29:03Z</time></trkpt><trkpt lat="41.813685831638246" lon="13.298813057003366"><ele>952.25</ele><time>2026-04-23T13:29:04Z</time></trkpt><trkpt lat="41.81380214797461" lon="13.298924359854862"><ele>953.0</ele><time>2026-04-23T13:29:05Z</time></trkpt><trkpt lat="41.813895792636714" lon="13.2991207143462"><ele>953.0</ele><time>2026-04-23T13:29:06Z</time></trkpt><trkpt lat="41.81398333912004" lon="13.29936107069451"><ele>953.0</ele><time>2026-04-23T13:29:07Z</time></trkpt><trkpt lat="41.81409176366083" lon="13.299618927839473"><ele>953.0</ele><time>2026-04-23T13:29:08Z</time></trkpt><trkpt lat="41.81420254173877" lon="13.299891681489816"><ele>960.0</ele><time>2026-04-23T13:29:09Z</time></trkpt><trkpt lat="41.814325616364854" lon="13.300122987519625"><ele>967.0</ele><time>2026-04-23T13:29:10Z</time></trkpt><trkpt lat="41.814427469602315" lon="13.30030020849023"><ele>974.0</ele><time>2026-04-23T13:29:11Z</time></trkpt><trkpt lat="41.81447727026153" lon="13.300463835554295"><ele>977.0</ele><time>2026-04-23T13:29:12Z</time></trkpt><trkpt lat="41.8144828067534" lon="13.300622251462249"><ele>980.0</ele><time>2026-04-23T13:29:13Z</time></trkpt><trkpt lat="41.81445953518795" lon="13.300801454831998"><ele>983.0</ele><time>2026-04-23T13:29:14Z</time></trkpt><trkpt lat="41.814419211630444" lon="13.301000492987873"><ele>986.0</ele><time>2026-04-23T13:29:15Z</time></trkpt><trkpt lat="41.81435435816897" lon="13.301165609251484"><ele>982.5</ele><time>2026-04-23T13:29:16Z</time></trkpt><trkpt lat="41.8142570131011" lon="13.301283439723562"><ele>979.0</ele><time>2026-04-23T13:29:17Z</time></trkpt><trkpt lat="41.81412716677612" lon="13.301381617208353"><ele>975.5</ele><time>2026-04-23T13:29:18Z</time></trkpt><trkpt lat="41.81397511842188" lon="13.301384836715156"><ele>972.0</ele><time>2026-04-23T13:29:19Z</time></trkpt><trkpt lat="41.81382165877814" lon="13.301358702041213"><ele>972.0</ele><time>2026-04-23T13:29:20Z</time></trkpt><trkpt lat="41.813669175956576" lon="13.301273050070188"><ele>972.0</ele><time>2026-04-23T13:29:21Z</time></trkpt><trkpt lat="41.81353774716029" lon="13.301263829835255"><ele>972.0</ele><time>2026-04-23T13:29:22Z</time></trkpt><trkpt lat="41.813410653618426" lon="13.301366882735822"><ele>972.0</ele><time>2026-04-23T13:29:23Z</time></trkpt><trkpt lat="41.81330277823277" lon="13.301543905350512"><ele>975.6666666666667</ele><time>2026-04-23T13:29:24Z</time></trkpt><trkpt lat="41.81320377185594" lon="13.301728486169733"><ele>979.3333333333334</ele><time>2026-04-23T13:29:25Z</time></trkpt><trkpt lat="41.81306662047215" lon="13.30184394736096"><ele>983.0</ele><time>2026-04-23T13:29:26Z</time></trkpt><trkpt lat="41.812912002735686" lon="13.301878698053713"><ele>983.0</ele><time>2026-04-23T13:29:27Z</time></trkpt><trkpt lat="41.81275918887818" lon="13.301935057433672"><ele>983.0</ele><time>2026-04-23T13:29:28Z</time></trkpt><trkpt lat="41.812649494946626" lon="13.302048545266363"><ele>983.0</ele><time>2026-04-23T13:29:29Z</time></trkpt><trkpt lat="41.81258696659256" lon="13.302253012856523"><ele>986.0</ele><time>2026-04-23T13:29:29.999Z</time></trkpt><trkpt lat="41.81255430823323" lon="13.302476166577325"><ele>989.0</ele><time>2026-04-23T13:29:30.999Z</time></trkpt><trkpt lat="41.81255112710578" lon="13.302654139310725"><ele>992.0</ele><time>2026-04-23T13:29:31.999Z</time></trkpt><trkpt lat="41.81256445831162" lon="13.30278101605159"><ele>995.0</ele><time>2026-04-23T13:29:32.999Z</time></trkpt><trkpt lat="41.812515481382434" lon="13.302870584087017"><ele>995.0</ele><time>2026-04-23T13:29:33.999Z</time></trkpt><trkpt lat="41.812406005182915" lon="13.302910952052843"><ele>995.0</ele><time>2026-04-23T13:29:34.999Z</time></trkpt><trkpt lat="41.81225259277128" lon="13.30290265988777"><ele>995.0</ele><time>2026-04-23T13:29:35.999Z</time></trkpt><trkpt lat="41.812083735292454" lon="13.302823703219556"><ele>995.0</ele><time>2026-04-23T13:29:36.999Z</time></trkpt><trkpt lat="41.81197214748862" lon="13.302706256975991"><ele>995.0</ele><time>2026-04-23T13:29:37.999Z</time></trkpt><trkpt lat="41.811904072813505" lon="13.302567072534801"><ele>995.0</ele><time>2026-04-23T13:29:38.999Z</time></trkpt><trkpt lat="41.811899338125315" lon="13.302402331205272"><ele>995.0</ele><time>2026-04-23T13:29:39.999Z</time></trkpt><trkpt lat="41.81179634381345" lon="13.302235010055043"><ele>995.0</ele><time>2026-04-23T13:29:40.999Z</time></trkpt><trkpt lat="41.8116646285597" lon="13.30214273998762"><ele>995.3333333333334</ele><time>2026-04-23T13:29:41.999Z</time></trkpt><trkpt lat="41.8115112462673" lon="13.302097516179474"><ele>995.6666666666667</ele><time>2026-04-23T13:29:42.999Z</time></trkpt><trkpt lat="41.81133447991854" lon="13.302123158461763"><ele>996.0</ele><time>2026-04-23T13:29:43.999Z</time></trkpt><trkpt lat="41.8111685724008" lon="13.30221144305318"><ele>998.25</ele><time>2026-04-23T13:29:44.999Z</time></trkpt><trkpt lat="41.811024880270914" lon="13.30232812395715"><ele>1000.5</ele><time>2026-04-23T13:29:45.999Z</time></trkpt><trkpt lat="41.810905950759164" lon="13.302457273158156"><ele>1002.75</ele><time>2026-04-23T13:29:46.999Z</time></trkpt><trkpt lat="41.81084331908927" lon="13.30260677971074"><ele>1005.0</ele><time>2026-04-23T13:29:47.999Z</time></trkpt><trkpt lat="41.810827142368275" lon="13.30276142605842"><ele>1005.0</ele><time>2026-04-23T13:29:48.999Z</time></trkpt><trkpt lat="41.81082563696425" lon="13.302969082272073"><ele>1005.0</ele><time>2026-04-23T13:29:49.999Z</time></trkpt><trkpt lat="41.81083180682783" lon="13.303191813342208"><ele>1005.0</ele><time>2026-04-23T13:29:50.999Z</time></trkpt><trkpt lat="41.810838137817875" lon="13.303475610647357"><ele>1007.5</ele><time>2026-04-23T13:29:51.999Z</time></trkpt><trkpt lat="41.81082752676445" lon="13.303679102633915"><ele>1010.0</ele><time>2026-04-23T13:29:52.999Z</time></trkpt><trkpt lat="41.81079729942397" lon="13.303785785266468"><ele>1012.5</ele><time>2026-04-23T13:29:53.999Z</time></trkpt><trkpt lat="41.81069073962218" lon="13.30387453734278"><ele>1015.0</ele><time>2026-04-23T13:29:54.999Z</time></trkpt><trkpt lat="41.810553639979936" lon="13.30396771569248"><ele>1014.0</ele><time>2026-04-23T13:29:55.999Z</time></trkpt><trkpt lat="41.810395517516014" lon="13.30406277646381"><ele>1013.0</ele><time>2026-04-23T13:29:56.999Z</time></trkpt><trkpt lat="41.81019968712611" lon="13.304210334183026"><ele>1012.0</ele><time>2026-04-23T13:29:57.999Z</time></trkpt><trkpt lat="41.81007928252442" lon="13.30429475688275"><ele>1012.0</ele><time>2026-04-23T13:29:58.999Z</time></trkpt><trkpt lat="41.809991706526866" lon="13.304392504580298"><ele>1012.0</ele><time>2026-04-23T13:29:59.999Z</time></trkpt><trkpt lat="41.80993377050014" lon="13.30458268089343"><ele>1012.0</ele><time>2026-04-23T13:30:00.999Z</time></trkpt><trkpt lat="41.80990498047413" lon="13.304829341217795"><ele>1015.6666666666666</ele><time>2026-04-23T13:30:01.999Z</time></trkpt><trkpt lat="41.809886465038225" lon="13.30512508991845"><ele>1019.3333333333333</ele><time>2026-04-23T13:30:02.999Z</time></trkpt><trkpt lat="41.80985696751744" lon="13.305408055750828"><ele>1023.0</ele><time>2026-04-23T13:30:03.999Z</time></trkpt><trkpt lat="41.8098348632767" lon="13.30567723015877"><ele>1025.6666666666667</ele><time>2026-04-23T13:30:04.999Z</time></trkpt><trkpt lat="41.809837367869896" lon="13.305900155990042"><ele>1028.3333333333335</ele><time>2026-04-23T13:30:05.999Z</time></trkpt><trkpt lat="41.80987778731507" lon="13.306101026320276"><ele>1031.0</ele><time>2026-04-23T13:30:06.999Z</time></trkpt><trkpt lat="41.809899042317085" lon="13.306307416280232"><ele>1034.3333333333335</ele><time>2026-04-23T13:30:07.999Z</time></trkpt><trkpt lat="41.80984237745673" lon="13.30648209479155"><ele>1037.6666666666667</ele><time>2026-04-23T13:30:08.999Z</time></trkpt><trkpt lat="41.809758449767706" lon="13.306657032876092"><ele>1041.0</ele><time>2026-04-23T13:30:09.999Z</time></trkpt><trkpt lat="41.809654503216784" lon="13.306907144185418"><ele>1041.0</ele><time>2026-04-23T13:30:10.999Z</time></trkpt><trkpt lat="41.80955064386863" lon="13.307152793039837"><ele>1041.0</ele><time>2026-04-23T13:30:11.999Z</time></trkpt><trkpt lat="41.809473081475076" lon="13.307410902273231"><ele>1041.0</ele><time>2026-04-23T13:30:12.999Z</time></trkpt><trkpt lat="41.809450067692126" lon="13.307632503482754"><ele>1038.6666666666667</ele><time>2026-04-23T13:30:13.999Z</time></trkpt><trkpt lat="41.80941410159744" lon="13.307815313735864"><ele>1036.3333333333335</ele><time>2026-04-23T13:30:14.999Z</time></trkpt><trkpt lat="41.809307415616004" lon="13.307975727400374"><ele>1034.0</ele><time>2026-04-23T13:30:15.999Z</time></trkpt><trkpt lat="41.80913031114837" lon="13.308084580278898"><ele>1039.3333333333335</ele><time>2026-04-23T13:30:16.999Z</time></trkpt><trkpt lat="41.80898149963584" lon="13.308195242397924"><ele>1044.6666666666667</ele><time>2026-04-23T13:30:18Z</time></trkpt><trkpt lat="41.808888401297665" lon="13.308338266661055"><ele>1050.0</ele><time>2026-04-23T13:30:19Z</time></trkpt><trkpt lat="41.80882324320126" lon="13.30856429752651"><ele>1050.0</ele><time>2026-04-23T13:30:20Z</time></trkpt><trkpt lat="41.80876743960626" lon="13.308776146915648"><ele>1050.0</ele><time>2026-04-23T13:30:21Z</time></trkpt><trkpt lat="41.80869045018717" lon="13.30892474965852"><ele>1050.0</ele><time>2026-04-23T13:30:22Z</time></trkpt><trkpt lat="41.80859172160515" lon="13.309046849514946"><ele>1050.0</ele><time>2026-04-23T13:30:23Z</time></trkpt><trkpt lat="41.80843926732574" lon="13.309105813474192"><ele>1048.25</ele><time>2026-04-23T13:30:24Z</time></trkpt><trkpt lat="41.80830576228436" lon="13.309151715761338"><ele>1046.5</ele><time>2026-04-23T13:30:25Z</time></trkpt><trkpt lat="41.808237048650746" lon="13.309286211854923"><ele>1044.75</ele><time>2026-04-23T13:30:26Z</time></trkpt><trkpt lat="41.80820172698584" lon="13.309472207202383"><ele>1043.0</ele><time>2026-04-23T13:30:27Z</time></trkpt><trkpt lat="41.80820756839221" lon="13.309695488433443"><ele>1046.0</ele><time>2026-04-23T13:30:28Z</time></trkpt><trkpt lat="41.808235747081426" lon="13.309958428102266"><ele>1049.0</ele><time>2026-04-23T13:30:29Z</time></trkpt><trkpt lat="41.80826834271484" lon="13.310266239631485"><ele>1052.0</ele><time>2026-04-23T13:30:30Z</time></trkpt><trkpt lat="41.80830103173309" lon="13.310588396020972"><ele>1052.3333333333335</ele><time>2026-04-23T13:30:31Z</time></trkpt><trkpt lat="41.808353365825994" lon="13.310888033400111"><ele>1052.6666666666667</ele><time>2026-04-23T13:30:32Z</time></trkpt><trkpt lat="41.80842539454139" lon="13.311117678764074"><ele>1053.0</ele><time>2026-04-23T13:30:33Z</time></trkpt><trkpt lat="41.80848759045357" lon="13.311284704258707"><ele>1059.25</ele><time>2026-04-23T13:30:34Z</time></trkpt><trkpt lat="41.80854689090528" lon="13.311415719752878"><ele>1065.5</ele><time>2026-04-23T13:30:35Z</time></trkpt><trkpt lat="41.80864077643963" lon="13.311507047080173"><ele>1071.75</ele><time>2026-04-23T13:30:36Z</time></trkpt><trkpt lat="41.80876908374964" lon="13.31154208105453"><ele>1078.0</ele><time>2026-04-23T13:30:37Z</time></trkpt><trkpt lat="41.80888118139402" lon="13.311508088320235"><ele>1078.25</ele><time>2026-04-23T13:30:38Z</time></trkpt><trkpt lat="41.808969927689645" lon="13.311405216011837"><ele>1078.5</ele><time>2026-04-23T13:30:39Z</time></trkpt><trkpt lat="41.80903960561721" lon="13.311238457421448"><ele>1078.75</ele><time>2026-04-23T13:30:40Z</time></trkpt><trkpt lat="41.80907073058183" lon="13.311038907782484"><ele>1079.0</ele><time>2026-04-23T13:30:41Z</time></trkpt><trkpt lat="41.80905303628132" lon="13.310834337403012"><ele>1079.0</ele><time>2026-04-23T13:30:42Z</time></trkpt><trkpt lat="41.80901849867004" lon="13.310646533340089"><ele>1079.0</ele><time>2026-04-23T13:30:43Z</time></trkpt><trkpt lat="41.80905355004278" lon="13.310424535249828"><ele>1079.0</ele><time>2026-04-23T13:30:44Z</time></trkpt><trkpt lat="41.80911054691636" lon="13.310222411263062"><ele>1078.5</ele><time>2026-04-23T13:30:45Z</time></trkpt><trkpt lat="41.80916084815433" lon="13.310039561428617"><ele>1078.0</ele><time>2026-04-23T13:30:46Z</time></trkpt><trkpt lat="41.80925694187277" lon="13.309926579440749"><ele>1077.5</ele><time>2026-04-23T13:30:47Z</time></trkpt><trkpt lat="41.8093761836539" lon="13.309826938890401"><ele>1077.0</ele><time>2026-04-23T13:30:48Z</time></trkpt><trkpt lat="41.80954354837181" lon="13.309724559515143"><ele>1077.0</ele><time>2026-04-23T13:30:49Z</time></trkpt><trkpt lat="41.809761815286116" lon="13.309634841024032"><ele>1077.0</ele><time>2026-04-23T13:30:50Z</time></trkpt><trkpt lat="41.80996818414215" lon="13.30955527857328"><ele>1077.0</ele><time>2026-04-23T13:30:51Z</time></trkpt><trkpt lat="41.81012096161779" lon="13.309519326959615"><ele>1080.75</ele><time>2026-04-23T13:30:52Z</time></trkpt><trkpt lat="41.810240458204724" lon="13.30949941394394"><ele>1084.5</ele><time>2026-04-23T13:30:53Z</time></trkpt><trkpt lat="41.81032767880078" lon="13.309404205650864"><ele>1088.25</ele><time>2026-04-23T13:30:54Z</time></trkpt><trkpt lat="41.81041453684266" lon="13.30919899792749"><ele>1092.0</ele><time>2026-04-23T13:30:55Z</time></trkpt><trkpt lat="41.81052049624273" lon="13.308964987703254"><ele>1088.3333333333333</ele><time>2026-04-23T13:30:56Z</time></trkpt><trkpt lat="41.810654642828524" lon="13.308757923057827"><ele>1084.6666666666665</ele><time>2026-04-23T13:30:57Z</time></trkpt><trkpt lat="41.81077962489892" lon="13.30868702130742"><ele>1081.0</ele><time>2026-04-23T13:30:58Z</time></trkpt><trkpt lat="41.810890540134835" lon="13.308676036833285"><ele>1081.0</ele><time>2026-04-23T13:30:59Z</time></trkpt><trkpt lat="41.810959645024525" lon="13.30872609905214"><ele>1081.0</ele><time>2026-04-23T13:31:00Z</time></trkpt><trkpt lat="41.81101782049094" lon="13.308797180113126"><ele>1081.0</ele><time>2026-04-23T13:31:01Z</time></trkpt><trkpt lat="41.81105197135709" lon="13.308911941928473"><ele>1081.0</ele><time>2026-04-23T13:31:02Z</time></trkpt><trkpt lat="41.81110606755843" lon="13.30899483967242"><ele>1081.0</ele><time>2026-04-23T13:31:03Z</time></trkpt><trkpt lat="41.811241638964745" lon="13.309255892593312"><ele>1086.5</ele><time>2026-04-23T13:31:04Z</time></trkpt><trkpt lat="41.811298668510176" lon="13.309550193793099"><ele>1092.0</ele><time>2026-04-23T13:31:05Z</time></trkpt><trkpt lat="41.81140296032684" lon="13.30984519787356"><ele>1095.5</ele><time>2026-04-23T13:31:06Z</time></trkpt><trkpt lat="41.81143130077624" lon="13.310208778750052"><ele>1099.0</ele><time>2026-04-23T13:31:07Z</time></trkpt><trkpt lat="41.81146029033095" lon="13.31057837163379"><ele>1099.5</ele><time>2026-04-23T13:31:08Z</time></trkpt><trkpt lat="41.81149051000292" lon="13.310908032826074"><ele>1100.0</ele><time>2026-04-23T13:31:09Z</time></trkpt><trkpt lat="41.81152122803741" lon="13.31121028929397"><ele>1101.25</ele><time>2026-04-23T13:31:10Z</time></trkpt><trkpt lat="41.81153579407866" lon="13.311451616124678"><ele>1102.5</ele><time>2026-04-23T13:31:11Z</time></trkpt><trkpt lat="41.811529277564304" lon="13.311596208393569"><ele>1103.75</ele><time>2026-04-23T13:31:12Z</time></trkpt><trkpt lat="41.81146984184283" lon="13.31175055764712"><ele>1105.0</ele><time>2026-04-23T13:31:13Z</time></trkpt><trkpt lat="41.81140273205575" lon="13.31182751948613"><ele>1105.0</ele><time>2026-04-23T13:31:14Z</time></trkpt><trkpt lat="41.81129740977409" lon="13.311956632995187"><ele>1105.0</ele><time>2026-04-23T13:31:15Z</time></trkpt><trkpt lat="41.81120307972175" lon="13.312116561977357"><ele>1105.0</ele><time>2026-04-23T13:31:16Z</time></trkpt><trkpt lat="41.8111496131652" lon="13.31222856947366"><ele>1105.0</ele><time>2026-04-23T13:31:17Z</time></trkpt><trkpt lat="41.81112962684615" lon="13.312363952916748"><ele>1106.3333333333333</ele><time>2026-04-23T13:31:18Z</time></trkpt><trkpt lat="41.81118845776207" lon="13.312487902198002"><ele>1107.6666666666667</ele><time>2026-04-23T13:31:19Z</time></trkpt><trkpt lat="41.811251928235286" lon="13.31265083840477"><ele>1109.0</ele><time>2026-04-23T13:31:20Z</time></trkpt><trkpt lat="41.8113396931284" lon="13.31293553374532"><ele>1110.25</ele><time>2026-04-23T13:31:21Z</time></trkpt><trkpt lat="41.81135511340094" lon="13.313166297671536"><ele>1111.5</ele><time>2026-04-23T13:31:22Z</time></trkpt><trkpt lat="41.811310229137966" lon="13.313353941182575"><ele>1112.75</ele><time>2026-04-23T13:31:23Z</time></trkpt><trkpt lat="41.811254609880706" lon="13.313500751941431"><ele>1114.0</ele><time>2026-04-23T13:31:24Z</time></trkpt><trkpt lat="41.8111531506334" lon="13.313666112906555"><ele>1114.0</ele><time>2026-04-23T13:31:25Z</time></trkpt><trkpt lat="41.811027423986886" lon="13.313842000924636"><ele>1114.0</ele><time>2026-04-23T13:31:26Z</time></trkpt><trkpt lat="41.81093323114432" lon="13.314004247813255"><ele>1114.0</ele><time>2026-04-23T13:31:27Z</time></trkpt><trkpt lat="41.81090723973321" lon="13.314177493965133"><ele>1113.75</ele><time>2026-04-23T13:31:28Z</time></trkpt><trkpt lat="41.810941280006155" lon="13.314323043990669"><ele>1113.5</ele><time>2026-04-23T13:31:29Z</time></trkpt><trkpt lat="41.81099505189636" lon="13.314463410071571"><ele>1113.25</ele><time>2026-04-23T13:31:30Z</time></trkpt><trkpt lat="41.811097671304566" lon="13.314604769052677"><ele>1113.0</ele><time>2026-04-23T13:31:31Z</time></trkpt><trkpt lat="41.811224247122176" lon="13.314691064672996"><ele>1116.3333333333333</ele><time>2026-04-23T13:31:32Z</time></trkpt><trkpt lat="41.81140241725571" lon="13.314672973479615"><ele>1119.6666666666665</ele><time>2026-04-23T13:31:33Z</time></trkpt><trkpt lat="41.811535579788604" lon="13.31459850112217"><ele>1123.0</ele><time>2026-04-23T13:31:34Z</time></trkpt><trkpt lat="41.81166227465456" lon="13.314464835687343"><ele>1123.0</ele><time>2026-04-23T13:31:35Z</time></trkpt><trkpt lat="41.81179572441742" lon="13.314253654248684"><ele>1123.0</ele><time>2026-04-23T13:31:35.999Z</time></trkpt><trkpt lat="41.811952342869205" lon="13.314032319959914"><ele>1123.0</ele><time>2026-04-23T13:31:36.999Z</time></trkpt><trkpt lat="41.81210107693635" lon="13.313833963165758"><ele>1127.6666666666665</ele><time>2026-04-23T13:31:37.999Z</time></trkpt><trkpt lat="41.812265095938855" lon="13.313691912330865"><ele>1132.3333333333333</ele><time>2026-04-23T13:31:38.999Z</time></trkpt><trkpt lat="41.812438959300366" lon="13.31357742364197"><ele>1137.0</ele><time>2026-04-23T13:31:39.999Z</time></trkpt><trkpt lat="41.812566493668605" lon="13.313403185247392"><ele>1144.3333333333333</ele><time>2026-04-23T13:31:40.999Z</time></trkpt><trkpt lat="41.81269396420043" lon="13.313217003905764"><ele>1151.6666666666665</ele><time>2026-04-23T13:31:41.999Z</time></trkpt><trkpt lat="41.812790803726536" lon="13.312917271004473"><ele>1159.0</ele><time>2026-04-23T13:31:42.999Z</time></trkpt><trkpt lat="41.81292655990894" lon="13.312627686913181"><ele>1159.0</ele><time>2026-04-23T13:31:43.999Z</time></trkpt><trkpt lat="41.81305067340308" lon="13.312383849469613"><ele>1159.0</ele><time>2026-04-23T13:31:44.999Z</time></trkpt><trkpt lat="41.81314067581146" lon="13.31219844177234"><ele>1159.0</ele><time>2026-04-23T13:31:45.999Z</time></trkpt><trkpt lat="41.81318670450062" lon="13.312053310135402"><ele>1160.0</ele><time>2026-04-23T13:31:46.999Z</time></trkpt><trkpt lat="41.813254193936054" lon="13.311937619322679"><ele>1161.0</ele><time>2026-04-23T13:31:47.999Z</time></trkpt><trkpt lat="41.81337341595735" lon="13.31182587102345"><ele>1162.0</ele><time>2026-04-23T13:31:48.999Z</time></trkpt><trkpt lat="41.8135115292844" lon="13.3117403522908"><ele>1163.0</ele><time>2026-04-23T13:31:49.999Z</time></trkpt><trkpt lat="41.81362303780511" lon="13.311573635550333"><ele>1162.0</ele><time>2026-04-23T13:31:50.999Z</time></trkpt><trkpt lat="41.813684934924595" lon="13.311339996159056"><ele>1161.0</ele><time>2026-04-23T13:31:51.999Z</time></trkpt><trkpt lat="41.81375118946812" lon="13.311097920195486"><ele>1160.0</ele><time>2026-04-23T13:31:52.999Z</time></trkpt><trkpt lat="41.81379798949867" lon="13.310904343089135"><ele>1160.0</ele><time>2026-04-23T13:31:53.999Z</time></trkpt><trkpt lat="41.81379835673363" lon="13.310742146602255"><ele>1160.0</ele><time>2026-04-23T13:31:54.999Z</time></trkpt><trkpt lat="41.813754120622015" lon="13.310559885329866"><ele>1160.0</ele><time>2026-04-23T13:31:55.999Z</time></trkpt><trkpt lat="41.81372173598324" lon="13.310418183726389"><ele>1160.0</ele><time>2026-04-23T13:31:56.999Z</time></trkpt><trkpt lat="41.81374420361318" lon="13.310316867634375"><ele>1157.5</ele><time>2026-04-23T13:31:57.999Z</time></trkpt><trkpt lat="41.813819232431676" lon="13.310193678627169"><ele>1155.0</ele><time>2026-04-23T13:31:58.999Z</time></trkpt><trkpt lat="41.81392057906591" lon="13.3100452383176"><ele>1152.5</ele><time>2026-04-23T13:31:59.999Z</time></trkpt><trkpt lat="41.81403689221435" lon="13.30998777421586"><ele>1150.0</ele><time>2026-04-23T13:32:00.999Z</time></trkpt><trkpt lat="41.81415529016719" lon="13.309995377049281"><ele>1150.0</ele><time>2026-04-23T13:32:01.999Z</time></trkpt><trkpt lat="41.814270238226996" lon="13.31006693317233"><ele>1150.0</ele><time>2026-04-23T13:32:02.999Z</time></trkpt><trkpt lat="41.81436903815622" lon="13.310161985267031"><ele>1150.0</ele><time>2026-04-23T13:32:03.999Z</time></trkpt><trkpt lat="41.81445195816172" lon="13.310319512327634"><ele>1150.0</ele><time>2026-04-23T13:32:04.999Z</time></trkpt><trkpt lat="41.814522867950174" lon="13.310462272501967"><ele>1150.5</ele><time>2026-04-23T13:32:05.999Z</time></trkpt><trkpt lat="41.814568955997885" lon="13.310622627753588"><ele>1151.0</ele><time>2026-04-23T13:32:06.999Z</time></trkpt><trkpt lat="41.81458770309712" lon="13.310806950406757"><ele>1151.5</ele><time>2026-04-23T13:32:07.999Z</time></trkpt><trkpt lat="41.814526204860336" lon="13.31097113186458"><ele>1152.0</ele><time>2026-04-23T13:32:08.999Z</time></trkpt><trkpt lat="41.81445664594661" lon="13.311076605351667"><ele>1152.0</ele><time>2026-04-23T13:32:09.999Z</time></trkpt><trkpt lat="41.81436055582731" lon="13.311155878071853"><ele>1152.0</ele><time>2026-04-23T13:32:10.999Z</time></trkpt><trkpt lat="41.814227232698336" lon="13.311250334629799"><ele>1152.0</ele><time>2026-04-23T13:32:11.999Z</time></trkpt><trkpt lat="41.81409588056007" lon="13.311424360523581"><ele>1152.0</ele><time>2026-04-23T13:32:12.999Z</time></trkpt><trkpt lat="41.81405102777096" lon="13.311626691824234"><ele>1155.6666666666667</ele><time>2026-04-23T13:32:13.999Z</time></trkpt><trkpt lat="41.813984043429016" lon="13.311795063572827"><ele>1159.3333333333335</ele><time>2026-04-23T13:32:14.999Z</time></trkpt><trkpt lat="41.81390379781022" lon="13.312026459130154"><ele>1163.0</ele><time>2026-04-23T13:32:15.999Z</time></trkpt><trkpt lat="41.81377890785408" lon="13.31215636035048"><ele>1161.6666666666667</ele><time>2026-04-23T13:32:16.999Z</time></trkpt><trkpt lat="41.81365428403294" lon="13.312261961627142"><ele>1160.3333333333333</ele><time>2026-04-23T13:32:17.999Z</time></trkpt><trkpt lat="41.813525082514815" lon="13.312397309341947"><ele>1159.0</ele><time>2026-04-23T13:32:18.999Z</time></trkpt><trkpt lat="41.81340564395508" lon="13.312614537003716"><ele>1159.0</ele><time>2026-04-23T13:32:19.999Z</time></trkpt><trkpt lat="41.813295542750055" lon="13.312858406627676"><ele>1159.0</ele><time>2026-04-23T13:32:20.999Z</time></trkpt><trkpt lat="41.81321200623931" lon="13.313083883004376"><ele>1159.0</ele><time>2026-04-23T13:32:21.999Z</time></trkpt><trkpt lat="41.81319050826914" lon="13.313367505241791"><ele>1164.6666666666665</ele><time>2026-04-23T13:32:22.999Z</time></trkpt><trkpt lat="41.81317158402766" lon="13.313638056230184"><ele>1170.3333333333333</ele><time>2026-04-23T13:32:24Z</time></trkpt><trkpt lat="41.81316278573202" lon="13.313940275060721"><ele>1176.0</ele><time>2026-04-23T13:32:25Z</time></trkpt><trkpt lat="41.81314609612301" lon="13.314137139730624"><ele>1180.0</ele><time>2026-04-23T13:32:26Z</time></trkpt><trkpt lat="41.81308846415412" lon="13.314312981409332"><ele>1184.0</ele><time>2026-04-23T13:32:27Z</time></trkpt><trkpt lat="41.812982960241094" lon="13.31443762745309"><ele>1188.0</ele><time>2026-04-23T13:32:28Z</time></trkpt><trkpt lat="41.81285993036098" lon="13.314608596327584"><ele>1192.3333333333333</ele><time>2026-04-23T13:32:29Z</time></trkpt><trkpt lat="41.812754974037624" lon="13.314860609303702"><ele>1196.6666666666665</ele><time>2026-04-23T13:32:30Z</time></trkpt><trkpt lat="41.812674971035406" lon="13.31515135659414"><ele>1201.0</ele><time>2026-04-23T13:32:31Z</time></trkpt><trkpt lat="41.8126316275481" lon="13.315422178790023"><ele>1203.0</ele><time>2026-04-23T13:32:32Z</time></trkpt><trkpt lat="41.812630902611254" lon="13.315696512863704"><ele>1205.0</ele><time>2026-04-23T13:32:33Z</time></trkpt><trkpt lat="41.81265016629737" lon="13.315980110306024"><ele>1207.0</ele><time>2026-04-23T13:32:34Z</time></trkpt><trkpt lat="41.81267577279686" lon="13.316273802464998"><ele>1204.6666666666665</ele><time>2026-04-23T13:32:35Z</time></trkpt><trkpt lat="41.81270640666825" lon="13.316505457703471"><ele>1202.3333333333333</ele><time>2026-04-23T13:32:36Z</time></trkpt><trkpt lat="41.812761486528096" lon="13.316711973483248"><ele>1200.0</ele><time>2026-04-23T13:32:37Z</time></trkpt><trkpt lat="41.81286076785527" lon="13.316872429309809"><ele>1200.0</ele><time>2026-04-23T13:32:38Z</time></trkpt><trkpt lat="41.81299831697068" lon="13.316992484518556"><ele>1200.0</ele><time>2026-04-23T13:32:39Z</time></trkpt><trkpt lat="41.8131292591857" lon="13.317062818354662"><ele>1200.0</ele><time>2026-04-23T13:32:40Z</time></trkpt><trkpt lat="41.8132375716126" lon="13.317068813907952"><ele>1200.0</ele><time>2026-04-23T13:32:41Z</time></trkpt><trkpt lat="41.813309349512764" lon="13.317081878905263"><ele>1200.0</ele><time>2026-04-23T13:32:42Z</time></trkpt><trkpt lat="41.813378457162614" lon="13.317046526555606"><ele>1200.0</ele><time>2026-04-23T13:32:43Z</time></trkpt><trkpt lat="41.81342836348747" lon="13.316918976982917"><ele>1200.0</ele><time>2026-04-23T13:32:44Z</time></trkpt><trkpt lat="41.813418513115366" lon="13.3167769313412"><ele>1200.0</ele><time>2026-04-23T13:32:45Z</time></trkpt><trkpt lat="41.81334824198722" lon="13.316637611735892"><ele>1200.0</ele><time>2026-04-23T13:32:46Z</time></trkpt><trkpt lat="41.813242396158145" lon="13.316513345885687"><ele>1201.75</ele><time>2026-04-23T13:32:47Z</time></trkpt><trkpt lat="41.81317107558383" lon="13.316366456814118"><ele>1203.5</ele><time>2026-04-23T13:32:48Z</time></trkpt><trkpt lat="41.813123528455584" lon="13.316148704271653"><ele>1205.25</ele><time>2026-04-23T13:32:49Z</time></trkpt><trkpt lat="41.81312305449618" lon="13.31597120198923"><ele>1207.0</ele><time>2026-04-23T13:32:50Z</time></trkpt><trkpt lat="41.81313718546095" lon="13.315808352820964"><ele>1207.0</ele><time>2026-04-23T13:32:51Z</time></trkpt><trkpt lat="41.81318982903223" lon="13.315644027814875"><ele>1207.0</ele><time>2026-04-23T13:32:52Z</time></trkpt><trkpt lat="41.81325494268248" lon="13.315499630131574"><ele>1207.0</ele><time>2026-04-23T13:32:53Z</time></trkpt><trkpt lat="41.813352430313955" lon="13.31537323863968"><ele>1207.0</ele><time>2026-04-23T13:32:54Z</time></trkpt><trkpt lat="41.81342782905765" lon="13.315310914227283"><ele>1208.0</ele><time>2026-04-23T13:32:55Z</time></trkpt><trkpt lat="41.8135095809321" lon="13.315294480626218"><ele>1209.0</ele><time>2026-04-23T13:32:56Z</time></trkpt><trkpt lat="41.813598788012314" lon="13.315300965034016"><ele>1210.0</ele><time>2026-04-23T13:32:57Z</time></trkpt><trkpt lat="41.81369061148212" lon="13.315310822448918"><ele>1211.0</ele><time>2026-04-23T13:32:58Z</time></trkpt><trkpt lat="41.81375711351229" lon="13.315410099251164"><ele>1212.0</ele><time>2026-04-23T13:32:59Z</time></trkpt><trkpt lat="41.81380689317594" lon="13.315556902363541"><ele>1212.0</ele><time>2026-04-23T13:33:00Z</time></trkpt><trkpt lat="41.813867712276426" lon="13.315703315926124"><ele>1212.0</ele><time>2026-04-23T13:33:01Z</time></trkpt><trkpt lat="41.81389388213138" lon="13.315872140601845"><ele>1212.0</ele><time>2026-04-23T13:33:02Z</time></trkpt><trkpt lat="41.81387914600571" lon="13.316045174450771"><ele>1212.0</ele><time>2026-04-23T13:33:03Z</time></trkpt><trkpt lat="41.81383734737047" lon="13.31621279918376"><ele>1212.0</ele><time>2026-04-23T13:33:04Z</time></trkpt><trkpt lat="41.81384590554813" lon="13.316386304954252"><ele>1212.0</ele><time>2026-04-23T13:33:05Z</time></trkpt><trkpt lat="41.813898653070595" lon="13.316557982649117"><ele>1212.0</ele><time>2026-04-23T13:33:06Z</time></trkpt><trkpt lat="41.813985826613695" lon="13.316709530064307"><ele>1212.0</ele><time>2026-04-23T13:33:07Z</time></trkpt><trkpt lat="41.81411598300916" lon="13.316862851154786"><ele>1213.6666666666667</ele><time>2026-04-23T13:33:08Z</time></trkpt><trkpt lat="41.81427421431498" lon="13.317020005653395"><ele>1215.3333333333335</ele><time>2026-04-23T13:33:09Z</time></trkpt><trkpt lat="41.81442348089373" lon="13.317151743269566"><ele>1217.0</ele><time>2026-04-23T13:33:10Z</time></trkpt><trkpt lat="41.81457314148804" lon="13.3172771737572"><ele>1221.0</ele><time>2026-04-23T13:33:11Z</time></trkpt><trkpt lat="41.81472477225761" lon="13.317403506993118"><ele>1225.0</ele><time>2026-04-23T13:33:12Z</time></trkpt><trkpt lat="41.814869668912635" lon="13.317538266638252"><ele>1229.0</ele><time>2026-04-23T13:33:13Z</time></trkpt><trkpt lat="41.81501411860783" lon="13.317665089061311"><ele>1232.0</ele><time>2026-04-23T13:33:14Z</time></trkpt><trkpt lat="41.81516152953648" lon="13.317786615885563"><ele>1235.0</ele><time>2026-04-23T13:33:15Z</time></trkpt><trkpt lat="41.81531049727" lon="13.317895130051198"><ele>1238.0</ele><time>2026-04-23T13:33:16Z</time></trkpt><trkpt lat="41.81545713863078" lon="13.317967940601994"><ele>1238.0</ele><time>2026-04-23T13:33:17Z</time></trkpt><trkpt lat="41.81559164263948" lon="13.318029098976123"><ele>1238.0</ele><time>2026-04-23T13:33:18Z</time></trkpt><trkpt lat="41.81571055942582" lon="13.318095167240429"><ele>1238.0</ele><time>2026-04-23T13:33:19Z</time></trkpt><trkpt lat="41.81582530592099" lon="13.31811676101102"><ele>1238.0</ele><time>2026-04-23T13:33:20Z</time></trkpt><trkpt lat="41.815934244339104" lon="13.318149133502018"><ele>1239.4</ele><time>2026-04-23T13:33:21Z</time></trkpt><trkpt lat="41.816034580973884" lon="13.318175792100208"><ele>1240.8</ele><time>2026-04-23T13:33:22Z</time></trkpt><trkpt lat="41.81612970637302" lon="13.318199258112752"><ele>1242.2</ele><time>2026-04-23T13:33:23Z</time></trkpt><trkpt lat="41.81623352054616" lon="13.31822343772004"><ele>1243.6</ele><time>2026-04-23T13:33:24Z</time></trkpt><trkpt lat="41.816344736890436" lon="13.318256854673939"><ele>1245.0</ele><time>2026-04-23T13:33:25Z</time></trkpt><trkpt lat="41.816459822247495" lon="13.318288904153876"><ele>1245.0</ele><time>2026-04-23T13:33:26Z</time></trkpt><trkpt lat="41.816576248244026" lon="13.318319832264608"><ele>1245.0</ele><time>2026-04-23T13:33:27Z</time></trkpt><trkpt lat="41.816695360157254" lon="13.318351522076174"><ele>1245.0</ele><time>2026-04-23T13:33:28Z</time></trkpt><trkpt lat="41.816821981362565" lon="13.318384932595354"><ele>1245.0</ele><time>2026-04-23T13:33:29Z</time></trkpt><trkpt lat="41.8169469392723" lon="13.318433599514732"><ele>1248.25</ele><time>2026-04-23T13:33:30Z</time></trkpt><trkpt lat="41.817075049108624" lon="13.3184646159966"><ele>1251.5</ele><time>2026-04-23T13:33:31Z</time></trkpt><trkpt lat="41.81719039673547" lon="13.318506537863055"><ele>1254.75</ele><time>2026-04-23T13:33:32Z</time></trkpt><trkpt lat="41.81730811170862" lon="13.318544086763135"><ele>1258.0</ele><time>2026-04-23T13:33:33Z</time></trkpt><trkpt lat="41.81742322143703" lon="13.318571525309753"><ele>1258.0</ele><time>2026-04-23T13:33:34Z</time></trkpt><trkpt lat="41.81753387887326" lon="13.318597169507239"><ele>1258.0</ele><time>2026-04-23T13:33:35Z</time></trkpt><trkpt lat="41.817636502416" lon="13.318628863224145"><ele>1258.0</ele><time>2026-04-23T13:33:36Z</time></trkpt><trkpt lat="41.8177483434403" lon="13.318660441536208"><ele>1258.0</ele><time>2026-04-23T13:33:37Z</time></trkpt><trkpt lat="41.81784825668837" lon="13.31869905567427"><ele>1258.0</ele><time>2026-04-23T13:33:38Z</time></trkpt><trkpt lat="41.81791069780785" lon="13.318809014074604"><ele>1265.3333333333333</ele><time>2026-04-23T13:33:39Z</time></trkpt><trkpt lat="41.81792989167578" lon="13.318983493680825"><ele>1272.6666666666667</ele><time>2026-04-23T13:33:40Z</time></trkpt><trkpt lat="41.817904734581546" lon="13.319180133914927"><ele>1280.0</ele><time>2026-04-23T13:33:41Z</time></trkpt><trkpt lat="41.817822037464246" lon="13.319382172531352"><ele>1280.0</ele><time>2026-04-23T13:33:42Z</time></trkpt><trkpt lat="41.81769730246546" lon="13.319577577954904"><ele>1280.0</ele><time>2026-04-23T13:33:43Z</time></trkpt><trkpt lat="41.81760506053631" lon="13.319773288887468"><ele>1280.0</ele><time>2026-04-23T13:33:44Z</time></trkpt><trkpt lat="41.817532370572636" lon="13.319909074364139"><ele>1275.5</ele><time>2026-04-23T13:33:45Z</time></trkpt><trkpt lat="41.81747254026511" lon="13.320046105692734"><ele>1271.0</ele><time>2026-04-23T13:33:46Z</time></trkpt><trkpt lat="41.817467556343786" lon="13.320167881188292"><ele>1266.5</ele><time>2026-04-23T13:33:47Z</time></trkpt><trkpt lat="41.817517668654055" lon="13.320291813504394"><ele>1262.0</ele><time>2026-04-23T13:33:48Z</time></trkpt><trkpt lat="41.81762167429559" lon="13.320414582173708"><ele>1272.3333333333335</ele><time>2026-04-23T13:33:48.999Z</time></trkpt><trkpt lat="41.817766387694775" lon="13.32053531756991"><ele>1282.6666666666667</ele><time>2026-04-23T13:33:49.999Z</time></trkpt><trkpt lat="41.81787374433134" lon="13.32068618050243"><ele>1293.0</ele><time>2026-04-23T13:33:50.999Z</time></trkpt><trkpt lat="41.817898415958304" lon="13.32090112058662"><ele>1293.0</ele><time>2026-04-23T13:33:51.999Z</time></trkpt><trkpt lat="41.81789336433272" lon="13.321120264687224"><ele>1293.0</ele><time>2026-04-23T13:33:52.999Z</time></trkpt><trkpt lat="41.817939786400125" lon="13.321303569363165"><ele>1293.0</ele><time>2026-04-23T13:33:53.999Z</time></trkpt><trkpt lat="41.81809054577274" lon="13.321487703365326"><ele>1286.5</ele><time>2026-04-23T13:33:54.999Z</time></trkpt><trkpt lat="41.81829529319325" lon="13.321684139519062"><ele>1280.0</ele><time>2026-04-23T13:33:55.999Z</time></trkpt><trkpt lat="41.81848678822933" lon="13.32190711340545"><ele>1288.6666666666667</ele><time>2026-04-23T13:33:56.999Z</time></trkpt><trkpt lat="41.81866309936517" lon="13.322083547586686"><ele>1297.3333333333333</ele><time>2026-04-23T13:33:57.999Z</time></trkpt><trkpt lat="41.81880539449661" lon="13.322258672215037"><ele>1306.0</ele><time>2026-04-23T13:33:58.999Z</time></trkpt><trkpt lat="41.81894973426527" lon="13.322412026949412"><ele>1306.0</ele><time>2026-04-23T13:33:59.999Z</time></trkpt><trkpt lat="41.81903160445147" lon="13.322550445486856"><ele>1306.0</ele><time>2026-04-23T13:34:00.999Z</time></trkpt><trkpt lat="41.81907634773646" lon="13.322660803409994"><ele>1306.0</ele><time>2026-04-23T13:34:01.999Z</time></trkpt><trkpt lat="41.81907512341349" lon="13.322780837751406"><ele>1306.0</ele><time>2026-04-23T13:34:02.999Z</time></trkpt><trkpt lat="41.81904838573358" lon="13.322899094743129"><ele>1306.0</ele><time>2026-04-23T13:34:03.999Z</time></trkpt><trkpt lat="41.81897486523482" lon="13.323009887320298"><ele>1310.0</ele><time>2026-04-23T13:34:04.999Z</time></trkpt><trkpt lat="41.81885486637634" lon="13.323131455745385"><ele>1314.0</ele><time>2026-04-23T13:34:05.999Z</time></trkpt><trkpt lat="41.81870104884009" lon="13.323264618802943"><ele>1318.0</ele><time>2026-04-23T13:34:06.999Z</time></trkpt><trkpt lat="41.81852900484099" lon="13.323434190394932"><ele>1307.6666666666665</ele><time>2026-04-23T13:34:07.999Z</time></trkpt><trkpt lat="41.81838065634449" lon="13.323604943287679"><ele>1297.3333333333333</ele><time>2026-04-23T13:34:08.999Z</time></trkpt><trkpt lat="41.81827074402805" lon="13.323728942161186"><ele>1287.0</ele><time>2026-04-23T13:34:09.999Z</time></trkpt><trkpt lat="41.81818292238462" lon="13.323844446834814"><ele>1290.5</ele><time>2026-04-23T13:34:10.999Z</time></trkpt><trkpt lat="41.81811146084464" lon="13.323950856417886"><ele>1294.0</ele><time>2026-04-23T13:34:11.999Z</time></trkpt><trkpt lat="41.818109110048916" lon="13.324125681722833"><ele>1297.5</ele><time>2026-04-23T13:34:12.999Z</time></trkpt><trkpt lat="41.818150689740925" lon="13.324320823127223"><ele>1301.0</ele><time>2026-04-23T13:34:13.999Z</time></trkpt><trkpt lat="41.81823746886286" lon="13.324537278348474"><ele>1299.0</ele><time>2026-04-23T13:34:14.999Z</time></trkpt><trkpt lat="41.81835711973371" lon="13.32474593752762"><ele>1297.0</ele><time>2026-04-23T13:34:15.999Z</time></trkpt><trkpt lat="41.818499377831024" lon="13.324948719144853"><ele>1295.0</ele><time>2026-04-23T13:34:16.999Z</time></trkpt><trkpt lat="41.81862902195373" lon="13.325129466736307"><ele>1307.0</ele><time>2026-04-23T13:34:17.999Z</time></trkpt><trkpt lat="41.818707633691275" lon="13.325292876937574"><ele>1319.0</ele><time>2026-04-23T13:34:18.999Z</time></trkpt><trkpt lat="41.81876910306696" lon="13.325451466807491"><ele>1331.0</ele><time>2026-04-23T13:34:19.999Z</time></trkpt><trkpt lat="41.81881364409448" lon="13.325622426063253"><ele>1343.0</ele><time>2026-04-23T13:34:20.999Z</time></trkpt><trkpt lat="41.8187877577449" lon="13.325817547535648"><ele>1343.6666666666667</ele><time>2026-04-23T13:34:21.999Z</time></trkpt><trkpt lat="41.81869886076456" lon="13.326010847816258"><ele>1344.3333333333333</ele><time>2026-04-23T13:34:22.999Z</time></trkpt><trkpt lat="41.818559230639515" lon="13.32618846380189"><ele>1345.0</ele><time>2026-04-23T13:34:23.999Z</time></trkpt><trkpt lat="41.818402826949814" lon="13.326377796558578"><ele>1337.3333333333333</ele><time>2026-04-23T13:34:24.999Z</time></trkpt><trkpt lat="41.818295284520374" lon="13.326581804271836"><ele>1329.6666666666667</ele><time>2026-04-23T13:34:25.999Z</time></trkpt><trkpt lat="41.8181783006746" lon="13.326790954476873"><ele>1322.0</ele><time>2026-04-23T13:34:26.999Z</time></trkpt><trkpt lat="41.81814559503355" lon="13.327037813749754"><ele>1322.0</ele><time>2026-04-23T13:34:27.999Z</time></trkpt><trkpt lat="41.81809707897358" lon="13.327203566005306"><ele>1322.0</ele><time>2026-04-23T13:34:29Z</time></trkpt><trkpt lat="41.817979251260425" lon="13.327343583853937"><ele>1322.0</ele><time>2026-04-23T13:34:30Z</time></trkpt><trkpt lat="41.81781870392786" lon="13.327466413325997"><ele>1318.0</ele><time>2026-04-23T13:34:31Z</time></trkpt><trkpt lat="41.81766190790768" lon="13.327590080724987"><ele>1314.0</ele><time>2026-04-23T13:34:32Z</time></trkpt><trkpt lat="41.81751255236087" lon="13.327746005192846"><ele>1310.0</ele><time>2026-04-23T13:34:33Z</time></trkpt><trkpt lat="41.81739125459956" lon="13.327955786403649"><ele>1317.3333333333335</ele><time>2026-04-23T13:34:34Z</time></trkpt><trkpt lat="41.8173033642646" lon="13.328203558897476"><ele>1324.6666666666667</ele><time>2026-04-23T13:34:35Z</time></trkpt><trkpt lat="41.81725245100477" lon="13.328472245095602"><ele>1332.0</ele><time>2026-04-23T13:34:36Z</time></trkpt><trkpt lat="41.8172267945339" lon="13.32873482433987"><ele>1335.3333333333333</ele><time>2026-04-23T13:34:37Z</time></trkpt><trkpt lat="41.81720455165006" lon="13.328990188304738"><ele>1338.6666666666665</ele><time>2026-04-23T13:34:38Z</time></trkpt><trkpt lat="41.81719560776256" lon="13.329243897415067"><ele>1342.0</ele><time>2026-04-23T13:34:39Z</time></trkpt><trkpt lat="41.81722125597138" lon="13.329515581769781"><ele>1340.5</ele><time>2026-04-23T13:34:40Z</time></trkpt><trkpt lat="41.817276834151656" lon="13.329806411356795"><ele>1339.0</ele><time>2026-04-23T13:34:41Z</time></trkpt><trkpt lat="41.81735547197123" lon="13.330110150823561"><ele>1339.0</ele><time>2026-04-23T13:34:42Z</time></trkpt><trkpt lat="41.81745046494883" lon="13.330398296315627"><ele>1339.0</ele><time>2026-04-23T13:34:43Z</time></trkpt><trkpt lat="41.817574557666035" lon="13.330634131268662"><ele>1349.0</ele><time>2026-04-23T13:34:44Z</time></trkpt><trkpt lat="41.817731299753284" lon="13.330870221196811"><ele>1359.0</ele><time>2026-04-23T13:34:45Z</time></trkpt><trkpt lat="41.8178604531943" lon="13.331097589623676"><ele>1369.0</ele><time>2026-04-23T13:34:46Z</time></trkpt><trkpt lat="41.817948581651855" lon="13.331310523068572"><ele>1365.6666666666665</ele><time>2026-04-23T13:34:47Z</time></trkpt><trkpt lat="41.81799263012905" lon="13.33151427434506"><ele>1362.3333333333333</ele><time>2026-04-23T13:34:48Z</time></trkpt><trkpt lat="41.81800586099612" lon="13.33172859039717"><ele>1359.0</ele><time>2026-04-23T13:34:49Z</time></trkpt><trkpt lat="41.817970727228044" lon="13.331936740096978"><ele>1359.0</ele><time>2026-04-23T13:34:50Z</time></trkpt><trkpt lat="41.81792084430897" lon="13.33211283580027"><ele>1359.0</ele><time>2026-04-23T13:34:51Z</time></trkpt><trkpt lat="41.817901762732326" lon="13.332260847372702"><ele>1359.0</ele><time>2026-04-23T13:34:52Z</time></trkpt><trkpt lat="41.81792498892067" lon="13.3323810122089"><ele>1359.0</ele><time>2026-04-23T13:34:53Z</time></trkpt><trkpt lat="41.81801470738045" lon="13.332455572505024"><ele>1359.0</ele><time>2026-04-23T13:34:54Z</time></trkpt><trkpt lat="41.818118227710464" lon="13.332480859140095"><ele>1359.0</ele><time>2026-04-23T13:34:55Z</time></trkpt><trkpt lat="41.81822138152244" lon="13.332422449258205"><ele>1359.0</ele><time>2026-04-23T13:34:56Z</time></trkpt><trkpt lat="41.81829060057477" lon="13.332309925078887"><ele>1359.0</ele><time>2026-04-23T13:34:57Z</time></trkpt><trkpt lat="41.81832568505951" lon="13.332136849183957"><ele>1359.0</ele><time>2026-04-23T13:34:58Z</time></trkpt><trkpt lat="41.81832032668541" lon="13.331906837260078"><ele>1359.0</ele><time>2026-04-23T13:34:59Z</time></trkpt><trkpt lat="41.818284114895285" lon="13.331613673108727"><ele>1359.0</ele><time>2026-04-23T13:35:00Z</time></trkpt><trkpt lat="41.81824082157142" lon="13.331323485203072"><ele>1362.3333333333333</ele><time>2026-04-23T13:35:01Z</time></trkpt><trkpt lat="41.81822677892137" lon="13.331068373241834"><ele>1365.6666666666665</ele><time>2026-04-23T13:35:02Z</time></trkpt><trkpt lat="41.818197488830684" lon="13.330830989307271"><ele>1369.0</ele><time>2026-04-23T13:35:03Z</time></trkpt><trkpt lat="41.81812224814448" lon="13.3306048486943"><ele>1373.0</ele><time>2026-04-23T13:35:04Z</time></trkpt><trkpt lat="41.81801045405764" lon="13.330407902492045"><ele>1377.0</ele><time>2026-04-23T13:35:05Z</time></trkpt><trkpt lat="41.81793073686114" lon="13.330220202586638"><ele>1381.0</ele><time>2026-04-23T13:35:06Z</time></trkpt><trkpt lat="41.817894912771756" lon="13.330006183240295"><ele>1381.0</ele><time>2026-04-23T13:35:07Z</time></trkpt><trkpt lat="41.81789240909003" lon="13.329743467573529"><ele>1381.0</ele><time>2026-04-23T13:35:08Z</time></trkpt><trkpt lat="41.81790526070088" lon="13.329467064047778"><ele>1381.0</ele><time>2026-04-23T13:35:09Z</time></trkpt><trkpt lat="41.81792170551021" lon="13.329174175266115"><ele>1380.6666666666665</ele><time>2026-04-23T13:35:10Z</time></trkpt><trkpt lat="41.81795040553588" lon="13.32888740663896"><ele>1380.3333333333333</ele><time>2026-04-23T13:35:11Z</time></trkpt><trkpt lat="41.81798559509668" lon="13.328624467916187"><ele>1380.0</ele><time>2026-04-23T13:35:12Z</time></trkpt><trkpt lat="41.81804693302822" lon="13.328397914836232"><ele>1380.0</ele><time>2026-04-23T13:35:13Z</time></trkpt><trkpt lat="41.81813550983779" lon="13.32819033605697"><ele>1380.0</ele><time>2026-04-23T13:35:14Z</time></trkpt><trkpt lat="41.81825181976929" lon="13.328003987461486"><ele>1380.0</ele><time>2026-04-23T13:35:15Z</time></trkpt><trkpt lat="41.81839446852029" lon="13.32785227005533"><ele>1385.3333333333333</ele><time>2026-04-23T13:35:16Z</time></trkpt><trkpt lat="41.818554676362766" lon="13.32769333845131"><ele>1390.6666666666665</ele><time>2026-04-23T13:35:17Z</time></trkpt><trkpt lat="41.81871413743516" lon="13.32750063268215"><ele>1396.0</ele><time>2026-04-23T13:35:18Z</time></trkpt><trkpt lat="41.81886735248586" lon="13.327301254360288"><ele>1397.0</ele><time>2026-04-23T13:35:19Z</time></trkpt><trkpt lat="41.819023413112596" lon="13.327137772068792"><ele>1398.0</ele><time>2026-04-23T13:35:20Z</time></trkpt><trkpt lat="41.81918856835623" lon="13.327012737228303"><ele>1399.0</ele><time>2026-04-23T13:35:21Z</time></trkpt><trkpt lat="41.81934564041077" lon="13.326920566761174"><ele>1399.0</ele><time>2026-04-23T13:35:22Z</time></trkpt><trkpt lat="41.819488204853435" lon="13.326873886334749"><ele>1399.0</ele><time>2026-04-23T13:35:23Z</time></trkpt><trkpt lat="41.81962828572346" lon="13.326879951901436"><ele>1399.0</ele><time>2026-04-23T13:35:24Z</time></trkpt><trkpt lat="41.81975146271669" lon="13.326899164672184"><ele>1399.0</ele><time>2026-04-23T13:35:25Z</time></trkpt><trkpt lat="41.819841469590095" lon="13.326871642985248"><ele>1399.0</ele><time>2026-04-23T13:35:26Z</time></trkpt><trkpt lat="41.819913079536626" lon="13.32677276917775"><ele>1399.0</ele><time>2026-04-23T13:35:27Z</time></trkpt><trkpt lat="41.81995743571532" lon="13.32660374430356"><ele>1399.0</ele><time>2026-04-23T13:35:28Z</time></trkpt><trkpt lat="41.81996170330634" lon="13.326375081393287"><ele>1399.0</ele><time>2026-04-23T13:35:29Z</time></trkpt><trkpt lat="41.81992937666261" lon="13.3260657883466"><ele>1395.0</ele><time>2026-04-23T13:35:30Z</time></trkpt><trkpt lat="41.8198896851015" lon="13.325751215262017"><ele>1391.0</ele><time>2026-04-23T13:35:31Z</time></trkpt><trkpt lat="41.819884993265475" lon="13.325465714476385"><ele>1390.75</ele><time>2026-04-23T13:35:32Z</time></trkpt><trkpt lat="41.81987800464677" lon="13.32524371265943"><ele>1390.5</ele><time>2026-04-23T13:35:33Z</time></trkpt><trkpt lat="41.81990235863367" lon="13.325085494261106"><ele>1390.25</ele><time>2026-04-23T13:35:34Z</time></trkpt><trkpt lat="41.81996900361955" lon="13.324942153895439"><ele>1390.0</ele><time>2026-04-23T13:35:35Z</time></trkpt><trkpt lat="41.820089586392925" lon="13.32484598061818"><ele>1392.6666666666665</ele><time>2026-04-23T13:35:36Z</time></trkpt><trkpt lat="41.82027210800649" lon="13.32477759665917"><ele>1395.3333333333333</ele><time>2026-04-23T13:35:37Z</time></trkpt><trkpt lat="41.82047891387029" lon="13.324728196621786"><ele>1398.0</ele><time>2026-04-23T13:35:38Z</time></trkpt><trkpt lat="41.820668494750436" lon="13.324657351249364"><ele>1398.0</ele><time>2026-04-23T13:35:39Z</time></trkpt><trkpt lat="41.82081631755492" lon="13.324616975911471"><ele>1398.0</ele><time>2026-04-23T13:35:40Z</time></trkpt><trkpt lat="41.820942855301524" lon="13.324570479223285"><ele>1398.0</ele><time>2026-04-23T13:35:41Z</time></trkpt><trkpt lat="41.82105945704126" lon="13.32451903239677"><ele>1398.0</ele><time>2026-04-23T13:35:42Z</time></trkpt><trkpt lat="41.82117601420332" lon="13.324444065931237"><ele>1403.8000000000002</ele><time>2026-04-23T13:35:43Z</time></trkpt><trkpt lat="41.82126419973348" lon="13.324380061832011"><ele>1409.6</ele><time>2026-04-23T13:35:44Z</time></trkpt><trkpt lat="41.82135744905804" lon="13.324316560953044"><ele>1415.4</ele><time>2026-04-23T13:35:45Z</time></trkpt><trkpt lat="41.82142594146473" lon="13.324249339785208"><ele>1421.1999999999998</ele><time>2026-04-23T13:35:46Z</time></trkpt><trkpt lat="41.82145902326959" lon="13.324134610871631"><ele>1427.0</ele><time>2026-04-23T13:35:47Z</time></trkpt><trkpt lat="41.821476069465945" lon="13.323990168274518"><ele>1424.3333333333335</ele><time>2026-04-23T13:35:47.999Z</time></trkpt><trkpt lat="41.821453599136674" lon="13.323793028789764"><ele>1421.6666666666667</ele><time>2026-04-23T13:35:48.999Z</time></trkpt><trkpt lat="41.821405293887345" lon="13.323550933755877"><ele>1419.0</ele><time>2026-04-23T13:35:49.999Z</time></trkpt><trkpt lat="41.82139768512121" lon="13.32330316411455"><ele>1419.0</ele><time>2026-04-23T13:35:50.999Z</time></trkpt><trkpt lat="41.82140582890813" lon="13.32308781913371"><ele>1419.0</ele><time>2026-04-23T13:35:51.999Z</time></trkpt><trkpt lat="41.82145119154512" lon="13.322859772879035"><ele>1419.0</ele><time>2026-04-23T13:35:52.999Z</time></trkpt><trkpt lat="41.821474036726286" lon="13.322595300912319"><ele>1420.0</ele><time>2026-04-23T13:35:53.999Z</time></trkpt><trkpt lat="41.82144351256018" lon="13.322360390957197"><ele>1421.0</ele><time>2026-04-23T13:35:54.999Z</time></trkpt><trkpt lat="41.82136878670819" lon="13.322124912664234"><ele>1422.0</ele><time>2026-04-23T13:35:55.999Z</time></trkpt><trkpt lat="41.82126269313923" lon="13.321905871558002"><ele>1423.5</ele><time>2026-04-23T13:35:56.999Z</time></trkpt><trkpt lat="41.82116053625175" lon="13.321705115352362"><ele>1425.0</ele><time>2026-04-23T13:35:57.999Z</time></trkpt><trkpt lat="41.82109462658584" lon="13.32155378452469"><ele>1426.5</ele><time>2026-04-23T13:35:58.999Z</time></trkpt><trkpt lat="41.821053740281634" lon="13.321424141074177"><ele>1428.0</ele><time>2026-04-23T13:35:59.999Z</time></trkpt><trkpt lat="41.82104523472253" lon="13.321318193492292"><ele>1428.0</ele><time>2026-04-23T13:36:00.999Z</time></trkpt><trkpt lat="41.821058506942805" lon="13.321221630241732"><ele>1428.0</ele><time>2026-04-23T13:36:01.999Z</time></trkpt><trkpt lat="41.82109968276528" lon="13.321152465895304"><ele>1428.0</ele><time>2026-04-23T13:36:02.999Z</time></trkpt><trkpt lat="41.821180131573385" lon="13.32114698115764"><ele>1428.0</ele><time>2026-04-23T13:36:03.999Z</time></trkpt><trkpt lat="41.821275541781255" lon="13.321248131221092"><ele>1428.0</ele><time>2026-04-23T13:36:04.999Z</time></trkpt><trkpt lat="41.821390428843586" lon="13.321424995517015"><ele>1428.0</ele><time>2026-04-23T13:36:05.999Z</time></trkpt><trkpt lat="41.82149611528481" lon="13.321636697506017"><ele>1428.0</ele><time>2026-04-23T13:36:06.999Z</time></trkpt><trkpt lat="41.82160188065709" lon="13.321833539142666"><ele>1428.0</ele><time>2026-04-23T13:36:07.999Z</time></trkpt><trkpt lat="41.82169399304244" lon="13.322020603939979"><ele>1428.0</ele><time>2026-04-23T13:36:08.999Z</time></trkpt><trkpt lat="41.82177081411201" lon="13.322219001042395"><ele>1428.0</ele><time>2026-04-23T13:36:09.999Z</time></trkpt><trkpt lat="41.82182461505514" lon="13.32242444196185"><ele>1428.0</ele><time>2026-04-23T13:36:10.999Z</time></trkpt><trkpt lat="41.82185508691508" lon="13.322616487791235"><ele>1440.0</ele><time>2026-04-23T13:36:11.999Z</time></trkpt><trkpt lat="41.821858053810566" lon="13.322842948396826"><ele>1452.0</ele><time>2026-04-23T13:36:12.999Z</time></trkpt><trkpt lat="41.82184373293939" lon="13.323081027185948"><ele>1464.0</ele><time>2026-04-23T13:36:13.999Z</time></trkpt><trkpt lat="41.82187137940448" lon="13.323305079003356"><ele>1464.0</ele><time>2026-04-23T13:36:14.999Z</time></trkpt><trkpt lat="41.82193300601995" lon="13.323532490255673"><ele>1464.0</ele><time>2026-04-23T13:36:15.999Z</time></trkpt><trkpt lat="41.82201744741891" lon="13.32379635620115"><ele>1464.0</ele><time>2026-04-23T13:36:16.999Z</time></trkpt><trkpt lat="41.82210716504906" lon="13.324000618455347"><ele>1464.0</ele><time>2026-04-23T13:36:17.999Z</time></trkpt><trkpt lat="41.82215953815978" lon="13.324160803535491"><ele>1464.0</ele><time>2026-04-23T13:36:18.999Z</time></trkpt><trkpt lat="41.82216007756797" lon="13.324310980419257"><ele>1464.0</ele><time>2026-04-23T13:36:19.999Z</time></trkpt><trkpt lat="41.82210808677051" lon="13.324471930447404"><ele>1464.0</ele><time>2026-04-23T13:36:20.999Z</time></trkpt><trkpt lat="41.82200946851556" lon="13.32463282590586"><ele>1459.0</ele><time>2026-04-23T13:36:21.999Z</time></trkpt><trkpt lat="41.82187729794146" lon="13.32478512076479"><ele>1454.0</ele><time>2026-04-23T13:36:22.999Z</time></trkpt><trkpt lat="41.82177957490225" lon="13.324933255811926"><ele>1449.0</ele><time>2026-04-23T13:36:23.999Z</time></trkpt><trkpt lat="41.82167794825124" lon="13.325071248478508"><ele>1449.0</ele><time>2026-04-23T13:36:24.999Z</time></trkpt><trkpt lat="41.821574535037" lon="13.325202005377026"><ele>1449.0</ele><time>2026-04-23T13:36:25.999Z</time></trkpt><trkpt lat="41.82145032918519" lon="13.325314417332319"><ele>1449.0</ele><time>2026-04-23T13:36:26.999Z</time></trkpt><trkpt lat="41.82134444388879" lon="13.325426013557239"><ele>1449.0</ele><time>2026-04-23T13:36:27.999Z</time></trkpt><trkpt lat="41.82124108747161" lon="13.325533900936819"><ele>1453.5</ele><time>2026-04-23T13:36:28.999Z</time></trkpt><trkpt lat="41.8211785491297" lon="13.32563603530282"><ele>1458.0</ele><time>2026-04-23T13:36:29.999Z</time></trkpt><trkpt lat="41.82113197744774" lon="13.325791408758615"><ele>1462.5</ele><time>2026-04-23T13:36:30.999Z</time></trkpt><trkpt lat="41.82113722565179" lon="13.32601781470721"><ele>1467.0</ele><time>2026-04-23T13:36:31.999Z</time></trkpt><trkpt lat="41.821156055882355" lon="13.326231391662082"><ele>1467.0</ele><time>2026-04-23T13:36:32.999Z</time></trkpt><trkpt lat="41.82118645349185" lon="13.326350703308835"><ele>1467.0</ele><time>2026-04-23T13:36:33.999Z</time></trkpt><trkpt lat="41.821205148502195" lon="13.326456447893108"><ele>1467.0</ele><time>2026-04-23T13:36:38Z</time></trkpt><trkpt lat="41.821244294863305" lon="13.326555933323805"><ele>1467.0</ele><time>2026-04-23T13:37:09Z</time></trkpt><trkpt lat="41.82127067035492" lon="13.326649289180942"><ele>1467.0</ele><time>2026-04-23T13:37:15Z</time></trkpt><trkpt lat="41.82129861697777" lon="13.326743548004911"><ele>1467.0</ele><time>2026-04-23T13:37:17Z</time></trkpt><trkpt lat="41.82133942721876" lon="13.326881642473273"><ele>1468.0</ele><time>2026-04-23T13:37:19Z</time></trkpt><trkpt lat="41.821367650285225" lon="13.326970778001657"><ele>1469.0</ele><time>2026-04-23T13:37:20Z</time></trkpt><trkpt lat="41.82139716075889" lon="13.327053882734624"><ele>1470.0</ele><time>2026-04-23T13:37:21Z</time></trkpt><trkpt lat="41.82143933867495" lon="13.32718575191803"><ele>1471.0</ele><time>2026-04-23T13:37:22Z</time></trkpt><trkpt lat="41.821488417640296" lon="13.327314963091583"><ele>1472.0</ele><time>2026-04-23T13:37:23Z</time></trkpt><trkpt lat="41.8215391860841" lon="13.327441223762992"><ele>1472.0</ele><time>2026-04-23T13:37:24Z</time></trkpt><trkpt lat="41.82159074909333" lon="13.32757802424698"><ele>1472.0</ele><time>2026-04-23T13:37:25Z</time></trkpt><trkpt lat="41.82163728961216" lon="13.327735036457241"><ele>1472.0</ele><time>2026-04-23T13:37:26Z</time></trkpt><trkpt lat="41.82167248924791" lon="13.327910507599126"><ele>1472.0</ele><time>2026-04-23T13:37:27Z</time></trkpt><trkpt lat="41.821693907615355" lon="13.328090523331216"><ele>1472.75</ele><time>2026-04-23T13:37:28Z</time></trkpt><trkpt lat="41.821669881219044" lon="13.32824091790019"><ele>1473.5</ele><time>2026-04-23T13:37:29Z</time></trkpt><trkpt lat="41.821612643148235" lon="13.328406021461054"><ele>1474.25</ele><time>2026-04-23T13:37:30Z</time></trkpt><trkpt lat="41.821496908006765" lon="13.328588237404546"><ele>1475.0</ele><time>2026-04-23T13:37:31Z</time></trkpt><trkpt lat="41.82136179371161" lon="13.328787585571455"><ele>1475.75</ele><time>2026-04-23T13:37:32Z</time></trkpt><trkpt lat="41.82124311627934" lon="13.328914495393155"><ele>1476.5</ele><time>2026-04-23T13:37:33Z</time></trkpt><trkpt lat="41.82111224512022" lon="13.328998173511122"><ele>1477.25</ele><time>2026-04-23T13:37:34Z</time></trkpt><trkpt lat="41.8209843186207" lon="13.329034086188727"><ele>1478.0</ele><time>2026-04-23T13:37:35Z</time></trkpt><trkpt lat="41.82086841152971" lon="13.329083549310557"><ele>1476.4</ele><time>2026-04-23T13:37:36Z</time></trkpt><trkpt lat="41.82078748647148" lon="13.329158520794088"><ele>1474.8000000000002</ele><time>2026-04-23T13:37:37Z</time></trkpt><trkpt lat="41.820737157721894" lon="13.329264790305093"><ele>1473.2</ele><time>2026-04-23T13:37:38Z</time></trkpt><trkpt lat="41.820731718488226" lon="13.329385179454185"><ele>1471.6</ele><time>2026-04-23T13:37:39Z</time></trkpt><trkpt lat="41.820760326975844" lon="13.329501153254308"><ele>1470.0</ele><time>2026-04-23T13:37:40Z</time></trkpt><trkpt lat="41.82082537798616" lon="13.329609250089616"><ele>1470.0</ele><time>2026-04-23T13:37:41Z</time></trkpt><trkpt lat="41.82092699505839" lon="13.329677440259788"><ele>1470.0</ele><time>2026-04-23T13:37:42Z</time></trkpt><trkpt lat="41.821052098258114" lon="13.329673686986606"><ele>1470.0</ele><time>2026-04-23T13:37:43Z</time></trkpt><trkpt lat="41.82118442472484" lon="13.329625988119727"><ele>1470.0</ele><time>2026-04-23T13:37:44Z</time></trkpt><trkpt lat="41.82133065437489" lon="13.32956241761621"><ele>1472.6666666666667</ele><time>2026-04-23T13:37:45Z</time></trkpt><trkpt lat="41.821486279529296" lon="13.329506171648212"><ele>1475.3333333333335</ele><time>2026-04-23T13:37:46Z</time></trkpt><trkpt lat="41.82162723399011" lon="13.329448148855523"><ele>1478.0</ele><time>2026-04-23T13:37:47Z</time></trkpt><trkpt lat="41.82175388041412" lon="13.3293516131664"><ele>1484.6666666666667</ele><time>2026-04-23T13:37:48Z</time></trkpt><trkpt lat="41.821866728014754" lon="13.329189548928827"><ele>1491.3333333333333</ele><time>2026-04-23T13:37:49Z</time></trkpt><trkpt lat="41.82195738865205" lon="13.328996398585737"><ele>1498.0</ele><time>2026-04-23T13:37:50Z</time></trkpt><trkpt lat="41.822032335488366" lon="13.328782385230829"><ele>1500.0</ele><time>2026-04-23T13:37:51Z</time></trkpt><trkpt lat="41.82211029335647" lon="13.32855497400223"><ele>1502.0</ele><time>2026-04-23T13:37:52Z</time></trkpt><trkpt lat="41.822190562119516" lon="13.32832609142613"><ele>1504.0</ele><time>2026-04-23T13:37:53Z</time></trkpt><trkpt lat="41.82225407393493" lon="13.328113557994275"><ele>1506.0</ele><time>2026-04-23T13:37:54Z</time></trkpt><trkpt lat="41.82229006881285" lon="13.327885310368696"><ele>1508.0</ele><time>2026-04-23T13:37:55Z</time></trkpt><trkpt lat="41.82229173148218" lon="13.32760975155474"><ele>1510.0</ele><time>2026-04-23T13:37:56Z</time></trkpt><trkpt lat="41.82226992310909" lon="13.327304962090817"><ele>1511.0</ele><time>2026-04-23T13:37:56.999Z</time></trkpt><trkpt lat="41.822251926085784" lon="13.327035372818358"><ele>1512.0</ele><time>2026-04-23T13:37:57.999Z</time></trkpt><trkpt lat="41.82222732033411" lon="13.326830553265097"><ele>1513.0</ele><time>2026-04-23T13:37:58.999Z</time></trkpt><trkpt lat="41.82221570533043" lon="13.326658971107218"><ele>1513.0</ele><time>2026-04-23T13:37:59.999Z</time></trkpt><trkpt lat="41.822232512308" lon="13.326481653890593"><ele>1513.0</ele><time>2026-04-23T13:38:00.999Z</time></trkpt><trkpt lat="41.82228935704979" lon="13.32631092714487"><ele>1513.0</ele><time>2026-04-23T13:38:01.999Z</time></trkpt><trkpt lat="41.822375663162866" lon="13.32617693809436"><ele>1513.0</ele><time>2026-04-23T13:38:02.999Z</time></trkpt><trkpt lat="41.822473564888966" lon="13.326073077087024"><ele>1509.6666666666665</ele><time>2026-04-23T13:38:03.999Z</time></trkpt><trkpt lat="41.82261907996959" lon="13.325934785713404"><ele>1506.3333333333333</ele><time>2026-04-23T13:38:04.999Z</time></trkpt><trkpt lat="41.822753564781216" lon="13.325790081846261"><ele>1503.0</ele><time>2026-04-23T13:38:05.999Z</time></trkpt><trkpt lat="41.822873526214494" lon="13.325656699548007"><ele>1508.0</ele><time>2026-04-23T13:38:06.999Z</time></trkpt><trkpt lat="41.82298559117267" lon="13.325542084027393"><ele>1513.0</ele><time>2026-04-23T13:38:07.999Z</time></trkpt><trkpt lat="41.823106731710396" lon="13.325408224699192"><ele>1518.0</ele><time>2026-04-23T13:38:08.999Z</time></trkpt><trkpt lat="41.823178773256146" lon="13.325312390347229"><ele>1523.0</ele><time>2026-04-23T13:38:09.999Z</time></trkpt><trkpt lat="41.82322947968003" lon="13.325203027153458"><ele>1523.0</ele><time>2026-04-23T13:38:10.999Z</time></trkpt><trkpt lat="41.823303837121166" lon="13.325044582530392"><ele>1523.0</ele><time>2026-04-23T13:38:11.999Z</time></trkpt><trkpt lat="41.823330038318524" lon="13.324831878829832"><ele>1523.0</ele><time>2026-04-23T13:38:12.999Z</time></trkpt><trkpt lat="41.82332826675806" lon="13.324562211620123"><ele>1520.3333333333335</ele><time>2026-04-23T13:38:13.999Z</time></trkpt><trkpt lat="41.82334489919411" lon="13.324285216044778"><ele>1517.6666666666667</ele><time>2026-04-23T13:38:14.999Z</time></trkpt><trkpt lat="41.823354764888656" lon="13.324055712521247"><ele>1515.0</ele><time>2026-04-23T13:38:15.999Z</time></trkpt><trkpt lat="41.82334221854479" lon="13.32385220632811"><ele>1513.6666666666667</ele><time>2026-04-23T13:38:16.999Z</time></trkpt><trkpt lat="41.823363988255835" lon="13.323638963448708"><ele>1512.3333333333335</ele><time>2026-04-23T13:38:17.999Z</time></trkpt><trkpt lat="41.823375206816074" lon="13.323477546922836"><ele>1511.0</ele><time>2026-04-23T13:38:18.999Z</time></trkpt><trkpt lat="41.823448346948794" lon="13.323259608447698"><ele>1516.6666666666667</ele><time>2026-04-23T13:38:19.999Z</time></trkpt><trkpt lat="41.82353768404738" lon="13.323059714569355"><ele>1522.3333333333333</ele><time>2026-04-23T13:38:20.999Z</time></trkpt><trkpt lat="41.82364230774329" lon="13.322908842376224"><ele>1528.0</ele><time>2026-04-23T13:38:21.999Z</time></trkpt><trkpt lat="41.82376941509041" lon="13.32278872409791"><ele>1528.0</ele><time>2026-04-23T13:38:22.999Z</time></trkpt><trkpt lat="41.823915885359526" lon="13.3226951265261"><ele>1528.0</ele><time>2026-04-23T13:38:23.999Z</time></trkpt><trkpt lat="41.82405143214334" lon="13.322576335576962"><ele>1528.0</ele><time>2026-04-23T13:38:24.999Z</time></trkpt><trkpt lat="41.824178337879694" lon="13.32244772678674"><ele>1525.0</ele><time>2026-04-23T13:38:25.999Z</time></trkpt><trkpt lat="41.82432275387947" lon="13.322336857473514"><ele>1522.0</ele><time>2026-04-23T13:38:26.999Z</time></trkpt><trkpt lat="41.82446432388448" lon="13.32224922901622"><ele>1519.0</ele><time>2026-04-23T13:38:27.999Z</time></trkpt><trkpt lat="41.82463442017089" lon="13.322188669485394"><ele>1519.0</ele><time>2026-04-23T13:38:28.999Z</time></trkpt><trkpt lat="41.82481912426616" lon="13.322119398494875"><ele>1519.0</ele><time>2026-04-23T13:38:29.999Z</time></trkpt><trkpt lat="41.8250020026451" lon="13.322052209177295"><ele>1519.0</ele><time>2026-04-23T13:38:30.999Z</time></trkpt><trkpt lat="41.82519199278205" lon="13.321971593506758"><ele>1530.5</ele><time>2026-04-23T13:38:31.999Z</time></trkpt><trkpt lat="41.825403763641106" lon="13.321868679091649"><ele>1542.0</ele><time>2026-04-23T13:38:32.999Z</time></trkpt><trkpt lat="41.82562711301033" lon="13.321778038553397"><ele>1542.0</ele><time>2026-04-23T13:38:33.999Z</time></trkpt><trkpt lat="41.82587551782933" lon="13.321691674775435"><ele>1542.0</ele><time>2026-04-23T13:38:34.999Z</time></trkpt><trkpt lat="41.826136826863234" lon="13.321608396083732"><ele>1535.5</ele><time>2026-04-23T13:38:35.999Z</time></trkpt><trkpt lat="41.82641668656351" lon="13.321510845264005"><ele>1529.0</ele><time>2026-04-23T13:38:36.999Z</time></trkpt><trkpt lat="41.826704480592014" lon="13.321364396844027"><ele>1541.5</ele><time>2026-04-23T13:38:37.999Z</time></trkpt><trkpt lat="41.82701070661877" lon="13.321186533342063"><ele>1554.0</ele><time>2026-04-23T13:38:38.999Z</time></trkpt><trkpt lat="41.8272892017072" lon="13.321023967418762"><ele>1554.0</ele><time>2026-04-23T13:38:39.999Z</time></trkpt><trkpt lat="41.827537350900684" lon="13.320867937474404"><ele>1554.0</ele><time>2026-04-23T13:38:41Z</time></trkpt><trkpt lat="41.82777784534621" lon="13.320672725630196"><ele>1552.5</ele><time>2026-04-23T13:38:42Z</time></trkpt><trkpt lat="41.82799423428296" lon="13.32049442676628"><ele>1551.0</ele><time>2026-04-23T13:38:43Z</time></trkpt><trkpt lat="41.82819168087873" lon="13.320332182366196"><ele>1551.0</ele><time>2026-04-23T13:38:44Z</time></trkpt><trkpt lat="41.828364855623754" lon="13.320204629132068"><ele>1551.0</ele><time>2026-04-23T13:38:45Z</time></trkpt><trkpt lat="41.82852250613071" lon="13.320099682292994"><ele>1551.0</ele><time>2026-04-23T13:38:46Z</time></trkpt><trkpt lat="41.82867294905932" lon="13.320020531107195"><ele>1557.3333333333335</ele><time>2026-04-23T13:38:47Z</time></trkpt><trkpt lat="41.828832919445" lon="13.319991334994342"><ele>1563.6666666666667</ele><time>2026-04-23T13:38:48Z</time></trkpt><trkpt lat="41.82899309947843" lon="13.319928652316797"><ele>1570.0</ele><time>2026-04-23T13:38:49Z</time></trkpt><trkpt lat="41.8291574495951" lon="13.319844543026617"><ele>1571.5</ele><time>2026-04-23T13:38:50Z</time></trkpt><trkpt lat="41.82939357212208" lon="13.319962345689113"><ele>1573.0</ele><time>2026-04-23T13:38:51Z</time></trkpt><trkpt lat="41.82962184096304" lon="13.319981997767764"><ele>1573.0</ele><time>2026-04-23T13:38:52Z</time></trkpt><trkpt lat="41.82986318734909" lon="13.32003020191376"><ele>1573.0</ele><time>2026-04-23T13:38:53Z</time></trkpt><trkpt lat="41.8300550230491" lon="13.320070349993612"><ele>1573.0</ele><time>2026-04-23T13:38:54Z</time></trkpt><trkpt lat="41.83023809676951" lon="13.32017905122968"><ele>1567.3333333333335</ele><time>2026-04-23T13:38:55Z</time></trkpt><trkpt lat="41.83042652416403" lon="13.320256518259512"><ele>1561.6666666666665</ele><time>2026-04-23T13:38:56Z</time></trkpt><trkpt lat="41.830588924261484" lon="13.320347109662281"><ele>1556.0</ele><time>2026-04-23T13:38:57Z</time></trkpt><trkpt lat="41.83072375427437" lon="13.320435130949845"><ele>1556.0</ele><time>2026-04-23T13:38:58Z</time></trkpt><trkpt lat="41.83082969484544" lon="13.320527856945215"><ele>1556.0</ele><time>2026-04-23T13:38:59Z</time></trkpt><trkpt lat="41.830896856781315" lon="13.320667678936962"><ele>1556.0</ele><time>2026-04-23T13:39:00Z</time></trkpt><trkpt lat="41.83094187165607" lon="13.320851455668157"><ele>1556.0</ele><time>2026-04-23T13:39:01Z</time></trkpt><trkpt lat="41.830951159201256" lon="13.321073894511485"><ele>1569.0</ele><time>2026-04-23T13:39:02Z</time></trkpt><trkpt lat="41.83096532358862" lon="13.321328303778673"><ele>1582.0</ele><time>2026-04-23T13:39:03Z</time></trkpt><trkpt lat="41.830969603409585" lon="13.321519669958022"><ele>1595.0</ele><time>2026-04-23T13:39:04Z</time></trkpt><trkpt lat="41.83095719587991" lon="13.321748499872353"><ele>1597.6666666666665</ele><time>2026-04-23T13:39:05Z</time></trkpt><trkpt lat="41.83091216685649" lon="13.32199514522304"><ele>1600.3333333333335</ele><time>2026-04-23T13:39:06Z</time></trkpt><trkpt lat="41.83090731496401" lon="13.322217537820688"><ele>1603.0</ele><time>2026-04-23T13:39:07Z</time></trkpt><trkpt lat="41.830899112253334" lon="13.322402343142336"><ele>1603.8000000000002</ele><time>2026-04-23T13:39:08Z</time></trkpt><trkpt lat="41.83087254696278" lon="13.322583922631367"><ele>1604.6</ele><time>2026-04-23T13:39:09Z</time></trkpt><trkpt lat="41.83084700506153" lon="13.322735622087123"><ele>1605.4</ele><time>2026-04-23T13:39:10Z</time></trkpt><trkpt lat="41.83084139161214" lon="13.32286018268911"><ele>1606.1999999999998</ele><time>2026-04-23T13:39:11Z</time></trkpt><trkpt lat="41.83087407133411" lon="13.322983948651586"><ele>1607.0</ele><time>2026-04-23T13:39:12Z</time></trkpt><trkpt lat="41.83093011881925" lon="13.323102423549432"><ele>1608.25</ele><time>2026-04-23T13:39:13Z</time></trkpt><trkpt lat="41.83098730900923" lon="13.32327658677941"><ele>1609.5</ele><time>2026-04-23T13:39:14Z</time></trkpt><trkpt lat="41.83110533079221" lon="13.323346374256744"><ele>1610.75</ele><time>2026-04-23T13:39:15Z</time></trkpt><trkpt lat="41.83125752092506" lon="13.3233500634534"><ele>1612.0</ele><time>2026-04-23T13:39:16Z</time></trkpt><trkpt lat="41.83142326951322" lon="13.32334515363683"><ele>1612.0</ele><time>2026-04-23T13:39:17Z</time></trkpt><trkpt lat="41.83159725130839" lon="13.323330957181028"><ele>1612.0</ele><time>2026-04-23T13:39:18Z</time></trkpt><trkpt lat="41.83177314186447" lon="13.323310738745473"><ele>1612.0</ele><time>2026-04-23T13:39:19Z</time></trkpt><trkpt lat="41.831924835759935" lon="13.323266808844313"><ele>1616.6666666666667</ele><time>2026-04-23T13:39:20Z</time></trkpt><trkpt lat="41.83206644232513" lon="13.323198345435683"><ele>1621.3333333333335</ele><time>2026-04-23T13:39:21Z</time></trkpt><trkpt lat="41.83222088319501" lon="13.32309906733526"><ele>1626.0</ele><time>2026-04-23T13:39:22Z</time></trkpt><trkpt lat="41.832345149466256" lon="13.323001231931537"><ele>1623.1999999999998</ele><time>2026-04-23T13:39:23Z</time></trkpt><trkpt lat="41.8324687167915" lon="13.32291107514234"><ele>1620.3999999999999</ele><time>2026-04-23T13:39:24Z</time></trkpt><trkpt lat="41.832553562633684" lon="13.322861174933294"><ele>1617.6</ele><time>2026-04-23T13:39:25Z</time></trkpt><trkpt lat="41.83263482968035" lon="13.322912822103167"><ele>1614.8</ele><time>2026-04-23T13:39:26Z</time></trkpt><trkpt lat="41.83271793164358" lon="13.323005721878301"><ele>1612.0</ele><time>2026-04-23T13:39:27Z</time></trkpt><trkpt lat="41.83279797820019" lon="13.32314864095202"><ele>1612.0</ele><time>2026-04-23T13:39:28Z</time></trkpt><trkpt lat="41.83290849271093" lon="13.323299903965374"><ele>1612.0</ele><time>2026-04-23T13:39:29Z</time></trkpt><trkpt lat="41.83300420748239" lon="13.323425979624936"><ele>1612.0</ele><time>2026-04-23T13:39:30Z</time></trkpt><trkpt lat="41.833082057250635" lon="13.323553469974552"><ele>1612.0</ele><time>2026-04-23T13:39:31Z</time></trkpt><trkpt lat="41.833155393491765" lon="13.323658325113987"><ele>1612.0</ele><time>2026-04-23T13:39:32Z</time></trkpt><trkpt lat="41.83327076397866" lon="13.323740264051848"><ele>1612.0</ele><time>2026-04-23T13:39:33Z</time></trkpt><trkpt lat="41.833409676737894" lon="13.323815902607084"><ele>1612.0</ele><time>2026-04-23T13:39:34Z</time></trkpt><trkpt lat="41.83354971989386" lon="13.323863397997215"><ele>1612.0</ele><time>2026-04-23T13:39:35Z</time></trkpt><trkpt lat="41.833660626358515" lon="13.323931316501469"><ele>1611.5</ele><time>2026-04-23T13:39:36Z</time></trkpt><trkpt lat="41.833782809537375" lon="13.323945506919417"><ele>1611.0</ele><time>2026-04-23T13:39:37Z</time></trkpt><trkpt lat="41.833931767758045" lon="13.323910009767594"><ele>1610.5</ele><time>2026-04-23T13:39:38Z</time></trkpt><trkpt lat="41.834092178186" lon="13.323887444791294"><ele>1610.0</ele><time>2026-04-23T13:39:39Z</time></trkpt><trkpt lat="41.834250237050384" lon="13.323850890448274"><ele>1613.0</ele><time>2026-04-23T13:39:40Z</time></trkpt><trkpt lat="41.834410842047525" lon="13.323828860167996"><ele>1616.0</ele><time>2026-04-23T13:39:41Z</time></trkpt><trkpt lat="41.83455394998901" lon="13.32380547180221"><ele>1619.0</ele><time>2026-04-23T13:39:42Z</time></trkpt><trkpt lat="41.83471474413063" lon="13.32378296520052"><ele>1619.0</ele><time>2026-04-23T13:39:43Z</time></trkpt><trkpt lat="41.834889144583364" lon="13.323720529929968"><ele>1619.0</ele><time>2026-04-23T13:39:44Z</time></trkpt><trkpt lat="41.83504532314757" lon="13.323669318192243"><ele>1619.0</ele><time>2026-04-23T13:39:45Z</time></trkpt><trkpt lat="41.835148417516436" lon="13.32364026220663"><ele>1619.0</ele><time>2026-04-23T13:39:46Z</time></trkpt><trkpt lat="41.83524639404101" lon="13.323594402875138"><ele>1618.8000000000002</ele><time>2026-04-23T13:39:47Z</time></trkpt><trkpt lat="41.83532481248997" lon="13.323615082008324"><ele>1618.6000000000001</ele><time>2026-04-23T13:39:48Z</time></trkpt><trkpt lat="41.83539058572532" lon="13.323701045578366"><ele>1618.4</ele><time>2026-04-23T13:39:49Z</time></trkpt><trkpt lat="41.8354067260153" lon="13.323825523037945"><ele>1618.2</ele><time>2026-04-23T13:39:50Z</time></trkpt><trkpt lat="41.83537540258213" lon="13.323949309943417"><ele>1618.0</ele><time>2026-04-23T13:39:51Z</time></trkpt><trkpt lat="41.83532782003486" lon="13.324058462203258"><ele>1618.0</ele><time>2026-04-23T13:39:52Z</time></trkpt><trkpt lat="41.83518112023478" lon="13.324012328973716"><ele>1618.0</ele><time>2026-04-23T13:39:54Z</time></trkpt><trkpt lat="41.83490132163275" lon="13.324061870234083"><ele>1618.0</ele><time>2026-04-23T13:39:55Z</time></trkpt><trkpt lat="41.83469499406747" lon="13.324109142210157"><ele>1625.0</ele><time>2026-04-23T13:39:56Z</time></trkpt><trkpt lat="41.8345069935621" lon="13.324161454716059"><ele>1632.0</ele><time>2026-04-23T13:39:57Z</time></trkpt><trkpt lat="41.834315063318854" lon="13.324232630189274"><ele>1639.0</ele><time>2026-04-23T13:39:58Z</time></trkpt><trkpt lat="41.83411314364638" lon="13.32431960911908"><ele>1639.0</ele><time>2026-04-23T13:39:59Z</time></trkpt><trkpt lat="41.83391804459597" lon="13.32440749592225"><ele>1639.0</ele><time>2026-04-23T13:39:59.999Z</time></trkpt><trkpt lat="41.83372801808563" lon="13.324500915341547"><ele>1639.0</ele><time>2026-04-23T13:40:00.999Z</time></trkpt><trkpt lat="41.83354812746963" lon="13.324567714538011"><ele>1640.0</ele><time>2026-04-23T13:40:01.999Z</time></trkpt><trkpt lat="41.83339794692193" lon="13.324542107178722"><ele>1641.0</ele><time>2026-04-23T13:40:02.999Z</time></trkpt><trkpt lat="41.83326464055286" lon="13.324471088355212"><ele>1642.0</ele><time>2026-04-23T13:40:03.999Z</time></trkpt><trkpt lat="41.83311848811411" lon="13.324428170378692"><ele>1643.0</ele><time>2026-04-23T13:40:04.999Z</time></trkpt><trkpt lat="41.83296548801708" lon="13.32439183765338"><ele>1643.0</ele><time>2026-04-23T13:40:05.999Z</time></trkpt><trkpt lat="41.832817155018695" lon="13.324312419039634"><ele>1643.0</ele><time>2026-04-23T13:40:06.999Z</time></trkpt><trkpt lat="41.83267770973788" lon="13.324159240681453"><ele>1643.0</ele><time>2026-04-23T13:40:07.999Z</time></trkpt><trkpt lat="41.83255774361807" lon="13.324038812334095"><ele>1646.25</ele><time>2026-04-23T13:40:08.999Z</time></trkpt><trkpt lat="41.832451014101444" lon="13.32397969179948"><ele>1649.5</ele><time>2026-04-23T13:40:09.999Z</time></trkpt><trkpt lat="41.83234111432755" lon="13.324002214023528"><ele>1652.75</ele><time>2026-04-23T13:40:10.999Z</time></trkpt><trkpt lat="41.83220073825157" lon="13.324041586818176"><ele>1656.0</ele><time>2026-04-23T13:40:11.999Z</time></trkpt><trkpt lat="41.83205992742943" lon="13.324106515069564"><ele>1656.0</ele><time>2026-04-23T13:40:12.999Z</time></trkpt><trkpt lat="41.83187710837516" lon="13.324193058822559"><ele>1656.0</ele><time>2026-04-23T13:40:13.999Z</time></trkpt><trkpt lat="41.8316553851581" lon="13.324403352675311"><ele>1655.0</ele><time>2026-04-23T13:40:14.999Z</time></trkpt><trkpt lat="41.83147521900028" lon="13.324533596194422"><ele>1654.0</ele><time>2026-04-23T13:40:15.999Z</time></trkpt><trkpt lat="41.83126763157181" lon="13.324628846511539"><ele>1653.0</ele><time>2026-04-23T13:40:16.999Z</time></trkpt><trkpt lat="41.831058904657155" lon="13.32469312050023"><ele>1663.0</ele><time>2026-04-23T13:40:17.999Z</time></trkpt><trkpt lat="41.83084790025005" lon="13.324751750053851"><ele>1673.0</ele><time>2026-04-23T13:40:18.999Z</time></trkpt><trkpt lat="41.83062268382847" lon="13.324856438648327"><ele>1673.0</ele><time>2026-04-23T13:40:19.999Z</time></trkpt><trkpt lat="41.830435760266376" lon="13.324972379705647"><ele>1673.0</ele><time>2026-04-23T13:40:20.999Z</time></trkpt><trkpt lat="41.83027186742417" lon="13.325078962085406"><ele>1673.0</ele><time>2026-04-23T13:40:21.999Z</time></trkpt><trkpt lat="41.83011037250471" lon="13.325147204633053"><ele>1673.25</ele><time>2026-04-23T13:40:22.999Z</time></trkpt><trkpt lat="41.82995903974517" lon="13.325159957282212"><ele>1673.5</ele><time>2026-04-23T13:40:23.999Z</time></trkpt><trkpt lat="41.82982854216441" lon="13.325149817929049"><ele>1673.75</ele><time>2026-04-23T13:40:24.999Z</time></trkpt><trkpt lat="41.82971969797388" lon="13.325099341954735"><ele>1674.0</ele><time>2026-04-23T13:40:25.999Z</time></trkpt><trkpt lat="41.82964395147764" lon="13.324985025685864"><ele>1674.0</ele><time>2026-04-23T13:40:26.999Z</time></trkpt><trkpt lat="41.829597002327816" lon="13.324807036251526"><ele>1674.0</ele><time>2026-04-23T13:40:27.999Z</time></trkpt><trkpt lat="41.82957081246218" lon="13.324576821202129"><ele>1674.0</ele><time>2026-04-23T13:40:28.999Z</time></trkpt><trkpt lat="41.82954755251646" lon="13.324316753925851"><ele>1669.6666666666665</ele><time>2026-04-23T13:40:29.999Z</time></trkpt><trkpt lat="41.82952054664597" lon="13.32404529242711"><ele>1665.3333333333333</ele><time>2026-04-23T13:40:30.999Z</time></trkpt><trkpt lat="41.82949058901414" lon="13.323817966918382"><ele>1661.0</ele><time>2026-04-23T13:40:31.999Z</time></trkpt><trkpt lat="41.82946614394706" lon="13.323581453285927"><ele>1660.0</ele><time>2026-04-23T13:40:32.999Z</time></trkpt><trkpt lat="41.82941782409781" lon="13.323377264539138"><ele>1659.0</ele><time>2026-04-23T13:40:33.999Z</time></trkpt><trkpt lat="41.82935965973783" lon="13.323200461116576"><ele>1658.0</ele><time>2026-04-23T13:40:34.999Z</time></trkpt><trkpt lat="41.829302534882025" lon="13.323066222818946"><ele>1657.0</ele><time>2026-04-23T13:40:35.999Z</time></trkpt><trkpt lat="41.829231598227075" lon="13.32297922322511"><ele>1660.75</ele><time>2026-04-23T13:40:36.999Z</time></trkpt><trkpt lat="41.82913297973711" lon="13.322938480638149"><ele>1664.5</ele><time>2026-04-23T13:40:37.999Z</time></trkpt><trkpt lat="41.82900741652602" lon="13.322947015390875"><ele>1668.25</ele><time>2026-04-23T13:40:38.999Z</time></trkpt><trkpt lat="41.82887133469181" lon="13.32300732837459"><ele>1672.0</ele><time>2026-04-23T13:40:39.999Z</time></trkpt><trkpt lat="41.828742034327774" lon="13.323088104076202"><ele>1676.3333333333335</ele><time>2026-04-23T13:40:40.999Z</time></trkpt><trkpt lat="41.82863095173333" lon="13.323202588966705"><ele>1680.6666666666665</ele><time>2026-04-23T13:40:41.999Z</time></trkpt><trkpt lat="41.82853758056129" lon="13.323374002721103"><ele>1685.0</ele><time>2026-04-23T13:40:42.999Z</time></trkpt><trkpt lat="41.82844015863766" lon="13.323543081069076"><ele>1685.0</ele><time>2026-04-23T13:40:43.999Z</time></trkpt><trkpt lat="41.828332096802804" lon="13.32361605176306"><ele>1685.0</ele><time>2026-04-23T13:40:44.999Z</time></trkpt><trkpt lat="41.82817914635116" lon="13.32361077674484"><ele>1685.0</ele><time>2026-04-23T13:40:45.999Z</time></trkpt><trkpt lat="41.828033302232605" lon="13.323600468112023"><ele>1685.0</ele><time>2026-04-23T13:40:47Z</time></trkpt><trkpt lat="41.82792643457071" lon="13.323640740043512"><ele>1685.0</ele><time>2026-04-23T13:40:48Z</time></trkpt><trkpt lat="41.82779837934303" lon="13.3237168495054"><ele>1685.0</ele><time>2026-04-23T13:40:49Z</time></trkpt><trkpt lat="41.8276861131541" lon="13.32385910564417"><ele>1685.0</ele><time>2026-04-23T13:40:50Z</time></trkpt><trkpt lat="41.8275528693995" lon="13.324026992197375"><ele>1691.6666666666665</ele><time>2026-04-23T13:40:51Z</time></trkpt><trkpt lat="41.8274027779896" lon="13.32416969760978"><ele>1698.3333333333335</ele><time>2026-04-23T13:40:52Z</time></trkpt><trkpt lat="41.82721728988758" lon="13.324302187567776"><ele>1705.0</ele><time>2026-04-23T13:40:53Z</time></trkpt><trkpt lat="41.82701918091005" lon="13.324400551378558"><ele>1705.0</ele><time>2026-04-23T13:40:54Z</time></trkpt><trkpt lat="41.82681844790157" lon="13.324479237758243"><ele>1705.0</ele><time>2026-04-23T13:40:55Z</time></trkpt><trkpt lat="41.82662832151752" lon="13.32453666736191"><ele>1705.0</ele><time>2026-04-23T13:40:56Z</time></trkpt><trkpt lat="41.82643373163635" lon="13.324635721685027"><ele>1702.3333333333335</ele><time>2026-04-23T13:40:57Z</time></trkpt><trkpt lat="41.82625447813811" lon="13.324746341414206"><ele>1699.6666666666665</ele><time>2026-04-23T13:40:58Z</time></trkpt><trkpt lat="41.82609940657065" lon="13.324836355549738"><ele>1697.0</ele><time>2026-04-23T13:40:59Z</time></trkpt><trkpt lat="41.825962907983865" lon="13.324934635203546"><ele>1697.0</ele><time>2026-04-23T13:41:00Z</time></trkpt><trkpt lat="41.825869782299335" lon="13.325074168481889"><ele>1697.0</ele><time>2026-04-23T13:41:01Z</time></trkpt><trkpt lat="41.825799177206854" lon="13.325248562754036"><ele>1697.0</ele><time>2026-04-23T13:41:02Z</time></trkpt><trkpt lat="41.82576128910911" lon="13.325447622992721"><ele>1697.0</ele><time>2026-04-23T13:41:03Z</time></trkpt><trkpt lat="41.82575523167409" lon="13.325681576897697"><ele>1702.0</ele><time>2026-04-23T13:41:04Z</time></trkpt><trkpt lat="41.82575771595138" lon="13.325934390722004"><ele>1707.0</ele><time>2026-04-23T13:41:05Z</time></trkpt><trkpt lat="41.82575802065696" lon="13.326155592621244"><ele>1712.0</ele><time>2026-04-23T13:41:06Z</time></trkpt><trkpt lat="41.82579265282232" lon="13.32637530293071"><ele>1712.6666666666665</ele><time>2026-04-23T13:41:07Z</time></trkpt><trkpt lat="41.82587448290402" lon="13.326621012518755"><ele>1713.3333333333335</ele><time>2026-04-23T13:41:08Z</time></trkpt><trkpt lat="41.825956058159214" lon="13.326851781230893"><ele>1714.0</ele><time>2026-04-23T13:41:09Z</time></trkpt><trkpt lat="41.826041368002116" lon="13.327054122480657"><ele>1722.3333333333335</ele><time>2026-04-23T13:41:10Z</time></trkpt><trkpt lat="41.82617542113943" lon="13.327249490600817"><ele>1730.6666666666665</ele><time>2026-04-23T13:41:11Z</time></trkpt><trkpt lat="41.82634122883909" lon="13.327457222074177"><ele>1739.0</ele><time>2026-04-23T13:41:12Z</time></trkpt><trkpt lat="41.82651788791916" lon="13.327694382915805"><ele>1739.0</ele><time>2026-04-23T13:41:13Z</time></trkpt><trkpt lat="41.8267258716008" lon="13.327942614616642"><ele>1739.0</ele><time>2026-04-23T13:41:14Z</time></trkpt><trkpt lat="41.82690535244865" lon="13.328142920210674"><ele>1745.0</ele><time>2026-04-23T13:41:15Z</time></trkpt><trkpt lat="41.82704310276528" lon="13.328348400451631"><ele>1751.0</ele><time>2026-04-23T13:41:16Z</time></trkpt><trkpt lat="41.82715381949471" lon="13.328555786714045"><ele>1757.0</ele><time>2026-04-23T13:41:17Z</time></trkpt><trkpt lat="41.827257388930484" lon="13.328829700292017"><ele>1746.5</ele><time>2026-04-23T13:41:18Z</time></trkpt><trkpt lat="41.82737486298042" lon="13.329115777106324"><ele>1736.0</ele><time>2026-04-23T13:41:19Z</time></trkpt><trkpt lat="41.82748838104718" lon="13.329405337405289"><ele>1746.5</ele><time>2026-04-23T13:41:20Z</time></trkpt><trkpt lat="41.82765518562778" lon="13.329672925906658"><ele>1757.0</ele><time>2026-04-23T13:41:21Z</time></trkpt><trkpt lat="41.827805017631896" lon="13.32993899742708"><ele>1757.0</ele><time>2026-04-23T13:41:22Z</time></trkpt><trkpt lat="41.82791735116332" lon="13.330152751154253"><ele>1757.0</ele><time>2026-04-23T13:41:23Z</time></trkpt><trkpt lat="41.828007388071484" lon="13.330319605359573"><ele>1757.0</ele><time>2026-04-23T13:41:24Z</time></trkpt><trkpt lat="41.82810560701768" lon="13.330462484471543"><ele>1757.3333333333333</ele><time>2026-04-23T13:41:25Z</time></trkpt><trkpt lat="41.828230101359715" lon="13.330587618966502"><ele>1757.6666666666665</ele><time>2026-04-23T13:41:26Z</time></trkpt><trkpt lat="41.82839727291867" lon="13.330687189341289"><ele>1758.0</ele><time>2026-04-23T13:41:27Z</time></trkpt><trkpt lat="41.82858131239656" lon="13.330785536192774"><ele>1758.0</ele><time>2026-04-23T13:41:28Z</time></trkpt><trkpt lat="41.82874383514587" lon="13.330895746728595"><ele>1758.0</ele><time>2026-04-23T13:41:29Z</time></trkpt><trkpt lat="41.82887562634598" lon="13.331002607036613"><ele>1758.0</ele><time>2026-04-23T13:41:30Z</time></trkpt><trkpt lat="41.82901828535993" lon="13.331102432483592"><ele>1758.0</ele><time>2026-04-23T13:41:31Z</time></trkpt><trkpt lat="41.829245450035174" lon="13.331051124050857"><ele>1758.0</ele><time>2026-04-23T13:41:32Z</time></trkpt><trkpt lat="41.829432658593376" lon="13.331130595313544"><ele>1758.0</ele><time>2026-04-23T13:41:33Z</time></trkpt><trkpt lat="41.82962125246792" lon="13.331277729828898"><ele>1755.5</ele><time>2026-04-23T13:41:34Z</time></trkpt><trkpt lat="41.82982402414875" lon="13.331442838476741"><ele>1753.0</ele><time>2026-04-23T13:41:35Z</time></trkpt><trkpt lat="41.830007563134984" lon="13.331614946837133"><ele>1766.0</ele><time>2026-04-23T13:41:36Z</time></trkpt><trkpt lat="41.83018852904845" lon="13.33179948199735"><ele>1779.0</ele><time>2026-04-23T13:41:37Z</time></trkpt><trkpt lat="41.83035918632474" lon="13.331997732647844"><ele>1779.0</ele><time>2026-04-23T13:41:38Z</time></trkpt><trkpt lat="41.830503445931974" lon="13.332209664517055"><ele>1779.0</ele><time>2026-04-23T13:41:39Z</time></trkpt><trkpt lat="41.83060411335805" lon="13.332414629757796"><ele>1779.0</ele><time>2026-04-23T13:41:40Z</time></trkpt><trkpt lat="41.83067304345693" lon="13.332633498878717"><ele>1775.6666666666665</ele><time>2026-04-23T13:41:41Z</time></trkpt><trkpt lat="41.830694792545984" lon="13.332893894324762"><ele>1772.3333333333333</ele><time>2026-04-23T13:41:42Z</time></trkpt><trkpt lat="41.8307173236007" lon="13.333162647235765"><ele>1769.0</ele><time>2026-04-23T13:41:43Z</time></trkpt><trkpt lat="41.83074984340073" lon="13.333389752055844"><ele>1770.3333333333333</ele><time>2026-04-23T13:41:44Z</time></trkpt><trkpt lat="41.8308091573391" lon="13.333591714257993"><ele>1771.6666666666665</ele><time>2026-04-23T13:41:45Z</time></trkpt><trkpt lat="41.83090903345361" lon="13.333769613057571"><ele>1773.0</ele><time>2026-04-23T13:41:46Z</time></trkpt><trkpt lat="41.83104879561612" lon="13.333907279480059"><ele>1773.0</ele><time>2026-04-23T13:41:47Z</time></trkpt><trkpt lat="41.831176491064085" lon="13.334040281503844"><ele>1773.0</ele><time>2026-04-23T13:41:48Z</time></trkpt><trkpt lat="41.831255464448354" lon="13.334220788027745"><ele>1773.0</ele><time>2026-04-23T13:41:49Z</time></trkpt><trkpt lat="41.83129669605783" lon="13.334471914410605"><ele>1774.3333333333335</ele><time>2026-04-23T13:41:50Z</time></trkpt><trkpt lat="41.83132049911631" lon="13.33475938413648"><ele>1775.6666666666667</ele><time>2026-04-23T13:41:51Z</time></trkpt><trkpt lat="41.83136988192674" lon="13.335048531020197"><ele>1777.0</ele><time>2026-04-23T13:41:52Z</time></trkpt><trkpt lat="41.83146201612286" lon="13.33531703398251"><ele>1774.5</ele><time>2026-04-23T13:41:53Z</time></trkpt><trkpt lat="41.83159304397375" lon="13.33558066736493"><ele>1772.0</ele><time>2026-04-23T13:41:54Z</time></trkpt><trkpt lat="41.83173249630547" lon="13.335839934407934"><ele>1778.0</ele><time>2026-04-23T13:41:55Z</time></trkpt><trkpt lat="41.83187478284335" lon="13.33608460514308"><ele>1784.0</ele><time>2026-04-23T13:41:56Z</time></trkpt><trkpt lat="41.832027046691074" lon="13.33630419386878"><ele>1782.6666666666665</ele><time>2026-04-23T13:41:57Z</time></trkpt><trkpt lat="41.832202674462856" lon="13.336480292127957"><ele>1781.3333333333335</ele><time>2026-04-23T13:41:58Z</time></trkpt><trkpt lat="41.83238488454207" lon="13.33661760955149"><ele>1780.0</ele><time>2026-04-23T13:41:59Z</time></trkpt><trkpt lat="41.832550844135135" lon="13.336715521518991"><ele>1782.5</ele><time>2026-04-23T13:42:00Z</time></trkpt><trkpt lat="41.83271040766084" lon="13.336781828618628"><ele>1785.0</ele><time>2026-04-23T13:42:01Z</time></trkpt><trkpt lat="41.832848790889585" lon="13.336834432716083"><ele>1787.5</ele><time>2026-04-23T13:42:02Z</time></trkpt><trkpt lat="41.83296664242411" lon="13.336848391723189"><ele>1790.0</ele><time>2026-04-23T13:42:02.999Z</time></trkpt><trkpt lat="41.833078168777284" lon="13.336814903077354"><ele>1790.0</ele><time>2026-04-23T13:42:03.999Z</time></trkpt><trkpt lat="41.83319045061899" lon="13.33676636947695"><ele>1790.0</ele><time>2026-04-23T13:42:04.999Z</time></trkpt><trkpt lat="41.83330039672658" lon="13.336753016019625"><ele>1790.0</ele><time>2026-04-23T13:42:05.999Z</time></trkpt><trkpt lat="41.833415805024835" lon="13.33675112542829"><ele>1790.0</ele><time>2026-04-23T13:42:06.999Z</time></trkpt><trkpt lat="41.83352818635727" lon="13.33674305534427"><ele>1791.2</ele><time>2026-04-23T13:42:07.999Z</time></trkpt><trkpt lat="41.83362026538969" lon="13.33674451732618"><ele>1792.4</ele><time>2026-04-23T13:42:08.999Z</time></trkpt><trkpt lat="41.83371072598698" lon="13.33673699880706"><ele>1793.6</ele><time>2026-04-23T13:42:09.999Z</time></trkpt><trkpt lat="41.83377446531234" lon="13.336793823513531"><ele>1794.8</ele><time>2026-04-23T13:42:10.999Z</time></trkpt><trkpt lat="41.83385372132685" lon="13.33685536890026"><ele>1796.0</ele><time>2026-04-23T13:42:11.999Z</time></trkpt><trkpt lat="41.83394739293427" lon="13.336905246166431"><ele>1796.0</ele><time>2026-04-23T13:42:12.999Z</time></trkpt><trkpt lat="41.83404207251696" lon="13.33692028887576"><ele>1796.0</ele><time>2026-04-23T13:42:13.999Z</time></trkpt><trkpt lat="41.83412225728197" lon="13.33692288032442"><ele>1796.0</ele><time>2026-04-23T13:42:14.999Z</time></trkpt><trkpt lat="41.8341890266145" lon="13.3369210187357"><ele>1796.0</ele><time>2026-04-23T13:42:15.999Z</time></trkpt><trkpt lat="41.83430619363428" lon="13.336918311950148"><ele>1796.0</ele><time>2026-04-23T13:42:17.999Z</time></trkpt><trkpt lat="41.83441365570091" lon="13.336938144727695"><ele>1796.8333333333333</ele><time>2026-04-23T13:42:19.999Z</time></trkpt><trkpt lat="41.83447689222187" lon="13.336958992721826"><ele>1797.6666666666665</ele><time>2026-04-23T13:42:20.999Z</time></trkpt><trkpt lat="41.8345404435195" lon="13.336995711085867"><ele>1798.5</ele><time>2026-04-23T13:42:21.999Z</time></trkpt><trkpt lat="41.834608861085016" lon="13.337034382662441"><ele>1799.3333333333335</ele><time>2026-04-23T13:42:22.999Z</time></trkpt><trkpt lat="41.834683499415185" lon="13.337079093769027"><ele>1800.1666666666667</ele><time>2026-04-23T13:42:23.999Z</time></trkpt><trkpt lat="41.8347564276973" lon="13.337133398482418"><ele>1801.0</ele><time>2026-04-23T13:42:24.999Z</time></trkpt><trkpt lat="41.834833724137894" lon="13.337196968208234"><ele>1800.4</ele><time>2026-04-23T13:42:25.999Z</time></trkpt><trkpt lat="41.83491504242375" lon="13.337246215122674"><ele>1799.8</ele><time>2026-04-23T13:42:26.999Z</time></trkpt><trkpt lat="41.834984754595645" lon="13.337311541020716"><ele>1799.2000000000003</ele><time>2026-04-23T13:42:27.999Z</time></trkpt><trkpt lat="41.835052616374405" lon="13.337357483024652"><ele>1798.6000000000001</ele><time>2026-04-23T13:42:28.999Z</time></trkpt><trkpt lat="41.83516339404485" lon="13.337398628101706"><ele>1798.0</ele><time>2026-04-23T13:42:30.999Z</time></trkpt><trkpt lat="41.83523811568283" lon="13.337457571536545"><ele>1796.6666666666667</ele><time>2026-04-23T13:42:32.999Z</time></trkpt><trkpt lat="41.835306911737426" lon="13.337488446017757"><ele>1795.3333333333335</ele><time>2026-04-23T13:42:34.999Z</time></trkpt><trkpt lat="41.83537670503222" lon="13.337527926895074"><ele>1794.0</ele><time>2026-04-23T13:42:37.999Z</time></trkpt><trkpt lat="41.8354589102532" lon="13.33750566658853"><ele>1792.6666666666665</ele><time>2026-04-23T13:42:40.999Z</time></trkpt><trkpt lat="41.835491690660824" lon="13.337394131184038"><ele>1791.3333333333333</ele><time>2026-04-23T13:43:07Z</time></trkpt><trkpt lat="41.83544394088158" lon="13.33729657800313"><ele>1790.0</ele><time>2026-04-23T13:43:09Z</time></trkpt><trkpt lat="41.83533995238161" lon="13.337225370389291"><ele>1791.3333333333333</ele><time>2026-04-23T13:43:11Z</time></trkpt><trkpt lat="41.83524642353842" lon="13.337143213731238"><ele>1792.6666666666665</ele><time>2026-04-23T13:43:13Z</time></trkpt><trkpt lat="41.83518702121675" lon="13.337099267872345"><ele>1794.0</ele><time>2026-04-23T13:43:14Z</time></trkpt><trkpt lat="41.83511275814621" lon="13.337061833363313"><ele>1795.3333333333335</ele><time>2026-04-23T13:43:15Z</time></trkpt><trkpt lat="41.835025218777915" lon="13.337038677630494"><ele>1796.6666666666667</ele><time>2026-04-23T13:43:16Z</time></trkpt><trkpt lat="41.83492720562731" lon="13.337023562096977"><ele>1798.0</ele><time>2026-04-23T13:43:17Z</time></trkpt><trkpt lat="41.83482342160295" lon="13.337008758919728"><ele>1798.6000000000001</ele><time>2026-04-23T13:43:18Z</time></trkpt><trkpt lat="41.83471572945896" lon="13.33699152030636"><ele>1799.2000000000003</ele><time>2026-04-23T13:43:19Z</time></trkpt><trkpt lat="41.834610371665704" lon="13.336982301370385"><ele>1799.8</ele><time>2026-04-23T13:43:20Z</time></trkpt><trkpt lat="41.8345233226119" lon="13.33697086032039"><ele>1800.4</ele><time>2026-04-23T13:43:21Z</time></trkpt><trkpt lat="41.83444453326635" lon="13.336944829196769"><ele>1801.0</ele><time>2026-04-23T13:43:22Z</time></trkpt><trkpt lat="41.834353604300354" lon="13.336917097121288"><ele>1800.0</ele><time>2026-04-23T13:43:23Z</time></trkpt><trkpt lat="41.83424671941873" lon="13.336899417882563"><ele>1799.0</ele><time>2026-04-23T13:43:24Z</time></trkpt><trkpt lat="41.83415149904823" lon="13.336884333575869"><ele>1798.0</ele><time>2026-04-23T13:43:25Z</time></trkpt><trkpt lat="41.83407501149593" lon="13.336862584060071"><ele>1797.0</ele><time>2026-04-23T13:43:26Z</time></trkpt><trkpt lat="41.83396921478234" lon="13.336800637187194"><ele>1796.0</ele><time>2026-04-23T13:43:28Z</time></trkpt><trkpt lat="41.83389538570084" lon="13.336733502435381"><ele>1796.0</ele><time>2026-04-23T13:43:30Z</time></trkpt><trkpt lat="41.83379682427329" lon="13.336701365979883"><ele>1796.0</ele><time>2026-04-23T13:43:32Z</time></trkpt><trkpt lat="41.83370209031526" lon="13.336670715867982"><ele>1796.0</ele><time>2026-04-23T13:43:34Z</time></trkpt><trkpt lat="41.83360367582545" lon="13.336650225741318"><ele>1796.0</ele><time>2026-04-23T13:43:36Z</time></trkpt><trkpt lat="41.83350519204688" lon="13.336654458692939"><ele>1796.0</ele><time>2026-04-23T13:43:38Z</time></trkpt><trkpt lat="41.83340602690653" lon="13.336624950541491"><ele>1794.9999999999998</ele><time>2026-04-23T13:43:40Z</time></trkpt><trkpt lat="41.83332125610768" lon="13.336547900662632"><ele>1794.0</ele><time>2026-04-23T13:43:42Z</time></trkpt><trkpt lat="41.83328779905504" lon="13.336463344198586"><ele>1793.0</ele><time>2026-04-23T13:43:43Z</time></trkpt><trkpt lat="41.83324557501921" lon="13.336368740618672"><ele>1792.0</ele><time>2026-04-23T13:43:44Z</time></trkpt><trkpt lat="41.83317775395263" lon="13.336280773972119"><ele>1790.9999999999998</ele><time>2026-04-23T13:43:45Z</time></trkpt><trkpt lat="41.83310150942215" lon="13.336197205590198"><ele>1790.0</ele><time>2026-04-23T13:43:46Z</time></trkpt><trkpt lat="41.833009628909544" lon="13.336144582934672"><ele>1788.8</ele><time>2026-04-23T13:43:47Z</time></trkpt><trkpt lat="41.8329179315709" lon="13.336139208848287"><ele>1787.6</ele><time>2026-04-23T13:43:48Z</time></trkpt><trkpt lat="41.83282362422833" lon="13.33617326869264"><ele>1786.4</ele><time>2026-04-23T13:43:49Z</time></trkpt><trkpt lat="41.83272748018611" lon="13.336233510990873"><ele>1785.2</ele><time>2026-04-23T13:43:50Z</time></trkpt><trkpt lat="41.8326176198523" lon="13.336298984938338"><ele>1784.0</ele><time>2026-04-23T13:43:51Z</time></trkpt><trkpt lat="41.832496331428835" lon="13.336338214728682"><ele>1784.0</ele><time>2026-04-23T13:43:52Z</time></trkpt><trkpt lat="41.83237632200716" lon="13.336349619212603"><ele>1784.0</ele><time>2026-04-23T13:43:53Z</time></trkpt><trkpt lat="41.8322622269217" lon="13.336325167449644"><ele>1784.0</ele><time>2026-04-23T13:43:54Z</time></trkpt><trkpt lat="41.832162063351966" lon="13.336257408593124"><ele>1784.0</ele><time>2026-04-23T13:43:55Z</time></trkpt><trkpt lat="41.832083205992134" lon="13.336144828954055"><ele>1784.0</ele><time>2026-04-23T13:43:56Z</time></trkpt><trkpt lat="41.831997638411934" lon="13.336002601115453"><ele>1784.0</ele><time>2026-04-23T13:43:57Z</time></trkpt><trkpt lat="41.83190441629123" lon="13.33586994545075"><ele>1784.0</ele><time>2026-04-23T13:43:58Z</time></trkpt><trkpt lat="41.83181446051021" lon="13.335731960209403"><ele>1784.0</ele><time>2026-04-23T13:43:59Z</time></trkpt><trkpt lat="41.83171965109862" lon="13.335586937811968"><ele>1781.6666666666665</ele><time>2026-04-23T13:44:00Z</time></trkpt><trkpt lat="41.831625998968164" lon="13.335428020017352"><ele>1779.3333333333335</ele><time>2026-04-23T13:44:01Z</time></trkpt><trkpt lat="41.83153613131673" lon="13.3352572903277"><ele>1777.0</ele><time>2026-04-23T13:44:02Z</time></trkpt><trkpt lat="41.83146193759521" lon="13.335057391407917"><ele>1777.0</ele><time>2026-04-23T13:44:03Z</time></trkpt><trkpt lat="41.831400945602915" lon="13.334823142165064"><ele>1777.0</ele><time>2026-04-23T13:44:04Z</time></trkpt><trkpt lat="41.831344895674725" lon="13.33458864987458"><ele>1777.0</ele><time>2026-04-23T13:44:04.999Z</time></trkpt><trkpt lat="41.83131343846247" lon="13.334375441528117"><ele>1776.0</ele><time>2026-04-23T13:44:05.999Z</time></trkpt><trkpt lat="41.83128140368117" lon="13.33418833727296"><ele>1775.0</ele><time>2026-04-23T13:44:06.999Z</time></trkpt><trkpt lat="41.831217739412295" lon="13.33402591425601"><ele>1774.0</ele><time>2026-04-23T13:44:07.999Z</time></trkpt><trkpt lat="41.831121922912494" lon="13.333886365545467"><ele>1773.0</ele><time>2026-04-23T13:44:08.999Z</time></trkpt><trkpt lat="41.83099992541122" lon="13.333762079120957"><ele>1772.0</ele><time>2026-04-23T13:44:09.999Z</time></trkpt><trkpt lat="41.83090150536379" lon="13.333637812159461"><ele>1771.0</ele><time>2026-04-23T13:44:10.999Z</time></trkpt><trkpt lat="41.830832980786106" lon="13.33347062473903"><ele>1770.0</ele><time>2026-04-23T13:44:11.999Z</time></trkpt><trkpt lat="41.83078693822571" lon="13.3332576383219"><ele>1769.0</ele><time>2026-04-23T13:44:12.999Z</time></trkpt><trkpt lat="41.830752265578475" lon="13.33303436303902"><ele>1769.0</ele><time>2026-04-23T13:44:13.999Z</time></trkpt><trkpt lat="41.830720516732924" lon="13.332821394267274"><ele>1769.0</ele><time>2026-04-23T13:44:14.999Z</time></trkpt><trkpt lat="41.83068685956229" lon="13.332624361741804"><ele>1769.0</ele><time>2026-04-23T13:44:15.999Z</time></trkpt><trkpt lat="41.83064011493016" lon="13.332439253782983"><ele>1769.0</ele><time>2026-04-23T13:44:16.999Z</time></trkpt><trkpt lat="41.83055739815397" lon="13.332250422929762"><ele>1769.0</ele><time>2026-04-23T13:44:17.999Z</time></trkpt><trkpt lat="41.830444694698336" lon="13.3320579877369"><ele>1769.0</ele><time>2026-04-23T13:44:18.999Z</time></trkpt><trkpt lat="41.830314945055854" lon="13.331876771992253"><ele>1770.6666666666665</ele><time>2026-04-23T13:44:19.999Z</time></trkpt><trkpt lat="41.830169636082864" lon="13.331706078376577"><ele>1772.3333333333335</ele><time>2026-04-23T13:44:20.999Z</time></trkpt><trkpt lat="41.83001241123198" lon="13.331543353918196"><ele>1774.0</ele><time>2026-04-23T13:44:21.999Z</time></trkpt><trkpt lat="41.829841140069746" lon="13.331383505074847"><ele>1774.0</ele><time>2026-04-23T13:44:22.999Z</time></trkpt><trkpt lat="41.82967736486706" lon="13.331241886184747"><ele>1774.0</ele><time>2026-04-23T13:44:23.999Z</time></trkpt><trkpt lat="41.82951321450951" lon="13.331128607380938"><ele>1774.0</ele><time>2026-04-23T13:44:24.999Z</time></trkpt><trkpt lat="41.82934283399805" lon="13.331040849795075"><ele>1768.6666666666667</ele><time>2026-04-23T13:44:25.999Z</time></trkpt><trkpt lat="41.829176621790786" lon="13.330976502269971"><ele>1763.3333333333335</ele><time>2026-04-23T13:44:26.999Z</time></trkpt><trkpt lat="41.82901522020202" lon="13.33094623970308"><ele>1758.0</ele><time>2026-04-23T13:44:27.999Z</time></trkpt><trkpt lat="41.82886182289719" lon="13.33092567720959"><ele>1758.0</ele><time>2026-04-23T13:44:28.999Z</time></trkpt><trkpt lat="41.828726903633225" lon="13.330848336169481"><ele>1758.0</ele><time>2026-04-23T13:44:29.999Z</time></trkpt><trkpt lat="41.82859137413497" lon="13.330748795296719"><ele>1758.0</ele><time>2026-04-23T13:44:30.999Z</time></trkpt><trkpt lat="41.828460559159524" lon="13.33066977418674"><ele>1758.0</ele><time>2026-04-23T13:44:31.999Z</time></trkpt><trkpt lat="41.828331191605656" lon="13.330595370574498"><ele>1757.75</ele><time>2026-04-23T13:44:32.999Z</time></trkpt><trkpt lat="41.828213370834376" lon="13.33051710694019"><ele>1757.5</ele><time>2026-04-23T13:44:33.999Z</time></trkpt><trkpt lat="41.82810935575386" lon="13.330404449909887"><ele>1757.25</ele><time>2026-04-23T13:44:34.999Z</time></trkpt><trkpt lat="41.82801489478172" lon="13.330260028183266"><ele>1757.0</ele><time>2026-04-23T13:44:35.999Z</time></trkpt><trkpt lat="41.82792331440075" lon="13.330084445597434"><ele>1757.0</ele><time>2026-04-23T13:44:36.999Z</time></trkpt><trkpt lat="41.8278285672307" lon="13.329901636465545"><ele>1757.0</ele><time>2026-04-23T13:44:37.999Z</time></trkpt><trkpt lat="41.82773160203313" lon="13.329716589264303"><ele>1757.0</ele><time>2026-04-23T13:44:38.999Z</time></trkpt><trkpt lat="41.82763085361163" lon="13.329532085416883"><ele>1750.0</ele><time>2026-04-23T13:44:39.999Z</time></trkpt><trkpt lat="41.82753084980411" lon="13.329354961348683"><ele>1743.0</ele><time>2026-04-23T13:44:40.999Z</time></trkpt><trkpt lat="41.827447828707015" lon="13.329169158365712"><ele>1736.0</ele><time>2026-04-23T13:44:41.999Z</time></trkpt><trkpt lat="41.827371546284866" lon="13.32899245164153"><ele>1741.25</ele><time>2026-04-23T13:44:42.999Z</time></trkpt><trkpt lat="41.827309775452456" lon="13.328826704583834"><ele>1746.5</ele><time>2026-04-23T13:44:43.999Z</time></trkpt><trkpt lat="41.82725542679131" lon="13.328671394917752"><ele>1751.75</ele><time>2026-04-23T13:44:44.999Z</time></trkpt><trkpt lat="41.82719102888288" lon="13.328516468317913"><ele>1757.0</ele><time>2026-04-23T13:44:45.999Z</time></trkpt><trkpt lat="41.82711220332791" lon="13.32835849935325"><ele>1757.0</ele><time>2026-04-23T13:44:46.999Z</time></trkpt><trkpt lat="41.82701714153837" lon="13.328210917849509"><ele>1757.0</ele><time>2026-04-23T13:44:47.999Z</time></trkpt><trkpt lat="41.82690540152302" lon="13.32807545064227"><ele>1757.0</ele><time>2026-04-23T13:44:48.999Z</time></trkpt><trkpt lat="41.826788144663595" lon="13.327948037860331"><ele>1757.0</ele><time>2026-04-23T13:44:49.999Z</time></trkpt><trkpt lat="41.82668267982255" lon="13.327831195574722"><ele>1752.5</ele><time>2026-04-23T13:44:50.999Z</time></trkpt><trkpt lat="41.82658407959604" lon="13.327712093378054"><ele>1748.0</ele><time>2026-04-23T13:44:51.999Z</time></trkpt><trkpt lat="41.8264929185491" lon="13.327584532013466"><ele>1743.5</ele><time>2026-04-23T13:44:52.999Z</time></trkpt><trkpt lat="41.82641079092009" lon="13.327456021023327"><ele>1739.0</ele><time>2026-04-23T13:44:53.999Z</time></trkpt><trkpt lat="41.8263209269858" lon="13.32732660137361"><ele>1743.0</ele><time>2026-04-23T13:44:54.999Z</time></trkpt><trkpt lat="41.826224339398486" lon="13.327200717226464"><ele>1747.0</ele><time>2026-04-23T13:44:55.999Z</time></trkpt><trkpt lat="41.826128953239966" lon="13.327065539059962"><ele>1751.0</ele><time>2026-04-23T13:44:56.999Z</time></trkpt><trkpt lat="41.82604319691491" lon="13.326914633759753"><ele>1755.0</ele><time>2026-04-23T13:44:58Z</time></trkpt><trkpt lat="41.8259802856475" lon="13.326747391591775"><ele>1744.75</ele><time>2026-04-23T13:44:59Z</time></trkpt><trkpt lat="41.82592366080804" lon="13.326571832793308"><ele>1734.5</ele><time>2026-04-23T13:45:00Z</time></trkpt><trkpt lat="41.82587056606031" lon="13.3264133158473"><ele>1724.25</ele><time>2026-04-23T13:45:01Z</time></trkpt><trkpt lat="41.825830668956115" lon="13.326261894102059"><ele>1714.0</ele><time>2026-04-23T13:45:02Z</time></trkpt><trkpt lat="41.825816998192984" lon="13.326086380728905"><ele>1713.5</ele><time>2026-04-23T13:45:03Z</time></trkpt><trkpt lat="41.82581967435914" lon="13.325874901039029"><ele>1713.0</ele><time>2026-04-23T13:45:04Z</time></trkpt><trkpt lat="41.82581305128553" lon="13.325693038203987"><ele>1712.5</ele><time>2026-04-23T13:45:05Z</time></trkpt><trkpt lat="41.82582978657459" lon="13.325514324831534"><ele>1712.0</ele><time>2026-04-23T13:45:06Z</time></trkpt><trkpt lat="41.82585444622278" lon="13.325360151826557"><ele>1714.5</ele><time>2026-04-23T13:45:07Z</time></trkpt><trkpt lat="41.82590395313684" lon="13.325213327811499"><ele>1717.0</ele><time>2026-04-23T13:45:08Z</time></trkpt><trkpt lat="41.82597832906041" lon="13.325056255696527"><ele>1719.5</ele><time>2026-04-23T13:45:09Z</time></trkpt><trkpt lat="41.82607435379098" lon="13.324934527159735"><ele>1722.0</ele><time>2026-04-23T13:45:10Z</time></trkpt><trkpt lat="41.8261750124342" lon="13.324851951046533"><ele>1722.0</ele><time>2026-04-23T13:45:11Z</time></trkpt><trkpt lat="41.826289013863494" lon="13.324790068420867"><ele>1722.0</ele><time>2026-04-23T13:45:12Z</time></trkpt><trkpt lat="41.8264238914618" lon="13.324740666094463"><ele>1722.0</ele><time>2026-04-23T13:45:13Z</time></trkpt><trkpt lat="41.82656940062077" lon="13.324668875635403"><ele>1722.0</ele><time>2026-04-23T13:45:14Z</time></trkpt><trkpt lat="41.82671727471035" lon="13.324589544848836"><ele>1716.3333333333335</ele><time>2026-04-23T13:45:15Z</time></trkpt><trkpt lat="41.82686553152183" lon="13.324513631039023"><ele>1710.6666666666667</ele><time>2026-04-23T13:45:16Z</time></trkpt><trkpt lat="41.827019577289875" lon="13.324449168598978"><ele>1705.0</ele><time>2026-04-23T13:45:17Z</time></trkpt><trkpt lat="41.82718152029257" lon="13.324375388922885"><ele>1705.0</ele><time>2026-04-23T13:45:18Z</time></trkpt><trkpt lat="41.82734636826518" lon="13.324275143743476"><ele>1705.0</ele><time>2026-04-23T13:45:19Z</time></trkpt><trkpt lat="41.827488167302064" lon="13.32416250410858"><ele>1705.0</ele><time>2026-04-23T13:45:20Z</time></trkpt><trkpt lat="41.827614066798354" lon="13.324035666561565"><ele>1706.25</ele><time>2026-04-23T13:45:21Z</time></trkpt><trkpt lat="41.827724943355754" lon="13.323902496320786"><ele>1707.5</ele><time>2026-04-23T13:45:22Z</time></trkpt><trkpt lat="41.82782201152823" lon="13.323779575545329"><ele>1708.75</ele><time>2026-04-23T13:45:23Z</time></trkpt><trkpt lat="41.82793096495431" lon="13.323697262673512"><ele>1710.0</ele><time>2026-04-23T13:45:24Z</time></trkpt><trkpt lat="41.82805688614498" lon="13.323653665654657"><ele>1704.25</ele><time>2026-04-23T13:45:25Z</time></trkpt><trkpt lat="41.82818451142417" lon="13.323652144130252"><ele>1698.5</ele><time>2026-04-23T13:45:26Z</time></trkpt><trkpt lat="41.828304202797526" lon="13.323651721122415"><ele>1692.75</ele><time>2026-04-23T13:45:27Z</time></trkpt><trkpt lat="41.82840719342397" lon="13.323616087388848"><ele>1687.0</ele><time>2026-04-23T13:45:28Z</time></trkpt><trkpt lat="41.828501434089205" lon="13.323529209469578"><ele>1687.0</ele><time>2026-04-23T13:45:29Z</time></trkpt><trkpt lat="41.82858359923131" lon="13.323405637594012"><ele>1687.0</ele><time>2026-04-23T13:45:30Z</time></trkpt><trkpt lat="41.82865863304967" lon="13.323265451409615"><ele>1687.0</ele><time>2026-04-23T13:45:31Z</time></trkpt><trkpt lat="41.82873729648811" lon="13.32316212969649"><ele>1687.0</ele><time>2026-04-23T13:45:32Z</time></trkpt><trkpt lat="41.828812268769326" lon="13.323063524107065"><ele>1687.0</ele><time>2026-04-23T13:45:33Z</time></trkpt><trkpt lat="41.82895471656768" lon="13.323025699161427"><ele>1687.0</ele><time>2026-04-23T13:45:34Z</time></trkpt><trkpt lat="41.829069500382616" lon="13.323010246806525"><ele>1687.0</ele><time>2026-04-23T13:45:35Z</time></trkpt><trkpt lat="41.82916994016682" lon="13.323022410426939"><ele>1687.0</ele><time>2026-04-23T13:45:36Z</time></trkpt><trkpt lat="41.8292498689273" lon="13.323101279349038"><ele>1679.5</ele><time>2026-04-23T13:45:37Z</time></trkpt><trkpt lat="41.82931278002426" lon="13.32323363222574"><ele>1672.0</ele><time>2026-04-23T13:45:38Z</time></trkpt><trkpt lat="41.829359694645746" lon="13.323389692464533"><ele>1664.5</ele><time>2026-04-23T13:45:39Z</time></trkpt><trkpt lat="41.82939242056761" lon="13.323570043206358"><ele>1657.0</ele><time>2026-04-23T13:45:40Z</time></trkpt><trkpt lat="41.82942144789083" lon="13.323751773475768"><ele>1658.0</ele><time>2026-04-23T13:45:41Z</time></trkpt><trkpt lat="41.82943382864423" lon="13.323943904588972"><ele>1659.0</ele><time>2026-04-23T13:45:42Z</time></trkpt><trkpt lat="41.82945493358934" lon="13.324134264890816"><ele>1660.0</ele><time>2026-04-23T13:45:43Z</time></trkpt><trkpt lat="41.82948302946832" lon="13.324311620233523"><ele>1661.0</ele><time>2026-04-23T13:45:44Z</time></trkpt><trkpt lat="41.829508887787135" lon="13.324477815589226"><ele>1661.0</ele><time>2026-04-23T13:45:45Z</time></trkpt><trkpt lat="41.82953641072422" lon="13.3246278256308"><ele>1661.0</ele><time>2026-04-23T13:45:46Z</time></trkpt><trkpt lat="41.82956251350996" lon="13.324773156958344"><ele>1661.0</ele><time>2026-04-23T13:45:47Z</time></trkpt><trkpt lat="41.82959106965696" lon="13.324914195533339"><ele>1661.0</ele><time>2026-04-23T13:45:48Z</time></trkpt><trkpt lat="41.82963148779717" lon="13.325048504231223"><ele>1661.0</ele><time>2026-04-23T13:45:49Z</time></trkpt><trkpt lat="41.82969360374608" lon="13.325156718886273"><ele>1664.0</ele><time>2026-04-23T13:45:50Z</time></trkpt><trkpt lat="41.829787383210366" lon="13.325227036365991"><ele>1667.0</ele><time>2026-04-23T13:45:51Z</time></trkpt><trkpt lat="41.82993157083626" lon="13.32522181276134"><ele>1670.0</ele><time>2026-04-23T13:45:52Z</time></trkpt><trkpt lat="41.830092196660594" lon="13.325190094184567"><ele>1673.0</ele><time>2026-04-23T13:45:53Z</time></trkpt><trkpt lat="41.83025271375777" lon="13.325143507347502"><ele>1673.0</ele><time>2026-04-23T13:45:54Z</time></trkpt><trkpt lat="41.83041376857229" lon="13.32508961442814"><ele>1673.0</ele><time>2026-04-23T13:45:55Z</time></trkpt><trkpt lat="41.830551328446234" lon="13.325013112750048"><ele>1673.0</ele><time>2026-04-23T13:45:56Z</time></trkpt><trkpt lat="41.83066477657721" lon="13.324937147494257"><ele>1673.0</ele><time>2026-04-23T13:45:57Z</time></trkpt><trkpt lat="41.83077398226263" lon="13.324877279918411"><ele>1673.0</ele><time>2026-04-23T13:45:58Z</time></trkpt><trkpt lat="41.830902454436846" lon="13.324824924765046"><ele>1673.0</ele><time>2026-04-23T13:45:59Z</time></trkpt><trkpt lat="41.8310574628695" lon="13.324781076494034"><ele>1673.0</ele><time>2026-04-23T13:46:00Z</time></trkpt><trkpt lat="41.83122944790123" lon="13.324725801295369"><ele>1666.3333333333333</ele><time>2026-04-23T13:46:01Z</time></trkpt><trkpt lat="41.83141731746328" lon="13.324652441520389"><ele>1659.6666666666665</ele><time>2026-04-23T13:46:02Z</time></trkpt><trkpt lat="41.831570856856864" lon="13.324559802794004"><ele>1653.0</ele><time>2026-04-23T13:46:03Z</time></trkpt><trkpt lat="41.83170243512962" lon="13.324475826929092"><ele>1653.75</ele><time>2026-04-23T13:46:04Z</time></trkpt><trkpt lat="41.83183751028302" lon="13.324379345648122"><ele>1654.5</ele><time>2026-04-23T13:46:04.999Z</time></trkpt><trkpt lat="41.831969032033754" lon="13.32429748189859"><ele>1655.25</ele><time>2026-04-23T13:46:05.999Z</time></trkpt><trkpt lat="41.8320870538998" lon="13.324232969041583"><ele>1656.0</ele><time>2026-04-23T13:46:06.999Z</time></trkpt><trkpt lat="41.83220686249178" lon="13.324184129507104"><ele>1656.0</ele><time>2026-04-23T13:46:07.999Z</time></trkpt><trkpt lat="41.83232287934259" lon="13.324127875247283"><ele>1656.0</ele><time>2026-04-23T13:46:08.999Z</time></trkpt><trkpt lat="41.83242915552626" lon="13.324099742205501"><ele>1656.0</ele><time>2026-04-23T13:46:09.999Z</time></trkpt><trkpt lat="41.83253872911961" lon="13.324114605272136"><ele>1656.0</ele><time>2026-04-23T13:46:10.999Z</time></trkpt><trkpt lat="41.83263723156481" lon="13.324178373029929"><ele>1652.75</ele><time>2026-04-23T13:46:11.999Z</time></trkpt><trkpt lat="41.832746705290084" lon="13.324273971128887"><ele>1649.5</ele><time>2026-04-23T13:46:12.999Z</time></trkpt><trkpt lat="41.832867064500434" lon="13.32440086211751"><ele>1646.25</ele><time>2026-04-23T13:46:13.999Z</time></trkpt><trkpt lat="41.83300038416374" lon="13.324465767579586"><ele>1643.0</ele><time>2026-04-23T13:46:14.999Z</time></trkpt><trkpt lat="41.83314327318457" lon="13.324469819097274"><ele>1643.0</ele><time>2026-04-23T13:46:15.999Z</time></trkpt><trkpt lat="41.83329807511433" lon="13.324490256860791"><ele>1643.0</ele><time>2026-04-23T13:46:16.999Z</time></trkpt><trkpt lat="41.83342713616725" lon="13.324513459761915"><ele>1643.0</ele><time>2026-04-23T13:46:17.999Z</time></trkpt><trkpt lat="41.833573777427226" lon="13.324535556450385"><ele>1643.0</ele><time>2026-04-23T13:46:18.999Z</time></trkpt><trkpt lat="41.83373483765432" lon="13.324484560684736"><ele>1641.6666666666665</ele><time>2026-04-23T13:46:19.999Z</time></trkpt><trkpt lat="41.833912208215295" lon="13.324395659061324"><ele>1640.3333333333335</ele><time>2026-04-23T13:46:20.999Z</time></trkpt><trkpt lat="41.834103021939505" lon="13.324342808149595"><ele>1639.0</ele><time>2026-04-23T13:46:21.999Z</time></trkpt><trkpt lat="41.83428909552857" lon="13.324295805269978"><ele>1639.0</ele><time>2026-04-23T13:46:22.999Z</time></trkpt><trkpt lat="41.834490599153774" lon="13.324246183231647"><ele>1639.0</ele><time>2026-04-23T13:46:23.999Z</time></trkpt><trkpt lat="41.83465990750329" lon="13.32419741089092"><ele>1639.0</ele><time>2026-04-23T13:46:24.999Z</time></trkpt><trkpt lat="41.83481689834051" lon="13.324155741873481"><ele>1639.0</ele><time>2026-04-23T13:46:25.999Z</time></trkpt><trkpt lat="41.834964627200115" lon="13.324134316188054"><ele>1639.0</ele><time>2026-04-23T13:46:26.999Z</time></trkpt><trkpt lat="41.835106387206615" lon="13.324097172802428"><ele>1639.0</ele><time>2026-04-23T13:46:27.999Z</time></trkpt><trkpt lat="41.83522285400272" lon="13.324059065064715"><ele>1639.0</ele><time>2026-04-23T13:46:28.999Z</time></trkpt><trkpt lat="41.83532182812086" lon="13.32401362802295"><ele>1635.5000000000002</ele><time>2026-04-23T13:46:29.999Z</time></trkpt><trkpt lat="41.83539340497554" lon="13.323952704655527"><ele>1632.0</ele><time>2026-04-23T13:46:30.999Z</time></trkpt><trkpt lat="41.8354372035274" lon="13.32386592453461"><ele>1628.5</ele><time>2026-04-23T13:46:31.999Z</time></trkpt><trkpt lat="41.83544925631804" lon="13.323761149171297"><ele>1625.0</ele><time>2026-04-23T13:46:32.999Z</time></trkpt><trkpt lat="41.835421033562135" lon="13.323645464049566"><ele>1621.5000000000002</ele><time>2026-04-23T13:46:33.999Z</time></trkpt><trkpt lat="41.83535683929295" lon="13.32355182462545"><ele>1618.0</ele><time>2026-04-23T13:46:34.999Z</time></trkpt><trkpt lat="41.83526003878663" lon="13.323511215269573"><ele>1618.3333333333335</ele><time>2026-04-23T13:46:35.999Z</time></trkpt><trkpt lat="41.83513882841863" lon="13.323533241439167"><ele>1618.6666666666665</ele><time>2026-04-23T13:46:36.999Z</time></trkpt><trkpt lat="41.834990757385704" lon="13.323605523991127"><ele>1619.0</ele><time>2026-04-23T13:46:37.999Z</time></trkpt><trkpt lat="41.83481257826448" lon="13.323677419271641"><ele>1619.0</ele><time>2026-04-23T13:46:38.999Z</time></trkpt><trkpt lat="41.83464189753898" lon="13.323706075292636"><ele>1619.0</ele><time>2026-04-23T13:46:39.999Z</time></trkpt><trkpt lat="41.83445906426068" lon="13.32371671084208"><ele>1619.0</ele><time>2026-04-23T13:46:40.999Z</time></trkpt><trkpt lat="41.83428673101976" lon="13.323745727239366"><ele>1616.0</ele><time>2026-04-23T13:46:41.999Z</time></trkpt><trkpt lat="41.83413130094295" lon="13.323794470439395"><ele>1613.0</ele><time>2026-04-23T13:46:42.999Z</time></trkpt><trkpt lat="41.83398176190357" lon="13.323840367616015"><ele>1610.0</ele><time>2026-04-23T13:46:43.999Z</time></trkpt><trkpt lat="41.83384107640694" lon="13.3238778292402"><ele>1610.0</ele><time>2026-04-23T13:46:44.999Z</time></trkpt><trkpt lat="41.833696114136856" lon="13.32388321190985"><ele>1610.0</ele><time>2026-04-23T13:46:45.999Z</time></trkpt><trkpt lat="41.83355104977344" lon="13.323832326283954"><ele>1610.0</ele><time>2026-04-23T13:46:46.999Z</time></trkpt><trkpt lat="41.83340772966215" lon="13.323745403473605"><ele>1610.6666666666665</ele><time>2026-04-23T13:46:47.999Z</time></trkpt><trkpt lat="41.833267119217474" lon="13.323684355279369"><ele>1611.3333333333335</ele><time>2026-04-23T13:46:48.999Z</time></trkpt><trkpt lat="41.83314268017915" lon="13.323595359827518"><ele>1612.0</ele><time>2026-04-23T13:46:49.999Z</time></trkpt><trkpt lat="41.83302958952296" lon="13.32344074975591"><ele>1612.0</ele><time>2026-04-23T13:46:50.999Z</time></trkpt><trkpt lat="41.83292029396325" lon="13.323264340741428"><ele>1612.0</ele><time>2026-04-23T13:46:51.999Z</time></trkpt><trkpt lat="41.832836239437356" lon="13.323120819474275"><ele>1612.0</ele><time>2026-04-23T13:46:52.999Z</time></trkpt><trkpt lat="41.832737968757606" lon="13.323005589446096"><ele>1612.0</ele><time>2026-04-23T13:46:53.999Z</time></trkpt><trkpt lat="41.832648475035384" lon="13.322911608759943"><ele>1608.0</ele><time>2026-04-23T13:46:54.999Z</time></trkpt><trkpt lat="41.83254372279103" lon="13.322845245646052"><ele>1604.0</ele><time>2026-04-23T13:46:55.999Z</time></trkpt><trkpt lat="41.83244045901547" lon="13.322831161534802"><ele>1600.0</ele><time>2026-04-23T13:46:56.999Z</time></trkpt><trkpt lat="41.8323153162098" lon="13.32288119350716"><ele>1596.0</ele><time>2026-04-23T13:46:57.999Z</time></trkpt><trkpt lat="41.83216340595567" lon="13.322990114029865"><ele>1601.3333333333335</ele><time>2026-04-23T13:46:58.999Z</time></trkpt><trkpt lat="41.831969695335154" lon="13.32310189758751"><ele>1606.6666666666667</ele><time>2026-04-23T13:46:59.999Z</time></trkpt><trkpt lat="41.83176529664875" lon="13.323179741311499"><ele>1612.0</ele><time>2026-04-23T13:47:00.999Z</time></trkpt><trkpt lat="41.83160939479812" lon="13.323223052210693"><ele>1612.0</ele><time>2026-04-23T13:47:01.999Z</time></trkpt><trkpt lat="41.83146180081815" lon="13.323271353652975"><ele>1612.0</ele><time>2026-04-23T13:47:02.999Z</time></trkpt><trkpt lat="41.83134489477667" lon="13.323286943901909"><ele>1612.0</ele><time>2026-04-23T13:47:04Z</time></trkpt><trkpt lat="41.8312210637741" lon="13.32327700782004"><ele>1612.0</ele><time>2026-04-23T13:47:05Z</time></trkpt><trkpt lat="41.831111907501324" lon="13.323277129292812"><ele>1612.0</ele><time>2026-04-23T13:47:06Z</time></trkpt><trkpt lat="41.8310013744168" lon="13.323235444719836"><ele>1612.0</ele><time>2026-04-23T13:47:07Z</time></trkpt><trkpt lat="41.83090219938918" lon="13.323195347327562"><ele>1612.0</ele><time>2026-04-23T13:47:08Z</time></trkpt><trkpt lat="41.830837279070074" lon="13.322902809051746"><ele>1612.0</ele><time>2026-04-23T13:47:09Z</time></trkpt><trkpt lat="41.830815273776516" lon="13.322734613035768"><ele>1610.75</ele><time>2026-04-23T13:47:10Z</time></trkpt><trkpt lat="41.83085433202517" lon="13.3225725691612"><ele>1609.5</ele><time>2026-04-23T13:47:11Z</time></trkpt><trkpt lat="41.83090343155129" lon="13.322431200976686"><ele>1608.25</ele><time>2026-04-23T13:47:12Z</time></trkpt><trkpt lat="41.8309496175501" lon="13.32224149102886"><ele>1607.0</ele><time>2026-04-23T13:47:13Z</time></trkpt><trkpt lat="41.830986548180725" lon="13.322088319963012"><ele>1596.5</ele><time>2026-04-23T13:47:14Z</time></trkpt><trkpt lat="41.83102273127909" lon="13.321973907677359"><ele>1586.0</ele><time>2026-04-23T13:47:15Z</time></trkpt><trkpt lat="41.83105447506448" lon="13.321825477915194"><ele>1575.5</ele><time>2026-04-23T13:47:16Z</time></trkpt><trkpt lat="41.83108201796267" lon="13.32163220342715"><ele>1565.0</ele><time>2026-04-23T13:47:17Z</time></trkpt><trkpt lat="41.831087368139286" lon="13.321454344095965"><ele>1563.25</ele><time>2026-04-23T13:47:18Z</time></trkpt><trkpt lat="41.831078621107736" lon="13.321260437892054"><ele>1561.5</ele><time>2026-04-23T13:47:19Z</time></trkpt><trkpt lat="41.8310692035743" lon="13.321059524982664"><ele>1559.75</ele><time>2026-04-23T13:47:20Z</time></trkpt><trkpt lat="41.83105349401511" lon="13.320882489769541"><ele>1558.0</ele><time>2026-04-23T13:47:21Z</time></trkpt><trkpt lat="41.8310462981929" lon="13.320718971459613"><ele>1558.0</ele><time>2026-04-23T13:47:22Z</time></trkpt><trkpt lat="41.83103693030996" lon="13.320587688108388"><ele>1558.0</ele><time>2026-04-23T13:47:23Z</time></trkpt><trkpt lat="41.83093802312127" lon="13.320504326771902"><ele>1558.0</ele><time>2026-04-23T13:47:24Z</time></trkpt><trkpt lat="41.83085474723422" lon="13.320436236501425"><ele>1558.0</ele><time>2026-04-23T13:47:25Z</time></trkpt><trkpt lat="41.830684298185474" lon="13.32036939308304"><ele>1557.3333333333335</ele><time>2026-04-23T13:47:26Z</time></trkpt><trkpt lat="41.830541983647606" lon="13.320298572970383"><ele>1556.6666666666665</ele><time>2026-04-23T13:47:27Z</time></trkpt><trkpt lat="41.83038106874963" lon="13.320210641955647"><ele>1556.0</ele><time>2026-04-23T13:47:28Z</time></trkpt><trkpt lat="41.83022008242763" lon="13.320144784584665"><ele>1561.6666666666665</ele><time>2026-04-23T13:47:29Z</time></trkpt><trkpt lat="41.83005084245746" lon="13.320075417891633"><ele>1567.3333333333335</ele><time>2026-04-23T13:47:30Z</time></trkpt><trkpt lat="41.82987434133498" lon="13.320032197480188"><ele>1573.0</ele><time>2026-04-23T13:47:31Z</time></trkpt><trkpt lat="41.82969376025912" lon="13.32000465631314"><ele>1573.0</ele><time>2026-04-23T13:47:32Z</time></trkpt><trkpt lat="41.829510848174074" lon="13.319973576710291"><ele>1573.0</ele><time>2026-04-23T13:47:33Z</time></trkpt><trkpt lat="41.82933995377473" lon="13.319933880158677"><ele>1573.0</ele><time>2026-04-23T13:47:34Z</time></trkpt><trkpt lat="41.8291813346072" lon="13.319901115389287"><ele>1572.25</ele><time>2026-04-23T13:47:35Z</time></trkpt><trkpt lat="41.82903066282371" lon="13.319867891107572"><ele>1571.5</ele><time>2026-04-23T13:47:36Z</time></trkpt><trkpt lat="41.82888049768081" lon="13.31986270360301"><ele>1570.75</ele><time>2026-04-23T13:47:37Z</time></trkpt><trkpt lat="41.82873870861215" lon="13.319883837917494"><ele>1570.0</ele><time>2026-04-23T13:47:38Z</time></trkpt><trkpt lat="41.82859784469624" lon="13.319942520582293"><ele>1563.6666666666667</ele><time>2026-04-23T13:47:39Z</time></trkpt><trkpt lat="41.828442956875286" lon="13.320026266724167"><ele>1557.3333333333335</ele><time>2026-04-23T13:47:40Z</time></trkpt><trkpt lat="41.82828751880516" lon="13.320161995486913"><ele>1551.0</ele><time>2026-04-23T13:47:41Z</time></trkpt><trkpt lat="41.828095758035936" lon="13.320300309103851"><ele>1551.0</ele><time>2026-04-23T13:47:42Z</time></trkpt><trkpt lat="41.82789750327374" lon="13.320477233025189"><ele>1551.0</ele><time>2026-04-23T13:47:43Z</time></trkpt><trkpt lat="41.82770027965926" lon="13.320649874958162"><ele>1552.0</ele><time>2026-04-23T13:47:44Z</time></trkpt><trkpt lat="41.82750530359986" lon="13.320808417984098"><ele>1553.0</ele><time>2026-04-23T13:47:45Z</time></trkpt><trkpt lat="41.82731260736977" lon="13.320943984616989"><ele>1554.0</ele><time>2026-04-23T13:47:46Z</time></trkpt><trkpt lat="41.82712847051599" lon="13.321068603377954"><ele>1554.0</ele><time>2026-04-23T13:47:47Z</time></trkpt><trkpt lat="41.826929284191394" lon="13.321173620917637"><ele>1554.0</ele><time>2026-04-23T13:47:48Z</time></trkpt><trkpt lat="41.826714407337256" lon="13.32126139666285"><ele>1554.0</ele><time>2026-04-23T13:47:49Z</time></trkpt><trkpt lat="41.826501667970106" lon="13.321410371703697"><ele>1557.0</ele><time>2026-04-23T13:47:50Z</time></trkpt><trkpt lat="41.82624206206924" lon="13.3215225775659"><ele>1560.0</ele><time>2026-04-23T13:47:51Z</time></trkpt><trkpt lat="41.8259473932777" lon="13.321598679026645"><ele>1551.0</ele><time>2026-04-23T13:47:52Z</time></trkpt><trkpt lat="41.82565623884387" lon="13.321710007696133"><ele>1542.0</ele><time>2026-04-23T13:47:53Z</time></trkpt><trkpt lat="41.82536987017499" lon="13.321833819012495"><ele>1530.5</ele><time>2026-04-23T13:47:54Z</time></trkpt><trkpt lat="41.82511376966603" lon="13.32192987709439"><ele>1519.0</ele><time>2026-04-23T13:47:55Z</time></trkpt><trkpt lat="41.824886976156705" lon="13.321999627912593"><ele>1519.0</ele><time>2026-04-23T13:47:56Z</time></trkpt><trkpt lat="41.82468524948954" lon="13.322082115513462"><ele>1519.0</ele><time>2026-04-23T13:47:57Z</time></trkpt><trkpt lat="41.824506690052445" lon="13.322155886119624"><ele>1519.0</ele><time>2026-04-23T13:47:58Z</time></trkpt><trkpt lat="41.824325675234974" lon="13.322223018932162"><ele>1522.0</ele><time>2026-04-23T13:47:59Z</time></trkpt><trkpt lat="41.82415576189745" lon="13.322353122314562"><ele>1525.0</ele><time>2026-04-23T13:48:00Z</time></trkpt><trkpt lat="41.82398067049439" lon="13.322480069119477"><ele>1528.0</ele><time>2026-04-23T13:48:01Z</time></trkpt><trkpt lat="41.82381802555677" lon="13.322622947978259"><ele>1528.0</ele><time>2026-04-23T13:48:02Z</time></trkpt><trkpt lat="41.823675282956295" lon="13.322758675098509"><ele>1528.0</ele><time>2026-04-23T13:48:03Z</time></trkpt><trkpt lat="41.823554570131044" lon="13.322886781467473"><ele>1528.0</ele><time>2026-04-23T13:48:04Z</time></trkpt><trkpt lat="41.82343539564655" lon="13.323025534329293"><ele>1522.3333333333333</ele><time>2026-04-23T13:48:05Z</time></trkpt><trkpt lat="41.823366795404866" lon="13.323214240569081"><ele>1516.6666666666667</ele><time>2026-04-23T13:48:06Z</time></trkpt><trkpt lat="41.823305603936305" lon="13.323412760702688"><ele>1511.0</ele><time>2026-04-23T13:48:07Z</time></trkpt><trkpt lat="41.82326107603553" lon="13.323610209992955"><ele>1511.0</ele><time>2026-04-23T13:48:07.999Z</time></trkpt><trkpt lat="41.82326296781526" lon="13.323835472038473"><ele>1511.0</ele><time>2026-04-23T13:48:08.999Z</time></trkpt><trkpt lat="41.823302101212406" lon="13.324102314322428"><ele>1511.0</ele><time>2026-04-23T13:48:09.999Z</time></trkpt><trkpt lat="41.823320438985434" lon="13.324401056127646"><ele>1512.3333333333335</ele><time>2026-04-23T13:48:10.999Z</time></trkpt><trkpt lat="41.82330409054723" lon="13.324648125388498"><ele>1513.6666666666667</ele><time>2026-04-23T13:48:11.999Z</time></trkpt><trkpt lat="41.82328520230502" lon="13.324872374786603"><ele>1515.0</ele><time>2026-04-23T13:48:12.999Z</time></trkpt><trkpt lat="41.82325545805572" lon="13.32507092447371"><ele>1517.6666666666667</ele><time>2026-04-23T13:48:13.999Z</time></trkpt><trkpt lat="41.82320160466174" lon="13.325246946594833"><ele>1520.3333333333335</ele><time>2026-04-23T13:48:14.999Z</time></trkpt><trkpt lat="41.82306532563424" lon="13.325385944380278"><ele>1523.0</ele><time>2026-04-23T13:48:15.999Z</time></trkpt><trkpt lat="41.82291192162096" lon="13.325525132860152"><ele>1529.6666666666667</ele><time>2026-04-23T13:48:16.999Z</time></trkpt><trkpt lat="41.82277401429778" lon="13.325679962276734"><ele>1536.3333333333335</ele><time>2026-04-23T13:48:17.999Z</time></trkpt><trkpt lat="41.82263607154592" lon="13.3258248065926"><ele>1543.0</ele><time>2026-04-23T13:48:18.999Z</time></trkpt><trkpt lat="41.82251149723795" lon="13.325940080706532"><ele>1535.5</ele><time>2026-04-23T13:48:19.999Z</time></trkpt><trkpt lat="41.82240044696672" lon="13.32606013771746"><ele>1528.0</ele><time>2026-04-23T13:48:20.999Z</time></trkpt><trkpt lat="41.822291645522064" lon="13.326183325034346"><ele>1520.5</ele><time>2026-04-23T13:48:21.999Z</time></trkpt><trkpt lat="41.82220327373876" lon="13.326325553305693"><ele>1513.0</ele><time>2026-04-23T13:48:22.999Z</time></trkpt><trkpt lat="41.822154104972554" lon="13.326500834781662"><ele>1513.0</ele><time>2026-04-23T13:48:23.999Z</time></trkpt><trkpt lat="41.822136379011866" lon="13.326692915566282"><ele>1513.0</ele><time>2026-04-23T13:48:24.999Z</time></trkpt><trkpt lat="41.822171072031736" lon="13.326934803699942"><ele>1513.0</ele><time>2026-04-23T13:48:25.999Z</time></trkpt><trkpt lat="41.82221647083179" lon="13.327178988100043"><ele>1512.0</ele><time>2026-04-23T13:48:26.999Z</time></trkpt><trkpt lat="41.822235757022355" lon="13.327437069428091"><ele>1511.0</ele><time>2026-04-23T13:48:27.999Z</time></trkpt><trkpt lat="41.822247015493495" lon="13.327679304162645"><ele>1510.0</ele><time>2026-04-23T13:48:28.999Z</time></trkpt><trkpt lat="41.82224038118008" lon="13.327893962674382"><ele>1508.0</ele><time>2026-04-23T13:48:29.999Z</time></trkpt><trkpt lat="41.822228752973864" lon="13.328083882424801"><ele>1506.0</ele><time>2026-04-23T13:48:30.999Z</time></trkpt><trkpt lat="41.82217685311485" lon="13.32827749973538"><ele>1504.0</ele><time>2026-04-23T13:48:31.999Z</time></trkpt><trkpt lat="41.82209838408633" lon="13.328477681968682"><ele>1504.0</ele><time>2026-04-23T13:48:32.999Z</time></trkpt><trkpt lat="41.82202435962173" lon="13.328670083250008"><ele>1504.0</ele><time>2026-04-23T13:48:33.999Z</time></trkpt><trkpt lat="41.82191917103756" lon="13.328948648569835"><ele>1504.0</ele><time>2026-04-23T13:48:34.999Z</time></trkpt><trkpt lat="41.82183786521757" lon="13.32913467358915"><ele>1495.3333333333333</ele><time>2026-04-23T13:48:35.999Z</time></trkpt><trkpt lat="41.821734709815516" lon="13.32929601616439"><ele>1486.6666666666667</ele><time>2026-04-23T13:48:36.999Z</time></trkpt><trkpt lat="41.82160169398439" lon="13.329400203748923"><ele>1478.0</ele><time>2026-04-23T13:48:37.999Z</time></trkpt><trkpt lat="41.821439860602695" lon="13.329464275073166"><ele>1478.0</ele><time>2026-04-23T13:48:38.999Z</time></trkpt><trkpt lat="41.82124856172342" lon="13.329539227463783"><ele>1478.0</ele><time>2026-04-23T13:48:39.999Z</time></trkpt><trkpt lat="41.821079110863145" lon="13.329590027420855"><ele>1478.0</ele><time>2026-04-23T13:48:40.999Z</time></trkpt><trkpt lat="41.820965261437316" lon="13.329605405381926"><ele>1476.6666666666667</ele><time>2026-04-23T13:48:41.999Z</time></trkpt><trkpt lat="41.82087250765115" lon="13.32958597492226"><ele>1475.3333333333335</ele><time>2026-04-23T13:48:42.999Z</time></trkpt><trkpt lat="41.82080214815891" lon="13.329523739950764"><ele>1474.0</ele><time>2026-04-23T13:48:43.999Z</time></trkpt><trkpt lat="41.82075859382352" lon="13.329428161073894"><ele>1472.6666666666667</ele><time>2026-04-23T13:48:44.999Z</time></trkpt><trkpt lat="41.820760142483046" lon="13.329318029163934"><ele>1471.3333333333333</ele><time>2026-04-23T13:48:45.999Z</time></trkpt><trkpt lat="41.82080925762761" lon="13.329196750919177"><ele>1470.0</ele><time>2026-04-23T13:48:46.999Z</time></trkpt><trkpt lat="41.820899218823264" lon="13.329138014991456"><ele>1471.6666666666667</ele><time>2026-04-23T13:48:47.999Z</time></trkpt><trkpt lat="41.82111134940549" lon="13.329026691879688"><ele>1473.3333333333335</ele><time>2026-04-23T13:48:48.999Z</time></trkpt><trkpt lat="41.82127603160107" lon="13.328940796566828"><ele>1475.0</ele><time>2026-04-23T13:48:49.999Z</time></trkpt><trkpt lat="41.82140546528493" lon="13.328800712166945"><ele>1475.0</ele><time>2026-04-23T13:48:50.999Z</time></trkpt><trkpt lat="41.821530402566964" lon="13.32863267276216"><ele>1475.0</ele><time>2026-04-23T13:48:51.999Z</time></trkpt><trkpt lat="41.82163946032394" lon="13.328468958860558"><ele>1475.0</ele><time>2026-04-23T13:48:52.999Z</time></trkpt><trkpt lat="41.82170531996959" lon="13.328331122512381"><ele>1475.0</ele><time>2026-04-23T13:48:53.999Z</time></trkpt><trkpt lat="41.821758316634714" lon="13.328172234596721"><ele>1475.0</ele><time>2026-04-23T13:48:54.999Z</time></trkpt><trkpt lat="41.821780104219684" lon="13.328038460821462"><ele>1475.0</ele><time>2026-04-23T13:48:55.999Z</time></trkpt><trkpt lat="41.82174331207148" lon="13.327894505346713"><ele>1475.0</ele><time>2026-04-23T13:48:56.999Z</time></trkpt><trkpt lat="41.821730897546004" lon="13.32774754409394"><ele>1474.75</ele><time>2026-04-23T13:48:57.999Z</time></trkpt><trkpt lat="41.82169073188148" lon="13.327622884449102"><ele>1474.5</ele><time>2026-04-23T13:48:58.999Z</time></trkpt><trkpt lat="41.82164972851362" lon="13.327486567843929"><ele>1474.25</ele><time>2026-04-23T13:48:59.999Z</time></trkpt><trkpt lat="41.82159891002491" lon="13.327344347771959"><ele>1474.0</ele><time>2026-04-23T13:49:00.999Z</time></trkpt><trkpt lat="41.821541130260734" lon="13.327189367457375"><ele>1474.0</ele><time>2026-04-23T13:49:01.999Z</time></trkpt><trkpt lat="41.82147862477031" lon="13.327029616704959"><ele>1474.0</ele><time>2026-04-23T13:49:02.999Z</time></trkpt><trkpt lat="41.82143605153996" lon="13.326897963882386"><ele>1474.0</ele><time>2026-04-23T13:49:03.999Z</time></trkpt><trkpt lat="41.82139967522748" lon="13.326769566974454"><ele>1474.0</ele><time>2026-04-23T13:49:04.999Z</time></trkpt><trkpt lat="41.82136903161895" lon="13.326670280360064"><ele>1474.0</ele><time>2026-04-23T13:49:05.999Z</time></trkpt><trkpt lat="41.821337645954806" lon="13.326566764313538"><ele>1474.0</ele><time>2026-04-23T13:49:06.999Z</time></trkpt><trkpt lat="41.8213078709323" lon="13.326486242153145"><ele>1474.0</ele><time>2026-04-23T13:49:07.999Z</time></trkpt><trkpt lat="41.82129349038893" lon="13.326384412823288"><ele>1474.0</ele><time>2026-04-23T13:49:08.999Z</time></trkpt><trkpt lat="41.82126127723445" lon="13.326252672846179"><ele>1474.0</ele><time>2026-04-23T13:49:10Z</time></trkpt><trkpt lat="41.82122905657631" lon="13.326094737799611"><ele>1474.0</ele><time>2026-04-23T13:49:11Z</time></trkpt><trkpt lat="41.82121059059283" lon="13.325924403195202"><ele>1472.25</ele><time>2026-04-23T13:49:12Z</time></trkpt><trkpt lat="41.82121447571483" lon="13.325756710589033"><ele>1470.5</ele><time>2026-04-23T13:49:13Z</time></trkpt><trkpt lat="41.82127247894204" lon="13.325593102972991"><ele>1468.75</ele><time>2026-04-23T13:49:14Z</time></trkpt><trkpt lat="41.82135026112938" lon="13.325477016022628"><ele>1467.0</ele><time>2026-04-23T13:49:15Z</time></trkpt><trkpt lat="41.82146024369399" lon="13.325398553885616"><ele>1462.5</ele><time>2026-04-23T13:49:16Z</time></trkpt><trkpt lat="41.821580590553395" lon="13.325302052401552"><ele>1458.0</ele><time>2026-04-23T13:49:17Z</time></trkpt><trkpt lat="41.82170827292205" lon="13.325185329231173"><ele>1453.5</ele><time>2026-04-23T13:49:18Z</time></trkpt><trkpt lat="41.82181591582205" lon="13.325041378067887"><ele>1449.0</ele><time>2026-04-23T13:49:19Z</time></trkpt><trkpt lat="41.82190094374582" lon="13.324889191023914"><ele>1452.75</ele><time>2026-04-23T13:49:20Z</time></trkpt><trkpt lat="41.82200815658013" lon="13.324762560982562"><ele>1456.5</ele><time>2026-04-23T13:49:21Z</time></trkpt><trkpt lat="41.82207929686893" lon="13.324612370040068"><ele>1460.25</ele><time>2026-04-23T13:49:22Z</time></trkpt><trkpt lat="41.82214394772559" lon="13.324482156819466"><ele>1464.0</ele><time>2026-04-23T13:49:23Z</time></trkpt><trkpt lat="41.82218728045695" lon="13.324351737724935"><ele>1464.0</ele><time>2026-04-23T13:49:24Z</time></trkpt><trkpt lat="41.822207041431085" lon="13.324218682480026"><ele>1464.0</ele><time>2026-04-23T13:49:25Z</time></trkpt><trkpt lat="41.82218505364549" lon="13.324083137197196"><ele>1464.0</ele><time>2026-04-23T13:49:26Z</time></trkpt><trkpt lat="41.82212250982604" lon="13.323913454696688"><ele>1464.0</ele><time>2026-04-23T13:49:27Z</time></trkpt><trkpt lat="41.82204751236153" lon="13.323751191527206"><ele>1465.0</ele><time>2026-04-23T13:49:28Z</time></trkpt><trkpt lat="41.82199967525367" lon="13.32359481043179"><ele>1466.0</ele><time>2026-04-23T13:49:29Z</time></trkpt><trkpt lat="41.82195627311955" lon="13.323432810200174"><ele>1467.0</ele><time>2026-04-23T13:49:30Z</time></trkpt><trkpt lat="41.82192548610461" lon="13.323257949676192"><ele>1468.0</ele><time>2026-04-23T13:49:31Z</time></trkpt><trkpt lat="41.82191106372036" lon="13.323073673065213"><ele>1467.0</ele><time>2026-04-23T13:49:32Z</time></trkpt><trkpt lat="41.82190181314009" lon="13.322885342274214"><ele>1466.0</ele><time>2026-04-23T13:49:33Z</time></trkpt><trkpt lat="41.821892545023665" lon="13.322697669877002"><ele>1465.0</ele><time>2026-04-23T13:49:34Z</time></trkpt><trkpt lat="41.82187553442524" lon="13.322518067970364"><ele>1464.0</ele><time>2026-04-23T13:49:35Z</time></trkpt><trkpt lat="41.82185505324157" lon="13.322335786562657"><ele>1461.5</ele><time>2026-04-23T13:49:36Z</time></trkpt><trkpt lat="41.821829503418805" lon="13.32217138335793"><ele>1459.0</ele><time>2026-04-23T13:49:37Z</time></trkpt><trkpt lat="41.821777213787705" lon="13.32202676599516"><ele>1456.5</ele><time>2026-04-23T13:49:38Z</time></trkpt><trkpt lat="41.82170337956323" lon="13.321880543031638"><ele>1454.0</ele><time>2026-04-23T13:49:39Z</time></trkpt><trkpt lat="41.82162949983504" lon="13.321736165643383"><ele>1446.0</ele><time>2026-04-23T13:49:40Z</time></trkpt><trkpt lat="41.82152875693928" lon="13.32157384199683"><ele>1438.0</ele><time>2026-04-23T13:49:41Z</time></trkpt><trkpt lat="41.821415898845615" lon="13.321380719336434"><ele>1430.0</ele><time>2026-04-23T13:49:42Z</time></trkpt><trkpt lat="41.82131264997945" lon="13.321212867329262"><ele>1430.0</ele><time>2026-04-23T13:49:43Z</time></trkpt><trkpt lat="41.82123147940984" lon="13.321095719294604"><ele>1430.0</ele><time>2026-04-23T13:49:44Z</time></trkpt><trkpt lat="41.821139374596555" lon="13.32098204353248"><ele>1430.0</ele><time>2026-04-23T13:49:45Z</time></trkpt><trkpt lat="41.821027470049074" lon="13.321100847365182"><ele>1430.0</ele><time>2026-04-23T13:49:47Z</time></trkpt><trkpt lat="41.82096319058238" lon="13.321126501703768"><ele>1429.3333333333335</ele><time>2026-04-23T13:49:48Z</time></trkpt><trkpt lat="41.82103578124412" lon="13.321441177308449"><ele>1428.6666666666667</ele><time>2026-04-23T13:49:49Z</time></trkpt><trkpt lat="41.8211343644349" lon="13.321678596551521"><ele>1428.0</ele><time>2026-04-23T13:49:50Z</time></trkpt><trkpt lat="41.82127490473983" lon="13.321979954562831"><ele>1426.0</ele><time>2026-04-23T13:49:51Z</time></trkpt><trkpt lat="41.821387780338" lon="13.32224685967552"><ele>1424.0</ele><time>2026-04-23T13:49:52Z</time></trkpt><trkpt lat="41.82143234867271" lon="13.322453010521345"><ele>1422.0</ele><time>2026-04-23T13:49:53Z</time></trkpt><trkpt lat="41.82144942785186" lon="13.322633546306445"><ele>1422.0</ele><time>2026-04-23T13:49:54Z</time></trkpt><trkpt lat="41.82143560468448" lon="13.322842591763361"><ele>1422.0</ele><time>2026-04-23T13:49:55Z</time></trkpt><trkpt lat="41.821391704843265" lon="13.323080046822323"><ele>1422.0</ele><time>2026-04-23T13:49:56Z</time></trkpt><trkpt lat="41.82137218508379" lon="13.323273151413686"><ele>1421.0</ele><time>2026-04-23T13:49:57Z</time></trkpt><trkpt lat="41.821403792138554" lon="13.323519323133956"><ele>1420.0</ele><time>2026-04-23T13:49:58Z</time></trkpt><trkpt lat="41.82144147532819" lon="13.323735684435308"><ele>1419.0</ele><time>2026-04-23T13:49:59Z</time></trkpt><trkpt lat="41.82145334866222" lon="13.323932076924114"><ele>1420.6</ele><time>2026-04-23T13:50:00Z</time></trkpt><trkpt lat="41.82146974387509" lon="13.324045459404497"><ele>1422.2</ele><time>2026-04-23T13:50:01Z</time></trkpt><trkpt lat="41.82144506715825" lon="13.324170835056933"><ele>1423.8</ele><time>2026-04-23T13:50:02Z</time></trkpt><trkpt lat="41.82135976283885" lon="13.324266377246717"><ele>1425.3999999999999</ele><time>2026-04-23T13:50:03Z</time></trkpt><trkpt lat="41.82125740150441" lon="13.324344151338224"><ele>1427.0</ele><time>2026-04-23T13:50:04Z</time></trkpt><trkpt lat="41.821104960248476" lon="13.324449494330933"><ele>1417.3333333333335</ele><time>2026-04-23T13:50:05Z</time></trkpt><trkpt lat="41.82097963851256" lon="13.324516572697345"><ele>1407.6666666666667</ele><time>2026-04-23T13:50:06Z</time></trkpt><trkpt lat="41.82082900032516" lon="13.324571995281968"><ele>1398.0</ele><time>2026-04-23T13:50:07Z</time></trkpt><trkpt lat="41.82060090498288" lon="13.324559432941605"><ele>1398.0</ele><time>2026-04-23T13:50:08Z</time></trkpt><trkpt lat="41.82043839648594" lon="13.324622438715062"><ele>1398.0</ele><time>2026-04-23T13:50:09Z</time></trkpt><trkpt lat="41.82028927299345" lon="13.324687150510911"><ele>1398.0</ele><time>2026-04-23T13:50:10Z</time></trkpt><trkpt lat="41.820154623868646" lon="13.324725954469091"><ele>1396.0</ele><time>2026-04-23T13:50:11Z</time></trkpt><trkpt lat="41.82002516234695" lon="13.32478154586773"><ele>1394.0</ele><time>2026-04-23T13:50:12Z</time></trkpt><trkpt lat="41.81992509682558" lon="13.324820846779389"><ele>1392.0</ele><time>2026-04-23T13:50:13Z</time></trkpt><trkpt lat="41.81982267536093" lon="13.324873785753134"><ele>1390.0</ele><time>2026-04-23T13:50:13.999Z</time></trkpt><trkpt lat="41.819736630316726" lon="13.325048490282814"><ele>1390.0</ele><time>2026-04-23T13:50:14.999Z</time></trkpt><trkpt lat="41.819701551265766" lon="13.325203461862468"><ele>1390.0</ele><time>2026-04-23T13:50:15.999Z</time></trkpt><trkpt lat="41.81966691705908" lon="13.325387310661236"><ele>1390.0</ele><time>2026-04-23T13:50:16.999Z</time></trkpt><trkpt lat="41.8196628272001" lon="13.325623900717108"><ele>1390.0</ele><time>2026-04-23T13:50:17.999Z</time></trkpt><trkpt lat="41.81968687020155" lon="13.325925067888813"><ele>1390.5</ele><time>2026-04-23T13:50:18.999Z</time></trkpt><trkpt lat="41.81985826689552" lon="13.326244514833066"><ele>1391.0</ele><time>2026-04-23T13:50:19.999Z</time></trkpt><trkpt lat="41.81986992905552" lon="13.326505031793785"><ele>1393.0</ele><time>2026-04-23T13:50:20.999Z</time></trkpt><trkpt lat="41.81986509219781" lon="13.326639825366366"><ele>1395.0</ele><time>2026-04-23T13:50:21.999Z</time></trkpt><trkpt lat="41.819805175718805" lon="13.326806018666188"><ele>1397.0</ele><time>2026-04-23T13:50:22.999Z</time></trkpt><trkpt lat="41.819693327707114" lon="13.326870098391748"><ele>1399.0</ele><time>2026-04-23T13:50:23.999Z</time></trkpt><trkpt lat="41.81959978439733" lon="13.326866648669672"><ele>1399.0</ele><time>2026-04-23T13:50:24.999Z</time></trkpt><trkpt lat="41.819477563330196" lon="13.326865329576608"><ele>1399.0</ele><time>2026-04-23T13:50:25.999Z</time></trkpt><trkpt lat="41.81925720681787" lon="13.326953326991683"><ele>1399.0</ele><time>2026-04-23T13:50:26.999Z</time></trkpt><trkpt lat="41.81903093012123" lon="13.327116387620466"><ele>1397.5</ele><time>2026-04-23T13:50:27.999Z</time></trkpt><trkpt lat="41.818845755941716" lon="13.327274789712487"><ele>1396.0</ele><time>2026-04-23T13:50:28.999Z</time></trkpt><trkpt lat="41.818659815404686" lon="13.32750697610477"><ele>1390.6666666666665</ele><time>2026-04-23T13:50:29.999Z</time></trkpt><trkpt lat="41.81846528029281" lon="13.327725102008468"><ele>1385.3333333333333</ele><time>2026-04-23T13:50:30.999Z</time></trkpt><trkpt lat="41.81831882720813" lon="13.32789710049233"><ele>1380.0</ele><time>2026-04-23T13:50:31.999Z</time></trkpt><trkpt lat="41.81817142706059" lon="13.328061063587892"><ele>1380.0</ele><time>2026-04-23T13:50:32.999Z</time></trkpt><trkpt lat="41.81806753398995" lon="13.328208903486454"><ele>1380.0</ele><time>2026-04-23T13:50:33.999Z</time></trkpt><trkpt lat="41.81799623751175" lon="13.328404523429752"><ele>1380.0</ele><time>2026-04-23T13:50:34.999Z</time></trkpt><trkpt lat="41.817915721009584" lon="13.328621426525915"><ele>1383.5</ele><time>2026-04-23T13:50:35.999Z</time></trkpt><trkpt lat="41.817869921968416" lon="13.32894625425473"><ele>1387.0</ele><time>2026-04-23T13:50:36.999Z</time></trkpt><trkpt lat="41.817853261728544" lon="13.329258199572335"><ele>1387.0</ele><time>2026-04-23T13:50:37.999Z</time></trkpt><trkpt lat="41.817837602587225" lon="13.329543063820488"><ele>1387.0</ele><time>2026-04-23T13:50:38.999Z</time></trkpt><trkpt lat="41.81783266217843" lon="13.329805136449776"><ele>1387.0</ele><time>2026-04-23T13:50:39.999Z</time></trkpt><trkpt lat="41.81783574354429" lon="13.33002975636297"><ele>1385.0</ele><time>2026-04-23T13:50:40.999Z</time></trkpt><trkpt lat="41.81788059992098" lon="13.330246072757873"><ele>1383.0</ele><time>2026-04-23T13:50:41.999Z</time></trkpt><trkpt lat="41.817961229285736" lon="13.330466138241638"><ele>1381.0</ele><time>2026-04-23T13:50:42.999Z</time></trkpt><trkpt lat="41.81807679603159" lon="13.33066604613633"><ele>1377.0</ele><time>2026-04-23T13:50:43.999Z</time></trkpt><trkpt lat="41.81817311004526" lon="13.330862017730805"><ele>1373.0</ele><time>2026-04-23T13:50:44.999Z</time></trkpt><trkpt lat="41.81820010770379" lon="13.331107940961214"><ele>1369.0</ele><time>2026-04-23T13:50:45.999Z</time></trkpt><trkpt lat="41.81822518917529" lon="13.331383742928717"><ele>1366.5</ele><time>2026-04-23T13:50:46.999Z</time></trkpt><trkpt lat="41.818245033622006" lon="13.331602742834757"><ele>1364.0</ele><time>2026-04-23T13:50:47.999Z</time></trkpt><trkpt lat="41.81826224408057" lon="13.3317973439758"><ele>1361.5</ele><time>2026-04-23T13:50:48.999Z</time></trkpt><trkpt lat="41.818268674858956" lon="13.331968709981965"><ele>1359.0</ele><time>2026-04-23T13:50:49.999Z</time></trkpt><trkpt lat="41.81826691833527" lon="13.332096861126251"><ele>1359.0</ele><time>2026-04-23T13:50:50.999Z</time></trkpt><trkpt lat="41.81826020270409" lon="13.332192853054979"><ele>1359.0</ele><time>2026-04-23T13:50:51.999Z</time></trkpt><trkpt lat="41.818234874016035" lon="13.332316165607024"><ele>1359.0</ele><time>2026-04-23T13:50:53.999Z</time></trkpt><trkpt lat="41.818146080483544" lon="13.332393224081006"><ele>1359.0</ele><time>2026-04-23T13:50:56.999Z</time></trkpt><trkpt lat="41.81805203778399" lon="13.332413086198814"><ele>1359.0</ele><time>2026-04-23T13:50:58.999Z</time></trkpt><trkpt lat="41.817978754519785" lon="13.332325981837505"><ele>1359.0</ele><time>2026-04-23T13:51:00.999Z</time></trkpt><trkpt lat="41.81795688523252" lon="13.332214908403696"><ele>1359.0</ele><time>2026-04-23T13:51:02.999Z</time></trkpt><trkpt lat="41.81795564565129" lon="13.33211924728961"><ele>1359.0</ele><time>2026-04-23T13:51:04.999Z</time></trkpt><trkpt lat="41.817993015955395" lon="13.332012246382384"><ele>1359.0</ele><time>2026-04-23T13:51:06.999Z</time></trkpt><trkpt lat="41.81801837856839" lon="13.331898106888465"><ele>1359.0</ele><time>2026-04-23T13:51:08.999Z</time></trkpt><trkpt lat="41.81804524423786" lon="13.331795834757381"><ele>1359.0</ele><time>2026-04-23T13:51:11.999Z</time></trkpt><trkpt lat="41.81805636856496" lon="13.331686043278665"><ele>1359.0</ele><time>2026-04-23T13:51:31Z</time></trkpt><trkpt lat="41.81803463237102" lon="13.331526742629881"><ele>1359.0</ele><time>2026-04-23T13:51:33Z</time></trkpt><trkpt lat="41.81803007832162" lon="13.33144079146889"><ele>1359.0</ele><time>2026-04-23T13:51:34Z</time></trkpt><trkpt lat="41.818013515354444" lon="13.331332243287763"><ele>1359.0</ele><time>2026-04-23T13:51:35Z</time></trkpt><trkpt lat="41.81797393934302" lon="13.331221224038902"><ele>1359.0</ele><time>2026-04-23T13:51:36Z</time></trkpt><trkpt lat="41.817931286359" lon="13.331121444271181"><ele>1359.0</ele><time>2026-04-23T13:51:37Z</time></trkpt><trkpt lat="41.817890804702564" lon="13.331022569990406"><ele>1360.6666666666667</ele><time>2026-04-23T13:51:38Z</time></trkpt><trkpt lat="41.817857782149794" lon="13.330933437025505"><ele>1362.3333333333333</ele><time>2026-04-23T13:51:39Z</time></trkpt><trkpt lat="41.817816066031995" lon="13.330857458398318"><ele>1364.0</ele><time>2026-04-23T13:51:41Z</time></trkpt><trkpt lat="41.81782645206569" lon="13.33095108470824"><ele>1365.6666666666665</ele><time>2026-04-23T13:51:51Z</time></trkpt><trkpt lat="41.81786774315353" lon="13.33109999939341"><ele>1367.3333333333333</ele><time>2026-04-23T13:51:52Z</time></trkpt><trkpt lat="41.817923537696785" lon="13.33121751746061"><ele>1369.0</ele><time>2026-04-23T13:51:53Z</time></trkpt><trkpt lat="41.81796693593726" lon="13.331323359434256"><ele>1367.3333333333333</ele><time>2026-04-23T13:51:54Z</time></trkpt><trkpt lat="41.81796058580374" lon="13.331442796102992"><ele>1365.6666666666665</ele><time>2026-04-23T13:51:55Z</time></trkpt><trkpt lat="41.817976520354954" lon="13.331531540766077"><ele>1364.0</ele><time>2026-04-23T13:51:56Z</time></trkpt><trkpt lat="41.818045267788776" lon="13.331632515848218"><ele>1362.3333333333333</ele><time>2026-04-23T13:51:58Z</time></trkpt><trkpt lat="41.81805437304275" lon="13.331724691331596"><ele>1360.6666666666667</ele><time>2026-04-23T13:52:02Z</time></trkpt><trkpt lat="41.81799740547816" lon="13.331778341679973"><ele>1359.0</ele><time>2026-04-23T13:55:32.999Z</time></trkpt><trkpt lat="41.81805594370579" lon="13.33173917258948"><ele>1359.0</ele><time>2026-04-23T13:56:29.999Z</time></trkpt><trkpt lat="41.81799693795375" lon="13.331792634993544"><ele>1359.0</ele><time>2026-04-23T14:08:19Z</time></trkpt><trkpt lat="41.81806147311646" lon="13.331766357037306"><ele>1359.0</ele><time>2026-04-23T14:08:40Z</time></trkpt><trkpt lat="41.817974098039144" lon="13.331823720382049"><ele>1359.0</ele><time>2026-04-23T14:17:18Z</time></trkpt><trkpt lat="41.81794638366975" lon="13.331987807447272"><ele>1359.0</ele><time>2026-04-23T14:17:20Z</time></trkpt><trkpt lat="41.817930320950886" lon="13.332144587483382"><ele>1357.8333333333333</ele><time>2026-04-23T14:17:22Z</time></trkpt><trkpt lat="41.817940452769484" lon="13.332294861439873"><ele>1356.6666666666667</ele><time>2026-04-23T14:17:24Z</time></trkpt><trkpt lat="41.81797705558028" lon="13.33236504303522"><ele>1355.5</ele><time>2026-04-23T14:17:25Z</time></trkpt><trkpt lat="41.81801965201133" lon="13.332440904872868"><ele>1354.3333333333335</ele><time>2026-04-23T14:17:26Z</time></trkpt><trkpt lat="41.818092715705134" lon="13.33247284711089"><ele>1353.1666666666667</ele><time>2026-04-23T14:17:27Z</time></trkpt><trkpt lat="41.8181713788848" lon="13.332446871896218"><ele>1352.0</ele><time>2026-04-23T14:17:28Z</time></trkpt><trkpt lat="41.81822867842245" lon="13.332401692540788"><ele>1352.0</ele><time>2026-04-23T14:17:29Z</time></trkpt><trkpt lat="41.818272190582206" lon="13.332322364526789"><ele>1352.0</ele><time>2026-04-23T14:17:30Z</time></trkpt><trkpt lat="41.81830069767949" lon="13.332239842204718"><ele>1352.0</ele><time>2026-04-23T14:17:31Z</time></trkpt><trkpt lat="41.81831598021702" lon="13.33214320089747"><ele>1352.0</ele><time>2026-04-23T14:17:32Z</time></trkpt><trkpt lat="41.818312665169735" lon="13.332022619529669"><ele>1352.0</ele><time>2026-04-23T14:17:33Z</time></trkpt><trkpt lat="41.818309644479854" lon="13.331910072368972"><ele>1352.0</ele><time>2026-04-23T14:17:34Z</time></trkpt><trkpt lat="41.81831000089907" lon="13.331808595671852"><ele>1353.1666666666667</ele><time>2026-04-23T14:17:35Z</time></trkpt><trkpt lat="41.81830406020112" lon="13.33170175265076"><ele>1354.3333333333335</ele><time>2026-04-23T14:17:36Z</time></trkpt><trkpt lat="41.81829465640576" lon="13.331595874761685"><ele>1355.5</ele><time>2026-04-23T14:17:37Z</time></trkpt><trkpt lat="41.81828375365147" lon="13.331488451016186"><ele>1356.6666666666667</ele><time>2026-04-23T14:17:38Z</time></trkpt><trkpt lat="41.81827633757301" lon="13.331385019321043"><ele>1357.8333333333333</ele><time>2026-04-23T14:17:39Z</time></trkpt><trkpt lat="41.81826704867734" lon="13.331275336688423"><ele>1359.0</ele><time>2026-04-23T14:17:40Z</time></trkpt><trkpt lat="41.81826022961651" lon="13.331169178508803"><ele>1360.4285714285716</ele><time>2026-04-23T14:17:41Z</time></trkpt><trkpt lat="41.81824838055431" lon="13.331064497795175"><ele>1361.857142857143</ele><time>2026-04-23T14:17:42Z</time></trkpt><trkpt lat="41.81823757224593" lon="13.330968838945651"><ele>1363.2857142857142</ele><time>2026-04-23T14:17:43Z</time></trkpt><trkpt lat="41.81821339136001" lon="13.33087469176726"><ele>1364.7142857142858</ele><time>2026-04-23T14:17:44Z</time></trkpt><trkpt lat="41.81818559490057" lon="13.330783971549927"><ele>1366.142857142857</ele><time>2026-04-23T14:17:45Z</time></trkpt><trkpt lat="41.81815255687475" lon="13.330696654448303"><ele>1367.5714285714287</ele><time>2026-04-23T14:17:46Z</time></trkpt><trkpt lat="41.81811702576996" lon="13.330611770052942"><ele>1369.0</ele><time>2026-04-23T14:17:47Z</time></trkpt><trkpt lat="41.81807322296876" lon="13.330530682027163"><ele>1371.0</ele><time>2026-04-23T14:17:48Z</time></trkpt><trkpt lat="41.81803177833611" lon="13.330449997173877"><ele>1373.0</ele><time>2026-04-23T14:17:49Z</time></trkpt><trkpt lat="41.818003650679586" lon="13.330369293416963"><ele>1375.0</ele><time>2026-04-23T14:17:50Z</time></trkpt><trkpt lat="41.81797608030179" lon="13.330278306389863"><ele>1377.0</ele><time>2026-04-23T14:17:51Z</time></trkpt><trkpt lat="41.817957303020265" lon="13.330173847705598"><ele>1379.0</ele><time>2026-04-23T14:17:52Z</time></trkpt><trkpt lat="41.817936332437945" lon="13.330056462741908"><ele>1381.0</ele><time>2026-04-23T14:17:53Z</time></trkpt><trkpt lat="41.817924971148315" lon="13.329936589060198"><ele>1381.0</ele><time>2026-04-23T14:17:54Z</time></trkpt><trkpt lat="41.817933167894445" lon="13.329812126103965"><ele>1381.0</ele><time>2026-04-23T14:17:55Z</time></trkpt><trkpt lat="41.81793309940354" lon="13.329682210497452"><ele>1381.0</ele><time>2026-04-23T14:17:56Z</time></trkpt><trkpt lat="41.817928587904625" lon="13.329557852659601"><ele>1381.0</ele><time>2026-04-23T14:17:57Z</time></trkpt><trkpt lat="41.81793432273085" lon="13.329421203569723"><ele>1381.0</ele><time>2026-04-23T14:17:58Z</time></trkpt><trkpt lat="41.81794468512183" lon="13.329289983106893"><ele>1380.8</ele><time>2026-04-23T14:17:59Z</time></trkpt><trkpt lat="41.81795350602372" lon="13.32916734817309"><ele>1380.6</ele><time>2026-04-23T14:18:00Z</time></trkpt><trkpt lat="41.8179743130664" lon="13.329043757419877"><ele>1380.4</ele><time>2026-04-23T14:18:01Z</time></trkpt><trkpt lat="41.81798418653995" lon="13.328924533570726"><ele>1380.2</ele><time>2026-04-23T14:18:02Z</time></trkpt><trkpt lat="41.8179934876738" lon="13.32880236100748"><ele>1380.0</ele><time>2026-04-23T14:18:03Z</time></trkpt><trkpt lat="41.81801579003432" lon="13.328695936361001"><ele>1380.0</ele><time>2026-04-23T14:18:04Z</time></trkpt><trkpt lat="41.81804119654066" lon="13.328596031882391"><ele>1380.0</ele><time>2026-04-23T14:18:05Z</time></trkpt><trkpt lat="41.81805661072473" lon="13.328501023227249"><ele>1380.0</ele><time>2026-04-23T14:18:06Z</time></trkpt><trkpt lat="41.818092213644576" lon="13.32841284297047"><ele>1380.0</ele><time>2026-04-23T14:18:07Z</time></trkpt><trkpt lat="41.81812730410496" lon="13.328335760656843"><ele>1380.0</ele><time>2026-04-23T14:18:08Z</time></trkpt><trkpt lat="41.8181673726426" lon="13.328235134725634"><ele>1380.0</ele><time>2026-04-23T14:18:09Z</time></trkpt><trkpt lat="41.81821451191954" lon="13.328151991511792"><ele>1380.0</ele><time>2026-04-23T14:18:10Z</time></trkpt><trkpt lat="41.81827509940611" lon="13.328063189781599"><ele>1380.0</ele><time>2026-04-23T14:18:11Z</time></trkpt><trkpt lat="41.818346165340905" lon="13.327976511462184"><ele>1380.0</ele><time>2026-04-23T14:18:12Z</time></trkpt><trkpt lat="41.81842095519705" lon="13.32789092875336"><ele>1380.0</ele><time>2026-04-23T14:18:13Z</time></trkpt><trkpt lat="41.81849776289577" lon="13.327798116254158"><ele>1380.0</ele><time>2026-04-23T14:18:14Z</time></trkpt><trkpt lat="41.81856995714934" lon="13.327708138835"><ele>1383.2</ele><time>2026-04-23T14:18:15Z</time></trkpt><trkpt lat="41.81864005460736" lon="13.327625303737191"><ele>1386.4</ele><time>2026-04-23T14:18:16Z</time></trkpt><trkpt lat="41.81870681274516" lon="13.327546706285682"><ele>1389.6</ele><time>2026-04-23T14:18:17Z</time></trkpt><trkpt lat="41.8187730352078" lon="13.327465235494302"><ele>1392.8</ele><time>2026-04-23T14:18:18Z</time></trkpt><trkpt lat="41.8188394419649" lon="13.327382559667628"><ele>1396.0</ele><time>2026-04-23T14:18:19Z</time></trkpt><trkpt lat="41.8189093273531" lon="13.327299308314917"><ele>1396.6</ele><time>2026-04-23T14:18:20Z</time></trkpt><trkpt lat="41.81898416378198" lon="13.327217969107519"><ele>1397.1999999999998</ele><time>2026-04-23T14:18:21Z</time></trkpt><trkpt lat="41.81906689751644" lon="13.327143377878448"><ele>1397.8000000000002</ele><time>2026-04-23T14:18:22Z</time></trkpt><trkpt lat="41.81916093253185" lon="13.327079411204643"><ele>1398.4</ele><time>2026-04-23T14:18:23Z</time></trkpt><trkpt lat="41.819269128899165" lon="13.327008734710999"><ele>1399.0</ele><time>2026-04-23T14:18:24Z</time></trkpt><trkpt lat="41.81938384854357" lon="13.326942947618706"><ele>1399.0</ele><time>2026-04-23T14:18:25Z</time></trkpt><trkpt lat="41.81952021167392" lon="13.326895237123287"><ele>1399.0</ele><time>2026-04-23T14:18:26Z</time></trkpt><trkpt lat="41.81964524905843" lon="13.326894221868491"><ele>1399.0</ele><time>2026-04-23T14:18:27Z</time></trkpt><trkpt lat="41.819733173257525" lon="13.326893011380514"><ele>1399.0</ele><time>2026-04-23T14:18:28Z</time></trkpt><trkpt lat="41.81980063015522" lon="13.326869465834788"><ele>1399.0</ele><time>2026-04-23T14:18:29Z</time></trkpt><trkpt lat="41.81986019032962" lon="13.326840759292722"><ele>1399.0</ele><time>2026-04-23T14:18:30Z</time></trkpt><trkpt lat="41.81990837138559" lon="13.326777514111871"><ele>1399.0</ele><time>2026-04-23T14:18:31Z</time></trkpt><trkpt lat="41.81993585136869" lon="13.326682131486795"><ele>1399.0</ele><time>2026-04-23T14:18:32Z</time></trkpt><trkpt lat="41.81993858391575" lon="13.326559679290288"><ele>1399.0</ele><time>2026-04-23T14:18:33Z</time></trkpt><trkpt lat="41.819941224750806" lon="13.326448472042419"><ele>1399.0</ele><time>2026-04-23T14:18:34Z</time></trkpt><trkpt lat="41.819934863105594" lon="13.32632833032024"><ele>1399.0</ele><time>2026-04-23T14:18:35Z</time></trkpt><trkpt lat="41.81992973911517" lon="13.326209623870529"><ele>1397.6666666666665</ele><time>2026-04-23T14:18:36Z</time></trkpt><trkpt lat="41.819925102472766" lon="13.326108142306136"><ele>1396.3333333333333</ele><time>2026-04-23T14:18:37Z</time></trkpt><trkpt lat="41.81992472165523" lon="13.3260229623407"><ele>1395.0</ele><time>2026-04-23T14:18:38Z</time></trkpt><trkpt lat="41.81992377395436" lon="13.325890826641063"><ele>1393.6666666666667</ele><time>2026-04-23T14:18:40Z</time></trkpt><trkpt lat="41.819920191488684" lon="13.325994800963212"><ele>1392.3333333333335</ele><time>2026-04-23T14:18:54Z</time></trkpt><trkpt lat="41.8198928932902" lon="13.326106262709576"><ele>1391.0</ele><time>2026-04-23T14:18:55Z</time></trkpt><trkpt lat="41.81990288085711" lon="13.326231592084115"><ele>1391.0</ele><time>2026-04-23T14:18:56Z</time></trkpt><trkpt lat="41.8199129345645" lon="13.326385076564838"><ele>1391.0</ele><time>2026-04-23T14:18:57Z</time></trkpt><trkpt lat="41.81991909180136" lon="13.326547085420128"><ele>1391.0</ele><time>2026-04-23T14:18:58Z</time></trkpt><trkpt lat="41.81990508508322" lon="13.326646783951853"><ele>1391.0</ele><time>2026-04-23T14:18:59Z</time></trkpt><trkpt lat="41.81980804005311" lon="13.3267867762488"><ele>1393.0</ele><time>2026-04-23T14:19:01Z</time></trkpt><trkpt lat="41.819695186506365" lon="13.326817902723528"><ele>1395.0</ele><time>2026-04-23T14:19:02Z</time></trkpt><trkpt lat="41.81955414065459" lon="13.326802042256988"><ele>1397.0</ele><time>2026-04-23T14:19:03Z</time></trkpt><trkpt lat="41.81942748987804" lon="13.326797415526757"><ele>1399.0</ele><time>2026-04-23T14:19:04Z</time></trkpt><trkpt lat="41.819303849892805" lon="13.32686245730031"><ele>1398.25</ele><time>2026-04-23T14:19:05Z</time></trkpt><trkpt lat="41.81918225531216" lon="13.32693474634237"><ele>1397.5</ele><time>2026-04-23T14:19:06Z</time></trkpt><trkpt lat="41.81910135537326" lon="13.326999178117966"><ele>1396.75</ele><time>2026-04-23T14:19:07Z</time></trkpt><trkpt lat="41.81893717335135" lon="13.327160857903142"><ele>1396.0</ele><time>2026-04-23T14:19:08Z</time></trkpt><trkpt lat="41.81877931012675" lon="13.327289654360689"><ele>1374.0</ele><time>2026-04-23T14:19:09Z</time></trkpt><trkpt lat="41.81846606010849" lon="13.327675439358595"><ele>1352.0</ele><time>2026-04-23T14:19:10Z</time></trkpt><trkpt lat="41.81830101225571" lon="13.32784136873421"><ele>1352.0</ele><time>2026-04-23T14:19:11Z</time></trkpt><trkpt lat="41.81818711770054" lon="13.327990939703104"><ele>1352.0</ele><time>2026-04-23T14:19:12Z</time></trkpt><trkpt lat="41.81809821637561" lon="13.32812443687393"><ele>1352.0</ele><time>2026-04-23T14:19:13Z</time></trkpt><trkpt lat="41.81804764977197" lon="13.328245949552084"><ele>1352.0</ele><time>2026-04-23T14:19:14Z</time></trkpt><trkpt lat="41.81797595183379" lon="13.328417437312345"><ele>1361.3333333333335</ele><time>2026-04-23T14:19:15Z</time></trkpt><trkpt lat="41.81792030559311" lon="13.328645936853507"><ele>1370.6666666666667</ele><time>2026-04-23T14:19:16Z</time></trkpt><trkpt lat="41.81789420672808" lon="13.32888367435992"><ele>1380.0</ele><time>2026-04-23T14:19:17Z</time></trkpt><trkpt lat="41.81785965279624" lon="13.329155305351229"><ele>1380.3333333333333</ele><time>2026-04-23T14:19:18Z</time></trkpt><trkpt lat="41.81783969535833" lon="13.329461123833278"><ele>1380.6666666666665</ele><time>2026-04-23T14:19:19Z</time></trkpt><trkpt lat="41.81783517814031" lon="13.329702290020744"><ele>1381.0</ele><time>2026-04-23T14:19:20Z</time></trkpt><trkpt lat="41.81784097113143" lon="13.329942352105029"><ele>1381.0</ele><time>2026-04-23T14:19:21Z</time></trkpt><trkpt lat="41.81785750305234" lon="13.330148419735925"><ele>1381.0</ele><time>2026-04-23T14:19:22Z</time></trkpt><trkpt lat="41.817905650037204" lon="13.330338102669861"><ele>1381.0</ele><time>2026-04-23T14:19:23Z</time></trkpt><trkpt lat="41.81797760736836" lon="13.330534389367966"><ele>1377.0</ele><time>2026-04-23T14:19:24Z</time></trkpt><trkpt lat="41.81808726632178" lon="13.330727160753908"><ele>1373.0</ele><time>2026-04-23T14:19:25Z</time></trkpt><trkpt lat="41.818174604457894" lon="13.330935711682248"><ele>1369.0</ele><time>2026-04-23T14:19:26Z</time></trkpt><trkpt lat="41.818204980535675" lon="13.331158308387447"><ele>1365.6666666666665</ele><time>2026-04-23T14:19:27Z</time></trkpt><trkpt lat="41.81822668941932" lon="13.331399835942534"><ele>1362.3333333333333</ele><time>2026-04-23T14:19:28Z</time></trkpt><trkpt lat="41.818245781287956" lon="13.33161119672128"><ele>1359.0</ele><time>2026-04-23T14:19:29Z</time></trkpt><trkpt lat="41.818263665380535" lon="13.33181341485757"><ele>1359.0</ele><time>2026-04-23T14:19:30Z</time></trkpt><trkpt lat="41.81826892843882" lon="13.331984520227179"><ele>1359.0</ele><time>2026-04-23T14:19:31Z</time></trkpt><trkpt lat="41.81826586012133" lon="13.332134710275767"><ele>1359.0</ele><time>2026-04-23T14:19:32Z</time></trkpt><trkpt lat="41.81825212088978" lon="13.33226465490039"><ele>1359.0</ele><time>2026-04-23T14:19:33Z</time></trkpt><trkpt lat="41.81821610829216" lon="13.33234554979728"><ele>1359.0</ele><time>2026-04-23T14:19:34Z</time></trkpt><trkpt lat="41.81813704438574" lon="13.332423347601837"><ele>1359.0</ele><time>2026-04-23T14:19:36Z</time></trkpt><trkpt lat="41.81805874899267" lon="13.332405747291793"><ele>1359.0</ele><time>2026-04-23T14:19:38Z</time></trkpt><trkpt lat="41.817999335875434" lon="13.332340356177959"><ele>1359.0</ele><time>2026-04-23T14:19:39Z</time></trkpt><trkpt lat="41.81794629408938" lon="13.332282761884695"><ele>1359.0</ele><time>2026-04-23T14:19:40Z</time></trkpt><trkpt lat="41.81798411088743" lon="13.331985556841579"><ele>1359.0</ele><time>2026-04-23T14:19:41Z</time></trkpt><trkpt lat="41.81801549601927" lon="13.33178066659388"><ele>1359.0</ele><time>2026-04-23T14:19:42Z</time></trkpt><trkpt lat="41.81800945096946" lon="13.331585246279142"><ele>1359.0</ele><time>2026-04-23T14:19:43Z</time></trkpt><trkpt lat="41.81799026306527" lon="13.331387413031493"><ele>1359.0</ele><time>2026-04-23T14:19:44Z</time></trkpt><trkpt lat="41.81793260114771" lon="13.331137481396164"><ele>1362.3333333333333</ele><time>2026-04-23T14:19:45Z</time></trkpt><trkpt lat="41.817840887429625" lon="13.330890077437232"><ele>1365.6666666666665</ele><time>2026-04-23T14:19:46Z</time></trkpt><trkpt lat="41.81771210976715" lon="13.330685468046177"><ele>1369.0</ele><time>2026-04-23T14:19:47Z</time></trkpt><trkpt lat="41.81758539911702" lon="13.330453776471762"><ele>1360.0</ele><time>2026-04-23T14:19:48Z</time></trkpt><trkpt lat="41.8174778568227" lon="13.330240635478345"><ele>1351.0</ele><time>2026-04-23T14:19:49Z</time></trkpt><trkpt lat="41.81738293509098" lon="13.329996437197682"><ele>1342.0</ele><time>2026-04-23T14:19:50Z</time></trkpt><trkpt lat="41.81729618746399" lon="13.329703400493624"><ele>1342.0</ele><time>2026-04-23T14:19:51Z</time></trkpt><trkpt lat="41.81725077398507" lon="13.32943284965149"><ele>1342.0</ele><time>2026-04-23T14:19:52Z</time></trkpt><trkpt lat="41.81723647153292" lon="13.329195028842022"><ele>1342.0</ele><time>2026-04-23T14:19:53Z</time></trkpt><trkpt lat="41.817248755533356" lon="13.328985799039994"><ele>1338.6666666666665</ele><time>2026-04-23T14:19:54Z</time></trkpt><trkpt lat="41.817273164989246" lon="13.328758707677977"><ele>1335.3333333333333</ele><time>2026-04-23T14:19:55Z</time></trkpt><trkpt lat="41.81730678567877" lon="13.328513933850607"><ele>1332.0</ele><time>2026-04-23T14:19:56Z</time></trkpt><trkpt lat="41.817349505278074" lon="13.328295306624272"><ele>1332.0</ele><time>2026-04-23T14:19:57Z</time></trkpt><trkpt lat="41.81740809341421" lon="13.32809703367504"><ele>1332.0</ele><time>2026-04-23T14:19:58Z</time></trkpt><trkpt lat="41.81748239722879" lon="13.327939414071794"><ele>1332.0</ele><time>2026-04-23T14:19:59Z</time></trkpt><trkpt lat="41.817575034769646" lon="13.327790171141727"><ele>1332.0</ele><time>2026-04-23T14:20:00Z</time></trkpt><trkpt lat="41.817696914886255" lon="13.327647762231353"><ele>1328.6666666666667</ele><time>2026-04-23T14:20:01Z</time></trkpt><trkpt lat="41.81785949069866" lon="13.327498406158869"><ele>1325.3333333333335</ele><time>2026-04-23T14:20:02Z</time></trkpt><trkpt lat="41.81803868237447" lon="13.327317207249001"><ele>1322.0</ele><time>2026-04-23T14:20:03Z</time></trkpt><trkpt lat="41.818144079880405" lon="13.327169873244005"><ele>1322.0</ele><time>2026-04-23T14:20:04Z</time></trkpt><trkpt lat="41.81820574973621" lon="13.327025296355876"><ele>1322.0</ele><time>2026-04-23T14:20:05Z</time></trkpt><trkpt lat="41.818271086670656" lon="13.326838213584757"><ele>1322.0</ele><time>2026-04-23T14:20:06Z</time></trkpt><trkpt lat="41.8183433708262" lon="13.326636782889386"><ele>1322.0</ele><time>2026-04-23T14:20:07Z</time></trkpt><trkpt lat="41.8184543125923" lon="13.326408856848508"><ele>1329.6666666666667</ele><time>2026-04-23T14:20:08Z</time></trkpt><trkpt lat="41.818602199636885" lon="13.326217236321202"><ele>1337.3333333333333</ele><time>2026-04-23T14:20:09Z</time></trkpt><trkpt lat="41.81870186136962" lon="13.326028615198721"><ele>1345.0</ele><time>2026-04-23T14:20:10Z</time></trkpt><trkpt lat="41.81880355226091" lon="13.325879560910183"><ele>1345.0</ele><time>2026-04-23T14:20:11Z</time></trkpt><trkpt lat="41.81885996260581" lon="13.325728989670058"><ele>1345.0</ele><time>2026-04-23T14:20:12Z</time></trkpt><trkpt lat="41.81886914271629" lon="13.325567766509227"><ele>1345.0</ele><time>2026-04-23T14:20:13Z</time></trkpt><trkpt lat="41.81883526101076" lon="13.325347862746197"><ele>1345.0</ele><time>2026-04-23T14:20:14Z</time></trkpt><trkpt lat="41.81876463142303" lon="13.325216292490333"><ele>1344.3333333333333</ele><time>2026-04-23T14:20:15Z</time></trkpt><trkpt lat="41.81859325471851" lon="13.325010689913627"><ele>1343.6666666666667</ele><time>2026-04-23T14:20:16Z</time></trkpt><trkpt lat="41.81846320449712" lon="13.324841603945469"><ele>1343.0</ele><time>2026-04-23T14:20:17Z</time></trkpt><trkpt lat="41.81834124098276" lon="13.324634895236292"><ele>1332.5</ele><time>2026-04-23T14:20:18Z</time></trkpt><trkpt lat="41.81825369408957" lon="13.324441915924101"><ele>1322.0</ele><time>2026-04-23T14:20:19Z</time></trkpt><trkpt lat="41.81820202094989" lon="13.324278417316922"><ele>1311.5</ele><time>2026-04-23T14:20:20Z</time></trkpt><trkpt lat="41.81817528371813" lon="13.324107859933028"><ele>1301.0</ele><time>2026-04-23T14:20:21Z</time></trkpt><trkpt lat="41.818184650611066" lon="13.323979086828603"><ele>1301.0</ele><time>2026-04-23T14:20:22Z</time></trkpt><trkpt lat="41.81823586989583" lon="13.323908134615861"><ele>1301.0</ele><time>2026-04-23T14:20:23Z</time></trkpt><trkpt lat="41.81832559237711" lon="13.32379552675969"><ele>1301.0</ele><time>2026-04-23T14:20:24Z</time></trkpt><trkpt lat="41.81847957271495" lon="13.323628261225963"><ele>1301.0</ele><time>2026-04-23T14:20:25Z</time></trkpt><trkpt lat="41.81864867937784" lon="13.323458247003106"><ele>1302.6666666666667</ele><time>2026-04-23T14:20:26Z</time></trkpt><trkpt lat="41.81881576133522" lon="13.32329026091222"><ele>1304.3333333333333</ele><time>2026-04-23T14:20:27Z</time></trkpt><trkpt lat="41.81897003000862" lon="13.32311727662113"><ele>1306.0</ele><time>2026-04-23T14:20:28Z</time></trkpt><trkpt lat="41.819083625994246" lon="13.322989357814075"><ele>1306.0</ele><time>2026-04-23T14:20:29Z</time></trkpt><trkpt lat="41.81913369665066" lon="13.32289583811678"><ele>1306.0</ele><time>2026-04-23T14:20:30Z</time></trkpt><trkpt lat="41.81914785665008" lon="13.322772812177288"><ele>1306.0</ele><time>2026-04-23T14:20:31Z</time></trkpt><trkpt lat="41.819142843839984" lon="13.322652913213512"><ele>1306.0</ele><time>2026-04-23T14:20:32Z</time></trkpt><trkpt lat="41.81911432026154" lon="13.322501691869554"><ele>1306.0</ele><time>2026-04-23T14:20:33Z</time></trkpt><trkpt lat="41.81902189689534" lon="13.322384551688605"><ele>1310.3333333333333</ele><time>2026-04-23T14:20:34Z</time></trkpt><trkpt lat="41.81883562456857" lon="13.32215948199637"><ele>1314.6666666666667</ele><time>2026-04-23T14:20:35Z</time></trkpt><trkpt lat="41.8187602673672" lon="13.322076118100366"><ele>1319.0</ele><time>2026-04-23T14:20:36Z</time></trkpt><trkpt lat="41.818596916976574" lon="13.321897302172989"><ele>1306.0</ele><time>2026-04-23T14:20:37Z</time></trkpt><trkpt lat="41.81847574130492" lon="13.321766364016817"><ele>1293.0</ele><time>2026-04-23T14:20:38Z</time></trkpt><trkpt lat="41.81835237953151" lon="13.321633063721846"><ele>1280.0</ele><time>2026-04-23T14:20:39Z</time></trkpt><trkpt lat="41.81822595480088" lon="13.321493904846095"><ele>1283.25</ele><time>2026-04-23T14:20:40Z</time></trkpt><trkpt lat="41.818112744125976" lon="13.321363272870911"><ele>1286.5</ele><time>2026-04-23T14:20:41Z</time></trkpt><trkpt lat="41.818018850110676" lon="13.321238124206735"><ele>1289.75</ele><time>2026-04-23T14:20:42Z</time></trkpt><trkpt lat="41.81795602793128" lon="13.321107114857258"><ele>1293.0</ele><time>2026-04-23T14:20:43Z</time></trkpt><trkpt lat="41.81794659468003" lon="13.320879180178348"><ele>1293.0</ele><time>2026-04-23T14:20:44Z</time></trkpt><trkpt lat="41.81792024891702" lon="13.320695513094226"><ele>1293.0</ele><time>2026-04-23T14:20:45Z</time></trkpt><trkpt lat="41.81785898272913" lon="13.320532474576575"><ele>1293.0</ele><time>2026-04-23T14:20:46Z</time></trkpt><trkpt lat="41.81778903155412" lon="13.320435560090134"><ele>1293.0</ele><time>2026-04-23T14:20:47Z</time></trkpt><trkpt lat="41.817710284110724" lon="13.320351533653657"><ele>1285.25</ele><time>2026-04-23T14:20:48Z</time></trkpt><trkpt lat="41.8176066026962" lon="13.320232755659125"><ele>1277.5</ele><time>2026-04-23T14:20:49Z</time></trkpt><trkpt lat="41.817552286057094" lon="13.32010697391989"><ele>1269.75</ele><time>2026-04-23T14:20:50Z</time></trkpt><trkpt lat="41.817559585119305" lon="13.319994872652215"><ele>1262.0</ele><time>2026-04-23T14:20:51Z</time></trkpt><trkpt lat="41.81763194413996" lon="13.319859047209802"><ele>1271.0</ele><time>2026-04-23T14:20:52Z</time></trkpt><trkpt lat="41.81775510778369" lon="13.319547895550777"><ele>1280.0</ele><time>2026-04-23T14:20:53Z</time></trkpt><trkpt lat="41.81786660316552" lon="13.319310860361885"><ele>1280.0</ele><time>2026-04-23T14:20:54Z</time></trkpt><trkpt lat="41.8179454740596" lon="13.319069919384681"><ele>1280.0</ele><time>2026-04-23T14:20:55Z</time></trkpt><trkpt lat="41.81797876433042" lon="13.318863131880997"><ele>1280.0</ele><time>2026-04-23T14:20:56Z</time></trkpt><trkpt lat="41.81796348810432" lon="13.318762141615574"><ele>1280.0</ele><time>2026-04-23T14:20:58Z</time></trkpt><trkpt lat="41.81788956247751" lon="13.318643288680049"><ele>1279.3333333333335</ele><time>2026-04-23T14:20:59Z</time></trkpt><trkpt lat="41.81777919403958" lon="13.31855523445633"><ele>1278.6666666666667</ele><time>2026-04-23T14:21:00Z</time></trkpt><trkpt lat="41.817612114292814" lon="13.31851650744581"><ele>1278.0</ele><time>2026-04-23T14:21:01Z</time></trkpt><trkpt lat="41.8174404468321" lon="13.318499973621464"><ele>1271.3333333333333</ele><time>2026-04-23T14:21:02Z</time></trkpt><trkpt lat="41.81725862104724" lon="13.318444399585637"><ele>1264.6666666666665</ele><time>2026-04-23T14:21:03Z</time></trkpt><trkpt lat="41.81706616916169" lon="13.318388768678053"><ele>1258.0</ele><time>2026-04-23T14:21:04Z</time></trkpt><trkpt lat="41.8168672133519" lon="13.318332174419114"><ele>1253.6666666666665</ele><time>2026-04-23T14:21:05Z</time></trkpt><trkpt lat="41.81665476200439" lon="13.318293035529512"><ele>1249.3333333333333</ele><time>2026-04-23T14:21:06Z</time></trkpt><trkpt lat="41.81644554136877" lon="13.31823937582766"><ele>1245.0</ele><time>2026-04-23T14:21:07Z</time></trkpt><trkpt lat="41.816240539172" lon="13.318173876019376"><ele>1245.0</ele><time>2026-04-23T14:21:08Z</time></trkpt><trkpt lat="41.81605389513871" lon="13.318136045469448"><ele>1245.0</ele><time>2026-04-23T14:21:09Z</time></trkpt><trkpt lat="41.81587030178821" lon="13.318092810090082"><ele>1245.0</ele><time>2026-04-23T14:21:10Z</time></trkpt><trkpt lat="41.81568939128117" lon="13.318034827694062"><ele>1242.6666666666667</ele><time>2026-04-23T14:21:11Z</time></trkpt><trkpt lat="41.81550034145516" lon="13.317945651969824"><ele>1240.3333333333335</ele><time>2026-04-23T14:21:12Z</time></trkpt><trkpt lat="41.815307260772684" lon="13.317834606650344"><ele>1238.0</ele><time>2026-04-23T14:21:13Z</time></trkpt><trkpt lat="41.815113877044645" lon="13.31772213065262"><ele>1233.5</ele><time>2026-04-23T14:21:14Z</time></trkpt><trkpt lat="41.81493787190955" lon="13.317543779054258"><ele>1229.0</ele><time>2026-04-23T14:21:15Z</time></trkpt><trkpt lat="41.814727139283555" lon="13.317370834993648"><ele>1228.3333333333335</ele><time>2026-04-23T14:21:16Z</time></trkpt><trkpt lat="41.814545652256164" lon="13.317204170439796"><ele>1227.6666666666667</ele><time>2026-04-23T14:21:17Z</time></trkpt><trkpt lat="41.814382426669894" lon="13.317043791976875"><ele>1227.0</ele><time>2026-04-23T14:21:18Z</time></trkpt><trkpt lat="41.81423177976721" lon="13.31689667110427"><ele>1224.5</ele><time>2026-04-23T14:21:19Z</time></trkpt><trkpt lat="41.814105450324625" lon="13.31676019800925"><ele>1222.0</ele><time>2026-04-23T14:21:20Z</time></trkpt><trkpt lat="41.813997206511104" lon="13.316626563500453"><ele>1219.5</ele><time>2026-04-23T14:21:21Z</time></trkpt><trkpt lat="41.813919221190346" lon="13.316483617687428"><ele>1217.0</ele><time>2026-04-23T14:21:22Z</time></trkpt><trkpt lat="41.81386445751342" lon="13.316344852935389"><ele>1215.75</ele><time>2026-04-23T14:21:23Z</time></trkpt><trkpt lat="41.81386056678724" lon="13.316179811317223"><ele>1214.5</ele><time>2026-04-23T14:21:24Z</time></trkpt><trkpt lat="41.81390352437634" lon="13.316011274223962"><ele>1213.25</ele><time>2026-04-23T14:21:25Z</time></trkpt><trkpt lat="41.81391425303954" lon="13.315839227705359"><ele>1212.0</ele><time>2026-04-23T14:21:26Z</time></trkpt><trkpt lat="41.81388698064649" lon="13.31567543638584"><ele>1212.0</ele><time>2026-04-23T14:21:27Z</time></trkpt><trkpt lat="41.81383670060956" lon="13.31550624061252"><ele>1212.0</ele><time>2026-04-23T14:21:28Z</time></trkpt><trkpt lat="41.81377688315662" lon="13.315361081234975"><ele>1212.0</ele><time>2026-04-23T14:21:29Z</time></trkpt><trkpt lat="41.8137103129579" lon="13.315263960948819"><ele>1212.0</ele><time>2026-04-23T14:21:30Z</time></trkpt><trkpt lat="41.81363223949304" lon="13.31519908255374"><ele>1212.0</ele><time>2026-04-23T14:21:31Z</time></trkpt><trkpt lat="41.81353188007911" lon="13.315185681841598"><ele>1212.0</ele><time>2026-04-23T14:21:32Z</time></trkpt><trkpt lat="41.81341950310545" lon="13.315221978370507"><ele>1212.0</ele><time>2026-04-23T14:21:33Z</time></trkpt><trkpt lat="41.81330534039358" lon="13.315282125444824"><ele>1212.0</ele><time>2026-04-23T14:21:34Z</time></trkpt><trkpt lat="41.81320854925194" lon="13.31540580034688"><ele>1210.3333333333333</ele><time>2026-04-23T14:21:35Z</time></trkpt><trkpt lat="41.81311131216028" lon="13.315593042410237"><ele>1208.6666666666665</ele><time>2026-04-23T14:21:36Z</time></trkpt><trkpt lat="41.813063804842706" lon="13.315812461170003"><ele>1207.0</ele><time>2026-04-23T14:21:37Z</time></trkpt><trkpt lat="41.81304971775716" lon="13.316027513658156"><ele>1207.0</ele><time>2026-04-23T14:21:38Z</time></trkpt><trkpt lat="41.81307497551563" lon="13.316230457026506"><ele>1207.0</ele><time>2026-04-23T14:21:39Z</time></trkpt><trkpt lat="41.8131055559089" lon="13.316394748879635"><ele>1207.0</ele><time>2026-04-23T14:21:40Z</time></trkpt><trkpt lat="41.81316789729377" lon="13.316531874573547"><ele>1207.0</ele><time>2026-04-23T14:21:41Z</time></trkpt><trkpt lat="41.813249057032074" lon="13.316637757026163"><ele>1205.8333333333333</ele><time>2026-04-23T14:21:42Z</time></trkpt><trkpt lat="41.81332534617097" lon="13.316716278720104"><ele>1204.6666666666665</ele><time>2026-04-23T14:21:43Z</time></trkpt><trkpt lat="41.81337710447199" lon="13.316798507097673"><ele>1203.5</ele><time>2026-04-23T14:21:44Z</time></trkpt><trkpt lat="41.813345704772615" lon="13.316916730467526"><ele>1202.3333333333333</ele><time>2026-04-23T14:21:46Z</time></trkpt><trkpt lat="41.8132866080584" lon="13.316970194377113"><ele>1201.1666666666667</ele><time>2026-04-23T14:21:47Z</time></trkpt><trkpt lat="41.813193415739335" lon="13.316985166418466"><ele>1200.0</ele><time>2026-04-23T14:21:48Z</time></trkpt><trkpt lat="41.81307582367253" lon="13.316910283637476"><ele>1200.0</ele><time>2026-04-23T14:21:49Z</time></trkpt><trkpt lat="41.81292042552568" lon="13.316784004956931"><ele>1200.0</ele><time>2026-04-23T14:21:50Z</time></trkpt><trkpt lat="41.81282128794161" lon="13.316664792414032"><ele>1200.0</ele><time>2026-04-23T14:21:51Z</time></trkpt><trkpt lat="41.812732305098606" lon="13.31633806956487"><ele>1200.3333333333333</ele><time>2026-04-23T14:21:52Z</time></trkpt><trkpt lat="41.81270605069467" lon="13.316096732741597"><ele>1200.6666666666665</ele><time>2026-04-23T14:21:53Z</time></trkpt><trkpt lat="41.81268969548888" lon="13.315804656582335"><ele>1201.0</ele><time>2026-04-23T14:21:54Z</time></trkpt><trkpt lat="41.81269965311382" lon="13.315561398952749"><ele>1201.0</ele><time>2026-04-23T14:21:55Z</time></trkpt><trkpt lat="41.812705738296266" lon="13.315366970417509"><ele>1201.0</ele><time>2026-04-23T14:21:56Z</time></trkpt><trkpt lat="41.81272960118196" lon="13.315198762175948"><ele>1201.0</ele><time>2026-04-23T14:21:57Z</time></trkpt><trkpt lat="41.81278210232514" lon="13.315002648887663"><ele>1201.0</ele><time>2026-04-23T14:21:58Z</time></trkpt><trkpt lat="41.8128480425407" lon="13.314793620534937"><ele>1197.75</ele><time>2026-04-23T14:21:59Z</time></trkpt><trkpt lat="41.81291042580724" lon="13.314630532956793"><ele>1194.5</ele><time>2026-04-23T14:22:00Z</time></trkpt><trkpt lat="41.81299402730512" lon="13.314488657353888"><ele>1191.25</ele><time>2026-04-23T14:22:01Z</time></trkpt><trkpt lat="41.81310384879149" lon="13.314325468325256"><ele>1188.0</ele><time>2026-04-23T14:22:02Z</time></trkpt><trkpt lat="41.813207443093724" lon="13.31413606114574"><ele>1188.0</ele><time>2026-04-23T14:22:03Z</time></trkpt><trkpt lat="41.813228253851925" lon="13.313915365604906"><ele>1188.0</ele><time>2026-04-23T14:22:04Z</time></trkpt><trkpt lat="41.81324410426424" lon="13.313641572421016"><ele>1188.0</ele><time>2026-04-23T14:22:05Z</time></trkpt><trkpt lat="41.813273662540986" lon="13.31334914552453"><ele>1185.0</ele><time>2026-04-23T14:22:06Z</time></trkpt><trkpt lat="41.81330085994763" lon="13.313091593858877"><ele>1182.0</ele><time>2026-04-23T14:22:07Z</time></trkpt><trkpt lat="41.81335805229837" lon="13.312908202382305"><ele>1179.0</ele><time>2026-04-23T14:22:08Z</time></trkpt><trkpt lat="41.81341309044562" lon="13.312790262038416"><ele>1176.0</ele><time>2026-04-23T14:22:09Z</time></trkpt><trkpt lat="41.81348381294538" lon="13.31263557101779"><ele>1176.25</ele><time>2026-04-23T14:22:10Z</time></trkpt><trkpt lat="41.813559724356814" lon="13.312474328184317"><ele>1176.5</ele><time>2026-04-23T14:22:11Z</time></trkpt><trkpt lat="41.8136312250637" lon="13.312341602795245"><ele>1176.75</ele><time>2026-04-23T14:22:12Z</time></trkpt><trkpt lat="41.8137366877847" lon="13.312238679032632"><ele>1177.0</ele><time>2026-04-23T14:22:13Z</time></trkpt><trkpt lat="41.81386226407114" lon="13.312124770494181"><ele>1173.5</ele><time>2026-04-23T14:22:14Z</time></trkpt><trkpt lat="41.81395914798931" lon="13.311995924339994"><ele>1170.0</ele><time>2026-04-23T14:22:15Z</time></trkpt><trkpt lat="41.81403323319334" lon="13.311823717873088"><ele>1166.5</ele><time>2026-04-23T14:22:16Z</time></trkpt><trkpt lat="41.814080674652764" lon="13.3116416231723"><ele>1163.0</ele><time>2026-04-23T14:22:17Z</time></trkpt><trkpt lat="41.814123444455824" lon="13.311433414360609"><ele>1162.25</ele><time>2026-04-23T14:22:18Z</time></trkpt><trkpt lat="41.81420269431316" lon="13.31129129065738"><ele>1161.5</ele><time>2026-04-23T14:22:19Z</time></trkpt><trkpt lat="41.81434046966934" lon="13.311219060408881"><ele>1160.75</ele><time>2026-04-23T14:22:20Z</time></trkpt><trkpt lat="41.81447750205641" lon="13.311104688522047"><ele>1160.0</ele><time>2026-04-23T14:22:21Z</time></trkpt><trkpt lat="41.814554484527314" lon="13.310961856527369"><ele>1158.4</ele><time>2026-04-23T14:22:22Z</time></trkpt><trkpt lat="41.81462274369694" lon="13.310845336071004"><ele>1156.8</ele><time>2026-04-23T14:22:23Z</time></trkpt><trkpt lat="41.81465658830432" lon="13.310696386465997"><ele>1155.2</ele><time>2026-04-23T14:22:24Z</time></trkpt><trkpt lat="41.81467644904743" lon="13.310547031667307"><ele>1153.6</ele><time>2026-04-23T14:22:25Z</time></trkpt><trkpt lat="41.81461363971709" lon="13.310466212366924"><ele>1152.0</ele><time>2026-04-23T14:22:26Z</time></trkpt><trkpt lat="41.8144423092258" lon="13.310151954208258"><ele>1151.5</ele><time>2026-04-23T14:22:27Z</time></trkpt><trkpt lat="41.814343283803254" lon="13.3100194442145"><ele>1151.0</ele><time>2026-04-23T14:22:28Z</time></trkpt><trkpt lat="41.81423099534513" lon="13.309930088703975"><ele>1150.5</ele><time>2026-04-23T14:22:29Z</time></trkpt><trkpt lat="41.814093818463" lon="13.309863972594664"><ele>1150.0</ele><time>2026-04-23T14:22:30Z</time></trkpt><trkpt lat="41.8140186094418" lon="13.309876685928701"><ele>1150.0</ele><time>2026-04-23T14:22:31Z</time></trkpt><trkpt lat="41.81384758187353" lon="13.309965485146742"><ele>1150.0</ele><time>2026-04-23T14:22:33Z</time></trkpt><trkpt lat="41.81378762451068" lon="13.31014133607782"><ele>1150.0</ele><time>2026-04-23T14:22:34Z</time></trkpt><trkpt lat="41.813728785559036" lon="13.31026682607065"><ele>1150.0</ele><time>2026-04-23T14:22:35Z</time></trkpt><trkpt lat="41.81371329637623" lon="13.310518277887274"><ele>1153.3333333333333</ele><time>2026-04-23T14:22:36Z</time></trkpt><trkpt lat="41.81375529825526" lon="13.310712253679288"><ele>1156.6666666666667</ele><time>2026-04-23T14:22:37Z</time></trkpt><trkpt lat="41.8137590480584" lon="13.310884592593904"><ele>1160.0</ele><time>2026-04-23T14:22:38Z</time></trkpt><trkpt lat="41.81369733343215" lon="13.311147412893218"><ele>1160.0</ele><time>2026-04-23T14:22:39Z</time></trkpt><trkpt lat="41.81361484769241" lon="13.311348347537383"><ele>1160.0</ele><time>2026-04-23T14:22:40Z</time></trkpt><trkpt lat="41.813538659944584" lon="13.31154583535635"><ele>1160.0</ele><time>2026-04-23T14:22:41Z</time></trkpt><trkpt lat="41.81345465113124" lon="13.311682614589234"><ele>1156.0</ele><time>2026-04-23T14:22:42Z</time></trkpt><trkpt lat="41.81331536727995" lon="13.311824768899584"><ele>1152.0</ele><time>2026-04-23T14:22:43Z</time></trkpt><trkpt lat="41.81318873343375" lon="13.311975908359095"><ele>1148.0</ele><time>2026-04-23T14:22:44Z</time></trkpt><trkpt lat="41.813070059414656" lon="13.312090563632234"><ele>1151.6666666666667</ele><time>2026-04-23T14:22:45Z</time></trkpt><trkpt lat="41.81298856522077" lon="13.312287381480663"><ele>1155.3333333333333</ele><time>2026-04-23T14:22:46Z</time></trkpt><trkpt lat="41.81288085917709" lon="13.312524074655371"><ele>1159.0</ele><time>2026-04-23T14:22:47Z</time></trkpt><trkpt lat="41.812770966900146" lon="13.31275442217912"><ele>1159.0</ele><time>2026-04-23T14:22:48Z</time></trkpt><trkpt lat="41.81267268860053" lon="13.312990442820112"><ele>1159.0</ele><time>2026-04-23T14:22:49Z</time></trkpt><trkpt lat="41.812582715212066" lon="13.313219159229488"><ele>1159.0</ele><time>2026-04-23T14:22:50Z</time></trkpt><trkpt lat="41.8125047997544" lon="13.313431678696546"><ele>1151.6666666666665</ele><time>2026-04-23T14:22:51Z</time></trkpt><trkpt lat="41.812393856083204" lon="13.313566523559553"><ele>1144.3333333333333</ele><time>2026-04-23T14:22:52Z</time></trkpt><trkpt lat="41.81223102613924" lon="13.313678975170369"><ele>1137.0</ele><time>2026-04-23T14:22:53Z</time></trkpt><trkpt lat="41.81205123917446" lon="13.313779170697575"><ele>1132.3333333333333</ele><time>2026-04-23T14:22:54Z</time></trkpt><trkpt lat="41.811917091847974" lon="13.313971905696183"><ele>1127.6666666666665</ele><time>2026-04-23T14:22:55Z</time></trkpt><trkpt lat="41.811774038566455" lon="13.314203668118195"><ele>1123.0</ele><time>2026-04-23T14:22:56Z</time></trkpt><trkpt lat="41.81165861970738" lon="13.314404113966457"><ele>1123.0</ele><time>2026-04-23T14:22:57Z</time></trkpt><trkpt lat="41.81152143414673" lon="13.31455341065397"><ele>1123.0</ele><time>2026-04-23T14:22:58Z</time></trkpt><trkpt lat="41.81142788915816" lon="13.3146361260386"><ele>1123.0</ele><time>2026-04-23T14:22:59Z</time></trkpt><trkpt lat="41.81133694372005" lon="13.314653554432988"><ele>1123.0</ele><time>2026-04-23T14:23:00Z</time></trkpt><trkpt lat="41.811248476344694" lon="13.314625457004633"><ele>1123.0</ele><time>2026-04-23T14:23:01Z</time></trkpt><trkpt lat="41.81116953978676" lon="13.314539695779875"><ele>1123.0</ele><time>2026-04-23T14:23:02Z</time></trkpt><trkpt lat="41.81108337935162" lon="13.314425695024612"><ele>1123.0</ele><time>2026-04-23T14:23:03Z</time></trkpt><trkpt lat="41.8110195744613" lon="13.314297052166555"><ele>1123.0</ele><time>2026-04-23T14:23:04Z</time></trkpt><trkpt lat="41.81098354946296" lon="13.314125757981227"><ele>1123.0</ele><time>2026-04-23T14:23:05Z</time></trkpt><trkpt lat="41.811011713250416" lon="13.313951034436974"><ele>1123.0</ele><time>2026-04-23T14:23:06Z</time></trkpt><trkpt lat="41.811142677704986" lon="13.31376075646669"><ele>1123.0</ele><time>2026-04-23T14:23:07Z</time></trkpt><trkpt lat="41.8112903864775" lon="13.31354352469694"><ele>1120.0</ele><time>2026-04-23T14:23:08Z</time></trkpt><trkpt lat="41.811384887137926" lon="13.313295843202708"><ele>1117.0</ele><time>2026-04-23T14:23:09Z</time></trkpt><trkpt lat="41.81147482577646" lon="13.313072588486788"><ele>1114.0</ele><time>2026-04-23T14:23:10Z</time></trkpt><trkpt lat="41.81145256667972" lon="13.312881910597776"><ele>1112.75</ele><time>2026-04-23T14:23:11Z</time></trkpt><trkpt lat="41.81141675670842" lon="13.31275441372006"><ele>1111.5</ele><time>2026-04-23T14:23:12Z</time></trkpt><trkpt lat="41.81135577127552" lon="13.312579850239997"><ele>1110.25</ele><time>2026-04-23T14:23:13Z</time></trkpt><trkpt lat="41.81128437518848" lon="13.312384111433275"><ele>1109.0</ele><time>2026-04-23T14:23:14Z</time></trkpt><trkpt lat="41.811243398422185" lon="13.3121452160733"><ele>1108.0</ele><time>2026-04-23T14:23:15Z</time></trkpt><trkpt lat="41.81125162204082" lon="13.311990027368129"><ele>1107.0</ele><time>2026-04-23T14:23:16Z</time></trkpt><trkpt lat="41.811290405107286" lon="13.311887288505597"><ele>1106.0</ele><time>2026-04-23T14:23:17Z</time></trkpt><trkpt lat="41.811473919947964" lon="13.311800198321908"><ele>1105.0</ele><time>2026-04-23T14:23:18Z</time></trkpt><trkpt lat="41.81152758019418" lon="13.311647430476473"><ele>1105.0</ele><time>2026-04-23T14:23:19Z</time></trkpt><trkpt lat="41.811599531560475" lon="13.311497818173898"><ele>1105.0</ele><time>2026-04-23T14:23:20Z</time></trkpt><trkpt lat="41.811587669395124" lon="13.311334980494719"><ele>1105.0</ele><time>2026-04-23T14:23:21Z</time></trkpt><trkpt lat="41.811568608009345" lon="13.311084064967586"><ele>1105.0</ele><time>2026-04-23T14:23:22Z</time></trkpt><trkpt lat="41.81153079700403" lon="13.3107620362496"><ele>1102.0</ele><time>2026-04-23T14:23:23Z</time></trkpt><trkpt lat="41.81149553804456" lon="13.310414823597977"><ele>1099.0</ele><time>2026-04-23T14:23:24Z</time></trkpt><trkpt lat="41.811442956121574" lon="13.310027097036835"><ele>1096.6666666666665</ele><time>2026-04-23T14:23:25Z</time></trkpt><trkpt lat="41.81138696490965" lon="13.309703309069603"><ele>1094.3333333333333</ele><time>2026-04-23T14:23:26Z</time></trkpt><trkpt lat="41.811349447081454" lon="13.309467781437174"><ele>1092.0</ele><time>2026-04-23T14:23:27Z</time></trkpt><trkpt lat="41.81129334447077" lon="13.30919680911049"><ele>1092.0</ele><time>2026-04-23T14:23:28Z</time></trkpt><trkpt lat="41.81124811630908" lon="13.308976881558786"><ele>1092.0</ele><time>2026-04-23T14:23:29Z</time></trkpt><trkpt lat="41.81116810819684" lon="13.308812960007623"><ele>1092.0</ele><time>2026-04-23T14:23:30Z</time></trkpt><trkpt lat="41.81107164630172" lon="13.308681608186207"><ele>1090.5</ele><time>2026-04-23T14:23:31Z</time></trkpt><trkpt lat="41.81099722825612" lon="13.308620656146093"><ele>1089.0</ele><time>2026-04-23T14:23:32Z</time></trkpt><trkpt lat="41.81090013297901" lon="13.308566785718789"><ele>1087.5</ele><time>2026-04-23T14:23:33Z</time></trkpt><trkpt lat="41.81077842976985" lon="13.308599656321983"><ele>1086.0</ele><time>2026-04-23T14:23:34Z</time></trkpt><trkpt lat="41.810653557680205" lon="13.308680730934089"><ele>1084.3333333333333</ele><time>2026-04-23T14:23:35Z</time></trkpt><trkpt lat="41.81055082171485" lon="13.308832987798784"><ele>1082.6666666666665</ele><time>2026-04-23T14:23:36Z</time></trkpt><trkpt lat="41.81039828007823" lon="13.309022094807796"><ele>1081.0</ele><time>2026-04-23T14:23:37Z</time></trkpt><trkpt lat="41.810319949428" lon="13.309247133918763"><ele>1080.0</ele><time>2026-04-23T14:23:38Z</time></trkpt><trkpt lat="41.810236529666696" lon="13.30941064204446"><ele>1079.0</ele><time>2026-04-23T14:23:39Z</time></trkpt><trkpt lat="41.81015227986818" lon="13.309507531496187"><ele>1078.0</ele><time>2026-04-23T14:23:40Z</time></trkpt><trkpt lat="41.81003838752179" lon="13.30950177757083"><ele>1077.0</ele><time>2026-04-23T14:23:41Z</time></trkpt><trkpt lat="41.80986259420941" lon="13.309526650071419"><ele>1077.0</ele><time>2026-04-23T14:23:42Z</time></trkpt><trkpt lat="41.80969626932787" lon="13.30955193492182"><ele>1077.0</ele><time>2026-04-23T14:23:43Z</time></trkpt><trkpt lat="41.8095254292237" lon="13.309639795090291"><ele>1077.0</ele><time>2026-04-23T14:23:44Z</time></trkpt><trkpt lat="41.809351174665316" lon="13.309730253212106"><ele>1076.3333333333333</ele><time>2026-04-23T14:23:45Z</time></trkpt><trkpt lat="41.809215012012395" lon="13.309843662692009"><ele>1075.6666666666665</ele><time>2026-04-23T14:23:46Z</time></trkpt><trkpt lat="41.809118180060416" lon="13.309982922621018"><ele>1075.0</ele><time>2026-04-23T14:23:47Z</time></trkpt><trkpt lat="41.80904436127815" lon="13.31015766264436"><ele>1075.0</ele><time>2026-04-23T14:23:48Z</time></trkpt><trkpt lat="41.80899719549449" lon="13.310338609780928"><ele>1075.0</ele><time>2026-04-23T14:23:49Z</time></trkpt><trkpt lat="41.80895115947854" lon="13.310540305448312"><ele>1075.0</ele><time>2026-04-23T14:23:50Z</time></trkpt><trkpt lat="41.808942281539856" lon="13.310727576620147"><ele>1075.0</ele><time>2026-04-23T14:23:51Z</time></trkpt><trkpt lat="41.808963112040885" lon="13.310887037345035"><ele>1075.75</ele><time>2026-04-23T14:23:52Z</time></trkpt><trkpt lat="41.8089769481041" lon="13.311080719843142"><ele>1076.5</ele><time>2026-04-23T14:23:53Z</time></trkpt><trkpt lat="41.808982329515864" lon="13.311261174230099"><ele>1077.25</ele><time>2026-04-23T14:23:54Z</time></trkpt><trkpt lat="41.808938355062274" lon="13.31138208049367"><ele>1078.0</ele><time>2026-04-23T14:23:55Z</time></trkpt><trkpt lat="41.80886047606614" lon="13.31147569260422"><ele>1078.0</ele><time>2026-04-23T14:23:56Z</time></trkpt><trkpt lat="41.8087249139112" lon="13.311428962650838"><ele>1078.0</ele><time>2026-04-23T14:23:57Z</time></trkpt><trkpt lat="41.808606698665116" lon="13.311398084945104"><ele>1078.0</ele><time>2026-04-23T14:23:58Z</time></trkpt><trkpt lat="41.80851855371111" lon="13.311299108457867"><ele>1078.0</ele><time>2026-04-23T14:23:59Z</time></trkpt><trkpt lat="41.80848066447708" lon="13.31116205119351"><ele>1069.6666666666665</ele><time>2026-04-23T14:24:00Z</time></trkpt><trkpt lat="41.808432833999305" lon="13.31098117412097"><ele>1061.3333333333333</ele><time>2026-04-23T14:24:01Z</time></trkpt><trkpt lat="41.80836277962332" lon="13.310714553495075"><ele>1053.0</ele><time>2026-04-23T14:24:02Z</time></trkpt><trkpt lat="41.808341141942854" lon="13.31047352968034"><ele>1052.6666666666667</ele><time>2026-04-23T14:24:03Z</time></trkpt><trkpt lat="41.80832820437052" lon="13.31024387177268"><ele>1052.3333333333335</ele><time>2026-04-23T14:24:04Z</time></trkpt><trkpt lat="41.808287334375834" lon="13.309986087759954"><ele>1052.0</ele><time>2026-04-23T14:24:05Z</time></trkpt><trkpt lat="41.80826601895493" lon="13.309724179440815"><ele>1049.75</ele><time>2026-04-23T14:24:06Z</time></trkpt><trkpt lat="41.808257442441864" lon="13.309523716870064"><ele>1047.5</ele><time>2026-04-23T14:24:07Z</time></trkpt><trkpt lat="41.80825356145562" lon="13.309312312047451"><ele>1045.25</ele><time>2026-04-23T14:24:08Z</time></trkpt><trkpt lat="41.808277269503826" lon="13.309144592027925"><ele>1043.0</ele><time>2026-04-23T14:24:09Z</time></trkpt><trkpt lat="41.80831143638341" lon="13.30896829290672"><ele>1045.3333333333335</ele><time>2026-04-23T14:24:10Z</time></trkpt><trkpt lat="41.80838165113346" lon="13.308801800016342"><ele>1047.6666666666667</ele><time>2026-04-23T14:24:11Z</time></trkpt><trkpt lat="41.80848670240803" lon="13.308698497503828"><ele>1050.0</ele><time>2026-04-23T14:24:12Z</time></trkpt><trkpt lat="41.80867025840041" lon="13.30866504773328"><ele>1050.0</ele><time>2026-04-23T14:24:13Z</time></trkpt><trkpt lat="41.80878433767541" lon="13.308572496791498"><ele>1050.0</ele><time>2026-04-23T14:24:14Z</time></trkpt><trkpt lat="41.80883653789948" lon="13.308323775829198"><ele>1050.0</ele><time>2026-04-23T14:24:15Z</time></trkpt><trkpt lat="41.80894279680286" lon="13.30812604949272"><ele>1051.3333333333333</ele><time>2026-04-23T14:24:16Z</time></trkpt><trkpt lat="41.809043049834884" lon="13.308028344189609"><ele>1052.6666666666665</ele><time>2026-04-23T14:24:17Z</time></trkpt><trkpt lat="41.80911994233375" lon="13.30787856250944"><ele>1054.0</ele><time>2026-04-23T14:24:18Z</time></trkpt><trkpt lat="41.80933398269147" lon="13.307773868858842"><ele>1054.0</ele><time>2026-04-23T14:24:19Z</time></trkpt><trkpt lat="41.80945510062268" lon="13.307638704469221"><ele>1054.0</ele><time>2026-04-23T14:24:20Z</time></trkpt><trkpt lat="41.80951559574363" lon="13.307461838023816"><ele>1054.0</ele><time>2026-04-23T14:24:21Z</time></trkpt><trkpt lat="41.809567838094786" lon="13.307209033274274"><ele>1049.6666666666665</ele><time>2026-04-23T14:24:22Z</time></trkpt><trkpt lat="41.80964175265842" lon="13.306962900029488"><ele>1045.3333333333333</ele><time>2026-04-23T14:24:23Z</time></trkpt><trkpt lat="41.80972864649527" lon="13.306764844488297"><ele>1041.0</ele><time>2026-04-23T14:24:24Z</time></trkpt><trkpt lat="41.809833643267844" lon="13.306581767731023"><ele>1038.5</ele><time>2026-04-23T14:24:25Z</time></trkpt><trkpt lat="41.809915939947835" lon="13.306372130555765"><ele>1036.0</ele><time>2026-04-23T14:24:26Z</time></trkpt><trkpt lat="41.809960921497755" lon="13.306215335158184"><ele>1033.5</ele><time>2026-04-23T14:24:27Z</time></trkpt><trkpt lat="41.80996938771098" lon="13.306019002978967"><ele>1031.0</ele><time>2026-04-23T14:24:28Z</time></trkpt><trkpt lat="41.8099402461293" lon="13.305811043829138"><ele>1028.3333333333335</ele><time>2026-04-23T14:24:29Z</time></trkpt><trkpt lat="41.809939097601" lon="13.305551074370497"><ele>1025.6666666666667</ele><time>2026-04-23T14:24:30Z</time></trkpt><trkpt lat="41.809968464636796" lon="13.305223056809417"><ele>1023.0</ele><time>2026-04-23T14:24:31Z</time></trkpt><trkpt lat="41.809979990117625" lon="13.30489830535857"><ele>1019.3333333333333</ele><time>2026-04-23T14:24:32Z</time></trkpt><trkpt lat="41.81001255792791" lon="13.304619802336205"><ele>1015.6666666666666</ele><time>2026-04-23T14:24:33Z</time></trkpt><trkpt lat="41.810054122566164" lon="13.304387726482895"><ele>1012.0</ele><time>2026-04-23T14:24:34Z</time></trkpt><trkpt lat="41.810134940522246" lon="13.304287298518613"><ele>1015.5</ele><time>2026-04-23T14:24:35Z</time></trkpt><trkpt lat="41.81021199949887" lon="13.304169373553984"><ele>1019.0</ele><time>2026-04-23T14:24:36Z</time></trkpt><trkpt lat="41.81029022309097" lon="13.304171732434513"><ele>1022.5</ele><time>2026-04-23T14:24:37Z</time></trkpt><trkpt lat="41.81047063104432" lon="13.304066420145809"><ele>1026.0</ele><time>2026-04-23T14:24:38Z</time></trkpt><trkpt lat="41.81065062134221" lon="13.303951426200001"><ele>1022.3333333333333</ele><time>2026-04-23T14:24:39Z</time></trkpt><trkpt lat="41.81080835255602" lon="13.303787080784208"><ele>1018.6666666666666</ele><time>2026-04-23T14:24:40Z</time></trkpt><trkpt lat="41.81088880183687" lon="13.303589817160336"><ele>1015.0</ele><time>2026-04-23T14:24:41Z</time></trkpt><trkpt lat="41.81089563418476" lon="13.303462827050275"><ele>1015.0</ele><time>2026-04-23T14:24:42Z</time></trkpt><trkpt lat="41.81091669952533" lon="13.303288999128686"><ele>1015.0</ele><time>2026-04-23T14:24:43Z</time></trkpt><trkpt lat="41.810910424024165" lon="13.303088863767744"><ele>1015.0</ele><time>2026-04-23T14:24:44Z</time></trkpt><trkpt lat="41.81090559243475" lon="13.302842560230491"><ele>1012.5</ele><time>2026-04-23T14:24:45Z</time></trkpt><trkpt lat="41.81090716462381" lon="13.302639269717009"><ele>1010.0</ele><time>2026-04-23T14:24:46Z</time></trkpt><trkpt lat="41.81093042131017" lon="13.302506614150216"><ele>1007.5</ele><time>2026-04-23T14:24:47Z</time></trkpt><trkpt lat="41.81102729504441" lon="13.302401465941704"><ele>1005.0</ele><time>2026-04-23T14:24:48Z</time></trkpt><trkpt lat="41.81113886618124" lon="13.302298218380118"><ele>1002.75</ele><time>2026-04-23T14:24:49Z</time></trkpt><trkpt lat="41.81129743243142" lon="13.302201281876792"><ele>1000.5</ele><time>2026-04-23T14:24:50Z</time></trkpt><trkpt lat="41.81143127924388" lon="13.30215316955142"><ele>998.25</ele><time>2026-04-23T14:24:51Z</time></trkpt><trkpt lat="41.81156081610188" lon="13.302145278407945"><ele>996.0</ele><time>2026-04-23T14:24:52Z</time></trkpt><trkpt lat="41.81167081278835" lon="13.302201626963859"><ele>995.75</ele><time>2026-04-23T14:24:53Z</time></trkpt><trkpt lat="41.81176193074899" lon="13.302264467349577"><ele>995.5</ele><time>2026-04-23T14:24:54Z</time></trkpt><trkpt lat="41.81186946412218" lon="13.302367104299616"><ele>995.25</ele><time>2026-04-23T14:24:55Z</time></trkpt><trkpt lat="41.812054810401115" lon="13.30235748513402"><ele>995.0</ele><time>2026-04-23T14:24:56Z</time></trkpt><trkpt lat="41.81213367363069" lon="13.302537270722015"><ele>995.0</ele><time>2026-04-23T14:24:57Z</time></trkpt><trkpt lat="41.81216575122647" lon="13.302685676246794"><ele>995.0</ele><time>2026-04-23T14:24:58Z</time></trkpt><trkpt lat="41.812198493426045" lon="13.302943807683295"><ele>995.0</ele><time>2026-04-23T14:24:59Z</time></trkpt><trkpt lat="41.81233495884841" lon="13.302969121681299"><ele>995.0</ele><time>2026-04-23T14:25:00Z</time></trkpt><trkpt lat="41.81245441661678" lon="13.302976541954656"><ele>995.0</ele><time>2026-04-23T14:25:01Z</time></trkpt><trkpt lat="41.81255223549458" lon="13.302961311167351"><ele>995.0</ele><time>2026-04-23T14:25:02Z</time></trkpt><trkpt lat="41.81258528482587" lon="13.302840365262428"><ele>995.0</ele><time>2026-04-23T14:25:03Z</time></trkpt><trkpt lat="41.81259328409872" lon="13.30272557643851"><ele>995.0</ele><time>2026-04-23T14:25:04Z</time></trkpt><trkpt lat="41.81259727370001" lon="13.30263198749494"><ele>995.0</ele><time>2026-04-23T14:25:05Z</time></trkpt><trkpt lat="41.81259331615166" lon="13.302413093962697"><ele>991.0</ele><time>2026-04-23T14:25:06Z</time></trkpt><trkpt lat="41.812709477797455" lon="13.302220070407635"><ele>987.0</ele><time>2026-04-23T14:25:07Z</time></trkpt><trkpt lat="41.81280272827572" lon="13.302049973510195"><ele>983.0</ele><time>2026-04-23T14:25:08Z</time></trkpt><trkpt lat="41.81292705987431" lon="13.301964995048907"><ele>983.0</ele><time>2026-04-23T14:25:09Z</time></trkpt><trkpt lat="41.81308757530984" lon="13.30191661253407"><ele>983.0</ele><time>2026-04-23T14:25:10Z</time></trkpt><trkpt lat="41.81321929621537" lon="13.301806202434058"><ele>983.0</ele><time>2026-04-23T14:25:11Z</time></trkpt><trkpt lat="41.81333251864812" lon="13.301593854328253"><ele>983.0</ele><time>2026-04-23T14:25:12Z</time></trkpt><trkpt lat="41.81345091135201" lon="13.301443573837204"><ele>983.0</ele><time>2026-04-23T14:25:13Z</time></trkpt><trkpt lat="41.81355978673151" lon="13.301364593965749"><ele>983.0</ele><time>2026-04-23T14:25:14Z</time></trkpt><trkpt lat="41.81367911851958" lon="13.301347252742879"><ele>983.0</ele><time>2026-04-23T14:25:15Z</time></trkpt><trkpt lat="41.81382412528468" lon="13.301381799136347"><ele>983.5</ele><time>2026-04-23T14:25:16Z</time></trkpt><trkpt lat="41.81397734417039" lon="13.3014230275451"><ele>984.0</ele><time>2026-04-23T14:25:17Z</time></trkpt><trkpt lat="41.81410671294" lon="13.301424648656383"><ele>984.5</ele><time>2026-04-23T14:25:18Z</time></trkpt><trkpt lat="41.81422229083777" lon="13.301349715880155"><ele>985.0</ele><time>2026-04-23T14:25:19Z</time></trkpt><trkpt lat="41.81434076642108" lon="13.30129751166647"><ele>985.25</ele><time>2026-04-23T14:25:20Z</time></trkpt><trkpt lat="41.81441239543726" lon="13.30116660660908"><ele>985.5</ele><time>2026-04-23T14:25:21Z</time></trkpt><trkpt lat="41.81448779041065" lon="13.30097789138259"><ele>985.75</ele><time>2026-04-23T14:25:22Z</time></trkpt><trkpt lat="41.81453890263708" lon="13.300805668938237"><ele>986.0</ele><time>2026-04-23T14:25:23Z</time></trkpt><trkpt lat="41.81456691613308" lon="13.30060014668785"><ele>982.0</ele><time>2026-04-23T14:25:24Z</time></trkpt><trkpt lat="41.81455544159811" lon="13.300403343922058"><ele>978.0</ele><time>2026-04-23T14:25:25Z</time></trkpt><trkpt lat="41.81448106215316" lon="13.30022286300519"><ele>974.0</ele><time>2026-04-23T14:25:26Z</time></trkpt><trkpt lat="41.8143397431946" lon="13.300014038404345"><ele>970.3333333333334</ele><time>2026-04-23T14:25:27Z</time></trkpt><trkpt lat="41.81423000647532" lon="13.299807476639646"><ele>966.6666666666667</ele><time>2026-04-23T14:25:28Z</time></trkpt><trkpt lat="41.81411763259509" lon="13.299556630813834"><ele>963.0</ele><time>2026-04-23T14:25:29Z</time></trkpt><trkpt lat="41.81404857506895" lon="13.29933597965227"><ele>960.5</ele><time>2026-04-23T14:25:30Z</time></trkpt><trkpt lat="41.8139789875014" lon="13.299155831803409"><ele>958.0</ele><time>2026-04-23T14:25:31Z</time></trkpt><trkpt lat="41.813906632201885" lon="13.298968360776794"><ele>955.5</ele><time>2026-04-23T14:25:32Z</time></trkpt><trkpt lat="41.81382680331756" lon="13.298839780806512"><ele>953.0</ele><time>2026-04-23T14:25:33Z</time></trkpt><trkpt lat="41.81372097873765" lon="13.29876047464926"><ele>952.4</ele><time>2026-04-23T14:25:34Z</time></trkpt><trkpt lat="41.8136193186011" lon="13.298712607000812"><ele>951.8</ele><time>2026-04-23T14:25:35Z</time></trkpt><trkpt lat="41.813532956461614" lon="13.2987164908372"><ele>951.2</ele><time>2026-04-23T14:25:36Z</time></trkpt><trkpt lat="41.81342427689831" lon="13.298792325817255"><ele>950.6</ele><time>2026-04-23T14:25:37Z</time></trkpt><trkpt lat="41.81335690236826" lon="13.298917114729322"><ele>950.0</ele><time>2026-04-23T14:25:38Z</time></trkpt><trkpt lat="41.81333532589177" lon="13.29908196450335"><ele>950.0</ele><time>2026-04-23T14:25:39Z</time></trkpt><trkpt lat="41.813358605796275" lon="13.299258089347314"><ele>950.0</ele><time>2026-04-23T14:25:40Z</time></trkpt><trkpt lat="41.813357457506896" lon="13.299463815448325"><ele>950.0</ele><time>2026-04-23T14:25:41Z</time></trkpt><trkpt lat="41.81335712781872" lon="13.299639329618003"><ele>950.0</ele><time>2026-04-23T14:25:42Z</time></trkpt><trkpt lat="41.8133406424166" lon="13.299791075528042"><ele>951.5</ele><time>2026-04-23T14:25:43Z</time></trkpt><trkpt lat="41.81326217817734" lon="13.299909060166982"><ele>953.0</ele><time>2026-04-23T14:25:44Z</time></trkpt><trkpt lat="41.8131617324938" lon="13.300006879532331"><ele>954.5</ele><time>2026-04-23T14:25:45Z</time></trkpt><trkpt lat="41.813048109936666" lon="13.300014223765535"><ele>956.0</ele><time>2026-04-23T14:25:46Z</time></trkpt><trkpt lat="41.812933458135525" lon="13.299981510284926"><ele>956.0</ele><time>2026-04-23T14:25:47Z</time></trkpt><trkpt lat="41.81282206819039" lon="13.29990787448516"><ele>956.0</ele><time>2026-04-23T14:25:48Z</time></trkpt><trkpt lat="41.81269819079216" lon="13.299704097135443"><ele>956.0</ele><time>2026-04-23T14:25:49Z</time></trkpt><trkpt lat="41.812625605563674" lon="13.299527666041264"><ele>952.0</ele><time>2026-04-23T14:25:50Z</time></trkpt><trkpt lat="41.8125536610669" lon="13.299336879749674"><ele>948.0</ele><time>2026-04-23T14:25:51Z</time></trkpt><trkpt lat="41.812471045735236" lon="13.299131628506185"><ele>944.0</ele><time>2026-04-23T14:25:52Z</time></trkpt><trkpt lat="41.81240580444058" lon="13.298872236015091"><ele>940.0</ele><time>2026-04-23T14:25:53Z</time></trkpt><trkpt lat="41.81235996748571" lon="13.298615237311427"><ele>936.0</ele><time>2026-04-23T14:25:54Z</time></trkpt><trkpt lat="41.8123217074559" lon="13.298410184662158"><ele>932.0</ele><time>2026-04-23T14:25:55Z</time></trkpt><trkpt lat="41.812261878924936" lon="13.298232239521518"><ele>932.0</ele><time>2026-04-23T14:25:56Z</time></trkpt><trkpt lat="41.81216922282699" lon="13.298088471691486"><ele>932.0</ele><time>2026-04-23T14:25:57Z</time></trkpt><trkpt lat="41.812058414172526" lon="13.297946669093262"><ele>932.0</ele><time>2026-04-23T14:25:58Z</time></trkpt><trkpt lat="41.81189548209631" lon="13.297833608932523"><ele>928.6666666666667</ele><time>2026-04-23T14:25:59Z</time></trkpt><trkpt lat="41.81177033120874" lon="13.297699519218785"><ele>925.3333333333333</ele><time>2026-04-23T14:26:00Z</time></trkpt><trkpt lat="41.81172679950977" lon="13.297462218300273"><ele>922.0</ele><time>2026-04-23T14:26:01Z</time></trkpt><trkpt lat="41.811639689480664" lon="13.297266228074532"><ele>919.0</ele><time>2026-04-23T14:26:02Z</time></trkpt><trkpt lat="41.81157244197993" lon="13.297088343491165"><ele>916.0</ele><time>2026-04-23T14:26:03Z</time></trkpt><trkpt lat="41.81148048565662" lon="13.296993827967398"><ele>913.0</ele><time>2026-04-23T14:26:04Z</time></trkpt><trkpt lat="41.811320539471254" lon="13.29693010239852"><ele>910.0</ele><time>2026-04-23T14:26:05Z</time></trkpt><trkpt lat="41.8111121247992" lon="13.296915624706948"><ele>911.3333333333333</ele><time>2026-04-23T14:26:06Z</time></trkpt><trkpt lat="41.81088028426741" lon="13.296944169006688"><ele>912.6666666666667</ele><time>2026-04-23T14:26:07Z</time></trkpt><trkpt lat="41.810681315942716" lon="13.296947981768062"><ele>914.0</ele><time>2026-04-23T14:26:08Z</time></trkpt><trkpt lat="41.81050015786576" lon="13.296968458928468"><ele>914.0</ele><time>2026-04-23T14:26:09Z</time></trkpt><trkpt lat="41.81043766384564" lon="13.297024615708004"><ele>914.0</ele><time>2026-04-23T14:26:10Z</time></trkpt><trkpt lat="41.81029724435398" lon="13.297141061733686"><ele>914.0</ele><time>2026-04-23T14:26:11Z</time></trkpt><trkpt lat="41.810189386282794" lon="13.297330837798683"><ele>914.0</ele><time>2026-04-23T14:26:12Z</time></trkpt><trkpt lat="41.81012157433171" lon="13.297554418156166"><ele>910.75</ele><time>2026-04-23T14:26:13Z</time></trkpt><trkpt lat="41.81006930435991" lon="13.29774385087686"><ele>907.5</ele><time>2026-04-23T14:26:14Z</time></trkpt><trkpt lat="41.80997692804801" lon="13.29787846742845"><ele>904.25</ele><time>2026-04-23T14:26:15Z</time></trkpt><trkpt lat="41.80984777926179" lon="13.29792002314623"><ele>901.0</ele><time>2026-04-23T14:26:16Z</time></trkpt><trkpt lat="41.809711180264806" lon="13.297903875186835"><ele>901.0</ele><time>2026-04-23T14:26:17Z</time></trkpt><trkpt lat="41.80954438892703" lon="13.297930737028775"><ele>901.0</ele><time>2026-04-23T14:26:18Z</time></trkpt><trkpt lat="41.809375872951236" lon="13.297970950880282"><ele>901.0</ele><time>2026-04-23T14:26:19Z</time></trkpt><trkpt lat="41.809240859743774" lon="13.298079445806781"><ele>901.6666666666666</ele><time>2026-04-23T14:26:20Z</time></trkpt><trkpt lat="41.80905760436399" lon="13.298246863492793"><ele>902.3333333333333</ele><time>2026-04-23T14:26:21Z</time></trkpt><trkpt lat="41.808873268456" lon="13.298413957666673"><ele>903.0</ele><time>2026-04-23T14:26:22Z</time></trkpt><trkpt lat="41.808769891975125" lon="13.298535458227482"><ele>903.0</ele><time>2026-04-23T14:26:22.999Z</time></trkpt><trkpt lat="41.80871634333729" lon="13.298717853923074"><ele>903.0</ele><time>2026-04-23T14:26:23.999Z</time></trkpt><trkpt lat="41.8086867316912" lon="13.29890610244481"><ele>903.0</ele><time>2026-04-23T14:26:24.999Z</time></trkpt><trkpt lat="41.8086679813601" lon="13.299151491736843"><ele>906.5</ele><time>2026-04-23T14:26:25.999Z</time></trkpt><trkpt lat="41.80867151735347" lon="13.299368076784813"><ele>910.0</ele><time>2026-04-23T14:26:26.999Z</time></trkpt><trkpt lat="41.80864079592399" lon="13.299559236739919"><ele>913.5</ele><time>2026-04-23T14:26:27.999Z</time></trkpt><trkpt lat="41.80859423580387" lon="13.299703660324468"><ele>917.0</ele><time>2026-04-23T14:26:28.999Z</time></trkpt><trkpt lat="41.808518321057704" lon="13.29980649990655"><ele>912.5</ele><time>2026-04-23T14:26:29.999Z</time></trkpt><trkpt lat="41.808430901670526" lon="13.29983416755962"><ele>908.0</ele><time>2026-04-23T14:26:30.999Z</time></trkpt><trkpt lat="41.80831736182375" lon="13.299809030975139"><ele>903.5</ele><time>2026-04-23T14:26:31.999Z</time></trkpt><trkpt lat="41.80821248253192" lon="13.299749199772213"><ele>899.0</ele><time>2026-04-23T14:26:32.999Z</time></trkpt><trkpt lat="41.80803546019301" lon="13.299674769983207"><ele>895.5</ele><time>2026-04-23T14:26:33.999Z</time></trkpt><trkpt lat="41.80787353271577" lon="13.299693494664872"><ele>892.0</ele><time>2026-04-23T14:26:34.999Z</time></trkpt><trkpt lat="41.80773867041786" lon="13.29974513994057"><ele>888.5</ele><time>2026-04-23T14:26:35.999Z</time></trkpt><trkpt lat="41.80762825967384" lon="13.299866851857791"><ele>885.0</ele><time>2026-04-23T14:26:36.999Z</time></trkpt><trkpt lat="41.80754938740287" lon="13.300044846040821"><ele>884.3333333333333</ele><time>2026-04-23T14:26:37.999Z</time></trkpt><trkpt lat="41.807476924878436" lon="13.300241184586707"><ele>883.6666666666666</ele><time>2026-04-23T14:26:38.999Z</time></trkpt><trkpt lat="41.807444709278585" lon="13.300487570003511"><ele>883.0</ele><time>2026-04-23T14:26:39.999Z</time></trkpt><trkpt lat="41.807427827222554" lon="13.300714106260594"><ele>883.0</ele><time>2026-04-23T14:26:40.999Z</time></trkpt><trkpt lat="41.807396283874894" lon="13.300917823898844"><ele>883.0</ele><time>2026-04-23T14:26:41.999Z</time></trkpt><trkpt lat="41.80730327041496" lon="13.301055774260222"><ele>883.0</ele><time>2026-04-23T14:26:42.999Z</time></trkpt><trkpt lat="41.80719944898623" lon="13.30124941634344"><ele>887.3333333333333</ele><time>2026-04-23T14:26:43.999Z</time></trkpt><trkpt lat="41.80709718457874" lon="13.30143356784029"><ele>891.6666666666667</ele><time>2026-04-23T14:26:44.999Z</time></trkpt><trkpt lat="41.80703077641967" lon="13.301663447652363"><ele>896.0</ele><time>2026-04-23T14:26:45.999Z</time></trkpt><trkpt lat="41.80700965286958" lon="13.30193818554971"><ele>896.0</ele><time>2026-04-23T14:26:46.999Z</time></trkpt><trkpt lat="41.807013389830225" lon="13.302210507779542"><ele>896.0</ele><time>2026-04-23T14:26:47.999Z</time></trkpt><trkpt lat="41.80703629844963" lon="13.302526233441752"><ele>896.0</ele><time>2026-04-23T14:26:48.999Z</time></trkpt><trkpt lat="41.807073264644266" lon="13.302864185293076"><ele>892.0</ele><time>2026-04-23T14:26:49.999Z</time></trkpt><trkpt lat="41.80712386739122" lon="13.303329219326693"><ele>888.0</ele><time>2026-04-23T14:26:50.999Z</time></trkpt><trkpt lat="41.80716562793044" lon="13.303698061981912"><ele>883.5</ele><time>2026-04-23T14:26:51.999Z</time></trkpt><trkpt lat="41.80723468615879" lon="13.304101753177015"><ele>879.0</ele><time>2026-04-23T14:26:52.999Z</time></trkpt><trkpt lat="41.80727656730176" lon="13.304390683524504"><ele>879.0</ele><time>2026-04-23T14:26:53.999Z</time></trkpt><trkpt lat="41.80728175920546" lon="13.304632985319136"><ele>879.0</ele><time>2026-04-23T14:26:55Z</time></trkpt><trkpt lat="41.80727215546343" lon="13.30484240497772"><ele>879.0</ele><time>2026-04-23T14:26:56Z</time></trkpt><trkpt lat="41.80723840781589" lon="13.305018168624178"><ele>879.6666666666667</ele><time>2026-04-23T14:26:57Z</time></trkpt><trkpt lat="41.807172988106096" lon="13.305134483676326"><ele>880.3333333333334</ele><time>2026-04-23T14:26:58Z</time></trkpt><trkpt lat="41.80709630031307" lon="13.305239679620138"><ele>881.0</ele><time>2026-04-23T14:26:59Z</time></trkpt><trkpt lat="41.80687662060819" lon="13.305390000479605"><ele>875.6666666666667</ele><time>2026-04-23T14:27:00Z</time></trkpt><trkpt lat="41.806666531196" lon="13.305516369836907"><ele>870.3333333333333</ele><time>2026-04-23T14:27:01Z</time></trkpt><trkpt lat="41.80647003032534" lon="13.305624531834654"><ele>865.0</ele><time>2026-04-23T14:27:02Z</time></trkpt><trkpt lat="41.80629077648991" lon="13.305738485314969"><ele>865.0</ele><time>2026-04-23T14:27:03Z</time></trkpt><trkpt lat="41.80615145360991" lon="13.305824922332945"><ele>865.0</ele><time>2026-04-23T14:27:04Z</time></trkpt><trkpt lat="41.806034219631215" lon="13.306006648840812"><ele>865.0</ele><time>2026-04-23T14:27:05Z</time></trkpt><trkpt lat="41.80592043333607" lon="13.306243492841226"><ele>854.0</ele><time>2026-04-23T14:27:06Z</time></trkpt><trkpt lat="41.80580881984582" lon="13.306503966568897"><ele>843.0</ele><time>2026-04-23T14:27:07Z</time></trkpt><trkpt lat="41.805668651348846" lon="13.306842941930427"><ele>843.0</ele><time>2026-04-23T14:27:08Z</time></trkpt><trkpt lat="41.80552319373755" lon="13.307183251450718"><ele>843.0</ele><time>2026-04-23T14:27:09Z</time></trkpt><trkpt lat="41.80540248731491" lon="13.307497562316748"><ele>847.5</ele><time>2026-04-23T14:27:10Z</time></trkpt><trkpt lat="41.80528957559549" lon="13.307799956026935"><ele>852.0</ele><time>2026-04-23T14:27:11Z</time></trkpt><trkpt lat="41.805171700251236" lon="13.308054413815515"><ele>846.0</ele><time>2026-04-23T14:27:12Z</time></trkpt><trkpt lat="41.805038227726115" lon="13.308271804761487"><ele>840.0</ele><time>2026-04-23T14:27:13Z</time></trkpt><trkpt lat="41.80489432063572" lon="13.30851054210532"><ele>834.0</ele><time>2026-04-23T14:27:14Z</time></trkpt><trkpt lat="41.80476033118105" lon="13.308759666423573"><ele>839.5</ele><time>2026-04-23T14:27:15Z</time></trkpt><trkpt lat="41.804620141783374" lon="13.309002598309952"><ele>845.0</ele><time>2026-04-23T14:27:16Z</time></trkpt><trkpt lat="41.804478467401566" lon="13.30924014364248"><ele>845.0</ele><time>2026-04-23T14:27:17Z</time></trkpt><trkpt lat="41.804351451802674" lon="13.309447011380332"><ele>845.0</ele><time>2026-04-23T14:27:18Z</time></trkpt><trkpt lat="41.80428362270956" lon="13.309574305232907"><ele>845.0</ele><time>2026-04-23T14:27:19Z</time></trkpt><trkpt lat="41.80417935026142" lon="13.309747764054206"><ele>838.6666666666667</ele><time>2026-04-23T14:27:20Z</time></trkpt><trkpt lat="41.80407930259939" lon="13.309929445338426"><ele>832.3333333333333</ele><time>2026-04-23T14:27:21Z</time></trkpt><trkpt lat="41.80400135567252" lon="13.31014759466377"><ele>826.0</ele><time>2026-04-23T14:27:22Z</time></trkpt><trkpt lat="41.80398644588306" lon="13.310408866060179"><ele>827.4</ele><time>2026-04-23T14:27:23Z</time></trkpt><trkpt lat="41.80398129184022" lon="13.310629643442523"><ele>828.8</ele><time>2026-04-23T14:27:24Z</time></trkpt><trkpt lat="41.80396136400798" lon="13.310802241581769"><ele>830.1999999999999</ele><time>2026-04-23T14:27:25Z</time></trkpt><trkpt lat="41.803928126742385" lon="13.310910305671651"><ele>831.5999999999999</ele><time>2026-04-23T14:27:26Z</time></trkpt><trkpt lat="41.80388008710287" lon="13.310966784099723"><ele>833.0</ele><time>2026-04-23T14:27:27Z</time></trkpt><trkpt lat="41.80376876792398" lon="13.310999943966655"><ele>833.0</ele><time>2026-04-23T14:27:29Z</time></trkpt><trkpt lat="41.80367043417119" lon="13.310990056859776"><ele>833.0</ele><time>2026-04-23T14:27:30Z</time></trkpt><trkpt lat="41.80361347264245" lon="13.310840624112744"><ele>833.0</ele><time>2026-04-23T14:27:31Z</time></trkpt><trkpt lat="41.80356401168114" lon="13.310664229286498"><ele>833.0</ele><time>2026-04-23T14:27:32Z</time></trkpt><trkpt lat="41.80352942273064" lon="13.310516065142528"><ele>829.5</ele><time>2026-04-23T14:27:33Z</time></trkpt><trkpt lat="41.80370865542938" lon="13.310195841677531"><ele>826.0</ele><time>2026-04-23T14:27:34Z</time></trkpt><trkpt lat="41.8038229380797" lon="13.309924161230033"><ele>821.6666666666666</ele><time>2026-04-23T14:27:35Z</time></trkpt><trkpt lat="41.803929340869" lon="13.309681089459817"><ele>817.3333333333333</ele><time>2026-04-23T14:27:36Z</time></trkpt><trkpt lat="41.804033256176126" lon="13.309438719892503"><ele>813.0</ele><time>2026-04-23T14:27:37Z</time></trkpt><trkpt lat="41.80413464110342" lon="13.30918010277397"><ele>813.0</ele><time>2026-04-23T14:27:38Z</time></trkpt><trkpt lat="41.804217015560425" lon="13.308918332621289"><ele>813.0</ele><time>2026-04-23T14:27:39Z</time></trkpt><trkpt lat="41.804272391672065" lon="13.3086591021901"><ele>813.0</ele><time>2026-04-23T14:27:40Z</time></trkpt><trkpt lat="41.80431686228556" lon="13.308375135716892"><ele>817.5</ele><time>2026-04-23T14:27:41Z</time></trkpt><trkpt lat="41.80434274525763" lon="13.308064599746773"><ele>822.0</ele><time>2026-04-23T14:27:42Z</time></trkpt><trkpt lat="41.80437843398766" lon="13.307761069382337"><ele>822.0</ele><time>2026-04-23T14:27:43Z</time></trkpt><trkpt lat="41.804429002544964" lon="13.307475584855595"><ele>822.0</ele><time>2026-04-23T14:27:44Z</time></trkpt><trkpt lat="41.80448829156907" lon="13.30724113118011"><ele>822.0</ele><time>2026-04-23T14:27:45Z</time></trkpt><trkpt lat="41.80456015757319" lon="13.307001469924128"><ele>817.6666666666667</ele><time>2026-04-23T14:27:46Z</time></trkpt><trkpt lat="41.80462639870606" lon="13.30679382914066"><ele>813.3333333333334</ele><time>2026-04-23T14:27:47Z</time></trkpt><trkpt lat="41.80471854485691" lon="13.306624542400831"><ele>809.0</ele><time>2026-04-23T14:27:48Z</time></trkpt><trkpt lat="41.80482178868415" lon="13.306447246773157"><ele>803.6666666666667</ele><time>2026-04-23T14:27:49Z</time></trkpt><trkpt lat="41.80494655935056" lon="13.306236296293651"><ele>798.3333333333333</ele><time>2026-04-23T14:27:50Z</time></trkpt><trkpt lat="41.80503620537728" lon="13.305973394432154"><ele>793.0</ele><time>2026-04-23T14:27:51Z</time></trkpt><trkpt lat="41.80510167437069" lon="13.305735943212017"><ele>788.0</ele><time>2026-04-23T14:27:52Z</time></trkpt><trkpt lat="41.805145055232984" lon="13.30549115346058"><ele>783.0</ele><time>2026-04-23T14:27:53Z</time></trkpt><trkpt lat="41.8051773476812" lon="13.305281273651104"><ele>778.0</ele><time>2026-04-23T14:27:54Z</time></trkpt><trkpt lat="41.80523265326961" lon="13.30511495024561"><ele>779.0</ele><time>2026-04-23T14:27:55Z</time></trkpt><trkpt lat="41.805274505773696" lon="13.304959567558031"><ele>780.0</ele><time>2026-04-23T14:27:56Z</time></trkpt><trkpt lat="41.80538204383014" lon="13.304868257133291"><ele>781.0</ele><time>2026-04-23T14:27:57Z</time></trkpt><trkpt lat="41.80549795483003" lon="13.304815723631258"><ele>782.0</ele><time>2026-04-23T14:27:58Z</time></trkpt><trkpt lat="41.80564872642384" lon="13.304742856369794"><ele>782.0</ele><time>2026-04-23T14:27:59Z</time></trkpt><trkpt lat="41.8057936270556" lon="13.304672722282538"><ele>782.0</ele><time>2026-04-23T14:28:00Z</time></trkpt><trkpt lat="41.80590883728179" lon="13.304605351136672"><ele>782.0</ele><time>2026-04-23T14:28:01Z</time></trkpt><trkpt lat="41.806002641207904" lon="13.30450603868692"><ele>782.0</ele><time>2026-04-23T14:28:02Z</time></trkpt><trkpt lat="41.80605501110225" lon="13.304366515980217"><ele>797.6666666666667</ele><time>2026-04-23T14:28:03Z</time></trkpt><trkpt lat="41.806087281938666" lon="13.304210174024574"><ele>813.3333333333333</ele><time>2026-04-23T14:28:04Z</time></trkpt><trkpt lat="41.8060891087166" lon="13.304006059932322"><ele>829.0</ele><time>2026-04-23T14:28:05Z</time></trkpt><trkpt lat="41.80603546233403" lon="13.303750416088784"><ele>813.6666666666666</ele><time>2026-04-23T14:28:06Z</time></trkpt><trkpt lat="41.80596567084456" lon="13.303469823117556"><ele>798.3333333333333</ele><time>2026-04-23T14:28:07Z</time></trkpt><trkpt lat="41.80589231104729" lon="13.303216419949296"><ele>783.0</ele><time>2026-04-23T14:28:08Z</time></trkpt><trkpt lat="41.80583311921333" lon="13.302976153563149"><ele>783.0</ele><time>2026-04-23T14:28:09Z</time></trkpt><trkpt lat="41.805780752371355" lon="13.302758377035317"><ele>783.0</ele><time>2026-04-23T14:28:10Z</time></trkpt><trkpt lat="41.805738977151265" lon="13.302551322109585"><ele>783.0</ele><time>2026-04-23T14:28:11Z</time></trkpt><trkpt lat="41.80571091436784" lon="13.302349781774405"><ele>782.4</ele><time>2026-04-23T14:28:12Z</time></trkpt><trkpt lat="41.80569294559163" lon="13.302165287440138"><ele>781.8</ele><time>2026-04-23T14:28:13Z</time></trkpt><trkpt lat="41.80569983527934" lon="13.302015201178632"><ele>781.2</ele><time>2026-04-23T14:28:14Z</time></trkpt><trkpt lat="41.80571683289051" lon="13.301876539103896"><ele>780.6</ele><time>2026-04-23T14:28:15Z</time></trkpt><trkpt lat="41.805725505544416" lon="13.301767513865686"><ele>780.0</ele><time>2026-04-23T14:28:15.999Z</time></trkpt><trkpt lat="41.80564667216369" lon="13.301637244645267"><ele>780.0</ele><time>2026-04-23T14:28:17.999Z</time></trkpt><trkpt lat="41.805572508938475" lon="13.30165616692453"><ele>780.0</ele><time>2026-04-23T14:28:18.999Z</time></trkpt><trkpt lat="41.8055056465349" lon="13.301734046525686"><ele>780.0</ele><time>2026-04-23T14:28:19.999Z</time></trkpt><trkpt lat="41.80545970432516" lon="13.301881494670342"><ele>780.0</ele><time>2026-04-23T14:28:20.999Z</time></trkpt><trkpt lat="41.80545790961967" lon="13.302060663617183"><ele>780.0</ele><time>2026-04-23T14:28:21.999Z</time></trkpt><trkpt lat="41.80544587742925" lon="13.302212778902344"><ele>781.5</ele><time>2026-04-23T14:28:22.999Z</time></trkpt><trkpt lat="41.805514936030804" lon="13.302573203967263"><ele>783.0</ele><time>2026-04-23T14:28:23.999Z</time></trkpt><trkpt lat="41.80553478120631" lon="13.302840290329586"><ele>783.0</ele><time>2026-04-23T14:28:24.999Z</time></trkpt><trkpt lat="41.805551224055584" lon="13.30307055034614"><ele>783.0</ele><time>2026-04-23T14:28:25.999Z</time></trkpt><trkpt lat="41.80556841513344" lon="13.303270139417664"><ele>783.0</ele><time>2026-04-23T14:28:26.999Z</time></trkpt><trkpt lat="41.805605833946984" lon="13.303437558948154"><ele>782.8</ele><time>2026-04-23T14:28:27.999Z</time></trkpt><trkpt lat="41.805637730660735" lon="13.303604060345464"><ele>782.5999999999999</ele><time>2026-04-23T14:28:28.999Z</time></trkpt><trkpt lat="41.8056142611902" lon="13.303741980398327"><ele>782.4000000000001</ele><time>2026-04-23T14:28:29.999Z</time></trkpt><trkpt lat="41.80558359806561" lon="13.303881223818788"><ele>782.2</ele><time>2026-04-23T14:28:30.999Z</time></trkpt><trkpt lat="41.8055337542806" lon="13.303993694608979"><ele>782.0</ele><time>2026-04-23T14:28:31.999Z</time></trkpt><trkpt lat="41.8054526405739" lon="13.30408461977639"><ele>782.0</ele><time>2026-04-23T14:28:32.999Z</time></trkpt><trkpt lat="41.80536609110078" lon="13.304088694816917"><ele>782.0</ele><time>2026-04-23T14:28:33.999Z</time></trkpt><trkpt lat="41.805210182331514" lon="13.304097735407517"><ele>782.0</ele><time>2026-04-23T14:28:34.999Z</time></trkpt><trkpt lat="41.805022544627256" lon="13.304137336080224"><ele>782.0</ele><time>2026-04-23T14:28:35.999Z</time></trkpt><trkpt lat="41.8048418117864" lon="13.30420067898603"><ele>764.5</ele><time>2026-04-23T14:28:36.999Z</time></trkpt><trkpt lat="41.804636036831795" lon="13.304355491166303"><ele>747.0</ele><time>2026-04-23T14:28:37.999Z</time></trkpt><trkpt lat="41.80443825473594" lon="13.30452930294786"><ele>742.3333333333334</ele><time>2026-04-23T14:28:38.999Z</time></trkpt><trkpt lat="41.80430535187838" lon="13.304705998461142"><ele>737.6666666666667</ele><time>2026-04-23T14:28:39.999Z</time></trkpt><trkpt lat="41.80417828978521" lon="13.30485222492999"><ele>733.0</ele><time>2026-04-23T14:28:40.999Z</time></trkpt><trkpt lat="41.8040921906739" lon="13.30498022652588"><ele>733.0</ele><time>2026-04-23T14:28:41.999Z</time></trkpt><trkpt lat="41.804102824729135" lon="13.305173750249377"><ele>733.0</ele><time>2026-04-23T14:28:42.999Z</time></trkpt><trkpt lat="41.80408656412579" lon="13.305387148124376"><ele>733.0</ele><time>2026-04-23T14:28:43.999Z</time></trkpt><trkpt lat="41.80404821793952" lon="13.305563344000912"><ele>733.0</ele><time>2026-04-23T14:28:44.999Z</time></trkpt><trkpt lat="41.803964933645496" lon="13.305667517976941"><ele>739.0</ele><time>2026-04-23T14:28:45.999Z</time></trkpt><trkpt lat="41.803880277391876" lon="13.305757198925791"><ele>745.0</ele><time>2026-04-23T14:28:46.999Z</time></trkpt><trkpt lat="41.803734709599816" lon="13.305914306457511"><ele>751.0</ele><time>2026-04-23T14:28:47.999Z</time></trkpt><trkpt lat="41.80360626726416" lon="13.306170983602573"><ele>759.0</ele><time>2026-04-23T14:28:48.999Z</time></trkpt><trkpt lat="41.80350673100845" lon="13.30645036616112"><ele>767.0</ele><time>2026-04-23T14:28:49.999Z</time></trkpt><trkpt lat="41.80341024594857" lon="13.306709723197725"><ele>775.0</ele><time>2026-04-23T14:28:50.999Z</time></trkpt><trkpt lat="41.80323699184853" lon="13.307063190820246"><ele>763.3333333333333</ele><time>2026-04-23T14:28:51.999Z</time></trkpt><trkpt lat="41.803113871523195" lon="13.307256734517006"><ele>751.6666666666666</ele><time>2026-04-23T14:28:52.999Z</time></trkpt><trkpt lat="41.80300226370031" lon="13.307455951350079"><ele>740.0</ele><time>2026-04-23T14:28:53.999Z</time></trkpt><trkpt lat="41.80293441728497" lon="13.307671364494201"><ele>740.0</ele><time>2026-04-23T14:28:54.999Z</time></trkpt><trkpt lat="41.80288015965878" lon="13.307919100042113"><ele>740.0</ele><time>2026-04-23T14:28:55.999Z</time></trkpt><trkpt lat="41.80285287722485" lon="13.308159677458809"><ele>740.0</ele><time>2026-04-23T14:28:56.999Z</time></trkpt><trkpt lat="41.802811053822275" lon="13.308389157123344"><ele>743.3333333333333</ele><time>2026-04-23T14:28:57.999Z</time></trkpt><trkpt lat="41.8027209155479" lon="13.308593403787203"><ele>746.6666666666666</ele><time>2026-04-23T14:28:58.999Z</time></trkpt><trkpt lat="41.802612937353985" lon="13.308764725497998"><ele>750.0</ele><time>2026-04-23T14:28:59.999Z</time></trkpt><trkpt lat="41.802493406865324" lon="13.308911396175477"><ele>736.6666666666666</ele><time>2026-04-23T14:29:01Z</time></trkpt><trkpt lat="41.80237763784537" lon="13.30905524559024"><ele>723.3333333333333</ele><time>2026-04-23T14:29:02Z</time></trkpt><trkpt lat="41.80226733385845" lon="13.309202310280797"><ele>710.0</ele><time>2026-04-23T14:29:03Z</time></trkpt><trkpt lat="41.80218236481351" lon="13.309347097931264"><ele>710.0</ele><time>2026-04-23T14:29:04Z</time></trkpt><trkpt lat="41.80210794471605" lon="13.309516797967722"><ele>710.0</ele><time>2026-04-23T14:29:05Z</time></trkpt><trkpt lat="41.80204034732049" lon="13.309672644156208"><ele>710.0</ele><time>2026-04-23T14:29:06Z</time></trkpt><trkpt lat="41.801972945111444" lon="13.30982091258919"><ele>710.0</ele><time>2026-04-23T14:29:07Z</time></trkpt><trkpt lat="41.80189853827437" lon="13.30995717510891"><ele>703.6</ele><time>2026-04-23T14:29:08Z</time></trkpt><trkpt lat="41.80182954545675" lon="13.310072523508476"><ele>697.2</ele><time>2026-04-23T14:29:09Z</time></trkpt><trkpt lat="41.801757018615305" lon="13.31019960920798"><ele>690.8</ele><time>2026-04-23T14:29:10Z</time></trkpt><trkpt lat="41.801693393122136" lon="13.310319223749964"><ele>684.4</ele><time>2026-04-23T14:29:11Z</time></trkpt><trkpt lat="41.801652117174356" lon="13.310423692917183"><ele>678.0</ele><time>2026-04-23T14:29:12Z</time></trkpt><trkpt lat="41.80159872021471" lon="13.310535446499644"><ele>682.4</ele><time>2026-04-23T14:29:13Z</time></trkpt><trkpt lat="41.80155369182852" lon="13.310633416372573"><ele>686.8</ele><time>2026-04-23T14:29:14Z</time></trkpt><trkpt lat="41.80150719315038" lon="13.31072746916474"><ele>691.2</ele><time>2026-04-23T14:29:15Z</time></trkpt><trkpt lat="41.80143997417974" lon="13.310854683989996"><ele>695.6</ele><time>2026-04-23T14:29:17Z</time></trkpt><trkpt lat="41.801374030349834" lon="13.310962077961497"><ele>700.0</ele><time>2026-04-23T14:29:19Z</time></trkpt><trkpt lat="41.801311738112936" lon="13.311056050925824"><ele>700.0</ele><time>2026-04-23T14:29:21Z</time></trkpt><trkpt lat="41.80124887020417" lon="13.311144648170016"><ele>700.0</ele><time>2026-04-23T14:29:23Z</time></trkpt><trkpt lat="41.80120924631836" lon="13.311211799417256"><ele>700.0</ele><time>2026-04-23T14:29:27Z</time></trkpt><trkpt lat="41.801289026518276" lon="13.311101503454976"><ele>700.0</ele><time>2026-04-23T14:29:31Z</time></trkpt><trkpt lat="41.80137598687903" lon="13.311039452152494"><ele>700.0</ele><time>2026-04-23T14:29:32Z</time></trkpt><trkpt lat="41.80142938547923" lon="13.310946181373822"><ele>700.0</ele><time>2026-04-23T14:29:33Z</time></trkpt><trkpt lat="41.80148980611062" lon="13.310848523232103"><ele>700.0</ele><time>2026-04-23T14:29:34Z</time></trkpt><trkpt lat="41.80154984101824" lon="13.310739527383067"><ele>700.0</ele><time>2026-04-23T14:29:35Z</time></trkpt><trkpt lat="41.8016108349225" lon="13.31061016875039"><ele>700.0</ele><time>2026-04-23T14:29:36Z</time></trkpt><trkpt lat="41.80167194732658" lon="13.310465012566574"><ele>700.0</ele><time>2026-04-23T14:29:37Z</time></trkpt><trkpt lat="41.801739177593056" lon="13.310336031285146"><ele>694.5</ele><time>2026-04-23T14:29:38Z</time></trkpt><trkpt lat="41.80180991465441" lon="13.310203207347026"><ele>689.0</ele><time>2026-04-23T14:29:39Z</time></trkpt><trkpt lat="41.80187738395727" lon="13.310079504478681"><ele>683.5</ele><time>2026-04-23T14:29:40Z</time></trkpt><trkpt lat="41.80195413887871" lon="13.30994326221381"><ele>678.0</ele><time>2026-04-23T14:29:41Z</time></trkpt><trkpt lat="41.80204393350251" lon="13.309774256671064"><ele>688.6666666666666</ele><time>2026-04-23T14:29:42Z</time></trkpt><trkpt lat="41.802131649027" lon="13.309586941941447"><ele>699.3333333333333</ele><time>2026-04-23T14:29:43Z</time></trkpt><trkpt lat="41.802232609714366" lon="13.309371706375158"><ele>710.0</ele><time>2026-04-23T14:29:44Z</time></trkpt><trkpt lat="41.802358845597816" lon="13.309149911167943"><ele>710.0</ele><time>2026-04-23T14:29:45Z</time></trkpt><trkpt lat="41.80250124449983" lon="13.30895202306019"><ele>710.0</ele><time>2026-04-23T14:29:46Z</time></trkpt><trkpt lat="41.8026524790081" lon="13.308749102503125"><ele>710.0</ele><time>2026-04-23T14:29:47Z</time></trkpt><trkpt lat="41.802777823524764" lon="13.308553445629443"><ele>720.0</ele><time>2026-04-23T14:29:48Z</time></trkpt><trkpt lat="41.80286946439161" lon="13.308327713433076"><ele>730.0</ele><time>2026-04-23T14:29:49Z</time></trkpt><trkpt lat="41.80292246141918" lon="13.308053379422947"><ele>740.0</ele><time>2026-04-23T14:29:50Z</time></trkpt><trkpt lat="41.80296694050003" lon="13.307767650230101"><ele>740.0</ele><time>2026-04-23T14:29:51Z</time></trkpt><trkpt lat="41.80302975351805" lon="13.307503657836396"><ele>740.0</ele><time>2026-04-23T14:29:52Z</time></trkpt><trkpt lat="41.80314241932018" lon="13.30726122443189"><ele>740.0</ele><time>2026-04-23T14:29:53Z</time></trkpt><trkpt lat="41.803281300537925" lon="13.30700324912333"><ele>745.5</ele><time>2026-04-23T14:29:54Z</time></trkpt><trkpt lat="41.80344239635392" lon="13.306723951677741"><ele>751.0</ele><time>2026-04-23T14:29:55Z</time></trkpt><trkpt lat="41.80356283262832" lon="13.306404928296933"><ele>751.0</ele><time>2026-04-23T14:29:56Z</time></trkpt><trkpt lat="41.80364056944207" lon="13.30616401256072"><ele>751.0</ele><time>2026-04-23T14:29:57Z</time></trkpt><trkpt lat="41.80372431818743" lon="13.305976731355626"><ele>751.0</ele><time>2026-04-23T14:29:58Z</time></trkpt><trkpt lat="41.80385131036055" lon="13.305816742050416"><ele>751.0</ele><time>2026-04-23T14:29:59Z</time></trkpt><trkpt lat="41.80399309551731" lon="13.305682973233022"><ele>751.0</ele><time>2026-04-23T14:30:00Z</time></trkpt><trkpt lat="41.80409029395108" lon="13.305566094023998"><ele>751.0</ele><time>2026-04-23T14:30:01Z</time></trkpt><trkpt lat="41.80414073251902" lon="13.305437560797413"><ele>751.0</ele><time>2026-04-23T14:30:02Z</time></trkpt><trkpt lat="41.804156351154894" lon="13.305285148966991"><ele>746.5</ele><time>2026-04-23T14:30:03Z</time></trkpt><trkpt lat="41.804158745698125" lon="13.3051299921333"><ele>742.0</ele><time>2026-04-23T14:30:04Z</time></trkpt><trkpt lat="41.80418204337482" lon="13.304982627955843"><ele>737.5</ele><time>2026-04-23T14:30:05Z</time></trkpt><trkpt lat="41.80423866534653" lon="13.304851880752466"><ele>733.0</ele><time>2026-04-23T14:30:06Z</time></trkpt><trkpt lat="41.80432220620258" lon="13.304754556838983"><ele>736.5</ele><time>2026-04-23T14:30:07Z</time></trkpt><trkpt lat="41.80441032126128" lon="13.304669045331465"><ele>740.0</ele><time>2026-04-23T14:30:08Z</time></trkpt><trkpt lat="41.80449977805264" lon="13.304584042845022"><ele>743.5</ele><time>2026-04-23T14:30:08.999Z</time></trkpt><trkpt lat="41.80459311415525" lon="13.30447545081655"><ele>747.0</ele><time>2026-04-23T14:30:09.999Z</time></trkpt><trkpt lat="41.80470295532155" lon="13.304362709290912"><ele>747.0</ele><time>2026-04-23T14:30:10.999Z</time></trkpt><trkpt lat="41.80482477640191" lon="13.30424780402779"><ele>747.0</ele><time>2026-04-23T14:30:11.999Z</time></trkpt><trkpt lat="41.804977822885846" lon="13.304197844506339"><ele>747.0</ele><time>2026-04-23T14:30:12.999Z</time></trkpt><trkpt lat="41.80514218519448" lon="13.304147536699196"><ele>755.75</ele><time>2026-04-23T14:30:13.999Z</time></trkpt><trkpt lat="41.80530617206944" lon="13.30413666080744"><ele>764.5</ele><time>2026-04-23T14:30:14.999Z</time></trkpt><trkpt lat="41.805437328340275" lon="13.304124501109214"><ele>773.25</ele><time>2026-04-23T14:30:15.999Z</time></trkpt><trkpt lat="41.80552209402271" lon="13.304098096630092"><ele>782.0</ele><time>2026-04-23T14:30:16.999Z</time></trkpt><trkpt lat="41.805578801871036" lon="13.303978071042883"><ele>780.6666666666667</ele><time>2026-04-23T14:30:17.999Z</time></trkpt><trkpt lat="41.80563912650577" lon="13.303800536674688"><ele>779.3333333333333</ele><time>2026-04-23T14:30:18.999Z</time></trkpt><trkpt lat="41.80566652916798" lon="13.303595860887997"><ele>778.0</ele><time>2026-04-23T14:30:19.999Z</time></trkpt><trkpt lat="41.80565502127271" lon="13.303354245755575"><ele>779.6666666666666</ele><time>2026-04-23T14:30:20.999Z</time></trkpt><trkpt lat="41.80559447404385" lon="13.303076426195247"><ele>781.3333333333333</ele><time>2026-04-23T14:30:21.999Z</time></trkpt><trkpt lat="41.80556669275725" lon="13.302795988961172"><ele>783.0</ele><time>2026-04-23T14:30:22.999Z</time></trkpt><trkpt lat="41.80554937189888" lon="13.302558949221359"><ele>783.0</ele><time>2026-04-23T14:30:23.999Z</time></trkpt><trkpt lat="41.80553139855443" lon="13.302313444202747"><ele>783.0</ele><time>2026-04-23T14:30:24.999Z</time></trkpt><trkpt lat="41.805510354457915" lon="13.302054938739845"><ele>783.0</ele><time>2026-04-23T14:30:25.999Z</time></trkpt><trkpt lat="41.8054938773361" lon="13.301900498455563"><ele>782.4</ele><time>2026-04-23T14:30:26.999Z</time></trkpt><trkpt lat="41.80550416396221" lon="13.301815012531428"><ele>781.8</ele><time>2026-04-23T14:30:27.999Z</time></trkpt><trkpt lat="41.8055966615221" lon="13.301747217139408"><ele>781.2</ele><time>2026-04-23T14:30:29.999Z</time></trkpt><trkpt lat="41.80566196232696" lon="13.30179490259327"><ele>780.6</ele><time>2026-04-23T14:30:30.999Z</time></trkpt><trkpt lat="41.805696318263635" lon="13.301905931372021"><ele>780.0</ele><time>2026-04-23T14:30:31.999Z</time></trkpt><trkpt lat="41.80565425389628" lon="13.302078284381846"><ele>781.0</ele><time>2026-04-23T14:30:32.999Z</time></trkpt><trkpt lat="41.80566146912062" lon="13.302257868016833"><ele>782.0</ele><time>2026-04-23T14:30:33.999Z</time></trkpt><trkpt lat="41.80565432737073" lon="13.302493440761884"><ele>783.0</ele><time>2026-04-23T14:30:34.999Z</time></trkpt><trkpt lat="41.80568658200184" lon="13.302694560565236"><ele>783.0</ele><time>2026-04-23T14:30:35.999Z</time></trkpt><trkpt lat="41.80574480808849" lon="13.302960359285319"><ele>783.0</ele><time>2026-04-23T14:30:36.999Z</time></trkpt><trkpt lat="41.80584181612045" lon="13.30328646713189"><ele>780.5</ele><time>2026-04-23T14:30:37.999Z</time></trkpt><trkpt lat="41.80593614203202" lon="13.303595267777803"><ele>778.0</ele><time>2026-04-23T14:30:38.999Z</time></trkpt><trkpt lat="41.80409244174792" lon="13.305751021265662"><ele>812.0</ele><time>2026-04-23T14:30:39.999Z</time></trkpt><trkpt lat="41.8054286567346" lon="13.304795117329556"><ele>812.0</ele><time>2026-04-23T14:30:47.999Z</time></trkpt><trkpt lat="41.80527379814881" lon="13.304887401469555"><ele>812.0</ele><time>2026-04-23T14:30:48.999Z</time></trkpt><trkpt lat="41.80521046345383" lon="13.305000654161066"><ele>812.0</ele><time>2026-04-23T14:30:49.999Z</time></trkpt><trkpt lat="41.8051259829279" lon="13.305145383145206"><ele>812.0</ele><time>2026-04-23T14:30:50.999Z</time></trkpt><trkpt lat="41.805117979832495" lon="13.305257994466396"><ele>802.5</ele><time>2026-04-23T14:30:51.999Z</time></trkpt><trkpt lat="41.80505277100914" lon="13.30578709146372"><ele>793.0</ele><time>2026-04-23T14:30:52.999Z</time></trkpt><trkpt lat="41.8049943042584" lon="13.3059145214091"><ele>793.0</ele><time>2026-04-23T14:30:54.999Z</time></trkpt><trkpt lat="41.80494121715908" lon="13.306041185273717"><ele>793.0</ele><time>2026-04-23T14:30:55.999Z</time></trkpt><trkpt lat="41.80488686287032" lon="13.306175231067131"><ele>793.0</ele><time>2026-04-23T14:31:00.999Z</time></trkpt><trkpt lat="41.80472692637022" lon="13.306553229354211"><ele>822.0</ele><time>2026-04-23T14:31:03.999Z</time></trkpt><trkpt lat="41.804377366602516" lon="13.30757969530212"><ele>824.0</ele><time>2026-04-23T14:31:04.999Z</time></trkpt><trkpt lat="41.8042970339748" lon="13.308125434174778"><ele>826.0</ele><time>2026-04-23T14:31:05.999Z</time></trkpt><trkpt lat="41.80407390323741" lon="13.309922730430058"><ele>826.0</ele><time>2026-04-23T14:31:21Z</time></trkpt><trkpt lat="41.80407934097549" lon="13.310083687483761"><ele>826.0</ele><time>2026-04-23T14:31:22Z</time></trkpt><trkpt lat="41.80402200324977" lon="13.310352353277297"><ele>826.0</ele><time>2026-04-23T14:31:23Z</time></trkpt><trkpt lat="41.80433695394448" lon="13.309454508491209"><ele>845.0</ele><time>2026-04-23T14:31:27Z</time></trkpt><trkpt lat="41.80463284884655" lon="13.30895979472888"><ele>839.5</ele><time>2026-04-23T14:31:28Z</time></trkpt><trkpt lat="41.804779684479605" lon="13.308708506070568"><ele>834.0</ele><time>2026-04-23T14:31:29Z</time></trkpt><trkpt lat="41.80495851246255" lon="13.30839740665478"><ele>834.0</ele><time>2026-04-23T14:31:30Z</time></trkpt><trkpt lat="41.805143594998526" lon="13.308088738635131"><ele>834.0</ele><time>2026-04-23T14:31:31Z</time></trkpt><trkpt lat="41.80532384919331" lon="13.307752957884448"><ele>838.5</ele><time>2026-04-23T14:31:32Z</time></trkpt><trkpt lat="41.805495279385084" lon="13.30738777437576"><ele>843.0</ele><time>2026-04-23T14:31:33Z</time></trkpt><trkpt lat="41.805674049797126" lon="13.306994879953745"><ele>843.0</ele><time>2026-04-23T14:31:34Z</time></trkpt><trkpt lat="41.80581148466364" lon="13.306675195121578"><ele>843.0</ele><time>2026-04-23T14:31:35Z</time></trkpt><trkpt lat="41.80593372432967" lon="13.306377129845755"><ele>854.0</ele><time>2026-04-23T14:31:36Z</time></trkpt><trkpt lat="41.806147795396384" lon="13.305901616116271"><ele>865.0</ele><time>2026-04-23T14:31:37Z</time></trkpt><trkpt lat="41.80641763555139" lon="13.30559722717297"><ele>873.0</ele><time>2026-04-23T14:31:38Z</time></trkpt><trkpt lat="41.806542826983915" lon="13.30553493355676"><ele>881.0</ele><time>2026-04-23T14:31:39Z</time></trkpt><trkpt lat="41.806937259824444" lon="13.305331356589148"><ele>881.0</ele><time>2026-04-23T14:31:40Z</time></trkpt><trkpt lat="41.807133757602955" lon="13.305197918621726"><ele>881.0</ele><time>2026-04-23T14:31:41Z</time></trkpt><trkpt lat="41.807243370380974" lon="13.305088894612378"><ele>881.0</ele><time>2026-04-23T14:31:42Z</time></trkpt><trkpt lat="41.80740182103025" lon="13.304814509010738"><ele>880.3333333333334</ele><time>2026-04-23T14:31:43Z</time></trkpt><trkpt lat="41.80733173816692" lon="13.304702341318777"><ele>879.6666666666667</ele><time>2026-04-23T14:31:44Z</time></trkpt><trkpt lat="41.807318707490445" lon="13.30442898233167"><ele>879.0</ele><time>2026-04-23T14:31:45Z</time></trkpt><trkpt lat="41.80727742796011" lon="13.304123264219665"><ele>883.5</ele><time>2026-04-23T14:31:46Z</time></trkpt><trkpt lat="41.807240022363615" lon="13.303827052603781"><ele>888.0</ele><time>2026-04-23T14:31:47Z</time></trkpt><trkpt lat="41.80718813757871" lon="13.30349014292145"><ele>888.0</ele><time>2026-04-23T14:31:48Z</time></trkpt><trkpt lat="41.807156466332806" lon="13.303139305364912"><ele>888.0</ele><time>2026-04-23T14:31:49Z</time></trkpt><trkpt lat="41.80711608316802" lon="13.302841597524576"><ele>890.3333333333333</ele><time>2026-04-23T14:31:49.999Z</time></trkpt><trkpt lat="41.807087494791375" lon="13.302588744003232"><ele>892.6666666666666</ele><time>2026-04-23T14:31:50.999Z</time></trkpt><trkpt lat="41.807067704278275" lon="13.302351182311378"><ele>895.0</ele><time>2026-04-23T14:31:51.999Z</time></trkpt><trkpt lat="41.807057622933065" lon="13.30210769235948"><ele>895.3333333333333</ele><time>2026-04-23T14:31:52.999Z</time></trkpt><trkpt lat="41.807063343629444" lon="13.301855899827947"><ele>895.6666666666667</ele><time>2026-04-23T14:31:53.999Z</time></trkpt><trkpt lat="41.80708232171068" lon="13.301603899544636"><ele>896.0</ele><time>2026-04-23T14:31:54.999Z</time></trkpt><trkpt lat="41.80710704336409" lon="13.301388369885776"><ele>891.6666666666667</ele><time>2026-04-23T14:31:55.999Z</time></trkpt><trkpt lat="41.80718638397548" lon="13.301205410135754"><ele>887.3333333333333</ele><time>2026-04-23T14:31:56.999Z</time></trkpt><trkpt lat="41.80730526443161" lon="13.30103573651107"><ele>883.0</ele><time>2026-04-23T14:31:57.999Z</time></trkpt><trkpt lat="41.80743904182433" lon="13.300870092252776"><ele>883.0</ele><time>2026-04-23T14:31:58.999Z</time></trkpt><trkpt lat="41.80750867390773" lon="13.300695656199936"><ele>883.0</ele><time>2026-04-23T14:31:59.999Z</time></trkpt><trkpt lat="41.807518590263" lon="13.300487438429503"><ele>883.0</ele><time>2026-04-23T14:32:00.999Z</time></trkpt><trkpt lat="41.80757177497049" lon="13.300239628841744"><ele>883.6666666666666</ele><time>2026-04-23T14:32:01.999Z</time></trkpt><trkpt lat="41.8076277533559" lon="13.300024971807437"><ele>884.3333333333333</ele><time>2026-04-23T14:32:02.999Z</time></trkpt><trkpt lat="41.80772273372222" lon="13.299871544920398"><ele>885.0</ele><time>2026-04-23T14:32:03.999Z</time></trkpt><trkpt lat="41.80781818431022" lon="13.29974844976269"><ele>885.0</ele><time>2026-04-23T14:32:04.999Z</time></trkpt><trkpt lat="41.80795671077262" lon="13.2997264023899"><ele>885.0</ele><time>2026-04-23T14:32:05.999Z</time></trkpt><trkpt lat="41.80807273388472" lon="13.29973736015095"><ele>885.0</ele><time>2026-04-23T14:32:06.999Z</time></trkpt><trkpt lat="41.8081854804099" lon="13.299772974419641"><ele>885.0</ele><time>2026-04-23T14:32:07.999Z</time></trkpt><trkpt lat="41.80830175718356" lon="13.299821513705252"><ele>888.5</ele><time>2026-04-23T14:32:08.999Z</time></trkpt><trkpt lat="41.80841478498528" lon="13.299866121363948"><ele>892.0</ele><time>2026-04-23T14:32:09.999Z</time></trkpt><trkpt lat="41.80853830930364" lon="13.299843966984792"><ele>895.5</ele><time>2026-04-23T14:32:10.999Z</time></trkpt><trkpt lat="41.808654340296904" lon="13.299719286872572"><ele>899.0</ele><time>2026-04-23T14:32:11.999Z</time></trkpt><trkpt lat="41.808708405011046" lon="13.299509658657191"><ele>900.3333333333334</ele><time>2026-04-23T14:32:12.999Z</time></trkpt><trkpt lat="41.80875157631942" lon="13.299272774320798"><ele>901.6666666666667</ele><time>2026-04-23T14:32:13.999Z</time></trkpt><trkpt lat="41.80876302498995" lon="13.299016650046681"><ele>903.0</ele><time>2026-04-23T14:32:14.999Z</time></trkpt><trkpt lat="41.80876540283352" lon="13.298814898428368"><ele>903.0</ele><time>2026-04-23T14:32:15.999Z</time></trkpt><trkpt lat="41.80882129886715" lon="13.298653935505712"><ele>903.0</ele><time>2026-04-23T14:32:16.999Z</time></trkpt><trkpt lat="41.80889655686935" lon="13.298501578279854"><ele>903.0</ele><time>2026-04-23T14:32:17.999Z</time></trkpt><trkpt lat="41.809029833898265" lon="13.298393957220952"><ele>903.0</ele><time>2026-04-23T14:32:18.999Z</time></trkpt><trkpt lat="41.80920647714287" lon="13.298235801809476"><ele>902.3333333333333</ele><time>2026-04-23T14:32:19.999Z</time></trkpt><trkpt lat="41.80936904031386" lon="13.298091069069073"><ele>901.6666666666666</ele><time>2026-04-23T14:32:20.999Z</time></trkpt><trkpt lat="41.80949607725407" lon="13.297997812966592"><ele>901.0</ele><time>2026-04-23T14:32:21.999Z</time></trkpt><trkpt lat="41.809610464244955" lon="13.297954043691904"><ele>901.0</ele><time>2026-04-23T14:32:22.999Z</time></trkpt><trkpt lat="41.80974853487368" lon="13.297947523403385"><ele>901.0</ele><time>2026-04-23T14:32:23.999Z</time></trkpt><trkpt lat="41.80991963040648" lon="13.297928226112198"><ele>901.0</ele><time>2026-04-23T14:32:24.999Z</time></trkpt><trkpt lat="41.81005999976529" lon="13.297836315405275"><ele>901.0</ele><time>2026-04-23T14:32:25.999Z</time></trkpt><trkpt lat="41.81015665435094" lon="13.297708283472907"><ele>901.0</ele><time>2026-04-23T14:32:26.999Z</time></trkpt><trkpt lat="41.81023628833417" lon="13.29751344621723"><ele>901.0</ele><time>2026-04-23T14:32:27.999Z</time></trkpt><trkpt lat="41.810300367621124" lon="13.29728803685611"><ele>904.25</ele><time>2026-04-23T14:32:28.999Z</time></trkpt><trkpt lat="41.810374487074725" lon="13.29714013259729"><ele>907.5</ele><time>2026-04-23T14:32:29.999Z</time></trkpt><trkpt lat="41.81049192551888" lon="13.29706578495038"><ele>910.75</ele><time>2026-04-23T14:32:30.999Z</time></trkpt><trkpt lat="41.810620656595844" lon="13.297036191521636"><ele>914.0</ele><time>2026-04-23T14:32:31.999Z</time></trkpt><trkpt lat="41.81083639532756" lon="13.297009514350604"><ele>912.6666666666667</ele><time>2026-04-23T14:32:32.999Z</time></trkpt><trkpt lat="41.811081431067834" lon="13.297006985144574"><ele>911.3333333333333</ele><time>2026-04-23T14:32:33.999Z</time></trkpt><trkpt lat="41.81126347444744" lon="13.297021283282636"><ele>910.0</ele><time>2026-04-23T14:32:34.999Z</time></trkpt><trkpt lat="41.81141845582857" lon="13.297069355025693"><ele>910.0</ele><time>2026-04-23T14:32:35.999Z</time></trkpt><trkpt lat="41.81150824830551" lon="13.297142745574941"><ele>910.0</ele><time>2026-04-23T14:32:36.999Z</time></trkpt><trkpt lat="41.81158662891733" lon="13.297229385408432"><ele>910.0</ele><time>2026-04-23T14:32:37.999Z</time></trkpt><trkpt lat="41.811643837424754" lon="13.297449194252193"><ele>910.0</ele><time>2026-04-23T14:32:38.999Z</time></trkpt><trkpt lat="41.811703684717145" lon="13.29762955351157"><ele>914.0</ele><time>2026-04-23T14:32:39.999Z</time></trkpt><trkpt lat="41.811800287270174" lon="13.29783734824708"><ele>918.0</ele><time>2026-04-23T14:32:40.999Z</time></trkpt><trkpt lat="41.81197153891386" lon="13.297987118926645"><ele>922.0</ele><time>2026-04-23T14:32:41.999Z</time></trkpt><trkpt lat="41.812105574444224" lon="13.298101239737656"><ele>924.5</ele><time>2026-04-23T14:32:42.999Z</time></trkpt><trkpt lat="41.81219015607163" lon="13.298240320747922"><ele>927.0</ele><time>2026-04-23T14:32:43.999Z</time></trkpt><trkpt lat="41.812238212676746" lon="13.298389397093965"><ele>929.5</ele><time>2026-04-23T14:32:44.999Z</time></trkpt><trkpt lat="41.81227931054866" lon="13.298584217482729"><ele>932.0</ele><time>2026-04-23T14:32:45.999Z</time></trkpt><trkpt lat="41.81232659208756" lon="13.298858537884268"><ele>936.0</ele><time>2026-04-23T14:32:46.999Z</time></trkpt><trkpt lat="41.81238590835662" lon="13.29912581366447"><ele>940.0</ele><time>2026-04-23T14:32:47.999Z</time></trkpt><trkpt lat="41.812485183749175" lon="13.299386882692135"><ele>944.0</ele><time>2026-04-23T14:32:48.999Z</time></trkpt><trkpt lat="41.812619442549966" lon="13.299641189054071"><ele>947.0</ele><time>2026-04-23T14:32:49.999Z</time></trkpt><trkpt lat="41.81272178861167" lon="13.299811010491672"><ele>950.0</ele><time>2026-04-23T14:32:50.999Z</time></trkpt><trkpt lat="41.812808735799166" lon="13.299933511096151"><ele>953.0</ele><time>2026-04-23T14:32:51.999Z</time></trkpt><trkpt lat="41.81290252563138" lon="13.300033107449947"><ele>956.0</ele><time>2026-04-23T14:32:53Z</time></trkpt><trkpt lat="41.813058395795466" lon="13.300048129405479"><ele>956.0</ele><time>2026-04-23T14:32:54Z</time></trkpt><trkpt lat="41.81318657881257" lon="13.300032978646586"><ele>956.0</ele><time>2026-04-23T14:32:55Z</time></trkpt><trkpt lat="41.81330547313365" lon="13.299910626230623"><ele>956.0</ele><time>2026-04-23T14:32:56Z</time></trkpt><trkpt lat="41.813402607730346" lon="13.299779499031345"><ele>956.0</ele><time>2026-04-23T14:32:57Z</time></trkpt><trkpt lat="41.81344181869753" lon="13.299631497858591"><ele>954.5</ele><time>2026-04-23T14:32:58Z</time></trkpt><trkpt lat="41.81344134972107" lon="13.299472010793023"><ele>953.0</ele><time>2026-04-23T14:32:59Z</time></trkpt><trkpt lat="41.81340750371169" lon="13.299243890433347"><ele>951.5</ele><time>2026-04-23T14:33:00Z</time></trkpt><trkpt lat="41.813373150792614" lon="13.299070958740828"><ele>950.0</ele><time>2026-04-23T14:33:01Z</time></trkpt><trkpt lat="41.81337473265294" lon="13.298946212147742"><ele>950.75</ele><time>2026-04-23T14:33:02Z</time></trkpt><trkpt lat="41.813449447545665" lon="13.298828901527475"><ele>951.5</ele><time>2026-04-23T14:33:03Z</time></trkpt><trkpt lat="41.813568019786196" lon="13.298805995037787"><ele>952.25</ele><time>2026-04-23T14:33:04Z</time></trkpt><trkpt lat="41.813686697588516" lon="13.298832884112896"><ele>953.0</ele><time>2026-04-23T14:33:05Z</time></trkpt><trkpt lat="41.81377613319085" lon="13.29892807731863"><ele>953.0</ele><time>2026-04-23T14:33:06Z</time></trkpt><trkpt lat="41.813873453877505" lon="13.299072320560626"><ele>953.0</ele><time>2026-04-23T14:33:07Z</time></trkpt><trkpt lat="41.81395524342531" lon="13.299278856921916"><ele>953.0</ele><time>2026-04-23T14:33:08Z</time></trkpt><trkpt lat="41.814028737122634" lon="13.299507247299807"><ele>958.0</ele><time>2026-04-23T14:33:09Z</time></trkpt><trkpt lat="41.8141512908764" lon="13.29978137533701"><ele>963.0</ele><time>2026-04-23T14:33:10Z</time></trkpt><trkpt lat="41.81429603291294" lon="13.300071864482403"><ele>966.6666666666667</ele><time>2026-04-23T14:33:11Z</time></trkpt><trkpt lat="41.81440885172055" lon="13.3002584358448"><ele>970.3333333333334</ele><time>2026-04-23T14:33:12Z</time></trkpt><trkpt lat="41.81448389364298" lon="13.30050022271251"><ele>974.0</ele><time>2026-04-23T14:33:13Z</time></trkpt><trkpt lat="41.81448170605173" lon="13.300602073769909"><ele>973.5</ele><time>2026-04-23T14:33:14Z</time></trkpt><trkpt lat="41.814464545828095" lon="13.300758864445298"><ele>973.0</ele><time>2026-04-23T14:33:15Z</time></trkpt><trkpt lat="41.814424612381444" lon="13.30097615083279"><ele>972.5</ele><time>2026-04-23T14:33:16Z</time></trkpt><trkpt lat="41.8143580276234" lon="13.301158057202983"><ele>972.0</ele><time>2026-04-23T14:33:17Z</time></trkpt><trkpt lat="41.81428097922785" lon="13.301254766179834"><ele>972.0</ele><time>2026-04-23T14:33:18Z</time></trkpt><trkpt lat="41.81418076545422" lon="13.30134040575246"><ele>972.0</ele><time>2026-04-23T14:33:19Z</time></trkpt><trkpt lat="41.81399990456524" lon="13.301383407627414"><ele>972.0</ele><time>2026-04-23T14:33:20Z</time></trkpt><trkpt lat="41.81382767849757" lon="13.301345819054319"><ele>972.0</ele><time>2026-04-23T14:33:21Z</time></trkpt><trkpt lat="41.81368276816673" lon="13.301300238190573"><ele>972.0</ele><time>2026-04-23T14:33:22Z</time></trkpt><trkpt lat="41.8135351020179" lon="13.3013257461666"><ele>972.0</ele><time>2026-04-23T14:33:23Z</time></trkpt><trkpt lat="41.81341910483441" lon="13.301403061820835"><ele>972.0</ele><time>2026-04-23T14:33:24Z</time></trkpt><trkpt lat="41.81329624322244" lon="13.301552918852863"><ele>975.6666666666667</ele><time>2026-04-23T14:33:25Z</time></trkpt><trkpt lat="41.81319757149433" lon="13.301719426264349"><ele>979.3333333333334</ele><time>2026-04-23T14:33:26Z</time></trkpt><trkpt lat="41.813052464958794" lon="13.301820957410166"><ele>983.0</ele><time>2026-04-23T14:33:27Z</time></trkpt><trkpt lat="41.81290545338158" lon="13.301886862067509"><ele>983.0</ele><time>2026-04-23T14:33:28Z</time></trkpt><trkpt lat="41.81274305962753" lon="13.301909858489566"><ele>983.0</ele><time>2026-04-23T14:33:29Z</time></trkpt><trkpt lat="41.81263764709752" lon="13.302052945757492"><ele>983.0</ele><time>2026-04-23T14:33:30Z</time></trkpt><trkpt lat="41.812590070973954" lon="13.302245806305555"><ele>986.0</ele><time>2026-04-23T14:33:31Z</time></trkpt><trkpt lat="41.812554837416826" lon="13.302472354576965"><ele>989.0</ele><time>2026-04-23T14:33:32Z</time></trkpt><trkpt lat="41.81251882573822" lon="13.302664224582054"><ele>992.0</ele><time>2026-04-23T14:33:33Z</time></trkpt><trkpt lat="41.812538110928024" lon="13.302800751275782"><ele>995.0</ele><time>2026-04-23T14:33:34Z</time></trkpt><trkpt lat="41.812510412506455" lon="13.302926653569271"><ele>995.0</ele><time>2026-04-23T14:33:35Z</time></trkpt><trkpt lat="41.8124105965178" lon="13.302905938465058"><ele>995.0</ele><time>2026-04-23T14:33:36Z</time></trkpt><trkpt lat="41.81230118265768" lon="13.302917313349903"><ele>995.0</ele><time>2026-04-23T14:33:37Z</time></trkpt><trkpt lat="41.81211150657342" lon="13.302856385899563"><ele>995.0</ele><time>2026-04-23T14:33:38Z</time></trkpt><trkpt lat="41.812002169652864" lon="13.302733644777573"><ele>995.0</ele><time>2026-04-23T14:33:39Z</time></trkpt><trkpt lat="41.8119415162974" lon="13.302543013173109"><ele>995.0</ele><time>2026-04-23T14:33:40Z</time></trkpt><trkpt lat="41.81185916274096" lon="13.302345731764534"><ele>995.0</ele><time>2026-04-23T14:33:41Z</time></trkpt><trkpt lat="41.81181106973384" lon="13.302211772626762"><ele>995.0</ele><time>2026-04-23T14:33:42Z</time></trkpt><trkpt lat="41.811734085153034" lon="13.302156447881778"><ele>995.3333333333334</ele><time>2026-04-23T14:33:43Z</time></trkpt><trkpt lat="41.81154341271946" lon="13.302090982366314"><ele>995.6666666666667</ele><time>2026-04-23T14:33:44Z</time></trkpt><trkpt lat="41.811370595180506" lon="13.302122420270237"><ele>996.0</ele><time>2026-04-23T14:33:45Z</time></trkpt><trkpt lat="41.811194467779266" lon="13.302206676169533"><ele>999.0</ele><time>2026-04-23T14:33:46Z</time></trkpt><trkpt lat="41.81103562277904" lon="13.302347964214702"><ele>1002.0</ele><time>2026-04-23T14:33:47Z</time></trkpt><trkpt lat="41.81094281837252" lon="13.302457476654237"><ele>1005.0</ele><time>2026-04-23T14:33:48Z</time></trkpt><trkpt lat="41.81086122478512" lon="13.302612504923767"><ele>1005.0</ele><time>2026-04-23T14:33:49Z</time></trkpt><trkpt lat="41.81084652330832" lon="13.30284749766371"><ele>1005.0</ele><time>2026-04-23T14:33:50Z</time></trkpt><trkpt lat="41.81083594642256" lon="13.3031243599969"><ele>1005.0</ele><time>2026-04-23T14:33:51Z</time></trkpt><trkpt lat="41.81083658951973" lon="13.303394245504288"><ele>1007.5</ele><time>2026-04-23T14:33:52Z</time></trkpt><trkpt lat="41.810829990728855" lon="13.303570595706374"><ele>1010.0</ele><time>2026-04-23T14:33:53Z</time></trkpt><trkpt lat="41.81081159934677" lon="13.303712616590968"><ele>1012.5</ele><time>2026-04-23T14:33:54Z</time></trkpt><trkpt lat="41.810748425735085" lon="13.303811279610015"><ele>1015.0</ele><time>2026-04-23T14:33:55Z</time></trkpt><trkpt lat="41.810639613707096" lon="13.303909668685977"><ele>1018.6666666666666</ele><time>2026-04-23T14:33:56Z</time></trkpt><trkpt lat="41.810467976519455" lon="13.30404290978423"><ele>1022.3333333333333</ele><time>2026-04-23T14:33:57Z</time></trkpt><trkpt lat="41.81028478857105" lon="13.304116898142649"><ele>1026.0</ele><time>2026-04-23T14:33:58Z</time></trkpt><trkpt lat="41.81016208445826" lon="13.304219068331578"><ele>1025.0</ele><time>2026-04-23T14:33:59Z</time></trkpt><trkpt lat="41.81006701721662" lon="13.304339367381758"><ele>1024.0</ele><time>2026-04-23T14:34:00Z</time></trkpt><trkpt lat="41.8100078717054" lon="13.304519733976562"><ele>1023.0</ele><time>2026-04-23T14:34:01Z</time></trkpt><trkpt lat="41.80997301910863" lon="13.304775116321672"><ele>1023.0</ele><time>2026-04-23T14:34:02Z</time></trkpt><trkpt lat="41.8099337051345" lon="13.305039211430238"><ele>1023.0</ele><time>2026-04-23T14:34:03Z</time></trkpt><trkpt lat="41.80990488557931" lon="13.305293865032247"><ele>1023.0</ele><time>2026-04-23T14:34:04Z</time></trkpt><trkpt lat="41.80987204463983" lon="13.305576543387948"><ele>1025.6666666666667</ele><time>2026-04-23T14:34:05Z</time></trkpt><trkpt lat="41.809876774774565" lon="13.30582560952286"><ele>1028.3333333333335</ele><time>2026-04-23T14:34:06Z</time></trkpt><trkpt lat="41.80990459241589" lon="13.306039548062644"><ele>1031.0</ele><time>2026-04-23T14:34:07Z</time></trkpt><trkpt lat="41.80990314646737" lon="13.306214996745855"><ele>1031.0</ele><time>2026-04-23T14:34:08Z</time></trkpt><trkpt lat="41.80987619210697" lon="13.30640048432245"><ele>1031.0</ele><time>2026-04-23T14:34:09Z</time></trkpt><trkpt lat="41.80978649124269" lon="13.306597263102283"><ele>1031.0</ele><time>2026-04-23T14:34:10Z</time></trkpt><trkpt lat="41.80968680551097" lon="13.306818635516672"><ele>1034.3333333333335</ele><time>2026-04-23T14:34:11Z</time></trkpt><trkpt lat="41.809580092197194" lon="13.307062307572401"><ele>1037.6666666666667</ele><time>2026-04-23T14:34:12Z</time></trkpt><trkpt lat="41.80951454883579" lon="13.307291632529033"><ele>1041.0</ele><time>2026-04-23T14:34:13Z</time></trkpt><trkpt lat="41.80947920683919" lon="13.307531362857812"><ele>1038.6666666666667</ele><time>2026-04-23T14:34:14Z</time></trkpt><trkpt lat="41.80944829299068" lon="13.307739573403987"><ele>1036.3333333333335</ele><time>2026-04-23T14:34:15Z</time></trkpt><trkpt lat="41.80935626360752" lon="13.307884563583569"><ele>1034.0</ele><time>2026-04-23T14:34:16Z</time></trkpt><trkpt lat="41.809230613238945" lon="13.30802868844699"><ele>1039.3333333333335</ele><time>2026-04-23T14:34:17Z</time></trkpt><trkpt lat="41.80905971171316" lon="13.308144085341103"><ele>1044.6666666666667</ele><time>2026-04-23T14:34:18Z</time></trkpt><trkpt lat="41.80893215621923" lon="13.308252172253093"><ele>1050.0</ele><time>2026-04-23T14:34:19Z</time></trkpt><trkpt lat="41.808856693410455" lon="13.308434871881895"><ele>1050.0</ele><time>2026-04-23T14:34:20Z</time></trkpt><trkpt lat="41.80879280701978" lon="13.30865227864876"><ele>1050.0</ele><time>2026-04-23T14:34:21Z</time></trkpt><trkpt lat="41.808736745247515" lon="13.308849955781966"><ele>1050.0</ele><time>2026-04-23T14:34:22Z</time></trkpt><trkpt lat="41.80865141361723" lon="13.308988251147056"><ele>1048.25</ele><time>2026-04-23T14:34:23Z</time></trkpt><trkpt lat="41.808520275902104" lon="13.30906865674179"><ele>1046.5</ele><time>2026-04-23T14:34:24Z</time></trkpt><trkpt lat="41.808374713605346" lon="13.309103908490485"><ele>1044.75</ele><time>2026-04-23T14:34:25Z</time></trkpt><trkpt lat="41.80826779484851" lon="13.309199894536444"><ele>1043.0</ele><time>2026-04-23T14:34:26Z</time></trkpt><trkpt lat="41.80821779036798" lon="13.309373896459595"><ele>1043.0</ele><time>2026-04-23T14:34:27Z</time></trkpt><trkpt lat="41.80820283201064" lon="13.309594548135102"><ele>1043.0</ele><time>2026-04-23T14:34:28Z</time></trkpt><trkpt lat="41.80822543872688" lon="13.309853794725267"><ele>1043.0</ele><time>2026-04-23T14:34:29Z</time></trkpt><trkpt lat="41.80826337311595" lon="13.31012981370137"><ele>1046.0</ele><time>2026-04-23T14:34:30Z</time></trkpt><trkpt lat="41.80828326296098" lon="13.310423402604194"><ele>1049.0</ele><time>2026-04-23T14:34:31Z</time></trkpt><trkpt lat="41.80832794203243" lon="13.310716374096035"><ele>1052.0</ele><time>2026-04-23T14:34:32Z</time></trkpt><trkpt lat="41.80839716087332" lon="13.310973827385379"><ele>1052.25</ele><time>2026-04-23T14:34:33Z</time></trkpt><trkpt lat="41.808461133262476" lon="13.311188355170032"><ele>1052.5</ele><time>2026-04-23T14:34:34Z</time></trkpt><trkpt lat="41.80852123971307" lon="13.311358851902696"><ele>1052.75</ele><time>2026-04-23T14:34:35Z</time></trkpt><trkpt lat="41.80860097265351" lon="13.311472905868005"><ele>1053.0</ele><time>2026-04-23T14:34:36Z</time></trkpt><trkpt lat="41.808717900462426" lon="13.311537826096856"><ele>1059.25</ele><time>2026-04-23T14:34:37Z</time></trkpt><trkpt lat="41.8088384828039" lon="13.31152702256404"><ele>1065.5</ele><time>2026-04-23T14:34:38Z</time></trkpt><trkpt lat="41.80894797995924" lon="13.31144486148784"><ele>1071.75</ele><time>2026-04-23T14:34:39Z</time></trkpt><trkpt lat="41.809027311234765" lon="13.31129941957559"><ele>1078.0</ele><time>2026-04-23T14:34:40Z</time></trkpt><trkpt lat="41.80906432189989" lon="13.311104272006066"><ele>1078.3333333333333</ele><time>2026-04-23T14:34:41Z</time></trkpt><trkpt lat="41.80905100065222" lon="13.31088563433488"><ele>1078.6666666666667</ele><time>2026-04-23T14:34:42Z</time></trkpt><trkpt lat="41.809007758658176" lon="13.31066363354197"><ele>1079.0</ele><time>2026-04-23T14:34:43Z</time></trkpt><trkpt lat="41.809047707546185" lon="13.310452133580354"><ele>1078.0</ele><time>2026-04-23T14:34:44Z</time></trkpt><trkpt lat="41.80910569496648" lon="13.310239419580773"><ele>1077.0</ele><time>2026-04-23T14:34:45Z</time></trkpt><trkpt lat="41.80915939631933" lon="13.310077654923754"><ele>1076.0</ele><time>2026-04-23T14:34:46Z</time></trkpt><trkpt lat="41.80923010473398" lon="13.309958220655588"><ele>1075.0</ele><time>2026-04-23T14:34:47Z</time></trkpt><trkpt lat="41.80933770256551" lon="13.309846293034791"><ele>1075.6666666666665</ele><time>2026-04-23T14:34:48Z</time></trkpt><trkpt lat="41.80949922216366" lon="13.309759709641153"><ele>1076.3333333333333</ele><time>2026-04-23T14:34:49Z</time></trkpt><trkpt lat="41.80970757389159" lon="13.309640997727685"><ele>1077.0</ele><time>2026-04-23T14:34:50Z</time></trkpt><trkpt lat="41.80990536398471" lon="13.309565854131964"><ele>1077.0</ele><time>2026-04-23T14:34:51Z</time></trkpt><trkpt lat="41.810064999389915" lon="13.30952954765924"><ele>1077.0</ele><time>2026-04-23T14:34:52Z</time></trkpt><trkpt lat="41.81018870867994" lon="13.309512011292247"><ele>1077.0</ele><time>2026-04-23T14:34:53Z</time></trkpt><trkpt lat="41.81029333725991" lon="13.309440306098608"><ele>1077.0</ele><time>2026-04-23T14:34:54Z</time></trkpt><trkpt lat="41.810384174162465" lon="13.30925661525761"><ele>1078.3333333333333</ele><time>2026-04-23T14:34:55Z</time></trkpt><trkpt lat="41.81048372972966" lon="13.309013951249396"><ele>1079.6666666666665</ele><time>2026-04-23T14:34:56Z</time></trkpt><trkpt lat="41.810600370519666" lon="13.308810166162088"><ele>1081.0</ele><time>2026-04-23T14:34:57Z</time></trkpt><trkpt lat="41.810715507532194" lon="13.308689020875041"><ele>1081.0</ele><time>2026-04-23T14:34:58Z</time></trkpt><trkpt lat="41.810819852520595" lon="13.30864299449015"><ele>1081.0</ele><time>2026-04-23T14:34:59Z</time></trkpt><trkpt lat="41.81093286163737" lon="13.30866416142827"><ele>1081.0</ele><time>2026-04-23T14:35:00Z</time></trkpt><trkpt lat="41.81103315175126" lon="13.308767434768507"><ele>1081.0</ele><time>2026-04-23T14:35:01Z</time></trkpt><trkpt lat="41.811113076542725" lon="13.308893313968156"><ele>1083.75</ele><time>2026-04-23T14:35:02Z</time></trkpt><trkpt lat="41.81117551586689" lon="13.309052899004971"><ele>1086.5</ele><time>2026-04-23T14:35:03Z</time></trkpt><trkpt lat="41.81123171698842" lon="13.30922047532744"><ele>1089.25</ele><time>2026-04-23T14:35:04Z</time></trkpt><trkpt lat="41.8112746895475" lon="13.309407607496233"><ele>1092.0</ele><time>2026-04-23T14:35:05Z</time></trkpt><trkpt lat="41.811317145674344" lon="13.309666041267612"><ele>1094.3333333333333</ele><time>2026-04-23T14:35:06Z</time></trkpt><trkpt lat="41.81136164012935" lon="13.30996215812041"><ele>1096.6666666666665</ele><time>2026-04-23T14:35:07Z</time></trkpt><trkpt lat="41.81140218646309" lon="13.31024607030965"><ele>1099.0</ele><time>2026-04-23T14:35:08Z</time></trkpt><trkpt lat="41.81144610027778" lon="13.310555120236007"><ele>1099.3333333333333</ele><time>2026-04-23T14:35:09Z</time></trkpt><trkpt lat="41.81149018700367" lon="13.31085342360718"><ele>1099.6666666666667</ele><time>2026-04-23T14:35:10Z</time></trkpt><trkpt lat="41.811512651279216" lon="13.311092190727699"><ele>1100.0</ele><time>2026-04-23T14:35:11Z</time></trkpt><trkpt lat="41.81152658249036" lon="13.311322530722629"><ele>1101.25</ele><time>2026-04-23T14:35:12Z</time></trkpt><trkpt lat="41.81152555542051" lon="13.311549236964064"><ele>1102.5</ele><time>2026-04-23T14:35:13Z</time></trkpt><trkpt lat="41.811494666530216" lon="13.311665757359052"><ele>1103.75</ele><time>2026-04-23T14:35:14Z</time></trkpt><trkpt lat="41.81141532898854" lon="13.311816166386151"><ele>1105.0</ele><time>2026-04-23T14:35:15Z</time></trkpt><trkpt lat="41.81129530233153" lon="13.31194476167103"><ele>1105.0</ele><time>2026-04-23T14:35:16Z</time></trkpt><trkpt lat="41.81118661269483" lon="13.31206994649794"><ele>1105.0</ele><time>2026-04-23T14:35:17Z</time></trkpt><trkpt lat="41.811138085583806" lon="13.312182708697339"><ele>1105.0</ele><time>2026-04-23T14:35:18Z</time></trkpt><trkpt lat="41.81114911201269" lon="13.312280963575104"><ele>1105.0</ele><time>2026-04-23T14:35:19Z</time></trkpt><trkpt lat="41.81117320337908" lon="13.312421352455178"><ele>1105.0</ele><time>2026-04-23T14:35:20Z</time></trkpt><trkpt lat="41.811243834978875" lon="13.312581307386418"><ele>1106.3333333333333</ele><time>2026-04-23T14:35:21Z</time></trkpt><trkpt lat="41.811339376459394" lon="13.312841520644259"><ele>1107.6666666666667</ele><time>2026-04-23T14:35:22Z</time></trkpt><trkpt lat="41.81139854210191" lon="13.31307634161911"><ele>1109.0</ele><time>2026-04-23T14:35:23Z</time></trkpt><trkpt lat="41.81138264673443" lon="13.313277576352245"><ele>1110.6666666666667</ele><time>2026-04-23T14:35:24Z</time></trkpt><trkpt lat="41.81128016592658" lon="13.313478453333483"><ele>1112.3333333333333</ele><time>2026-04-23T14:35:25Z</time></trkpt><trkpt lat="41.81115760930442" lon="13.313656014950254"><ele>1114.0</ele><time>2026-04-23T14:35:26Z</time></trkpt><trkpt lat="41.81102419651269" lon="13.313817461239617"><ele>1113.75</ele><time>2026-04-23T14:35:27Z</time></trkpt><trkpt lat="41.810926244322125" lon="13.313974859314314"><ele>1113.5</ele><time>2026-04-23T14:35:28Z</time></trkpt><trkpt lat="41.81090018945459" lon="13.314127318250708"><ele>1113.25</ele><time>2026-04-23T14:35:29Z</time></trkpt><trkpt lat="41.81097213896613" lon="13.314283521489175"><ele>1113.0</ele><time>2026-04-23T14:35:30Z</time></trkpt><trkpt lat="41.811058499131356" lon="13.31443792863367"><ele>1115.5</ele><time>2026-04-23T14:35:31Z</time></trkpt><trkpt lat="41.81117193561012" lon="13.314597036622805"><ele>1118.0</ele><time>2026-04-23T14:35:32Z</time></trkpt><trkpt lat="41.81129282191289" lon="13.314681057079891"><ele>1120.5</ele><time>2026-04-23T14:35:33Z</time></trkpt><trkpt lat="41.81143121481251" lon="13.314675551052769"><ele>1123.0</ele><time>2026-04-23T14:35:34Z</time></trkpt><trkpt lat="41.81155981456469" lon="13.314617507347064"><ele>1123.0</ele><time>2026-04-23T14:35:35Z</time></trkpt><trkpt lat="41.81166733094745" lon="13.314433155375063"><ele>1123.0</ele><time>2026-04-23T14:35:36Z</time></trkpt><trkpt lat="41.811774055215224" lon="13.314263599663075"><ele>1123.0</ele><time>2026-04-23T14:35:37Z</time></trkpt><trkpt lat="41.811912452838286" lon="13.314079668598337"><ele>1127.6666666666665</ele><time>2026-04-23T14:35:38Z</time></trkpt><trkpt lat="41.81204523848692" lon="13.313896321732566"><ele>1132.3333333333333</ele><time>2026-04-23T14:35:39Z</time></trkpt><trkpt lat="41.812187896683426" lon="13.313750249336481"><ele>1137.0</ele><time>2026-04-23T14:35:40Z</time></trkpt><trkpt lat="41.81235699310765" lon="13.313637084450185"><ele>1137.0</ele><time>2026-04-23T14:35:41Z</time></trkpt><trkpt lat="41.81252016270035" lon="13.313500868886534"><ele>1137.0</ele><time>2026-04-23T14:35:42Z</time></trkpt><trkpt lat="41.81263457088113" lon="13.313286927837776"><ele>1137.0</ele><time>2026-04-23T14:35:43Z</time></trkpt><trkpt lat="41.81272143995709" lon="13.31308296114895"><ele>1148.0</ele><time>2026-04-23T14:35:44Z</time></trkpt><trkpt lat="41.812817086015784" lon="13.31280800502451"><ele>1159.0</ele><time>2026-04-23T14:35:45Z</time></trkpt><trkpt lat="41.81297460694117" lon="13.312536662345492"><ele>1159.0</ele><time>2026-04-23T14:35:46Z</time></trkpt><trkpt lat="41.813102731921" lon="13.312258765936726"><ele>1159.0</ele><time>2026-04-23T14:35:47Z</time></trkpt><trkpt lat="41.81319453945246" lon="13.31203336486855"><ele>1159.0</ele><time>2026-04-23T14:35:48Z</time></trkpt><trkpt lat="41.81328741718109" lon="13.311889971407743"><ele>1159.25</ele><time>2026-04-23T14:35:49Z</time></trkpt><trkpt lat="41.813385011800044" lon="13.31182694354224"><ele>1159.5</ele><time>2026-04-23T14:35:50Z</time></trkpt><trkpt lat="41.81350001502198" lon="13.311739808061596"><ele>1159.75</ele><time>2026-04-23T14:35:51Z</time></trkpt><trkpt lat="41.813615410535746" lon="13.31156090923399"><ele>1160.0</ele><time>2026-04-23T14:35:52Z</time></trkpt><trkpt lat="41.81366762965647" lon="13.311353579419178"><ele>1160.0</ele><time>2026-04-23T14:35:53Z</time></trkpt><trkpt lat="41.81371192767835" lon="13.311162696387584"><ele>1160.0</ele><time>2026-04-23T14:35:54Z</time></trkpt><trkpt lat="41.81378867196638" lon="13.31090641154974"><ele>1160.0</ele><time>2026-04-23T14:35:55Z</time></trkpt><trkpt lat="41.813821563107496" lon="13.310695857860656"><ele>1158.0</ele><time>2026-04-23T14:35:56Z</time></trkpt><trkpt lat="41.81378834949961" lon="13.310523098543124"><ele>1156.0</ele><time>2026-04-23T14:35:57Z</time></trkpt><trkpt lat="41.81376511909326" lon="13.310341504310635"><ele>1154.0</ele><time>2026-04-23T14:35:58Z</time></trkpt><trkpt lat="41.813767494753854" lon="13.3102392614887"><ele>1152.0</ele><time>2026-04-23T14:35:59Z</time></trkpt><trkpt lat="41.81382410551068" lon="13.310126161114775"><ele>1150.0</ele><time>2026-04-23T14:36:00Z</time></trkpt><trkpt lat="41.81393237287143" lon="13.310011573886282"><ele>1150.0</ele><time>2026-04-23T14:36:01Z</time></trkpt><trkpt lat="41.81405626035047" lon="13.30996782654871"><ele>1150.0</ele><time>2026-04-23T14:36:02Z</time></trkpt><trkpt lat="41.814156585195605" lon="13.309983376518067"><ele>1150.0</ele><time>2026-04-23T14:36:03Z</time></trkpt><trkpt lat="41.814234893317256" lon="13.31004146313831"><ele>1150.0</ele><time>2026-04-23T14:36:04Z</time></trkpt><trkpt lat="41.814309667675545" lon="13.310118126936096"><ele>1150.0</ele><time>2026-04-23T14:36:05Z</time></trkpt><trkpt lat="41.81440491113946" lon="13.310246104944097"><ele>1150.5</ele><time>2026-04-23T14:36:06Z</time></trkpt><trkpt lat="41.81451207372503" lon="13.310437573130317"><ele>1151.0</ele><time>2026-04-23T14:36:07Z</time></trkpt><trkpt lat="41.814570092834956" lon="13.310626825317415"><ele>1151.5</ele><time>2026-04-23T14:36:08Z</time></trkpt><trkpt lat="41.81457874585054" lon="13.310711122190499"><ele>1152.0</ele><time>2026-04-23T14:36:09Z</time></trkpt><trkpt lat="41.814565230246444" lon="13.310804994859964"><ele>1152.0</ele><time>2026-04-23T14:36:10Z</time></trkpt><trkpt lat="41.814504569889245" lon="13.310961185755271"><ele>1152.0</ele><time>2026-04-23T14:36:11Z</time></trkpt><trkpt lat="41.81437070905113" lon="13.311147432127566"><ele>1152.0</ele><time>2026-04-23T14:36:12Z</time></trkpt><trkpt lat="41.81423989840939" lon="13.311237462488595"><ele>1154.0</ele><time>2026-04-23T14:36:13Z</time></trkpt><trkpt lat="41.814139775259186" lon="13.31134850995982"><ele>1156.0</ele><time>2026-04-23T14:36:14Z</time></trkpt><trkpt lat="41.81405107457818" lon="13.311488572094161"><ele>1158.0</ele><time>2026-04-23T14:36:15Z</time></trkpt><trkpt lat="41.813986730725354" lon="13.311616024143015"><ele>1160.0</ele><time>2026-04-23T14:36:16Z</time></trkpt><trkpt lat="41.81394823056828" lon="13.311844076904185"><ele>1161.0</ele><time>2026-04-23T14:36:17Z</time></trkpt><trkpt lat="41.813861145304976" lon="13.312043547108804"><ele>1162.0</ele><time>2026-04-23T14:36:18Z</time></trkpt><trkpt lat="41.81373522227881" lon="13.312180285824578"><ele>1163.0</ele><time>2026-04-23T14:36:19Z</time></trkpt><trkpt lat="41.81360239616191" lon="13.312301578371047"><ele>1161.6666666666667</ele><time>2026-04-23T14:36:20Z</time></trkpt><trkpt lat="41.81350423080377" lon="13.31247232489254"><ele>1160.3333333333333</ele><time>2026-04-23T14:36:21Z</time></trkpt><trkpt lat="41.81339177790246" lon="13.312733736769273"><ele>1159.0</ele><time>2026-04-23T14:36:22Z</time></trkpt><trkpt lat="41.813298169295706" lon="13.312976700288392"><ele>1164.6666666666665</ele><time>2026-04-23T14:36:23Z</time></trkpt><trkpt lat="41.813246100581054" lon="13.313169153853499"><ele>1170.3333333333333</ele><time>2026-04-23T14:36:24Z</time></trkpt><trkpt lat="41.813241655032826" lon="13.313453662718864"><ele>1176.0</ele><time>2026-04-23T14:36:25Z</time></trkpt><trkpt lat="41.81322771584558" lon="13.313725136895805"><ele>1179.0</ele><time>2026-04-23T14:36:26Z</time></trkpt><trkpt lat="41.81321936730288" lon="13.31394161738951"><ele>1182.0</ele><time>2026-04-23T14:36:27Z</time></trkpt><trkpt lat="41.813174134987925" lon="13.314134242494795"><ele>1185.0</ele><time>2026-04-23T14:36:28Z</time></trkpt><trkpt lat="41.813102714949956" lon="13.314281488986923"><ele>1188.0</ele><time>2026-04-23T14:36:29Z</time></trkpt><trkpt lat="41.813017873814736" lon="13.314385801492545"><ele>1188.0</ele><time>2026-04-23T14:36:30Z</time></trkpt><trkpt lat="41.81291519181467" lon="13.314522333680452"><ele>1188.0</ele><time>2026-04-23T14:36:31Z</time></trkpt><trkpt lat="41.812811583908825" lon="13.314715892518912"><ele>1188.0</ele><time>2026-04-23T14:36:32Z</time></trkpt><trkpt lat="41.812743616842084" lon="13.314968770863622"><ele>1184.0</ele><time>2026-04-23T14:36:33Z</time></trkpt><trkpt lat="41.812666971721704" lon="13.315209230862962"><ele>1180.0</ele><time>2026-04-23T14:36:34Z</time></trkpt><trkpt lat="41.812631870123205" lon="13.315457072363719"><ele>1176.0</ele><time>2026-04-23T14:36:35Z</time></trkpt><trkpt lat="41.81263358724751" lon="13.315721573339044"><ele>1176.0</ele><time>2026-04-23T14:36:36Z</time></trkpt><trkpt lat="41.81265309576378" lon="13.316030377193973"><ele>1176.0</ele><time>2026-04-23T14:36:37Z</time></trkpt><trkpt lat="41.812671406826276" lon="13.316307233477119"><ele>1176.0</ele><time>2026-04-23T14:36:38Z</time></trkpt><trkpt lat="41.81271219785981" lon="13.31654279151188"><ele>1184.0</ele><time>2026-04-23T14:36:39Z</time></trkpt><trkpt lat="41.81278949347034" lon="13.316742755607233"><ele>1192.0</ele><time>2026-04-23T14:36:40Z</time></trkpt><trkpt lat="41.812894487446556" lon="13.316890928615582"><ele>1200.0</ele><time>2026-04-23T14:36:41Z</time></trkpt><trkpt lat="41.81303260024248" lon="13.31699592123736"><ele>1200.0</ele><time>2026-04-23T14:36:42Z</time></trkpt><trkpt lat="41.81315781203497" lon="13.317048250329627"><ele>1200.0</ele><time>2026-04-23T14:36:43Z</time></trkpt><trkpt lat="41.813258504582784" lon="13.317076205267592"><ele>1200.0</ele><time>2026-04-23T14:36:44Z</time></trkpt><trkpt lat="41.81333591975597" lon="13.317066150319173"><ele>1200.0</ele><time>2026-04-23T14:36:45Z</time></trkpt><trkpt lat="41.81340786756986" lon="13.317011869509875"><ele>1200.0</ele><time>2026-04-23T14:36:46Z</time></trkpt><trkpt lat="41.8134320898939" lon="13.316875443275848"><ele>1200.0</ele><time>2026-04-23T14:36:47Z</time></trkpt><trkpt lat="41.813392871814706" lon="13.316729062255577"><ele>1200.0</ele><time>2026-04-23T14:36:48Z</time></trkpt><trkpt lat="41.8133279623559" lon="13.316592082008466"><ele>1200.0</ele><time>2026-04-23T14:36:49Z</time></trkpt><trkpt lat="41.81320737957895" lon="13.316444708496851"><ele>1200.0</ele><time>2026-04-23T14:36:50Z</time></trkpt><trkpt lat="41.813160972523775" lon="13.316231053880133"><ele>1202.3333333333333</ele><time>2026-04-23T14:36:51Z</time></trkpt><trkpt lat="41.81314896766507" lon="13.316023646695445"><ele>1204.6666666666665</ele><time>2026-04-23T14:36:52Z</time></trkpt><trkpt lat="41.81313761975931" lon="13.315800985098425"><ele>1207.0</ele><time>2026-04-23T14:36:53Z</time></trkpt><trkpt lat="41.81318738650613" lon="13.315613226733436"><ele>1208.25</ele><time>2026-04-23T14:36:54Z</time></trkpt><trkpt lat="41.813274655259406" lon="13.315472984165927"><ele>1209.5</ele><time>2026-04-23T14:36:55Z</time></trkpt><trkpt lat="41.81334546112734" lon="13.31535330255141"><ele>1210.75</ele><time>2026-04-23T14:36:56Z</time></trkpt><trkpt lat="41.813433675509444" lon="13.315286791666317"><ele>1212.0</ele><time>2026-04-23T14:36:57Z</time></trkpt><trkpt lat="41.813532819706055" lon="13.315286710151577"><ele>1212.0</ele><time>2026-04-23T14:36:58Z</time></trkpt><trkpt lat="41.81362745285331" lon="13.31530473262104"><ele>1212.0</ele><time>2026-04-23T14:36:59Z</time></trkpt><trkpt lat="41.813711452979405" lon="13.315352110704064"><ele>1212.0</ele><time>2026-04-23T14:37:00Z</time></trkpt><trkpt lat="41.81376316544249" lon="13.315456913487075"><ele>1212.0</ele><time>2026-04-23T14:37:01Z</time></trkpt><trkpt lat="41.81381895946004" lon="13.315591237257307"><ele>1212.0</ele><time>2026-04-23T14:37:02Z</time></trkpt><trkpt lat="41.813860493193175" lon="13.315717503400649"><ele>1212.0</ele><time>2026-04-23T14:37:03Z</time></trkpt><trkpt lat="41.81389734325739" lon="13.315848847048812"><ele>1212.0</ele><time>2026-04-23T14:37:04Z</time></trkpt><trkpt lat="41.81388672015724" lon="13.315978117427246"><ele>1212.0</ele><time>2026-04-23T14:37:05Z</time></trkpt><trkpt lat="41.81385844089265" lon="13.316054458777295"><ele>1212.0</ele><time>2026-04-23T14:37:06Z</time></trkpt><trkpt lat="41.81380570505184" lon="13.316120905484306"><ele>1212.0</ele><time>2026-04-23T14:37:07Z</time></trkpt><trkpt lat="41.81377833404494" lon="13.316224030319377"><ele>1212.0</ele><time>2026-04-23T14:37:09Z</time></trkpt><trkpt lat="41.81383717459924" lon="13.316322014200617"><ele>1212.0</ele><time>2026-04-23T14:41:51.001Z</time></trkpt><trkpt lat="41.81378036977012" lon="13.316277328859833"><ele>1212.0</ele><time>2026-04-23T14:54:51Z</time></trkpt><trkpt lat="41.8138245288153" lon="13.316343062959065"><ele>1212.0</ele><time>2026-04-23T15:02:09Z</time></trkpt><trkpt lat="41.81386870278481" lon="13.316411319311893"><ele>1212.0</ele><time>2026-04-23T15:02:11Z</time></trkpt><trkpt lat="41.8139189219871" lon="13.31652107371736"><ele>1212.0</ele><time>2026-04-23T15:02:13Z</time></trkpt><trkpt lat="41.81396470109361" lon="13.316590680496525"><ele>1212.0</ele><time>2026-04-23T15:02:14Z</time></trkpt><trkpt lat="41.814018438737754" lon="13.316672386374774"><ele>1212.0</ele><time>2026-04-23T15:02:15Z</time></trkpt><trkpt lat="41.81407353688756" lon="13.31675936400367"><ele>1213.0</ele><time>2026-04-23T15:02:16Z</time></trkpt><trkpt lat="41.814143834790215" lon="13.31684520408673"><ele>1214.0</ele><time>2026-04-23T15:02:17Z</time></trkpt><trkpt lat="41.8142291078839" lon="13.316930882427123"><ele>1215.0</ele><time>2026-04-23T15:02:18Z</time></trkpt><trkpt lat="41.81431659560281" lon="13.317011568343329"><ele>1216.0</ele><time>2026-04-23T15:02:19Z</time></trkpt><trkpt lat="41.81439447402572" lon="13.317088818251214"><ele>1217.0</ele><time>2026-04-23T15:02:20Z</time></trkpt><trkpt lat="41.814472712377345" lon="13.317166903229994"><ele>1219.4</ele><time>2026-04-23T15:02:21Z</time></trkpt><trkpt lat="41.81455408326668" lon="13.317245992574277"><ele>1221.8000000000002</ele><time>2026-04-23T15:02:22Z</time></trkpt><trkpt lat="41.814638987191515" lon="13.31732472946918"><ele>1224.2</ele><time>2026-04-23T15:02:23Z</time></trkpt><trkpt lat="41.81472225151746" lon="13.317405507257831"><ele>1226.6000000000001</ele><time>2026-04-23T15:02:24Z</time></trkpt><trkpt lat="41.814810574254516" lon="13.317480117117492"><ele>1229.0</ele><time>2026-04-23T15:02:25Z</time></trkpt><trkpt lat="41.8148954922596" lon="13.317560469341888"><ele>1229.0</ele><time>2026-04-23T15:02:26Z</time></trkpt><trkpt lat="41.814985248282774" lon="13.317638542170942"><ele>1229.0</ele><time>2026-04-23T15:02:27Z</time></trkpt><trkpt lat="41.81507569536992" lon="13.317715872287868"><ele>1229.0</ele><time>2026-04-23T15:02:28Z</time></trkpt><trkpt lat="41.81517340699456" lon="13.31779038525105"><ele>1229.0</ele><time>2026-04-23T15:02:29Z</time></trkpt><trkpt lat="41.81527402989055" lon="13.317861103498641"><ele>1229.0</ele><time>2026-04-23T15:02:30Z</time></trkpt><trkpt lat="41.8153847830946" lon="13.317921214383245"><ele>1228.75</ele><time>2026-04-23T15:02:31Z</time></trkpt><trkpt lat="41.81550204536558" lon="13.317972366585403"><ele>1228.5</ele><time>2026-04-23T15:02:32Z</time></trkpt><trkpt lat="41.81561609405387" lon="13.318031792590821"><ele>1228.25</ele><time>2026-04-23T15:02:33Z</time></trkpt><trkpt lat="41.815731451216735" lon="13.318086838928703"><ele>1228.0</ele><time>2026-04-23T15:02:34Z</time></trkpt><trkpt lat="41.81585021645971" lon="13.318130760330115"><ele>1228.0</ele><time>2026-04-23T15:02:35Z</time></trkpt><trkpt lat="41.81598002202175" lon="13.318160987382003"><ele>1228.0</ele><time>2026-04-23T15:02:36Z</time></trkpt><trkpt lat="41.816106029341114" lon="13.31819429195353"><ele>1228.0</ele><time>2026-04-23T15:02:37Z</time></trkpt><trkpt lat="41.81623167866994" lon="13.318229308224524"><ele>1228.0</ele><time>2026-04-23T15:02:38Z</time></trkpt><trkpt lat="41.81635612036657" lon="13.318261424475772"><ele>1232.25</ele><time>2026-04-23T15:02:39Z</time></trkpt><trkpt lat="41.816475930755594" lon="13.318296502160415"><ele>1236.5</ele><time>2026-04-23T15:02:40Z</time></trkpt><trkpt lat="41.81659454377387" lon="13.318327805960607"><ele>1240.75</ele><time>2026-04-23T15:02:41Z</time></trkpt><trkpt lat="41.8167076831081" lon="13.318363477283542"><ele>1245.0</ele><time>2026-04-23T15:02:42Z</time></trkpt><trkpt lat="41.81681335072825" lon="13.318400185566563"><ele>1247.1666666666667</ele><time>2026-04-23T15:02:43Z</time></trkpt><trkpt lat="41.81691035881883" lon="13.318443611852365"><ele>1249.3333333333333</ele><time>2026-04-23T15:02:44Z</time></trkpt><trkpt lat="41.81698204774516" lon="13.318481020561645"><ele>1251.5</ele><time>2026-04-23T15:02:45Z</time></trkpt><trkpt lat="41.81704689177675" lon="13.318504839241598"><ele>1253.6666666666665</ele><time>2026-04-23T15:02:46Z</time></trkpt><trkpt lat="41.81714958005932" lon="13.318540130764568"><ele>1255.8333333333333</ele><time>2026-04-23T15:02:48Z</time></trkpt><trkpt lat="41.817213208304906" lon="13.318557994216151"><ele>1258.0</ele><time>2026-04-23T15:02:50Z</time></trkpt><trkpt lat="41.817166376157445" lon="13.318486093682168"><ele>1258.0</ele><time>2026-04-23T15:03:34Z</time></trkpt><trkpt lat="41.81707290880771" lon="13.318442515831121"><ele>1258.0</ele><time>2026-04-23T15:03:35Z</time></trkpt><trkpt lat="41.81698515543164" lon="13.318416395817696"><ele>1258.0</ele><time>2026-04-23T15:03:36Z</time></trkpt><trkpt lat="41.816892007096435" lon="13.318384914900953"><ele>1258.0</ele><time>2026-04-23T15:03:37Z</time></trkpt><trkpt lat="41.81679667765649" lon="13.318351654274078"><ele>1258.0</ele><time>2026-04-23T15:03:38Z</time></trkpt><trkpt lat="41.81669980601515" lon="13.318318881204643"><ele>1254.75</ele><time>2026-04-23T15:03:39Z</time></trkpt><trkpt lat="41.816597128882044" lon="13.318288516013109"><ele>1251.5</ele><time>2026-04-23T15:03:40Z</time></trkpt><trkpt lat="41.81648800801823" lon="13.31825652575528"><ele>1248.25</ele><time>2026-04-23T15:03:41Z</time></trkpt><trkpt lat="41.81636415728683" lon="13.318221667950771"><ele>1245.0</ele><time>2026-04-23T15:03:42Z</time></trkpt><trkpt lat="41.816224937106355" lon="13.318192717533082"><ele>1245.0</ele><time>2026-04-23T15:03:43Z</time></trkpt><trkpt lat="41.816057798347245" lon="13.31814963282529"><ele>1245.0</ele><time>2026-04-23T15:03:44Z</time></trkpt><trkpt lat="41.81586550010036" lon="13.318088563875506"><ele>1245.0</ele><time>2026-04-23T15:03:45Z</time></trkpt><trkpt lat="41.815694590123925" lon="13.3180225857594"><ele>1242.6666666666667</ele><time>2026-04-23T15:03:46Z</time></trkpt><trkpt lat="41.81555057458556" lon="13.317953773332997"><ele>1240.3333333333335</ele><time>2026-04-23T15:03:47Z</time></trkpt><trkpt lat="41.8154112620929" lon="13.317875328073898"><ele>1238.0</ele><time>2026-04-23T15:03:48Z</time></trkpt><trkpt lat="41.815260280309914" lon="13.317790540686083"><ele>1235.0</ele><time>2026-04-23T15:03:49Z</time></trkpt><trkpt lat="41.815121978886616" lon="13.317708643821197"><ele>1232.0</ele><time>2026-04-23T15:03:50Z</time></trkpt><trkpt lat="41.81498593391678" lon="13.317594422299463"><ele>1229.0</ele><time>2026-04-23T15:03:51Z</time></trkpt><trkpt lat="41.81483257171266" lon="13.317451011258065"><ele>1229.0</ele><time>2026-04-23T15:03:52Z</time></trkpt><trkpt lat="41.81466239195169" lon="13.317279794749018"><ele>1229.0</ele><time>2026-04-23T15:03:53Z</time></trkpt><trkpt lat="41.814497257271086" lon="13.317118941668076"><ele>1229.0</ele><time>2026-04-23T15:03:54Z</time></trkpt><trkpt lat="41.81437461021916" lon="13.317010555647224"><ele>1226.0</ele><time>2026-04-23T15:03:55Z</time></trkpt><trkpt lat="41.81427799707343" lon="13.316915104331486"><ele>1223.0</ele><time>2026-04-23T15:03:56Z</time></trkpt><trkpt lat="41.814175131481235" lon="13.316806846439858"><ele>1220.0</ele><time>2026-04-23T15:03:57Z</time></trkpt><trkpt lat="41.814079975700686" lon="13.316704301290134"><ele>1217.0</ele><time>2026-04-23T15:03:58Z</time></trkpt><trkpt lat="41.81400518256211" lon="13.31660012435931"><ele>1217.0</ele><time>2026-04-23T15:03:59Z</time></trkpt><trkpt lat="41.81394514166124" lon="13.316489699550946"><ele>1217.0</ele><time>2026-04-23T15:04:00Z</time></trkpt><trkpt lat="41.81390825106293" lon="13.31636904073657"><ele>1217.0</ele><time>2026-04-23T15:04:01Z</time></trkpt><trkpt lat="41.81389142566977" lon="13.316232279448531"><ele>1217.0</ele><time>2026-04-23T15:04:02Z</time></trkpt><trkpt lat="41.8139046572091" lon="13.316066569344"><ele>1217.0</ele><time>2026-04-23T15:04:03Z</time></trkpt><trkpt lat="41.81393733003536" lon="13.315876883578985"><ele>1215.75</ele><time>2026-04-23T15:04:04Z</time></trkpt><trkpt lat="41.81392737325442" lon="13.315718515148662"><ele>1214.5</ele><time>2026-04-23T15:04:05Z</time></trkpt><trkpt lat="41.81388047128268" lon="13.315580173253641"><ele>1213.25</ele><time>2026-04-23T15:04:06Z</time></trkpt><trkpt lat="41.81381950165134" lon="13.315449975205622"><ele>1212.0</ele><time>2026-04-23T15:04:07Z</time></trkpt><trkpt lat="41.81375687668291" lon="13.315339218109916"><ele>1212.0</ele><time>2026-04-23T15:04:08Z</time></trkpt><trkpt lat="41.81368178640348" lon="13.315264091937562"><ele>1212.0</ele><time>2026-04-23T15:04:09Z</time></trkpt><trkpt lat="41.813594511840584" lon="13.315226426545344"><ele>1212.0</ele><time>2026-04-23T15:04:10Z</time></trkpt><trkpt lat="41.81349788164203" lon="13.315240504950818"><ele>1212.0</ele><time>2026-04-23T15:04:11Z</time></trkpt><trkpt lat="41.81339947859628" lon="13.315284333524627"><ele>1212.0</ele><time>2026-04-23T15:04:12Z</time></trkpt><trkpt lat="41.81329941476977" lon="13.315368714546976"><ele>1210.75</ele><time>2026-04-23T15:04:13Z</time></trkpt><trkpt lat="41.8131979106245" lon="13.315496099842983"><ele>1209.5</ele><time>2026-04-23T15:04:14Z</time></trkpt><trkpt lat="41.81314382491821" lon="13.315684670823433"><ele>1208.25</ele><time>2026-04-23T15:04:15Z</time></trkpt><trkpt lat="41.81311633424641" lon="13.315832392010083"><ele>1207.0</ele><time>2026-04-23T15:04:16Z</time></trkpt><trkpt lat="41.8131093129431" lon="13.315966955707804"><ele>1207.0</ele><time>2026-04-23T15:04:17Z</time></trkpt><trkpt lat="41.813100023360334" lon="13.316130010264894"><ele>1207.0</ele><time>2026-04-23T15:04:18Z</time></trkpt><trkpt lat="41.81311359831767" lon="13.31628641364459"><ele>1207.0</ele><time>2026-04-23T15:04:19Z</time></trkpt><trkpt lat="41.81315779357986" lon="13.316419379307778"><ele>1207.0</ele><time>2026-04-23T15:04:20Z</time></trkpt><trkpt lat="41.81320049542931" lon="13.316529118030685"><ele>1207.0</ele><time>2026-04-23T15:04:21Z</time></trkpt><trkpt lat="41.813243780831435" lon="13.316629677209312"><ele>1205.6</ele><time>2026-04-23T15:04:22Z</time></trkpt><trkpt lat="41.81330707752086" lon="13.316698820433174"><ele>1204.2</ele><time>2026-04-23T15:04:23Z</time></trkpt><trkpt lat="41.81335138179273" lon="13.316761889476332"><ele>1202.8</ele><time>2026-04-23T15:04:24Z</time></trkpt><trkpt lat="41.81337324041066" lon="13.316874054947318"><ele>1201.4</ele><time>2026-04-23T15:04:26Z</time></trkpt><trkpt lat="41.81325603313414" lon="13.316952591450999"><ele>1200.0</ele><time>2026-04-23T15:04:28Z</time></trkpt><trkpt lat="41.8131657542421" lon="13.31693989309608"><ele>1200.0</ele><time>2026-04-23T15:04:29Z</time></trkpt><trkpt lat="41.81306819837911" lon="13.316881250754824"><ele>1200.0</ele><time>2026-04-23T15:04:30Z</time></trkpt><trkpt lat="41.81298082873698" lon="13.316807260775951"><ele>1200.0</ele><time>2026-04-23T15:04:31Z</time></trkpt><trkpt lat="41.812889826363254" lon="13.316726967617887"><ele>1200.0</ele><time>2026-04-23T15:04:32Z</time></trkpt><trkpt lat="41.81281401920017" lon="13.316612932334527"><ele>1200.0</ele><time>2026-04-23T15:04:33Z</time></trkpt><trkpt lat="41.81276610877631" lon="13.316474253582907"><ele>1201.75</ele><time>2026-04-23T15:04:34Z</time></trkpt><trkpt lat="41.81274444895962" lon="13.31630770305791"><ele>1203.5</ele><time>2026-04-23T15:04:35Z</time></trkpt><trkpt lat="41.81274190458946" lon="13.316145761619932"><ele>1205.25</ele><time>2026-04-23T15:04:36Z</time></trkpt><trkpt lat="41.812735973667" lon="13.31596247237444"><ele>1207.0</ele><time>2026-04-23T15:04:37Z</time></trkpt><trkpt lat="41.81272634678992" lon="13.315776409053832"><ele>1207.0</ele><time>2026-04-23T15:04:38Z</time></trkpt><trkpt lat="41.81272434953853" lon="13.315597834133994"><ele>1207.0</ele><time>2026-04-23T15:04:39Z</time></trkpt><trkpt lat="41.81272076087105" lon="13.315423251067374"><ele>1207.0</ele><time>2026-04-23T15:04:40Z</time></trkpt><trkpt lat="41.81272926504682" lon="13.315254001499875"><ele>1207.0</ele><time>2026-04-23T15:04:41Z</time></trkpt><trkpt lat="41.81276577556976" lon="13.315080869824628"><ele>1205.5</ele><time>2026-04-23T15:04:42Z</time></trkpt><trkpt lat="41.81281019908183" lon="13.314923019130994"><ele>1204.0</ele><time>2026-04-23T15:04:43Z</time></trkpt><trkpt lat="41.81286840285734" lon="13.314750881708358"><ele>1202.5</ele><time>2026-04-23T15:04:44Z</time></trkpt><trkpt lat="41.81292545340046" lon="13.314613963327053"><ele>1201.0</ele><time>2026-04-23T15:04:45Z</time></trkpt><trkpt lat="41.81299635962649" lon="13.314489953206035"><ele>1197.75</ele><time>2026-04-23T15:04:46Z</time></trkpt><trkpt lat="41.813081612957205" lon="13.314357923197523"><ele>1194.5</ele><time>2026-04-23T15:04:47Z</time></trkpt><trkpt lat="41.813163247912" lon="13.314241909187281"><ele>1191.25</ele><time>2026-04-23T15:04:48Z</time></trkpt><trkpt lat="41.81321204584846" lon="13.314128210901456"><ele>1188.0</ele><time>2026-04-23T15:04:49Z</time></trkpt><trkpt lat="41.813244714833615" lon="13.313976638471688"><ele>1185.0</ele><time>2026-04-23T15:04:50Z</time></trkpt><trkpt lat="41.81326076967572" lon="13.313798139663916"><ele>1182.0</ele><time>2026-04-23T15:04:51Z</time></trkpt><trkpt lat="41.813273315608626" lon="13.313612353691152"><ele>1179.0</ele><time>2026-04-23T15:04:52Z</time></trkpt><trkpt lat="41.81327771616327" lon="13.313432507339169"><ele>1176.0</ele><time>2026-04-23T15:04:53Z</time></trkpt><trkpt lat="41.81328371699033" lon="13.31324263671981"><ele>1176.0</ele><time>2026-04-23T15:04:54Z</time></trkpt><trkpt lat="41.8133069810349" lon="13.313079156652266"><ele>1176.0</ele><time>2026-04-23T15:04:55Z</time></trkpt><trkpt lat="41.81334035908567" lon="13.31295099337372"><ele>1176.0</ele><time>2026-04-23T15:04:56Z</time></trkpt><trkpt lat="41.81340204133722" lon="13.312811332530462"><ele>1176.0</ele><time>2026-04-23T15:04:57Z</time></trkpt><trkpt lat="41.81348927627898" lon="13.312646621460486"><ele>1176.3333333333333</ele><time>2026-04-23T15:04:58Z</time></trkpt><trkpt lat="41.81356506567757" lon="13.312438762858271"><ele>1176.6666666666665</ele><time>2026-04-23T15:04:59Z</time></trkpt><trkpt lat="41.81365355416045" lon="13.312299049951298"><ele>1177.0</ele><time>2026-04-23T15:05:00Z</time></trkpt><trkpt lat="41.81378181515225" lon="13.312185085539125"><ele>1173.5</ele><time>2026-04-23T15:05:01Z</time></trkpt><trkpt lat="41.81389289131719" lon="13.312112322299821"><ele>1170.0</ele><time>2026-04-23T15:05:02Z</time></trkpt><trkpt lat="41.81397370519113" lon="13.311983208805653"><ele>1166.5</ele><time>2026-04-23T15:05:03Z</time></trkpt><trkpt lat="41.81404532019056" lon="13.31179935209839"><ele>1163.0</ele><time>2026-04-23T15:05:04Z</time></trkpt><trkpt lat="41.81407844124626" lon="13.311624440637885"><ele>1163.0</ele><time>2026-04-23T15:05:05Z</time></trkpt><trkpt lat="41.814121623386335" lon="13.311461459958629"><ele>1163.0</ele><time>2026-04-23T15:05:06Z</time></trkpt><trkpt lat="41.81420586713506" lon="13.311327448112836"><ele>1163.0</ele><time>2026-04-23T15:05:07Z</time></trkpt><trkpt lat="41.8143133585354" lon="13.311219628495198"><ele>1163.0</ele><time>2026-04-23T15:05:08Z</time></trkpt><trkpt lat="41.8144446966332" lon="13.31112333589733"><ele>1160.25</ele><time>2026-04-23T15:05:09Z</time></trkpt><trkpt lat="41.814526459473704" lon="13.311001483528429"><ele>1157.5</ele><time>2026-04-23T15:05:10Z</time></trkpt><trkpt lat="41.81460418918276" lon="13.310863872818475"><ele>1154.75</ele><time>2026-04-23T15:05:11Z</time></trkpt><trkpt lat="41.81466859921959" lon="13.310725258368867"><ele>1152.0</ele><time>2026-04-23T15:05:12Z</time></trkpt><trkpt lat="41.81465411346188" lon="13.310561100508188"><ele>1148.6666666666667</ele><time>2026-04-23T15:05:13Z</time></trkpt><trkpt lat="41.81461217197959" lon="13.310392771841396"><ele>1145.3333333333335</ele><time>2026-04-23T15:05:14Z</time></trkpt><trkpt lat="41.8144917389144" lon="13.310223443201188"><ele>1142.0</ele><time>2026-04-23T15:05:15Z</time></trkpt><trkpt lat="41.81438015438743" lon="13.310067777854549"><ele>1143.6</ele><time>2026-04-23T15:05:16Z</time></trkpt><trkpt lat="41.81430421057451" lon="13.309982486969119"><ele>1145.2</ele><time>2026-04-23T15:05:17Z</time></trkpt><trkpt lat="41.81421417262271" lon="13.30992603274394"><ele>1146.8</ele><time>2026-04-23T15:05:18Z</time></trkpt><trkpt lat="41.81411866118449" lon="13.309876394358163"><ele>1148.4</ele><time>2026-04-23T15:05:19Z</time></trkpt><trkpt lat="41.81399680658024" lon="13.30991594841098"><ele>1150.0</ele><time>2026-04-23T15:05:21Z</time></trkpt><trkpt lat="41.81385236539934" lon="13.310044479292156"><ele>1150.0</ele><time>2026-04-23T15:05:22Z</time></trkpt><trkpt lat="41.81375175129153" lon="13.310207180430432"><ele>1150.0</ele><time>2026-04-23T15:05:23Z</time></trkpt><trkpt lat="41.81369797475938" lon="13.310449358217829"><ele>1150.0</ele><time>2026-04-23T15:05:24Z</time></trkpt><trkpt lat="41.813751019048105" lon="13.310690043875864"><ele>1152.5</ele><time>2026-04-23T15:05:25Z</time></trkpt><trkpt lat="41.81376837571554" lon="13.31084366563764"><ele>1155.0</ele><time>2026-04-23T15:05:26Z</time></trkpt><trkpt lat="41.81373993744428" lon="13.310992031029187"><ele>1157.5</ele><time>2026-04-23T15:05:27Z</time></trkpt><trkpt lat="41.8136775765803" lon="13.31118140246138"><ele>1160.0</ele><time>2026-04-23T15:05:28Z</time></trkpt><trkpt lat="41.81361029416799" lon="13.311435370296717"><ele>1160.75</ele><time>2026-04-23T15:05:29Z</time></trkpt><trkpt lat="41.8135494500723" lon="13.311606482792339"><ele>1161.5</ele><time>2026-04-23T15:05:30Z</time></trkpt><trkpt lat="41.81348784003943" lon="13.311710309949357"><ele>1162.25</ele><time>2026-04-23T15:05:31Z</time></trkpt><trkpt lat="41.813417223435636" lon="13.31175720141196"><ele>1163.0</ele><time>2026-04-23T15:05:32Z</time></trkpt><trkpt lat="41.8133000969109" lon="13.311841467639978"><ele>1161.6666666666667</ele><time>2026-04-23T15:05:33Z</time></trkpt><trkpt lat="41.813153670682965" lon="13.312035604318472"><ele>1160.3333333333333</ele><time>2026-04-23T15:05:34Z</time></trkpt><trkpt lat="41.813048235677016" lon="13.312300476092725"><ele>1159.0</ele><time>2026-04-23T15:05:35Z</time></trkpt><trkpt lat="41.81293361057226" lon="13.31253710552976"><ele>1159.0</ele><time>2026-04-23T15:05:36Z</time></trkpt><trkpt lat="41.81280244375937" lon="13.312791563123744"><ele>1159.0</ele><time>2026-04-23T15:05:37Z</time></trkpt><trkpt lat="41.81267180510513" lon="13.313123167998594"><ele>1151.6666666666665</ele><time>2026-04-23T15:05:38Z</time></trkpt><trkpt lat="41.81258885966036" lon="13.313325766824459"><ele>1144.3333333333333</ele><time>2026-04-23T15:05:39Z</time></trkpt><trkpt lat="41.8124852847979" lon="13.313480019099556"><ele>1137.0</ele><time>2026-04-23T15:05:40Z</time></trkpt><trkpt lat="41.81238284620744" lon="13.313577011959644"><ele>1137.0</ele><time>2026-04-23T15:05:41Z</time></trkpt><trkpt lat="41.812257764470864" lon="13.313656714252977"><ele>1137.0</ele><time>2026-04-23T15:05:42Z</time></trkpt><trkpt lat="41.81208096405934" lon="13.313797752187558"><ele>1137.0</ele><time>2026-04-23T15:05:43Z</time></trkpt><trkpt lat="41.811915457701055" lon="13.314055522575549"><ele>1132.3333333333333</ele><time>2026-04-23T15:05:44Z</time></trkpt><trkpt lat="41.81174398478667" lon="13.314257532604028"><ele>1127.6666666666665</ele><time>2026-04-23T15:05:45Z</time></trkpt><trkpt lat="41.81158296537713" lon="13.314458176287932"><ele>1123.0</ele><time>2026-04-23T15:05:46Z</time></trkpt><trkpt lat="41.81147537446784" lon="13.314596563413152"><ele>1123.0</ele><time>2026-04-23T15:05:47Z</time></trkpt><trkpt lat="41.8113747749441" lon="13.314655523192656"><ele>1123.0</ele><time>2026-04-23T15:05:48Z</time></trkpt><trkpt lat="41.81128008001486" lon="13.31462641892047"><ele>1123.0</ele><time>2026-04-23T15:05:49Z</time></trkpt><trkpt lat="41.81115685498571" lon="13.314581835376684"><ele>1123.0</ele><time>2026-04-23T15:05:50Z</time></trkpt><trkpt lat="41.81108250949505" lon="13.314431594016169"><ele>1123.0</ele><time>2026-04-23T15:05:51Z</time></trkpt><trkpt lat="41.811016307118756" lon="13.314290038500802"><ele>1123.0</ele><time>2026-04-23T15:05:52Z</time></trkpt><trkpt lat="41.81098133599505" lon="13.314144609509286"><ele>1123.0</ele><time>2026-04-23T15:05:53Z</time></trkpt><trkpt lat="41.81099324028813" lon="13.314009703213063"><ele>1123.0</ele><time>2026-04-23T15:05:54Z</time></trkpt><trkpt lat="41.81105199287401" lon="13.31388772213508"><ele>1123.0</ele><time>2026-04-23T15:05:55Z</time></trkpt><trkpt lat="41.8111318947235" lon="13.31377653709431"><ele>1120.0</ele><time>2026-04-23T15:05:56Z</time></trkpt><trkpt lat="41.81122894408772" lon="13.313633794505954"><ele>1117.0</ele><time>2026-04-23T15:05:57Z</time></trkpt><trkpt lat="41.811335360912516" lon="13.313469240601053"><ele>1114.0</ele><time>2026-04-23T15:05:58Z</time></trkpt><trkpt lat="41.811398416277015" lon="13.313275879818478"><ele>1114.0</ele><time>2026-04-23T15:05:59Z</time></trkpt><trkpt lat="41.81145985009114" lon="13.313095755502836"><ele>1114.0</ele><time>2026-04-23T15:06:00Z</time></trkpt><trkpt lat="41.81142306882959" lon="13.312900741009113"><ele>1114.0</ele><time>2026-04-23T15:06:01Z</time></trkpt><trkpt lat="41.81135284803566" lon="13.312705277599768"><ele>1112.75</ele><time>2026-04-23T15:06:02Z</time></trkpt><trkpt lat="41.81127224051204" lon="13.312505089494204"><ele>1111.5</ele><time>2026-04-23T15:06:03Z</time></trkpt><trkpt lat="41.81123154385837" lon="13.312352343393197"><ele>1110.25</ele><time>2026-04-23T15:06:04Z</time></trkpt><trkpt lat="41.81120708371548" lon="13.312191515373835"><ele>1109.0</ele><time>2026-04-23T15:06:05Z</time></trkpt><trkpt lat="41.811211671520375" lon="13.312065418210505"><ele>1108.0</ele><time>2026-04-23T15:06:06Z</time></trkpt><trkpt lat="41.81127903775249" lon="13.31200157217297"><ele>1107.0</ele><time>2026-04-23T15:06:07Z</time></trkpt><trkpt lat="41.81135322967997" lon="13.31194813175812"><ele>1106.0</ele><time>2026-04-23T15:06:08Z</time></trkpt><trkpt lat="41.81146890096976" lon="13.311795960264051"><ele>1105.0</ele><time>2026-04-23T15:06:09Z</time></trkpt><trkpt lat="41.81155405285371" lon="13.31161488857452"><ele>1103.3333333333333</ele><time>2026-04-23T15:06:10Z</time></trkpt><trkpt lat="41.81155957005559" lon="13.311313450888761"><ele>1101.6666666666667</ele><time>2026-04-23T15:06:11Z</time></trkpt><trkpt lat="41.81154386427891" lon="13.311062152139039"><ele>1100.0</ele><time>2026-04-23T15:06:12Z</time></trkpt><trkpt lat="41.81151726839366" lon="13.310801432725524"><ele>1099.5</ele><time>2026-04-23T15:06:13Z</time></trkpt><trkpt lat="41.81147320544404" lon="13.310507285770182"><ele>1099.0</ele><time>2026-04-23T15:06:14Z</time></trkpt><trkpt lat="41.811426445961445" lon="13.310178209013655"><ele>1099.0</ele><time>2026-04-23T15:06:15Z</time></trkpt><trkpt lat="41.81137850440629" lon="13.3098458073825"><ele>1099.0</ele><time>2026-04-23T15:06:16Z</time></trkpt><trkpt lat="41.811332281813364" lon="13.309547423099179"><ele>1096.6666666666665</ele><time>2026-04-23T15:06:17Z</time></trkpt><trkpt lat="41.811286438259835" lon="13.309294593401322"><ele>1094.3333333333333</ele><time>2026-04-23T15:06:18Z</time></trkpt><trkpt lat="41.811232137195674" lon="13.309107056157552"><ele>1092.0</ele><time>2026-04-23T15:06:19Z</time></trkpt><trkpt lat="41.81114277629202" lon="13.308913882232137"><ele>1090.5</ele><time>2026-04-23T15:06:20Z</time></trkpt><trkpt lat="41.81108658492784" lon="13.308776072624779"><ele>1089.0</ele><time>2026-04-23T15:06:21Z</time></trkpt><trkpt lat="41.81100344032663" lon="13.308685722824965"><ele>1087.5</ele><time>2026-04-23T15:06:22Z</time></trkpt><trkpt lat="41.81090241562143" lon="13.308603501577043"><ele>1086.0</ele><time>2026-04-23T15:06:23Z</time></trkpt><trkpt lat="41.81077442028592" lon="13.308612686552769"><ele>1084.3333333333333</ele><time>2026-04-23T15:06:24Z</time></trkpt><trkpt lat="41.8106537966222" lon="13.308671637514543"><ele>1082.6666666666665</ele><time>2026-04-23T15:06:25Z</time></trkpt><trkpt lat="41.81054080380359" lon="13.308814527529295"><ele>1081.0</ele><time>2026-04-23T15:06:26Z</time></trkpt><trkpt lat="41.81043070163069" lon="13.309023727317214"><ele>1080.0</ele><time>2026-04-23T15:06:27Z</time></trkpt><trkpt lat="41.81033085476294" lon="13.309167288069187"><ele>1079.0</ele><time>2026-04-23T15:06:28Z</time></trkpt><trkpt lat="41.81025490623835" lon="13.309341299755424"><ele>1078.0</ele><time>2026-04-23T15:06:29Z</time></trkpt><trkpt lat="41.81015919398155" lon="13.309467008094314"><ele>1077.0</ele><time>2026-04-23T15:06:30Z</time></trkpt><trkpt lat="41.81005508931451" lon="13.30955416015125"><ele>1077.0</ele><time>2026-04-23T15:06:31Z</time></trkpt><trkpt lat="41.80985577077655" lon="13.309544073972777"><ele>1077.0</ele><time>2026-04-23T15:06:32Z</time></trkpt><trkpt lat="41.80964178328475" lon="13.30964343155371"><ele>1077.0</ele><time>2026-04-23T15:06:33Z</time></trkpt><trkpt lat="41.80941567681624" lon="13.309754341700259"><ele>1076.3333333333333</ele><time>2026-04-23T15:06:34Z</time></trkpt><trkpt lat="41.809237087680586" lon="13.309884618735861"><ele>1075.6666666666665</ele><time>2026-04-23T15:06:35Z</time></trkpt><trkpt lat="41.80913791924941" lon="13.30999799135831"><ele>1075.0</ele><time>2026-04-23T15:06:36Z</time></trkpt><trkpt lat="41.80905852158119" lon="13.310163416204649"><ele>1075.0</ele><time>2026-04-23T15:06:37Z</time></trkpt><trkpt lat="41.80900555434533" lon="13.31036578985286"><ele>1075.0</ele><time>2026-04-23T15:06:38Z</time></trkpt><trkpt lat="41.80894917932139" lon="13.310561292880315"><ele>1075.0</ele><time>2026-04-23T15:06:39Z</time></trkpt><trkpt lat="41.80894508119684" lon="13.310754055868758"><ele>1076.0</ele><time>2026-04-23T15:06:40Z</time></trkpt><trkpt lat="41.80898489964111" lon="13.310945219072401"><ele>1077.0</ele><time>2026-04-23T15:06:41Z</time></trkpt><trkpt lat="41.809010149316066" lon="13.311134925159482"><ele>1078.0</ele><time>2026-04-23T15:06:42Z</time></trkpt><trkpt lat="41.80897728245943" lon="13.311294533776225"><ele>1079.0</ele><time>2026-04-23T15:06:43Z</time></trkpt><trkpt lat="41.808939585197365" lon="13.31140126584111"><ele>1079.0</ele><time>2026-04-23T15:06:44Z</time></trkpt><trkpt lat="41.80886802551248" lon="13.311463791276074"><ele>1079.0</ele><time>2026-04-23T15:06:45Z</time></trkpt><trkpt lat="41.8087979196886" lon="13.311496144374932"><ele>1079.0</ele><time>2026-04-23T15:06:46Z</time></trkpt><trkpt lat="41.808722624004936" lon="13.311477797260483"><ele>1079.0</ele><time>2026-04-23T15:06:47Z</time></trkpt><trkpt lat="41.80863401583872" lon="13.311380683881156"><ele>1079.0</ele><time>2026-04-23T15:06:48Z</time></trkpt><trkpt lat="41.80855225831312" lon="13.31122189281455"><ele>1079.0</ele><time>2026-04-23T15:06:49Z</time></trkpt><trkpt lat="41.80849813671577" lon="13.311053336653233"><ele>1079.0</ele><time>2026-04-23T15:06:50Z</time></trkpt><trkpt lat="41.80843073589085" lon="13.310799263670525"><ele>1079.0</ele><time>2026-04-23T15:06:51Z</time></trkpt><trkpt lat="41.80836199334077" lon="13.310563060827187"><ele>1070.0</ele><time>2026-04-23T15:06:52Z</time></trkpt><trkpt lat="41.80832968574731" lon="13.310292919425116"><ele>1061.0</ele><time>2026-04-23T15:06:53Z</time></trkpt><trkpt lat="41.80830683954653" lon="13.310026454337855"><ele>1052.0</ele><time>2026-04-23T15:06:54Z</time></trkpt><trkpt lat="41.80829223597153" lon="13.309773639507327"><ele>1049.0</ele><time>2026-04-23T15:06:55Z</time></trkpt><trkpt lat="41.808265856154335" lon="13.309513588555468"><ele>1046.0</ele><time>2026-04-23T15:06:56Z</time></trkpt><trkpt lat="41.80826318409466" lon="13.309283466619164"><ele>1043.0</ele><time>2026-04-23T15:06:57Z</time></trkpt><trkpt lat="41.80828375637395" lon="13.309165791159618"><ele>1043.0</ele><time>2026-04-23T15:06:58Z</time></trkpt><trkpt lat="41.80834754423655" lon="13.309032646744372"><ele>1043.0</ele><time>2026-04-23T15:06:59Z</time></trkpt><trkpt lat="41.8084990239501" lon="13.308976760250339"><ele>1043.0</ele><time>2026-04-23T15:07:00Z</time></trkpt><trkpt lat="41.80867278496418" lon="13.308907632362617"><ele>1045.3333333333335</ele><time>2026-04-23T15:07:01Z</time></trkpt><trkpt lat="41.808808061447934" lon="13.30877345712914"><ele>1047.6666666666667</ele><time>2026-04-23T15:07:02Z</time></trkpt><trkpt lat="41.80889683209118" lon="13.308544570313115"><ele>1050.0</ele><time>2026-04-23T15:07:03Z</time></trkpt><trkpt lat="41.80895361650176" lon="13.308308725533914"><ele>1050.0</ele><time>2026-04-23T15:07:04Z</time></trkpt><trkpt lat="41.80902728668851" lon="13.308139871859725"><ele>1050.0</ele><time>2026-04-23T15:07:05Z</time></trkpt><trkpt lat="41.80913421244902" lon="13.308024390365464"><ele>1050.0</ele><time>2026-04-23T15:07:06Z</time></trkpt><trkpt lat="41.809281402947256" lon="13.307919034848407"><ele>1051.3333333333333</ele><time>2026-04-23T15:07:07Z</time></trkpt><trkpt lat="41.8094401486658" lon="13.307820557823016"><ele>1052.6666666666665</ele><time>2026-04-23T15:07:08Z</time></trkpt><trkpt lat="41.80950661486298" lon="13.307619194664115"><ele>1054.0</ele><time>2026-04-23T15:07:09Z</time></trkpt><trkpt lat="41.80957094813083" lon="13.307427179327297"><ele>1049.6666666666665</ele><time>2026-04-23T15:07:10Z</time></trkpt><trkpt lat="41.809607099466106" lon="13.307158343312258"><ele>1045.3333333333333</ele><time>2026-04-23T15:07:11Z</time></trkpt><trkpt lat="41.80969241143219" lon="13.306923033792248"><ele>1041.0</ele><time>2026-04-23T15:07:12Z</time></trkpt><trkpt lat="41.80979915915901" lon="13.306696560366941"><ele>1041.0</ele><time>2026-04-23T15:07:13Z</time></trkpt><trkpt lat="41.809899303147034" lon="13.306499848164808"><ele>1041.0</ele><time>2026-04-23T15:07:14Z</time></trkpt><trkpt lat="41.809971945355564" lon="13.306316442995609"><ele>1041.0</ele><time>2026-04-23T15:07:15Z</time></trkpt><trkpt lat="41.80992180910347" lon="13.306045230504763"><ele>1037.6666666666667</ele><time>2026-04-23T15:07:16Z</time></trkpt><trkpt lat="41.80989746386703" lon="13.305800893743948"><ele>1034.3333333333335</ele><time>2026-04-23T15:07:17Z</time></trkpt><trkpt lat="41.809896897419875" lon="13.30556018003383"><ele>1031.0</ele><time>2026-04-23T15:07:18Z</time></trkpt><trkpt lat="41.80993308695412" lon="13.30526847553337"><ele>1028.3333333333335</ele><time>2026-04-23T15:07:19Z</time></trkpt><trkpt lat="41.809966211469735" lon="13.304990343012252"><ele>1025.6666666666667</ele><time>2026-04-23T15:07:20Z</time></trkpt><trkpt lat="41.80999672718551" lon="13.304736767101907"><ele>1023.0</ele><time>2026-04-23T15:07:21Z</time></trkpt><trkpt lat="41.81002449739579" lon="13.304537021631624"><ele>1023.5999999999999</ele><time>2026-04-23T15:07:22Z</time></trkpt><trkpt lat="41.81005829804899" lon="13.304424085806362"><ele>1024.1999999999998</ele><time>2026-04-23T15:07:23Z</time></trkpt><trkpt lat="41.81013669357868" lon="13.304290618998646"><ele>1024.8</ele><time>2026-04-23T15:07:24Z</time></trkpt><trkpt lat="41.81021851509501" lon="13.30422493930093"><ele>1025.3999999999999</ele><time>2026-04-23T15:07:25Z</time></trkpt><trkpt lat="41.81033415470163" lon="13.304147841729181"><ele>1026.0</ele><time>2026-04-23T15:07:26Z</time></trkpt><trkpt lat="41.810529273537995" lon="13.304031151117686"><ele>1026.0</ele><time>2026-04-23T15:07:27Z</time></trkpt><trkpt lat="41.81068724607739" lon="13.303924447334147"><ele>1026.0</ele><time>2026-04-23T15:07:28Z</time></trkpt><trkpt lat="41.81082149697318" lon="13.30377045677577"><ele>1026.0</ele><time>2026-04-23T15:07:29Z</time></trkpt><trkpt lat="41.810883492683914" lon="13.303602725648352"><ele>1022.3333333333333</ele><time>2026-04-23T15:07:30Z</time></trkpt><trkpt lat="41.81086969907788" lon="13.303368566811253"><ele>1018.6666666666666</ele><time>2026-04-23T15:07:31Z</time></trkpt><trkpt lat="41.81086925356395" lon="13.303121332585617"><ele>1015.0</ele><time>2026-04-23T15:07:32Z</time></trkpt><trkpt lat="41.81086944705993" lon="13.302847326064455"><ele>1012.5</ele><time>2026-04-23T15:07:33Z</time></trkpt><trkpt lat="41.81088692295977" lon="13.302663872617568"><ele>1010.0</ele><time>2026-04-23T15:07:34Z</time></trkpt><trkpt lat="41.81091790154262" lon="13.302534156800375"><ele>1007.5</ele><time>2026-04-23T15:07:35Z</time></trkpt><trkpt lat="41.81098915393708" lon="13.302427728801344"><ele>1005.0</ele><time>2026-04-23T15:07:36Z</time></trkpt><trkpt lat="41.811105830979606" lon="13.302327813021835"><ele>1002.75</ele><time>2026-04-23T15:07:37Z</time></trkpt><trkpt lat="41.811246940912895" lon="13.302228726652277"><ele>1000.5</ele><time>2026-04-23T15:07:38Z</time></trkpt><trkpt lat="41.81138087605943" lon="13.302170306979697"><ele>998.25</ele><time>2026-04-23T15:07:39Z</time></trkpt><trkpt lat="41.81151907393551" lon="13.302149350923697"><ele>996.0</ele><time>2026-04-23T15:07:40Z</time></trkpt><trkpt lat="41.81164320694504" lon="13.302191628921316"><ele>995.75</ele><time>2026-04-23T15:07:41Z</time></trkpt><trkpt lat="41.81175468777817" lon="13.302259333144043"><ele>995.5</ele><time>2026-04-23T15:07:42Z</time></trkpt><trkpt lat="41.811847312937196" lon="13.30235771729728"><ele>995.25</ele><time>2026-04-23T15:07:43Z</time></trkpt><trkpt lat="41.811901120875035" lon="13.302504670407926"><ele>995.0</ele><time>2026-04-23T15:07:44Z</time></trkpt><trkpt lat="41.81196017229802" lon="13.302690472877035"><ele>995.0</ele><time>2026-04-23T15:07:45Z</time></trkpt><trkpt lat="41.81206710096571" lon="13.302876912210266"><ele>995.0</ele><time>2026-04-23T15:07:46Z</time></trkpt><trkpt lat="41.812198502865535" lon="13.302925712117458"><ele>995.0</ele><time>2026-04-23T15:07:47Z</time></trkpt><trkpt lat="41.81234199594721" lon="13.302970738895246"><ele>995.0</ele><time>2026-04-23T15:07:48Z</time></trkpt><trkpt lat="41.81248191791756" lon="13.302920654844966"><ele>995.0</ele><time>2026-04-23T15:07:49Z</time></trkpt><trkpt lat="41.81258390444802" lon="13.302841476664803"><ele>995.0</ele><time>2026-04-23T15:07:50Z</time></trkpt><trkpt lat="41.81261999946916" lon="13.302630301619239"><ele>995.0</ele><time>2026-04-23T15:07:51Z</time></trkpt><trkpt lat="41.812610882451146" lon="13.302419514130339"><ele>992.0</ele><time>2026-04-23T15:07:52Z</time></trkpt><trkpt lat="41.812648408403355" lon="13.30221944602873"><ele>989.0</ele><time>2026-04-23T15:07:53Z</time></trkpt><trkpt lat="41.81272123358697" lon="13.30207106339152"><ele>986.0</ele><time>2026-04-23T15:07:54Z</time></trkpt><trkpt lat="41.812797640025764" lon="13.30197801252819"><ele>983.0</ele><time>2026-04-23T15:07:55Z</time></trkpt><trkpt lat="41.812903211389425" lon="13.301918444968855"><ele>983.0</ele><time>2026-04-23T15:07:56Z</time></trkpt><trkpt lat="41.81307263393711" lon="13.301859325313357"><ele>983.0</ele><time>2026-04-23T15:07:57Z</time></trkpt><trkpt lat="41.81323469140136" lon="13.301772921499845"><ele>983.0</ele><time>2026-04-23T15:07:58Z</time></trkpt><trkpt lat="41.81334584631592" lon="13.301596364311967"><ele>983.0</ele><time>2026-04-23T15:07:59Z</time></trkpt><trkpt lat="41.8134331082484" lon="13.301467410624003"><ele>983.0</ele><time>2026-04-23T15:08:00Z</time></trkpt><trkpt lat="41.81351858071742" lon="13.30138562540889"><ele>983.0</ele><time>2026-04-23T15:08:01Z</time></trkpt><trkpt lat="41.81361689318795" lon="13.301335885201421"><ele>983.0</ele><time>2026-04-23T15:08:02Z</time></trkpt><trkpt lat="41.81375416173577" lon="13.301354568487968"><ele>983.6666666666667</ele><time>2026-04-23T15:08:03Z</time></trkpt><trkpt lat="41.81390924156687" lon="13.30140685024847"><ele>984.3333333333333</ele><time>2026-04-23T15:08:04Z</time></trkpt><trkpt lat="41.814048612604005" lon="13.301430428493916"><ele>985.0</ele><time>2026-04-23T15:08:05Z</time></trkpt><trkpt lat="41.81421042270954" lon="13.301369277213684"><ele>985.25</ele><time>2026-04-23T15:08:06Z</time></trkpt><trkpt lat="41.8143131776047" lon="13.301318221220232"><ele>985.5</ele><time>2026-04-23T15:08:07Z</time></trkpt><trkpt lat="41.81440612618617" lon="13.3011955201836"><ele>985.75</ele><time>2026-04-23T15:08:08Z</time></trkpt><trkpt lat="41.81447242712169" lon="13.300958391992179"><ele>986.0</ele><time>2026-04-23T15:08:09Z</time></trkpt><trkpt lat="41.8144919136908" lon="13.30073705399336"><ele>983.0</ele><time>2026-04-23T15:08:10Z</time></trkpt><trkpt lat="41.81451154253563" lon="13.300531136903256"><ele>980.0</ele><time>2026-04-23T15:08:11Z</time></trkpt><trkpt lat="41.814504195036925" lon="13.30036203692995"><ele>977.0</ele><time>2026-04-23T15:08:12Z</time></trkpt><trkpt lat="41.81447755370384" lon="13.300241150016657"><ele>974.0</ele><time>2026-04-23T15:08:13Z</time></trkpt><trkpt lat="41.81433954985127" lon="13.300040023750261"><ele>970.3333333333334</ele><time>2026-04-23T15:08:14Z</time></trkpt><trkpt lat="41.81424546351696" lon="13.299860030308494"><ele>966.6666666666667</ele><time>2026-04-23T15:08:15Z</time></trkpt><trkpt lat="41.81414627929681" lon="13.299644703932456"><ele>963.0</ele><time>2026-04-23T15:08:16Z</time></trkpt><trkpt lat="41.81412204475548" lon="13.299471652217392"><ele>959.6666666666667</ele><time>2026-04-23T15:08:17Z</time></trkpt><trkpt lat="41.814029034046" lon="13.299253993284289"><ele>956.3333333333334</ele><time>2026-04-23T15:08:18Z</time></trkpt><trkpt lat="41.81395179684964" lon="13.299051859437524"><ele>953.0</ele><time>2026-04-23T15:08:19Z</time></trkpt><trkpt lat="41.81386687472052" lon="13.29890503677102"><ele>950.25</ele><time>2026-04-23T15:08:20Z</time></trkpt><trkpt lat="41.81376421152223" lon="13.298796302934598"><ele>947.5</ele><time>2026-04-23T15:08:21Z</time></trkpt><trkpt lat="41.813668245935034" lon="13.298707789824046"><ele>944.75</ele><time>2026-04-23T15:08:22Z</time></trkpt><trkpt lat="41.8135553587073" lon="13.298693081414225"><ele>942.0</ele><time>2026-04-23T15:08:23Z</time></trkpt><trkpt lat="41.81345471829333" lon="13.298726647008618"><ele>942.0</ele><time>2026-04-23T15:08:24Z</time></trkpt><trkpt lat="41.81336839222394" lon="13.298832089894864"><ele>942.0</ele><time>2026-04-23T15:08:25Z</time></trkpt><trkpt lat="41.81333100020768" lon="13.298969538535687"><ele>942.0</ele><time>2026-04-23T15:08:26Z</time></trkpt><trkpt lat="41.81332527072438" lon="13.299156964853461"><ele>942.0</ele><time>2026-04-23T15:08:27Z</time></trkpt><trkpt lat="41.81336011929497" lon="13.299375090492777"><ele>944.0</ele><time>2026-04-23T15:08:28Z</time></trkpt><trkpt lat="41.813378711808916" lon="13.29955845966004"><ele>946.0</ele><time>2026-04-23T15:08:29Z</time></trkpt><trkpt lat="41.813356876755655" lon="13.29970126223734"><ele>948.0</ele><time>2026-04-23T15:08:30Z</time></trkpt><trkpt lat="41.81328884898675" lon="13.29987592441964"><ele>950.0</ele><time>2026-04-23T15:08:31Z</time></trkpt><trkpt lat="41.81320149296666" lon="13.299972857771245"><ele>951.5</ele><time>2026-04-23T15:08:32Z</time></trkpt><trkpt lat="41.81308997057255" lon="13.300007634329006"><ele>953.0</ele><time>2026-04-23T15:08:33Z</time></trkpt><trkpt lat="41.81295330222858" lon="13.299985336824596"><ele>954.5</ele><time>2026-04-23T15:08:34Z</time></trkpt><trkpt lat="41.81283631479722" lon="13.299917087095977"><ele>956.0</ele><time>2026-04-23T15:08:35Z</time></trkpt><trkpt lat="41.812751629362786" lon="13.29979040337112"><ele>954.0</ele><time>2026-04-23T15:08:36Z</time></trkpt><trkpt lat="41.812663201862925" lon="13.299645306679873"><ele>952.0</ele><time>2026-04-23T15:08:37Z</time></trkpt><trkpt lat="41.81253806524595" lon="13.299414887509267"><ele>950.0</ele><time>2026-04-23T15:08:38Z</time></trkpt><trkpt lat="41.81245242392857" lon="13.299211927796504"><ele>948.0</ele><time>2026-04-23T15:08:39Z</time></trkpt><trkpt lat="41.81238442175653" lon="13.298979675368527"><ele>946.0</ele><time>2026-04-23T15:08:40Z</time></trkpt><trkpt lat="41.81232917096269" lon="13.298687309765311"><ele>944.0</ele><time>2026-04-23T15:08:41Z</time></trkpt><trkpt lat="41.81228167751626" lon="13.298427185972958"><ele>941.0</ele><time>2026-04-23T15:08:42Z</time></trkpt><trkpt lat="41.812238761574186" lon="13.298262394420606"><ele>938.0</ele><time>2026-04-23T15:08:43Z</time></trkpt><trkpt lat="41.81215099427111" lon="13.29808927370356"><ele>935.0</ele><time>2026-04-23T15:08:44Z</time></trkpt><trkpt lat="41.812061363798655" lon="13.297963919341818"><ele>932.0</ele><time>2026-04-23T15:08:45Z</time></trkpt><trkpt lat="41.81195429404691" lon="13.297859812543429"><ele>929.0</ele><time>2026-04-23T15:08:46Z</time></trkpt><trkpt lat="41.811857188537594" lon="13.297758166085105"><ele>926.0</ele><time>2026-04-23T15:08:47Z</time></trkpt><trkpt lat="41.81177233010646" lon="13.297580730370042"><ele>923.0</ele><time>2026-04-23T15:08:48Z</time></trkpt><trkpt lat="41.811707088415474" lon="13.297369470499074"><ele>919.75</ele><time>2026-04-23T15:08:49Z</time></trkpt><trkpt lat="41.8116435973066" lon="13.297181595252837"><ele>916.5</ele><time>2026-04-23T15:08:50Z</time></trkpt><trkpt lat="41.811540406711785" lon="13.297049892185079"><ele>913.25</ele><time>2026-04-23T15:08:51Z</time></trkpt><trkpt lat="41.81142862023542" lon="13.29695802965742"><ele>910.0</ele><time>2026-04-23T15:08:52Z</time></trkpt><trkpt lat="41.81124112692376" lon="13.296909701089263"><ele>910.0</ele><time>2026-04-23T15:08:53Z</time></trkpt><trkpt lat="41.811045978271665" lon="13.296925677309373"><ele>910.0</ele><time>2026-04-23T15:08:54Z</time></trkpt><trkpt lat="41.81083023274313" lon="13.296928890929152"><ele>910.0</ele><time>2026-04-23T15:08:55Z</time></trkpt><trkpt lat="41.81065827789469" lon="13.296956107823798"><ele>911.3333333333333</ele><time>2026-04-23T15:08:56Z</time></trkpt><trkpt lat="41.81049865322721" lon="13.296999454653466"><ele>912.6666666666667</ele><time>2026-04-23T15:08:57Z</time></trkpt><trkpt lat="41.810374451928766" lon="13.297104067481643"><ele>914.0</ele><time>2026-04-23T15:08:58Z</time></trkpt><trkpt lat="41.810261568273866" lon="13.297268493186305"><ele>915.6666666666667</ele><time>2026-04-23T15:08:59Z</time></trkpt><trkpt lat="41.8101946574128" lon="13.297479782360188"><ele>917.3333333333333</ele><time>2026-04-23T15:09:00Z</time></trkpt><trkpt lat="41.81011837145731" lon="13.297658665468564"><ele>919.0</ele><time>2026-04-23T15:09:01Z</time></trkpt><trkpt lat="41.81003591442107" lon="13.297808333972885"><ele>914.5</ele><time>2026-04-23T15:09:02Z</time></trkpt><trkpt lat="41.809929786255125" lon="13.297883163105176"><ele>910.0</ele><time>2026-04-23T15:09:03Z</time></trkpt><trkpt lat="41.80981475727913" lon="13.297899497503368"><ele>905.5</ele><time>2026-04-23T15:09:04Z</time></trkpt><trkpt lat="41.80967667178949" lon="13.297904471765769"><ele>901.0</ele><time>2026-04-23T15:09:05Z</time></trkpt><trkpt lat="41.80951267650706" lon="13.29794161012684"><ele>901.6666666666666</ele><time>2026-04-23T15:09:06Z</time></trkpt><trkpt lat="41.80932107801329" lon="13.298079180786766"><ele>902.3333333333333</ele><time>2026-04-23T15:09:07Z</time></trkpt><trkpt lat="41.809155366893904" lon="13.298228501300864"><ele>903.0</ele><time>2026-04-23T15:09:08Z</time></trkpt><trkpt lat="41.808977080625326" lon="13.298413573911168"><ele>903.0</ele><time>2026-04-23T15:09:09Z</time></trkpt><trkpt lat="41.80882273213108" lon="13.29854145777737"><ele>903.0</ele><time>2026-04-23T15:09:10Z</time></trkpt><trkpt lat="41.80876271500745" lon="13.298675223606732"><ele>903.0</ele><time>2026-04-23T15:09:11Z</time></trkpt><trkpt lat="41.808714587862454" lon="13.298894046241031"><ele>907.6666666666667</ele><time>2026-04-23T15:09:12Z</time></trkpt><trkpt lat="41.80871870543316" lon="13.299118098083905"><ele>912.3333333333334</ele><time>2026-04-23T15:09:13Z</time></trkpt><trkpt lat="41.808702675768274" lon="13.299358311313938"><ele>917.0</ele><time>2026-04-23T15:09:14Z</time></trkpt><trkpt lat="41.80866729989217" lon="13.29955310487074"><ele>917.0</ele><time>2026-04-23T15:09:15Z</time></trkpt><trkpt lat="41.80862951795414" lon="13.299663036852106"><ele>917.0</ele><time>2026-04-23T15:09:16Z</time></trkpt><trkpt lat="41.80855341126374" lon="13.299776313122567"><ele>917.0</ele><time>2026-04-23T15:09:17Z</time></trkpt><trkpt lat="41.808468116887674" lon="13.299829075012868"><ele>917.0</ele><time>2026-04-23T15:09:18Z</time></trkpt><trkpt lat="41.808373894564994" lon="13.299832733462146"><ele>917.0</ele><time>2026-04-23T15:09:19Z</time></trkpt><trkpt lat="41.808281020998734" lon="13.299762141701214"><ele>906.3333333333334</ele><time>2026-04-23T15:09:20Z</time></trkpt><trkpt lat="41.80812605980389" lon="13.299709937861335"><ele>895.6666666666667</ele><time>2026-04-23T15:09:21Z</time></trkpt><trkpt lat="41.80796989081918" lon="13.299688039339332"><ele>885.0</ele><time>2026-04-23T15:09:22Z</time></trkpt><trkpt lat="41.807829594121834" lon="13.299724076119695"><ele>889.6666666666667</ele><time>2026-04-23T15:09:23Z</time></trkpt><trkpt lat="41.8076850883505" lon="13.299852660510608"><ele>894.3333333333334</ele><time>2026-04-23T15:09:24Z</time></trkpt><trkpt lat="41.807591815488564" lon="13.300038175952519"><ele>899.0</ele><time>2026-04-23T15:09:25Z</time></trkpt><trkpt lat="41.807519099450424" lon="13.300250565395078"><ele>893.6666666666667</ele><time>2026-04-23T15:09:26Z</time></trkpt><trkpt lat="41.807459244264564" lon="13.300474570682429"><ele>888.3333333333333</ele><time>2026-04-23T15:09:27Z</time></trkpt><trkpt lat="41.807444008210744" lon="13.300693921650291"><ele>883.0</ele><time>2026-04-23T15:09:28Z</time></trkpt><trkpt lat="41.807408984571126" lon="13.300908849331623"><ele>883.0</ele><time>2026-04-23T15:09:29Z</time></trkpt><trkpt lat="41.80730925248767" lon="13.301046099616508"><ele>883.0</ele><time>2026-04-23T15:09:30Z</time></trkpt><trkpt lat="41.80720888358635" lon="13.301210557229112"><ele>883.0</ele><time>2026-04-23T15:09:31Z</time></trkpt><trkpt lat="41.80712946746639" lon="13.30140911891586"><ele>887.3333333333333</ele><time>2026-04-23T15:09:32Z</time></trkpt><trkpt lat="41.8070717197644" lon="13.30162723569099"><ele>891.6666666666667</ele><time>2026-04-23T15:09:33Z</time></trkpt><trkpt lat="41.80702351440714" lon="13.301892631277703"><ele>896.0</ele><time>2026-04-23T15:09:34Z</time></trkpt><trkpt lat="41.807024841350966" lon="13.302199960031455"><ele>895.5</ele><time>2026-04-23T15:09:35Z</time></trkpt><trkpt lat="41.80704961643361" lon="13.302567948822002"><ele>895.0</ele><time>2026-04-23T15:09:36Z</time></trkpt><trkpt lat="41.80708854744428" lon="13.302954886523253"><ele>891.5</ele><time>2026-04-23T15:09:37Z</time></trkpt><trkpt lat="41.80713261275039" lon="13.30334800161499"><ele>888.0</ele><time>2026-04-23T15:09:38Z</time></trkpt><trkpt lat="41.80718408764953" lon="13.303795063528781"><ele>883.5</ele><time>2026-04-23T15:09:39Z</time></trkpt><trkpt lat="41.80723314816308" lon="13.304186243684121"><ele>879.0</ele><time>2026-04-23T15:09:40Z</time></trkpt><trkpt lat="41.80726964144653" lon="13.304440964752914"><ele>879.0</ele><time>2026-04-23T15:09:41Z</time></trkpt><trkpt lat="41.80729590045369" lon="13.304693582411801"><ele>879.0</ele><time>2026-04-23T15:09:42Z</time></trkpt><trkpt lat="41.80727047545637" lon="13.304869397421626"><ele>879.0</ele><time>2026-04-23T15:09:43Z</time></trkpt><trkpt lat="41.80723915514613" lon="13.305041479075378"><ele>879.6666666666667</ele><time>2026-04-23T15:09:44Z</time></trkpt><trkpt lat="41.80715304704763" lon="13.305155127358931"><ele>880.3333333333334</ele><time>2026-04-23T15:09:45Z</time></trkpt><trkpt lat="41.80702870626198" lon="13.305250804072152"><ele>881.0</ele><time>2026-04-23T15:09:46Z</time></trkpt><trkpt lat="41.80681565874253" lon="13.305361895455745"><ele>875.6666666666667</ele><time>2026-04-23T15:09:47Z</time></trkpt><trkpt lat="41.8066052773653" lon="13.30547707540408"><ele>870.3333333333333</ele><time>2026-04-23T15:09:48Z</time></trkpt><trkpt lat="41.80640876439313" lon="13.30559636809139"><ele>865.0</ele><time>2026-04-23T15:09:49Z</time></trkpt><trkpt lat="41.80624600533978" lon="13.305723247260826"><ele>865.0</ele><time>2026-04-23T15:09:50Z</time></trkpt><trkpt lat="41.80611511188468" lon="13.30587230321007"><ele>865.0</ele><time>2026-04-23T15:09:51Z</time></trkpt><trkpt lat="41.80598897704594" lon="13.30615615404147"><ele>865.0</ele><time>2026-04-23T15:09:52Z</time></trkpt><trkpt lat="41.805878723632475" lon="13.306423554070776"><ele>854.0</ele><time>2026-04-23T15:09:53Z</time></trkpt><trkpt lat="41.80575035789414" lon="13.306759345340481"><ele>843.0</ele><time>2026-04-23T15:09:54Z</time></trkpt><trkpt lat="41.80563232636225" lon="13.306995465429448"><ele>843.0</ele><time>2026-04-23T15:09:55Z</time></trkpt><trkpt lat="41.80553601427213" lon="13.307231725910622"><ele>843.0</ele><time>2026-04-23T15:09:56Z</time></trkpt><trkpt lat="41.805426842828574" lon="13.307522788019876"><ele>843.0</ele><time>2026-04-23T15:09:57Z</time></trkpt><trkpt lat="41.80529482524449" lon="13.307836090310062"><ele>838.5</ele><time>2026-04-23T15:09:58Z</time></trkpt><trkpt lat="41.80513618833698" lon="13.308133002769647"><ele>834.0</ele><time>2026-04-23T15:09:59Z</time></trkpt><trkpt lat="41.80496394052619" lon="13.308399951777318"><ele>834.0</ele><time>2026-04-23T15:10:00Z</time></trkpt><trkpt lat="41.80479746523122" lon="13.308680249011477"><ele>834.0</ele><time>2026-04-23T15:10:01Z</time></trkpt><trkpt lat="41.80464059219204" lon="13.308960166118256"><ele>839.5</ele><time>2026-04-23T15:10:02Z</time></trkpt><trkpt lat="41.80449817507596" lon="13.309216572408133"><ele>845.0</ele><time>2026-04-23T15:10:03Z</time></trkpt><trkpt lat="41.80436214281468" lon="13.309448971574389"><ele>838.6666666666667</ele><time>2026-04-23T15:10:04Z</time></trkpt><trkpt lat="41.80423268577682" lon="13.309660396286866"><ele>832.3333333333333</ele><time>2026-04-23T15:10:05Z</time></trkpt><trkpt lat="41.80412440035764" lon="13.309848562157358"><ele>826.0</ele><time>2026-04-23T15:10:06Z</time></trkpt><trkpt lat="41.80403653690778" lon="13.31002991106062"><ele>826.0</ele><time>2026-04-23T15:10:07Z</time></trkpt><trkpt lat="41.80398895501502" lon="13.310239734352"><ele>826.0</ele><time>2026-04-23T15:10:08Z</time></trkpt><trkpt lat="41.803989946496756" lon="13.310468351209943"><ele>826.0</ele><time>2026-04-23T15:10:09Z</time></trkpt><trkpt lat="41.80397971059865" lon="13.310648021142494"><ele>827.4</ele><time>2026-04-23T15:10:10Z</time></trkpt><trkpt lat="41.80396385974695" lon="13.310783498113773"><ele>828.8</ele><time>2026-04-23T15:10:11Z</time></trkpt><trkpt lat="41.803942010275115" lon="13.31089382295702"><ele>830.1999999999999</ele><time>2026-04-23T15:10:12Z</time></trkpt><trkpt lat="41.803866085060065" lon="13.310976184381072"><ele>831.5999999999999</ele><time>2026-04-23T15:10:13Z</time></trkpt><trkpt lat="41.80377008814384" lon="13.310995411357933"><ele>833.0</ele><time>2026-04-23T15:10:14Z</time></trkpt><trkpt lat="41.80365376801874" lon="13.310946202175302"><ele>833.0</ele><time>2026-04-23T15:10:15Z</time></trkpt><trkpt lat="41.803571440323715" lon="13.310827236616056"><ele>833.0</ele><time>2026-04-23T15:10:16Z</time></trkpt><trkpt lat="41.803544233180844" lon="13.31065260426078"><ele>833.0</ele><time>2026-04-23T15:10:17Z</time></trkpt><trkpt lat="41.80360996825016" lon="13.310466590423799"><ele>833.0</ele><time>2026-04-23T15:10:18Z</time></trkpt><trkpt lat="41.80367412078454" lon="13.310255350109289"><ele>830.6666666666667</ele><time>2026-04-23T15:10:19Z</time></trkpt><trkpt lat="41.80378408636848" lon="13.310015311489273"><ele>828.3333333333333</ele><time>2026-04-23T15:10:20Z</time></trkpt><trkpt lat="41.803886375350274" lon="13.309754932661631"><ele>826.0</ele><time>2026-04-23T15:10:21Z</time></trkpt><trkpt lat="41.80400960294171" lon="13.309479058119676"><ele>819.5</ele><time>2026-04-23T15:10:22Z</time></trkpt><trkpt lat="41.804135001666" lon="13.309200022244225"><ele>813.0</ele><time>2026-04-23T15:10:23Z</time></trkpt><trkpt lat="41.80423083861794" lon="13.308909259133245"><ele>806.0</ele><time>2026-04-23T15:10:24Z</time></trkpt><trkpt lat="41.804300542297604" lon="13.30862774872391"><ele>799.0</ele><time>2026-04-23T15:10:25Z</time></trkpt><trkpt lat="41.80434529423104" lon="13.308318170699522"><ele>810.5</ele><time>2026-04-23T15:10:26Z</time></trkpt><trkpt lat="41.80436670683329" lon="13.307975127966783"><ele>822.0</ele><time>2026-04-23T15:10:27Z</time></trkpt><trkpt lat="41.804393995363355" lon="13.307668190644893"><ele>822.0</ele><time>2026-04-23T15:10:28Z</time></trkpt><trkpt lat="41.80443860992066" lon="13.307386147522392"><ele>822.0</ele><time>2026-04-23T15:10:29Z</time></trkpt><trkpt lat="41.804507550261384" lon="13.307133761686949"><ele>822.0</ele><time>2026-04-23T15:10:30Z</time></trkpt><trkpt lat="41.80458372017679" lon="13.306913226022726"><ele>817.6666666666667</ele><time>2026-04-23T15:10:31Z</time></trkpt><trkpt lat="41.80466734746181" lon="13.306704524827387"><ele>813.3333333333334</ele><time>2026-04-23T15:10:32Z</time></trkpt><trkpt lat="41.80478449029564" lon="13.30649538585268"><ele>809.0</ele><time>2026-04-23T15:10:33Z</time></trkpt><trkpt lat="41.804931400396555" lon="13.306292744033358"><ele>803.6666666666667</ele><time>2026-04-23T15:10:34Z</time></trkpt><trkpt lat="41.80504004905563" lon="13.306028708109231"><ele>798.3333333333333</ele><time>2026-04-23T15:10:35Z</time></trkpt><trkpt lat="41.80510551609409" lon="13.30575845263668"><ele>793.0</ele><time>2026-04-23T15:10:36Z</time></trkpt><trkpt lat="41.80515632488721" lon="13.305504352419184"><ele>799.3333333333333</ele><time>2026-04-23T15:10:37Z</time></trkpt><trkpt lat="41.80519334249463" lon="13.305270789500083"><ele>805.6666666666667</ele><time>2026-04-23T15:10:38Z</time></trkpt><trkpt lat="41.805236409715" lon="13.305069834188892"><ele>812.0</ele><time>2026-04-23T15:10:39Z</time></trkpt><trkpt lat="41.80531249784279" lon="13.304917798283956"><ele>812.0</ele><time>2026-04-23T15:10:40Z</time></trkpt><trkpt lat="41.80544533148676" lon="13.304844220832434"><ele>812.0</ele><time>2026-04-23T15:10:41Z</time></trkpt><trkpt lat="41.805591417913696" lon="13.304770077511922"><ele>812.0</ele><time>2026-04-23T15:10:42Z</time></trkpt><trkpt lat="41.805762839073985" lon="13.304688838039016"><ele>816.25</ele><time>2026-04-23T15:10:43Z</time></trkpt><trkpt lat="41.805906102952086" lon="13.304586877680336"><ele>820.5</ele><time>2026-04-23T15:10:44Z</time></trkpt><trkpt lat="41.806009868364285" lon="13.304513698291352"><ele>824.75</ele><time>2026-04-23T15:10:45Z</time></trkpt><trkpt lat="41.80607216348323" lon="13.304388323487526"><ele>829.0</ele><time>2026-04-23T15:10:46Z</time></trkpt><trkpt lat="41.8060798360248" lon="13.304190557082183"><ele>829.0</ele><time>2026-04-23T15:10:47Z</time></trkpt><trkpt lat="41.80604403402946" lon="13.30393438528175"><ele>829.0</ele><time>2026-04-23T15:10:48Z</time></trkpt><trkpt lat="41.80597747864497" lon="13.303654358773993"><ele>829.0</ele><time>2026-04-23T15:10:49Z</time></trkpt><trkpt lat="41.805914186666804" lon="13.3033684751235"><ele>813.6666666666666</ele><time>2026-04-23T15:10:50Z</time></trkpt><trkpt lat="41.8058500503545" lon="13.303098445012507"><ele>798.3333333333333</ele><time>2026-04-23T15:10:51Z</time></trkpt><trkpt lat="41.80580292692638" lon="13.30285525209817"><ele>783.0</ele><time>2026-04-23T15:10:52Z</time></trkpt><trkpt lat="41.80574660685189" lon="13.3026359142668"><ele>783.0</ele><time>2026-04-23T15:10:53Z</time></trkpt><trkpt lat="41.80570409593072" lon="13.302420074136187"><ele>783.0</ele><time>2026-04-23T15:10:54Z</time></trkpt><trkpt lat="41.80568451231303" lon="13.30222112557704"><ele>783.0</ele><time>2026-04-23T15:10:55Z</time></trkpt><trkpt lat="41.8056868649023" lon="13.302041832923619"><ele>782.4</ele><time>2026-04-23T15:10:56Z</time></trkpt><trkpt lat="41.80570741800183" lon="13.301888960962373"><ele>781.8</ele><time>2026-04-23T15:10:57Z</time></trkpt><trkpt lat="41.805730474812975" lon="13.301791424485105"><ele>781.2</ele><time>2026-04-23T15:10:58Z</time></trkpt><trkpt lat="41.80568335244429" lon="13.301701181768147"><ele>780.6</ele><time>2026-04-23T15:11:00Z</time></trkpt><trkpt lat="41.80557940265046" lon="13.301603011486934"><ele>780.0</ele><time>2026-04-23T15:11:01Z</time></trkpt><trkpt lat="41.80550938708723" lon="13.301677739517649"><ele>780.0</ele><time>2026-04-23T15:11:02Z</time></trkpt><trkpt lat="41.805460014459115" lon="13.30182152409367"><ele>780.0</ele><time>2026-04-23T15:11:03Z</time></trkpt><trkpt lat="41.8054452636885" lon="13.302049388252197"><ele>780.0</ele><time>2026-04-23T15:11:04Z</time></trkpt><trkpt lat="41.805476930455434" lon="13.30234497410699"><ele>779.3333333333333</ele><time>2026-04-23T15:11:05Z</time></trkpt><trkpt lat="41.805500781951785" lon="13.302597851056793"><ele>778.6666666666666</ele><time>2026-04-23T15:11:06Z</time></trkpt><trkpt lat="41.80551506065633" lon="13.302841506630704"><ele>778.0</ele><time>2026-04-23T15:11:07Z</time></trkpt><trkpt lat="41.80554276701761" lon="13.303120817042396"><ele>778.0</ele><time>2026-04-23T15:11:08Z</time></trkpt><trkpt lat="41.8055913033841" lon="13.303358552204953"><ele>778.0</ele><time>2026-04-23T15:11:09Z</time></trkpt><trkpt lat="41.805622942540495" lon="13.303539816425166"><ele>778.0</ele><time>2026-04-23T15:11:10Z</time></trkpt><trkpt lat="41.80562635276004" lon="13.303709207692888"><ele>778.0</ele><time>2026-04-23T15:11:11Z</time></trkpt><trkpt lat="41.805594875113194" lon="13.30387151690349"><ele>779.0</ele><time>2026-04-23T15:11:12Z</time></trkpt><trkpt lat="41.805528817584374" lon="13.304004897249806"><ele>780.0</ele><time>2026-04-23T15:11:13Z</time></trkpt><trkpt lat="41.80543100734493" lon="13.304109695194485"><ele>781.0</ele><time>2026-04-23T15:11:14Z</time></trkpt><trkpt lat="41.80536318000869" lon="13.304089058781841"><ele>782.0</ele><time>2026-04-23T15:11:15Z</time></trkpt><trkpt lat="41.80518340161219" lon="13.30409933099591"><ele>770.3333333333334</ele><time>2026-04-23T15:11:16Z</time></trkpt><trkpt lat="41.80500006125378" lon="13.304144944032648"><ele>758.6666666666667</ele><time>2026-04-23T15:11:17Z</time></trkpt><trkpt lat="41.80479537461727" lon="13.304237786010452"><ele>747.0</ele><time>2026-04-23T15:11:18Z</time></trkpt><trkpt lat="41.804620898693024" lon="13.30440605702365"><ele>747.0</ele><time>2026-04-23T15:11:19Z</time></trkpt><trkpt lat="41.80445124687768" lon="13.304583979775128"><ele>747.0</ele><time>2026-04-23T15:11:20Z</time></trkpt><trkpt lat="41.80432273389198" lon="13.304720197552724"><ele>747.0</ele><time>2026-04-23T15:11:21Z</time></trkpt><trkpt lat="41.80420704868124" lon="13.304865439705143"><ele>742.3333333333334</ele><time>2026-04-23T15:11:22Z</time></trkpt><trkpt lat="41.80413096544272" lon="13.305029982682777"><ele>737.6666666666667</ele><time>2026-04-23T15:11:23Z</time></trkpt><trkpt lat="41.80408032584688" lon="13.305230464541733"><ele>733.0</ele><time>2026-04-23T15:11:24Z</time></trkpt><trkpt lat="41.804063704369376" lon="13.305445069136871"><ele>737.5</ele><time>2026-04-23T15:11:25Z</time></trkpt><trkpt lat="41.804045865586716" lon="13.30562100119175"><ele>742.0</ele><time>2026-04-23T15:11:26Z</time></trkpt><trkpt lat="41.803946429346595" lon="13.305682948339951"><ele>746.5</ele><time>2026-04-23T15:11:27Z</time></trkpt><trkpt lat="41.80385348407847" lon="13.305791940570696"><ele>751.0</ele><time>2026-04-23T15:11:28Z</time></trkpt><trkpt lat="41.803696937036065" lon="13.305903446028966"><ele>751.0</ele><time>2026-04-23T15:11:29Z</time></trkpt><trkpt lat="41.80360982128484" lon="13.306101005306335"><ele>751.0</ele><time>2026-04-23T15:11:30Z</time></trkpt><trkpt lat="41.803533607845736" lon="13.306320733869153"><ele>751.0</ele><time>2026-04-23T15:11:31Z</time></trkpt><trkpt lat="41.803432212023374" lon="13.30658147244851"><ele>736.0</ele><time>2026-04-23T15:11:32Z</time></trkpt><trkpt lat="41.803300188835166" lon="13.306878146822063"><ele>721.0</ele><time>2026-04-23T15:11:33Z</time></trkpt><trkpt lat="41.80315798060735" lon="13.307121874830846"><ele>727.3333333333334</ele><time>2026-04-23T15:11:34Z</time></trkpt><trkpt lat="41.8030371241724" lon="13.307385670059135"><ele>733.6666666666666</ele><time>2026-04-23T15:11:35Z</time></trkpt><trkpt lat="41.80291635351879" lon="13.30760621949431"><ele>740.0</ele><time>2026-04-23T15:11:36Z</time></trkpt><trkpt lat="41.802857960805554" lon="13.307884634294364"><ele>743.3333333333333</ele><time>2026-04-23T15:11:37Z</time></trkpt><trkpt lat="41.80282184310055" lon="13.308133569754666"><ele>746.6666666666666</ele><time>2026-04-23T15:11:38Z</time></trkpt><trkpt lat="41.80276635090877" lon="13.308341370746588"><ele>750.0</ele><time>2026-04-23T15:11:39Z</time></trkpt><trkpt lat="41.80272647745253" lon="13.308557289639516"><ele>736.6666666666666</ele><time>2026-04-23T15:11:40Z</time></trkpt><trkpt lat="41.802602898102116" lon="13.308753909474763"><ele>723.3333333333333</ele><time>2026-04-23T15:11:41Z</time></trkpt><trkpt lat="41.8024683962621" lon="13.308942060337138"><ele>710.0</ele><time>2026-04-23T15:11:42Z</time></trkpt><trkpt lat="41.80231216871475" lon="13.309096235662151"><ele>710.0</ele><time>2026-04-23T15:11:43Z</time></trkpt><trkpt lat="41.802195360419795" lon="13.309302808444652"><ele>710.0</ele><time>2026-04-23T15:11:44Z</time></trkpt><trkpt lat="41.802092565723825" lon="13.309532618909454"><ele>710.0</ele><time>2026-04-23T15:11:45Z</time></trkpt><trkpt lat="41.802001385549616" lon="13.30975376854435"><ele>718.6666666666666</ele><time>2026-04-23T15:11:46Z</time></trkpt><trkpt lat="41.80191029297437" lon="13.30995350801379"><ele>727.3333333333334</ele><time>2026-04-23T15:11:47Z</time></trkpt><trkpt lat="41.8018113758317" lon="13.310127292245685"><ele>736.0</ele><time>2026-04-23T15:11:48Z</time></trkpt><trkpt lat="41.801718822243814" lon="13.310292258267358"><ele>727.0</ele><time>2026-04-23T15:11:49Z</time></trkpt><trkpt lat="41.80163711707295" lon="13.310454334379907"><ele>718.0</ele><time>2026-04-23T15:11:50Z</time></trkpt><trkpt lat="41.8015611031339" lon="13.310608905553485"><ele>709.0</ele><time>2026-04-23T15:11:51Z</time></trkpt><trkpt lat="41.8014941234626" lon="13.310748547516239"><ele>700.0</ele><time>2026-04-23T15:11:52Z</time></trkpt><trkpt lat="41.801432163498845" lon="13.310878782641225"><ele>700.0</ele><time>2026-04-23T15:11:53Z</time></trkpt><trkpt lat="41.801358547798664" lon="13.310987697326105"><ele>700.0</ele><time>2026-04-23T15:11:54Z</time></trkpt><trkpt lat="41.801287585331515" lon="13.311085630269329"><ele>700.0</ele><time>2026-04-23T15:11:55Z</time></trkpt><trkpt lat="41.80122206208076" lon="13.311185087762452"><ele>700.0</ele><time>2026-04-23T15:11:56Z</time></trkpt><trkpt lat="41.80116434431095" lon="13.311266807958779"><ele>700.0</ele><time>2026-04-23T15:11:57Z</time></trkpt><trkpt lat="41.80110170686018" lon="13.311356282903427"><ele>695.25</ele><time>2026-04-23T15:11:58Z</time></trkpt><trkpt lat="41.80102805616269" lon="13.311462606659562"><ele>690.5</ele><time>2026-04-23T15:11:59Z</time></trkpt><trkpt lat="41.800933271175715" lon="13.311615350267113"><ele>685.75</ele><time>2026-04-23T15:12:00Z</time></trkpt><trkpt lat="41.8008349142505" lon="13.311755844193932"><ele>681.0</ele><time>2026-04-23T15:12:01Z</time></trkpt><trkpt lat="41.80075724345429" lon="13.311872054693538"><ele>681.0</ele><time>2026-04-23T15:12:02Z</time></trkpt><trkpt lat="41.80071884331541" lon="13.312000576110826"><ele>681.0</ele><time>2026-04-23T15:12:03Z</time></trkpt><trkpt lat="41.80071525349047" lon="13.312174414335724"><ele>681.0</ele><time>2026-04-23T15:12:04Z</time></trkpt><trkpt lat="41.80073268020675" lon="13.312393472824747"><ele>681.0</ele><time>2026-04-23T15:12:05Z</time></trkpt><trkpt lat="41.80072057904792" lon="13.312621617449913"><ele>680.75</ele><time>2026-04-23T15:12:06Z</time></trkpt><trkpt lat="41.8007089580987" lon="13.312836344985257"><ele>680.5</ele><time>2026-04-23T15:12:07Z</time></trkpt><trkpt lat="41.80069657322986" lon="13.313030899894315"><ele>680.25</ele><time>2026-04-23T15:12:08Z</time></trkpt><trkpt lat="41.80066744424302" lon="13.31321045997687"><ele>680.0</ele><time>2026-04-23T15:12:09Z</time></trkpt><trkpt lat="41.80066602655856" lon="13.313380452031426"><ele>680.0</ele><time>2026-04-23T15:12:10Z</time></trkpt><trkpt lat="41.80070374414603" lon="13.313555984226296"><ele>680.0</ele><time>2026-04-23T15:12:11Z</time></trkpt><trkpt lat="41.80077215133788" lon="13.313719715216534"><ele>680.0</ele><time>2026-04-23T15:12:12Z</time></trkpt><trkpt lat="41.80083729255228" lon="13.31387956090184"><ele>680.0</ele><time>2026-04-23T15:12:13Z</time></trkpt><trkpt lat="41.80089193512362" lon="13.314012373168705"><ele>679.1666666666666</ele><time>2026-04-23T15:12:14Z</time></trkpt><trkpt lat="41.80092466224684" lon="13.314124494292779"><ele>678.3333333333333</ele><time>2026-04-23T15:12:15Z</time></trkpt><trkpt lat="41.80092499418745" lon="13.314233528679912"><ele>677.5</ele><time>2026-04-23T15:12:16Z</time></trkpt><trkpt lat="41.80089480503934" lon="13.31433315871365"><ele>676.6666666666666</ele><time>2026-04-23T15:12:17Z</time></trkpt><trkpt lat="41.800847952771626" lon="13.314426417825723"><ele>675.8333333333334</ele><time>2026-04-23T15:12:18Z</time></trkpt><trkpt lat="41.80078532959824" lon="13.314520528335075"><ele>675.0</ele><time>2026-04-23T15:12:19Z</time></trkpt><trkpt lat="41.800713552498785" lon="13.314572455045285"><ele>675.0</ele><time>2026-04-23T15:12:20Z</time></trkpt><trkpt lat="41.80064239661523" lon="13.31457770743835"><ele>675.0</ele><time>2026-04-23T15:12:21Z</time></trkpt><trkpt lat="41.80057561033585" lon="13.314508170757835"><ele>675.0</ele><time>2026-04-23T15:12:22Z</time></trkpt><trkpt lat="41.800509379592405" lon="13.314445799952605"><ele>675.0</ele><time>2026-04-23T15:12:23Z</time></trkpt><trkpt lat="41.80047358204391" lon="13.314279401598144"><ele>675.0</ele><time>2026-04-23T15:12:24Z</time></trkpt><trkpt lat="41.800435261016375" lon="13.314104393905701"><ele>675.0</ele><time>2026-04-23T15:12:25Z</time></trkpt><trkpt lat="41.80038151710999" lon="13.313945553985645"><ele>675.0</ele><time>2026-04-23T15:12:26Z</time></trkpt><trkpt lat="41.80034375289356" lon="13.313778746285944"><ele>675.0</ele><time>2026-04-23T15:12:27Z</time></trkpt><trkpt lat="41.80030620820491" lon="13.313653663880148"><ele>675.0</ele><time>2026-04-23T15:12:28Z</time></trkpt><trkpt lat="41.8002615522764" lon="13.313515309615122"><ele>676.0</ele><time>2026-04-23T15:12:29Z</time></trkpt><trkpt lat="41.80021873075904" lon="13.313405528698183"><ele>677.0</ele><time>2026-04-23T15:12:30Z</time></trkpt><trkpt lat="41.800159483591706" lon="13.313279121201695"><ele>678.0</ele><time>2026-04-23T15:12:31Z</time></trkpt><trkpt lat="41.80010788726736" lon="13.313177869942297"><ele>679.0</ele><time>2026-04-23T15:12:32Z</time></trkpt><trkpt lat="41.80005699430135" lon="13.313075343022676"><ele>680.0</ele><time>2026-04-23T15:12:33Z</time></trkpt><trkpt lat="41.800014899007195" lon="13.312969668489595"><ele>675.8</ele><time>2026-04-23T15:12:34Z</time></trkpt><trkpt lat="41.79994881795119" lon="13.312883083086687"><ele>671.6</ele><time>2026-04-23T15:12:36Z</time></trkpt><trkpt lat="41.79984652742288" lon="13.312779418896115"><ele>667.4000000000001</ele><time>2026-04-23T15:12:38Z</time></trkpt><trkpt lat="41.799747166224186" lon="13.312720643828348"><ele>663.2</ele><time>2026-04-23T15:12:40Z</time></trkpt><trkpt lat="41.79966807010688" lon="13.312645573712949"><ele>659.0</ele><time>2026-04-23T15:12:42Z</time></trkpt><trkpt lat="41.7996246158694" lon="13.312567510655775"><ele>659.0</ele><time>2026-04-23T15:12:44Z</time></trkpt><trkpt lat="41.79954982790784" lon="13.31257193980316"><ele>659.0</ele><time>2026-04-23T15:12:46Z</time></trkpt><trkpt lat="41.79948370856591" lon="13.3125374441699"><ele>659.0</ele><time>2026-04-23T15:12:51Z</time></trkpt><trkpt lat="41.79935623427176" lon="13.312588860852177"><ele>659.0</ele><time>2026-04-23T15:12:54Z</time></trkpt><trkpt lat="41.79932830825966" lon="13.312669847992883"><ele>659.0</ele><time>2026-04-23T15:12:56Z</time></trkpt><trkpt lat="41.79936000671393" lon="13.312882985627379"><ele>659.0</ele><time>2026-04-23T15:12:58Z</time></trkpt><trkpt lat="41.7994656824811" lon="13.312964436631587"><ele>659.0</ele><time>2026-04-23T15:12:59Z</time></trkpt><trkpt lat="41.79954908882881" lon="13.313042235182882"><ele>659.0</ele><time>2026-04-23T15:13:01Z</time></trkpt><trkpt lat="41.79963147954745" lon="13.313131622298535"><ele>659.0</ele><time>2026-04-23T15:13:03Z</time></trkpt><trkpt lat="41.79971248149273" lon="13.313240024669227"><ele>659.0</ele><time>2026-04-23T15:13:05Z</time></trkpt><trkpt lat="41.79976767371732" lon="13.313348622953107"><ele>657.2</ele><time>2026-04-23T15:13:07Z</time></trkpt><trkpt lat="41.799816922465254" lon="13.313470287044174"><ele>655.4000000000001</ele><time>2026-04-23T15:13:09Z</time></trkpt><trkpt lat="41.79986236525874" lon="13.313601643771436"><ele>653.6</ele><time>2026-04-23T15:13:11Z</time></trkpt><trkpt lat="41.799891614196" lon="13.313700611060694"><ele>651.8</ele><time>2026-04-23T15:13:12Z</time></trkpt><trkpt lat="41.7999249884585" lon="13.313823022122255"><ele>650.0</ele><time>2026-04-23T15:13:14Z</time></trkpt><trkpt lat="41.79995470707061" lon="13.313958583430377"><ele>650.0</ele><time>2026-04-23T15:13:16Z</time></trkpt><trkpt lat="41.79995944173119" lon="13.314049505532218"><ele>650.0</ele><time>2026-04-23T15:13:18Z</time></trkpt><trkpt lat="41.79988764263739" lon="13.314033890271588"><ele>650.0</ele><time>2026-04-23T15:13:23Z</time></trkpt><trkpt lat="41.799865371333624" lon="13.313943086511578"><ele>650.0</ele><time>2026-04-23T15:13:24Z</time></trkpt><trkpt lat="41.79985113719436" lon="13.313845904728426"><ele>650.0</ele><time>2026-04-23T15:13:25Z</time></trkpt><trkpt lat="41.79984097663293" lon="13.313757835713856"><ele>650.0</ele><time>2026-04-23T15:13:26Z</time></trkpt><trkpt lat="41.79981157135645" lon="13.313614033390262"><ele>650.0</ele><time>2026-04-23T15:13:28Z</time></trkpt><trkpt lat="41.79978611847926" lon="13.313475792601661"><ele>650.0</ele><time>2026-04-23T15:13:30Z</time></trkpt><trkpt lat="41.79972365767557" lon="13.313373568139536"><ele>650.0</ele><time>2026-04-23T15:13:32Z</time></trkpt><trkpt lat="41.799620336012325" lon="13.313347251883483"><ele>650.0</ele><time>2026-04-23T15:13:34Z</time></trkpt><trkpt lat="41.79953560187389" lon="13.313388733031237"><ele>650.0</ele><time>2026-04-23T15:13:35Z</time></trkpt><trkpt lat="41.79948261871905" lon="13.313524643522685"><ele>650.0</ele><time>2026-04-23T15:13:36Z</time></trkpt><trkpt lat="41.79948519408179" lon="13.313656040418481"><ele>650.0</ele><time>2026-04-23T15:13:37Z</time></trkpt><trkpt lat="41.799492180418234" lon="13.313764378987425"><ele>650.0</ele><time>2026-04-23T15:13:38Z</time></trkpt><trkpt lat="41.799501190033176" lon="13.313914343328761"><ele>650.0</ele><time>2026-04-23T15:13:40Z</time></trkpt><trkpt lat="41.79950787332463" lon="13.314020607602384"><ele>650.0</ele><time>2026-04-23T15:13:42Z</time></trkpt><trkpt lat="41.799519167883254" lon="13.314174791559234"><ele>649.8333333333333</ele><time>2026-04-23T15:13:44Z</time></trkpt><trkpt lat="41.7995257939844" lon="13.314264782244443"><ele>649.6666666666666</ele><time>2026-04-23T15:13:45Z</time></trkpt><trkpt lat="41.79953312118383" lon="13.314364294770213"><ele>649.5</ele><time>2026-04-23T15:13:46Z</time></trkpt><trkpt lat="41.79954179289206" lon="13.31447912073449"><ele>649.3333333333334</ele><time>2026-04-23T15:13:47Z</time></trkpt><trkpt lat="41.79955251565265" lon="13.314594147948142"><ele>649.1666666666667</ele><time>2026-04-23T15:13:48Z</time></trkpt><trkpt lat="41.79956831061295" lon="13.314714046954503"><ele>649.0</ele><time>2026-04-23T15:13:49Z</time></trkpt><trkpt lat="41.79958692960421" lon="13.314829117533659"><ele>648.0</ele><time>2026-04-23T15:13:50Z</time></trkpt><trkpt lat="41.79960596049098" lon="13.314927201198172"><ele>647.0</ele><time>2026-04-23T15:13:51Z</time></trkpt><trkpt lat="41.799627521702085" lon="13.315020066920571"><ele>646.0</ele><time>2026-04-23T15:13:52Z</time></trkpt><trkpt lat="41.79967036131409" lon="13.315145783401421"><ele>645.0</ele><time>2026-04-23T15:13:53Z</time></trkpt><trkpt lat="41.79973201182774" lon="13.315269185056268"><ele>644.0</ele><time>2026-04-23T15:13:54Z</time></trkpt><trkpt lat="41.79980326035794" lon="13.315403172342952"><ele>644.0</ele><time>2026-04-23T15:13:55Z</time></trkpt><trkpt lat="41.79988191103078" lon="13.31555461393707"><ele>644.0</ele><time>2026-04-23T15:13:56Z</time></trkpt><trkpt lat="41.799957928214816" lon="13.31570222400243"><ele>644.0</ele><time>2026-04-23T15:13:57Z</time></trkpt><trkpt lat="41.800023965837624" lon="13.315830455916739"><ele>644.0</ele><time>2026-04-23T15:13:58Z</time></trkpt><trkpt lat="41.80008624186026" lon="13.315952727247687"><ele>643.8000000000001</ele><time>2026-04-23T15:13:59Z</time></trkpt><trkpt lat="41.80014966341001" lon="13.316077449151587"><ele>643.6</ele><time>2026-04-23T15:14:00Z</time></trkpt><trkpt lat="41.80021289347128" lon="13.316201794509636"><ele>643.4</ele><time>2026-04-23T15:14:01Z</time></trkpt><trkpt lat="41.80027558131618" lon="13.316325073456015"><ele>643.2</ele><time>2026-04-23T15:14:02Z</time></trkpt><trkpt lat="41.800336199874224" lon="13.316445276418628"><ele>643.0</ele><time>2026-04-23T15:14:03Z</time></trkpt><trkpt lat="41.800392732754055" lon="13.316563135135993"><ele>643.0</ele><time>2026-04-23T15:14:04Z</time></trkpt><trkpt lat="41.80044530644172" lon="13.316675615954813"><ele>643.0</ele><time>2026-04-23T15:14:05Z</time></trkpt><trkpt lat="41.80049091930723" lon="13.316777395283783"><ele>643.0</ele><time>2026-04-23T15:14:06Z</time></trkpt><trkpt lat="41.80053137490362" lon="13.316874899902782"><ele>643.0</ele><time>2026-04-23T15:14:07Z</time></trkpt><trkpt lat="41.800547045362556" lon="13.316986276415358"><ele>643.0</ele><time>2026-04-23T15:14:09Z</time></trkpt><trkpt lat="41.800413827475126" lon="13.316940505294166"><ele>643.0</ele><time>2026-04-23T15:14:12Z</time></trkpt><trkpt lat="41.800350597464664" lon="13.316809736491992"><ele>643.0</ele><time>2026-04-23T15:14:13Z</time></trkpt><trkpt lat="41.80029498452288" lon="13.316684345882537"><ele>643.0</ele><time>2026-04-23T15:14:14Z</time></trkpt><trkpt lat="41.80023696553269" lon="13.316557968649613"><ele>643.0</ele><time>2026-04-23T15:14:15Z</time></trkpt><trkpt lat="41.80015755171418" lon="13.316429681078606"><ele>638.6666666666667</ele><time>2026-04-23T15:14:16Z</time></trkpt><trkpt lat="41.80007654125494" lon="13.316250033794969"><ele>634.3333333333334</ele><time>2026-04-23T15:14:17Z</time></trkpt><trkpt lat="41.79997790961193" lon="13.316096868993094"><ele>630.0</ele><time>2026-04-23T15:14:18Z</time></trkpt><trkpt lat="41.799883217942714" lon="13.315945481844246"><ele>630.0</ele><time>2026-04-23T15:14:19Z</time></trkpt><trkpt lat="41.79977233605868" lon="13.315815628410999"><ele>630.0</ele><time>2026-04-23T15:14:20Z</time></trkpt><trkpt lat="41.79962443595166" lon="13.315730651170277"><ele>630.0</ele><time>2026-04-23T15:14:21Z</time></trkpt><trkpt lat="41.79948099488942" lon="13.315659374835054"><ele>630.0</ele><time>2026-04-23T15:14:22Z</time></trkpt><trkpt lat="41.799355983523604" lon="13.315582220160833"><ele>630.0</ele><time>2026-04-23T15:14:23Z</time></trkpt><trkpt lat="41.79923789901976" lon="13.31550066419904"><ele>630.0</ele><time>2026-04-23T15:14:24Z</time></trkpt><trkpt lat="41.7991327490188" lon="13.315406938414188"><ele>630.0</ele><time>2026-04-23T15:14:25Z</time></trkpt><trkpt lat="41.79904228063558" lon="13.31528629552274"><ele>627.25</ele><time>2026-04-23T15:14:26Z</time></trkpt><trkpt lat="41.7989532019949" lon="13.315148740116127"><ele>624.5</ele><time>2026-04-23T15:14:27Z</time></trkpt><trkpt lat="41.7988764803603" lon="13.315003791237626"><ele>621.75</ele><time>2026-04-23T15:14:28Z</time></trkpt><trkpt lat="41.7988016657942" lon="13.314880219158756"><ele>619.0</ele><time>2026-04-23T15:14:29Z</time></trkpt><trkpt lat="41.79873499799546" lon="13.31477998039041"><ele>619.0</ele><time>2026-04-23T15:14:30Z</time></trkpt><trkpt lat="41.79868812639019" lon="13.314686743033091"><ele>619.0</ele><time>2026-04-23T15:14:31Z</time></trkpt><trkpt lat="41.79863496301311" lon="13.314625897078162"><ele>619.0</ele><time>2026-04-23T15:14:32Z</time></trkpt><trkpt lat="41.798489288233576" lon="13.31461025471337"><ele>619.0</ele><time>2026-04-23T15:14:34Z</time></trkpt><trkpt lat="41.79841643528742" lon="13.314635524926075"><ele>619.0</ele><time>2026-04-23T15:14:35Z</time></trkpt><trkpt lat="41.79835466394177" lon="13.31474459743473"><ele>619.0</ele><time>2026-04-23T15:14:36Z</time></trkpt><trkpt lat="41.79842849336848" lon="13.314960536262276"><ele>619.0</ele><time>2026-04-23T15:14:37Z</time></trkpt><trkpt lat="41.79848095967944" lon="13.315109666237085"><ele>619.0</ele><time>2026-04-23T15:14:38Z</time></trkpt><trkpt lat="41.79853403390212" lon="13.315258894699797"><ele>619.0</ele><time>2026-04-23T15:14:39Z</time></trkpt><trkpt lat="41.79858629762207" lon="13.315404518797765"><ele>619.0</ele><time>2026-04-23T15:14:40Z</time></trkpt><trkpt lat="41.798642114087386" lon="13.315556052872038"><ele>619.0</ele><time>2026-04-23T15:14:41Z</time></trkpt><trkpt lat="41.79869406022885" lon="13.315695251653292"><ele>619.0</ele><time>2026-04-23T15:14:42Z</time></trkpt><trkpt lat="41.798738328874876" lon="13.315812447244802"><ele>619.0</ele><time>2026-04-23T15:14:43Z</time></trkpt><trkpt lat="41.79877521418072" lon="13.315916650602349"><ele>619.0</ele><time>2026-04-23T15:14:44Z</time></trkpt><trkpt lat="41.79880928500404" lon="13.316021188544635"><ele>616.2</ele><time>2026-04-23T15:14:45Z</time></trkpt><trkpt lat="41.79883807862367" lon="13.316130057316478"><ele>613.4</ele><time>2026-04-23T15:14:46Z</time></trkpt><trkpt lat="41.798846116782464" lon="13.31622347279683"><ele>610.6</ele><time>2026-04-23T15:14:47Z</time></trkpt><trkpt lat="41.79878046071438" lon="13.316360198604784"><ele>607.8</ele><time>2026-04-23T15:14:49Z</time></trkpt><trkpt lat="41.79870483702561" lon="13.316427246537181"><ele>605.0</ele><time>2026-04-23T15:14:50Z</time></trkpt><trkpt lat="41.79859798565031" lon="13.316382324281836"><ele>605.0</ele><time>2026-04-23T15:14:51Z</time></trkpt><trkpt lat="41.79850402700626" lon="13.316276822085868"><ele>605.0</ele><time>2026-04-23T15:14:52Z</time></trkpt><trkpt lat="41.79843137250454" lon="13.316138252805022"><ele>605.0</ele><time>2026-04-23T15:14:53Z</time></trkpt><trkpt lat="41.79837245267908" lon="13.315964543259305"><ele>605.0</ele><time>2026-04-23T15:14:54Z</time></trkpt><trkpt lat="41.798265742396424" lon="13.315800557945474"><ele>604.25</ele><time>2026-04-23T15:14:55Z</time></trkpt><trkpt lat="41.798172946507165" lon="13.315638699072057"><ele>603.5</ele><time>2026-04-23T15:14:56Z</time></trkpt><trkpt lat="41.79808694777764" lon="13.315493473609385"><ele>602.75</ele><time>2026-04-23T15:14:57Z</time></trkpt><trkpt lat="41.79801246758203" lon="13.315363385448991"><ele>602.0</ele><time>2026-04-23T15:14:58Z</time></trkpt><trkpt lat="41.79793788921875" lon="13.315255673743776"><ele>602.0</ele><time>2026-04-23T15:14:59Z</time></trkpt><trkpt lat="41.79785850696229" lon="13.315173591895983"><ele>602.0</ele><time>2026-04-23T15:15:00Z</time></trkpt><trkpt lat="41.797784919337026" lon="13.315152150323206"><ele>602.0</ele><time>2026-04-23T15:15:01Z</time></trkpt><trkpt lat="41.797713634226014" lon="13.315124465435527"><ele>602.0</ele><time>2026-04-23T15:15:02Z</time></trkpt><trkpt lat="41.79757862094492" lon="13.315292712814921"><ele>602.0</ele><time>2026-04-23T15:15:03Z</time></trkpt><trkpt lat="41.79744367338041" lon="13.315383973845302"><ele>599.0</ele><time>2026-04-23T15:15:04Z</time></trkpt><trkpt lat="41.79732483400598" lon="13.315469245103898"><ele>596.0</ele><time>2026-04-23T15:15:05Z</time></trkpt><trkpt lat="41.79720859057842" lon="13.315551809276128"><ele>593.0</ele><time>2026-04-23T15:15:06Z</time></trkpt><trkpt lat="41.79709597216824" lon="13.315620655395259"><ele>590.0</ele><time>2026-04-23T15:15:07Z</time></trkpt><trkpt lat="41.79698916665332" lon="13.315670715447878"><ele>588.4</ele><time>2026-04-23T15:15:08Z</time></trkpt><trkpt lat="41.79690540004935" lon="13.315789493293599"><ele>586.8</ele><time>2026-04-23T15:15:09Z</time></trkpt><trkpt lat="41.796768030371446" lon="13.315793681943926"><ele>585.2</ele><time>2026-04-23T15:15:10Z</time></trkpt><trkpt lat="41.796668244571876" lon="13.315811656173384"><ele>583.6</ele><time>2026-04-23T15:15:11Z</time></trkpt><trkpt lat="41.79659651912206" lon="13.31575001953842"><ele>582.0</ele><time>2026-04-23T15:15:12Z</time></trkpt><trkpt lat="41.79647215488341" lon="13.315694620375753"><ele>581.3333333333334</ele><time>2026-04-23T15:15:13Z</time></trkpt><trkpt lat="41.79636560217464" lon="13.315745592203376"><ele>580.6666666666667</ele><time>2026-04-23T15:15:14Z</time></trkpt><trkpt lat="41.79626987482679" lon="13.315467631814299"><ele>580.0</ele><time>2026-04-23T15:15:15Z</time></trkpt><trkpt lat="41.796216519218966" lon="13.315212879734466"><ele>580.0</ele><time>2026-04-23T15:15:16Z</time></trkpt><trkpt lat="41.796155981648354" lon="13.315008902444536"><ele>580.0</ele><time>2026-04-23T15:15:17Z</time></trkpt><trkpt lat="41.79620636653914" lon="13.314726609814036"><ele>580.0</ele><time>2026-04-23T15:15:18Z</time></trkpt><trkpt lat="41.796134500419306" lon="13.314534460571213"><ele>580.0</ele><time>2026-04-23T15:15:19Z</time></trkpt><trkpt lat="41.79605987330942" lon="13.314342073008403"><ele>580.0</ele><time>2026-04-23T15:15:20Z</time></trkpt><trkpt lat="41.795987322821176" lon="13.314183923186276"><ele>580.0</ele><time>2026-04-23T15:15:21Z</time></trkpt><trkpt lat="41.79589048870771" lon="13.314075463913113"><ele>580.0</ele><time>2026-04-23T15:15:22Z</time></trkpt><trkpt lat="41.79574998089802" lon="13.314040032991795"><ele>579.3333333333334</ele><time>2026-04-23T15:15:23Z</time></trkpt><trkpt lat="41.79561866401937" lon="13.314139000424095"><ele>578.6666666666666</ele><time>2026-04-23T15:15:24Z</time></trkpt><trkpt lat="41.7954819559087" lon="13.314239229632493"><ele>578.0</ele><time>2026-04-23T15:15:25Z</time></trkpt><trkpt lat="41.795337859014985" lon="13.314358065676624"><ele>578.0</ele><time>2026-04-23T15:15:26Z</time></trkpt><trkpt lat="41.795186293628994" lon="13.314481521154743"><ele>578.0</ele><time>2026-04-23T15:15:27Z</time></trkpt><trkpt lat="41.79504359153481" lon="13.314605842978816"><ele>578.0</ele><time>2026-04-23T15:15:28Z</time></trkpt><trkpt lat="41.79488604729925" lon="13.314738197121008"><ele>576.6666666666666</ele><time>2026-04-23T15:15:29Z</time></trkpt><trkpt lat="41.79472803172084" lon="13.314876698245177"><ele>575.3333333333334</ele><time>2026-04-23T15:15:30Z</time></trkpt><trkpt lat="41.794559568766374" lon="13.315008191376307"><ele>574.0</ele><time>2026-04-23T15:15:31Z</time></trkpt><trkpt lat="41.794388294449284" lon="13.315158516555062"><ele>578.5</ele><time>2026-04-23T15:15:32Z</time></trkpt><trkpt lat="41.79421196480016" lon="13.315318414713937"><ele>583.0</ele><time>2026-04-23T15:15:33Z</time></trkpt><trkpt lat="41.79398280016638" lon="13.315500873147665"><ele>572.0</ele><time>2026-04-23T15:15:34Z</time></trkpt><trkpt lat="41.79374343534543" lon="13.31567229295622"><ele>561.0</ele><time>2026-04-23T15:15:35Z</time></trkpt><trkpt lat="41.79353055528906" lon="13.315814078511929"><ele>566.5</ele><time>2026-04-23T15:15:36Z</time></trkpt><trkpt lat="41.79332465954621" lon="13.315955742288406"><ele>572.0</ele><time>2026-04-23T15:15:37Z</time></trkpt><trkpt lat="41.793097637776974" lon="13.316067789329262"><ele>572.0</ele><time>2026-04-23T15:15:38Z</time></trkpt><trkpt lat="41.79289086085504" lon="13.316190969757255"><ele>572.0</ele><time>2026-04-23T15:15:39Z</time></trkpt><trkpt lat="41.79269873533972" lon="13.316287496178331"><ele>572.0</ele><time>2026-04-23T15:15:40Z</time></trkpt><trkpt lat="41.792509031084755" lon="13.31638414471657"><ele>566.0</ele><time>2026-04-23T15:15:41Z</time></trkpt><trkpt lat="41.7923127273022" lon="13.316484165497426"><ele>560.0</ele><time>2026-04-23T15:15:42Z</time></trkpt><trkpt lat="41.79211120100574" lon="13.316569664466217"><ele>554.0</ele><time>2026-04-23T15:15:43Z</time></trkpt><trkpt lat="41.791915089752116" lon="13.316610390974764"><ele>552.6666666666666</ele><time>2026-04-23T15:15:44Z</time></trkpt><trkpt lat="41.79171100229434" lon="13.31661536103606"><ele>551.3333333333334</ele><time>2026-04-23T15:15:45Z</time></trkpt><trkpt lat="41.791511712996815" lon="13.316578022407512"><ele>550.0</ele><time>2026-04-23T15:15:46Z</time></trkpt><trkpt lat="41.791314768548276" lon="13.316509346019135"><ele>550.0</ele><time>2026-04-23T15:15:47Z</time></trkpt><trkpt lat="41.79110259952412" lon="13.316408810042528"><ele>550.0</ele><time>2026-04-23T15:15:48Z</time></trkpt><trkpt lat="41.790913093069065" lon="13.316268875981644"><ele>550.0</ele><time>2026-04-23T15:15:49Z</time></trkpt><trkpt lat="41.79074061686949" lon="13.316121360962818"><ele>550.6666666666667</ele><time>2026-04-23T15:15:50Z</time></trkpt><trkpt lat="41.790602363780884" lon="13.315948800095677"><ele>551.3333333333334</ele><time>2026-04-23T15:15:51Z</time></trkpt><trkpt lat="41.79049181268015" lon="13.315721643375834"><ele>552.0</ele><time>2026-04-23T15:15:52Z</time></trkpt><trkpt lat="41.79039860979502" lon="13.315465864604617"><ele>556.0</ele><time>2026-04-23T15:15:53Z</time></trkpt><trkpt lat="41.79030486401332" lon="13.31516866261626"><ele>560.0</ele><time>2026-04-23T15:15:54Z</time></trkpt><trkpt lat="41.790202678443926" lon="13.314872999457343"><ele>553.3333333333333</ele><time>2026-04-23T15:15:55Z</time></trkpt><trkpt lat="41.790107212380796" lon="13.31462737105832"><ele>546.6666666666666</ele><time>2026-04-23T15:15:56Z</time></trkpt><trkpt lat="41.79002615248885" lon="13.31438986469776"><ele>540.0</ele><time>2026-04-23T15:15:57Z</time></trkpt><trkpt lat="41.78996590005849" lon="13.3141342393759"><ele>540.3333333333334</ele><time>2026-04-23T15:15:58Z</time></trkpt><trkpt lat="41.78993332759142" lon="13.313851563436803"><ele>540.6666666666667</ele><time>2026-04-23T15:15:59Z</time></trkpt><trkpt lat="41.78990748464666" lon="13.31356142024218"><ele>541.0</ele><time>2026-04-23T15:16:00Z</time></trkpt><trkpt lat="41.789878314741394" lon="13.313292309497111"><ele>541.0</ele><time>2026-04-23T15:16:01Z</time></trkpt><trkpt lat="41.78984394801245" lon="13.313038807287755"><ele>541.0</ele><time>2026-04-23T15:16:02Z</time></trkpt><trkpt lat="41.789802082507585" lon="13.312797708589603"><ele>541.0</ele><time>2026-04-23T15:16:03Z</time></trkpt><trkpt lat="41.78974688933208" lon="13.312570273685452"><ele>541.0</ele><time>2026-04-23T15:16:04Z</time></trkpt><trkpt lat="41.78966081409921" lon="13.312372934547897"><ele>541.0</ele><time>2026-04-23T15:16:05Z</time></trkpt><trkpt lat="41.789533745826816" lon="13.312205146021892"><ele>541.0</ele><time>2026-04-23T15:16:06Z</time></trkpt><trkpt lat="41.78938458195616" lon="13.312053700943387"><ele>538.0</ele><time>2026-04-23T15:16:07Z</time></trkpt><trkpt lat="41.78922595212619" lon="13.311954878856005"><ele>535.0</ele><time>2026-04-23T15:16:08Z</time></trkpt><trkpt lat="41.789051095925444" lon="13.311890298308214"><ele>532.0</ele><time>2026-04-23T15:16:09Z</time></trkpt><trkpt lat="41.78885920473799" lon="13.311865719478703"><ele>532.0</ele><time>2026-04-23T15:16:10Z</time></trkpt><trkpt lat="41.78865861104566" lon="13.311908827408272"><ele>532.0</ele><time>2026-04-23T15:16:11Z</time></trkpt><trkpt lat="41.78845929857679" lon="13.312007301567686"><ele>532.0</ele><time>2026-04-23T15:16:12Z</time></trkpt><trkpt lat="41.788267817661435" lon="13.31215138481663"><ele>529.6666666666667</ele><time>2026-04-23T15:16:13Z</time></trkpt><trkpt lat="41.78808814405384" lon="13.312336596996184"><ele>527.3333333333334</ele><time>2026-04-23T15:16:14Z</time></trkpt><trkpt lat="41.78793191119455" lon="13.31248964221528"><ele>525.0</ele><time>2026-04-23T15:16:15Z</time></trkpt><trkpt lat="41.78778663572762" lon="13.312632633032178"><ele>524.3333333333334</ele><time>2026-04-23T15:16:16Z</time></trkpt><trkpt lat="41.78765664773371" lon="13.31277809073276"><ele>523.6666666666667</ele><time>2026-04-23T15:16:17Z</time></trkpt><trkpt lat="41.78752388666255" lon="13.312905446462779"><ele>523.0</ele><time>2026-04-23T15:16:18Z</time></trkpt><trkpt lat="41.787396699001654" lon="13.313037330539185"><ele>522.3333333333334</ele><time>2026-04-23T15:16:19Z</time></trkpt><trkpt lat="41.78724971608539" lon="13.313159327819163"><ele>521.6666666666666</ele><time>2026-04-23T15:16:20Z</time></trkpt><trkpt lat="41.78710592490154" lon="13.313299880297418"><ele>521.0</ele><time>2026-04-23T15:16:21Z</time></trkpt><trkpt lat="41.786958829879325" lon="13.313443662241216"><ele>520.0</ele><time>2026-04-23T15:16:22Z</time></trkpt><trkpt lat="41.7868019122437" lon="13.313600042640456"><ele>519.0</ele><time>2026-04-23T15:16:23Z</time></trkpt><trkpt lat="41.78662108790792" lon="13.31378055662025"><ele>518.0</ele><time>2026-04-23T15:16:24Z</time></trkpt><trkpt lat="41.78643099408183" lon="13.31396846805175"><ele>517.6666666666666</ele><time>2026-04-23T15:16:25Z</time></trkpt><trkpt lat="41.786274097978065" lon="13.314143782343109"><ele>517.3333333333334</ele><time>2026-04-23T15:16:26Z</time></trkpt><trkpt lat="41.786119756949134" lon="13.31429134484696"><ele>517.0</ele><time>2026-04-23T15:16:27Z</time></trkpt><trkpt lat="41.78597503147029" lon="13.314436589362602"><ele>517.0</ele><time>2026-04-23T15:16:28Z</time></trkpt><trkpt lat="41.78582885692009" lon="13.314582819637145"><ele>517.0</ele><time>2026-04-23T15:16:29Z</time></trkpt><trkpt lat="41.785665343774866" lon="13.314681636437205"><ele>517.0</ele><time>2026-04-23T15:16:30Z</time></trkpt><trkpt lat="41.78552072332064" lon="13.3147988081734"><ele>515.3333333333334</ele><time>2026-04-23T15:16:31Z</time></trkpt><trkpt lat="41.78536369611614" lon="13.314870138081751"><ele>513.6666666666666</ele><time>2026-04-23T15:16:32Z</time></trkpt><trkpt lat="41.78520307225124" lon="13.314921608513815"><ele>512.0</ele><time>2026-04-23T15:16:33Z</time></trkpt><trkpt lat="41.78502956125238" lon="13.314929556672663"><ele>510.66666666666663</ele><time>2026-04-23T15:16:34Z</time></trkpt><trkpt lat="41.784849727389215" lon="13.314937620939176"><ele>509.33333333333337</ele><time>2026-04-23T15:16:35Z</time></trkpt><trkpt lat="41.784666758166296" lon="13.314959542553371"><ele>508.0</ele><time>2026-04-23T15:16:36Z</time></trkpt><trkpt lat="41.784480418296056" lon="13.314953208342061"><ele>506.33333333333337</ele><time>2026-04-23T15:16:37Z</time></trkpt><trkpt lat="41.78427677075182" lon="13.314950958875857"><ele>504.66666666666663</ele><time>2026-04-23T15:16:38Z</time></trkpt><trkpt lat="41.784046371550374" lon="13.31495489438145"><ele>503.0</ele><time>2026-04-23T15:16:39Z</time></trkpt><trkpt lat="41.783783587965004" lon="13.31494064669356"><ele>502.0</ele><time>2026-04-23T15:16:40Z</time></trkpt><trkpt lat="41.78350560273531" lon="13.314940915652883"><ele>501.0</ele><time>2026-04-23T15:16:41Z</time></trkpt><trkpt lat="41.783238773374535" lon="13.314952706594347"><ele>501.0</ele><time>2026-04-23T15:16:42Z</time></trkpt><trkpt lat="41.782964244822125" lon="13.31495838218824"><ele>501.0</ele><time>2026-04-23T15:16:43Z</time></trkpt><trkpt lat="41.782656908950855" lon="13.314956604003768"><ele>499.5</ele><time>2026-04-23T15:16:44Z</time></trkpt><trkpt lat="41.782353770385754" lon="13.314945608427617"><ele>498.0</ele><time>2026-04-23T15:16:45Z</time></trkpt><trkpt lat="41.78209812511526" lon="13.31492336249698"><ele>498.0</ele><time>2026-04-23T15:16:46Z</time></trkpt><trkpt lat="41.7818762473363" lon="13.314934551914352"><ele>498.0</ele><time>2026-04-23T15:16:47Z</time></trkpt><trkpt lat="41.78166234672522" lon="13.314947601158304"><ele>498.0</ele><time>2026-04-23T15:16:48Z</time></trkpt><trkpt lat="41.78146410429414" lon="13.314974079768389"><ele>498.33333333333337</ele><time>2026-04-23T15:16:49Z</time></trkpt><trkpt lat="41.78127409277723" lon="13.315034982798446"><ele>498.6666666666667</ele><time>2026-04-23T15:16:50Z</time></trkpt><trkpt lat="41.78109852316621" lon="13.315147567922958"><ele>499.0</ele><time>2026-04-23T15:16:51Z</time></trkpt><trkpt lat="41.780935817900684" lon="13.315300693758772"><ele>499.33333333333337</ele><time>2026-04-23T15:16:52Z</time></trkpt><trkpt lat="41.780776194860756" lon="13.315478539834507"><ele>499.66666666666663</ele><time>2026-04-23T15:16:53Z</time></trkpt><trkpt lat="41.78062779684746" lon="13.315685567012649"><ele>500.0</ele><time>2026-04-23T15:16:54Z</time></trkpt><trkpt lat="41.78048541564215" lon="13.315928261547148"><ele>496.5</ele><time>2026-04-23T15:16:55Z</time></trkpt><trkpt lat="41.780335713639765" lon="13.316180492935255"><ele>493.0</ele><time>2026-04-23T15:16:56Z</time></trkpt><trkpt lat="41.78018387838653" lon="13.316426824086607"><ele>495.5</ele><time>2026-04-23T15:16:57Z</time></trkpt><trkpt lat="41.78002994530658" lon="13.316678310882866"><ele>498.0</ele><time>2026-04-23T15:16:58Z</time></trkpt><trkpt lat="41.7798632565259" lon="13.31693582604217"><ele>498.0</ele><time>2026-04-23T15:16:59Z</time></trkpt><trkpt lat="41.779677239169324" lon="13.317227749566987"><ele>498.0</ele><time>2026-04-23T15:17:00Z</time></trkpt><trkpt lat="41.77949614524284" lon="13.317519435093699"><ele>499.0</ele><time>2026-04-23T15:17:01Z</time></trkpt><trkpt lat="41.7793378881173" lon="13.317772336707565"><ele>500.0</ele><time>2026-04-23T15:17:02Z</time></trkpt><trkpt lat="41.779198503247464" lon="13.31799765402452"><ele>498.0</ele><time>2026-04-23T15:17:03Z</time></trkpt><trkpt lat="41.779058515053656" lon="13.318194430071376"><ele>496.0</ele><time>2026-04-23T15:17:04Z</time></trkpt><trkpt lat="41.77890131412835" lon="13.318362542127478"><ele>494.0</ele><time>2026-04-23T15:17:05Z</time></trkpt><trkpt lat="41.77872604256414" lon="13.31850801167042"><ele>494.0</ele><time>2026-04-23T15:17:06Z</time></trkpt><trkpt lat="41.778533004665896" lon="13.318614877762814"><ele>494.0</ele><time>2026-04-23T15:17:07Z</time></trkpt><trkpt lat="41.77832573063847" lon="13.31871320210539"><ele>494.0</ele><time>2026-04-23T15:17:08Z</time></trkpt><trkpt lat="41.77811342174773" lon="13.31880550526262"><ele>492.66666666666663</ele><time>2026-04-23T15:17:09Z</time></trkpt><trkpt lat="41.777906223595885" lon="13.318906309230238"><ele>491.33333333333337</ele><time>2026-04-23T15:17:10Z</time></trkpt><trkpt lat="41.777710679996225" lon="13.31899980104969"><ele>490.0</ele><time>2026-04-23T15:17:11Z</time></trkpt><trkpt lat="41.77752142819827" lon="13.319085532193839"><ele>490.0</ele><time>2026-04-23T15:17:12Z</time></trkpt><trkpt lat="41.77733484940027" lon="13.319165512740849"><ele>490.0</ele><time>2026-04-23T15:17:13Z</time></trkpt><trkpt lat="41.77716027585784" lon="13.319243791381579"><ele>490.0</ele><time>2026-04-23T15:17:14Z</time></trkpt><trkpt lat="41.77699936834859" lon="13.31932873645458"><ele>490.33333333333337</ele><time>2026-04-23T15:17:15Z</time></trkpt><trkpt lat="41.776847426124526" lon="13.319396240397433"><ele>490.66666666666663</ele><time>2026-04-23T15:17:16Z</time></trkpt><trkpt lat="41.776706402095726" lon="13.319463124425793"><ele>491.0</ele><time>2026-04-23T15:17:17Z</time></trkpt><trkpt lat="41.77656389176031" lon="13.31953778360773"><ele>491.0</ele><time>2026-04-23T15:17:18Z</time></trkpt><trkpt lat="41.77640015041079" lon="13.319602253688648"><ele>491.0</ele><time>2026-04-23T15:17:19Z</time></trkpt><trkpt lat="41.776228780499906" lon="13.319665545493732"><ele>491.0</ele><time>2026-04-23T15:17:20Z</time></trkpt><trkpt lat="41.77605551731904" lon="13.31974287734938"><ele>488.66666666666663</ele><time>2026-04-23T15:17:21Z</time></trkpt><trkpt lat="41.775894440456575" lon="13.319818907165228"><ele>486.33333333333337</ele><time>2026-04-23T15:17:22Z</time></trkpt><trkpt lat="41.775746721325625" lon="13.319887027486429"><ele>484.0</ele><time>2026-04-23T15:17:23Z</time></trkpt><trkpt lat="41.77561232411054" lon="13.319950901281063"><ele>484.0</ele><time>2026-04-23T15:17:24Z</time></trkpt><trkpt lat="41.775481367467385" lon="13.320016162521481"><ele>484.0</ele><time>2026-04-23T15:17:25Z</time></trkpt><trkpt lat="41.77535321295347" lon="13.320077657743143"><ele>484.0</ele><time>2026-04-23T15:17:26Z</time></trkpt><trkpt lat="41.77523986648805" lon="13.320130797846147"><ele>484.0</ele><time>2026-04-23T15:17:27Z</time></trkpt><trkpt lat="41.77512951847083" lon="13.320177199996376"><ele>483.79999999999995</ele><time>2026-04-23T15:17:28Z</time></trkpt><trkpt lat="41.77503782524534" lon="13.32022659957669"><ele>483.59999999999997</ele><time>2026-04-23T15:17:29Z</time></trkpt><trkpt lat="41.77496311048448" lon="13.320269686719724"><ele>483.4</ele><time>2026-04-23T15:17:30Z</time></trkpt><trkpt lat="41.77487087922723" lon="13.320261866027693"><ele>483.2</ele><time>2026-04-23T15:17:32Z</time></trkpt><trkpt lat="41.7747146056834" lon="13.320317584936696"><ele>483.0</ele><time>2026-04-23T15:17:36Z</time></trkpt><trkpt lat="41.774597116657695" lon="13.320390455732587"><ele>483.0</ele><time>2026-04-23T15:17:37Z</time></trkpt><trkpt lat="41.77448169966582" lon="13.320458912205568"><ele>483.0</ele><time>2026-04-23T15:17:38Z</time></trkpt><trkpt lat="41.77436888933909" lon="13.320507797032732"><ele>483.0</ele><time>2026-04-23T15:17:39Z</time></trkpt><trkpt lat="41.77425396989816" lon="13.320534062879652"><ele>483.0</ele><time>2026-04-23T15:17:40Z</time></trkpt><trkpt lat="41.77412741164627" lon="13.320553562938494"><ele>483.0</ele><time>2026-04-23T15:17:41Z</time></trkpt><trkpt lat="41.773997172649246" lon="13.320549159075055"><ele>483.0</ele><time>2026-04-23T15:17:42Z</time></trkpt><trkpt lat="41.77386492790792" lon="13.320483198805372"><ele>483.0</ele><time>2026-04-23T15:17:43Z</time></trkpt><trkpt lat="41.77373894100879" lon="13.320386090603789"><ele>483.0</ele><time>2026-04-23T15:17:44Z</time></trkpt><trkpt lat="41.77361956748227" lon="13.32023691896083"><ele>481.66666666666663</ele><time>2026-04-23T15:17:45Z</time></trkpt><trkpt lat="41.77349551592584" lon="13.3200829385703"><ele>480.3333333333333</ele><time>2026-04-23T15:17:46Z</time></trkpt><trkpt lat="41.773373793249995" lon="13.319925328776002"><ele>479.0</ele><time>2026-04-23T15:17:47Z</time></trkpt><trkpt lat="41.773246754116" lon="13.319766744459022"><ele>479.66666666666663</ele><time>2026-04-23T15:17:48Z</time></trkpt><trkpt lat="41.773122625992414" lon="13.319608843167064"><ele>480.33333333333337</ele><time>2026-04-23T15:17:49Z</time></trkpt><trkpt lat="41.77300137856275" lon="13.319448774379973"><ele>481.0</ele><time>2026-04-23T15:17:50Z</time></trkpt><trkpt lat="41.77287983744849" lon="13.319292454587217"><ele>481.0</ele><time>2026-04-23T15:17:51Z</time></trkpt><trkpt lat="41.77276006799431" lon="13.319137694674913"><ele>481.0</ele><time>2026-04-23T15:17:52Z</time></trkpt><trkpt lat="41.77263736700874" lon="13.318983727472837"><ele>481.0</ele><time>2026-04-23T15:17:53Z</time></trkpt><trkpt lat="41.77251589933464" lon="13.31883466889529"><ele>480.0</ele><time>2026-04-23T15:17:54Z</time></trkpt><trkpt lat="41.77239054636997" lon="13.31869210428398"><ele>479.0</ele><time>2026-04-23T15:17:55Z</time></trkpt><trkpt lat="41.772267941198166" lon="13.318544935042844"><ele>478.0</ele><time>2026-04-23T15:17:56Z</time></trkpt><trkpt lat="41.77213778992868" lon="13.318410959686709"><ele>478.0</ele><time>2026-04-23T15:17:57Z</time></trkpt><trkpt lat="41.77199106232182" lon="13.31830975415233"><ele>478.0</ele><time>2026-04-23T15:17:58Z</time></trkpt><trkpt lat="41.771827730077526" lon="13.318261176979187"><ele>478.0</ele><time>2026-04-23T15:17:59Z</time></trkpt><trkpt lat="41.77165817001291" lon="13.318221492955812"><ele>476.6666666666667</ele><time>2026-04-23T15:18:00Z</time></trkpt><trkpt lat="41.77147745190786" lon="13.318204567374265"><ele>475.33333333333337</ele><time>2026-04-23T15:18:01Z</time></trkpt><trkpt lat="41.77130701579343" lon="13.318200925035795"><ele>474.0</ele><time>2026-04-23T15:18:02Z</time></trkpt><trkpt lat="41.77113315912" lon="13.318226310040401"><ele>472.66666666666663</ele><time>2026-04-23T15:18:03Z</time></trkpt><trkpt lat="41.77095146335372" lon="13.318298691339983"><ele>471.3333333333333</ele><time>2026-04-23T15:18:04Z</time></trkpt><trkpt lat="41.770780768970745" lon="13.318389150327969"><ele>470.0</ele><time>2026-04-23T15:18:05Z</time></trkpt><trkpt lat="41.770624422684406" lon="13.318461775102026"><ele>470.0</ele><time>2026-04-23T15:18:06Z</time></trkpt><trkpt lat="41.77047867173476" lon="13.318552236007637"><ele>470.0</ele><time>2026-04-23T15:18:07Z</time></trkpt><trkpt lat="41.77032632751669" lon="13.318644580550334"><ele>470.0</ele><time>2026-04-23T15:18:08Z</time></trkpt><trkpt lat="41.77017048978477" lon="13.318739412167892"><ele>469.66666666666663</ele><time>2026-04-23T15:18:09Z</time></trkpt><trkpt lat="41.770010199956126" lon="13.318837137456491"><ele>469.33333333333337</ele><time>2026-04-23T15:18:10Z</time></trkpt><trkpt lat="41.76985698998195" lon="13.318954167167211"><ele>469.0</ele><time>2026-04-23T15:18:11Z</time></trkpt><trkpt lat="41.7696960451815" lon="13.319046170964308"><ele>467.33333333333337</ele><time>2026-04-23T15:18:12Z</time></trkpt><trkpt lat="41.76953806946771" lon="13.31913648031885"><ele>465.66666666666663</ele><time>2026-04-23T15:18:13Z</time></trkpt><trkpt lat="41.76937993236333" lon="13.319227534066359"><ele>464.0</ele><time>2026-04-23T15:18:14Z</time></trkpt><trkpt lat="41.76921928209317" lon="13.31932523823111"><ele>464.0</ele><time>2026-04-23T15:18:15Z</time></trkpt><trkpt lat="41.76905111384519" lon="13.319424391929468"><ele>464.0</ele><time>2026-04-23T15:18:16Z</time></trkpt><trkpt lat="41.76887562585835" lon="13.319519717919936"><ele>464.0</ele><time>2026-04-23T15:18:17Z</time></trkpt><trkpt lat="41.76870078177107" lon="13.319624057575775"><ele>464.3333333333333</ele><time>2026-04-23T15:18:18Z</time></trkpt><trkpt lat="41.7685228427683" lon="13.3197268084119"><ele>464.66666666666663</ele><time>2026-04-23T15:18:19Z</time></trkpt><trkpt lat="41.768347571759776" lon="13.319827704374482"><ele>465.0</ele><time>2026-04-23T15:18:20Z</time></trkpt><trkpt lat="41.76818662311416" lon="13.319918221827376"><ele>462.66666666666663</ele><time>2026-04-23T15:18:21Z</time></trkpt><trkpt lat="41.768033707003326" lon="13.320002524333152"><ele>460.3333333333333</ele><time>2026-04-23T15:18:22Z</time></trkpt><trkpt lat="41.767881393604576" lon="13.320084094325553"><ele>458.0</ele><time>2026-04-23T15:18:23Z</time></trkpt><trkpt lat="41.7677176734592" lon="13.320150936117138"><ele>457.66666666666663</ele><time>2026-04-23T15:18:24Z</time></trkpt><trkpt lat="41.76754208644909" lon="13.320191829782726"><ele>457.33333333333337</ele><time>2026-04-23T15:18:25Z</time></trkpt><trkpt lat="41.76735690732638" lon="13.320201184849804"><ele>457.0</ele><time>2026-04-23T15:18:26Z</time></trkpt><trkpt lat="41.767167221644364" lon="13.320177884974502"><ele>457.0</ele><time>2026-04-23T15:18:27Z</time></trkpt><trkpt lat="41.766979517060015" lon="13.3201187503071"><ele>457.0</ele><time>2026-04-23T15:18:28Z</time></trkpt><trkpt lat="41.76678921135372" lon="13.320057944087013"><ele>457.0</ele><time>2026-04-23T15:18:29Z</time></trkpt><trkpt lat="41.76660795711149" lon="13.319979904684297"><ele>455.33333333333337</ele><time>2026-04-23T15:18:30Z</time></trkpt><trkpt lat="41.76644038062735" lon="13.319907968942102"><ele>453.66666666666663</ele><time>2026-04-23T15:18:31Z</time></trkpt><trkpt lat="41.766270853239796" lon="13.319845539562152"><ele>452.0</ele><time>2026-04-23T15:18:32Z</time></trkpt><trkpt lat="41.76609213834325" lon="13.31979726133608"><ele>451.0</ele><time>2026-04-23T15:18:33Z</time></trkpt><trkpt lat="41.76590669706666" lon="13.319763284521503"><ele>450.0</ele><time>2026-04-23T15:18:34Z</time></trkpt><trkpt lat="41.76571833584186" lon="13.319742059130858"><ele>449.0</ele><time>2026-04-23T15:18:35Z</time></trkpt><trkpt lat="41.7655278124353" lon="13.319719084870401"><ele>448.3333333333333</ele><time>2026-04-23T15:18:36Z</time></trkpt><trkpt lat="41.76535106103221" lon="13.319710672329979"><ele>447.66666666666663</ele><time>2026-04-23T15:18:37Z</time></trkpt><trkpt lat="41.76517778539705" lon="13.319721079106564"><ele>447.0</ele><time>2026-04-23T15:18:38Z</time></trkpt><trkpt lat="41.76499674394573" lon="13.31975023698024"><ele>446.0</ele><time>2026-04-23T15:18:39Z</time></trkpt><trkpt lat="41.764815970780795" lon="13.319792038510869"><ele>445.0</ele><time>2026-04-23T15:18:40Z</time></trkpt><trkpt lat="41.764636523211145" lon="13.31984006541509"><ele>444.0</ele><time>2026-04-23T15:18:41Z</time></trkpt><trkpt lat="41.76445585729714" lon="13.319911360951261"><ele>442.66666666666663</ele><time>2026-04-23T15:18:42Z</time></trkpt><trkpt lat="41.76426640692147" lon="13.319990525099216"><ele>441.3333333333333</ele><time>2026-04-23T15:18:43Z</time></trkpt><trkpt lat="41.764075138718574" lon="13.320069379740183"><ele>440.0</ele><time>2026-04-23T15:18:44Z</time></trkpt><trkpt lat="41.76388826320119" lon="13.320163638705605"><ele>440.0</ele><time>2026-04-23T15:18:45Z</time></trkpt><trkpt lat="41.76370725854219" lon="13.320267857087684"><ele>440.0</ele><time>2026-04-23T15:18:46Z</time></trkpt><trkpt lat="41.76353916166612" lon="13.32036418964153"><ele>440.0</ele><time>2026-04-23T15:18:47Z</time></trkpt><trkpt lat="41.763378381353974" lon="13.320451425162881"><ele>440.66666666666663</ele><time>2026-04-23T15:18:48Z</time></trkpt><trkpt lat="41.763229736201104" lon="13.320541666873188"><ele>441.33333333333337</ele><time>2026-04-23T15:18:49Z</time></trkpt><trkpt lat="41.763086881707274" lon="13.320625445076564"><ele>442.0</ele><time>2026-04-23T15:18:50Z</time></trkpt><trkpt lat="41.762945911672425" lon="13.320706837552649"><ele>440.5</ele><time>2026-04-23T15:18:51Z</time></trkpt><trkpt lat="41.76280559589118" lon="13.320791930621116"><ele>439.0</ele><time>2026-04-23T15:18:52Z</time></trkpt><trkpt lat="41.76267651423722" lon="13.32087046812651"><ele>437.5</ele><time>2026-04-23T15:18:53Z</time></trkpt><trkpt lat="41.76256016541543" lon="13.320940137545435"><ele>436.0</ele><time>2026-04-23T15:18:54Z</time></trkpt><trkpt lat="41.762445842678254" lon="13.32100231016388"><ele>435.75</ele><time>2026-04-23T15:18:55Z</time></trkpt><trkpt lat="41.762333487777056" lon="13.321054670261944"><ele>435.5</ele><time>2026-04-23T15:18:56Z</time></trkpt><trkpt lat="41.762210975703866" lon="13.321103510436611"><ele>435.25</ele><time>2026-04-23T15:18:57Z</time></trkpt><trkpt lat="41.76207962577694" lon="13.32115207381258"><ele>435.0</ele><time>2026-04-23T15:18:58Z</time></trkpt><trkpt lat="41.761938425974904" lon="13.321197084150503"><ele>434.25</ele><time>2026-04-23T15:18:59Z</time></trkpt><trkpt lat="41.76179937894829" lon="13.321236174633276"><ele>433.5</ele><time>2026-04-23T15:19:00Z</time></trkpt><trkpt lat="41.76166423136061" lon="13.321277345443457"><ele>432.75</ele><time>2026-04-23T15:19:01Z</time></trkpt><trkpt lat="41.7615370985797" lon="13.321319671167792"><ele>432.0</ele><time>2026-04-23T15:19:02Z</time></trkpt><trkpt lat="41.76142197181259" lon="13.321354057707445"><ele>432.0</ele><time>2026-04-23T15:19:03Z</time></trkpt><trkpt lat="41.76130727294358" lon="13.321388384090392"><ele>432.0</ele><time>2026-04-23T15:19:04Z</time></trkpt><trkpt lat="41.761189201517595" lon="13.32142608265042"><ele>432.0</ele><time>2026-04-23T15:19:05Z</time></trkpt><trkpt lat="41.761065646182665" lon="13.321470818075715"><ele>432.0</ele><time>2026-04-23T15:19:06Z</time></trkpt><trkpt lat="41.7609385836097" lon="13.321517863877814"><ele>431.25</ele><time>2026-04-23T15:19:07Z</time></trkpt><trkpt lat="41.760806852505276" lon="13.321559428356828"><ele>430.5</ele><time>2026-04-23T15:19:08Z</time></trkpt><trkpt lat="41.76067235631156" lon="13.321604881103799"><ele>429.75</ele><time>2026-04-23T15:19:09Z</time></trkpt><trkpt lat="41.76054131478201" lon="13.321654365421503"><ele>429.0</ele><time>2026-04-23T15:19:10Z</time></trkpt><trkpt lat="41.760410952125326" lon="13.32170276556596"><ele>429.0</ele><time>2026-04-23T15:19:11Z</time></trkpt><trkpt lat="41.76028207475992" lon="13.321748655489106"><ele>429.0</ele><time>2026-04-23T15:19:12Z</time></trkpt><trkpt lat="41.760155373788464" lon="13.321791857431231"><ele>429.0</ele><time>2026-04-23T15:19:13Z</time></trkpt><trkpt lat="41.76002844395784" lon="13.321833043087679"><ele>429.0</ele><time>2026-04-23T15:19:14Z</time></trkpt><trkpt lat="41.75990186292858" lon="13.321872580709645"><ele>430.0</ele><time>2026-04-23T15:19:15Z</time></trkpt><trkpt lat="41.75977682179019" lon="13.321911340164032"><ele>431.0</ele><time>2026-04-23T15:19:16Z</time></trkpt><trkpt lat="41.759652198985755" lon="13.321955007927182"><ele>432.0</ele><time>2026-04-23T15:19:17Z</time></trkpt><trkpt lat="41.75952992396343" lon="13.321995075480938"><ele>433.0</ele><time>2026-04-23T15:19:18Z</time></trkpt><trkpt lat="41.75941347933236" lon="13.322034821294391"><ele>433.5</ele><time>2026-04-23T15:19:19Z</time></trkpt><trkpt lat="41.75930128089859" lon="13.322083179960932"><ele>434.0</ele><time>2026-04-23T15:19:20Z</time></trkpt><trkpt lat="41.75919196626276" lon="13.322132785309286"><ele>434.5</ele><time>2026-04-23T15:19:21Z</time></trkpt><trkpt lat="41.759083063679284" lon="13.322181834369692"><ele>435.0</ele><time>2026-04-23T15:19:22Z</time></trkpt><trkpt lat="41.758969600590255" lon="13.322230301039502"><ele>433.0</ele><time>2026-04-23T15:19:23Z</time></trkpt><trkpt lat="41.758850750915904" lon="13.322282092755175"><ele>431.0</ele><time>2026-04-23T15:19:24Z</time></trkpt><trkpt lat="41.75872514195577" lon="13.322331123146075"><ele>429.0</ele><time>2026-04-23T15:19:25Z</time></trkpt><trkpt lat="41.75860094018817" lon="13.32239037414767"><ele>427.0</ele><time>2026-04-23T15:19:26Z</time></trkpt><trkpt lat="41.758465047330475" lon="13.322447419161985"><ele>426.75</ele><time>2026-04-23T15:19:27Z</time></trkpt><trkpt lat="41.75832506988124" lon="13.322508499742614"><ele>426.5</ele><time>2026-04-23T15:19:28Z</time></trkpt><trkpt lat="41.758189176426484" lon="13.322576001382274"><ele>426.25</ele><time>2026-04-23T15:19:29Z</time></trkpt><trkpt lat="41.758058166781446" lon="13.322646626965433"><ele>426.0</ele><time>2026-04-23T15:19:30Z</time></trkpt><trkpt lat="41.757941699303494" lon="13.32271498454739"><ele>426.0</ele><time>2026-04-23T15:19:31Z</time></trkpt><trkpt lat="41.75783175651294" lon="13.32278929741326"><ele>426.0</ele><time>2026-04-23T15:19:32Z</time></trkpt><trkpt lat="41.75772732311812" lon="13.322876370418511"><ele>426.0</ele><time>2026-04-23T15:19:33Z</time></trkpt><trkpt lat="41.757631134914305" lon="13.322973011492724"><ele>426.0</ele><time>2026-04-23T15:19:34Z</time></trkpt><trkpt lat="41.75753930239162" lon="13.32306121304161"><ele>425.6666666666667</ele><time>2026-04-23T15:19:35Z</time></trkpt><trkpt lat="41.757467116252215" lon="13.32315696547132"><ele>425.33333333333337</ele><time>2026-04-23T15:19:36Z</time></trkpt><trkpt lat="41.75740663735099" lon="13.323247611149341"><ele>425.0</ele><time>2026-04-23T15:19:37Z</time></trkpt><trkpt lat="41.75734907221535" lon="13.323344014444901"><ele>424.6666666666667</ele><time>2026-04-23T15:19:38Z</time></trkpt><trkpt lat="41.75730065237838" lon="13.323427648866357"><ele>424.33333333333337</ele><time>2026-04-23T15:19:39Z</time></trkpt><trkpt lat="41.7572581017875" lon="13.32349622305097"><ele>424.0</ele><time>2026-04-23T15:19:40Z</time></trkpt><trkpt lat="41.75718629368062" lon="13.323602866705118"><ele>424.0</ele><time>2026-04-23T15:19:42Z</time></trkpt><trkpt lat="41.75710981323571" lon="13.323744908039508"><ele>424.0</ele><time>2026-04-23T15:19:44Z</time></trkpt><trkpt lat="41.75706334384524" lon="13.3238437016277"><ele>424.0</ele><time>2026-04-23T15:19:45Z</time></trkpt><trkpt lat="41.757003882417784" lon="13.323950587200732"><ele>424.0</ele><time>2026-04-23T15:19:46Z</time></trkpt><trkpt lat="41.75693593742556" lon="13.324077059001604"><ele>424.0</ele><time>2026-04-23T15:19:47Z</time></trkpt><trkpt lat="41.75686080218528" lon="13.324224853414844"><ele>423.75</ele><time>2026-04-23T15:19:48Z</time></trkpt><trkpt lat="41.75678607450504" lon="13.32436909763833"><ele>423.5</ele><time>2026-04-23T15:19:49Z</time></trkpt><trkpt lat="41.75670836460139" lon="13.32451980173663"><ele>423.25</ele><time>2026-04-23T15:19:50Z</time></trkpt><trkpt lat="41.75662651137546" lon="13.324670207941413"><ele>423.0</ele><time>2026-04-23T15:19:51Z</time></trkpt><trkpt lat="41.756539377036404" lon="13.324833166257143"><ele>423.0</ele><time>2026-04-23T15:19:52Z</time></trkpt><trkpt lat="41.756447550652865" lon="13.324999034134139"><ele>423.0</ele><time>2026-04-23T15:19:53Z</time></trkpt><trkpt lat="41.75635674199778" lon="13.325166794496933"><ele>423.0</ele><time>2026-04-23T15:19:54Z</time></trkpt><trkpt lat="41.75626806313094" lon="13.32533692263769"><ele>423.0</ele><time>2026-04-23T15:19:55Z</time></trkpt><trkpt lat="41.75617417782881" lon="13.325504271185622"><ele>423.0</ele><time>2026-04-23T15:19:56Z</time></trkpt><trkpt lat="41.75608557420605" lon="13.32566455166928"><ele>423.0</ele><time>2026-04-23T15:19:57Z</time></trkpt><trkpt lat="41.755998566642454" lon="13.325820494113893"><ele>424.0</ele><time>2026-04-23T15:19:58Z</time></trkpt><trkpt lat="41.755908478113724" lon="13.325989022749201"><ele>425.0</ele><time>2026-04-23T15:19:59Z</time></trkpt><trkpt lat="41.755810668816345" lon="13.326170906098643"><ele>426.0</ele><time>2026-04-23T15:20:00Z</time></trkpt><trkpt lat="41.75569695575346" lon="13.32637705189856"><ele>422.5</ele><time>2026-04-23T15:20:01Z</time></trkpt><trkpt lat="41.755572009990566" lon="13.326631218697772"><ele>419.0</ele><time>2026-04-23T15:20:02Z</time></trkpt><trkpt lat="41.755416944439645" lon="13.326925764995098"><ele>419.0</ele><time>2026-04-23T15:20:03Z</time></trkpt><trkpt lat="41.755242696453955" lon="13.327214288108713"><ele>419.0</ele><time>2026-04-23T15:20:04Z</time></trkpt><trkpt lat="41.75506589437216" lon="13.327527076211435"><ele>418.0</ele><time>2026-04-23T15:20:05Z</time></trkpt><trkpt lat="41.75491786748394" lon="13.327812584601698"><ele>417.0</ele><time>2026-04-23T15:20:06Z</time></trkpt><trkpt lat="41.7547769711628" lon="13.328074888958934"><ele>417.0</ele><time>2026-04-23T15:20:07Z</time></trkpt><trkpt lat="41.75464508108289" lon="13.328320790732425"><ele>417.0</ele><time>2026-04-23T15:20:08Z</time></trkpt><trkpt lat="41.75452079618741" lon="13.3285491736626"><ele>417.0</ele><time>2026-04-23T15:20:09Z</time></trkpt><trkpt lat="41.75439699553545" lon="13.32877832946308"><ele>419.66666666666663</ele><time>2026-04-23T15:20:10Z</time></trkpt><trkpt lat="41.75427579097897" lon="13.329000634514726"><ele>422.3333333333333</ele><time>2026-04-23T15:20:11Z</time></trkpt><trkpt lat="41.75415247895107" lon="13.32922127980139"><ele>425.0</ele><time>2026-04-23T15:20:12Z</time></trkpt><trkpt lat="41.75403036755097" lon="13.329414538075948"><ele>425.0</ele><time>2026-04-23T15:20:13Z</time></trkpt><trkpt lat="41.75391667155557" lon="13.329594577916556"><ele>425.0</ele><time>2026-04-23T15:20:14Z</time></trkpt><trkpt lat="41.75381330965891" lon="13.329748507646173"><ele>425.0</ele><time>2026-04-23T15:20:15Z</time></trkpt><trkpt lat="41.7537142829744" lon="13.329887841504847"><ele>424.0</ele><time>2026-04-23T15:20:16Z</time></trkpt><trkpt lat="41.753607313598714" lon="13.330014623134058"><ele>423.0</ele><time>2026-04-23T15:20:17Z</time></trkpt><trkpt lat="41.753487269040725" lon="13.330116721431244"><ele>422.0</ele><time>2026-04-23T15:20:18Z</time></trkpt><trkpt lat="41.75335452822336" lon="13.330178076466774"><ele>421.0</ele><time>2026-04-23T15:20:19Z</time></trkpt><trkpt lat="41.753203682554" lon="13.330187428643796"><ele>421.0</ele><time>2026-04-23T15:20:20Z</time></trkpt><trkpt lat="41.75304099506947" lon="13.330143469955186"><ele>421.0</ele><time>2026-04-23T15:20:21Z</time></trkpt><trkpt lat="41.752873723004484" lon="13.330107215725151"><ele>421.0</ele><time>2026-04-23T15:20:22Z</time></trkpt><trkpt lat="41.752701553596054" lon="13.330093705847057"><ele>418.6666666666667</ele><time>2026-04-23T15:20:23Z</time></trkpt><trkpt lat="41.75252487101177" lon="13.330083400851642"><ele>416.33333333333337</ele><time>2026-04-23T15:20:24Z</time></trkpt><trkpt lat="41.752347630815805" lon="13.330107059854944"><ele>414.0</ele><time>2026-04-23T15:20:25Z</time></trkpt><trkpt lat="41.75218324999694" lon="13.330168154001722"><ele>414.0</ele><time>2026-04-23T15:20:26Z</time></trkpt><trkpt lat="41.752026417915175" lon="13.33023714698569"><ele>414.0</ele><time>2026-04-23T15:20:27Z</time></trkpt><trkpt lat="41.7518711703978" lon="13.33032723351015"><ele>414.0</ele><time>2026-04-23T15:20:28Z</time></trkpt><trkpt lat="41.75172388664666" lon="13.33041831485099"><ele>415.25</ele><time>2026-04-23T15:20:29Z</time></trkpt><trkpt lat="41.751590127075524" lon="13.330506376015112"><ele>416.5</ele><time>2026-04-23T15:20:30Z</time></trkpt><trkpt lat="41.751467825010366" lon="13.330589949815467"><ele>417.75</ele><time>2026-04-23T15:20:31Z</time></trkpt><trkpt lat="41.75135078328167" lon="13.330662013922922"><ele>419.0</ele><time>2026-04-23T15:20:32Z</time></trkpt><trkpt lat="41.75124647176252" lon="13.330734320523657"><ele>418.75</ele><time>2026-04-23T15:20:33Z</time></trkpt><trkpt lat="41.75114927976419" lon="13.330804668134855"><ele>418.5</ele><time>2026-04-23T15:20:34Z</time></trkpt><trkpt lat="41.75103747704329" lon="13.330881346141842"><ele>418.25</ele><time>2026-04-23T15:20:35Z</time></trkpt><trkpt lat="41.75091388045315" lon="13.330966777256872"><ele>418.0</ele><time>2026-04-23T15:20:36Z</time></trkpt><trkpt lat="41.7507833504273" lon="13.33105390608167"><ele>418.0</ele><time>2026-04-23T15:20:37Z</time></trkpt><trkpt lat="41.75065813011967" lon="13.331128222948747"><ele>418.0</ele><time>2026-04-23T15:20:38Z</time></trkpt><trkpt lat="41.75052480106614" lon="13.331179284816743"><ele>418.0</ele><time>2026-04-23T15:20:39Z</time></trkpt><trkpt lat="41.75038231210307" lon="13.331204547591142"><ele>418.0</ele><time>2026-04-23T15:20:40Z</time></trkpt><trkpt lat="41.750249300708035" lon="13.331225682783272"><ele>418.5</ele><time>2026-04-23T15:20:41Z</time></trkpt><trkpt lat="41.750125097017445" lon="13.331250243916633"><ele>419.0</ele><time>2026-04-23T15:20:42Z</time></trkpt><trkpt lat="41.750007639714674" lon="13.331278536606176"><ele>419.5</ele><time>2026-04-23T15:20:43Z</time></trkpt><trkpt lat="41.74989317568522" lon="13.33132123254764"><ele>420.0</ele><time>2026-04-23T15:20:44Z</time></trkpt><trkpt lat="41.749786408008056" lon="13.331406005238113"><ele>416.2</ele><time>2026-04-23T15:20:45Z</time></trkpt><trkpt lat="41.74969204328303" lon="13.331519255194411"><ele>412.4</ele><time>2026-04-23T15:20:46Z</time></trkpt><trkpt lat="41.74961895145177" lon="13.331634629372926"><ele>408.6</ele><time>2026-04-23T15:20:47Z</time></trkpt><trkpt lat="41.74957581181345" lon="13.331736863107496"><ele>404.8</ele><time>2026-04-23T15:20:48Z</time></trkpt><trkpt lat="41.74954928900753" lon="13.331831680979493"><ele>401.0</ele><time>2026-04-23T15:20:49Z</time></trkpt><trkpt lat="41.749531493650125" lon="13.331913459748707"><ele>401.0</ele><time>2026-04-23T15:20:50Z</time></trkpt><trkpt lat="41.74950648818646" lon="13.332019840473208"><ele>401.0</ele><time>2026-04-23T15:20:52Z</time></trkpt><trkpt lat="41.74946972576306" lon="13.332152653083886"><ele>401.0</ele><time>2026-04-23T15:20:54Z</time></trkpt><trkpt lat="41.749441798518106" lon="13.332254731687145"><ele>401.0</ele><time>2026-04-23T15:20:55Z</time></trkpt><trkpt lat="41.74941013610894" lon="13.332371735467435"><ele>401.0</ele><time>2026-04-23T15:20:56Z</time></trkpt><trkpt lat="41.74937708097311" lon="13.332497113357118"><ele>399.99999999999994</ele><time>2026-04-23T15:20:57Z</time></trkpt><trkpt lat="41.749342970251234" lon="13.332628922366256"><ele>399.0</ele><time>2026-04-23T15:20:58Z</time></trkpt><trkpt lat="41.749311318479926" lon="13.33274717538243"><ele>398.0</ele><time>2026-04-23T15:20:59Z</time></trkpt><trkpt lat="41.74928303081105" lon="13.332854850431048"><ele>397.0</ele><time>2026-04-23T15:21:00Z</time></trkpt><trkpt lat="41.74925910655729" lon="13.332954836233881"><ele>395.99999999999994</ele><time>2026-04-23T15:21:01Z</time></trkpt><trkpt lat="41.74923891659078" lon="13.333044701189275"><ele>395.0</ele><time>2026-04-23T15:21:02Z</time></trkpt><trkpt lat="41.74922064901356" lon="13.333126921867187"><ele>394.49999999999994</ele><time>2026-04-23T15:21:03Z</time></trkpt><trkpt lat="41.749196985313084" lon="13.333244102743812"><ele>394.0</ele><time>2026-04-23T15:21:05Z</time></trkpt><trkpt lat="41.74917756126213" lon="13.333345413837087"><ele>393.5</ele><time>2026-04-23T15:21:08Z</time></trkpt><trkpt lat="41.749146883446976" lon="13.333464628353157"><ele>393.0</ele><time>2026-04-23T15:21:10Z</time></trkpt><trkpt lat="41.74911443367272" lon="13.333569849926684"><ele>392.49999999999994</ele><time>2026-04-23T15:21:12Z</time></trkpt><trkpt lat="41.749091002566814" lon="13.333656687831613"><ele>392.0</ele><time>2026-04-23T15:21:14Z</time></trkpt><trkpt lat="41.74904131578955" lon="13.333807774842334"><ele>391.75</ele><time>2026-04-23T15:21:16Z</time></trkpt><trkpt lat="41.74900424463467" lon="13.333927782103588"><ele>391.5</ele><time>2026-04-23T15:21:17Z</time></trkpt><trkpt lat="41.74894862025788" lon="13.334077311524684"><ele>391.25</ele><time>2026-04-23T15:21:18Z</time></trkpt><trkpt lat="41.74888698536199" lon="13.334218032171858"><ele>391.0</ele><time>2026-04-23T15:21:19Z</time></trkpt><trkpt lat="41.748833391218405" lon="13.334345842447345"><ele>391.0</ele><time>2026-04-23T15:21:20Z</time></trkpt><trkpt lat="41.74878357427209" lon="13.334459881158084"><ele>391.0</ele><time>2026-04-23T15:21:21Z</time></trkpt><trkpt lat="41.74872889837708" lon="13.334574810131071"><ele>391.0</ele><time>2026-04-23T15:21:22Z</time></trkpt><trkpt lat="41.74867059659596" lon="13.334700826694286"><ele>391.0</ele><time>2026-04-23T15:21:23Z</time></trkpt><trkpt lat="41.74860426294938" lon="13.334826669745091"><ele>391.0</ele><time>2026-04-23T15:21:24Z</time></trkpt><trkpt lat="41.74853240269806" lon="13.334955230114344"><ele>389.5</ele><time>2026-04-23T15:21:25Z</time></trkpt><trkpt lat="41.748450276217476" lon="13.335101401254555"><ele>388.0</ele><time>2026-04-23T15:21:26Z</time></trkpt><trkpt lat="41.74835681247782" lon="13.335248427194477"><ele>386.5</ele><time>2026-04-23T15:21:27Z</time></trkpt><trkpt lat="41.74826782505007" lon="13.33538971338055"><ele>385.0</ele><time>2026-04-23T15:21:28Z</time></trkpt><trkpt lat="41.74818510483397" lon="13.335513784474713"><ele>384.8</ele><time>2026-04-23T15:21:29Z</time></trkpt><trkpt lat="41.74810847353849" lon="13.335629734455473"><ele>384.6</ele><time>2026-04-23T15:21:30Z</time></trkpt><trkpt lat="41.748035364908205" lon="13.33574077520439"><ele>384.4</ele><time>2026-04-23T15:21:31Z</time></trkpt><trkpt lat="41.7479663061907" lon="13.335840578323763"><ele>384.2</ele><time>2026-04-23T15:21:32Z</time></trkpt><trkpt lat="41.74790084082102" lon="13.335936912410373"><ele>384.0</ele><time>2026-04-23T15:21:33Z</time></trkpt><trkpt lat="41.747835625946365" lon="13.336028508641526"><ele>384.0</ele><time>2026-04-23T15:21:34Z</time></trkpt><trkpt lat="41.74776934365432" lon="13.336128459740488"><ele>384.0</ele><time>2026-04-23T15:21:35Z</time></trkpt><trkpt lat="41.7476959588767" lon="13.336238412250895"><ele>384.0</ele><time>2026-04-23T15:21:36Z</time></trkpt><trkpt lat="41.74761570301405" lon="13.336345876477397"><ele>384.0</ele><time>2026-04-23T15:21:37Z</time></trkpt><trkpt lat="41.74753618462048" lon="13.336460474411863"><ele>384.0</ele><time>2026-04-23T15:21:38Z</time></trkpt><trkpt lat="41.74745476380897" lon="13.336575140583864"><ele>383.25</ele><time>2026-04-23T15:21:39Z</time></trkpt><trkpt lat="41.74737051183221" lon="13.33668939744907"><ele>382.5</ele><time>2026-04-23T15:21:40Z</time></trkpt><trkpt lat="41.74728817445346" lon="13.336811408323957"><ele>381.75</ele><time>2026-04-23T15:21:41Z</time></trkpt><trkpt lat="41.747201407742715" lon="13.336938564465088"><ele>381.0</ele><time>2026-04-23T15:21:42Z</time></trkpt><trkpt lat="41.74710736070288" lon="13.33706892964416"><ele>381.0</ele><time>2026-04-23T15:21:43Z</time></trkpt><trkpt lat="41.7470142011046" lon="13.337206350405298"><ele>381.0</ele><time>2026-04-23T15:21:44Z</time></trkpt><trkpt lat="41.74692939620529" lon="13.33732871406157"><ele>381.0</ele><time>2026-04-23T15:21:45Z</time></trkpt><trkpt lat="41.746840226187665" lon="13.337457515348586"><ele>381.0</ele><time>2026-04-23T15:21:46Z</time></trkpt><trkpt lat="41.74675012048371" lon="13.337588644290078"><ele>379.5</ele><time>2026-04-23T15:21:47Z</time></trkpt><trkpt lat="41.746668310481255" lon="13.337701851809383"><ele>378.0</ele><time>2026-04-23T15:21:48Z</time></trkpt><trkpt lat="41.74659298048988" lon="13.33780346304672"><ele>376.5</ele><time>2026-04-23T15:21:49Z</time></trkpt><trkpt lat="41.74651131893455" lon="13.337920614480037"><ele>375.0</ele><time>2026-04-23T15:21:50Z</time></trkpt><trkpt lat="41.74641511747895" lon="13.338036898962567"><ele>375.0</ele><time>2026-04-23T15:21:51Z</time></trkpt><trkpt lat="41.74630548950757" lon="13.338139280338476"><ele>375.0</ele><time>2026-04-23T15:21:52Z</time></trkpt><trkpt lat="41.74619470006847" lon="13.338221433516123"><ele>375.0</ele><time>2026-04-23T15:21:53Z</time></trkpt><trkpt lat="41.746079321239556" lon="13.338299767230765"><ele>375.0</ele><time>2026-04-23T15:21:54Z</time></trkpt><trkpt lat="41.74596253422452" lon="13.338366051381586"><ele>374.5</ele><time>2026-04-23T15:21:55Z</time></trkpt><trkpt lat="41.7458400371562" lon="13.338428904267523"><ele>374.0</ele><time>2026-04-23T15:21:56Z</time></trkpt><trkpt lat="41.745718737830344" lon="13.338481708232584"><ele>373.5</ele><time>2026-04-23T15:21:57Z</time></trkpt><trkpt lat="41.74559691119262" lon="13.33851900033207"><ele>373.0</ele><time>2026-04-23T15:21:58Z</time></trkpt><trkpt lat="41.74547047899071" lon="13.338545417689746"><ele>373.0</ele><time>2026-04-23T15:21:59Z</time></trkpt><trkpt lat="41.74533264687772" lon="13.338559545133258"><ele>373.0</ele><time>2026-04-23T15:22:00Z</time></trkpt><trkpt lat="41.74518297456284" lon="13.33854422727191"><ele>373.0</ele><time>2026-04-23T15:22:01Z</time></trkpt><trkpt lat="41.745025567178466" lon="13.338506969471393"><ele>373.0</ele><time>2026-04-23T15:22:02Z</time></trkpt><trkpt lat="41.74486428736004" lon="13.338463911547674"><ele>375.0</ele><time>2026-04-23T15:22:03Z</time></trkpt><trkpt lat="41.744704610786336" lon="13.338421473806253"><ele>377.0</ele><time>2026-04-23T15:22:04Z</time></trkpt><trkpt lat="41.74453113635613" lon="13.338372499847745"><ele>379.0</ele><time>2026-04-23T15:22:05Z</time></trkpt><trkpt lat="41.74435740958017" lon="13.338325276840964"><ele>380.3333333333333</ele><time>2026-04-23T15:22:06Z</time></trkpt><trkpt lat="41.744202171421485" lon="13.338283947896738"><ele>381.6666666666667</ele><time>2026-04-23T15:22:07Z</time></trkpt><trkpt lat="41.74404377032508" lon="13.338236670347728"><ele>383.0</ele><time>2026-04-23T15:22:08Z</time></trkpt><trkpt lat="41.743887398467415" lon="13.338193404749271"><ele>383.0</ele><time>2026-04-23T15:22:09Z</time></trkpt><trkpt lat="41.743733140815486" lon="13.338153830876617"><ele>383.0</ele><time>2026-04-23T15:22:10Z</time></trkpt><trkpt lat="41.74358168379218" lon="13.338114816947623"><ele>383.0</ele><time>2026-04-23T15:22:11Z</time></trkpt><trkpt lat="41.743432174834986" lon="13.338077860960986"><ele>384.33333333333337</ele><time>2026-04-23T15:22:12Z</time></trkpt><trkpt lat="41.74328258374573" lon="13.338050275345026"><ele>385.6666666666667</ele><time>2026-04-23T15:22:13Z</time></trkpt><trkpt lat="41.74313110919779" lon="13.338040112644384"><ele>387.0</ele><time>2026-04-23T15:22:14Z</time></trkpt><trkpt lat="41.742977199868825" lon="13.338054136598425"><ele>387.0</ele><time>2026-04-23T15:22:15Z</time></trkpt><trkpt lat="41.74282618244743" lon="13.338099601179369"><ele>387.0</ele><time>2026-04-23T15:22:16Z</time></trkpt><trkpt lat="41.74268451656264" lon="13.338185257803836"><ele>387.0</ele><time>2026-04-23T15:22:17Z</time></trkpt><trkpt lat="41.742559997362044" lon="13.338319418788132"><ele>387.0</ele><time>2026-04-23T15:22:18Z</time></trkpt><trkpt lat="41.74244804354084" lon="13.338465309052527"><ele>387.0</ele><time>2026-04-23T15:22:19Z</time></trkpt><trkpt lat="41.74236148150938" lon="13.338643973046551"><ele>387.0</ele><time>2026-04-23T15:22:20Z</time></trkpt><trkpt lat="41.74228908291223" lon="13.338835070290031"><ele>388.33333333333337</ele><time>2026-04-23T15:22:21Z</time></trkpt><trkpt lat="41.742213196346825" lon="13.339015162942049"><ele>389.6666666666667</ele><time>2026-04-23T15:22:22Z</time></trkpt><trkpt lat="41.74213878467748" lon="13.339201997350104"><ele>391.0</ele><time>2026-04-23T15:22:23Z</time></trkpt><trkpt lat="41.74206745749339" lon="13.339363904206092"><ele>391.0</ele><time>2026-04-23T15:22:24Z</time></trkpt><trkpt lat="41.74200510478915" lon="13.339515931468354"><ele>391.0</ele><time>2026-04-23T15:22:25Z</time></trkpt><trkpt lat="41.741944140490816" lon="13.339668442149033"><ele>391.0</ele><time>2026-04-23T15:22:26Z</time></trkpt><trkpt lat="41.74188452940433" lon="13.339823479020746"><ele>391.0</ele><time>2026-04-23T15:22:27Z</time></trkpt><trkpt lat="41.74182756433468" lon="13.339979126611656"><ele>391.0</ele><time>2026-04-23T15:22:28Z</time></trkpt><trkpt lat="41.74177511672843" lon="13.340137782243998"><ele>391.0</ele><time>2026-04-23T15:22:29Z</time></trkpt><trkpt lat="41.74173392970142" lon="13.340298022047293"><ele>391.0</ele><time>2026-04-23T15:22:30Z</time></trkpt><trkpt lat="41.74170414789234" lon="13.340480674323908"><ele>391.0</ele><time>2026-04-23T15:22:31Z</time></trkpt><trkpt lat="41.74168804744388" lon="13.340672007048228"><ele>391.0</ele><time>2026-04-23T15:22:32Z</time></trkpt><trkpt lat="41.74167988272296" lon="13.340865307385261"><ele>391.0</ele><time>2026-04-23T15:22:33Z</time></trkpt><trkpt lat="41.74168084269357" lon="13.341059079941093"><ele>391.0</ele><time>2026-04-23T15:22:34Z</time></trkpt><trkpt lat="41.74168894284772" lon="13.341259612587749"><ele>391.0</ele><time>2026-04-23T15:22:35Z</time></trkpt><trkpt lat="41.74170160503135" lon="13.341465375224356"><ele>390.6666666666667</ele><time>2026-04-23T15:22:36Z</time></trkpt><trkpt lat="41.74171434841516" lon="13.341677959908793"><ele>390.33333333333337</ele><time>2026-04-23T15:22:37Z</time></trkpt><trkpt lat="41.74172785104238" lon="13.341897829983793"><ele>390.0</ele><time>2026-04-23T15:22:38Z</time></trkpt><trkpt lat="41.741735522705774" lon="13.34213204382421"><ele>391.33333333333337</ele><time>2026-04-23T15:22:39Z</time></trkpt><trkpt lat="41.74172399209963" lon="13.342364829595947"><ele>392.6666666666667</ele><time>2026-04-23T15:22:40Z</time></trkpt><trkpt lat="41.74168462622838" lon="13.342557516120293"><ele>394.0</ele><time>2026-04-23T15:22:41Z</time></trkpt><trkpt lat="41.74161765353073" lon="13.342732137507909"><ele>394.0</ele><time>2026-04-23T15:22:42Z</time></trkpt><trkpt lat="41.741533537075085" lon="13.342868814671988"><ele>394.0</ele><time>2026-04-23T15:22:43Z</time></trkpt><trkpt lat="41.74143680233925" lon="13.34298949108182"><ele>394.0</ele><time>2026-04-23T15:22:44Z</time></trkpt><trkpt lat="41.741335455569214" lon="13.34307101121662"><ele>394.0</ele><time>2026-04-23T15:22:45Z</time></trkpt><trkpt lat="41.741228753509404" lon="13.343146660539842"><ele>394.75</ele><time>2026-04-23T15:22:46Z</time></trkpt><trkpt lat="41.741112270609" lon="13.343214997608092"><ele>395.5</ele><time>2026-04-23T15:22:47Z</time></trkpt><trkpt lat="41.741000799821045" lon="13.343269387309615"><ele>396.25</ele><time>2026-04-23T15:22:48Z</time></trkpt><trkpt lat="41.7408824581437" lon="13.343315307480458"><ele>397.0</ele><time>2026-04-23T15:22:49Z</time></trkpt><trkpt lat="41.74075391247423" lon="13.343363929074082"><ele>397.0</ele><time>2026-04-23T15:22:50Z</time></trkpt><trkpt lat="41.740593618938114" lon="13.343427065676924"><ele>397.0</ele><time>2026-04-23T15:22:51Z</time></trkpt><trkpt lat="41.74042987537005" lon="13.343480434752763"><ele>397.0</ele><time>2026-04-23T15:22:52Z</time></trkpt><trkpt lat="41.74028095916316" lon="13.343534518409571"><ele>397.0</ele><time>2026-04-23T15:22:53Z</time></trkpt><trkpt lat="41.74014226390298" lon="13.343588100464961"><ele>397.0</ele><time>2026-04-23T15:22:54Z</time></trkpt><trkpt lat="41.74001193242705" lon="13.343634174322851"><ele>397.0</ele><time>2026-04-23T15:22:55Z</time></trkpt><trkpt lat="41.73985387680702" lon="13.343697825831974"><ele>397.0</ele><time>2026-04-23T15:22:56Z</time></trkpt><trkpt lat="41.73965818813239" lon="13.343771602177135"><ele>397.0</ele><time>2026-04-23T15:22:57Z</time></trkpt><trkpt lat="41.73944556550343" lon="13.343838210610379"><ele>397.0</ele><time>2026-04-23T15:22:58Z</time></trkpt><trkpt lat="41.73923291559187" lon="13.343926968269086"><ele>397.0</ele><time>2026-04-23T15:22:59Z</time></trkpt><trkpt lat="41.73897223895494" lon="13.344006038134602"><ele>401.0</ele><time>2026-04-23T15:23:00Z</time></trkpt><trkpt lat="41.73868957394869" lon="13.344107142128074"><ele>405.0</ele><time>2026-04-23T15:23:01Z</time></trkpt><trkpt lat="41.738398597895234" lon="13.344211564692781"><ele>406.5</ele><time>2026-04-23T15:23:02Z</time></trkpt><trkpt lat="41.73812498045495" lon="13.344306980585898"><ele>408.0</ele><time>2026-04-23T15:23:03Z</time></trkpt><trkpt lat="41.73787817841605" lon="13.344387291588781"><ele>409.5</ele><time>2026-04-23T15:23:04Z</time></trkpt><trkpt lat="41.737648523309986" lon="13.344456759810972"><ele>411.0</ele><time>2026-04-23T15:23:05Z</time></trkpt><trkpt lat="41.737409984821646" lon="13.344499690401014"><ele>411.0</ele><time>2026-04-23T15:23:06Z</time></trkpt><trkpt lat="41.73717127584526" lon="13.344523505801616"><ele>411.0</ele><time>2026-04-23T15:23:07Z</time></trkpt><trkpt lat="41.73693362983785" lon="13.344509966231032"><ele>413.0</ele><time>2026-04-23T15:23:08Z</time></trkpt><trkpt lat="41.73670232157822" lon="13.34447153710292"><ele>415.0</ele><time>2026-04-23T15:23:09Z</time></trkpt><trkpt lat="41.73646850819874" lon="13.344400663480796"><ele>415.0</ele><time>2026-04-23T15:23:10Z</time></trkpt><trkpt lat="41.73623159480951" lon="13.344306280736006"><ele>415.0</ele><time>2026-04-23T15:23:11Z</time></trkpt><trkpt lat="41.73599389625456" lon="13.344184027961184"><ele>417.0</ele><time>2026-04-23T15:23:12Z</time></trkpt><trkpt lat="41.73576403373565" lon="13.344045286660794"><ele>419.0</ele><time>2026-04-23T15:23:13Z</time></trkpt><trkpt lat="41.73554381012894" lon="13.343901116396685"><ele>415.5</ele><time>2026-04-23T15:23:14Z</time></trkpt><trkpt lat="41.73532046687851" lon="13.343775178075097"><ele>412.0</ele><time>2026-04-23T15:23:15Z</time></trkpt><trkpt lat="41.73508247109105" lon="13.343678200371903"><ele>412.0</ele><time>2026-04-23T15:23:16Z</time></trkpt><trkpt lat="41.73483787128116" lon="13.343609676867233"><ele>412.0</ele><time>2026-04-23T15:23:17Z</time></trkpt><trkpt lat="41.734587092340114" lon="13.343574992544948"><ele>413.0</ele><time>2026-04-23T15:23:18Z</time></trkpt><trkpt lat="41.734326844006226" lon="13.343577027433264"><ele>414.0</ele><time>2026-04-23T15:23:19Z</time></trkpt><trkpt lat="41.734060056598324" lon="13.343605312036127"><ele>414.0</ele><time>2026-04-23T15:23:20Z</time></trkpt><trkpt lat="41.73377856579878" lon="13.343653450220677"><ele>414.0</ele><time>2026-04-23T15:23:21Z</time></trkpt><trkpt lat="41.73350007366576" lon="13.343698820745702"><ele>415.0</ele><time>2026-04-23T15:23:22Z</time></trkpt><trkpt lat="41.7332513409811" lon="13.343743959961923"><ele>416.0</ele><time>2026-04-23T15:23:23Z</time></trkpt><trkpt lat="41.7330075386026" lon="13.343816882322852"><ele>426.0</ele><time>2026-04-23T15:23:24Z</time></trkpt><trkpt lat="41.73277002571631" lon="13.343911652826057"><ele>436.0</ele><time>2026-04-23T15:23:25Z</time></trkpt><trkpt lat="41.73253756098093" lon="13.34401247455813"><ele>436.0</ele><time>2026-04-23T15:23:26Z</time></trkpt><trkpt lat="41.73232816528924" lon="13.344099916851441"><ele>436.0</ele><time>2026-04-23T15:23:27Z</time></trkpt><trkpt lat="41.732136974898744" lon="13.34417679607114"><ele>436.0</ele><time>2026-04-23T15:23:28Z</time></trkpt><trkpt lat="41.73196122677644" lon="13.34424439736938"><ele>433.5</ele><time>2026-04-23T15:23:29Z</time></trkpt><trkpt lat="41.73180533646465" lon="13.344312812980785"><ele>431.0</ele><time>2026-04-23T15:23:30Z</time></trkpt><trkpt lat="41.731663668969006" lon="13.344369767575806"><ele>428.5</ele><time>2026-04-23T15:23:31Z</time></trkpt><trkpt lat="41.7315339723739" lon="13.344424359833399"><ele>426.0</ele><time>2026-04-23T15:23:32Z</time></trkpt><trkpt lat="41.73141806867185" lon="13.344474225142589"><ele>426.0</ele><time>2026-04-23T15:23:33Z</time></trkpt><trkpt lat="41.73131707140963" lon="13.344521764630109"><ele>426.0</ele><time>2026-04-23T15:23:34Z</time></trkpt><trkpt lat="41.73123284181447" lon="13.344561220993954"><ele>426.0</ele><time>2026-04-23T15:23:35Z</time></trkpt><trkpt lat="41.73116349909894" lon="13.344595283640317"><ele>426.0</ele><time>2026-04-23T15:23:36Z</time></trkpt><trkpt lat="41.73107210134656" lon="13.344641543730832"><ele>426.0</ele><time>2026-04-23T15:23:38Z</time></trkpt><trkpt lat="41.73097943063963" lon="13.34468276894884"><ele>428.4</ele><time>2026-04-23T15:23:41Z</time></trkpt><trkpt lat="41.730902116932896" lon="13.344719231427357"><ele>430.8</ele><time>2026-04-23T15:23:42Z</time></trkpt><trkpt lat="41.73080604016303" lon="13.344769916168708"><ele>433.19999999999993</ele><time>2026-04-23T15:23:43Z</time></trkpt><trkpt lat="41.73070772670724" lon="13.34482847792046"><ele>435.59999999999997</ele><time>2026-04-23T15:23:44Z</time></trkpt><trkpt lat="41.73060185575009" lon="13.344891054637797"><ele>438.0</ele><time>2026-04-23T15:23:45Z</time></trkpt><trkpt lat="41.730478388365" lon="13.344958891891148"><ele>438.0</ele><time>2026-04-23T15:23:46Z</time></trkpt><trkpt lat="41.730341555512524" lon="13.345030678422726"><ele>438.0</ele><time>2026-04-23T15:23:47Z</time></trkpt><trkpt lat="41.73021163054225" lon="13.345111932173339"><ele>438.0</ele><time>2026-04-23T15:23:48Z</time></trkpt><trkpt lat="41.73011516498938" lon="13.34521069427402"><ele>438.0</ele><time>2026-04-23T15:23:49Z</time></trkpt><trkpt lat="41.73000124300816" lon="13.34524428070796"><ele>438.4</ele><time>2026-04-23T15:23:50Z</time></trkpt><trkpt lat="41.729908488342794" lon="13.345306968040605"><ele>438.79999999999995</ele><time>2026-04-23T15:23:51Z</time></trkpt><trkpt lat="41.729820804959296" lon="13.345363959875442"><ele>439.2</ele><time>2026-04-23T15:23:52Z</time></trkpt><trkpt lat="41.729740265390824" lon="13.345414230052137"><ele>439.6</ele><time>2026-04-23T15:23:53Z</time></trkpt><trkpt lat="41.72965914841468" lon="13.345453048739778"><ele>440.0</ele><time>2026-04-23T15:23:54Z</time></trkpt><trkpt lat="41.72956998625097" lon="13.345503590643682"><ele>437.25</ele><time>2026-04-23T15:23:55Z</time></trkpt><trkpt lat="41.72946769757002" lon="13.345571087132722"><ele>434.5</ele><time>2026-04-23T15:23:56Z</time></trkpt><trkpt lat="41.72934768506977" lon="13.345637811534543"><ele>431.75</ele><time>2026-04-23T15:23:57Z</time></trkpt><trkpt lat="41.72919955377573" lon="13.345717127979137"><ele>429.0</ele><time>2026-04-23T15:23:58Z</time></trkpt><trkpt lat="41.72903479166747" lon="13.345822546250773"><ele>428.66666666666663</ele><time>2026-04-23T15:23:59Z</time></trkpt><trkpt lat="41.72885298940137" lon="13.345920401720491"><ele>428.3333333333333</ele><time>2026-04-23T15:24:00Z</time></trkpt><trkpt lat="41.7286911227736" lon="13.34600972140532"><ele>428.0</ele><time>2026-04-23T15:24:01Z</time></trkpt><trkpt lat="41.728559263362136" lon="13.34609091488765"><ele>430.75</ele><time>2026-04-23T15:24:02Z</time></trkpt><trkpt lat="41.72844784112092" lon="13.34615505459091"><ele>433.5</ele><time>2026-04-23T15:24:03Z</time></trkpt><trkpt lat="41.72833574108334" lon="13.346217148602264"><ele>436.25</ele><time>2026-04-23T15:24:04Z</time></trkpt><trkpt lat="41.72823144293866" lon="13.346278543432929"><ele>439.0</ele><time>2026-04-23T15:24:05Z</time></trkpt><trkpt lat="41.72813585265806" lon="13.346333858202613"><ele>436.79999999999995</ele><time>2026-04-23T15:24:06Z</time></trkpt><trkpt lat="41.7280482980934" lon="13.346385278313862"><ele>434.59999999999997</ele><time>2026-04-23T15:24:07Z</time></trkpt><trkpt lat="41.727958870016764" lon="13.346433020018715"><ele>432.4</ele><time>2026-04-23T15:24:08Z</time></trkpt><trkpt lat="41.72786857368671" lon="13.34648888008409"><ele>430.2</ele><time>2026-04-23T15:24:09Z</time></trkpt><trkpt lat="41.72777156147015" lon="13.346552300848249"><ele>428.0</ele><time>2026-04-23T15:24:10Z</time></trkpt><trkpt lat="41.72766169715811" lon="13.34661840908555"><ele>428.0</ele><time>2026-04-23T15:24:11Z</time></trkpt><trkpt lat="41.72753479734766" lon="13.346693036553532"><ele>428.0</ele><time>2026-04-23T15:24:12Z</time></trkpt><trkpt lat="41.727426009406905" lon="13.346743590835716"><ele>428.0</ele><time>2026-04-23T15:24:13Z</time></trkpt><trkpt lat="41.72732111634835" lon="13.34678481706047"><ele>428.0</ele><time>2026-04-23T15:24:14Z</time></trkpt><trkpt lat="41.72720542959645" lon="13.346824022383169"><ele>428.0</ele><time>2026-04-23T15:24:15Z</time></trkpt><trkpt lat="41.72709637931087" lon="13.346860125670624"><ele>427.99999999999994</ele><time>2026-04-23T15:24:16Z</time></trkpt><trkpt lat="41.72699256194906" lon="13.346892979533832"><ele>427.99999999999994</ele><time>2026-04-23T15:24:17Z</time></trkpt><trkpt lat="41.726886069476166" lon="13.346922125126097"><ele>428.0</ele><time>2026-04-23T15:24:18Z</time></trkpt><trkpt lat="41.726769245249315" lon="13.346952671707665"><ele>428.0</ele><time>2026-04-23T15:24:19Z</time></trkpt><trkpt lat="41.72664601012975" lon="13.346987358118723"><ele>429.5</ele><time>2026-04-23T15:24:20Z</time></trkpt><trkpt lat="41.72651513397879" lon="13.34702344406178"><ele>431.0</ele><time>2026-04-23T15:24:21Z</time></trkpt><trkpt lat="41.726387428132874" lon="13.347059800699714"><ele>432.5</ele><time>2026-04-23T15:24:22Z</time></trkpt><trkpt lat="41.72627658851229" lon="13.347091145916709"><ele>434.0</ele><time>2026-04-23T15:24:23Z</time></trkpt><trkpt lat="41.72616631596112" lon="13.34712092926801"><ele>433.5</ele><time>2026-04-23T15:24:24Z</time></trkpt><trkpt lat="41.726042115624786" lon="13.347155816042607"><ele>433.0</ele><time>2026-04-23T15:24:25Z</time></trkpt><trkpt lat="41.72591621036629" lon="13.347191238238288"><ele>432.5</ele><time>2026-04-23T15:24:26Z</time></trkpt><trkpt lat="41.72580752586498" lon="13.347221977189315"><ele>432.0</ele><time>2026-04-23T15:24:27Z</time></trkpt><trkpt lat="41.72570379256664" lon="13.347252216891485"><ele>427.0</ele><time>2026-04-23T15:24:28Z</time></trkpt><trkpt lat="41.72559301017312" lon="13.347285392752868"><ele>422.00000000000006</ele><time>2026-04-23T15:24:29Z</time></trkpt><trkpt lat="41.7254699143776" lon="13.347321167051192"><ele>417.0</ele><time>2026-04-23T15:24:30Z</time></trkpt><trkpt lat="41.72536558116763" lon="13.347350602968236"><ele>412.0</ele><time>2026-04-23T15:24:31Z</time></trkpt><trkpt lat="41.725264893255186" lon="13.347379607746374"><ele>407.0</ele><time>2026-04-23T15:24:32Z</time></trkpt><trkpt lat="41.725170899816476" lon="13.34740649388637"><ele>406.66666666666663</ele><time>2026-04-23T15:24:33Z</time></trkpt><trkpt lat="41.72508072123703" lon="13.347433501971448"><ele>406.3333333333333</ele><time>2026-04-23T15:24:34Z</time></trkpt><trkpt lat="41.7249884036172" lon="13.347464282124879"><ele>406.0</ele><time>2026-04-23T15:24:35Z</time></trkpt><trkpt lat="41.72489826383354" lon="13.347492209118208"><ele>405.66666666666663</ele><time>2026-04-23T15:24:36Z</time></trkpt><trkpt lat="41.72481646682028" lon="13.34751393317287"><ele>405.3333333333333</ele><time>2026-04-23T15:24:37Z</time></trkpt><trkpt lat="41.72474042117849" lon="13.347527871020663"><ele>405.0</ele><time>2026-04-23T15:24:38Z</time></trkpt><trkpt lat="41.72466640603169" lon="13.347545417315326"><ele>405.0</ele><time>2026-04-23T15:24:39Z</time></trkpt><trkpt lat="41.72460074182739" lon="13.34756021120174"><ele>405.0</ele><time>2026-04-23T15:24:40Z</time></trkpt><trkpt lat="41.72451880724118" lon="13.347576801635853"><ele>405.0</ele><time>2026-04-23T15:24:41Z</time></trkpt><trkpt lat="41.72441359103497" lon="13.347596505867566"><ele>405.0</ele><time>2026-04-23T15:24:42Z</time></trkpt><trkpt lat="41.72428194701197" lon="13.347622366213344"><ele>405.0</ele><time>2026-04-23T15:24:43Z</time></trkpt><trkpt lat="41.72411752263577" lon="13.347638390465864"><ele>404.33333333333337</ele><time>2026-04-23T15:24:44Z</time></trkpt><trkpt lat="41.72394556091147" lon="13.347663439293811"><ele>403.6666666666667</ele><time>2026-04-23T15:24:45Z</time></trkpt><trkpt lat="41.72377001336168" lon="13.347691454636674"><ele>403.0</ele><time>2026-04-23T15:24:46Z</time></trkpt><trkpt lat="41.72356013499649" lon="13.347733730867459"><ele>402.33333333333337</ele><time>2026-04-23T15:24:47Z</time></trkpt><trkpt lat="41.723385240452636" lon="13.347770473042798"><ele>401.66666666666663</ele><time>2026-04-23T15:24:48Z</time></trkpt><trkpt lat="41.723227248605795" lon="13.347807597582426"><ele>401.0</ele><time>2026-04-23T15:24:49Z</time></trkpt><trkpt lat="41.72308795268491" lon="13.347840293731553"><ele>401.0</ele><time>2026-04-23T15:24:50Z</time></trkpt><trkpt lat="41.7229574120909" lon="13.347862797331507"><ele>401.0</ele><time>2026-04-23T15:24:51Z</time></trkpt><trkpt lat="41.722835211409034" lon="13.347888893654591"><ele>401.0</ele><time>2026-04-23T15:24:52Z</time></trkpt><trkpt lat="41.722725058906484" lon="13.347912200605087"><ele>401.0</ele><time>2026-04-23T15:24:53Z</time></trkpt><trkpt lat="41.72261956962082" lon="13.347935331018027"><ele>399.4</ele><time>2026-04-23T15:24:54Z</time></trkpt><trkpt lat="41.722519810086034" lon="13.347953955024218"><ele>397.8</ele><time>2026-04-23T15:24:55Z</time></trkpt><trkpt lat="41.72241933583896" lon="13.347951653823586"><ele>396.2</ele><time>2026-04-23T15:24:56Z</time></trkpt><trkpt lat="41.72232328844838" lon="13.347924280701218"><ele>394.59999999999997</ele><time>2026-04-23T15:24:57Z</time></trkpt><trkpt lat="41.72223522523488" lon="13.347866100697953"><ele>393.0</ele><time>2026-04-23T15:24:58Z</time></trkpt><trkpt lat="41.72216150088277" lon="13.34777165618578"><ele>393.0</ele><time>2026-04-23T15:24:59Z</time></trkpt><trkpt lat="41.72209860241653" lon="13.347649608024051"><ele>393.0</ele><time>2026-04-23T15:25:00Z</time></trkpt><trkpt lat="41.72205293583915" lon="13.347496280052301"><ele>393.0</ele><time>2026-04-23T15:25:01Z</time></trkpt><trkpt lat="41.72202514750628" lon="13.347311699920617"><ele>393.0</ele><time>2026-04-23T15:25:02Z</time></trkpt><trkpt lat="41.721995585756574" lon="13.347116668515977"><ele>389.3333333333333</ele><time>2026-04-23T15:25:03Z</time></trkpt><trkpt lat="41.72195896043393" lon="13.346858504647077"><ele>385.66666666666663</ele><time>2026-04-23T15:25:04Z</time></trkpt><trkpt lat="41.72190725024266" lon="13.3465619613036"><ele>382.0</ele><time>2026-04-23T15:25:05Z</time></trkpt><trkpt lat="41.72188036949023" lon="13.346228241546507"><ele>382.0</ele><time>2026-04-23T15:25:06Z</time></trkpt><trkpt lat="41.72184569437175" lon="13.345940315808118"><ele>382.0</ele><time>2026-04-23T15:25:07Z</time></trkpt><trkpt lat="41.72180785041158" lon="13.345716161177005"><ele>382.0</ele><time>2026-04-23T15:25:08Z</time></trkpt><trkpt lat="41.72178403226902" lon="13.345537206914743"><ele>382.20000000000005</ele><time>2026-04-23T15:25:09Z</time></trkpt><trkpt lat="41.72172991750743" lon="13.34539926698228"><ele>382.4</ele><time>2026-04-23T15:25:10Z</time></trkpt><trkpt lat="41.72164958077357" lon="13.345305250874707"><ele>382.6</ele><time>2026-04-23T15:25:11Z</time></trkpt><trkpt lat="41.721541794223086" lon="13.345275531326568"><ele>382.79999999999995</ele><time>2026-04-23T15:25:12Z</time></trkpt><trkpt lat="41.72142925368855" lon="13.345306412438466"><ele>383.0</ele><time>2026-04-23T15:25:13Z</time></trkpt><trkpt lat="41.72132895201418" lon="13.345404912714644"><ele>382.6666666666667</ele><time>2026-04-23T15:25:14Z</time></trkpt><trkpt lat="41.721269552058516" lon="13.345567635863755"><ele>382.3333333333333</ele><time>2026-04-23T15:25:15Z</time></trkpt><trkpt lat="41.72125367777227" lon="13.345789458247637"><ele>382.0</ele><time>2026-04-23T15:25:16Z</time></trkpt><trkpt lat="41.721232218761045" lon="13.346094414540728"><ele>381.5</ele><time>2026-04-23T15:25:17Z</time></trkpt><trkpt lat="41.721220291679344" lon="13.346422344098372"><ele>381.0</ele><time>2026-04-23T15:25:18Z</time></trkpt><trkpt lat="41.72120789930706" lon="13.346763066608528"><ele>381.0</ele><time>2026-04-23T15:25:19Z</time></trkpt><trkpt lat="41.72119639980823" lon="13.34707923992799"><ele>381.0</ele><time>2026-04-23T15:25:20Z</time></trkpt><trkpt lat="41.72118572668395" lon="13.347372692423717"><ele>380.3333333333333</ele><time>2026-04-23T15:25:21Z</time></trkpt><trkpt lat="41.72117594901647" lon="13.347641524817409"><ele>379.66666666666663</ele><time>2026-04-23T15:25:22Z</time></trkpt><trkpt lat="41.721167579073814" lon="13.347902471039035"><ele>379.0</ele><time>2026-04-23T15:25:23Z</time></trkpt><trkpt lat="41.721165076261904" lon="13.348148073717859"><ele>377.66666666666663</ele><time>2026-04-23T15:25:24Z</time></trkpt><trkpt lat="41.72118468504698" lon="13.348369885379185"><ele>376.3333333333333</ele><time>2026-04-23T15:25:25Z</time></trkpt><trkpt lat="41.721212900879834" lon="13.348575689124774"><ele>375.0</ele><time>2026-04-23T15:25:26Z</time></trkpt><trkpt lat="41.72127683128544" lon="13.348779657589676"><ele>372.0</ele><time>2026-04-23T15:25:27Z</time></trkpt><trkpt lat="41.72138359889109" lon="13.348980989569828"><ele>369.0</ele><time>2026-04-23T15:25:28Z</time></trkpt><trkpt lat="41.72150465596145" lon="13.349184694845164"><ele>366.0</ele><time>2026-04-23T15:25:29Z</time></trkpt><trkpt lat="41.721620735954815" lon="13.349396786163954"><ele>366.0</ele><time>2026-04-23T15:25:30Z</time></trkpt><trkpt lat="41.721734053207044" lon="13.349616696037698"><ele>366.0</ele><time>2026-04-23T15:25:31Z</time></trkpt><trkpt lat="41.72184118461265" lon="13.349826790135408"><ele>366.0</ele><time>2026-04-23T15:25:32Z</time></trkpt><trkpt lat="41.72193875845387" lon="13.350018628983241"><ele>365.0</ele><time>2026-04-23T15:25:33Z</time></trkpt><trkpt lat="41.722028858124915" lon="13.350200738685611"><ele>364.0</ele><time>2026-04-23T15:25:34Z</time></trkpt><trkpt lat="41.72211584259514" lon="13.350372118322605"><ele>363.0</ele><time>2026-04-23T15:25:35Z</time></trkpt><trkpt lat="41.72219536875722" lon="13.3505290753802"><ele>361.2</ele><time>2026-04-23T15:25:36Z</time></trkpt><trkpt lat="41.722267219687446" lon="13.350667729549352"><ele>359.4</ele><time>2026-04-23T15:25:37Z</time></trkpt><trkpt lat="41.72232908983364" lon="13.350792071234698"><ele>357.59999999999997</ele><time>2026-04-23T15:25:38Z</time></trkpt><trkpt lat="41.722373253745346" lon="13.350909072737638"><ele>355.79999999999995</ele><time>2026-04-23T15:25:39Z</time></trkpt><trkpt lat="41.72238953006569" lon="13.351028609311728"><ele>354.0</ele><time>2026-04-23T15:25:40Z</time></trkpt><trkpt lat="41.72237150670624" lon="13.351139275993944"><ele>354.0</ele><time>2026-04-23T15:25:41Z</time></trkpt><trkpt lat="41.72231255073797" lon="13.351232059126081"><ele>354.0</ele><time>2026-04-23T15:25:42Z</time></trkpt><trkpt lat="41.722220526660216" lon="13.351272472881094"><ele>354.0</ele><time>2026-04-23T15:25:43Z</time></trkpt><trkpt lat="41.72211684619338" lon="13.3512422233932"><ele>354.0</ele><time>2026-04-23T15:25:44Z</time></trkpt><trkpt lat="41.72201961440235" lon="13.351160788427919"><ele>354.0</ele><time>2026-04-23T15:25:45Z</time></trkpt><trkpt lat="41.72193724770999" lon="13.351065528820714"><ele>352.79999999999995</ele><time>2026-04-23T15:25:46Z</time></trkpt><trkpt lat="41.72184779059837" lon="13.350983330362443"><ele>351.59999999999997</ele><time>2026-04-23T15:25:47Z</time></trkpt><trkpt lat="41.721757454098444" lon="13.350909381993542"><ele>350.4</ele><time>2026-04-23T15:25:48Z</time></trkpt><trkpt lat="41.72167610954884" lon="13.350845389197287"><ele>349.2</ele><time>2026-04-23T15:25:49Z</time></trkpt><trkpt lat="41.72159793781437" lon="13.350779333362755"><ele>348.0</ele><time>2026-04-23T15:25:50Z</time></trkpt><trkpt lat="41.72151945289911" lon="13.350707136547484"><ele>348.0</ele><time>2026-04-23T15:25:51Z</time></trkpt><trkpt lat="41.72143456040451" lon="13.350628924338762"><ele>348.0</ele><time>2026-04-23T15:25:52Z</time></trkpt><trkpt lat="41.72134431394553" lon="13.350541717461537"><ele>348.0</ele><time>2026-04-23T15:25:53Z</time></trkpt><trkpt lat="41.72124693600955" lon="13.350447961822825"><ele>348.0</ele><time>2026-04-23T15:25:54Z</time></trkpt><trkpt lat="41.72114285065944" lon="13.350353024613034"><ele>347.0</ele><time>2026-04-23T15:25:55Z</time></trkpt><trkpt lat="41.72102123781574" lon="13.350242439721491"><ele>346.0</ele><time>2026-04-23T15:25:56Z</time></trkpt><trkpt lat="41.72087353338244" lon="13.350106347954902"><ele>345.0</ele><time>2026-04-23T15:25:57Z</time></trkpt><trkpt lat="41.7207527181055" lon="13.349959103602398"><ele>345.0</ele><time>2026-04-23T15:25:58Z</time></trkpt><trkpt lat="41.72065991196942" lon="13.349810256435422"><ele>345.0</ele><time>2026-04-23T15:25:59Z</time></trkpt><trkpt lat="41.72058544255168" lon="13.34965805058957"><ele>345.0</ele><time>2026-04-23T15:26:00Z</time></trkpt><trkpt lat="41.72053357264771" lon="13.349494502098816"><ele>345.0</ele><time>2026-04-23T15:26:01Z</time></trkpt><trkpt lat="41.72048423925409" lon="13.349318221213627"><ele>346.5</ele><time>2026-04-23T15:26:02Z</time></trkpt><trkpt lat="41.72043573870054" lon="13.349136820326535"><ele>348.0</ele><time>2026-04-23T15:26:03Z</time></trkpt><trkpt lat="41.72038398096878" lon="13.348945542575168"><ele>349.5</ele><time>2026-04-23T15:26:04Z</time></trkpt><trkpt lat="41.72033083045306" lon="13.348753683518735"><ele>351.0</ele><time>2026-04-23T15:26:05Z</time></trkpt><trkpt lat="41.72027290227911" lon="13.348589806127254"><ele>346.75</ele><time>2026-04-23T15:26:06Z</time></trkpt><trkpt lat="41.720202501708904" lon="13.348452775167774"><ele>342.5</ele><time>2026-04-23T15:26:07Z</time></trkpt><trkpt lat="41.72011234889743" lon="13.348343094844967"><ele>338.25</ele><time>2026-04-23T15:26:08Z</time></trkpt><trkpt lat="41.71999634477255" lon="13.34824805541034"><ele>334.0</ele><time>2026-04-23T15:26:09Z</time></trkpt><trkpt lat="41.719876777589384" lon="13.348167354292526"><ele>334.0</ele><time>2026-04-23T15:26:10Z</time></trkpt><trkpt lat="41.71975202288317" lon="13.34810250291856"><ele>334.0</ele><time>2026-04-23T15:26:11Z</time></trkpt><trkpt lat="41.71964297663802" lon="13.348046887807362"><ele>334.0</ele><time>2026-04-23T15:26:12Z</time></trkpt><trkpt lat="41.71953834703844" lon="13.347990519390128"><ele>334.0</ele><time>2026-04-23T15:26:13Z</time></trkpt><trkpt lat="41.719435311203384" lon="13.347938192944836"><ele>334.6</ele><time>2026-04-23T15:26:14Z</time></trkpt><trkpt lat="41.71933146382394" lon="13.347889453066294"><ele>335.2</ele><time>2026-04-23T15:26:15Z</time></trkpt><trkpt lat="41.7192364094732" lon="13.347853435005836"><ele>335.8</ele><time>2026-04-23T15:26:16Z</time></trkpt><trkpt lat="41.719141480291874" lon="13.34784691505507"><ele>336.40000000000003</ele><time>2026-04-23T15:26:17Z</time></trkpt><trkpt lat="41.71905690682012" lon="13.34788404085553"><ele>337.0</ele><time>2026-04-23T15:26:18Z</time></trkpt><trkpt lat="41.71898242923758" lon="13.347937506623467"><ele>335.20000000000005</ele><time>2026-04-23T15:26:19Z</time></trkpt><trkpt lat="41.71894066421121" lon="13.348073836283907"><ele>333.4</ele><time>2026-04-23T15:26:20Z</time></trkpt><trkpt lat="41.718876174981304" lon="13.348179367149783"><ele>331.6</ele><time>2026-04-23T15:26:21Z</time></trkpt><trkpt lat="41.71882728614771" lon="13.34829514450794"><ele>329.79999999999995</ele><time>2026-04-23T15:26:22Z</time></trkpt><trkpt lat="41.718776750814506" lon="13.348414128837543"><ele>328.0</ele><time>2026-04-23T15:26:23Z</time></trkpt><trkpt lat="41.71871770221995" lon="13.348551359069969"><ele>328.0</ele><time>2026-04-23T15:26:24Z</time></trkpt><trkpt lat="41.718648188932" lon="13.348712908772425"><ele>328.0</ele><time>2026-04-23T15:26:25Z</time></trkpt><trkpt lat="41.71856386566608" lon="13.348908876267851"><ele>328.0</ele><time>2026-04-23T15:26:26Z</time></trkpt><trkpt lat="41.71849038204715" lon="13.349125553676565"><ele>328.5</ele><time>2026-04-23T15:26:27Z</time></trkpt><trkpt lat="41.71841432575936" lon="13.349297584423967"><ele>329.0</ele><time>2026-04-23T15:26:28Z</time></trkpt><trkpt lat="41.71834336202053" lon="13.349457349854221"><ele>329.5</ele><time>2026-04-23T15:26:29Z</time></trkpt><trkpt lat="41.718277862840374" lon="13.349606576381822"><ele>330.0</ele><time>2026-04-23T15:26:30Z</time></trkpt><trkpt lat="41.718198013691456" lon="13.349783463067183"><ele>328.0</ele><time>2026-04-23T15:26:31Z</time></trkpt><trkpt lat="41.71810324494934" lon="13.349995742150439"><ele>326.0</ele><time>2026-04-23T15:26:32Z</time></trkpt><trkpt lat="41.718024163512865" lon="13.35017339506017"><ele>324.0</ele><time>2026-04-23T15:26:33Z</time></trkpt><trkpt lat="41.717957679413004" lon="13.350334177178837"><ele>324.0</ele><time>2026-04-23T15:26:34Z</time></trkpt><trkpt lat="41.71789483182384" lon="13.350478370422719"><ele>324.0</ele><time>2026-04-23T15:26:35Z</time></trkpt><trkpt lat="41.71783048025338" lon="13.350618188521734"><ele>324.0</ele><time>2026-04-23T15:26:36Z</time></trkpt><trkpt lat="41.71776668203754" lon="13.350756126023462"><ele>324.0</ele><time>2026-04-23T15:26:37Z</time></trkpt><trkpt lat="41.717697462784336" lon="13.350897544788358"><ele>324.25</ele><time>2026-04-23T15:26:38Z</time></trkpt><trkpt lat="41.71760637957466" lon="13.351052500192957"><ele>324.5</ele><time>2026-04-23T15:26:39Z</time></trkpt><trkpt lat="41.717503731625186" lon="13.351206023114624"><ele>324.75</ele><time>2026-04-23T15:26:40Z</time></trkpt><trkpt lat="41.71740416700586" lon="13.351339168712022"><ele>325.0</ele><time>2026-04-23T15:26:41Z</time></trkpt><trkpt lat="41.7173007429949" lon="13.351461743641522"><ele>325.0</ele><time>2026-04-23T15:26:42Z</time></trkpt><trkpt lat="41.71719868935358" lon="13.351577612570921"><ele>325.0</ele><time>2026-04-23T15:26:43Z</time></trkpt><trkpt lat="41.717101906571195" lon="13.351677991255606"><ele>325.0</ele><time>2026-04-23T15:26:44Z</time></trkpt><trkpt lat="41.71699189018138" lon="13.351772770022842"><ele>325.0</ele><time>2026-04-23T15:26:45Z</time></trkpt><trkpt lat="41.71686947476289" lon="13.351859650028798"><ele>325.3333333333333</ele><time>2026-04-23T15:26:46Z</time></trkpt><trkpt lat="41.71673090741631" lon="13.351928074616735"><ele>325.6666666666667</ele><time>2026-04-23T15:26:47Z</time></trkpt><trkpt lat="41.7165770882322" lon="13.351979090813893"><ele>326.0</ele><time>2026-04-23T15:26:48Z</time></trkpt><trkpt lat="41.716416071627" lon="13.352025329182196"><ele>326.0</ele><time>2026-04-23T15:26:49Z</time></trkpt><trkpt lat="41.71624832803704" lon="13.352058167806202"><ele>326.0</ele><time>2026-04-23T15:26:50Z</time></trkpt><trkpt lat="41.7160905394008" lon="13.352079236784876"><ele>326.0</ele><time>2026-04-23T15:26:51Z</time></trkpt><trkpt lat="41.71594959835576" lon="13.352100789076658"><ele>324.75</ele><time>2026-04-23T15:26:52Z</time></trkpt><trkpt lat="41.71580364999493" lon="13.352117044152303"><ele>323.5</ele><time>2026-04-23T15:26:53Z</time></trkpt><trkpt lat="41.71565656896976" lon="13.352125004808206"><ele>322.25</ele><time>2026-04-23T15:26:54Z</time></trkpt><trkpt lat="41.71550903295024" lon="13.352138732039233"><ele>321.0</ele><time>2026-04-23T15:26:55Z</time></trkpt><trkpt lat="41.71536287409216" lon="13.352154832979577"><ele>321.25</ele><time>2026-04-23T15:26:56Z</time></trkpt><trkpt lat="41.71521779043349" lon="13.352168957950733"><ele>321.5</ele><time>2026-04-23T15:26:57Z</time></trkpt><trkpt lat="41.71507479597871" lon="13.352181465143344"><ele>321.75</ele><time>2026-04-23T15:26:58Z</time></trkpt><trkpt lat="41.714931350355954" lon="13.352190406285645"><ele>322.0</ele><time>2026-04-23T15:26:59Z</time></trkpt><trkpt lat="41.71478755029224" lon="13.35221400611437"><ele>321.0</ele><time>2026-04-23T15:27:00Z</time></trkpt><trkpt lat="41.71463934938872" lon="13.352247813766729"><ele>320.0</ele><time>2026-04-23T15:27:01Z</time></trkpt><trkpt lat="41.71448835240231" lon="13.352297549812395"><ele>319.0</ele><time>2026-04-23T15:27:02Z</time></trkpt><trkpt lat="41.71434166056678" lon="13.352357950525473"><ele>319.0</ele><time>2026-04-23T15:27:03Z</time></trkpt><trkpt lat="41.71419159258005" lon="13.352425514521874"><ele>319.0</ele><time>2026-04-23T15:27:04Z</time></trkpt><trkpt lat="41.71404256212172" lon="13.35250242903298"><ele>319.0</ele><time>2026-04-23T15:27:05Z</time></trkpt><trkpt lat="41.71389543794516" lon="13.352586002276468"><ele>319.0</ele><time>2026-04-23T15:27:06Z</time></trkpt><trkpt lat="41.71375243313485" lon="13.352681122797517"><ele>319.0</ele><time>2026-04-23T15:27:07Z</time></trkpt><trkpt lat="41.71361252427001" lon="13.35278648110422"><ele>319.0</ele><time>2026-04-23T15:27:08Z</time></trkpt><trkpt lat="41.71347878059283" lon="13.352901801247953"><ele>317.66666666666663</ele><time>2026-04-23T15:27:09Z</time></trkpt><trkpt lat="41.7133485352416" lon="13.353023999130961"><ele>316.3333333333333</ele><time>2026-04-23T15:27:10Z</time></trkpt><trkpt lat="41.713224331482195" lon="13.353155334968225"><ele>315.0</ele><time>2026-04-23T15:27:11Z</time></trkpt><trkpt lat="41.71310704514161" lon="13.353296505418214"><ele>315.0</ele><time>2026-04-23T15:27:12Z</time></trkpt><trkpt lat="41.712993794547906" lon="13.353441288443566"><ele>315.0</ele><time>2026-04-23T15:27:13Z</time></trkpt><trkpt lat="41.71288654545187" lon="13.353591717431465"><ele>315.0</ele><time>2026-04-23T15:27:14Z</time></trkpt><trkpt lat="41.71278927645313" lon="13.35373606270022"><ele>314.0</ele><time>2026-04-23T15:27:15Z</time></trkpt><trkpt lat="41.71269747037472" lon="13.353866270856734"><ele>313.0</ele><time>2026-04-23T15:27:16Z</time></trkpt><trkpt lat="41.712608890909685" lon="13.35398683736925"><ele>312.0</ele><time>2026-04-23T15:27:17Z</time></trkpt><trkpt lat="41.712521101805244" lon="13.354108779404148"><ele>311.0</ele><time>2026-04-23T15:27:18Z</time></trkpt><trkpt lat="41.712434020832134" lon="13.354230118094884"><ele>311.0</ele><time>2026-04-23T15:27:19Z</time></trkpt><trkpt lat="41.71234773922267" lon="13.354353767390105"><ele>311.0</ele><time>2026-04-23T15:27:20Z</time></trkpt><trkpt lat="41.71225909445136" lon="13.354479858252278"><ele>311.0</ele><time>2026-04-23T15:27:21Z</time></trkpt><trkpt lat="41.712167992154775" lon="13.354609798689014"><ele>311.0</ele><time>2026-04-23T15:27:22Z</time></trkpt><trkpt lat="41.712074243291624" lon="13.3547452690385"><ele>311.5</ele><time>2026-04-23T15:27:23Z</time></trkpt><trkpt lat="41.71198033311102" lon="13.354883543759385"><ele>312.0</ele><time>2026-04-23T15:27:24Z</time></trkpt><trkpt lat="41.711884908774806" lon="13.355022755467234"><ele>312.5</ele><time>2026-04-23T15:27:25Z</time></trkpt><trkpt lat="41.71178751087778" lon="13.35516177920448"><ele>313.0</ele><time>2026-04-23T15:27:26Z</time></trkpt><trkpt lat="41.71169077656174" lon="13.355302963564956"><ele>311.25</ele><time>2026-04-23T15:27:27Z</time></trkpt><trkpt lat="41.71159930571422" lon="13.35543015538769"><ele>309.5</ele><time>2026-04-23T15:27:28Z</time></trkpt><trkpt lat="41.71151411824014" lon="13.355549158276522"><ele>307.75</ele><time>2026-04-23T15:27:29Z</time></trkpt><trkpt lat="41.71143589540177" lon="13.355660352188947"><ele>306.0</ele><time>2026-04-23T15:27:30Z</time></trkpt><trkpt lat="41.711364959844424" lon="13.355767342802787"><ele>306.0</ele><time>2026-04-23T15:27:31Z</time></trkpt><trkpt lat="41.71129650779737" lon="13.355862515895561"><ele>306.0</ele><time>2026-04-23T15:27:32Z</time></trkpt><trkpt lat="41.71122389740699" lon="13.355964855633232"><ele>306.0</ele><time>2026-04-23T15:27:33Z</time></trkpt><trkpt lat="41.71115034318136" lon="13.356078766122325"><ele>306.0</ele><time>2026-04-23T15:27:34Z</time></trkpt><trkpt lat="41.71107483494843" lon="13.356196243013674"><ele>306.0</ele><time>2026-04-23T15:27:35Z</time></trkpt><trkpt lat="41.71099026503503" lon="13.35631578917463"><ele>305.25</ele><time>2026-04-23T15:27:36Z</time></trkpt><trkpt lat="41.710896707019224" lon="13.356437936580994"><ele>304.5</ele><time>2026-04-23T15:27:37Z</time></trkpt><trkpt lat="41.71080244643117" lon="13.356575494741309"><ele>303.75</ele><time>2026-04-23T15:27:38Z</time></trkpt><trkpt lat="41.710701960058124" lon="13.356717013210957"><ele>303.0</ele><time>2026-04-23T15:27:39Z</time></trkpt><trkpt lat="41.71059791637351" lon="13.356867460452808"><ele>303.0</ele><time>2026-04-23T15:27:40Z</time></trkpt><trkpt lat="41.71048381360972" lon="13.35702281550492"><ele>303.0</ele><time>2026-04-23T15:27:41Z</time></trkpt><trkpt lat="41.710370518631784" lon="13.357183436112201"><ele>303.0</ele><time>2026-04-23T15:27:42Z</time></trkpt><trkpt lat="41.71026965152813" lon="13.357327930576686"><ele>301.75</ele><time>2026-04-23T15:27:43Z</time></trkpt><trkpt lat="41.71017487586907" lon="13.357461041347968"><ele>300.5</ele><time>2026-04-23T15:27:44Z</time></trkpt><trkpt lat="41.710086404787084" lon="13.357586859235306"><ele>299.25</ele><time>2026-04-23T15:27:45Z</time></trkpt><trkpt lat="41.7099985181902" lon="13.35770942931326"><ele>298.0</ele><time>2026-04-23T15:27:46Z</time></trkpt><trkpt lat="41.70990614259637" lon="13.357841891863545"><ele>298.0</ele><time>2026-04-23T15:27:47Z</time></trkpt><trkpt lat="41.709811799453156" lon="13.357977585715851"><ele>298.0</ele><time>2026-04-23T15:27:48Z</time></trkpt><trkpt lat="41.70971477428039" lon="13.358116213208357"><ele>298.0</ele><time>2026-04-23T15:27:49Z</time></trkpt><trkpt lat="41.709612488967466" lon="13.358253164871519"><ele>298.0</ele><time>2026-04-23T15:27:50Z</time></trkpt><trkpt lat="41.70950285392914" lon="13.358388892954418"><ele>297.25</ele><time>2026-04-23T15:27:51Z</time></trkpt><trkpt lat="41.70938600541917" lon="13.358515024700694"><ele>296.5</ele><time>2026-04-23T15:27:52Z</time></trkpt><trkpt lat="41.709258514449964" lon="13.358626546488434"><ele>295.75</ele><time>2026-04-23T15:27:53Z</time></trkpt><trkpt lat="41.70912740294554" lon="13.358713233204428"><ele>295.0</ele><time>2026-04-23T15:27:54Z</time></trkpt><trkpt lat="41.70898904252711" lon="13.358769714007247"><ele>295.0</ele><time>2026-04-23T15:27:55Z</time></trkpt><trkpt lat="41.70883759426708" lon="13.358785928777259"><ele>295.0</ele><time>2026-04-23T15:27:56Z</time></trkpt><trkpt lat="41.708685542877745" lon="13.358794636373014"><ele>295.0</ele><time>2026-04-23T15:27:57Z</time></trkpt><trkpt lat="41.70852550994311" lon="13.358790798777951"><ele>293.66666666666663</ele><time>2026-04-23T15:27:58Z</time></trkpt><trkpt lat="41.708365905824266" lon="13.358773547562139"><ele>292.3333333333333</ele><time>2026-04-23T15:27:59Z</time></trkpt><trkpt lat="41.70820270939959" lon="13.358760897714271"><ele>291.0</ele><time>2026-04-23T15:28:00Z</time></trkpt><trkpt lat="41.70803243706159" lon="13.358747977437961"><ele>291.0</ele><time>2026-04-23T15:28:01Z</time></trkpt><trkpt lat="41.70785574108307" lon="13.358733518964442"><ele>291.0</ele><time>2026-04-23T15:28:02Z</time></trkpt><trkpt lat="41.70766456343815" lon="13.358716788086001"><ele>291.0</ele><time>2026-04-23T15:28:03Z</time></trkpt><trkpt lat="41.707486625122094" lon="13.358702560206675"><ele>289.6666666666667</ele><time>2026-04-23T15:28:04Z</time></trkpt><trkpt lat="41.70731676305348" lon="13.35868857137652"><ele>288.33333333333337</ele><time>2026-04-23T15:28:05Z</time></trkpt><trkpt lat="41.707148627364056" lon="13.358672325908705"><ele>287.0</ele><time>2026-04-23T15:28:06Z</time></trkpt><trkpt lat="41.706985271973686" lon="13.358658760583028"><ele>285.6666666666667</ele><time>2026-04-23T15:28:07Z</time></trkpt><trkpt lat="41.70682312801543" lon="13.358650530503414"><ele>284.3333333333333</ele><time>2026-04-23T15:28:08Z</time></trkpt><trkpt lat="41.706658465708074" lon="13.358642265744717"><ele>283.0</ele><time>2026-04-23T15:28:09Z</time></trkpt><trkpt lat="41.70649397083719" lon="13.358626508554881"><ele>283.0</ele><time>2026-04-23T15:28:10Z</time></trkpt><trkpt lat="41.70632128576754" lon="13.358604644126158"><ele>283.0</ele><time>2026-04-23T15:28:11Z</time></trkpt><trkpt lat="41.70614385800248" lon="13.358572406803995"><ele>283.0</ele><time>2026-04-23T15:28:12Z</time></trkpt><trkpt lat="41.70596382577475" lon="13.35851739909811"><ele>283.3333333333333</ele><time>2026-04-23T15:28:13Z</time></trkpt><trkpt lat="41.70578321141848" lon="13.358450387003442"><ele>283.6666666666667</ele><time>2026-04-23T15:28:14Z</time></trkpt><trkpt lat="41.705618022983494" lon="13.35838180431085"><ele>284.0</ele><time>2026-04-23T15:28:15Z</time></trkpt><trkpt lat="41.705467946038624" lon="13.35832139342212"><ele>284.0</ele><time>2026-04-23T15:28:16Z</time></trkpt><trkpt lat="41.705325960306645" lon="13.358264205008425"><ele>284.0</ele><time>2026-04-23T15:28:17Z</time></trkpt><trkpt lat="41.7051930354475" lon="13.358212430764352"><ele>284.0</ele><time>2026-04-23T15:28:18Z</time></trkpt><trkpt lat="41.70505553316892" lon="13.35816024329455"><ele>284.0</ele><time>2026-04-23T15:28:19Z</time></trkpt><trkpt lat="41.704911503478634" lon="13.35810870297548"><ele>284.0</ele><time>2026-04-23T15:28:20Z</time></trkpt><trkpt lat="41.70476406245922" lon="13.35805919379269"><ele>284.0</ele><time>2026-04-23T15:28:21Z</time></trkpt><trkpt lat="41.70461328854173" lon="13.358016257269894"><ele>284.0</ele><time>2026-04-23T15:28:22Z</time></trkpt><trkpt lat="41.704469666195216" lon="13.35797452043029"><ele>283.33333333333337</ele><time>2026-04-23T15:28:23Z</time></trkpt><trkpt lat="41.70432310278702" lon="13.357932286076089"><ele>282.6666666666667</ele><time>2026-04-23T15:28:24Z</time></trkpt><trkpt lat="41.70417543705866" lon="13.357893509620942"><ele>282.0</ele><time>2026-04-23T15:28:25Z</time></trkpt><trkpt lat="41.704026048973255" lon="13.357859103714384"><ele>282.0</ele><time>2026-04-23T15:28:26Z</time></trkpt><trkpt lat="41.703875682632365" lon="13.35782478436643"><ele>282.0</ele><time>2026-04-23T15:28:27Z</time></trkpt><trkpt lat="41.70372421862045" lon="13.357790596406424"><ele>282.0</ele><time>2026-04-23T15:28:28Z</time></trkpt><trkpt lat="41.703573696782755" lon="13.35775948834554"><ele>281.75</ele><time>2026-04-23T15:28:29Z</time></trkpt><trkpt lat="41.70342684698613" lon="13.357732035816012"><ele>281.5</ele><time>2026-04-23T15:28:30Z</time></trkpt><trkpt lat="41.70329488038266" lon="13.35770712905867"><ele>281.25</ele><time>2026-04-23T15:28:31Z</time></trkpt><trkpt lat="41.70317010232942" lon="13.357682331727803"><ele>281.0</ele><time>2026-04-23T15:28:32Z</time></trkpt><trkpt lat="41.70304099351957" lon="13.35765591047869"><ele>281.0</ele><time>2026-04-23T15:28:33Z</time></trkpt><trkpt lat="41.70290525134459" lon="13.357636483311625"><ele>281.0</ele><time>2026-04-23T15:28:34Z</time></trkpt><trkpt lat="41.70276090936164" lon="13.357601581823106"><ele>281.0</ele><time>2026-04-23T15:28:35Z</time></trkpt><trkpt lat="41.70261243115846" lon="13.357565530824793"><ele>281.0</ele><time>2026-04-23T15:28:36Z</time></trkpt><trkpt lat="41.702464551032286" lon="13.357528312600166"><ele>280.0</ele><time>2026-04-23T15:28:37Z</time></trkpt><trkpt lat="41.70231451992103" lon="13.35749337918684"><ele>279.0</ele><time>2026-04-23T15:28:38Z</time></trkpt><trkpt lat="41.70216367337109" lon="13.357452142782522"><ele>278.0</ele><time>2026-04-23T15:28:39Z</time></trkpt><trkpt lat="41.70201361955433" lon="13.35741229988489"><ele>277.75</ele><time>2026-04-23T15:28:40Z</time></trkpt><trkpt lat="41.7018693206263" lon="13.357369404869916"><ele>277.5</ele><time>2026-04-23T15:28:41Z</time></trkpt><trkpt lat="41.70172235522358" lon="13.357337012834513"><ele>277.25</ele><time>2026-04-23T15:28:42Z</time></trkpt><trkpt lat="41.70157522286104" lon="13.357298661884203"><ele>277.0</ele><time>2026-04-23T15:28:43Z</time></trkpt><trkpt lat="41.70143112490581" lon="13.357253222182761"><ele>277.0</ele><time>2026-04-23T15:28:44Z</time></trkpt><trkpt lat="41.701283502970576" lon="13.357211564470278"><ele>277.0</ele><time>2026-04-23T15:28:45Z</time></trkpt><trkpt lat="41.70113668678323" lon="13.35717192008149"><ele>277.0</ele><time>2026-04-23T15:28:46Z</time></trkpt><trkpt lat="41.70098944648232" lon="13.357133060672272"><ele>276.75</ele><time>2026-04-23T15:28:47Z</time></trkpt><trkpt lat="41.70084810478163" lon="13.357090788843589"><ele>276.5</ele><time>2026-04-23T15:28:48Z</time></trkpt><trkpt lat="41.70071881412242" lon="13.357052201854277"><ele>276.25</ele><time>2026-04-23T15:28:49Z</time></trkpt><trkpt lat="41.70058863061408" lon="13.35700938840802"><ele>276.0</ele><time>2026-04-23T15:28:50Z</time></trkpt><trkpt lat="41.70045284730954" lon="13.356959991264482"><ele>276.0</ele><time>2026-04-23T15:28:51Z</time></trkpt><trkpt lat="41.7003139324149" lon="13.356903972161748"><ele>276.0</ele><time>2026-04-23T15:28:52Z</time></trkpt><trkpt lat="41.70016904564075" lon="13.356850737195822"><ele>276.0</ele><time>2026-04-23T15:28:53Z</time></trkpt><trkpt lat="41.700016355703056" lon="13.356793860964638"><ele>275.3333333333333</ele><time>2026-04-23T15:28:54Z</time></trkpt><trkpt lat="41.69985847815879" lon="13.356727770589934"><ele>274.66666666666663</ele><time>2026-04-23T15:28:55Z</time></trkpt><trkpt lat="41.69969303857907" lon="13.356665735059323"><ele>274.0</ele><time>2026-04-23T15:28:56Z</time></trkpt><trkpt lat="41.69952034901931" lon="13.356609215179574"><ele>274.0</ele><time>2026-04-23T15:28:57Z</time></trkpt><trkpt lat="41.69935178528749" lon="13.356558381281767"><ele>274.0</ele><time>2026-04-23T15:28:58Z</time></trkpt><trkpt lat="41.699199266802374" lon="13.356503999629059"><ele>274.0</ele><time>2026-04-23T15:28:59Z</time></trkpt><trkpt lat="41.6990506783531" lon="13.356440529860244"><ele>274.0</ele><time>2026-04-23T15:29:00Z</time></trkpt><trkpt lat="41.69890671049631" lon="13.356371156209624"><ele>274.0</ele><time>2026-04-23T15:29:01Z</time></trkpt><trkpt lat="41.69877836662108" lon="13.356294857596565"><ele>274.0</ele><time>2026-04-23T15:29:02Z</time></trkpt><trkpt lat="41.698656532764176" lon="13.356212748854597"><ele>274.0</ele><time>2026-04-23T15:29:03Z</time></trkpt><trkpt lat="41.69854079774702" lon="13.356121381898292"><ele>273.25</ele><time>2026-04-23T15:29:04Z</time></trkpt><trkpt lat="41.69843440950931" lon="13.356031049974233"><ele>272.5</ele><time>2026-04-23T15:29:05Z</time></trkpt><trkpt lat="41.698326897384305" lon="13.355938740279743"><ele>271.75</ele><time>2026-04-23T15:29:06Z</time></trkpt><trkpt lat="41.69821714402878" lon="13.355848190361291"><ele>271.0</ele><time>2026-04-23T15:29:07Z</time></trkpt><trkpt lat="41.69810395441811" lon="13.355751710192697"><ele>271.0</ele><time>2026-04-23T15:29:08Z</time></trkpt><trkpt lat="41.69799588947906" lon="13.355640503979055"><ele>271.0</ele><time>2026-04-23T15:29:09Z</time></trkpt><trkpt lat="41.6978921846366" lon="13.355516208287488"><ele>271.0</ele><time>2026-04-23T15:29:10Z</time></trkpt><trkpt lat="41.69779402090746" lon="13.35537741138989"><ele>271.0</ele><time>2026-04-23T15:29:11Z</time></trkpt><trkpt lat="41.69769746223289" lon="13.355234513128522"><ele>271.0</ele><time>2026-04-23T15:29:12Z</time></trkpt><trkpt lat="41.69760584780751" lon="13.355084165509103"><ele>271.0</ele><time>2026-04-23T15:29:13Z</time></trkpt><trkpt lat="41.69751585210756" lon="13.354929153099002"><ele>271.0</ele><time>2026-04-23T15:29:14Z</time></trkpt><trkpt lat="41.697430661576576" lon="13.354768964955062"><ele>271.0</ele><time>2026-04-23T15:29:15Z</time></trkpt><trkpt lat="41.6973521036411" lon="13.354598213514652"><ele>271.0</ele><time>2026-04-23T15:29:16Z</time></trkpt><trkpt lat="41.69727480031186" lon="13.354433724295827"><ele>271.0</ele><time>2026-04-23T15:29:17Z</time></trkpt><trkpt lat="41.6971845921425" lon="13.354279106598437"><ele>271.0</ele><time>2026-04-23T15:29:18Z</time></trkpt><trkpt lat="41.697074696743165" lon="13.35415155656446"><ele>271.0</ele><time>2026-04-23T15:29:19Z</time></trkpt><trkpt lat="41.69696315756201" lon="13.354042090812747"><ele>270.25</ele><time>2026-04-23T15:29:20Z</time></trkpt><trkpt lat="41.6968577274388" lon="13.35394641828583"><ele>269.5</ele><time>2026-04-23T15:29:21Z</time></trkpt><trkpt lat="41.69675528927669" lon="13.353864189876875"><ele>268.75</ele><time>2026-04-23T15:29:22Z</time></trkpt><trkpt lat="41.69666028831499" lon="13.353784584484117"><ele>268.0</ele><time>2026-04-23T15:29:23Z</time></trkpt><trkpt lat="41.69657179575337" lon="13.353709532190372"><ele>268.0</ele><time>2026-04-23T15:29:24Z</time></trkpt><trkpt lat="41.69649515188983" lon="13.353646253651528"><ele>268.0</ele><time>2026-04-23T15:29:25Z</time></trkpt><trkpt lat="41.69643723462616" lon="13.353600805093393"><ele>268.0</ele><time>2026-04-23T15:29:26Z</time></trkpt><trkpt lat="41.69636079733634" lon="13.353543825932155"><ele>268.0</ele><time>2026-04-23T15:29:28Z</time></trkpt><trkpt lat="41.696296280352186" lon="13.353490547457774"><ele>268.0</ele><time>2026-04-23T15:29:39Z</time></trkpt><trkpt lat="41.69624144806111" lon="13.353444333014401"><ele>268.0</ele><time>2026-04-23T15:29:41Z</time></trkpt><trkpt lat="41.6961701673625" lon="13.353377363705361"><ele>268.0</ele><time>2026-04-23T15:29:43Z</time></trkpt><trkpt lat="41.696087129960645" lon="13.353306113200277"><ele>268.0</ele><time>2026-04-23T15:29:45Z</time></trkpt><trkpt lat="41.69600402739608" lon="13.353243132253954"><ele>268.0</ele><time>2026-04-23T15:29:47Z</time></trkpt><trkpt lat="41.69589273784134" lon="13.353154049926435"><ele>268.0</ele><time>2026-04-23T15:29:49Z</time></trkpt><trkpt lat="41.69582093035586" lon="13.353099252657302"><ele>268.0</ele><time>2026-04-23T15:29:50Z</time></trkpt><trkpt lat="41.69574266753241" lon="13.353045322033141"><ele>267.5</ele><time>2026-04-23T15:29:51Z</time></trkpt><trkpt lat="41.69567160105246" lon="13.352994917876062"><ele>267.0</ele><time>2026-04-23T15:29:52Z</time></trkpt><trkpt lat="41.69558741578442" lon="13.352940230464991"><ele>266.5</ele><time>2026-04-23T15:29:53Z</time></trkpt><trkpt lat="41.69550655052647" lon="13.352893951868666"><ele>266.0</ele><time>2026-04-23T15:29:54Z</time></trkpt><trkpt lat="41.69543132248366" lon="13.352853833641701"><ele>265.5</ele><time>2026-04-23T15:29:55Z</time></trkpt><trkpt lat="41.69535709763305" lon="13.35281778107002"><ele>265.0</ele><time>2026-04-23T15:29:56Z</time></trkpt><trkpt lat="41.69529567099238" lon="13.352786627054128"><ele>264.8333333333333</ele><time>2026-04-23T15:29:57Z</time></trkpt><trkpt lat="41.69522388452565" lon="13.352751001250668"><ele>264.66666666666663</ele><time>2026-04-23T15:29:58Z</time></trkpt><trkpt lat="41.69516025969964" lon="13.352723969137166"><ele>264.5</ele><time>2026-04-23T15:29:59Z</time></trkpt><trkpt lat="41.69503413973067" lon="13.352670775256074"><ele>264.3333333333333</ele><time>2026-04-23T15:30:01Z</time></trkpt><trkpt lat="41.69497180858247" lon="13.352644832714184"><ele>264.1666666666667</ele><time>2026-04-23T15:30:02Z</time></trkpt><trkpt lat="41.69490666577965" lon="13.352619292795"><ele>264.0</ele><time>2026-04-23T15:30:03Z</time></trkpt><trkpt lat="41.6948397309648" lon="13.352595568374575"><ele>264.0</ele><time>2026-04-23T15:30:04Z</time></trkpt><trkpt lat="41.69477043646208" lon="13.352571048882842"><ele>264.0</ele><time>2026-04-23T15:30:05Z</time></trkpt><trkpt lat="41.69470386306227" lon="13.3525502028754"><ele>264.0</ele><time>2026-04-23T15:30:06Z</time></trkpt><trkpt lat="41.69464060958094" lon="13.3525278650665"><ele>264.0</ele><time>2026-04-23T15:30:07Z</time></trkpt><trkpt lat="41.694548658210465" lon="13.352500805507033"><ele>264.0</ele><time>2026-04-23T15:30:09Z</time></trkpt><trkpt lat="41.694464665717724" lon="13.352474181235245"><ele>264.0</ele><time>2026-04-23T15:30:11Z</time></trkpt><trkpt lat="41.6943770393135" lon="13.35244506140538"><ele>263.59999999999997</ele><time>2026-04-23T15:30:13Z</time></trkpt><trkpt lat="41.69428193672195" lon="13.352416615143706"><ele>263.2</ele><time>2026-04-23T15:30:15Z</time></trkpt><trkpt lat="41.6941749272678" lon="13.352381137902606"><ele>262.79999999999995</ele><time>2026-04-23T15:30:17Z</time></trkpt><trkpt lat="41.6940613690078" lon="13.352345997092595"><ele>262.4</ele><time>2026-04-23T15:30:19Z</time></trkpt><trkpt lat="41.69397983853982" lon="13.352320796901843"><ele>262.0</ele><time>2026-04-23T15:30:21Z</time></trkpt><trkpt lat="41.69391580053355" lon="13.3523007418034"><ele>262.0</ele><time>2026-04-23T15:30:23Z</time></trkpt><trkpt lat="41.693826182123786" lon="13.352272214895043"><ele>262.0</ele><time>2026-04-23T15:30:26Z</time></trkpt><trkpt lat="41.69373192046081" lon="13.352243863062116"><ele>262.0</ele><time>2026-04-23T15:30:28Z</time></trkpt><trkpt lat="41.69360968342804" lon="13.352207081049682"><ele>262.0</ele><time>2026-04-23T15:30:30Z</time></trkpt><trkpt lat="41.693537293766454" lon="13.352186467626701"><ele>262.0</ele><time>2026-04-23T15:30:31Z</time></trkpt><trkpt lat="41.69340413716431" lon="13.3521475105186"><ele>261.8333333333333</ele><time>2026-04-23T15:30:33Z</time></trkpt><trkpt lat="41.693316218819426" lon="13.35212603817632"><ele>261.66666666666663</ele><time>2026-04-23T15:30:34Z</time></trkpt><trkpt lat="41.69322727867938" lon="13.352095730928962"><ele>261.5</ele><time>2026-04-23T15:30:35Z</time></trkpt><trkpt lat="41.693156321268745" lon="13.352082345381167"><ele>261.3333333333333</ele><time>2026-04-23T15:30:36Z</time></trkpt><trkpt lat="41.693083543961286" lon="13.352072903670528"><ele>261.1666666666667</ele><time>2026-04-23T15:30:37Z</time></trkpt><trkpt lat="41.692996458380314" lon="13.352061705857176"><ele>261.0</ele><time>2026-04-23T15:30:38Z</time></trkpt><trkpt lat="41.692884427603175" lon="13.352051386377905"><ele>261.0</ele><time>2026-04-23T15:30:39Z</time></trkpt><trkpt lat="41.69278946117154" lon="13.352045078950662"><ele>261.0</ele><time>2026-04-23T15:30:40Z</time></trkpt><trkpt lat="41.69270066125137" lon="13.352045715559056"><ele>261.0</ele><time>2026-04-23T15:30:41Z</time></trkpt><trkpt lat="41.692599024814776" lon="13.35204884555492"><ele>261.0</ele><time>2026-04-23T15:30:42Z</time></trkpt><trkpt lat="41.692506392244844" lon="13.352050885180017"><ele>261.0</ele><time>2026-04-23T15:30:43Z</time></trkpt><trkpt lat="41.69242380665518" lon="13.352051890299267"><ele>260.6</ele><time>2026-04-23T15:30:44Z</time></trkpt><trkpt lat="41.69234862512642" lon="13.35205290033564"><ele>260.20000000000005</ele><time>2026-04-23T15:30:45Z</time></trkpt><trkpt lat="41.69227720526092" lon="13.352054917906157"><ele>259.79999999999995</ele><time>2026-04-23T15:30:46Z</time></trkpt><trkpt lat="41.69215837883705" lon="13.352056035713279"><ele>259.4</ele><time>2026-04-23T15:30:48Z</time></trkpt><trkpt lat="41.69207456722908" lon="13.35206310461866"><ele>259.0</ele><time>2026-04-23T15:30:50Z</time></trkpt><trkpt lat="41.69196265773362" lon="13.352067298861607"><ele>259.0</ele><time>2026-04-23T15:30:52Z</time></trkpt><trkpt lat="41.69188775789313" lon="13.352070745208179"><ele>259.0</ele><time>2026-04-23T15:30:53Z</time></trkpt><trkpt lat="41.691819696436156" lon="13.352063210207136"><ele>259.0</ele><time>2026-04-23T15:30:54Z</time></trkpt><trkpt lat="41.69175144946294" lon="13.352065988139094"><ele>259.0</ele><time>2026-04-23T15:30:55Z</time></trkpt><trkpt lat="41.691623469120636" lon="13.352080857840106"><ele>259.0</ele><time>2026-04-23T15:30:57Z</time></trkpt><trkpt lat="41.691521653814036" lon="13.35208885379855"><ele>259.0</ele><time>2026-04-23T15:30:59Z</time></trkpt><trkpt lat="41.6914071145486" lon="13.352082541993209"><ele>259.0</ele><time>2026-04-23T15:31:01Z</time></trkpt><trkpt lat="41.691310592652016" lon="13.352084281677634"><ele>259.0</ele><time>2026-04-23T15:31:03Z</time></trkpt><trkpt lat="41.69121552754212" lon="13.352080500180483"><ele>259.0</ele><time>2026-04-23T15:31:05Z</time></trkpt><trkpt lat="41.69114530406026" lon="13.352077707960655"><ele>259.0</ele><time>2026-04-23T15:31:06Z</time></trkpt><trkpt lat="41.69106552771966" lon="13.352064297718709"><ele>259.0</ele><time>2026-04-23T15:31:07Z</time></trkpt><trkpt lat="41.69098940372726" lon="13.352044519460689"><ele>259.0</ele><time>2026-04-23T15:31:08Z</time></trkpt><trkpt lat="41.69086558679919" lon="13.352029438147584"><ele>259.2</ele><time>2026-04-23T15:31:10Z</time></trkpt><trkpt lat="41.69079081997888" lon="13.352015175526574"><ele>259.4</ele><time>2026-04-23T15:31:11Z</time></trkpt><trkpt lat="41.69069382284144" lon="13.351999373027908"><ele>259.6</ele><time>2026-04-23T15:31:12Z</time></trkpt><trkpt lat="41.69056712351533" lon="13.351979004833693"><ele>259.8</ele><time>2026-04-23T15:31:13Z</time></trkpt><trkpt lat="41.69045994770458" lon="13.351959199324488"><ele>260.0</ele><time>2026-04-23T15:31:14Z</time></trkpt><trkpt lat="41.6903763898503" lon="13.351928440181238"><ele>260.0</ele><time>2026-04-23T15:31:15Z</time></trkpt><trkpt lat="41.690292658197386" lon="13.351906364255136"><ele>260.0</ele><time>2026-04-23T15:31:17Z</time></trkpt><trkpt lat="41.690224113957456" lon="13.351928240031185"><ele>260.0</ele><time>2026-04-23T15:32:15Z</time></trkpt><trkpt lat="41.69013238804931" lon="13.351918687996722"><ele>260.0</ele><time>2026-04-23T15:32:16Z</time></trkpt><trkpt lat="41.69003659906789" lon="13.351874923995434"><ele>260.0</ele><time>2026-04-23T15:32:18Z</time></trkpt><trkpt lat="41.68995195198157" lon="13.35215998813064"><ele>259.6</ele><time>2026-04-23T15:32:21Z</time></trkpt><trkpt lat="41.69000024387979" lon="13.352245809705146"><ele>259.2</ele><time>2026-04-23T15:32:22Z</time></trkpt><trkpt lat="41.6900288569194" lon="13.352348092870683"><ele>258.8</ele><time>2026-04-23T15:32:23Z</time></trkpt><trkpt lat="41.69004893686682" lon="13.352477000150643"><ele>258.4</ele><time>2026-04-23T15:32:24Z</time></trkpt><trkpt lat="41.69002245261842" lon="13.352639891418315"><ele>258.0</ele><time>2026-04-23T15:32:25Z</time></trkpt><trkpt lat="41.69001183285133" lon="13.352794602347014"><ele>258.0</ele><time>2026-04-23T15:32:26Z</time></trkpt><trkpt lat="41.68999569200975" lon="13.352941075429152"><ele>258.0</ele><time>2026-04-23T15:32:27Z</time></trkpt><trkpt lat="41.68997271148555" lon="13.353087216959876"><ele>258.0</ele><time>2026-04-23T15:32:28Z</time></trkpt><trkpt lat="41.689938487306726" lon="13.353250773826995"><ele>258.0</ele><time>2026-04-23T15:32:29Z</time></trkpt><trkpt lat="41.68987150594479" lon="13.353468346541787"><ele>258.0</ele><time>2026-04-23T15:32:30Z</time></trkpt><trkpt lat="41.689767931839945" lon="13.353736194220104"><ele>258.0</ele><time>2026-04-23T15:32:31Z</time></trkpt><trkpt lat="41.6896348802624" lon="13.354043665049847"><ele>258.0</ele><time>2026-04-23T15:32:32Z</time></trkpt><trkpt lat="41.689487021122275" lon="13.354379773876678"><ele>258.0</ele><time>2026-04-23T15:32:33Z</time></trkpt><trkpt lat="41.689346434688034" lon="13.354710830041887"><ele>256.5</ele><time>2026-04-23T15:32:34Z</time></trkpt><trkpt lat="41.689226430819794" lon="13.355003295436076"><ele>255.0</ele><time>2026-04-23T15:32:35Z</time></trkpt><trkpt lat="41.689088921874635" lon="13.355267870852924"><ele>255.0</ele><time>2026-04-23T15:32:36Z</time></trkpt><trkpt lat="41.688968981498554" lon="13.355555258866065"><ele>255.0</ele><time>2026-04-23T15:32:37Z</time></trkpt><trkpt lat="41.68885247742156" lon="13.35579427892596"><ele>255.0</ele><time>2026-04-23T15:32:38Z</time></trkpt><trkpt lat="41.68876318582922" lon="13.355978744738872"><ele>255.0</ele><time>2026-04-23T15:32:39Z</time></trkpt><trkpt lat="41.68867495593199" lon="13.356143879559829"><ele>255.0</ele><time>2026-04-23T15:32:40Z</time></trkpt><trkpt lat="41.68859264765254" lon="13.356275417133961"><ele>255.0</ele><time>2026-04-23T15:32:41Z</time></trkpt><trkpt lat="41.688511731491154" lon="13.35637714683078"><ele>254.75</ele><time>2026-04-23T15:32:42Z</time></trkpt><trkpt lat="41.688418677700284" lon="13.356451255111411"><ele>254.5</ele><time>2026-04-23T15:32:43Z</time></trkpt><trkpt lat="41.68829714150637" lon="13.356458165083904"><ele>254.25</ele><time>2026-04-23T15:32:44Z</time></trkpt><trkpt lat="41.68815756535536" lon="13.356415158460536"><ele>254.0</ele><time>2026-04-23T15:32:45Z</time></trkpt><trkpt lat="41.68802501928091" lon="13.356381134081209"><ele>254.0</ele><time>2026-04-23T15:32:46Z</time></trkpt><trkpt lat="41.68791954893617" lon="13.356380844682889"><ele>254.0</ele><time>2026-04-23T15:32:47Z</time></trkpt><trkpt lat="41.68781844186889" lon="13.356427012775598"><ele>254.0</ele><time>2026-04-23T15:32:48Z</time></trkpt><trkpt lat="41.687714440089515" lon="13.356516437829244"><ele>254.0</ele><time>2026-04-23T15:32:49Z</time></trkpt><trkpt lat="41.68765303375779" lon="13.356696355449397"><ele>253.66666666666669</ele><time>2026-04-23T15:32:50Z</time></trkpt><trkpt lat="41.687594682494996" lon="13.3569130668209"><ele>253.33333333333331</ele><time>2026-04-23T15:32:51Z</time></trkpt><trkpt lat="41.687534752866" lon="13.35715804071382"><ele>253.0</ele><time>2026-04-23T15:32:52Z</time></trkpt><trkpt lat="41.68747901890917" lon="13.357395288154"><ele>253.0</ele><time>2026-04-23T15:32:53Z</time></trkpt><trkpt lat="41.68743155897597" lon="13.357620313476215"><ele>253.0</ele><time>2026-04-23T15:32:54Z</time></trkpt><trkpt lat="41.687381078365526" lon="13.357847043122991"><ele>253.0</ele><time>2026-04-23T15:32:55Z</time></trkpt><trkpt lat="41.687326841777505" lon="13.358086107318906"><ele>253.0</ele><time>2026-04-23T15:32:56Z</time></trkpt><trkpt lat="41.68726347919204" lon="13.358323663004981"><ele>253.0</ele><time>2026-04-23T15:32:57Z</time></trkpt><trkpt lat="41.68718528667571" lon="13.358559346640805"><ele>253.0</ele><time>2026-04-23T15:32:58Z</time></trkpt><trkpt lat="41.68708409597651" lon="13.358786260027493"><ele>253.0</ele><time>2026-04-23T15:32:59Z</time></trkpt><trkpt lat="41.68697634990096" lon="13.359023355809665"><ele>253.0</ele><time>2026-04-23T15:33:00Z</time></trkpt><trkpt lat="41.68686196612513" lon="13.359268629957937"><ele>253.0</ele><time>2026-04-23T15:33:01Z</time></trkpt><trkpt lat="41.686767583480304" lon="13.35956955525107"><ele>253.0</ele><time>2026-04-23T15:33:02Z</time></trkpt><trkpt lat="41.6866232258591" lon="13.359894923830527"><ele>253.0</ele><time>2026-04-23T15:33:03Z</time></trkpt><trkpt lat="41.68649567558966" lon="13.360185625360346"><ele>253.0</ele><time>2026-04-23T15:33:04Z</time></trkpt><trkpt lat="41.68639670941316" lon="13.360422995898427"><ele>253.0</ele><time>2026-04-23T15:33:05Z</time></trkpt><trkpt lat="41.68630234071244" lon="13.360651640916409"><ele>253.0</ele><time>2026-04-23T15:33:06Z</time></trkpt><trkpt lat="41.68621840644926" lon="13.360860124189928"><ele>253.0</ele><time>2026-04-23T15:33:07Z</time></trkpt><trkpt lat="41.686142421295116" lon="13.361056295612135"><ele>253.0</ele><time>2026-04-23T15:33:08Z</time></trkpt><trkpt lat="41.68608884720773" lon="13.361225616410941"><ele>253.0</ele><time>2026-04-23T15:33:09Z</time></trkpt><trkpt lat="41.68603341720049" lon="13.36137162609504"><ele>253.0</ele><time>2026-04-23T15:33:10Z</time></trkpt><trkpt lat="41.68596515393839" lon="13.36147833254043"><ele>253.25</ele><time>2026-04-23T15:33:11Z</time></trkpt><trkpt lat="41.685849134076626" lon="13.36153072343862"><ele>253.5</ele><time>2026-04-23T15:33:12Z</time></trkpt><trkpt lat="41.68573264980668" lon="13.36158665867723"><ele>253.75</ele><time>2026-04-23T15:33:13Z</time></trkpt><trkpt lat="41.685624739909414" lon="13.361693654756955"><ele>254.0</ele><time>2026-04-23T15:33:14Z</time></trkpt><trkpt lat="41.68554379910605" lon="13.361851225502102"><ele>254.0</ele><time>2026-04-23T15:33:15Z</time></trkpt><trkpt lat="41.68547947720223" lon="13.362055234832948"><ele>254.0</ele><time>2026-04-23T15:33:16Z</time></trkpt><trkpt lat="41.68543368703992" lon="13.362306809206244"><ele>254.0</ele><time>2026-04-23T15:33:17Z</time></trkpt><trkpt lat="41.68539532988913" lon="13.36256199873314"><ele>254.33333333333334</ele><time>2026-04-23T15:33:18Z</time></trkpt><trkpt lat="41.68536199789344" lon="13.36280562960474"><ele>254.66666666666669</ele><time>2026-04-23T15:33:19Z</time></trkpt><trkpt lat="41.685334124209135" lon="13.363012658812092"><ele>255.0</ele><time>2026-04-23T15:33:20Z</time></trkpt><trkpt lat="41.685320097310914" lon="13.363212226881615"><ele>255.0</ele><time>2026-04-23T15:33:21Z</time></trkpt><trkpt lat="41.685281791031564" lon="13.363388607882932"><ele>255.0</ele><time>2026-04-23T15:33:22Z</time></trkpt><trkpt lat="41.6852518215727" lon="13.363553058338127"><ele>255.0</ele><time>2026-04-23T15:33:23Z</time></trkpt><trkpt lat="41.68522275241083" lon="13.363725818073007"><ele>255.0</ele><time>2026-04-23T15:33:24Z</time></trkpt><trkpt lat="41.68518137611972" lon="13.363923924881538"><ele>255.0</ele><time>2026-04-23T15:33:25Z</time></trkpt><trkpt lat="41.68510950316818" lon="13.364152974987574"><ele>255.0</ele><time>2026-04-23T15:33:26Z</time></trkpt><trkpt lat="41.68502830624215" lon="13.36441075714399"><ele>255.0</ele><time>2026-04-23T15:33:27Z</time></trkpt><trkpt lat="41.68497916056693" lon="13.364630040419497"><ele>254.8</ele><time>2026-04-23T15:33:28Z</time></trkpt><trkpt lat="41.68494274998135" lon="13.364791310917765"><ele>254.6</ele><time>2026-04-23T15:33:29Z</time></trkpt><trkpt lat="41.68489527714785" lon="13.364912564838013"><ele>254.39999999999998</ele><time>2026-04-23T15:33:30Z</time></trkpt><trkpt lat="41.68482096857118" lon="13.364994007230356"><ele>254.2</ele><time>2026-04-23T15:33:31Z</time></trkpt><trkpt lat="41.68470161520299" lon="13.365005654124657"><ele>254.0</ele><time>2026-04-23T15:33:32Z</time></trkpt><trkpt lat="41.68458637630239" lon="13.365025680234673"><ele>254.0</ele><time>2026-04-23T15:33:33Z</time></trkpt><trkpt lat="41.68443078300367" lon="13.365048129630967"><ele>254.0</ele><time>2026-04-23T15:33:34Z</time></trkpt><trkpt lat="41.68429260138777" lon="13.365141851941448"><ele>254.0</ele><time>2026-04-23T15:33:35Z</time></trkpt><trkpt lat="41.68425355604423" lon="13.365273274602757"><ele>254.0</ele><time>2026-04-23T15:33:36Z</time></trkpt><trkpt lat="41.68417392617607" lon="13.365472207312713"><ele>253.0</ele><time>2026-04-23T15:33:37Z</time></trkpt><trkpt lat="41.68407450561441" lon="13.365758637084152"><ele>252.0</ele><time>2026-04-23T15:33:38Z</time></trkpt><trkpt lat="41.68400269789831" lon="13.366048499750825"><ele>252.5</ele><time>2026-04-23T15:33:39Z</time></trkpt><trkpt lat="41.683950439028735" lon="13.366368183927989"><ele>253.0</ele><time>2026-04-23T15:33:40Z</time></trkpt><trkpt lat="41.68389880816354" lon="13.366685690672197"><ele>253.0</ele><time>2026-04-23T15:33:41Z</time></trkpt><trkpt lat="41.68388130253642" lon="13.366917528749212"><ele>253.0</ele><time>2026-04-23T15:33:42Z</time></trkpt><trkpt lat="41.68385704875962" lon="13.36717809524866"><ele>253.0</ele><time>2026-04-23T15:33:43Z</time></trkpt><trkpt lat="41.68383921683684" lon="13.367503116298684"><ele>252.5</ele><time>2026-04-23T15:33:44Z</time></trkpt><trkpt lat="41.68378892168978" lon="13.367879478842934"><ele>252.0</ele><time>2026-04-23T15:33:45Z</time></trkpt><trkpt lat="41.683753666314935" lon="13.36818318928174"><ele>252.0</ele><time>2026-04-23T15:33:46Z</time></trkpt><trkpt lat="41.68373122474635" lon="13.368397093946712"><ele>252.0</ele><time>2026-04-23T15:33:47Z</time></trkpt><trkpt lat="41.68370731478189" lon="13.368632219899306"><ele>252.0</ele><time>2026-04-23T15:33:48Z</time></trkpt><trkpt lat="41.68368460109643" lon="13.368851558834347"><ele>252.0</ele><time>2026-04-23T15:33:49Z</time></trkpt><trkpt lat="41.683663254193334" lon="13.369085087295067"><ele>252.0</ele><time>2026-04-23T15:33:50Z</time></trkpt><trkpt lat="41.68365107942355" lon="13.369330903594367"><ele>252.0</ele><time>2026-04-23T15:33:51Z</time></trkpt><trkpt lat="41.683653177616534" lon="13.369579560785"><ele>251.66666666666669</ele><time>2026-04-23T15:33:52Z</time></trkpt><trkpt lat="41.68367200085205" lon="13.36987476140278"><ele>251.33333333333334</ele><time>2026-04-23T15:33:53Z</time></trkpt><trkpt lat="41.68368185324145" lon="13.370179727471005"><ele>251.0</ele><time>2026-04-23T15:33:54Z</time></trkpt><trkpt lat="41.68369191016873" lon="13.370405452634788"><ele>250.66666666666669</ele><time>2026-04-23T15:33:55Z</time></trkpt><trkpt lat="41.68373045532164" lon="13.370634720611342"><ele>250.33333333333331</ele><time>2026-04-23T15:33:56Z</time></trkpt><trkpt lat="41.68379989102512" lon="13.370820187147809"><ele>250.0</ele><time>2026-04-23T15:33:57Z</time></trkpt><trkpt lat="41.683872606069784" lon="13.371034688216945"><ele>250.0</ele><time>2026-04-23T15:33:58Z</time></trkpt><trkpt lat="41.68393872455767" lon="13.371225781364885"><ele>250.0</ele><time>2026-04-23T15:33:59Z</time></trkpt><trkpt lat="41.68396226056936" lon="13.371368326552343"><ele>250.0</ele><time>2026-04-23T15:34:00Z</time></trkpt><trkpt lat="41.68396255570936" lon="13.371522438793793"><ele>250.0</ele><time>2026-04-23T15:34:01Z</time></trkpt><trkpt lat="41.683940689073275" lon="13.371632202491085"><ele>249.66666666666666</ele><time>2026-04-23T15:34:02Z</time></trkpt><trkpt lat="41.683876297299626" lon="13.371780322259474"><ele>249.33333333333331</ele><time>2026-04-23T15:34:03Z</time></trkpt><trkpt lat="41.68375662320124" lon="13.37189001191931"><ele>249.0</ele><time>2026-04-23T15:34:04Z</time></trkpt><trkpt lat="41.68357891043371" lon="13.372038791044103"><ele>248.66666666666669</ele><time>2026-04-23T15:34:05Z</time></trkpt><trkpt lat="41.683418775887084" lon="13.372175313047038"><ele>248.33333333333334</ele><time>2026-04-23T15:34:06Z</time></trkpt><trkpt lat="41.683305136381264" lon="13.372363011250396"><ele>248.0</ele><time>2026-04-23T15:34:07Z</time></trkpt><trkpt lat="41.68322297609305" lon="13.372587950864647"><ele>249.0</ele><time>2026-04-23T15:34:08Z</time></trkpt><trkpt lat="41.68314515128245" lon="13.372831190755878"><ele>250.0</ele><time>2026-04-23T15:34:09Z</time></trkpt><trkpt lat="41.6830869804593" lon="13.373087603392399"><ele>251.0</ele><time>2026-04-23T15:34:10Z</time></trkpt><trkpt lat="41.68306898430334" lon="13.37334640191343"><ele>252.0</ele><time>2026-04-23T15:34:11Z</time></trkpt><trkpt lat="41.683095888013355" lon="13.3735934798693"><ele>253.0</ele><time>2026-04-23T15:34:12Z</time></trkpt><trkpt lat="41.68315231136015" lon="13.373827342959371"><ele>254.0</ele><time>2026-04-23T15:34:13Z</time></trkpt><trkpt lat="41.68324020388515" lon="13.374063035943184"><ele>254.5</ele><time>2026-04-23T15:34:14Z</time></trkpt><trkpt lat="41.6833680808856" lon="13.374318457373164"><ele>255.0</ele><time>2026-04-23T15:34:15Z</time></trkpt><trkpt lat="41.68349301840922" lon="13.374572249533635"><ele>255.0</ele><time>2026-04-23T15:34:16Z</time></trkpt><trkpt lat="41.68358899384493" lon="13.374783961318549"><ele>255.0</ele><time>2026-04-23T15:34:17Z</time></trkpt><trkpt lat="41.68365595507161" lon="13.37494526233972"><ele>255.0</ele><time>2026-04-23T15:34:18Z</time></trkpt><trkpt lat="41.68371410932695" lon="13.37507729961395"><ele>255.0</ele><time>2026-04-23T15:34:19Z</time></trkpt><trkpt lat="41.68374730330222" lon="13.37518047402292"><ele>255.33333333333334</ele><time>2026-04-23T15:34:20Z</time></trkpt><trkpt lat="41.68376920231698" lon="13.37527861169961"><ele>255.66666666666669</ele><time>2026-04-23T15:34:22Z</time></trkpt><trkpt lat="41.683785455419205" lon="13.37540367344535"><ele>256.0</ele><time>2026-04-23T15:34:24Z</time></trkpt><trkpt lat="41.68380045832458" lon="13.375498180091132"><ele>256.33333333333337</ele><time>2026-04-23T15:34:25Z</time></trkpt><trkpt lat="41.683816562490414" lon="13.375611225118572"><ele>256.6666666666667</ele><time>2026-04-23T15:34:26Z</time></trkpt><trkpt lat="41.68383039972674" lon="13.3757311464225"><ele>257.0</ele><time>2026-04-23T15:34:27Z</time></trkpt><trkpt lat="41.68383499636268" lon="13.375843923953731"><ele>257.0</ele><time>2026-04-23T15:34:28Z</time></trkpt><trkpt lat="41.68384158768029" lon="13.375986782298241"><ele>257.0</ele><time>2026-04-23T15:34:29Z</time></trkpt><trkpt lat="41.68384907037435" lon="13.376154728024018"><ele>257.0</ele><time>2026-04-23T15:34:30Z</time></trkpt><trkpt lat="41.68385887094653" lon="13.376289672046815"><ele>257.0</ele><time>2026-04-23T15:34:31Z</time></trkpt><trkpt lat="41.68386996096681" lon="13.376380965404064"><ele>257.0</ele><time>2026-04-23T15:34:32Z</time></trkpt><trkpt lat="41.683818306384914" lon="13.376520885867858"><ele>256.83333333333337</ele><time>2026-04-23T15:34:34Z</time></trkpt><trkpt lat="41.68376024656939" lon="13.376563156650066"><ele>256.6666666666667</ele><time>2026-04-23T15:34:35Z</time></trkpt><trkpt lat="41.68367858768069" lon="13.376588827043788"><ele>256.5</ele><time>2026-04-23T15:34:36Z</time></trkpt><trkpt lat="41.68359078716784" lon="13.37660504838562"><ele>256.3333333333333</ele><time>2026-04-23T15:34:37Z</time></trkpt><trkpt lat="41.68350025325763" lon="13.376619911420695"><ele>256.16666666666663</ele><time>2026-04-23T15:34:38Z</time></trkpt><trkpt lat="41.68341362777633" lon="13.376629804036016"><ele>256.0</ele><time>2026-04-23T15:34:39Z</time></trkpt><trkpt lat="41.68332751179624" lon="13.376643664646672"><ele>255.60000000000002</ele><time>2026-04-23T15:34:40Z</time></trkpt><trkpt lat="41.68323951680011" lon="13.376653536685478"><ele>255.20000000000002</ele><time>2026-04-23T15:34:41Z</time></trkpt><trkpt lat="41.68314910555631" lon="13.37666409999269"><ele>254.79999999999998</ele><time>2026-04-23T15:34:42Z</time></trkpt><trkpt lat="41.68305771122378" lon="13.376665880973675"><ele>254.39999999999998</ele><time>2026-04-23T15:34:43Z</time></trkpt><trkpt lat="41.68296378023893" lon="13.376674945890214"><ele>254.0</ele><time>2026-04-23T15:34:44Z</time></trkpt><trkpt lat="41.68287023267782" lon="13.376690201929035"><ele>254.0</ele><time>2026-04-23T15:34:45Z</time></trkpt><trkpt lat="41.68277630845876" lon="13.376701241324714"><ele>253.99999999999997</ele><time>2026-04-23T15:34:46Z</time></trkpt><trkpt lat="41.68268312803949" lon="13.376714748520476"><ele>253.99999999999997</ele><time>2026-04-23T15:34:47Z</time></trkpt><trkpt lat="41.68258950979605" lon="13.376716585366943"><ele>254.0</ele><time>2026-04-23T15:34:48Z</time></trkpt><trkpt lat="41.682495634285885" lon="13.376719681955416"><ele>254.0</ele><time>2026-04-23T15:34:49Z</time></trkpt><trkpt lat="41.6824010862942" lon="13.376727725330529"><ele>253.6</ele><time>2026-04-23T15:34:50Z</time></trkpt><trkpt lat="41.682308606347824" lon="13.376728950289229"><ele>253.2</ele><time>2026-04-23T15:34:51Z</time></trkpt><trkpt lat="41.6822193566142" lon="13.37673305437151"><ele>252.79999999999998</ele><time>2026-04-23T15:34:52Z</time></trkpt><trkpt lat="41.68212855794369" lon="13.376736421391753"><ele>252.39999999999998</ele><time>2026-04-23T15:34:53Z</time></trkpt><trkpt lat="41.68203676129194" lon="13.376737004566099"><ele>252.0</ele><time>2026-04-23T15:34:54Z</time></trkpt><trkpt lat="41.68194801475088" lon="13.376744349491728"><ele>251.33333333333334</ele><time>2026-04-23T15:34:55Z</time></trkpt><trkpt lat="41.681857172802346" lon="13.376754783565625"><ele>250.66666666666669</ele><time>2026-04-23T15:34:56Z</time></trkpt><trkpt lat="41.681773085184474" lon="13.37675386936529"><ele>250.0</ele><time>2026-04-23T15:34:57Z</time></trkpt><trkpt lat="41.681686891874776" lon="13.3767529680129"><ele>249.33333333333334</ele><time>2026-04-23T15:34:58Z</time></trkpt><trkpt lat="41.681602790885485" lon="13.376745721520633"><ele>248.66666666666669</ele><time>2026-04-23T15:34:59Z</time></trkpt><trkpt lat="41.68153153379606" lon="13.376745881769413"><ele>248.0</ele><time>2026-04-23T15:35:00Z</time></trkpt><trkpt lat="41.681427676470534" lon="13.376759155926692"><ele>248.00000000000003</ele><time>2026-04-23T15:35:02Z</time></trkpt><trkpt lat="41.681357045982054" lon="13.376760486657181"><ele>248.0</ele><time>2026-04-23T15:35:06Z</time></trkpt><trkpt lat="41.68128088424042" lon="13.37676457561916"><ele>248.0</ele><time>2026-04-23T15:35:08Z</time></trkpt><trkpt lat="41.6811529568244" lon="13.376760364009085"><ele>248.0</ele><time>2026-04-23T15:35:10Z</time></trkpt><trkpt lat="41.68107543777279" lon="13.376764531678145"><ele>248.00000000000003</ele><time>2026-04-23T15:35:11Z</time></trkpt><trkpt lat="41.680995386625604" lon="13.376768786629533"><ele>248.0</ele><time>2026-04-23T15:35:12Z</time></trkpt><trkpt lat="41.68090814432227" lon="13.376771016809878"><ele>248.0</ele><time>2026-04-23T15:35:13Z</time></trkpt><trkpt lat="41.680814031996505" lon="13.376775315967228"><ele>248.0</ele><time>2026-04-23T15:35:14Z</time></trkpt><trkpt lat="41.68071932193695" lon="13.376778615117797"><ele>248.0</ele><time>2026-04-23T15:35:15Z</time></trkpt><trkpt lat="41.680622917373064" lon="13.37677712140728"><ele>248.0</ele><time>2026-04-23T15:35:16Z</time></trkpt><trkpt lat="41.68053280774854" lon="13.376775115864792"><ele>248.0</ele><time>2026-04-23T15:35:17Z</time></trkpt><trkpt lat="41.68045115970299" lon="13.376777905547803"><ele>248.0</ele><time>2026-04-23T15:35:18Z</time></trkpt><trkpt lat="41.68038127912092" lon="13.3767811331464"><ele>248.0</ele><time>2026-04-23T15:35:19Z</time></trkpt><trkpt lat="41.680274223441444" lon="13.376779365939402"><ele>248.0</ele><time>2026-04-23T15:35:21Z</time></trkpt><trkpt lat="41.680194001439645" lon="13.376778012289707"><ele>248.0</ele><time>2026-04-23T15:35:23Z</time></trkpt><trkpt lat="41.680097878805405" lon="13.37676543734958"><ele>248.0</ele><time>2026-04-23T15:35:25Z</time></trkpt><trkpt lat="41.68002932352435" lon="13.37655582338371"><ele>247.33333333333334</ele><time>2026-04-23T15:35:27Z</time></trkpt><trkpt lat="41.680001347919834" lon="13.376407500673126"><ele>246.66666666666669</ele><time>2026-04-23T15:35:28Z</time></trkpt><trkpt lat="41.6799549733591" lon="13.37621743011042"><ele>246.0</ele><time>2026-04-23T15:35:29Z</time></trkpt><trkpt lat="41.67988813060992" lon="13.375970638332758"><ele>246.0</ele><time>2026-04-23T15:35:30Z</time></trkpt><trkpt lat="41.67982373285692" lon="13.375718209596501"><ele>246.0</ele><time>2026-04-23T15:35:31Z</time></trkpt><trkpt lat="41.679752599955286" lon="13.375428545140391"><ele>246.0</ele><time>2026-04-23T15:35:32Z</time></trkpt><trkpt lat="41.679691367567614" lon="13.375182679524851"><ele>246.0</ele><time>2026-04-23T15:35:33Z</time></trkpt><trkpt lat="41.67963419247904" lon="13.374962986840629"><ele>246.0</ele><time>2026-04-23T15:35:34Z</time></trkpt><trkpt lat="41.67957981591369" lon="13.374748038876193"><ele>246.0</ele><time>2026-04-23T15:35:35Z</time></trkpt><trkpt lat="41.679530343471036" lon="13.374505114336749"><ele>246.33333333333331</ele><time>2026-04-23T15:35:36Z</time></trkpt><trkpt lat="41.67946658630863" lon="13.374229487939834"><ele>246.66666666666666</ele><time>2026-04-23T15:35:37Z</time></trkpt><trkpt lat="41.679398440188336" lon="13.37397164365795"><ele>247.0</ele><time>2026-04-23T15:35:38Z</time></trkpt><trkpt lat="41.679344912332894" lon="13.373760003368787"><ele>246.49999999999997</ele><time>2026-04-23T15:35:39Z</time></trkpt><trkpt lat="41.67930674318072" lon="13.37361158252695"><ele>246.0</ele><time>2026-04-23T15:35:40Z</time></trkpt><trkpt lat="41.679278293296754" lon="13.373509488755754"><ele>245.5</ele><time>2026-04-23T15:35:41Z</time></trkpt><trkpt lat="41.679254249551676" lon="13.373422084286716"><ele>245.0</ele><time>2026-04-23T15:35:43Z</time></trkpt><trkpt lat="41.679328318278785" lon="13.373365950680757"><ele>244.49999999999997</ele><time>2026-04-23T15:35:46Z</time></trkpt><trkpt lat="41.6794000271531" lon="13.37336141436462"><ele>244.0</ele><time>2026-04-23T15:35:47Z</time></trkpt><trkpt lat="41.67951791534146" lon="13.373346166146554"><ele>244.0</ele><time>2026-04-23T15:35:48Z</time></trkpt><trkpt lat="41.679656500215486" lon="13.373307143746828"><ele>243.99999999999997</ele><time>2026-04-23T15:35:49Z</time></trkpt><trkpt lat="41.679774406395325" lon="13.373278054928795"><ele>243.99999999999997</ele><time>2026-04-23T15:35:50Z</time></trkpt><trkpt lat="41.67986838312617" lon="13.373246694763836"><ele>244.0</ele><time>2026-04-23T15:35:51Z</time></trkpt><trkpt lat="41.67995309235185" lon="13.37323111185757"><ele>244.0</ele><time>2026-04-23T15:35:52Z</time></trkpt><trkpt lat="41.68001619795127" lon="13.37321017358185"><ele>244.0</ele><time>2026-04-23T15:35:53Z</time></trkpt><trkpt lat="41.68011403012852" lon="13.373199106456278"><ele>244.0</ele><time>2026-04-23T15:35:55Z</time></trkpt><trkpt lat="41.68021316494322" lon="13.37318866100314"><ele>244.0</ele><time>2026-04-23T15:35:57Z</time></trkpt><trkpt lat="41.68029327339776" lon="13.373176038930406"><ele>244.0</ele><time>2026-04-23T15:35:59Z</time></trkpt><trkpt lat="41.6801238355657" lon="13.373550379581093"><ele>244.0</ele><time>2026-04-23T15:36:28Z</time></trkpt><trkpt lat="41.68017343726802" lon="13.37367575425008"><ele>244.0</ele><time>2026-04-23T15:36:30Z</time></trkpt><trkpt lat="41.680202952830726" lon="13.37375035862637"><ele>244.0</ele><time>2026-04-23T15:36:32Z</time></trkpt><trkpt lat="41.68024152750519" lon="13.373847861068214"><ele>244.0</ele><time>2026-04-23T15:36:35Z</time></trkpt><trkpt lat="41.68048552318619" lon="13.373191101675946"><ele>244.5</ele><time>2026-04-23T15:36:36Z</time></trkpt><trkpt lat="41.68054852813727" lon="13.37323552136705"><ele>245.0</ele><time>2026-04-23T15:36:42Z</time></trkpt><trkpt lat="41.68054519929946" lon="13.373605432868258"><ele>245.5</ele><time>2026-04-23T15:36:45Z</time></trkpt><trkpt lat="41.68056447645419" lon="13.373690623991955"><ele>246.0</ele><time>2026-04-23T15:37:17Z</time></trkpt><trkpt lat="41.680575723539015" lon="13.373602413897508"><ele>246.0</ele><time>2026-04-23T15:37:35Z</time></trkpt><trkpt lat="41.68059014760746" lon="13.373510952030093"><ele>246.0</ele><time>2026-04-23T15:37:55Z</time></trkpt><trkpt lat="41.68046612149958" lon="13.373471453174044"><ele>246.0</ele><time>2026-04-23T15:49:06Z</time></trkpt><trkpt lat="41.68044924523269" lon="13.37337650943669"><ele>246.0</ele><time>2026-04-23T16:00:25Z</time></trkpt><trkpt lat="41.68041092465462" lon="13.373289041711812"><ele>246.0</ele><time>2026-04-23T16:00:32Z</time></trkpt><trkpt lat="41.68035107319689" lon="13.373255016070052"><ele>246.0</ele><time>2026-04-23T16:01:22Z</time></trkpt><trkpt lat="41.68029037391147" lon="13.373197296157285"><ele>245.66666666666666</ele><time>2026-04-23T16:01:26Z</time></trkpt><trkpt lat="41.68022265807653" lon="13.37321217505926"><ele>245.33333333333331</ele><time>2026-04-23T16:01:28Z</time></trkpt><trkpt lat="41.68015102680362" lon="13.373221264292974"><ele>245.0</ele><time>2026-04-23T16:01:30Z</time></trkpt><trkpt lat="41.68007737255012" lon="13.373231235896363"><ele>244.66666666666666</ele><time>2026-04-23T16:01:32Z</time></trkpt><trkpt lat="41.68000804253003" lon="13.373251378874507"><ele>244.33333333333331</ele><time>2026-04-23T16:01:33Z</time></trkpt><trkpt lat="41.67991568070283" lon="13.373272357178568"><ele>244.0</ele><time>2026-04-23T16:01:35Z</time></trkpt><trkpt lat="41.67981469977522" lon="13.373295135782323"><ele>244.0</ele><time>2026-04-23T16:01:37Z</time></trkpt><trkpt lat="41.67969552756811" lon="13.37324887091258"><ele>244.0</ele><time>2026-04-23T16:01:39Z</time></trkpt><trkpt lat="41.67957681323504" lon="13.37327310012122"><ele>244.0</ele><time>2026-04-23T16:01:41Z</time></trkpt><trkpt lat="41.679458397427055" lon="13.373300881386596"><ele>244.0</ele><time>2026-04-23T16:01:43Z</time></trkpt><trkpt lat="41.679357881854365" lon="13.373326304875796"><ele>243.39999999999998</ele><time>2026-04-23T16:01:45Z</time></trkpt><trkpt lat="41.67928059510808" lon="13.373346604656938"><ele>242.79999999999998</ele><time>2026-04-23T16:01:47Z</time></trkpt><trkpt lat="41.67921513211723" lon="13.373363798869423"><ele>242.20000000000002</ele><time>2026-04-23T16:01:54Z</time></trkpt><trkpt lat="41.67919370200295" lon="13.373246387202203"><ele>241.60000000000002</ele><time>2026-04-23T16:01:57Z</time></trkpt><trkpt lat="41.679141973729145" lon="13.373106664127237"><ele>241.0</ele><time>2026-04-23T16:01:59Z</time></trkpt><trkpt lat="41.67903386856455" lon="13.372976137975147"><ele>240.49999999999997</ele><time>2026-04-23T16:02:01Z</time></trkpt><trkpt lat="41.67894641229275" lon="13.37293947098212"><ele>240.0</ele><time>2026-04-23T16:02:02Z</time></trkpt><trkpt lat="41.67885648096268" lon="13.372922234116402"><ele>239.5</ele><time>2026-04-23T16:02:03Z</time></trkpt><trkpt lat="41.6787649969785" lon="13.372904031593203"><ele>239.0</ele><time>2026-04-23T16:02:04Z</time></trkpt><trkpt lat="41.678688505573035" lon="13.372884892046418"><ele>238.49999999999997</ele><time>2026-04-23T16:02:05Z</time></trkpt><trkpt lat="41.67859625490447" lon="13.37286005297271"><ele>238.0</ele><time>2026-04-23T16:02:06Z</time></trkpt><trkpt lat="41.67850408157227" lon="13.37282713761322"><ele>237.60000000000002</ele><time>2026-04-23T16:02:07Z</time></trkpt><trkpt lat="41.67842185321054" lon="13.372773516694714"><ele>237.20000000000002</ele><time>2026-04-23T16:02:08Z</time></trkpt><trkpt lat="41.67835285533356" lon="13.37269738031701"><ele>236.8</ele><time>2026-04-23T16:02:09Z</time></trkpt><trkpt lat="41.678297396682524" lon="13.372603194920694"><ele>236.4</ele><time>2026-04-23T16:02:10Z</time></trkpt><trkpt lat="41.67825413783071" lon="13.372487326013356"><ele>236.0</ele><time>2026-04-23T16:02:11Z</time></trkpt><trkpt lat="41.67821183864336" lon="13.372362065432657"><ele>236.0</ele><time>2026-04-23T16:02:12Z</time></trkpt><trkpt lat="41.678171253515785" lon="13.37223589284349"><ele>236.00000000000003</ele><time>2026-04-23T16:02:13Z</time></trkpt><trkpt lat="41.6781266253157" lon="13.372114017377225"><ele>236.00000000000003</ele><time>2026-04-23T16:02:14Z</time></trkpt><trkpt lat="41.67807511749742" lon="13.372004443511987"><ele>236.0</ele><time>2026-04-23T16:02:15Z</time></trkpt><trkpt lat="41.67801422371873" lon="13.371899962566394"><ele>236.0</ele><time>2026-04-23T16:02:16Z</time></trkpt><trkpt lat="41.67794716415762" lon="13.371806799179781"><ele>235.8</ele><time>2026-04-23T16:02:17Z</time></trkpt><trkpt lat="41.67785671736095" lon="13.371730545401796"><ele>235.60000000000002</ele><time>2026-04-23T16:02:18Z</time></trkpt><trkpt lat="41.67777145146802" lon="13.371664461033228"><ele>235.4</ele><time>2026-04-23T16:02:19Z</time></trkpt><trkpt lat="41.67768342417606" lon="13.371600786260672"><ele>235.2</ele><time>2026-04-23T16:02:20Z</time></trkpt><trkpt lat="41.677601505724354" lon="13.37154295198452"><ele>235.0</ele><time>2026-04-23T16:02:21Z</time></trkpt><trkpt lat="41.67752217989458" lon="13.371487082213202"><ele>235.16666666666666</ele><time>2026-04-23T16:02:22Z</time></trkpt><trkpt lat="41.677439983701184" lon="13.371430476012637"><ele>235.33333333333331</ele><time>2026-04-23T16:02:23Z</time></trkpt><trkpt lat="41.67734921413558" lon="13.371391387222827"><ele>235.5</ele><time>2026-04-23T16:02:24Z</time></trkpt><trkpt lat="41.67727203958814" lon="13.371336553722733"><ele>235.66666666666669</ele><time>2026-04-23T16:02:25Z</time></trkpt><trkpt lat="41.67719629077246" lon="13.371288153621363"><ele>235.83333333333334</ele><time>2026-04-23T16:02:26Z</time></trkpt><trkpt lat="41.677127293720694" lon="13.371240720054104"><ele>236.0</ele><time>2026-04-23T16:02:27Z</time></trkpt><trkpt lat="41.67705617899211" lon="13.371196872727905"><ele>236.00000000000003</ele><time>2026-04-23T16:02:28Z</time></trkpt><trkpt lat="41.676982163686795" lon="13.371157657233924"><ele>236.0</ele><time>2026-04-23T16:02:29Z</time></trkpt><trkpt lat="41.67691073304194" lon="13.37111778286695"><ele>236.0</ele><time>2026-04-23T16:02:30Z</time></trkpt><trkpt lat="41.676829297270345" lon="13.371079800540665"><ele>236.0</ele><time>2026-04-23T16:02:31Z</time></trkpt><trkpt lat="41.67674684364368" lon="13.371042710123739"><ele>236.00000000000003</ele><time>2026-04-23T16:02:32Z</time></trkpt><trkpt lat="41.67666403535294" lon="13.370994933340112"><ele>236.0</ele><time>2026-04-23T16:02:33Z</time></trkpt><trkpt lat="41.676584296557984" lon="13.370942856740877"><ele>235.60000000000002</ele><time>2026-04-23T16:02:34Z</time></trkpt><trkpt lat="41.67650092155435" lon="13.370879566569702"><ele>235.20000000000002</ele><time>2026-04-23T16:02:35Z</time></trkpt><trkpt lat="41.67642485442384" lon="13.370805480296385"><ele>234.79999999999998</ele><time>2026-04-23T16:02:36Z</time></trkpt><trkpt lat="41.67635750770319" lon="13.370720796149252"><ele>234.39999999999998</ele><time>2026-04-23T16:02:37Z</time></trkpt><trkpt lat="41.676298830256194" lon="13.370632656499831"><ele>234.0</ele><time>2026-04-23T16:02:38Z</time></trkpt><trkpt lat="41.67624343835909" lon="13.370549543482474"><ele>234.16666666666666</ele><time>2026-04-23T16:02:39Z</time></trkpt><trkpt lat="41.67619140350572" lon="13.370474325269518"><ele>234.33333333333331</ele><time>2026-04-23T16:02:40Z</time></trkpt><trkpt lat="41.67611708833891" lon="13.370352628803122"><ele>234.5</ele><time>2026-04-23T16:02:42Z</time></trkpt><trkpt lat="41.67608275891262" lon="13.370268985427735"><ele>234.66666666666666</ele><time>2026-04-23T16:02:44Z</time></trkpt><trkpt lat="41.67603331773102" lon="13.370184234163222"><ele>234.83333333333331</ele><time>2026-04-23T16:02:51Z</time></trkpt><trkpt lat="41.67598106134333" lon="13.370104265104363"><ele>235.0</ele><time>2026-04-23T16:02:53Z</time></trkpt><trkpt lat="41.6759493917093" lon="13.369983298981937"><ele>234.99999999999997</ele><time>2026-04-23T16:02:55Z</time></trkpt><trkpt lat="41.67594621809197" lon="13.369898419464148"><ele>235.0</ele><time>2026-04-23T16:02:56Z</time></trkpt><trkpt lat="41.675947688755386" lon="13.369808175148469"><ele>235.0</ele><time>2026-04-23T16:02:57Z</time></trkpt><trkpt lat="41.67594471015909" lon="13.369706683888984"><ele>235.0</ele><time>2026-04-23T16:02:58Z</time></trkpt><trkpt lat="41.675945114269105" lon="13.369596588432028"><ele>234.99999999999997</ele><time>2026-04-23T16:02:59Z</time></trkpt><trkpt lat="41.675944599090556" lon="13.369483266541625"><ele>235.0</ele><time>2026-04-23T16:03:00Z</time></trkpt><trkpt lat="41.67594392606164" lon="13.369374439824666"><ele>234.8</ele><time>2026-04-23T16:03:01Z</time></trkpt><trkpt lat="41.67593519045833" lon="13.36925598894189"><ele>234.6</ele><time>2026-04-23T16:03:02Z</time></trkpt><trkpt lat="41.67591975481855" lon="13.369136664361273"><ele>234.39999999999998</ele><time>2026-04-23T16:03:03Z</time></trkpt><trkpt lat="41.67589872020035" lon="13.369016479481292"><ele>234.2</ele><time>2026-04-23T16:03:04Z</time></trkpt><trkpt lat="41.67586323925861" lon="13.368897689375244"><ele>234.0</ele><time>2026-04-23T16:03:05Z</time></trkpt><trkpt lat="41.67580831667703" lon="13.36878736718488"><ele>233.79999999999998</ele><time>2026-04-23T16:03:06Z</time></trkpt><trkpt lat="41.67574987638241" lon="13.368674436941781"><ele>233.59999999999997</ele><time>2026-04-23T16:03:07Z</time></trkpt><trkpt lat="41.67569384457953" lon="13.368553449809637"><ele>233.4</ele><time>2026-04-23T16:03:08Z</time></trkpt><trkpt lat="41.67563992520476" lon="13.36843560826674"><ele>233.2</ele><time>2026-04-23T16:03:09Z</time></trkpt><trkpt lat="41.6755900182422" lon="13.3683174491694"><ele>233.0</ele><time>2026-04-23T16:03:10Z</time></trkpt><trkpt lat="41.67553617547655" lon="13.368202716505316"><ele>233.0</ele><time>2026-04-23T16:03:11Z</time></trkpt><trkpt lat="41.67548523416048" lon="13.368085027679522"><ele>233.0</ele><time>2026-04-23T16:03:11.999Z</time></trkpt><trkpt lat="41.67542932641721" lon="13.367984087379263"><ele>233.0</ele><time>2026-04-23T16:03:12.999Z</time></trkpt><trkpt lat="41.6753625339702" lon="13.367898565653121"><ele>233.0</ele><time>2026-04-23T16:03:13.999Z</time></trkpt><trkpt lat="41.67527567872886" lon="13.3678523591381"><ele>233.0</ele><time>2026-04-23T16:03:14.999Z</time></trkpt><trkpt lat="41.675171810028765" lon="13.36784896640228"><ele>232.2</ele><time>2026-04-23T16:03:15.999Z</time></trkpt><trkpt lat="41.675072765729006" lon="13.367868259694296"><ele>231.4</ele><time>2026-04-23T16:03:16.999Z</time></trkpt><trkpt lat="41.674968785103594" lon="13.367878072029113"><ele>230.59999999999997</ele><time>2026-04-23T16:03:17.999Z</time></trkpt><trkpt lat="41.674863494016684" lon="13.367886505421815"><ele>229.79999999999998</ele><time>2026-04-23T16:03:18.999Z</time></trkpt><trkpt lat="41.67476245435269" lon="13.367899162317602"><ele>229.0</ele><time>2026-04-23T16:03:19.999Z</time></trkpt><trkpt lat="41.67466348744004" lon="13.367912154652004"><ele>228.99999999999997</ele><time>2026-04-23T16:03:20.999Z</time></trkpt><trkpt lat="41.67456965315021" lon="13.367907075579499"><ele>229.0</ele><time>2026-04-23T16:03:21.999Z</time></trkpt><trkpt lat="41.674496894515364" lon="13.367873732974456"><ele>229.0</ele><time>2026-04-23T16:03:22.999Z</time></trkpt><trkpt lat="41.674447557213185" lon="13.367807876505177"><ele>229.0</ele><time>2026-04-23T16:03:23.999Z</time></trkpt><trkpt lat="41.67442035481217" lon="13.36771739886734"><ele>228.99999999999997</ele><time>2026-04-23T16:03:24.999Z</time></trkpt><trkpt lat="41.67441457017948" lon="13.367607816838515"><ele>229.0</ele><time>2026-04-23T16:03:25.999Z</time></trkpt><trkpt lat="41.67440993569629" lon="13.367497954606067"><ele>228.79999999999998</ele><time>2026-04-23T16:03:26.999Z</time></trkpt><trkpt lat="41.674405835803206" lon="13.367377882764407"><ele>228.59999999999997</ele><time>2026-04-23T16:03:27.999Z</time></trkpt><trkpt lat="41.67440154278815" lon="13.367251497511806"><ele>228.4</ele><time>2026-04-23T16:03:28.999Z</time></trkpt><trkpt lat="41.67439723053009" lon="13.367120131979298"><ele>228.2</ele><time>2026-04-23T16:03:29.999Z</time></trkpt><trkpt lat="41.67438932879277" lon="13.366989790340941"><ele>228.0</ele><time>2026-04-23T16:03:30.999Z</time></trkpt><trkpt lat="41.67438013053576" lon="13.366856522293705"><ele>228.4</ele><time>2026-04-23T16:03:31.999Z</time></trkpt><trkpt lat="41.67436679514661" lon="13.366722215320982"><ele>228.8</ele><time>2026-04-23T16:03:32.999Z</time></trkpt><trkpt lat="41.674355040268786" lon="13.366584256601193"><ele>229.2</ele><time>2026-04-23T16:03:33.999Z</time></trkpt><trkpt lat="41.67435035172708" lon="13.36644281908834"><ele>229.6</ele><time>2026-04-23T16:03:34.999Z</time></trkpt><trkpt lat="41.67434646338051" lon="13.366303297458018"><ele>230.0</ele><time>2026-04-23T16:03:35.999Z</time></trkpt><trkpt lat="41.67433120395173" lon="13.366156402088041"><ele>230.4</ele><time>2026-04-23T16:03:36.999Z</time></trkpt><trkpt lat="41.67428842916893" lon="13.36602309422609"><ele>230.8</ele><time>2026-04-23T16:03:37.999Z</time></trkpt><trkpt lat="41.67423020736511" lon="13.365899840368488"><ele>231.2</ele><time>2026-04-23T16:03:38.999Z</time></trkpt><trkpt lat="41.674166163595835" lon="13.365783875810834"><ele>231.6</ele><time>2026-04-23T16:03:39.999Z</time></trkpt><trkpt lat="41.67410391719824" lon="13.365667646628065"><ele>232.0</ele><time>2026-04-23T16:03:40.999Z</time></trkpt><trkpt lat="41.67403897289103" lon="13.365549461194504"><ele>231.99999999999997</ele><time>2026-04-23T16:03:41.999Z</time></trkpt><trkpt lat="41.6739808709022" lon="13.36543119728209"><ele>232.0</ele><time>2026-04-23T16:03:42.999Z</time></trkpt><trkpt lat="41.67392495563286" lon="13.365321423411373"><ele>232.0</ele><time>2026-04-23T16:03:43.999Z</time></trkpt><trkpt lat="41.673877534478066" lon="13.365214933331876"><ele>232.0</ele><time>2026-04-23T16:03:44.999Z</time></trkpt><trkpt lat="41.67384111829277" lon="13.365125818284696"><ele>231.99999999999997</ele><time>2026-04-23T16:03:45.999Z</time></trkpt><trkpt lat="41.67381321795544" lon="13.365039099624935"><ele>232.0</ele><time>2026-04-23T16:03:47.999Z</time></trkpt><trkpt lat="41.6737582882725" lon="13.364989409701588"><ele>232.0</ele><time>2026-04-23T16:03:56.999Z</time></trkpt><trkpt lat="41.67364990600343" lon="13.364983535003065"><ele>232.0</ele><time>2026-04-23T16:03:58.999Z</time></trkpt><trkpt lat="41.67352985547314" lon="13.364987604367089"><ele>232.0</ele><time>2026-04-23T16:04:00.999Z</time></trkpt><trkpt lat="41.67345470985229" lon="13.364993211801014"><ele>232.0</ele><time>2026-04-23T16:04:01.999Z</time></trkpt><trkpt lat="41.673375200400024" lon="13.365000903598473"><ele>232.0</ele><time>2026-04-23T16:04:02.999Z</time></trkpt><trkpt lat="41.673296419807805" lon="13.365004913434595"><ele>232.16666666666666</ele><time>2026-04-23T16:04:03.999Z</time></trkpt><trkpt lat="41.67322070688714" lon="13.365009966671778"><ele>232.33333333333331</ele><time>2026-04-23T16:04:04.999Z</time></trkpt><trkpt lat="41.67313548633178" lon="13.365016578878734"><ele>232.5</ele><time>2026-04-23T16:04:05.999Z</time></trkpt><trkpt lat="41.673046761199245" lon="13.365018450187707"><ele>232.66666666666669</ele><time>2026-04-23T16:04:06.999Z</time></trkpt><trkpt lat="41.672952272905704" lon="13.365027628607827"><ele>232.83333333333334</ele><time>2026-04-23T16:04:07.999Z</time></trkpt><trkpt lat="41.67285882794619" lon="13.365031365622478"><ele>233.0</ele><time>2026-04-23T16:04:08.999Z</time></trkpt><trkpt lat="41.67277005572208" lon="13.365026138903334"><ele>232.60000000000002</ele><time>2026-04-23T16:04:09.999Z</time></trkpt><trkpt lat="41.67267162759182" lon="13.365021608044518"><ele>232.20000000000002</ele><time>2026-04-23T16:04:10.999Z</time></trkpt><trkpt lat="41.67257277353294" lon="13.365010755401025"><ele>231.8</ele><time>2026-04-23T16:04:11.999Z</time></trkpt><trkpt lat="41.67247130825373" lon="13.364993339707084"><ele>231.4</ele><time>2026-04-23T16:04:12.999Z</time></trkpt><trkpt lat="41.67237812381499" lon="13.36496674458143"><ele>231.0</ele><time>2026-04-23T16:04:13.999Z</time></trkpt><trkpt lat="41.672287761723716" lon="13.364939340663302"><ele>231.0</ele><time>2026-04-23T16:04:14.999Z</time></trkpt><trkpt lat="41.67221619780078" lon="13.364927869708255"><ele>231.0</ele><time>2026-04-23T16:04:15.999Z</time></trkpt><trkpt lat="41.6721396261606" lon="13.364895802191356"><ele>231.0</ele><time>2026-04-23T16:04:16.999Z</time></trkpt><trkpt lat="41.672075128575806" lon="13.36485968315935"><ele>231.0</ele><time>2026-04-23T16:04:17.999Z</time></trkpt><trkpt lat="41.672016149145314" lon="13.364816090913092"><ele>231.0</ele><time>2026-04-23T16:04:18.999Z</time></trkpt><trkpt lat="41.67197273749061" lon="13.364754771193656"><ele>231.0</ele><time>2026-04-23T16:04:19.999Z</time></trkpt><trkpt lat="41.67192159047738" lon="13.36461177701789"><ele>231.0</ele><time>2026-04-23T16:04:21.999Z</time></trkpt><trkpt lat="41.671891495142496" lon="13.364525053127473"><ele>231.0</ele><time>2026-04-23T16:04:22.999Z</time></trkpt><trkpt lat="41.6718550152211" lon="13.364429765512948"><ele>231.0</ele><time>2026-04-23T16:04:23.999Z</time></trkpt><trkpt lat="41.67181250274417" lon="13.364324403844043"><ele>231.0</ele><time>2026-04-23T16:04:24.999Z</time></trkpt><trkpt lat="41.67177320045757" lon="13.364218787947035"><ele>231.0</ele><time>2026-04-23T16:04:25.999Z</time></trkpt><trkpt lat="41.67173446550806" lon="13.364111030653868"><ele>231.0</ele><time>2026-04-23T16:04:26.999Z</time></trkpt><trkpt lat="41.671686413160465" lon="13.364008696922953"><ele>231.0</ele><time>2026-04-23T16:04:27.999Z</time></trkpt><trkpt lat="41.671640828547794" lon="13.363899504149593"><ele>231.00000000000003</ele><time>2026-04-23T16:04:28.999Z</time></trkpt><trkpt lat="41.671596353129154" lon="13.36378297829892"><ele>231.00000000000003</ele><time>2026-04-23T16:04:29.999Z</time></trkpt><trkpt lat="41.67155246231001" lon="13.363667891497006"><ele>231.0</ele><time>2026-04-23T16:04:30.999Z</time></trkpt><trkpt lat="41.67150732633644" lon="13.363557156895835"><ele>231.0</ele><time>2026-04-23T16:04:31.999Z</time></trkpt><trkpt lat="41.67146898222918" lon="13.363444830998462"><ele>230.60000000000002</ele><time>2026-04-23T16:04:32.999Z</time></trkpt><trkpt lat="41.67144129575028" lon="13.363329723585098"><ele>230.20000000000002</ele><time>2026-04-23T16:04:33.999Z</time></trkpt><trkpt lat="41.671425376051424" lon="13.363205105005331"><ele>229.79999999999998</ele><time>2026-04-23T16:04:34.999Z</time></trkpt><trkpt lat="41.6714137290505" lon="13.363068779441114"><ele>229.39999999999998</ele><time>2026-04-23T16:04:35.999Z</time></trkpt><trkpt lat="41.671408641139934" lon="13.362908597939018"><ele>229.0</ele><time>2026-04-23T16:04:36.999Z</time></trkpt><trkpt lat="41.671395068066715" lon="13.362750648486704"><ele>228.5</ele><time>2026-04-23T16:04:37.999Z</time></trkpt><trkpt lat="41.67138457110735" lon="13.362603057275985"><ele>228.0</ele><time>2026-04-23T16:04:38.999Z</time></trkpt><trkpt lat="41.671375684925366" lon="13.362449053797453"><ele>227.5</ele><time>2026-04-23T16:04:39.999Z</time></trkpt><trkpt lat="41.6713700165433" lon="13.362287817986022"><ele>227.0</ele><time>2026-04-23T16:04:40.999Z</time></trkpt><trkpt lat="41.67135638896425" lon="13.362128368296055"><ele>226.75</ele><time>2026-04-23T16:04:41.999Z</time></trkpt><trkpt lat="41.671345449084065" lon="13.361968772795413"><ele>226.5</ele><time>2026-04-23T16:04:42.999Z</time></trkpt><trkpt lat="41.67133553861268" lon="13.361807906309624"><ele>226.25</ele><time>2026-04-23T16:04:43.999Z</time></trkpt><trkpt lat="41.67133077954816" lon="13.361650279070997"><ele>226.0</ele><time>2026-04-23T16:04:44.999Z</time></trkpt><trkpt lat="41.671328622937445" lon="13.361485000081112"><ele>226.5</ele><time>2026-04-23T16:04:45.999Z</time></trkpt><trkpt lat="41.671329434515336" lon="13.361316933036456"><ele>227.0</ele><time>2026-04-23T16:04:46.999Z</time></trkpt><trkpt lat="41.67133205771286" lon="13.361157247381215"><ele>227.5</ele><time>2026-04-23T16:04:47.999Z</time></trkpt><trkpt lat="41.67134133156821" lon="13.361006422928394"><ele>228.0</ele><time>2026-04-23T16:04:48.999Z</time></trkpt><trkpt lat="41.67135531428843" lon="13.360850963451357"><ele>228.0</ele><time>2026-04-23T16:04:49.999Z</time></trkpt><trkpt lat="41.671374935204234" lon="13.360700139000674"><ele>228.0</ele><time>2026-04-23T16:04:50.999Z</time></trkpt><trkpt lat="41.67139628614162" lon="13.360549627618106"><ele>228.0</ele><time>2026-04-23T16:04:51.999Z</time></trkpt><trkpt lat="41.67141841341164" lon="13.360401622748883"><ele>228.0</ele><time>2026-04-23T16:04:52.999Z</time></trkpt><trkpt lat="41.671438202846126" lon="13.36025355865934"><ele>228.0</ele><time>2026-04-23T16:04:53.999Z</time></trkpt><trkpt lat="41.67146411363821" lon="13.360109147995233"><ele>228.0</ele><time>2026-04-23T16:04:54.999Z</time></trkpt><trkpt lat="41.671492580023575" lon="13.359968437761635"><ele>228.0</ele><time>2026-04-23T16:04:55.999Z</time></trkpt><trkpt lat="41.6715245087992" lon="13.359831481659423"><ele>228.0</ele><time>2026-04-23T16:04:56.999Z</time></trkpt><trkpt lat="41.67155788667414" lon="13.359691948682851"><ele>228.0</ele><time>2026-04-23T16:04:57.999Z</time></trkpt><trkpt lat="41.67159037326626" lon="13.359551363715982"><ele>228.0</ele><time>2026-04-23T16:04:58.999Z</time></trkpt><trkpt lat="41.67161880701393" lon="13.359411428005956"><ele>228.0</ele><time>2026-04-23T16:04:59.999Z</time></trkpt><trkpt lat="41.671649018237815" lon="13.359272148802715"><ele>228.0</ele><time>2026-04-23T16:05:00.999Z</time></trkpt><trkpt lat="41.67168359187001" lon="13.359129337508191"><ele>228.0</ele><time>2026-04-23T16:05:01.999Z</time></trkpt><trkpt lat="41.67171646652613" lon="13.358986645043034"><ele>228.0</ele><time>2026-04-23T16:05:02.999Z</time></trkpt><trkpt lat="41.67175465345137" lon="13.35884611894959"><ele>228.0</ele><time>2026-04-23T16:05:03.999Z</time></trkpt><trkpt lat="41.67179424145565" lon="13.358697522682522"><ele>228.0</ele><time>2026-04-23T16:05:04.999Z</time></trkpt><trkpt lat="41.67183366626607" lon="13.358548211229559"><ele>228.0</ele><time>2026-04-23T16:05:05.999Z</time></trkpt><trkpt lat="41.671872586567495" lon="13.358395415548392"><ele>228.0</ele><time>2026-04-23T16:05:06.999Z</time></trkpt><trkpt lat="41.67190764972449" lon="13.358239136692955"><ele>228.0</ele><time>2026-04-23T16:05:07.999Z</time></trkpt><trkpt lat="41.671932499758015" lon="13.358074852122813"><ele>228.0</ele><time>2026-04-23T16:05:08.999Z</time></trkpt><trkpt lat="41.67195598887093" lon="13.357911578735784"><ele>228.0</ele><time>2026-04-23T16:05:09.999Z</time></trkpt><trkpt lat="41.67198053526296" lon="13.357742121869256"><ele>228.0</ele><time>2026-04-23T16:05:10.999Z</time></trkpt><trkpt lat="41.672009749682616" lon="13.357577377124967"><ele>227.75</ele><time>2026-04-23T16:05:11.999Z</time></trkpt><trkpt lat="41.67204434915936" lon="13.357410686196575"><ele>227.5</ele><time>2026-04-23T16:05:12.999Z</time></trkpt><trkpt lat="41.67207995444645" lon="13.35724345712263"><ele>227.25</ele><time>2026-04-23T16:05:13.999Z</time></trkpt><trkpt lat="41.67211393689932" lon="13.357077316452813"><ele>227.0</ele><time>2026-04-23T16:05:14.999Z</time></trkpt><trkpt lat="41.67216629117644" lon="13.356913931490123"><ele>226.75</ele><time>2026-04-23T16:05:15.999Z</time></trkpt><trkpt lat="41.672217560612125" lon="13.356755166778093"><ele>226.5</ele><time>2026-04-23T16:05:16.999Z</time></trkpt><trkpt lat="41.67227855768927" lon="13.356598589331215"><ele>226.25</ele><time>2026-04-23T16:05:17.999Z</time></trkpt><trkpt lat="41.672345242350154" lon="13.356444551397706"><ele>226.0</ele><time>2026-04-23T16:05:18.999Z</time></trkpt><trkpt lat="41.67240742987353" lon="13.356287051417773"><ele>226.5</ele><time>2026-04-23T16:05:19.999Z</time></trkpt><trkpt lat="41.672458873507345" lon="13.356126142988382"><ele>227.0</ele><time>2026-04-23T16:05:20.999Z</time></trkpt><trkpt lat="41.67250116475606" lon="13.355957655424762"><ele>227.5</ele><time>2026-04-23T16:05:21.999Z</time></trkpt><trkpt lat="41.67253897748996" lon="13.355780922160076"><ele>228.0</ele><time>2026-04-23T16:05:22.999Z</time></trkpt><trkpt lat="41.67257293003522" lon="13.355602683647113"><ele>228.25</ele><time>2026-04-23T16:05:23.999Z</time></trkpt><trkpt lat="41.67261085510154" lon="13.355422182584096"><ele>228.5</ele><time>2026-04-23T16:05:24.999Z</time></trkpt><trkpt lat="41.672648672826526" lon="13.355238374091595"><ele>228.75</ele><time>2026-04-23T16:05:25.999Z</time></trkpt><trkpt lat="41.67268624045829" lon="13.355056270497785"><ele>229.0</ele><time>2026-04-23T16:05:26.999Z</time></trkpt><trkpt lat="41.67272854595534" lon="13.354873830072917"><ele>229.25</ele><time>2026-04-23T16:05:27.999Z</time></trkpt><trkpt lat="41.672768970207656" lon="13.35468932458264"><ele>229.5</ele><time>2026-04-23T16:05:28.999Z</time></trkpt><trkpt lat="41.67281060772927" lon="13.354505219484139"><ele>229.75</ele><time>2026-04-23T16:05:29.999Z</time></trkpt><trkpt lat="41.67285044585884" lon="13.354319440551494"><ele>230.0</ele><time>2026-04-23T16:05:30.999Z</time></trkpt><trkpt lat="41.672890457046805" lon="13.354138907204767"><ele>230.0</ele><time>2026-04-23T16:05:31.999Z</time></trkpt><trkpt lat="41.67292489754585" lon="13.353961780580171"><ele>230.0</ele><time>2026-04-23T16:05:32.999Z</time></trkpt><trkpt lat="41.67295469764146" lon="13.35378499053605"><ele>230.0</ele><time>2026-04-23T16:05:33.999Z</time></trkpt><trkpt lat="41.67298066304268" lon="13.353613242532813"><ele>230.0</ele><time>2026-04-23T16:05:34.999Z</time></trkpt><trkpt lat="41.67300559292245" lon="13.35344506749268"><ele>229.5</ele><time>2026-04-23T16:05:35.999Z</time></trkpt><trkpt lat="41.67302947500778" lon="13.353282229044787"><ele>229.0</ele><time>2026-04-23T16:05:36.999Z</time></trkpt><trkpt lat="41.67304635836778" lon="13.353121357243408"><ele>228.5</ele><time>2026-04-23T16:05:37.999Z</time></trkpt><trkpt lat="41.67306569075086" lon="13.352965486926971"><ele>228.0</ele><time>2026-04-23T16:05:38.999Z</time></trkpt><trkpt lat="41.67308208831272" lon="13.352811464371337"><ele>228.0</ele><time>2026-04-23T16:05:39.999Z</time></trkpt><trkpt lat="41.673088811604565" lon="13.352654435679025"><ele>228.0</ele><time>2026-04-23T16:05:40.999Z</time></trkpt><trkpt lat="41.67308538998492" lon="13.35249783847215"><ele>228.0</ele><time>2026-04-23T16:05:41.999Z</time></trkpt><trkpt lat="41.673078294206526" lon="13.352340858178556"><ele>228.0</ele><time>2026-04-23T16:05:42.999Z</time></trkpt><trkpt lat="41.67307643598086" lon="13.35217405311021"><ele>228.25</ele><time>2026-04-23T16:05:43.999Z</time></trkpt><trkpt lat="41.6730751124976" lon="13.352006268262114"><ele>228.5</ele><time>2026-04-23T16:05:44.999Z</time></trkpt><trkpt lat="41.673073806185464" lon="13.351846378159399"><ele>228.75</ele><time>2026-04-23T16:05:45.999Z</time></trkpt><trkpt lat="41.67307234363246" lon="13.351677914965856"><ele>229.0</ele><time>2026-04-23T16:05:46.999Z</time></trkpt><trkpt lat="41.67307359984033" lon="13.351509752164372"><ele>229.0</ele><time>2026-04-23T16:05:47.999Z</time></trkpt><trkpt lat="41.67308231512721" lon="13.351343799555286"><ele>229.0</ele><time>2026-04-23T16:05:48.999Z</time></trkpt><trkpt lat="41.67309478394204" lon="13.351176528164254"><ele>229.0</ele><time>2026-04-23T16:05:49.999Z</time></trkpt><trkpt lat="41.673109767386" lon="13.351010837913002"><ele>229.0</ele><time>2026-04-23T16:05:50.999Z</time></trkpt><trkpt lat="41.67315976527482" lon="13.350789943179302"><ele>229.0</ele><time>2026-04-23T16:05:51.999Z</time></trkpt><trkpt lat="41.67318441906802" lon="13.350620299710167"><ele>229.0</ele><time>2026-04-23T16:05:52.999Z</time></trkpt><trkpt lat="41.673214343590445" lon="13.350459753689563"><ele>229.0</ele><time>2026-04-23T16:05:53.999Z</time></trkpt><trkpt lat="41.67325010819776" lon="13.350307916665027"><ele>229.0</ele><time>2026-04-23T16:05:54.999Z</time></trkpt><trkpt lat="41.67328896113588" lon="13.350146225273814"><ele>229.0</ele><time>2026-04-23T16:05:55.999Z</time></trkpt><trkpt lat="41.6733266293049" lon="13.34998834425996"><ele>229.0</ele><time>2026-04-23T16:05:56.999Z</time></trkpt><trkpt lat="41.67336197417754" lon="13.34983596485938"><ele>229.0</ele><time>2026-04-23T16:05:57.999Z</time></trkpt><trkpt lat="41.67339482912072" lon="13.3496854998555"><ele>229.0</ele><time>2026-04-23T16:05:58.999Z</time></trkpt><trkpt lat="41.67342073505863" lon="13.349523890518608"><ele>228.79999999999998</ele><time>2026-04-23T16:05:59.999Z</time></trkpt><trkpt lat="41.673457265265476" lon="13.349378398904781"><ele>228.59999999999997</ele><time>2026-04-23T16:06:00.999Z</time></trkpt><trkpt lat="41.673486671998" lon="13.349237593387775"><ele>228.4</ele><time>2026-04-23T16:06:01.999Z</time></trkpt><trkpt lat="41.67351032545789" lon="13.349105488524014"><ele>228.2</ele><time>2026-04-23T16:06:02.999Z</time></trkpt><trkpt lat="41.673535695112015" lon="13.348971744834403"><ele>228.0</ele><time>2026-04-23T16:06:03.999Z</time></trkpt><trkpt lat="41.67356632210571" lon="13.348845575731689"><ele>228.0</ele><time>2026-04-23T16:06:04.999Z</time></trkpt><trkpt lat="41.67359371872849" lon="13.348719010219314"><ele>228.0</ele><time>2026-04-23T16:06:05.999Z</time></trkpt><trkpt lat="41.673620554765996" lon="13.348599232246288"><ele>228.0</ele><time>2026-04-23T16:06:06.999Z</time></trkpt><trkpt lat="41.673642220417435" lon="13.348485760506573"><ele>228.0</ele><time>2026-04-23T16:06:07.999Z</time></trkpt><trkpt lat="41.67366581242571" lon="13.348368262804932"><ele>228.0</ele><time>2026-04-23T16:06:08.999Z</time></trkpt><trkpt lat="41.673686354810854" lon="13.348260753855875"><ele>228.28571428571428</ele><time>2026-04-23T16:06:09.999Z</time></trkpt><trkpt lat="41.67370123778197" lon="13.348162026818326"><ele>228.57142857142856</ele><time>2026-04-23T16:06:10.999Z</time></trkpt><trkpt lat="41.67371371373624" lon="13.348073824121716"><ele>228.85714285714283</ele><time>2026-04-23T16:06:11.999Z</time></trkpt><trkpt lat="41.673740076700106" lon="13.347971414049463"><ele>229.1428571428571</ele><time>2026-04-23T16:06:14.999Z</time></trkpt><trkpt lat="41.673705127565974" lon="13.347888671459406"><ele>229.42857142857142</ele><time>2026-04-23T16:06:33.999Z</time></trkpt><trkpt lat="41.67365153506375" lon="13.347837296708365"><ele>229.71428571428567</ele><time>2026-04-23T16:06:34.999Z</time></trkpt><trkpt lat="41.67357241627178" lon="13.347823565371025"><ele>229.99999999999997</ele><time>2026-04-23T16:06:35.999Z</time></trkpt><trkpt lat="41.67349230529887" lon="13.347802325691944"><ele>230.0</ele><time>2026-04-23T16:06:36.999Z</time></trkpt><trkpt lat="41.67339498227138" lon="13.347775147739402"><ele>230.0</ele><time>2026-04-23T16:06:37.999Z</time></trkpt><trkpt lat="41.67328954419339" lon="13.34773348086632"><ele>230.0</ele><time>2026-04-23T16:06:38.999Z</time></trkpt><trkpt lat="41.67317798991891" lon="13.347722203115763"><ele>230.0</ele><time>2026-04-23T16:06:39.999Z</time></trkpt><trkpt lat="41.67305958337518" lon="13.347695710057028"><ele>230.0</ele><time>2026-04-23T16:06:40.999Z</time></trkpt><trkpt lat="41.67293400288497" lon="13.347683490240629"><ele>230.0</ele><time>2026-04-23T16:06:41.999Z</time></trkpt><trkpt lat="41.672806133186945" lon="13.347655851228398"><ele>230.0</ele><time>2026-04-23T16:06:42.999Z</time></trkpt><trkpt lat="41.672673042663426" lon="13.34765848253124"><ele>230.0</ele><time>2026-04-23T16:06:43.999Z</time></trkpt><trkpt lat="41.67253683406281" lon="13.347669899509679"><ele>230.0</ele><time>2026-04-23T16:06:44.999Z</time></trkpt><trkpt lat="41.672404973811226" lon="13.347683922444213"><ele>229.75</ele><time>2026-04-23T16:06:45.999Z</time></trkpt><trkpt lat="41.672272360193716" lon="13.34769832258387"><ele>229.5</ele><time>2026-04-23T16:06:46.999Z</time></trkpt><trkpt lat="41.67214450081135" lon="13.34771257099135"><ele>229.25</ele><time>2026-04-23T16:06:47.999Z</time></trkpt><trkpt lat="41.67202629013831" lon="13.34774679419141"><ele>229.0</ele><time>2026-04-23T16:06:48.999Z</time></trkpt><trkpt lat="41.671920203265145" lon="13.347736358414807"><ele>228.79999999999998</ele><time>2026-04-23T16:06:49.999Z</time></trkpt><trkpt lat="41.67179811351586" lon="13.347750219106903"><ele>228.59999999999997</ele><time>2026-04-23T16:06:50.999Z</time></trkpt><trkpt lat="41.67168675667607" lon="13.347761973207785"><ele>228.4</ele><time>2026-04-23T16:06:51.999Z</time></trkpt><trkpt lat="41.67158892870881" lon="13.347772559064026"><ele>228.2</ele><time>2026-04-23T16:06:52.999Z</time></trkpt><trkpt lat="41.671492953281295" lon="13.347783498469957"><ele>228.0</ele><time>2026-04-23T16:06:53.999Z</time></trkpt><trkpt lat="41.67140124823338" lon="13.347815499839015"><ele>228.0</ele><time>2026-04-23T16:06:54.999Z</time></trkpt><trkpt lat="41.6713091875906" lon="13.347821042538447"><ele>228.0</ele><time>2026-04-23T16:06:55.999Z</time></trkpt><trkpt lat="41.67121987087869" lon="13.347833571681216"><ele>228.0</ele><time>2026-04-23T16:06:56.999Z</time></trkpt><trkpt lat="41.67113014609063" lon="13.347843727957066"><ele>228.0</ele><time>2026-04-23T16:06:57.999Z</time></trkpt><trkpt lat="41.67103515909728" lon="13.347858297184402"><ele>228.0</ele><time>2026-04-23T16:06:58.999Z</time></trkpt><trkpt lat="41.67093547354553" lon="13.347868879953511"><ele>227.25</ele><time>2026-04-23T16:06:59.999Z</time></trkpt><trkpt lat="41.67082809547782" lon="13.347879857714402"><ele>226.5</ele><time>2026-04-23T16:07:00.999Z</time></trkpt><trkpt lat="41.67070973056802" lon="13.347895369432418"><ele>225.75</ele><time>2026-04-23T16:07:01.999Z</time></trkpt><trkpt lat="41.67058365023202" lon="13.347915718416795"><ele>225.0</ele><time>2026-04-23T16:07:02.999Z</time></trkpt><trkpt lat="41.67045432662128" lon="13.347934719682717"><ele>225.0</ele><time>2026-04-23T16:07:03.999Z</time></trkpt><trkpt lat="41.670332197282605" lon="13.347952043793299"><ele>225.0</ele><time>2026-04-23T16:07:04.999Z</time></trkpt><trkpt lat="41.670218311101294" lon="13.347966044487288"><ele>225.0</ele><time>2026-04-23T16:07:05.999Z</time></trkpt><trkpt lat="41.67010786507095" lon="13.347983668613232"><ele>225.0</ele><time>2026-04-23T16:07:06.999Z</time></trkpt><trkpt lat="41.669987917186674" lon="13.347996307435873"><ele>224.5</ele><time>2026-04-23T16:07:07.999Z</time></trkpt><trkpt lat="41.66986434188343" lon="13.348007316715403"><ele>224.0</ele><time>2026-04-23T16:07:08.999Z</time></trkpt><trkpt lat="41.6697398121004" lon="13.348012189053248"><ele>223.5</ele><time>2026-04-23T16:07:09.999Z</time></trkpt><trkpt lat="41.66961533633499" lon="13.348001724026412"><ele>223.0</ele><time>2026-04-23T16:07:10.999Z</time></trkpt><trkpt lat="41.66948895151805" lon="13.347976443625692"><ele>222.25</ele><time>2026-04-23T16:07:11.999Z</time></trkpt><trkpt lat="41.669366491649136" lon="13.347941638791731"><ele>221.5</ele><time>2026-04-23T16:07:12.999Z</time></trkpt><trkpt lat="41.669245056291224" lon="13.347899484638468"><ele>220.75</ele><time>2026-04-23T16:07:13.999Z</time></trkpt><trkpt lat="41.66913131095693" lon="13.347850870923825"><ele>220.0</ele><time>2026-04-23T16:07:14.999Z</time></trkpt><trkpt lat="41.669019563392986" lon="13.347802815411972"><ele>220.0</ele><time>2026-04-23T16:07:15.999Z</time></trkpt><trkpt lat="41.66890972827834" lon="13.347756907441727"><ele>220.0</ele><time>2026-04-23T16:07:16.999Z</time></trkpt><trkpt lat="41.66879939502562" lon="13.34771351880277"><ele>220.0</ele><time>2026-04-23T16:07:17.999Z</time></trkpt><trkpt lat="41.66869412780356" lon="13.347670268900654"><ele>220.0</ele><time>2026-04-23T16:07:18.999Z</time></trkpt><trkpt lat="41.668587839057565" lon="13.347628699572649"><ele>220.0</ele><time>2026-04-23T16:07:19.999Z</time></trkpt><trkpt lat="41.66848558256976" lon="13.347588092550335"><ele>220.0</ele><time>2026-04-23T16:07:20.999Z</time></trkpt><trkpt lat="41.668383151567326" lon="13.347546708923797"><ele>220.0</ele><time>2026-04-23T16:07:21.999Z</time></trkpt><trkpt lat="41.66828139123439" lon="13.347506270275893"><ele>220.0</ele><time>2026-04-23T16:07:22.999Z</time></trkpt><trkpt lat="41.668176611845844" lon="13.347461797479495"><ele>220.0</ele><time>2026-04-23T16:07:23.999Z</time></trkpt><trkpt lat="41.66807303165123" lon="13.347418904459568"><ele>220.0</ele><time>2026-04-23T16:07:24.999Z</time></trkpt><trkpt lat="41.66797177264391" lon="13.347377126181545"><ele>220.0</ele><time>2026-04-23T16:07:25.999Z</time></trkpt><trkpt lat="41.6678734845864" lon="13.34733451393033"><ele>220.0</ele><time>2026-04-23T16:07:26.999Z</time></trkpt><trkpt lat="41.66777520163499" lon="13.347291253075586"><ele>220.0</ele><time>2026-04-23T16:07:27.999Z</time></trkpt><trkpt lat="41.667677164334734" lon="13.347249782453693"><ele>220.0</ele><time>2026-04-23T16:07:28.999Z</time></trkpt><trkpt lat="41.66757837108687" lon="13.347207143603503"><ele>219.6</ele><time>2026-04-23T16:07:29.999Z</time></trkpt><trkpt lat="41.66747886591878" lon="13.347166607034888"><ele>219.2</ele><time>2026-04-23T16:07:30.999Z</time></trkpt><trkpt lat="41.66738614985718" lon="13.347104793754406"><ele>218.8</ele><time>2026-04-23T16:07:31.999Z</time></trkpt><trkpt lat="41.667290985762484" lon="13.347063914078547"><ele>218.4</ele><time>2026-04-23T16:07:32.999Z</time></trkpt><trkpt lat="41.66719659220719" lon="13.347023365451498"><ele>218.0</ele><time>2026-04-23T16:07:34Z</time></trkpt><trkpt lat="41.66710173607038" lon="13.346982618107017"><ele>218.0</ele><time>2026-04-23T16:07:35Z</time></trkpt><trkpt lat="41.667009953756825" lon="13.346943191206304"><ele>218.0</ele><time>2026-04-23T16:07:36Z</time></trkpt><trkpt lat="41.6669171812839" lon="13.346903338910503"><ele>218.0</ele><time>2026-04-23T16:07:37Z</time></trkpt><trkpt lat="41.666822019330596" lon="13.346862460169346"><ele>218.0</ele><time>2026-04-23T16:07:38Z</time></trkpt><trkpt lat="41.666726243950855" lon="13.346821317959082"><ele>218.0</ele><time>2026-04-23T16:07:39Z</time></trkpt><trkpt lat="41.66662731708624" lon="13.34677882192056"><ele>218.0</ele><time>2026-04-23T16:07:40Z</time></trkpt><trkpt lat="41.66652865964111" lon="13.34673608051802"><ele>218.0</ele><time>2026-04-23T16:07:41Z</time></trkpt><trkpt lat="41.66642957777026" lon="13.346690402276316"><ele>218.0</ele><time>2026-04-23T16:07:42Z</time></trkpt><trkpt lat="41.66633024937269" lon="13.346642417014836"><ele>218.0</ele><time>2026-04-23T16:07:43Z</time></trkpt><trkpt lat="41.66622816771535" lon="13.346610646325054"><ele>218.0</ele><time>2026-04-23T16:07:44Z</time></trkpt><trkpt lat="41.666134550081956" lon="13.346561204340471"><ele>217.60000000000002</ele><time>2026-04-23T16:07:45Z</time></trkpt><trkpt lat="41.66604244301167" lon="13.346508344108738"><ele>217.20000000000002</ele><time>2026-04-23T16:07:46Z</time></trkpt><trkpt lat="41.66595457368807" lon="13.346455539157551"><ele>216.8</ele><time>2026-04-23T16:07:47Z</time></trkpt><trkpt lat="41.66586532125835" lon="13.346404773032607"><ele>216.4</ele><time>2026-04-23T16:07:48Z</time></trkpt><trkpt lat="41.66577449036838" lon="13.346351620450173"><ele>216.0</ele><time>2026-04-23T16:07:49Z</time></trkpt><trkpt lat="41.66568251546784" lon="13.346298942870893"><ele>216.0</ele><time>2026-04-23T16:07:50Z</time></trkpt><trkpt lat="41.66558691503115" lon="13.34624392271506"><ele>216.00000000000003</ele><time>2026-04-23T16:07:51Z</time></trkpt><trkpt lat="41.66549249112231" lon="13.346191434394443"><ele>216.00000000000003</ele><time>2026-04-23T16:07:52Z</time></trkpt><trkpt lat="41.665396313080755" lon="13.346138267903234"><ele>216.0</ele><time>2026-04-23T16:07:53Z</time></trkpt><trkpt lat="41.66530449744863" lon="13.346062903964766"><ele>216.0</ele><time>2026-04-23T16:07:54Z</time></trkpt><trkpt lat="41.665206616180924" lon="13.346006179378962"><ele>215.5</ele><time>2026-04-23T16:07:55Z</time></trkpt><trkpt lat="41.665103200919525" lon="13.345946247729188"><ele>215.0</ele><time>2026-04-23T16:07:56Z</time></trkpt><trkpt lat="41.66500029895969" lon="13.34588661352074"><ele>214.5</ele><time>2026-04-23T16:07:57Z</time></trkpt><trkpt lat="41.6648858770445" lon="13.345820303231525"><ele>214.0</ele><time>2026-04-23T16:07:58Z</time></trkpt><trkpt lat="41.664788864384704" lon="13.345764082039905"><ele>214.0</ele><time>2026-04-23T16:07:59Z</time></trkpt><trkpt lat="41.66467924386214" lon="13.34570082301805"><ele>214.0</ele><time>2026-04-23T16:08:00Z</time></trkpt><trkpt lat="41.66457290257119" lon="13.345641222672105"><ele>214.0</ele><time>2026-04-23T16:08:01Z</time></trkpt><trkpt lat="41.66445798728116" lon="13.34560818980082"><ele>214.0</ele><time>2026-04-23T16:08:02Z</time></trkpt><trkpt lat="41.664355065202614" lon="13.345550581359033"><ele>214.0</ele><time>2026-04-23T16:08:03Z</time></trkpt><trkpt lat="41.6642549761434" lon="13.345494630976969"><ele>213.99999999999997</ele><time>2026-04-23T16:08:04Z</time></trkpt><trkpt lat="41.664156154715876" lon="13.345441584004021"><ele>213.99999999999997</ele><time>2026-04-23T16:08:05Z</time></trkpt><trkpt lat="41.664057716249076" lon="13.345393539606697"><ele>214.0</ele><time>2026-04-23T16:08:06Z</time></trkpt><trkpt lat="41.66396317002083" lon="13.345351540902609"><ele>214.0</ele><time>2026-04-23T16:08:07Z</time></trkpt><trkpt lat="41.663876875788425" lon="13.345270570768339"><ele>214.0</ele><time>2026-04-23T16:08:08Z</time></trkpt><trkpt lat="41.66377188581852" lon="13.345270091219186"><ele>213.99999999999997</ele><time>2026-04-23T16:08:09Z</time></trkpt><trkpt lat="41.66367570843183" lon="13.345233522844339"><ele>213.99999999999997</ele><time>2026-04-23T16:08:10Z</time></trkpt><trkpt lat="41.66357949120187" lon="13.34520058010699"><ele>214.0</ele><time>2026-04-23T16:08:11Z</time></trkpt><trkpt lat="41.66347850394019" lon="13.345169220151822"><ele>214.0</ele><time>2026-04-23T16:08:12Z</time></trkpt><trkpt lat="41.66339013590437" lon="13.345099970939307"><ele>214.0</ele><time>2026-04-23T16:08:13Z</time></trkpt><trkpt lat="41.66329467438499" lon="13.34507321694772"><ele>213.99999999999997</ele><time>2026-04-23T16:08:14Z</time></trkpt><trkpt lat="41.66319319488796" lon="13.345044776418971"><ele>213.99999999999997</ele><time>2026-04-23T16:08:15Z</time></trkpt><trkpt lat="41.66309399553341" lon="13.345016309091003"><ele>214.0</ele><time>2026-04-23T16:08:16Z</time></trkpt><trkpt lat="41.66299562535026" lon="13.344988106985543"><ele>214.0</ele><time>2026-04-23T16:08:17Z</time></trkpt><trkpt lat="41.66289618558183" lon="13.344959598249519"><ele>214.0</ele><time>2026-04-23T16:08:18Z</time></trkpt><trkpt lat="41.662790884086114" lon="13.344929408999697"><ele>213.99999999999997</ele><time>2026-04-23T16:08:19Z</time></trkpt><trkpt lat="41.66268808915222" lon="13.34489966217056"><ele>213.99999999999997</ele><time>2026-04-23T16:08:20Z</time></trkpt><trkpt lat="41.66258807818679" lon="13.344868948291188"><ele>214.0</ele><time>2026-04-23T16:08:21Z</time></trkpt><trkpt lat="41.66249234766684" lon="13.344838846929976"><ele>214.0</ele><time>2026-04-23T16:08:22Z</time></trkpt><trkpt lat="41.66239791863827" lon="13.34480823027161"><ele>213.79999999999998</ele><time>2026-04-23T16:08:23Z</time></trkpt><trkpt lat="41.66231133223438" lon="13.34477739952464"><ele>213.59999999999997</ele><time>2026-04-23T16:08:24Z</time></trkpt><trkpt lat="41.66222041361051" lon="13.34474502624006"><ele>213.4</ele><time>2026-04-23T16:08:25Z</time></trkpt><trkpt lat="41.66212954924518" lon="13.344715259070671"><ele>213.2</ele><time>2026-04-23T16:08:26Z</time></trkpt><trkpt lat="41.66203867905193" lon="13.344686436364867"><ele>213.0</ele><time>2026-04-23T16:08:27Z</time></trkpt><trkpt lat="41.66194575496952" lon="13.344660841736161"><ele>212.8</ele><time>2026-04-23T16:08:28Z</time></trkpt><trkpt lat="41.66185147628366" lon="13.344635725011205"><ele>212.60000000000002</ele><time>2026-04-23T16:08:29Z</time></trkpt><trkpt lat="41.6617551942603" lon="13.34461283622489"><ele>212.39999999999998</ele><time>2026-04-23T16:08:30Z</time></trkpt><trkpt lat="41.661658490593524" lon="13.344590208828564"><ele>212.2</ele><time>2026-04-23T16:08:31Z</time></trkpt><trkpt lat="41.6615651588151" lon="13.344568369592508"><ele>212.0</ele><time>2026-04-23T16:08:32Z</time></trkpt><trkpt lat="41.66147339121012" lon="13.344549218399589"><ele>212.00000000000003</ele><time>2026-04-23T16:08:33Z</time></trkpt><trkpt lat="41.661386028148435" lon="13.344532115786121"><ele>212.0</ele><time>2026-04-23T16:08:34Z</time></trkpt><trkpt lat="41.66129993980713" lon="13.344515262735092"><ele>212.0</ele><time>2026-04-23T16:08:35Z</time></trkpt><trkpt lat="41.66121884720402" lon="13.344499893024619"><ele>212.0</ele><time>2026-04-23T16:08:36Z</time></trkpt><trkpt lat="41.66114125340724" lon="13.344485259831256"><ele>212.00000000000003</ele><time>2026-04-23T16:08:37Z</time></trkpt><trkpt lat="41.66106762196569" lon="13.344471372424573"><ele>212.0</ele><time>2026-04-23T16:08:38Z</time></trkpt><trkpt lat="41.66099566199988" lon="13.344456175747275"><ele>211.66666666666669</ele><time>2026-04-23T16:08:39Z</time></trkpt><trkpt lat="41.660926026423816" lon="13.344442943487714"><ele>211.33333333333334</ele><time>2026-04-23T16:08:40Z</time></trkpt><trkpt lat="41.660853777861774" lon="13.344429214705443"><ele>211.0</ele><time>2026-04-23T16:08:41Z</time></trkpt><trkpt lat="41.660777805835025" lon="13.344414778384415"><ele>210.66666666666669</ele><time>2026-04-23T16:08:42Z</time></trkpt><trkpt lat="41.660699137628896" lon="13.34440019216714"><ele>210.33333333333334</ele><time>2026-04-23T16:08:43Z</time></trkpt><trkpt lat="41.66061771437696" lon="13.344386110557448"><ele>210.0</ele><time>2026-04-23T16:08:44Z</time></trkpt><trkpt lat="41.66053320091902" lon="13.344374850832944"><ele>210.0</ele><time>2026-04-23T16:08:45Z</time></trkpt><trkpt lat="41.66045079596982" lon="13.3443694888935"><ele>210.0</ele><time>2026-04-23T16:08:46Z</time></trkpt><trkpt lat="41.6603701303819" lon="13.344369488892978"><ele>210.0</ele><time>2026-04-23T16:08:47Z</time></trkpt><trkpt lat="41.660286275365145" lon="13.344372472540607"><ele>210.0</ele><time>2026-04-23T16:08:48Z</time></trkpt><trkpt lat="41.66020138610599" lon="13.344376004771213"><ele>210.0</ele><time>2026-04-23T16:08:49Z</time></trkpt><trkpt lat="41.66011394409779" lon="13.34438244349276"><ele>210.0</ele><time>2026-04-23T16:08:50Z</time></trkpt><trkpt lat="41.660024169237936" lon="13.344390675007334"><ele>209.8</ele><time>2026-04-23T16:08:51Z</time></trkpt><trkpt lat="41.659935224304526" lon="13.34439942702622"><ele>209.6</ele><time>2026-04-23T16:08:52Z</time></trkpt><trkpt lat="41.659846456628756" lon="13.344407129035393"><ele>209.39999999999998</ele><time>2026-04-23T16:08:53Z</time></trkpt><trkpt lat="41.65975509380293" lon="13.34441149880546"><ele>209.2</ele><time>2026-04-23T16:08:54Z</time></trkpt><trkpt lat="41.65966271965952" lon="13.344410346554307"><ele>209.0</ele><time>2026-04-23T16:08:55Z</time></trkpt><trkpt lat="41.65957127333782" lon="13.344400755612531"><ele>209.00000000000003</ele><time>2026-04-23T16:08:56Z</time></trkpt><trkpt lat="41.659475990689316" lon="13.344386540062937"><ele>209.0</ele><time>2026-04-23T16:08:57Z</time></trkpt><trkpt lat="41.6593834645298" lon="13.344369822386962"><ele>209.0</ele><time>2026-04-23T16:08:58Z</time></trkpt><trkpt lat="41.65929313315478" lon="13.344353104498312"><ele>209.0</ele><time>2026-04-23T16:08:59Z</time></trkpt><trkpt lat="41.65921103600845" lon="13.344336529253157"><ele>209.00000000000003</ele><time>2026-04-23T16:09:00Z</time></trkpt><trkpt lat="41.6591289836526" lon="13.344319963052397"><ele>209.0</ele><time>2026-04-23T16:09:01Z</time></trkpt><trkpt lat="41.65904807009062" lon="13.344303626785912"><ele>208.57142857142856</ele><time>2026-04-23T16:09:02Z</time></trkpt><trkpt lat="41.65897336251775" lon="13.344288543576504"><ele>208.14285714285714</ele><time>2026-04-23T16:09:03Z</time></trkpt><trkpt lat="41.65890013681297" lon="13.344274291086233"><ele>207.71428571428572</ele><time>2026-04-23T16:09:04Z</time></trkpt><trkpt lat="41.65883215458722" lon="13.344260894902321"><ele>207.28571428571428</ele><time>2026-04-23T16:09:05Z</time></trkpt><trkpt lat="41.658765813786" lon="13.344288674219158"><ele>206.85714285714286</ele><time>2026-04-23T16:09:06Z</time></trkpt><trkpt lat="41.658698097350374" lon="13.344276388497372"><ele>206.42857142857142</ele><time>2026-04-23T16:09:07Z</time></trkpt><trkpt lat="41.65862955368244" lon="13.344262819437441"><ele>206.0</ele><time>2026-04-23T16:09:08Z</time></trkpt><trkpt lat="41.658556353598726" lon="13.344249401869035"><ele>206.00000000000003</ele><time>2026-04-23T16:09:09Z</time></trkpt><trkpt lat="41.65847981743107" lon="13.344233007120446"><ele>206.0</ele><time>2026-04-23T16:09:10Z</time></trkpt><trkpt lat="41.658405233598316" lon="13.344214931171694"><ele>206.0</ele><time>2026-04-23T16:09:11Z</time></trkpt><trkpt lat="41.65832611467306" lon="13.34419719742331"><ele>206.0</ele><time>2026-04-23T16:09:12Z</time></trkpt><trkpt lat="41.65824189000248" lon="13.344176350802918"><ele>206.00000000000003</ele><time>2026-04-23T16:09:13Z</time></trkpt><trkpt lat="41.65815549226287" lon="13.344162617316728"><ele>206.0</ele><time>2026-04-23T16:09:14Z</time></trkpt><trkpt lat="41.658071327684965" lon="13.344118701687007"><ele>206.0</ele><time>2026-04-23T16:09:15Z</time></trkpt><trkpt lat="41.65797859705533" lon="13.344121096018037"><ele>206.0</ele><time>2026-04-23T16:09:16Z</time></trkpt><trkpt lat="41.65789424134941" lon="13.344104588810858"><ele>206.0</ele><time>2026-04-23T16:09:17Z</time></trkpt><trkpt lat="41.657805584187294" lon="13.34408925814411"><ele>206.0</ele><time>2026-04-23T16:09:18Z</time></trkpt><trkpt lat="41.65771492428826" lon="13.344072119599334"><ele>206.0</ele><time>2026-04-23T16:09:19Z</time></trkpt><trkpt lat="41.65762700534112" lon="13.344036916716798"><ele>205.8</ele><time>2026-04-23T16:09:20Z</time></trkpt><trkpt lat="41.657531382838805" lon="13.344020368830384"><ele>205.60000000000002</ele><time>2026-04-23T16:09:21Z</time></trkpt><trkpt lat="41.657435092538904" lon="13.344006188406077"><ele>205.4</ele><time>2026-04-23T16:09:22Z</time></trkpt><trkpt lat="41.65733813315768" lon="13.344012006631392"><ele>205.2</ele><time>2026-04-23T16:09:23Z</time></trkpt><trkpt lat="41.65724721454476" lon="13.344007735636085"><ele>205.0</ele><time>2026-04-23T16:09:24Z</time></trkpt><trkpt lat="41.657150166451" lon="13.344010367964177"><ele>205.0</ele><time>2026-04-23T16:09:25Z</time></trkpt><trkpt lat="41.657049948534066" lon="13.343985917151485"><ele>205.0</ele><time>2026-04-23T16:09:26Z</time></trkpt><trkpt lat="41.65695413223373" lon="13.343982917034031"><ele>205.0</ele><time>2026-04-23T16:09:27Z</time></trkpt><trkpt lat="41.6568559600622" lon="13.343977871176904"><ele>205.0</ele><time>2026-04-23T16:09:28Z</time></trkpt><trkpt lat="41.656764841646726" lon="13.343972283985615"><ele>205.0</ele><time>2026-04-23T16:09:29Z</time></trkpt><trkpt lat="41.65667829938156" lon="13.343961293126993"><ele>204.99999999999997</ele><time>2026-04-23T16:09:30Z</time></trkpt><trkpt lat="41.656596728934545" lon="13.343946901246381"><ele>205.0</ele><time>2026-04-23T16:09:31Z</time></trkpt><trkpt lat="41.656513099272146" lon="13.34395171835245"><ele>205.0</ele><time>2026-04-23T16:09:32Z</time></trkpt><trkpt lat="41.65643689495088" lon="13.34392674578255"><ele>205.0</ele><time>2026-04-23T16:09:33Z</time></trkpt><trkpt lat="41.656362662855166" lon="13.343897226529448"><ele>204.99999999999997</ele><time>2026-04-23T16:09:34Z</time></trkpt><trkpt lat="41.65629083912826" lon="13.343862924670322"><ele>205.0</ele><time>2026-04-23T16:09:35Z</time></trkpt><trkpt lat="41.65622303606764" lon="13.343825018172463"><ele>204.99999999999997</ele><time>2026-04-23T16:09:36Z</time></trkpt><trkpt lat="41.65615797170496" lon="13.343788431881771"><ele>205.0</ele><time>2026-04-23T16:09:37Z</time></trkpt><trkpt lat="41.65610312476897" lon="13.343730455059447"><ele>205.0</ele><time>2026-04-23T16:09:38Z</time></trkpt><trkpt lat="41.65601208134846" lon="13.343672937369861"><ele>205.0</ele><time>2026-04-23T16:09:40Z</time></trkpt><trkpt lat="41.655932955741854" lon="13.343619207379785"><ele>204.99999999999997</ele><time>2026-04-23T16:09:44Z</time></trkpt><trkpt lat="41.65586903549342" lon="13.343576857302603"><ele>205.0</ele><time>2026-04-23T16:09:46Z</time></trkpt><trkpt lat="41.65578587174128" lon="13.343518003935472"><ele>204.8</ele><time>2026-04-23T16:09:49Z</time></trkpt><trkpt lat="41.655703668574" lon="13.343461857060806"><ele>204.6</ele><time>2026-04-23T16:09:51Z</time></trkpt><trkpt lat="41.65564401187834" lon="13.34342111965188"><ele>204.39999999999998</ele><time>2026-04-23T16:09:52Z</time></trkpt><trkpt lat="41.65555752127909" lon="13.343362058360144"><ele>204.2</ele><time>2026-04-23T16:09:53Z</time></trkpt><trkpt lat="41.65545884572629" lon="13.343294676372649"><ele>204.0</ele><time>2026-04-23T16:09:54Z</time></trkpt><trkpt lat="41.65535311619679" lon="13.343248283385309"><ele>203.6</ele><time>2026-04-23T16:09:55Z</time></trkpt><trkpt lat="41.655255649991346" lon="13.34318310143634"><ele>203.2</ele><time>2026-04-23T16:09:56Z</time></trkpt><trkpt lat="41.65516110861286" lon="13.343120588800307"><ele>202.79999999999998</ele><time>2026-04-23T16:09:57Z</time></trkpt><trkpt lat="41.65506926797557" lon="13.343058234104795"><ele>202.39999999999998</ele><time>2026-04-23T16:09:58Z</time></trkpt><trkpt lat="41.654980664777455" lon="13.342996037826213"><ele>202.0</ele><time>2026-04-23T16:09:59Z</time></trkpt><trkpt lat="41.654893103213276" lon="13.342932770718013"><ele>202.0</ele><time>2026-04-23T16:10:00Z</time></trkpt><trkpt lat="41.65480484969268" lon="13.342868090604496"><ele>202.0</ele><time>2026-04-23T16:10:01Z</time></trkpt><trkpt lat="41.654716501181824" lon="13.342803919994465"><ele>202.0</ele><time>2026-04-23T16:10:02Z</time></trkpt><trkpt lat="41.65463176599421" lon="13.342739950878686"><ele>202.0</ele><time>2026-04-23T16:10:03Z</time></trkpt><trkpt lat="41.65455018588077" lon="13.342676359436467"><ele>202.0</ele><time>2026-04-23T16:10:04Z</time></trkpt><trkpt lat="41.65446901950764" lon="13.342611910208968"><ele>201.8</ele><time>2026-04-23T16:10:05Z</time></trkpt><trkpt lat="41.65438242299815" lon="13.342548917739473"><ele>201.6</ele><time>2026-04-23T16:10:06Z</time></trkpt><trkpt lat="41.65429276385457" lon="13.34248788664441"><ele>201.4</ele><time>2026-04-23T16:10:07Z</time></trkpt><trkpt lat="41.6541996366636" lon="13.342426425763902"><ele>201.20000000000002</ele><time>2026-04-23T16:10:08Z</time></trkpt><trkpt lat="41.6541070032006" lon="13.342360626778776"><ele>201.0</ele><time>2026-04-23T16:10:09Z</time></trkpt><trkpt lat="41.654020624270984" lon="13.342292869087713"><ele>201.0</ele><time>2026-04-23T16:10:10Z</time></trkpt><trkpt lat="41.653941662914875" lon="13.342227649836262"><ele>201.0</ele><time>2026-04-23T16:10:11Z</time></trkpt><trkpt lat="41.653870106872056" lon="13.342167613719724"><ele>201.0</ele><time>2026-04-23T16:10:12Z</time></trkpt><trkpt lat="41.65380533523495" lon="13.34211371266117"><ele>201.0</ele><time>2026-04-23T16:10:13Z</time></trkpt><trkpt lat="41.65374557799893" lon="13.34206515738819"><ele>201.0</ele><time>2026-04-23T16:10:14Z</time></trkpt><trkpt lat="41.653689819715055" lon="13.342019266818932"><ele>201.0</ele><time>2026-04-23T16:10:15Z</time></trkpt><trkpt lat="41.65363561595825" lon="13.341975013334446"><ele>200.8</ele><time>2026-04-23T16:10:16Z</time></trkpt><trkpt lat="41.653582705199554" lon="13.34192907293223"><ele>200.60000000000002</ele><time>2026-04-23T16:10:17Z</time></trkpt><trkpt lat="41.6534787602483" lon="13.341836540016855"><ele>200.4</ele><time>2026-04-23T16:10:19Z</time></trkpt><trkpt lat="41.65338082232526" lon="13.341745243504267"><ele>200.2</ele><time>2026-04-23T16:10:21Z</time></trkpt><trkpt lat="41.65330707116278" lon="13.34167647449453"><ele>200.0</ele><time>2026-04-23T16:10:23Z</time></trkpt><trkpt lat="41.65322807966308" lon="13.34160308288459"><ele>200.0</ele><time>2026-04-23T16:10:25Z</time></trkpt><trkpt lat="41.65313243333434" lon="13.3415232169628"><ele>200.0</ele><time>2026-04-23T16:10:27Z</time></trkpt><trkpt lat="41.65304732127304" lon="13.341455361865833"><ele>200.0</ele><time>2026-04-23T16:10:29Z</time></trkpt><trkpt lat="41.65297039228772" lon="13.341391046907324"><ele>200.0</ele><time>2026-04-23T16:10:31Z</time></trkpt><trkpt lat="41.65286574522391" lon="13.341306626019778"><ele>200.0</ele><time>2026-04-23T16:10:33Z</time></trkpt><trkpt lat="41.65280516799218" lon="13.341256458487477"><ele>199.71428571428572</ele><time>2026-04-23T16:10:34Z</time></trkpt><trkpt lat="41.6527398023471" lon="13.341201705624679"><ele>199.42857142857144</ele><time>2026-04-23T16:10:35Z</time></trkpt><trkpt lat="41.65267541227226" lon="13.341149720106511"><ele>199.14285714285717</ele><time>2026-04-23T16:10:36Z</time></trkpt><trkpt lat="41.6526221957691" lon="13.341080912730668"><ele>198.85714285714286</ele><time>2026-04-23T16:10:37Z</time></trkpt><trkpt lat="41.65255802565072" lon="13.341026905724057"><ele>198.57142857142856</ele><time>2026-04-23T16:10:38Z</time></trkpt><trkpt lat="41.65249473348232" lon="13.340973637652358"><ele>198.2857142857143</ele><time>2026-04-23T16:10:39Z</time></trkpt><trkpt lat="41.65243401775641" lon="13.340922537901289"><ele>198.0</ele><time>2026-04-23T16:10:40Z</time></trkpt><trkpt lat="41.65237302910639" lon="13.340871207280548"><ele>198.0</ele><time>2026-04-23T16:10:41Z</time></trkpt><trkpt lat="41.65230893264698" lon="13.340817255585518"><ele>198.0</ele><time>2026-04-23T16:10:42Z</time></trkpt><trkpt lat="41.65224362315396" lon="13.34076228269852"><ele>198.0</ele><time>2026-04-23T16:10:43Z</time></trkpt><trkpt lat="41.652177249349165" lon="13.340706413700303"><ele>198.0</ele><time>2026-04-23T16:10:44Z</time></trkpt><trkpt lat="41.65211141471801" lon="13.340650995355531"><ele>198.0</ele><time>2026-04-23T16:10:45Z</time></trkpt><trkpt lat="41.65204702135931" lon="13.340597052970415"><ele>198.0</ele><time>2026-04-23T16:10:46Z</time></trkpt><trkpt lat="41.65198423539209" lon="13.340544332941803"><ele>197.85714285714286</ele><time>2026-04-23T16:10:47Z</time></trkpt><trkpt lat="41.65192304328986" lon="13.340492951092102"><ele>197.7142857142857</ele><time>2026-04-23T16:10:48Z</time></trkpt><trkpt lat="41.65186173991309" lon="13.340441476027886"><ele>197.57142857142856</ele><time>2026-04-23T16:10:49Z</time></trkpt><trkpt lat="41.65180148775697" lon="13.340390883570615"><ele>197.42857142857144</ele><time>2026-04-23T16:10:50Z</time></trkpt><trkpt lat="41.6517402271221" lon="13.340339445641964"><ele>197.28571428571428</ele><time>2026-04-23T16:10:51Z</time></trkpt><trkpt lat="41.65167765113714" lon="13.340285680390526"><ele>197.14285714285714</ele><time>2026-04-23T16:10:52Z</time></trkpt><trkpt lat="41.651614019315375" lon="13.340230914938454"><ele>197.0</ele><time>2026-04-23T16:10:53Z</time></trkpt><trkpt lat="41.65154845209772" lon="13.340177138148563"><ele>197.0</ele><time>2026-04-23T16:10:54Z</time></trkpt><trkpt lat="41.651483111711" lon="13.340122534046182"><ele>197.0</ele><time>2026-04-23T16:10:55Z</time></trkpt><trkpt lat="41.65141860445177" lon="13.340068626178478"><ele>197.0</ele><time>2026-04-23T16:10:56Z</time></trkpt><trkpt lat="41.65134800369114" lon="13.340035449673234"><ele>197.0</ele><time>2026-04-23T16:10:57Z</time></trkpt><trkpt lat="41.65128871177118" lon="13.339985419058456"><ele>197.0</ele><time>2026-04-23T16:10:58Z</time></trkpt><trkpt lat="41.65122918684626" lon="13.339936368395035"><ele>197.0</ele><time>2026-04-23T16:10:59Z</time></trkpt><trkpt lat="41.65116985811535" lon="13.339886786333507"><ele>197.0</ele><time>2026-04-23T16:11:00Z</time></trkpt><trkpt lat="41.651118981196795" lon="13.339818234961243"><ele>197.14285714285714</ele><time>2026-04-23T16:11:01Z</time></trkpt><trkpt lat="41.65106038108214" lon="13.339769263614594"><ele>197.28571428571428</ele><time>2026-04-23T16:11:02Z</time></trkpt><trkpt lat="41.65100478518254" lon="13.339722802845348"><ele>197.42857142857144</ele><time>2026-04-23T16:11:03Z</time></trkpt><trkpt lat="41.65094732699977" lon="13.33967478580339"><ele>197.57142857142856</ele><time>2026-04-23T16:11:04Z</time></trkpt><trkpt lat="41.650887341815" lon="13.339624656974406"><ele>197.7142857142857</ele><time>2026-04-23T16:11:05Z</time></trkpt><trkpt lat="41.650827687591736" lon="13.339574804721643"><ele>197.85714285714286</ele><time>2026-04-23T16:11:06Z</time></trkpt><trkpt lat="41.65077093897395" lon="13.339527380642188"><ele>198.0</ele><time>2026-04-23T16:11:07Z</time></trkpt><trkpt lat="41.65070862364454" lon="13.339499573013773"><ele>197.60000000000002</ele><time>2026-04-23T16:11:08Z</time></trkpt><trkpt lat="41.65060315902468" lon="13.339410998396065"><ele>197.20000000000002</ele><time>2026-04-23T16:11:10Z</time></trkpt><trkpt lat="41.650548035047606" lon="13.339367202070461"><ele>196.8</ele><time>2026-04-23T16:11:11Z</time></trkpt><trkpt lat="41.65050026530583" lon="13.339301182224709"><ele>196.4</ele><time>2026-04-23T16:11:12Z</time></trkpt><trkpt lat="41.650445379095835" lon="13.339255314530245"><ele>196.0</ele><time>2026-04-23T16:11:13Z</time></trkpt><trkpt lat="41.650337030070816" lon="13.33916476867824"><ele>195.57142857142858</ele><time>2026-04-23T16:11:15Z</time></trkpt><trkpt lat="41.650277339484724" lon="13.339114886037388"><ele>195.14285714285714</ele><time>2026-04-23T16:11:16Z</time></trkpt><trkpt lat="41.65021666837622" lon="13.339064183987578"><ele>194.71428571428572</ele><time>2026-04-23T16:11:17Z</time></trkpt><trkpt lat="41.65015489900717" lon="13.33901256413795"><ele>194.28571428571428</ele><time>2026-04-23T16:11:18Z</time></trkpt><trkpt lat="41.650094328891456" lon="13.338961946482563"><ele>193.85714285714286</ele><time>2026-04-23T16:11:19Z</time></trkpt><trkpt lat="41.65003304007785" lon="13.338910727455705"><ele>193.42857142857144</ele><time>2026-04-23T16:11:20Z</time></trkpt><trkpt lat="41.64997138720251" lon="13.33885919815236"><ele>193.0</ele><time>2026-04-23T16:11:21Z</time></trkpt><trkpt lat="41.649916408149615" lon="13.338813246810405"><ele>193.0</ele><time>2026-04-23T16:11:22Z</time></trkpt><trkpt lat="41.64981990978902" lon="13.338756272812823"><ele>193.0</ele><time>2026-04-23T16:11:24Z</time></trkpt><trkpt lat="41.649759956377984" lon="13.33868413737562"><ele>193.0</ele><time>2026-04-23T16:11:26Z</time></trkpt><trkpt lat="41.64972796834884" lon="13.338608404341716"><ele>193.0</ele><time>2026-04-23T16:11:29Z</time></trkpt><trkpt lat="41.64969174764045" lon="13.338481332291126"><ele>193.0</ele><time>2026-04-23T16:11:32Z</time></trkpt><trkpt lat="41.64964295890468" lon="13.338344172461792"><ele>192.99999999999997</ele><time>2026-04-23T16:11:34Z</time></trkpt><trkpt lat="41.64953371916387" lon="13.338257851229196"><ele>193.0</ele><time>2026-04-23T16:11:36Z</time></trkpt><trkpt lat="41.64946679567783" lon="13.338253221408506"><ele>193.0</ele><time>2026-04-23T16:11:37Z</time></trkpt><trkpt lat="41.6493960184657" lon="13.338258526265061"><ele>193.0</ele><time>2026-04-23T16:11:38Z</time></trkpt><trkpt lat="41.64932194422059" lon="13.338261301031851"><ele>192.99999999999997</ele><time>2026-04-23T16:11:39Z</time></trkpt><trkpt lat="41.64925267016703" lon="13.33823866700951"><ele>193.0</ele><time>2026-04-23T16:11:40Z</time></trkpt><trkpt lat="41.64918392267017" lon="13.338191806574114"><ele>193.0</ele><time>2026-04-23T16:11:41Z</time></trkpt><trkpt lat="41.649115010230965" lon="13.338133588371168"><ele>193.0</ele><time>2026-04-23T16:11:42Z</time></trkpt><trkpt lat="41.64904280952113" lon="13.338069460411747"><ele>193.0</ele><time>2026-04-23T16:11:43Z</time></trkpt><trkpt lat="41.64896679314536" lon="13.338000880398312"><ele>193.0</ele><time>2026-04-23T16:11:44Z</time></trkpt><trkpt lat="41.64888627808691" lon="13.337929030067514"><ele>193.0</ele><time>2026-04-23T16:11:45Z</time></trkpt><trkpt lat="41.64880188909935" lon="13.337854663596131"><ele>193.0</ele><time>2026-04-23T16:11:46Z</time></trkpt><trkpt lat="41.64871362503117" lon="13.337776055790872"><ele>193.0</ele><time>2026-04-23T16:11:47Z</time></trkpt><trkpt lat="41.648619598022904" lon="13.337690552332768"><ele>193.0</ele><time>2026-04-23T16:11:48Z</time></trkpt><trkpt lat="41.64852672191873" lon="13.337607627777711"><ele>193.0</ele><time>2026-04-23T16:11:49Z</time></trkpt><trkpt lat="41.64842974117164" lon="13.337522085482108"><ele>193.0</ele><time>2026-04-23T16:11:50Z</time></trkpt><trkpt lat="41.648329065121274" lon="13.337431972997393"><ele>192.75</ele><time>2026-04-23T16:11:51Z</time></trkpt><trkpt lat="41.64822638887999" lon="13.337338159532534"><ele>192.5</ele><time>2026-04-23T16:11:52Z</time></trkpt><trkpt lat="41.64812192437704" lon="13.337244092439018"><ele>192.25</ele><time>2026-04-23T16:11:53Z</time></trkpt><trkpt lat="41.64801796614978" lon="13.337152197031743"><ele>192.0</ele><time>2026-04-23T16:11:54Z</time></trkpt><trkpt lat="41.647916346059176" lon="13.337062497726825"><ele>192.0</ele><time>2026-04-23T16:11:55Z</time></trkpt><trkpt lat="41.647816442527194" lon="13.33697415476848"><ele>192.0</ele><time>2026-04-23T16:11:56Z</time></trkpt><trkpt lat="41.64771972031878" lon="13.336887336795845"><ele>192.0</ele><time>2026-04-23T16:11:57Z</time></trkpt><trkpt lat="41.64762447831441" lon="13.3368017574183"><ele>192.0</ele><time>2026-04-23T16:11:58Z</time></trkpt><trkpt lat="41.64753177136856" lon="13.33671873483864"><ele>192.2</ele><time>2026-04-23T16:11:59Z</time></trkpt><trkpt lat="41.64743950207024" lon="13.336636210979506"><ele>192.39999999999998</ele><time>2026-04-23T16:12:00Z</time></trkpt><trkpt lat="41.64734837991509" lon="13.336557046788784"><ele>192.60000000000002</ele><time>2026-04-23T16:12:01Z</time></trkpt><trkpt lat="41.647259351708875" lon="13.336480013625811"><ele>192.8</ele><time>2026-04-23T16:12:02Z</time></trkpt><trkpt lat="41.64717340599012" lon="13.336404207851292"><ele>193.0</ele><time>2026-04-23T16:12:03Z</time></trkpt><trkpt lat="41.647087511231" lon="13.336327329303673"><ele>193.0</ele><time>2026-04-23T16:12:04Z</time></trkpt><trkpt lat="41.64700112195918" lon="13.336246488185642"><ele>193.0</ele><time>2026-04-23T16:12:05Z</time></trkpt><trkpt lat="41.646914126457894" lon="13.336162914214652"><ele>193.0</ele><time>2026-04-23T16:12:06Z</time></trkpt><trkpt lat="41.6468243577688" lon="13.336079322565174"><ele>193.0</ele><time>2026-04-23T16:12:07Z</time></trkpt><trkpt lat="41.64673586488845" lon="13.33599454714328"><ele>193.0</ele><time>2026-04-23T16:12:08Z</time></trkpt><trkpt lat="41.646647251258294" lon="13.33591050672455"><ele>192.60000000000002</ele><time>2026-04-23T16:12:09Z</time></trkpt><trkpt lat="41.6465605534512" lon="13.335830336674043"><ele>192.20000000000002</ele><time>2026-04-23T16:12:10Z</time></trkpt><trkpt lat="41.64647621536083" lon="13.335751372528255"><ele>191.8</ele><time>2026-04-23T16:12:11Z</time></trkpt><trkpt lat="41.646394867648866" lon="13.335675798562002"><ele>191.4</ele><time>2026-04-23T16:12:12Z</time></trkpt><trkpt lat="41.64631560128537" lon="13.335601242943047"><ele>191.0</ele><time>2026-04-23T16:12:13Z</time></trkpt><trkpt lat="41.64623821751833" lon="13.335528556906166"><ele>190.8</ele><time>2026-04-23T16:12:14Z</time></trkpt><trkpt lat="41.646160112691994" lon="13.335455608304414"><ele>190.60000000000002</ele><time>2026-04-23T16:12:15Z</time></trkpt><trkpt lat="41.64608186011642" lon="13.335383124361302"><ele>190.4</ele><time>2026-04-23T16:12:16Z</time></trkpt><trkpt lat="41.64600134192096" lon="13.335308534493063"><ele>190.2</ele><time>2026-04-23T16:12:17Z</time></trkpt><trkpt lat="41.64591763577686" lon="13.335233993385739"><ele>190.0</ele><time>2026-04-23T16:12:18Z</time></trkpt><trkpt lat="41.645831792336836" lon="13.335158375313974"><ele>190.0</ele><time>2026-04-23T16:12:19Z</time></trkpt><trkpt lat="41.64574431746207" lon="13.335082386242755"><ele>190.0</ele><time>2026-04-23T16:12:20Z</time></trkpt><trkpt lat="41.64566015959427" lon="13.335009423874231"><ele>190.0</ele><time>2026-04-23T16:12:21Z</time></trkpt><trkpt lat="41.645578450151454" lon="13.334942117319487"><ele>190.0</ele><time>2026-04-23T16:12:22Z</time></trkpt><trkpt lat="41.64550184947229" lon="13.334879242211917"><ele>190.0</ele><time>2026-04-23T16:12:23Z</time></trkpt><trkpt lat="41.645431995717914" lon="13.334821235506212"><ele>190.0</ele><time>2026-04-23T16:12:24Z</time></trkpt><trkpt lat="41.64536700496618" lon="13.334767360508108"><ele>190.0</ele><time>2026-04-23T16:12:25Z</time></trkpt><trkpt lat="41.645318620379264" lon="13.334700492178818"><ele>190.0</ele><time>2026-04-23T16:12:26Z</time></trkpt><trkpt lat="41.64526163982421" lon="13.334652487819312"><ele>190.0</ele><time>2026-04-23T16:12:27Z</time></trkpt><trkpt lat="41.6451599219302" lon="13.334566568123893"><ele>190.0</ele><time>2026-04-23T16:12:29Z</time></trkpt><trkpt lat="41.645103466272246" lon="13.33452829705408"><ele>190.0</ele><time>2026-04-23T16:12:30Z</time></trkpt><trkpt lat="41.645052242932884" lon="13.334475710074008"><ele>189.33333333333334</ele><time>2026-04-23T16:12:31Z</time></trkpt><trkpt lat="41.644973311518086" lon="13.334414357382421"><ele>188.66666666666669</ele><time>2026-04-23T16:12:33Z</time></trkpt><trkpt lat="41.644914826110586" lon="13.33435798745343"><ele>188.0</ele><time>2026-04-23T16:12:35Z</time></trkpt><trkpt lat="41.64484771737374" lon="13.334299572473512"><ele>187.33333333333334</ele><time>2026-04-23T16:12:37Z</time></trkpt><trkpt lat="41.64478161987393" lon="13.334242417113042"><ele>186.66666666666666</ele><time>2026-04-23T16:12:39Z</time></trkpt><trkpt lat="41.64472238844251" lon="13.334189485558408"><ele>186.0</ele><time>2026-04-23T16:12:41Z</time></trkpt><trkpt lat="41.64465379625299" lon="13.334130515063716"><ele>186.0</ele><time>2026-04-23T16:12:45Z</time></trkpt><trkpt lat="41.64458663482381" lon="13.334068752244347"><ele>186.0</ele><time>2026-04-23T16:12:49Z</time></trkpt><trkpt lat="41.6445296811239" lon="13.334025149532522"><ele>186.0</ele><time>2026-04-23T16:12:59Z</time></trkpt><trkpt lat="41.64446523672685" lon="13.333975466538954"><ele>186.0</ele><time>2026-04-23T16:13:07Z</time></trkpt><trkpt lat="41.64439495813164" lon="13.333918435556086"><ele>186.0</ele><time>2026-04-23T16:13:11Z</time></trkpt><trkpt lat="41.64432341815984" lon="13.333859128887555"><ele>186.0</ele><time>2026-04-23T16:13:14Z</time></trkpt><trkpt lat="41.644251031672155" lon="13.33380256001526"><ele>186.14285714285717</ele><time>2026-04-23T16:13:17Z</time></trkpt><trkpt lat="41.64418333898781" lon="13.33374743111795"><ele>186.28571428571428</ele><time>2026-04-23T16:13:19Z</time></trkpt><trkpt lat="41.64411342414066" lon="13.333698718012506"><ele>186.42857142857144</ele><time>2026-04-23T16:13:21Z</time></trkpt><trkpt lat="41.64405568482658" lon="13.333659109785543"><ele>186.57142857142858</ele><time>2026-04-23T16:13:23Z</time></trkpt><trkpt lat="41.643998490937044" lon="13.333619307722534"><ele>186.71428571428572</ele><time>2026-04-23T16:13:27Z</time></trkpt><trkpt lat="41.64393426089865" lon="13.3335770981796"><ele>186.85714285714286</ele><time>2026-04-23T16:13:32Z</time></trkpt><trkpt lat="41.64386928126135" lon="13.33353701213061"><ele>187.0</ele><time>2026-04-23T16:13:36Z</time></trkpt><trkpt lat="41.643808693945125" lon="13.33350240430563"><ele>187.0</ele><time>2026-04-23T16:13:39Z</time></trkpt><trkpt lat="41.64373177353802" lon="13.333460671217575"><ele>187.0</ele><time>2026-04-23T16:13:42Z</time></trkpt><trkpt lat="41.64366919695187" lon="13.333428813648244"><ele>187.0</ele><time>2026-04-23T16:13:44Z</time></trkpt><trkpt lat="41.64359887443895" lon="13.33338774284536"><ele>187.0</ele><time>2026-04-23T16:13:46Z</time></trkpt><trkpt lat="41.64352977662938" lon="13.333351348447081"><ele>187.0</ele><time>2026-04-23T16:13:48Z</time></trkpt><trkpt lat="41.643465893352676" lon="13.333293546404686"><ele>187.0</ele><time>2026-04-23T16:13:51Z</time></trkpt><trkpt lat="41.643402363277886" lon="13.333262152407448"><ele>187.0</ele><time>2026-04-23T16:14:01Z</time></trkpt><trkpt lat="41.64333245194539" lon="13.333228152234186"><ele>187.0</ele><time>2026-04-23T16:14:03Z</time></trkpt><trkpt lat="41.643265430574274" lon="13.333197302265226"><ele>187.0</ele><time>2026-04-23T16:14:05Z</time></trkpt><trkpt lat="41.643194920644156" lon="13.333166461111047"><ele>187.0</ele><time>2026-04-23T16:14:08Z</time></trkpt><trkpt lat="41.64313089538061" lon="13.333139087560989"><ele>187.0</ele><time>2026-04-23T16:14:10Z</time></trkpt><trkpt lat="41.64304648043876" lon="13.33312694228403"><ele>187.0</ele><time>2026-04-23T16:14:13Z</time></trkpt><trkpt lat="41.64298578054824" lon="13.333061703801608"><ele>187.0</ele><time>2026-04-23T16:14:20Z</time></trkpt><trkpt lat="41.642923142338425" lon="13.332973090696854"><ele>187.0</ele><time>2026-04-23T16:14:22Z</time></trkpt><trkpt lat="41.642831979774" lon="13.332904814768828"><ele>187.0</ele><time>2026-04-23T16:14:24Z</time></trkpt><trkpt lat="41.642705304098946" lon="13.332937866288473"><ele>187.0</ele><time>2026-04-23T16:14:26Z</time></trkpt><trkpt lat="41.6426329829697" lon="13.332889003797312"><ele>187.0</ele><time>2026-04-23T16:14:27Z</time></trkpt><trkpt lat="41.64254752464628" lon="13.332914330121453"><ele>187.0</ele><time>2026-04-23T16:14:28Z</time></trkpt><trkpt lat="41.64247153090596" lon="13.332856706627059"><ele>186.2</ele><time>2026-04-23T16:14:29Z</time></trkpt><trkpt lat="41.64239201780255" lon="13.33282043686363"><ele>185.39999999999998</ele><time>2026-04-23T16:14:30Z</time></trkpt><trkpt lat="41.64230911164691" lon="13.332784201331693"><ele>184.60000000000002</ele><time>2026-04-23T16:14:31Z</time></trkpt><trkpt lat="41.64222295972987" lon="13.332746548977678"><ele>183.8</ele><time>2026-04-23T16:14:32Z</time></trkpt><trkpt lat="41.64213275530985" lon="13.332707123725015"><ele>183.0</ele><time>2026-04-23T16:14:33Z</time></trkpt><trkpt lat="41.64203936346359" lon="13.332666305357892"><ele>183.0</ele><time>2026-04-23T16:14:34Z</time></trkpt><trkpt lat="41.64194291003375" lon="13.33262414887802"><ele>183.0</ele><time>2026-04-23T16:14:35Z</time></trkpt><trkpt lat="41.641842681369376" lon="13.332580342372085"><ele>183.0</ele><time>2026-04-23T16:14:36Z</time></trkpt><trkpt lat="41.64174085794464" lon="13.332535838847575"><ele>183.0</ele><time>2026-04-23T16:14:37Z</time></trkpt><trkpt lat="41.64163769440843" lon="13.332490149346409"><ele>183.0</ele><time>2026-04-23T16:14:38Z</time></trkpt><trkpt lat="41.64153196818199" lon="13.332444352357104"><ele>183.0</ele><time>2026-04-23T16:14:39Z</time></trkpt><trkpt lat="41.64142531865431" lon="13.332397147538606"><ele>183.0</ele><time>2026-04-23T16:14:40Z</time></trkpt><trkpt lat="41.64131313140291" lon="13.332382377896227"><ele>183.0</ele><time>2026-04-23T16:14:41Z</time></trkpt><trkpt lat="41.64120555730038" lon="13.3323382902391"><ele>183.0</ele><time>2026-04-23T16:14:42Z</time></trkpt><trkpt lat="41.641100574073704" lon="13.332292989261477"><ele>183.0</ele><time>2026-04-23T16:14:43Z</time></trkpt><trkpt lat="41.64099673818811" lon="13.332247062420885"><ele>183.0</ele><time>2026-04-23T16:14:44Z</time></trkpt><trkpt lat="41.64089327585236" lon="13.3322018624807"><ele>183.0</ele><time>2026-04-23T16:14:45Z</time></trkpt><trkpt lat="41.64078890571399" lon="13.332154715629763"><ele>183.0</ele><time>2026-04-23T16:14:46Z</time></trkpt><trkpt lat="41.64068339650309" lon="13.332108925915422"><ele>183.0</ele><time>2026-04-23T16:14:47Z</time></trkpt><trkpt lat="41.64057608926917" lon="13.332061364626997"><ele>183.0</ele><time>2026-04-23T16:14:48Z</time></trkpt><trkpt lat="41.64047218647724" lon="13.332014973556772"><ele>183.0</ele><time>2026-04-23T16:14:49Z</time></trkpt><trkpt lat="41.640370812703736" lon="13.33197078958056"><ele>183.0</ele><time>2026-04-23T16:14:50Z</time></trkpt><trkpt lat="41.64027106178958" lon="13.331925156633103"><ele>183.0</ele><time>2026-04-23T16:14:51Z</time></trkpt><trkpt lat="41.64017706079026" lon="13.331882357181545"><ele>183.0</ele><time>2026-04-23T16:14:52Z</time></trkpt><trkpt lat="41.6400871973673" lon="13.331842387245965"><ele>183.0</ele><time>2026-04-23T16:14:53Z</time></trkpt><trkpt lat="41.639999053401674" lon="13.33180456713956"><ele>183.0</ele><time>2026-04-23T16:14:54Z</time></trkpt><trkpt lat="41.6399209013345" lon="13.331741970532887"><ele>183.0</ele><time>2026-04-23T16:14:55Z</time></trkpt><trkpt lat="41.639842327688044" lon="13.331706179875592"><ele>183.0</ele><time>2026-04-23T16:14:56Z</time></trkpt><trkpt lat="41.63976993753428" lon="13.331673205828709"><ele>183.0</ele><time>2026-04-23T16:14:57Z</time></trkpt><trkpt lat="41.63969883789247" lon="13.33164081961579"><ele>183.0</ele><time>2026-04-23T16:14:58Z</time></trkpt><trkpt lat="41.6396349088179" lon="13.33161169962856"><ele>183.0</ele><time>2026-04-23T16:14:59Z</time></trkpt><trkpt lat="41.63952352681383" lon="13.331568366872434"><ele>183.0</ele><time>2026-04-23T16:15:01Z</time></trkpt><trkpt lat="41.639480452252556" lon="13.331504886043358"><ele>183.0</ele><time>2026-04-23T16:15:02Z</time></trkpt><trkpt lat="41.6394427970536" lon="13.331430382635133"><ele>183.0</ele><time>2026-04-23T16:15:03Z</time></trkpt><trkpt lat="41.63939913340491" lon="13.331356691666235"><ele>183.0</ele><time>2026-04-23T16:15:04Z</time></trkpt><trkpt lat="41.63934713018003" lon="13.331304696517204"><ele>183.0</ele><time>2026-04-23T16:15:05Z</time></trkpt><trkpt lat="41.639285075602636" lon="13.331279303396796"><ele>183.0</ele><time>2026-04-23T16:15:06Z</time></trkpt><trkpt lat="41.63921176936193" lon="13.331278042695597"><ele>183.0</ele><time>2026-04-23T16:15:07Z</time></trkpt><trkpt lat="41.63913750006307" lon="13.331311728768236"><ele>182.83333333333334</ele><time>2026-04-23T16:15:08Z</time></trkpt><trkpt lat="41.63905766560138" lon="13.331349857967584"><ele>182.66666666666666</ele><time>2026-04-23T16:15:09Z</time></trkpt><trkpt lat="41.6389736297883" lon="13.331347182884334"><ele>182.5</ele><time>2026-04-23T16:15:10Z</time></trkpt><trkpt lat="41.63888852950469" lon="13.331317760640127"><ele>182.33333333333331</ele><time>2026-04-23T16:15:11Z</time></trkpt><trkpt lat="41.63881578225563" lon="13.331264273474934"><ele>182.16666666666666</ele><time>2026-04-23T16:15:12Z</time></trkpt><trkpt lat="41.638742045888904" lon="13.331231373531546"><ele>182.0</ele><time>2026-04-23T16:15:13Z</time></trkpt><trkpt lat="41.63866451346977" lon="13.331197460067951"><ele>181.83333333333331</ele><time>2026-04-23T16:15:14Z</time></trkpt><trkpt lat="41.638583771195954" lon="13.331162142584015"><ele>181.66666666666666</ele><time>2026-04-23T16:15:15Z</time></trkpt><trkpt lat="41.638501365048455" lon="13.33112609730449"><ele>181.5</ele><time>2026-04-23T16:15:16Z</time></trkpt><trkpt lat="41.638411925528835" lon="13.331111462747725"><ele>181.33333333333334</ele><time>2026-04-23T16:15:17Z</time></trkpt><trkpt lat="41.638325814134326" lon="13.331074046291567"><ele>181.16666666666669</ele><time>2026-04-23T16:15:18Z</time></trkpt><trkpt lat="41.63823817778803" lon="13.331034111089233"><ele>181.0</ele><time>2026-04-23T16:15:19Z</time></trkpt><trkpt lat="41.63814992396559" lon="13.330992968372627"><ele>181.0</ele><time>2026-04-23T16:15:20Z</time></trkpt><trkpt lat="41.63807630868846" lon="13.330960884980506"><ele>181.0</ele><time>2026-04-23T16:15:21Z</time></trkpt><trkpt lat="41.637986851887206" lon="13.33091779093514"><ele>181.0</ele><time>2026-04-23T16:15:23Z</time></trkpt><trkpt lat="41.637915942470634" lon="13.33088993255578"><ele>181.0</ele><time>2026-04-23T16:15:25Z</time></trkpt><trkpt lat="41.63784593195619" lon="13.330860358126875"><ele>181.0</ele><time>2026-04-23T16:15:27Z</time></trkpt><trkpt lat="41.63777367232595" lon="13.330828810216861"><ele>181.0</ele><time>2026-04-23T16:15:29Z</time></trkpt><trkpt lat="41.63768074237687" lon="13.330787109263253"><ele>181.0</ele><time>2026-04-23T16:15:31Z</time></trkpt><trkpt lat="41.63755896257433" lon="13.330731257897153"><ele>181.0</ele><time>2026-04-23T16:15:33Z</time></trkpt><trkpt lat="41.637486423973925" lon="13.330700814835275"><ele>181.0</ele><time>2026-04-23T16:15:34Z</time></trkpt><trkpt lat="41.63741116975522" lon="13.330667464026591"><ele>181.0</ele><time>2026-04-23T16:15:35Z</time></trkpt><trkpt lat="41.63733371327979" lon="13.3306335662083"><ele>181.0</ele><time>2026-04-23T16:15:36Z</time></trkpt><trkpt lat="41.63725865716577" lon="13.330600520039136"><ele>181.0</ele><time>2026-04-23T16:15:37Z</time></trkpt><trkpt lat="41.63717951994678" lon="13.330566635179144"><ele>181.33333333333334</ele><time>2026-04-23T16:15:38Z</time></trkpt><trkpt lat="41.63709772623596" lon="13.330532359261536"><ele>181.66666666666669</ele><time>2026-04-23T16:15:39Z</time></trkpt><trkpt lat="41.63701385633919" lon="13.33049478844726"><ele>182.0</ele><time>2026-04-23T16:15:40Z</time></trkpt><trkpt lat="41.636929369225854" lon="13.330453954439905"><ele>182.33333333333334</ele><time>2026-04-23T16:15:41Z</time></trkpt><trkpt lat="41.63684734250219" lon="13.33040892436089"><ele>182.66666666666666</ele><time>2026-04-23T16:15:42Z</time></trkpt><trkpt lat="41.63675888705984" lon="13.330359735148996"><ele>183.0</ele><time>2026-04-23T16:15:43Z</time></trkpt><trkpt lat="41.63667179582856" lon="13.330309430927558"><ele>182.0</ele><time>2026-04-23T16:15:44Z</time></trkpt><trkpt lat="41.636584399367955" lon="13.33025479128176"><ele>181.0</ele><time>2026-04-23T16:15:45Z</time></trkpt><trkpt lat="41.63649717005742" lon="13.330197753243267"><ele>180.0</ele><time>2026-04-23T16:15:46Z</time></trkpt><trkpt lat="41.636409820016596" lon="13.330137982983864"><ele>179.0</ele><time>2026-04-23T16:15:47Z</time></trkpt><trkpt lat="41.63632331610824" lon="13.330075220178598"><ele>178.0</ele><time>2026-04-23T16:15:48Z</time></trkpt><trkpt lat="41.63623770881841" lon="13.330010549873457"><ele>178.0</ele><time>2026-04-23T16:15:49Z</time></trkpt><trkpt lat="41.63615616627328" lon="13.32994386246011"><ele>178.0</ele><time>2026-04-23T16:15:50Z</time></trkpt><trkpt lat="41.63607827798986" lon="13.32987811250425"><ele>178.0</ele><time>2026-04-23T16:15:51Z</time></trkpt><trkpt lat="41.6360023893062" lon="13.329811515384334"><ele>178.0</ele><time>2026-04-23T16:15:52Z</time></trkpt><trkpt lat="41.635926749945924" lon="13.329740506455483"><ele>178.0</ele><time>2026-04-23T16:15:53Z</time></trkpt><trkpt lat="41.635851113893025" lon="13.329666697523727"><ele>177.0</ele><time>2026-04-23T16:15:54Z</time></trkpt><trkpt lat="41.63577605316918" lon="13.329588058194629"><ele>176.0</ele><time>2026-04-23T16:15:55Z</time></trkpt><trkpt lat="41.63570021180214" lon="13.329508419065307"><ele>175.0</ele><time>2026-04-23T16:15:56Z</time></trkpt><trkpt lat="41.63562764346083" lon="13.32942826634537"><ele>174.0</ele><time>2026-04-23T16:15:57Z</time></trkpt><trkpt lat="41.6355572538905" lon="13.329350567917912"><ele>173.0</ele><time>2026-04-23T16:15:58Z</time></trkpt><trkpt lat="41.635493610436676" lon="13.329277443116192"><ele>173.0</ele><time>2026-04-23T16:15:59Z</time></trkpt><trkpt lat="41.63544412643244" lon="13.329218414944652"><ele>173.0</ele><time>2026-04-23T16:16:00Z</time></trkpt><trkpt lat="41.635381329169334" lon="13.329145601316348"><ele>173.0</ele><time>2026-04-23T16:16:02Z</time></trkpt><trkpt lat="41.635343329152604" lon="13.329068350455678"><ele>173.0</ele><time>2026-04-23T16:16:11Z</time></trkpt><trkpt lat="41.63530666380349" lon="13.328981353823796"><ele>173.0</ele><time>2026-04-23T16:16:18Z</time></trkpt><trkpt lat="41.63529252826932" lon="13.328872529504634"><ele>173.0</ele><time>2026-04-23T16:16:21Z</time></trkpt><trkpt lat="41.635307931393896" lon="13.328747130386644"><ele>173.25</ele><time>2026-04-23T16:16:23Z</time></trkpt><trkpt lat="41.63529975761151" lon="13.328606179377356"><ele>173.5</ele><time>2026-04-23T16:16:25Z</time></trkpt><trkpt lat="41.63524326768527" lon="13.32845691603064"><ele>173.75</ele><time>2026-04-23T16:16:27Z</time></trkpt><trkpt lat="41.63514832338638" lon="13.328357756642795"><ele>174.0</ele><time>2026-04-23T16:16:29Z</time></trkpt><trkpt lat="41.63504222600718" lon="13.328316642846094"><ele>174.0</ele><time>2026-04-23T16:16:31Z</time></trkpt><trkpt lat="41.63492391572467" lon="13.328363819070553"><ele>174.0</ele><time>2026-04-23T16:16:33Z</time></trkpt><trkpt lat="41.634825699254336" lon="13.328405950205648"><ele>174.0</ele><time>2026-04-23T16:16:35Z</time></trkpt><trkpt lat="41.63473969285549" lon="13.328287561826127"><ele>174.0</ele><time>2026-04-23T16:16:37Z</time></trkpt><trkpt lat="41.634688787508495" lon="13.328218328754271"><ele>174.0</ele><time>2026-04-23T16:16:38Z</time></trkpt><trkpt lat="41.63463546184858" lon="13.328151033752356"><ele>174.0</ele><time>2026-04-23T16:16:39Z</time></trkpt><trkpt lat="41.6345795990566" lon="13.328080513270269"><ele>174.0</ele><time>2026-04-23T16:16:40Z</time></trkpt><trkpt lat="41.63451860906964" lon="13.327996673342664"><ele>174.0</ele><time>2026-04-23T16:16:41Z</time></trkpt><trkpt lat="41.63445371016367" lon="13.32791018459956"><ele>174.0</ele><time>2026-04-23T16:16:42Z</time></trkpt><trkpt lat="41.63438580650137" lon="13.327827299715874"><ele>174.0</ele><time>2026-04-23T16:16:43Z</time></trkpt><trkpt lat="41.63431490596735" lon="13.327741783703072"><ele>174.0</ele><time>2026-04-23T16:16:44Z</time></trkpt><trkpt lat="41.63424077226202" lon="13.327653186784936"><ele>174.39999999999998</ele><time>2026-04-23T16:16:45Z</time></trkpt><trkpt lat="41.634163948297285" lon="13.327561323716989"><ele>174.8</ele><time>2026-04-23T16:16:46Z</time></trkpt><trkpt lat="41.634083601214236" lon="13.327466799546066"><ele>175.2</ele><time>2026-04-23T16:16:47Z</time></trkpt><trkpt lat="41.63399976299968" lon="13.327369661648921"><ele>175.60000000000002</ele><time>2026-04-23T16:16:48Z</time></trkpt><trkpt lat="41.63391282789663" lon="13.327272762281524"><ele>176.0</ele><time>2026-04-23T16:16:49Z</time></trkpt><trkpt lat="41.63382171572169" lon="13.327175199262031"><ele>176.75</ele><time>2026-04-23T16:16:50Z</time></trkpt><trkpt lat="41.6337298656976" lon="13.327085187149356"><ele>177.5</ele><time>2026-04-23T16:16:51Z</time></trkpt><trkpt lat="41.63363446411972" lon="13.32700124150631"><ele>178.25</ele><time>2026-04-23T16:16:52Z</time></trkpt><trkpt lat="41.63353690688811" lon="13.326917005883853"><ele>179.0</ele><time>2026-04-23T16:16:53Z</time></trkpt><trkpt lat="41.63343642142243" lon="13.326831194385276"><ele>177.25</ele><time>2026-04-23T16:16:54Z</time></trkpt><trkpt lat="41.633334095000734" lon="13.326750321594442"><ele>175.5</ele><time>2026-04-23T16:16:55Z</time></trkpt><trkpt lat="41.633228987473885" lon="13.326674543965327"><ele>173.75</ele><time>2026-04-23T16:16:56Z</time></trkpt><trkpt lat="41.6331220264257" lon="13.326601112133202"><ele>172.0</ele><time>2026-04-23T16:16:57Z</time></trkpt><trkpt lat="41.6330135974055" lon="13.32653282630837"><ele>172.0</ele><time>2026-04-23T16:16:58Z</time></trkpt><trkpt lat="41.632903643219215" lon="13.326467324435347"><ele>172.0</ele><time>2026-04-23T16:16:59Z</time></trkpt><trkpt lat="41.63279417636325" lon="13.32640621575994"><ele>172.0</ele><time>2026-04-23T16:17:00Z</time></trkpt><trkpt lat="41.63267498189302" lon="13.326386034443653"><ele>172.0</ele><time>2026-04-23T16:17:01Z</time></trkpt><trkpt lat="41.63256678852521" lon="13.326335168694714"><ele>172.2</ele><time>2026-04-23T16:17:02Z</time></trkpt><trkpt lat="41.63246218810759" lon="13.326287260793277"><ele>172.39999999999998</ele><time>2026-04-23T16:17:03Z</time></trkpt><trkpt lat="41.63236094606883" lon="13.326242819649396"><ele>172.60000000000002</ele><time>2026-04-23T16:17:04Z</time></trkpt><trkpt lat="41.632260473237935" lon="13.326198491809853"><ele>172.8</ele><time>2026-04-23T16:17:05Z</time></trkpt><trkpt lat="41.63216249622263" lon="13.326154514429888"><ele>173.0</ele><time>2026-04-23T16:17:06Z</time></trkpt><trkpt lat="41.632065927440806" lon="13.326113204593817"><ele>172.83333333333331</ele><time>2026-04-23T16:17:07Z</time></trkpt><trkpt lat="41.63197290977369" lon="13.326074302112692"><ele>172.66666666666666</ele><time>2026-04-23T16:17:08Z</time></trkpt><trkpt lat="41.63188805853928" lon="13.326013432419575"><ele>172.5</ele><time>2026-04-23T16:17:09Z</time></trkpt><trkpt lat="41.6317970298003" lon="13.325998895682446"><ele>172.33333333333334</ele><time>2026-04-23T16:17:10Z</time></trkpt><trkpt lat="41.63171781096259" lon="13.32596489948432"><ele>172.16666666666669</ele><time>2026-04-23T16:17:11Z</time></trkpt><trkpt lat="41.63165061049461" lon="13.325937123725538"><ele>172.0</ele><time>2026-04-23T16:17:12Z</time></trkpt><trkpt lat="41.6315723690279" lon="13.325905012396117"><ele>172.0</ele><time>2026-04-23T16:17:14Z</time></trkpt><trkpt lat="41.631510795011785" lon="13.325861061840508"><ele>172.0</ele><time>2026-04-23T16:17:31Z</time></trkpt><trkpt lat="41.63142915584673" lon="13.32582885135934"><ele>172.0</ele><time>2026-04-23T16:18:01Z</time></trkpt><trkpt lat="41.63136233969222" lon="13.325801588115874"><ele>172.0</ele><time>2026-04-23T16:18:03Z</time></trkpt><trkpt lat="41.63127877736519" lon="13.325767337126067"><ele>172.0</ele><time>2026-04-23T16:18:05Z</time></trkpt><trkpt lat="41.631190390532595" lon="13.325732945843363"><ele>172.0</ele><time>2026-04-23T16:18:07Z</time></trkpt><trkpt lat="41.631082589664295" lon="13.325690332460939"><ele>171.33333333333334</ele><time>2026-04-23T16:18:09Z</time></trkpt><trkpt lat="41.63102636659555" lon="13.325640542328395"><ele>170.66666666666669</ele><time>2026-04-23T16:18:10Z</time></trkpt><trkpt lat="41.63095829697885" lon="13.325608336029482"><ele>170.0</ele><time>2026-04-23T16:18:11Z</time></trkpt><trkpt lat="41.630886536483764" lon="13.32557610064791"><ele>169.33333333333334</ele><time>2026-04-23T16:18:12Z</time></trkpt><trkpt lat="41.63080760864859" lon="13.325543404987249"><ele>168.66666666666666</ele><time>2026-04-23T16:18:13Z</time></trkpt><trkpt lat="41.630732350953195" lon="13.325513041623505"><ele>168.0</ele><time>2026-04-23T16:18:14Z</time></trkpt><trkpt lat="41.63065192956781" lon="13.32548266156838"><ele>167.8</ele><time>2026-04-23T16:18:15Z</time></trkpt><trkpt lat="41.630567475455905" lon="13.325449019801336"><ele>167.60000000000002</ele><time>2026-04-23T16:18:16Z</time></trkpt><trkpt lat="41.63047814842755" lon="13.325411794103395"><ele>167.39999999999998</ele><time>2026-04-23T16:18:17Z</time></trkpt><trkpt lat="41.630383569252636" lon="13.325369605723973"><ele>167.2</ele><time>2026-04-23T16:18:18Z</time></trkpt><trkpt lat="41.630283574281805" lon="13.325325544828553"><ele>167.0</ele><time>2026-04-23T16:18:19Z</time></trkpt><trkpt lat="41.63017942196216" lon="13.325280569966127"><ele>166.75</ele><time>2026-04-23T16:18:20Z</time></trkpt><trkpt lat="41.63007135587948" lon="13.325233905067696"><ele>166.5</ele><time>2026-04-23T16:18:21Z</time></trkpt><trkpt lat="41.629961202662386" lon="13.32518703930404"><ele>166.25</ele><time>2026-04-23T16:18:22Z</time></trkpt><trkpt lat="41.62984888463694" lon="13.325140344964469"><ele>166.0</ele><time>2026-04-23T16:18:23Z</time></trkpt><trkpt lat="41.62973540902219" lon="13.325093169376538"><ele>166.0</ele><time>2026-04-23T16:18:24Z</time></trkpt><trkpt lat="41.62962061747707" lon="13.325045442974579"><ele>166.0</ele><time>2026-04-23T16:18:25Z</time></trkpt><trkpt lat="41.62950561260165" lon="13.324996369126183"><ele>166.0</ele><time>2026-04-23T16:18:26Z</time></trkpt><trkpt lat="41.62939308729846" lon="13.324951910597454"><ele>166.0</ele><time>2026-04-23T16:18:27Z</time></trkpt><trkpt lat="41.629286163888565" lon="13.324910354251214"><ele>165.5</ele><time>2026-04-23T16:18:28Z</time></trkpt><trkpt lat="41.62917966046146" lon="13.324863499706517"><ele>165.0</ele><time>2026-04-23T16:18:29Z</time></trkpt><trkpt lat="41.629074632914545" lon="13.324816668647674"><ele>164.5</ele><time>2026-04-23T16:18:30Z</time></trkpt><trkpt lat="41.628964055127476" lon="13.324771374806613"><ele>164.0</ele><time>2026-04-23T16:18:31Z</time></trkpt><trkpt lat="41.62885642130038" lon="13.324727327737406"><ele>163.79999999999998</ele><time>2026-04-23T16:18:32Z</time></trkpt><trkpt lat="41.628750071810906" lon="13.324683806252644"><ele>163.6</ele><time>2026-04-23T16:18:33Z</time></trkpt><trkpt lat="41.62864706933223" lon="13.324640885729215"><ele>163.4</ele><time>2026-04-23T16:18:34Z</time></trkpt><trkpt lat="41.628546693381324" lon="13.324597685100047"><ele>163.2</ele><time>2026-04-23T16:18:35Z</time></trkpt><trkpt lat="41.6284476573922" lon="13.32455562860354"><ele>163.0</ele><time>2026-04-23T16:18:36Z</time></trkpt><trkpt lat="41.62834684276219" lon="13.324512748390125"><ele>162.8</ele><time>2026-04-23T16:18:37Z</time></trkpt><trkpt lat="41.628247373102724" lon="13.324468365602687"><ele>162.60000000000002</ele><time>2026-04-23T16:18:38Z</time></trkpt><trkpt lat="41.62814532168123" lon="13.324425773852681"><ele>162.39999999999998</ele><time>2026-04-23T16:18:39Z</time></trkpt><trkpt lat="41.628042034228415" lon="13.32438228817593"><ele>162.2</ele><time>2026-04-23T16:18:40Z</time></trkpt><trkpt lat="41.62793680124093" lon="13.324340040201127"><ele>162.0</ele><time>2026-04-23T16:18:41Z</time></trkpt><trkpt lat="41.62783125019001" lon="13.32429561646152"><ele>162.39999999999998</ele><time>2026-04-23T16:18:42Z</time></trkpt><trkpt lat="41.62772505394273" lon="13.324249022994017"><ele>162.79999999999998</ele><time>2026-04-23T16:18:43Z</time></trkpt><trkpt lat="41.62761838544923" lon="13.324209112852875"><ele>163.2</ele><time>2026-04-23T16:18:44Z</time></trkpt><trkpt lat="41.62751514469094" lon="13.324165966384886"><ele>163.6</ele><time>2026-04-23T16:18:45Z</time></trkpt><trkpt lat="41.627414408883865" lon="13.324123866785206"><ele>164.0</ele><time>2026-04-23T16:18:46Z</time></trkpt><trkpt lat="41.627309396770606" lon="13.324103179912456"><ele>164.0</ele><time>2026-04-23T16:18:47Z</time></trkpt><trkpt lat="41.62721015571195" lon="13.324061141271363"><ele>164.0</ele><time>2026-04-23T16:18:48Z</time></trkpt><trkpt lat="41.62711128931271" lon="13.324016964479897"><ele>164.0</ele><time>2026-04-23T16:18:49Z</time></trkpt><trkpt lat="41.627012975394756" lon="13.323974791014498"><ele>164.0</ele><time>2026-04-23T16:18:50Z</time></trkpt><trkpt lat="41.62692401568213" lon="13.323931602898286"><ele>164.0</ele><time>2026-04-23T16:18:51Z</time></trkpt><trkpt lat="41.626838442781036" lon="13.323893520928433"><ele>163.33333333333331</ele><time>2026-04-23T16:18:52Z</time></trkpt><trkpt lat="41.626756806238596" lon="13.323855104231164"><ele>162.66666666666666</ele><time>2026-04-23T16:18:53Z</time></trkpt><trkpt lat="41.62668090972595" lon="13.323818655360876"><ele>162.0</ele><time>2026-04-23T16:18:54Z</time></trkpt><trkpt lat="41.62661332488412" lon="13.323786101976415"><ele>161.33333333333334</ele><time>2026-04-23T16:18:55Z</time></trkpt><trkpt lat="41.62655077411886" lon="13.323754702906294"><ele>160.66666666666669</ele><time>2026-04-23T16:18:56Z</time></trkpt><trkpt lat="41.626456070820005" lon="13.323704533027946"><ele>160.0</ele><time>2026-04-23T16:18:58Z</time></trkpt><trkpt lat="41.626387777265364" lon="13.323664896248355"><ele>160.0</ele><time>2026-04-23T16:19:01Z</time></trkpt><trkpt lat="41.62631319057084" lon="13.323626034637575"><ele>160.0</ele><time>2026-04-23T16:19:17Z</time></trkpt><trkpt lat="41.62622621299081" lon="13.32357385936802"><ele>160.0</ele><time>2026-04-23T16:19:19Z</time></trkpt><trkpt lat="41.62610909813074" lon="13.323500845774392"><ele>160.0</ele><time>2026-04-23T16:19:21Z</time></trkpt><trkpt lat="41.626043165977926" lon="13.32345865586447"><ele>160.0</ele><time>2026-04-23T16:19:22Z</time></trkpt><trkpt lat="41.6259756260344" lon="13.323412007707285"><ele>160.2</ele><time>2026-04-23T16:19:23Z</time></trkpt><trkpt lat="41.62589664486802" lon="13.323356031221712"><ele>160.4</ele><time>2026-04-23T16:19:24Z</time></trkpt><trkpt lat="41.62580558682863" lon="13.323291286671855"><ele>160.60000000000002</ele><time>2026-04-23T16:19:25Z</time></trkpt><trkpt lat="41.62571244268647" lon="13.32322869311876"><ele>160.8</ele><time>2026-04-23T16:19:26Z</time></trkpt><trkpt lat="41.62561469208438" lon="13.32316100367085"><ele>161.0</ele><time>2026-04-23T16:19:27Z</time></trkpt><trkpt lat="41.625511017802644" lon="13.323089490292025"><ele>161.0</ele><time>2026-04-23T16:19:28Z</time></trkpt><trkpt lat="41.62540357548897" lon="13.323015249637589"><ele>161.0</ele><time>2026-04-23T16:19:29Z</time></trkpt><trkpt lat="41.62529697518201" lon="13.322941252784457"><ele>161.0</ele><time>2026-04-23T16:19:30Z</time></trkpt><trkpt lat="41.625202048377254" lon="13.322846820851916"><ele>161.0</ele><time>2026-04-23T16:19:31Z</time></trkpt><trkpt lat="41.625102126685775" lon="13.322772856388566"><ele>161.0</ele><time>2026-04-23T16:19:32Z</time></trkpt><trkpt lat="41.62500699137259" lon="13.322702520495856"><ele>161.0</ele><time>2026-04-23T16:19:33Z</time></trkpt><trkpt lat="41.624918446073316" lon="13.322638918193007"><ele>161.0</ele><time>2026-04-23T16:19:34Z</time></trkpt><trkpt lat="41.62483473625241" lon="13.322578789233528"><ele>161.0</ele><time>2026-04-23T16:19:35Z</time></trkpt><trkpt lat="41.62475720397007" lon="13.322522689145998"><ele>161.0</ele><time>2026-04-23T16:19:36Z</time></trkpt><trkpt lat="41.62468192856853" lon="13.322468146538196"><ele>161.0</ele><time>2026-04-23T16:19:37Z</time></trkpt><trkpt lat="41.6246079396389" lon="13.322414333225948"><ele>161.0</ele><time>2026-04-23T16:19:38Z</time></trkpt><trkpt lat="41.624530746424696" lon="13.322356663285207"><ele>161.0</ele><time>2026-04-23T16:19:39Z</time></trkpt><trkpt lat="41.62445005263407" lon="13.322296378123026"><ele>161.0</ele><time>2026-04-23T16:19:40Z</time></trkpt><trkpt lat="41.624366999546886" lon="13.322234330376174"><ele>161.0</ele><time>2026-04-23T16:19:41Z</time></trkpt><trkpt lat="41.62426844919235" lon="13.322201872242779"><ele>160.4</ele><time>2026-04-23T16:19:42Z</time></trkpt><trkpt lat="41.624182470260976" lon="13.322136841779331"><ele>159.8</ele><time>2026-04-23T16:19:43Z</time></trkpt><trkpt lat="41.62409580344918" lon="13.322069292909465"><ele>159.20000000000002</ele><time>2026-04-23T16:19:44Z</time></trkpt><trkpt lat="41.6240067609581" lon="13.32200015595676"><ele>158.60000000000002</ele><time>2026-04-23T16:19:45Z</time></trkpt><trkpt lat="41.62391680460071" lon="13.321932892918225"><ele>158.0</ele><time>2026-04-23T16:19:46Z</time></trkpt><trkpt lat="41.62382486619919" lon="13.321867030310433"><ele>158.0</ele><time>2026-04-23T16:19:47Z</time></trkpt><trkpt lat="41.62374468046123" lon="13.321769107592345"><ele>158.0</ele><time>2026-04-23T16:19:48Z</time></trkpt><trkpt lat="41.62365121635109" lon="13.321699963568276"><ele>158.0</ele><time>2026-04-23T16:19:49Z</time></trkpt><trkpt lat="41.623558634140686" lon="13.321632599147753"><ele>158.0</ele><time>2026-04-23T16:19:50Z</time></trkpt><trkpt lat="41.62346689728906" lon="13.321565849813085"><ele>158.0</ele><time>2026-04-23T16:19:51Z</time></trkpt><trkpt lat="41.623373816634675" lon="13.321498122712564"><ele>158.20000000000002</ele><time>2026-04-23T16:19:52Z</time></trkpt><trkpt lat="41.62328210372141" lon="13.321430693322732"><ele>158.4</ele><time>2026-04-23T16:19:53Z</time></trkpt><trkpt lat="41.62319314857798" lon="13.321364354533154"><ele>158.60000000000002</ele><time>2026-04-23T16:19:54Z</time></trkpt><trkpt lat="41.62310635763498" lon="13.321299629708957"><ele>158.8</ele><time>2026-04-23T16:19:55Z</time></trkpt><trkpt lat="41.62302392883926" lon="13.321237457240057"><ele>159.0</ele><time>2026-04-23T16:19:56Z</time></trkpt><trkpt lat="41.622926122154546" lon="13.321220926881436"><ele>158.66666666666666</ele><time>2026-04-23T16:19:57Z</time></trkpt><trkpt lat="41.622851136795106" lon="13.321163795346306"><ele>158.33333333333334</ele><time>2026-04-23T16:19:58Z</time></trkpt><trkpt lat="41.622781878912896" lon="13.321107769080431"><ele>158.0</ele><time>2026-04-23T16:19:59Z</time></trkpt><trkpt lat="41.622724269506605" lon="13.321060383790293"><ele>157.66666666666669</ele><time>2026-04-23T16:20:00Z</time></trkpt><trkpt lat="41.622657561116945" lon="13.321004868183884"><ele>157.33333333333334</ele><time>2026-04-23T16:20:02Z</time></trkpt><trkpt lat="41.62261329992376" lon="13.320909089254867"><ele>157.0</ele><time>2026-04-23T16:20:14Z</time></trkpt><trkpt lat="41.62249909529941" lon="13.320998823396591"><ele>157.0</ele><time>2026-04-23T16:20:19Z</time></trkpt><trkpt lat="41.622454838729006" lon="13.321061915732663"><ele>157.0</ele><time>2026-04-23T16:20:26Z</time></trkpt><trkpt lat="41.622377316028754" lon="13.321128497892857"><ele>157.0</ele><time>2026-04-23T16:20:29Z</time></trkpt><trkpt lat="41.62230718264385" lon="13.32112824224125"><ele>157.0</ele><time>2026-04-23T16:20:39Z</time></trkpt><trkpt lat="41.62224630737177" lon="13.321049115846707"><ele>157.0</ele><time>2026-04-23T16:20:42Z</time></trkpt><trkpt lat="41.62219612840299" lon="13.320985267054178"><ele>157.0</ele><time>2026-04-23T16:20:45Z</time></trkpt><trkpt lat="41.622115390520605" lon="13.321060902438996"><ele>157.0</ele><time>2026-04-23T16:21:52Z</time></trkpt><trkpt lat="41.62215295970166" lon="13.320991002412187"><ele>157.0</ele><time>2026-04-23T16:22:40Z</time></trkpt><trkpt lat="41.6221337931646" lon="13.321072298229288"><ele>157.0</ele><time>2026-04-23T16:23:31Z</time></trkpt><trkpt lat="41.622096810183244" lon="13.321175036434862"><ele>157.0</ele><time>2026-04-23T16:41:43Z</time></trkpt><trkpt lat="41.62216317081966" lon="13.321284400944299"><ele>157.0</ele><time>2026-04-23T16:41:48Z</time></trkpt><trkpt lat="41.62218406578242" lon="13.321391931769316"><ele>157.0</ele><time>2026-04-23T16:42:01Z</time></trkpt><trkpt lat="41.62219517449836" lon="13.32147635691894"><ele>157.0</ele><time>2026-04-23T16:42:11Z</time></trkpt><trkpt lat="41.62215767281104" lon="13.321389502206904"><ele>157.0</ele><time>2026-04-23T16:42:18Z</time></trkpt><trkpt lat="41.6221442841779" lon="13.321285273341239"><ele>157.0</ele><time>2026-04-23T16:42:21Z</time></trkpt><trkpt lat="41.622116910899905" lon="13.321080126285505"><ele>157.0</ele><time>2026-04-23T16:49:01Z</time></trkpt><trkpt lat="41.62215240211948" lon="13.320979279644591"><ele>157.0</ele><time>2026-04-23T16:58:24Z</time></trkpt><trkpt lat="41.622189794235105" lon="13.320911166469259"><ele>156.99999999999997</ele><time>2026-04-23T16:58:31Z</time></trkpt><trkpt lat="41.6221679925418" lon="13.32099962816894"><ele>157.0</ele><time>2026-04-23T16:59:47.999Z</time></trkpt><trkpt lat="41.62212720919649" lon="13.321066619506226"><ele>157.0</ele><time>2026-04-23T16:59:57.999Z</time></trkpt><trkpt lat="41.62217079384839" lon="13.320926630541154"><ele>157.0</ele><time>2026-04-23T17:13:57.999Z</time></trkpt><trkpt lat="41.6221441072897" lon="13.321004393926911"><ele>157.0</ele><time>2026-04-23T17:14:20.999Z</time></trkpt><trkpt lat="41.62214558735137" lon="13.321095431230171"><ele>156.99999999999997</ele><time>2026-04-23T17:14:54Z</time></trkpt><trkpt lat="41.622124285724006" lon="13.321016022430731"><ele>157.0</ele><time>2026-04-23T17:17:43.999Z</time></trkpt><trkpt lat="41.622065818047865" lon="13.321054225096052"><ele>156.99999999999997</ele><time>2026-04-23T17:18:33.999Z</time></trkpt><trkpt lat="41.622143163059775" lon="13.321080142059367"><ele>157.0</ele><time>2026-04-23T17:20:37.999Z</time></trkpt><trkpt lat="41.62211739135944" lon="13.321163656924199"><ele>157.0</ele><time>2026-04-23T17:20:49.999Z</time></trkpt><trkpt lat="41.62205965647624" lon="13.321204748435486"><ele>157.0</ele><time>2026-04-23T17:20:59.999Z</time></trkpt><trkpt lat="41.62210477101567" lon="13.321130019101709"><ele>157.0</ele><time>2026-04-23T17:27:59Z</time></trkpt><trkpt lat="41.62211427561139" lon="13.321039403581977"><ele>156.99999999999997</ele><time>2026-04-23T17:28:12Z</time></trkpt><trkpt lat="41.62217531244963" lon="13.320986506203338"><ele>157.0</ele><time>2026-04-23T17:28:21Z</time></trkpt><trkpt lat="41.62222699432571" lon="13.320933086138515"><ele>157.0</ele><time>2026-04-23T17:28:27Z</time></trkpt><trkpt lat="41.62221462753261" lon="13.32101910203243"><ele>157.0</ele><time>2026-04-23T17:28:56Z</time></trkpt><trkpt lat="41.62226018966694" lon="13.321098042390664"><ele>157.0</ele><time>2026-04-23T17:28:59Z</time></trkpt><trkpt lat="41.62232582803839" lon="13.321171116419416"><ele>157.0</ele><time>2026-04-23T17:29:02Z</time></trkpt><trkpt lat="41.622415845470314" lon="13.321193574388506"><ele>157.0</ele><time>2026-04-23T17:29:05Z</time></trkpt><trkpt lat="41.62247145179442" lon="13.32114432166822"><ele>157.0</ele><time>2026-04-23T17:29:07Z</time></trkpt><trkpt lat="41.62252711985329" lon="13.32109391284636"><ele>157.0</ele><time>2026-04-23T17:29:09Z</time></trkpt><trkpt lat="41.622598885531445" lon="13.321043549905035"><ele>157.0</ele><time>2026-04-23T17:29:12Z</time></trkpt><trkpt lat="41.62266743375577" lon="13.321042582869486"><ele>157.0</ele><time>2026-04-23T17:29:23Z</time></trkpt><trkpt lat="41.622762212255395" lon="13.321103223772287"><ele>157.0</ele><time>2026-04-23T17:29:25Z</time></trkpt><trkpt lat="41.62287177818918" lon="13.321185890338459"><ele>157.0</ele><time>2026-04-23T17:29:27.001Z</time></trkpt><trkpt lat="41.62302512669692" lon="13.321303206926657"><ele>157.0</ele><time>2026-04-23T17:29:29Z</time></trkpt><trkpt lat="41.623091825492224" lon="13.321344188390134"><ele>157.0</ele><time>2026-04-23T17:29:30.001Z</time></trkpt><trkpt lat="41.62315155085954" lon="13.321397181416978"><ele>157.0</ele><time>2026-04-23T17:29:31Z</time></trkpt><trkpt lat="41.62322218098468" lon="13.321446108630912"><ele>157.0</ele><time>2026-04-23T17:29:32.001Z</time></trkpt><trkpt lat="41.623298183864165" lon="13.321498596580518"><ele>157.0</ele><time>2026-04-23T17:29:33.001Z</time></trkpt><trkpt lat="41.62337640566959" lon="13.321563402599784"><ele>157.0</ele><time>2026-04-23T17:29:34.001Z</time></trkpt><trkpt lat="41.62345944346632" lon="13.321620139940508"><ele>157.16666666666669</ele><time>2026-04-23T17:29:35.001Z</time></trkpt><trkpt lat="41.623536621189025" lon="13.32167547688"><ele>157.33333333333334</ele><time>2026-04-23T17:29:36.001Z</time></trkpt><trkpt lat="41.62360492953466" lon="13.32172751553669"><ele>157.5</ele><time>2026-04-23T17:29:37.001Z</time></trkpt><trkpt lat="41.62366715573895" lon="13.32177615476715"><ele>157.66666666666666</ele><time>2026-04-23T17:29:38.001Z</time></trkpt><trkpt lat="41.62373325493825" lon="13.32182408283771"><ele>157.83333333333331</ele><time>2026-04-23T17:29:39.001Z</time></trkpt><trkpt lat="41.623799908354485" lon="13.321873150329715"><ele>158.0</ele><time>2026-04-23T17:29:40.001Z</time></trkpt><trkpt lat="41.6238636009708" lon="13.321922350106702"><ele>158.0</ele><time>2026-04-23T17:29:41Z</time></trkpt><trkpt lat="41.62392230389427" lon="13.32196677619452"><ele>158.0</ele><time>2026-04-23T17:29:42Z</time></trkpt><trkpt lat="41.62402520809544" lon="13.322044886388598"><ele>158.0</ele><time>2026-04-23T17:29:44Z</time></trkpt><trkpt lat="41.624110889809316" lon="13.322100174360646"><ele>158.0</ele><time>2026-04-23T17:29:46Z</time></trkpt><trkpt lat="41.62417162516175" lon="13.322140664401134"><ele>158.0</ele><time>2026-04-23T17:29:48Z</time></trkpt><trkpt lat="41.624240832055634" lon="13.322194249431977"><ele>158.0</ele><time>2026-04-23T17:29:53Z</time></trkpt><trkpt lat="41.624331263667294" lon="13.322261843672074"><ele>158.0</ele><time>2026-04-23T17:29:56Z</time></trkpt><trkpt lat="41.62442739474431" lon="13.322325913242757"><ele>158.0</ele><time>2026-04-23T17:29:58Z</time></trkpt><trkpt lat="41.624484120300586" lon="13.322367285370852"><ele>158.0</ele><time>2026-04-23T17:29:59Z</time></trkpt><trkpt lat="41.62453958434725" lon="13.322413409851873"><ele>158.0</ele><time>2026-04-23T17:30:00Z</time></trkpt><trkpt lat="41.6246427859412" lon="13.322491597228117"><ele>158.0</ele><time>2026-04-23T17:30:02Z</time></trkpt><trkpt lat="41.62473659534598" lon="13.322542986373794"><ele>158.5</ele><time>2026-04-23T17:30:04Z</time></trkpt><trkpt lat="41.624795736272056" lon="13.322595291220374"><ele>159.0</ele><time>2026-04-23T17:30:07Z</time></trkpt><trkpt lat="41.62487929353936" lon="13.32267625316053"><ele>159.5</ele><time>2026-04-23T17:30:29Z</time></trkpt><trkpt lat="41.624968223937394" lon="13.322740474108942"><ele>160.0</ele><time>2026-04-23T17:30:33Z</time></trkpt><trkpt lat="41.625041402332336" lon="13.322799916831258"><ele>160.5</ele><time>2026-04-23T17:30:36Z</time></trkpt><trkpt lat="41.625116855438556" lon="13.322852883798596"><ele>161.0</ele><time>2026-04-23T17:30:39Z</time></trkpt><trkpt lat="41.62520193834929" lon="13.322909003921739"><ele>161.0</ele><time>2026-04-23T17:30:41Z</time></trkpt><trkpt lat="41.62528230811359" lon="13.322963216694813"><ele>161.0</ele><time>2026-04-23T17:30:43Z</time></trkpt><trkpt lat="41.62538930317119" lon="13.32304463955338"><ele>161.0</ele><time>2026-04-23T17:30:45Z</time></trkpt><trkpt lat="41.625454007467056" lon="13.323093768018055"><ele>161.0</ele><time>2026-04-23T17:30:46Z</time></trkpt><trkpt lat="41.62552960635193" lon="13.323149809351861"><ele>161.0</ele><time>2026-04-23T17:30:47Z</time></trkpt><trkpt lat="41.625622430391644" lon="13.323224430890274"><ele>161.0</ele><time>2026-04-23T17:30:48Z</time></trkpt><trkpt lat="41.62570974347709" lon="13.323293319483543"><ele>161.0</ele><time>2026-04-23T17:30:49Z</time></trkpt><trkpt lat="41.625801492970695" lon="13.323363118416184"><ele>161.0</ele><time>2026-04-23T17:30:50Z</time></trkpt><trkpt lat="41.62589066744107" lon="13.32342640223736"><ele>161.0</ele><time>2026-04-23T17:30:51Z</time></trkpt><trkpt lat="41.625981924312285" lon="13.323482879248447"><ele>161.0</ele><time>2026-04-23T17:30:52Z</time></trkpt><trkpt lat="41.6260754893768" lon="13.323542652267458"><ele>160.8</ele><time>2026-04-23T17:30:53Z</time></trkpt><trkpt lat="41.626168494004176" lon="13.323603733769586"><ele>160.60000000000002</ele><time>2026-04-23T17:30:54Z</time></trkpt><trkpt lat="41.62626423422886" lon="13.323659495245362"><ele>160.4</ele><time>2026-04-23T17:30:55Z</time></trkpt><trkpt lat="41.62635654335938" lon="13.32371168581862"><ele>160.2</ele><time>2026-04-23T17:30:56Z</time></trkpt><trkpt lat="41.62645270144325" lon="13.323755247717472"><ele>160.0</ele><time>2026-04-23T17:30:57Z</time></trkpt><trkpt lat="41.62654561534571" lon="13.32380576575012"><ele>160.0</ele><time>2026-04-23T17:30:58Z</time></trkpt><trkpt lat="41.62663676546581" lon="13.323854148467154"><ele>160.0</ele><time>2026-04-23T17:30:59Z</time></trkpt><trkpt lat="41.62672532470568" lon="13.32389779426875"><ele>160.0</ele><time>2026-04-23T17:31:00Z</time></trkpt><trkpt lat="41.626810483903476" lon="13.323943164567858"><ele>160.0</ele><time>2026-04-23T17:31:01Z</time></trkpt><trkpt lat="41.62690197305721" lon="13.32398136136083"><ele>160.0</ele><time>2026-04-23T17:31:02Z</time></trkpt><trkpt lat="41.62698960981634" lon="13.324011345458304"><ele>160.8</ele><time>2026-04-23T17:31:03Z</time></trkpt><trkpt lat="41.62707485064348" lon="13.324042802485176"><ele>161.6</ele><time>2026-04-23T17:31:04Z</time></trkpt><trkpt lat="41.627163075140906" lon="13.324076505613137"><ele>162.39999999999998</ele><time>2026-04-23T17:31:05Z</time></trkpt><trkpt lat="41.627253469834706" lon="13.324113235516817"><ele>163.2</ele><time>2026-04-23T17:31:06Z</time></trkpt><trkpt lat="41.62734480925461" lon="13.324152912913698"><ele>164.0</ele><time>2026-04-23T17:31:07Z</time></trkpt><trkpt lat="41.62743803830845" lon="13.324192063282636"><ele>164.0</ele><time>2026-04-23T17:31:08Z</time></trkpt><trkpt lat="41.6275284713507" lon="13.32423113243164"><ele>164.0</ele><time>2026-04-23T17:31:09Z</time></trkpt><trkpt lat="41.62762363294773" lon="13.324272677890283"><ele>164.0</ele><time>2026-04-23T17:31:10Z</time></trkpt><trkpt lat="41.627720729554305" lon="13.324309842971509"><ele>164.0</ele><time>2026-04-23T17:31:11Z</time></trkpt><trkpt lat="41.62782295373912" lon="13.324353192039473"><ele>164.0</ele><time>2026-04-23T17:31:12Z</time></trkpt><trkpt lat="41.62793220765691" lon="13.324393838128357"><ele>163.6</ele><time>2026-04-23T17:31:13Z</time></trkpt><trkpt lat="41.6280428168475" lon="13.324434014054379"><ele>163.2</ele><time>2026-04-23T17:31:14Z</time></trkpt><trkpt lat="41.6281527986923" lon="13.324479377396909"><ele>162.79999999999998</ele><time>2026-04-23T17:31:15Z</time></trkpt><trkpt lat="41.62825517546258" lon="13.324522678632865"><ele>162.39999999999998</ele><time>2026-04-23T17:31:16Z</time></trkpt><trkpt lat="41.62835406478885" lon="13.324564091635887"><ele>162.0</ele><time>2026-04-23T17:31:17Z</time></trkpt><trkpt lat="41.62844878407652" lon="13.324605189050276"><ele>162.0</ele><time>2026-04-23T17:31:18Z</time></trkpt><trkpt lat="41.62853975511751" lon="13.324647056452628"><ele>162.0</ele><time>2026-04-23T17:31:19Z</time></trkpt><trkpt lat="41.6286266590203" lon="13.32468716194897"><ele>162.0</ele><time>2026-04-23T17:31:20Z</time></trkpt><trkpt lat="41.6287104069899" lon="13.32472219580596"><ele>162.0</ele><time>2026-04-23T17:31:21Z</time></trkpt><trkpt lat="41.62879219478451" lon="13.324756738751928"><ele>162.0</ele><time>2026-04-23T17:31:22Z</time></trkpt><trkpt lat="41.62887026570223" lon="13.324789402062747"><ele>162.0</ele><time>2026-04-23T17:31:23Z</time></trkpt><trkpt lat="41.62894687445693" lon="13.324823533398353"><ele>162.28571428571428</ele><time>2026-04-23T17:31:24Z</time></trkpt><trkpt lat="41.62902366072546" lon="13.324856537876245"><ele>162.57142857142856</ele><time>2026-04-23T17:31:25Z</time></trkpt><trkpt lat="41.62910284666798" lon="13.324890396093938"><ele>162.85714285714283</ele><time>2026-04-23T17:31:26Z</time></trkpt><trkpt lat="41.62917864385282" lon="13.324923361918152"><ele>163.14285714285714</ele><time>2026-04-23T17:31:27Z</time></trkpt><trkpt lat="41.62924865145461" lon="13.324953378355001"><ele>163.42857142857142</ele><time>2026-04-23T17:31:28Z</time></trkpt><trkpt lat="41.62931111604762" lon="13.324977178652812"><ele>163.7142857142857</ele><time>2026-04-23T17:31:29Z</time></trkpt><trkpt lat="41.62937469846148" lon="13.32500620324032"><ele>164.0</ele><time>2026-04-23T17:31:30Z</time></trkpt><trkpt lat="41.62943894062175" lon="13.325033310796414"><ele>164.33333333333331</ele><time>2026-04-23T17:31:31Z</time></trkpt><trkpt lat="41.62950047694457" lon="13.325057838384042"><ele>164.66666666666666</ele><time>2026-04-23T17:31:32Z</time></trkpt><trkpt lat="41.629562562574286" lon="13.325083033720272"><ele>165.0</ele><time>2026-04-23T17:31:33Z</time></trkpt><trkpt lat="41.6296736595236" lon="13.3251384958676"><ele>165.33333333333334</ele><time>2026-04-23T17:31:35Z</time></trkpt><trkpt lat="41.62978009606441" lon="13.32518568259622"><ele>165.66666666666669</ele><time>2026-04-23T17:31:37Z</time></trkpt><trkpt lat="41.629861462778464" lon="13.325218675892238"><ele>166.0</ele><time>2026-04-23T17:31:39Z</time></trkpt><trkpt lat="41.62992528851612" lon="13.325245569810422"><ele>166.0</ele><time>2026-04-23T17:31:42Z</time></trkpt><trkpt lat="41.63000482750829" lon="13.325271326203799"><ele>166.0</ele><time>2026-04-23T17:32:15Z</time></trkpt><trkpt lat="41.63007593772751" lon="13.325300264458413"><ele>166.0</ele><time>2026-04-23T17:32:17Z</time></trkpt><trkpt lat="41.63017576080305" lon="13.325343933477736"><ele>166.0</ele><time>2026-04-23T17:32:19Z</time></trkpt><trkpt lat="41.630298414492295" lon="13.325398202834014"><ele>166.0</ele><time>2026-04-23T17:32:21Z</time></trkpt><trkpt lat="41.63037055788137" lon="13.325429399556365"><ele>166.20000000000002</ele><time>2026-04-23T17:32:22Z</time></trkpt><trkpt lat="41.630469252062525" lon="13.325471157905458"><ele>166.4</ele><time>2026-04-23T17:32:23Z</time></trkpt><trkpt lat="41.630580286059526" lon="13.325517545553133"><ele>166.6</ele><time>2026-04-23T17:32:24Z</time></trkpt><trkpt lat="41.63067788295075" lon="13.325555105392496"><ele>166.8</ele><time>2026-04-23T17:32:25Z</time></trkpt><trkpt lat="41.63077784323743" lon="13.325592659898748"><ele>167.0</ele><time>2026-04-23T17:32:26Z</time></trkpt><trkpt lat="41.63088091693707" lon="13.325632439207396"><ele>167.2</ele><time>2026-04-23T17:32:27Z</time></trkpt><trkpt lat="41.6309720421617" lon="13.325663707346724"><ele>167.39999999999998</ele><time>2026-04-23T17:32:28Z</time></trkpt><trkpt lat="41.63107487933594" lon="13.32570230716421"><ele>167.60000000000002</ele><time>2026-04-23T17:32:29Z</time></trkpt><trkpt lat="41.63117629427759" lon="13.325753092593335"><ele>167.8</ele><time>2026-04-23T17:32:30Z</time></trkpt><trkpt lat="41.63128345541879" lon="13.32580489657806"><ele>168.0</ele><time>2026-04-23T17:32:31Z</time></trkpt><trkpt lat="41.631396401756554" lon="13.32585330490095"><ele>169.0</ele><time>2026-04-23T17:32:32Z</time></trkpt><trkpt lat="41.63150947809983" lon="13.325898868491224"><ele>170.0</ele><time>2026-04-23T17:32:33Z</time></trkpt><trkpt lat="41.63162281618415" lon="13.32594363063388"><ele>171.0</ele><time>2026-04-23T17:32:34Z</time></trkpt><trkpt lat="41.63172454066796" lon="13.325989050956009"><ele>172.0</ele><time>2026-04-23T17:32:35Z</time></trkpt><trkpt lat="41.63183028343538" lon="13.326034746895731"><ele>172.0</ele><time>2026-04-23T17:32:36Z</time></trkpt><trkpt lat="41.63193815742795" lon="13.326072194991822"><ele>172.0</ele><time>2026-04-23T17:32:37Z</time></trkpt><trkpt lat="41.63204760288827" lon="13.326124965648109"><ele>172.0</ele><time>2026-04-23T17:32:38Z</time></trkpt><trkpt lat="41.632169157709995" lon="13.326174110714417"><ele>172.0</ele><time>2026-04-23T17:32:39Z</time></trkpt><trkpt lat="41.63228576255347" lon="13.326217432681052"><ele>172.25</ele><time>2026-04-23T17:32:40Z</time></trkpt><trkpt lat="41.632383511164065" lon="13.32626649882595"><ele>172.5</ele><time>2026-04-23T17:32:41Z</time></trkpt><trkpt lat="41.632489951513875" lon="13.326315013954165"><ele>172.75</ele><time>2026-04-23T17:32:42Z</time></trkpt><trkpt lat="41.63259912107645" lon="13.326365324432908"><ele>173.0</ele><time>2026-04-23T17:32:43Z</time></trkpt><trkpt lat="41.63271357594517" lon="13.326417771903088"><ele>172.8</ele><time>2026-04-23T17:32:44Z</time></trkpt><trkpt lat="41.6328229582363" lon="13.326478064381499"><ele>172.60000000000002</ele><time>2026-04-23T17:32:45Z</time></trkpt><trkpt lat="41.63292513152749" lon="13.326536160395424"><ele>172.39999999999998</ele><time>2026-04-23T17:32:46Z</time></trkpt><trkpt lat="41.63302154867341" lon="13.326595455753916"><ele>172.2</ele><time>2026-04-23T17:32:47Z</time></trkpt><trkpt lat="41.633112368490636" lon="13.32665515403606"><ele>172.0</ele><time>2026-04-23T17:32:48Z</time></trkpt><trkpt lat="41.633197241807615" lon="13.326715329046058"><ele>172.0</ele><time>2026-04-23T17:32:49Z</time></trkpt><trkpt lat="41.63328066139788" lon="13.326778630427903"><ele>172.0</ele><time>2026-04-23T17:32:50Z</time></trkpt><trkpt lat="41.633351883213514" lon="13.32684713572374"><ele>172.0</ele><time>2026-04-23T17:32:51Z</time></trkpt><trkpt lat="41.63341213863973" lon="13.326902725158236"><ele>172.0</ele><time>2026-04-23T17:32:52Z</time></trkpt><trkpt lat="41.633475570694955" lon="13.326941204476292"><ele>172.0</ele><time>2026-04-23T17:32:53Z</time></trkpt><trkpt lat="41.63353860820747" lon="13.326981981107268"><ele>172.0</ele><time>2026-04-23T17:32:54Z</time></trkpt><trkpt lat="41.63363469309359" lon="13.327081490405682"><ele>172.66666666666669</ele><time>2026-04-23T17:32:56Z</time></trkpt><trkpt lat="41.63371061476207" lon="13.327145226252373"><ele>173.33333333333334</ele><time>2026-04-23T17:32:58Z</time></trkpt><trkpt lat="41.63376756530397" lon="13.327199127792255"><ele>174.0</ele><time>2026-04-23T17:33:00Z</time></trkpt><trkpt lat="41.63384652833171" lon="13.327256062556513"><ele>174.66666666666666</ele><time>2026-04-23T17:33:03Z</time></trkpt><trkpt lat="41.63390235245636" lon="13.327329150959459"><ele>175.33333333333331</ele><time>2026-04-23T17:33:06Z</time></trkpt><trkpt lat="41.6339768890951" lon="13.327388395501435"><ele>176.0</ele><time>2026-04-23T17:33:14Z</time></trkpt><trkpt lat="41.63403177243492" lon="13.327451422326543"><ele>176.0</ele><time>2026-04-23T17:33:16Z</time></trkpt><trkpt lat="41.63409387231689" lon="13.327521901051476"><ele>176.0</ele><time>2026-04-23T17:33:19Z</time></trkpt><trkpt lat="41.63416440947187" lon="13.32761047049035"><ele>176.0</ele><time>2026-04-23T17:33:22Z</time></trkpt><trkpt lat="41.634230143689535" lon="13.327689600085716"><ele>176.0</ele><time>2026-04-23T17:33:24Z</time></trkpt><trkpt lat="41.634293580011224" lon="13.327768342557421"><ele>176.0</ele><time>2026-04-23T17:33:26Z</time></trkpt><trkpt lat="41.634358571857646" lon="13.327843231613647"><ele>176.0</ele><time>2026-04-23T17:33:28Z</time></trkpt><trkpt lat="41.63442288571988" lon="13.327924932180887"><ele>175.66666666666666</ele><time>2026-04-23T17:33:30Z</time></trkpt><trkpt lat="41.63448649594826" lon="13.328004973740184"><ele>175.33333333333331</ele><time>2026-04-23T17:33:32Z</time></trkpt><trkpt lat="41.634544281032596" lon="13.328077298354211"><ele>175.0</ele><time>2026-04-23T17:33:34Z</time></trkpt><trkpt lat="41.63460447315266" lon="13.328155804087286"><ele>174.66666666666666</ele><time>2026-04-23T17:33:36Z</time></trkpt><trkpt lat="41.63465936072435" lon="13.328227436307085"><ele>174.33333333333334</ele><time>2026-04-23T17:33:38Z</time></trkpt><trkpt lat="41.63470877922719" lon="13.328292087775008"><ele>174.0</ele><time>2026-04-23T17:33:40Z</time></trkpt><trkpt lat="41.634754842097955" lon="13.32836655152913"><ele>174.0</ele><time>2026-04-23T17:33:43Z</time></trkpt><trkpt lat="41.634797586352086" lon="13.328436148999156"><ele>174.0</ele><time>2026-04-23T17:33:46Z</time></trkpt><trkpt lat="41.63482571124955" lon="13.328535378036682"><ele>174.0</ele><time>2026-04-23T17:33:50Z</time></trkpt><trkpt lat="41.63485995202012" lon="13.32869598629118"><ele>174.0</ele><time>2026-04-23T17:33:52Z</time></trkpt><trkpt lat="41.63489417809274" lon="13.328780674524513"><ele>174.0</ele><time>2026-04-23T17:33:53Z</time></trkpt><trkpt lat="41.63495797085659" lon="13.32884954291583"><ele>174.0</ele><time>2026-04-23T17:33:54Z</time></trkpt><trkpt lat="41.63503047156886" lon="13.328897426566359"><ele>173.83333333333334</ele><time>2026-04-23T17:33:55Z</time></trkpt><trkpt lat="41.63511717220633" lon="13.328929641108497"><ele>173.66666666666666</ele><time>2026-04-23T17:33:56Z</time></trkpt><trkpt lat="41.63518992620152" lon="13.328949447048755"><ele>173.5</ele><time>2026-04-23T17:33:57Z</time></trkpt><trkpt lat="41.63526090428793" lon="13.329012928955448"><ele>173.33333333333331</ele><time>2026-04-23T17:33:58Z</time></trkpt><trkpt lat="41.635330107427386" lon="13.32909054571043"><ele>173.16666666666666</ele><time>2026-04-23T17:33:59Z</time></trkpt><trkpt lat="41.63539996144294" lon="13.329174002722892"><ele>173.0</ele><time>2026-04-23T17:34:00Z</time></trkpt><trkpt lat="41.63547091297243" lon="13.32926669309158"><ele>173.0</ele><time>2026-04-23T17:34:01Z</time></trkpt><trkpt lat="41.63554802551755" lon="13.329359508499769"><ele>173.0</ele><time>2026-04-23T17:34:02Z</time></trkpt><trkpt lat="41.63562078758855" lon="13.329468452541981"><ele>173.0</ele><time>2026-04-23T17:34:03Z</time></trkpt><trkpt lat="41.63571376770876" lon="13.32955188603714"><ele>173.0</ele><time>2026-04-23T17:34:04Z</time></trkpt><trkpt lat="41.63580120884351" lon="13.329633474888446"><ele>173.0</ele><time>2026-04-23T17:34:05Z</time></trkpt><trkpt lat="41.63588230261911" lon="13.329737507791602"><ele>173.25</ele><time>2026-04-23T17:34:06Z</time></trkpt><trkpt lat="41.63598307930995" lon="13.329831008316154"><ele>173.5</ele><time>2026-04-23T17:34:07Z</time></trkpt><trkpt lat="41.63609404326417" lon="13.329910991779206"><ele>173.75</ele><time>2026-04-23T17:34:08Z</time></trkpt><trkpt lat="41.636196781401885" lon="13.33000318007841"><ele>174.0</ele><time>2026-04-23T17:34:09Z</time></trkpt><trkpt lat="41.636300832426045" lon="13.33008991177733"><ele>174.79999999999998</ele><time>2026-04-23T17:34:10Z</time></trkpt><trkpt lat="41.63640089440485" lon="13.330154852879428"><ele>175.6</ele><time>2026-04-23T17:34:11Z</time></trkpt><trkpt lat="41.636488069474105" lon="13.330213327051213"><ele>176.4</ele><time>2026-04-23T17:34:12Z</time></trkpt><trkpt lat="41.63656320375754" lon="13.330273286017599"><ele>177.2</ele><time>2026-04-23T17:34:13Z</time></trkpt><trkpt lat="41.63662356929321" lon="13.330329410830329"><ele>178.0</ele><time>2026-04-23T17:34:14Z</time></trkpt><trkpt lat="41.636700744908396" lon="13.330381366396807"><ele>178.0</ele><time>2026-04-23T17:34:16Z</time></trkpt><trkpt lat="41.63675900034443" lon="13.330415839452916"><ele>178.0</ele><time>2026-04-23T17:34:20Z</time></trkpt><trkpt lat="41.63683612168061" lon="13.330441466424752"><ele>178.0</ele><time>2026-04-23T17:34:23Z</time></trkpt><trkpt lat="41.636907666929105" lon="13.330465751821238"><ele>178.0</ele><time>2026-04-23T17:34:24Z</time></trkpt><trkpt lat="41.636971085224474" lon="13.330496282147132"><ele>178.0</ele><time>2026-04-23T17:34:25Z</time></trkpt><trkpt lat="41.63705509971856" lon="13.330534314649189"><ele>178.0</ele><time>2026-04-23T17:34:26Z</time></trkpt><trkpt lat="41.6371516030094" lon="13.330578107594773"><ele>178.75</ele><time>2026-04-23T17:34:27Z</time></trkpt><trkpt lat="41.637253767501306" lon="13.330618936272264"><ele>179.5</ele><time>2026-04-23T17:34:28Z</time></trkpt><trkpt lat="41.63735974506084" lon="13.330666084745804"><ele>180.25</ele><time>2026-04-23T17:34:29Z</time></trkpt><trkpt lat="41.63747256709554" lon="13.330714239102253"><ele>181.0</ele><time>2026-04-23T17:34:30Z</time></trkpt><trkpt lat="41.637585245439595" lon="13.330760259047976"><ele>181.0</ele><time>2026-04-23T17:34:31Z</time></trkpt><trkpt lat="41.63769869931878" lon="13.330806610375989"><ele>181.0</ele><time>2026-04-23T17:34:32Z</time></trkpt><trkpt lat="41.63780654384116" lon="13.330846575348184"><ele>181.0</ele><time>2026-04-23T17:34:33Z</time></trkpt><trkpt lat="41.63792044711343" lon="13.330887961595865"><ele>181.0</ele><time>2026-04-23T17:34:34Z</time></trkpt><trkpt lat="41.638034772858305" lon="13.33093275974461"><ele>181.0</ele><time>2026-04-23T17:34:35Z</time></trkpt><trkpt lat="41.63814272860956" lon="13.330991954818307"><ele>181.0</ele><time>2026-04-23T17:34:36Z</time></trkpt><trkpt lat="41.63825481329947" lon="13.331051812311086"><ele>181.0</ele><time>2026-04-23T17:34:37Z</time></trkpt><trkpt lat="41.638364138704226" lon="13.331099059084641"><ele>181.0</ele><time>2026-04-23T17:34:38Z</time></trkpt><trkpt lat="41.63846877853797" lon="13.331142858886462"><ele>181.0</ele><time>2026-04-23T17:34:39Z</time></trkpt><trkpt lat="41.638570240620425" lon="13.331185954080913"><ele>181.0</ele><time>2026-04-23T17:34:40Z</time></trkpt><trkpt lat="41.638669897496904" lon="13.331231203587997"><ele>181.0</ele><time>2026-04-23T17:34:41Z</time></trkpt><trkpt lat="41.63876763808081" lon="13.331276121231246"><ele>181.0</ele><time>2026-04-23T17:34:42Z</time></trkpt><trkpt lat="41.638864179542686" lon="13.33132628948016"><ele>181.0</ele><time>2026-04-23T17:34:43Z</time></trkpt><trkpt lat="41.63894155012119" lon="13.331361211938553"><ele>180.66666666666669</ele><time>2026-04-23T17:34:44Z</time></trkpt><trkpt lat="41.63900112719145" lon="13.331407903813894"><ele>180.33333333333334</ele><time>2026-04-23T17:34:45Z</time></trkpt><trkpt lat="41.63906809986916" lon="13.33144278485767"><ele>180.0</ele><time>2026-04-23T17:34:46Z</time></trkpt><trkpt lat="41.6390878665347" lon="13.331535225282854"><ele>179.66666666666666</ele><time>2026-04-23T17:34:47Z</time></trkpt><trkpt lat="41.63917193632447" lon="13.331654640944949"><ele>179.33333333333331</ele><time>2026-04-23T17:34:49Z</time></trkpt><trkpt lat="41.63923313302149" lon="13.331709662751106"><ele>179.0</ele><time>2026-04-23T17:34:50Z</time></trkpt><trkpt lat="41.63932052798587" lon="13.331741628647753"><ele>179.0</ele><time>2026-04-23T17:34:51Z</time></trkpt><trkpt lat="41.63939294806334" lon="13.331739869380073"><ele>179.0</ele><time>2026-04-23T17:34:52Z</time></trkpt><trkpt lat="41.63949277545682" lon="13.331730644683596"><ele>179.0</ele><time>2026-04-23T17:34:55Z</time></trkpt><trkpt lat="41.639613830990584" lon="13.331754611698651"><ele>179.0</ele><time>2026-04-23T17:34:57Z</time></trkpt><trkpt lat="41.6397427379608" lon="13.331833690631694"><ele>179.0</ele><time>2026-04-23T17:34:59Z</time></trkpt><trkpt lat="41.63981232366788" lon="13.331825627310117"><ele>179.66666666666666</ele><time>2026-04-23T17:35:00Z</time></trkpt><trkpt lat="41.63989486335743" lon="13.331831884744942"><ele>180.33333333333331</ele><time>2026-04-23T17:35:01Z</time></trkpt><trkpt lat="41.63996144514634" lon="13.331823662576785"><ele>181.0</ele><time>2026-04-23T17:35:02Z</time></trkpt><trkpt lat="41.64004175169874" lon="13.331847354983566"><ele>181.66666666666666</ele><time>2026-04-23T17:35:03Z</time></trkpt><trkpt lat="41.64011729320165" lon="13.331854307075409"><ele>182.33333333333334</ele><time>2026-04-23T17:35:04Z</time></trkpt><trkpt lat="41.64019812224544" lon="13.33186262513685"><ele>183.0</ele><time>2026-04-23T17:35:05Z</time></trkpt><trkpt lat="41.64026831466112" lon="13.331903486435174"><ele>183.0</ele><time>2026-04-23T17:35:06Z</time></trkpt><trkpt lat="41.64035739928015" lon="13.331917693084458"><ele>183.0</ele><time>2026-04-23T17:35:07Z</time></trkpt><trkpt lat="41.64045849383882" lon="13.33195697269387"><ele>183.0</ele><time>2026-04-23T17:35:08Z</time></trkpt><trkpt lat="41.64056930948985" lon="13.332028704272881"><ele>183.0</ele><time>2026-04-23T17:35:09Z</time></trkpt><trkpt lat="41.640692331074206" lon="13.332085902565533"><ele>183.0</ele><time>2026-04-23T17:35:10Z</time></trkpt><trkpt lat="41.6407952010302" lon="13.332171874732676"><ele>183.0</ele><time>2026-04-23T17:35:11Z</time></trkpt><trkpt lat="41.64092759052001" lon="13.332228381099522"><ele>183.0</ele><time>2026-04-23T17:35:12Z</time></trkpt><trkpt lat="41.64105136283779" lon="13.332263623679495"><ele>183.0</ele><time>2026-04-23T17:35:13Z</time></trkpt><trkpt lat="41.641154771373" lon="13.332311026152361"><ele>183.0</ele><time>2026-04-23T17:35:14Z</time></trkpt><trkpt lat="41.64126226630462" lon="13.332365071740927"><ele>183.0</ele><time>2026-04-23T17:35:15Z</time></trkpt><trkpt lat="41.641369884361296" lon="13.332419608987111"><ele>183.0</ele><time>2026-04-23T17:35:16Z</time></trkpt><trkpt lat="41.64147592040654" lon="13.332472525125427"><ele>183.0</ele><time>2026-04-23T17:35:17Z</time></trkpt><trkpt lat="41.641582765783184" lon="13.332524133758033"><ele>183.0</ele><time>2026-04-23T17:35:18Z</time></trkpt><trkpt lat="41.641690065889705" lon="13.332579675749642"><ele>183.0</ele><time>2026-04-23T17:35:19Z</time></trkpt><trkpt lat="41.64177810612723" lon="13.332623730421298"><ele>183.0</ele><time>2026-04-23T17:35:20Z</time></trkpt><trkpt lat="41.64187097150422" lon="13.332637184681293"><ele>183.0</ele><time>2026-04-23T17:35:21Z</time></trkpt><trkpt lat="41.641961592103556" lon="13.332679192803331"><ele>183.0</ele><time>2026-04-23T17:35:22Z</time></trkpt><trkpt lat="41.64204910934018" lon="13.33271767508091"><ele>183.0</ele><time>2026-04-23T17:35:23Z</time></trkpt><trkpt lat="41.642132439572386" lon="13.332753713643394"><ele>183.0</ele><time>2026-04-23T17:35:24Z</time></trkpt><trkpt lat="41.64221165699808" lon="13.332792657906554"><ele>183.0</ele><time>2026-04-23T17:35:25Z</time></trkpt><trkpt lat="41.642281952378454" lon="13.332831701262508"><ele>183.0</ele><time>2026-04-23T17:35:26Z</time></trkpt><trkpt lat="41.64234589320541" lon="13.33286241530402"><ele>183.0</ele><time>2026-04-23T17:35:27Z</time></trkpt><trkpt lat="41.64245469142991" lon="13.33293230344076"><ele>183.0</ele><time>2026-04-23T17:35:29Z</time></trkpt><trkpt lat="41.642528707335394" lon="13.332934628126356"><ele>183.0</ele><time>2026-04-23T17:35:31Z</time></trkpt><trkpt lat="41.642598214010086" lon="13.33297576031281"><ele>183.0</ele><time>2026-04-23T17:35:33Z</time></trkpt><trkpt lat="41.642654032766686" lon="13.333022869832563"><ele>183.0</ele><time>2026-04-23T17:35:38Z</time></trkpt><trkpt lat="41.64271196636374" lon="13.333131002259128"><ele>183.0</ele><time>2026-04-23T17:35:44Z</time></trkpt><trkpt lat="41.642772422457" lon="13.333176095930643"><ele>183.0</ele><time>2026-04-23T17:35:46Z</time></trkpt><trkpt lat="41.642869855014226" lon="13.333186081573054"><ele>183.0</ele><time>2026-04-23T17:35:48Z</time></trkpt><trkpt lat="41.64293672243735" lon="13.33319035402778"><ele>183.0</ele><time>2026-04-23T17:35:49Z</time></trkpt><trkpt lat="41.64300919003926" lon="13.333154265919738"><ele>183.4</ele><time>2026-04-23T17:35:50Z</time></trkpt><trkpt lat="41.64307818575691" lon="13.333164915831265"><ele>183.8</ele><time>2026-04-23T17:35:51Z</time></trkpt><trkpt lat="41.643140130537866" lon="13.333184720269715"><ele>184.2</ele><time>2026-04-23T17:35:52Z</time></trkpt><trkpt lat="41.64326175426507" lon="13.333226367690006"><ele>184.6</ele><time>2026-04-23T17:35:54Z</time></trkpt><trkpt lat="41.64338274775761" lon="13.333281910934055"><ele>185.0</ele><time>2026-04-23T17:35:56Z</time></trkpt><trkpt lat="41.643445099356036" lon="13.333318023819837"><ele>185.0</ele><time>2026-04-23T17:35:57Z</time></trkpt><trkpt lat="41.64354264356569" lon="13.33336751600046"><ele>185.0</ele><time>2026-04-23T17:35:59Z</time></trkpt><trkpt lat="41.643605957657165" lon="13.333392188410283"><ele>185.0</ele><time>2026-04-23T17:36:00Z</time></trkpt><trkpt lat="41.643668237341124" lon="13.333450566319174"><ele>185.0</ele><time>2026-04-23T17:36:01Z</time></trkpt><trkpt lat="41.64374039036118" lon="13.333490895741496"><ele>185.0</ele><time>2026-04-23T17:36:02Z</time></trkpt><trkpt lat="41.64383571486741" lon="13.333476679098888"><ele>185.0</ele><time>2026-04-23T17:36:03Z</time></trkpt><trkpt lat="41.643914945141546" lon="13.33351897803838"><ele>185.33333333333331</ele><time>2026-04-23T17:36:04Z</time></trkpt><trkpt lat="41.643982556129565" lon="13.333551587738398"><ele>185.66666666666666</ele><time>2026-04-23T17:36:05Z</time></trkpt><trkpt lat="41.644049962575714" lon="13.3335805503897"><ele>186.0</ele><time>2026-04-23T17:36:06Z</time></trkpt><trkpt lat="41.64408018313619" lon="13.333697506740052"><ele>186.33333333333334</ele><time>2026-04-23T17:36:07Z</time></trkpt><trkpt lat="41.644175462897095" lon="13.333633013993719"><ele>186.66666666666669</ele><time>2026-04-23T17:36:08Z</time></trkpt><trkpt lat="41.644244284164095" lon="13.333663106568656"><ele>187.0</ele><time>2026-04-23T17:36:09Z</time></trkpt><trkpt lat="41.64430352474056" lon="13.333693836040906"><ele>187.0</ele><time>2026-04-23T17:36:10Z</time></trkpt><trkpt lat="41.64436585671661" lon="13.333715263977822"><ele>187.0</ele><time>2026-04-23T17:36:11Z</time></trkpt><trkpt lat="41.64437601111275" lon="13.333936677494709"><ele>187.0</ele><time>2026-04-23T17:36:13Z</time></trkpt><trkpt lat="41.64445437490116" lon="13.33400629939713"><ele>187.0</ele><time>2026-04-23T17:36:15Z</time></trkpt><trkpt lat="41.644524618226335" lon="13.334067854520635"><ele>187.0</ele><time>2026-04-23T17:36:17Z</time></trkpt><trkpt lat="41.644587321003534" lon="13.334122801752821"><ele>186.83333333333334</ele><time>2026-04-23T17:36:19Z</time></trkpt><trkpt lat="41.64464796371065" lon="13.33417594372747"><ele>186.66666666666669</ele><time>2026-04-23T17:36:21Z</time></trkpt><trkpt lat="41.64471586190992" lon="13.334235443793997"><ele>186.5</ele><time>2026-04-23T17:36:24Z</time></trkpt><trkpt lat="41.64464581748436" lon="13.334174063101683"><ele>186.33333333333334</ele><time>2026-04-23T17:36:28Z</time></trkpt><trkpt lat="41.6445829707872" lon="13.334118989868017"><ele>186.16666666666666</ele><time>2026-04-23T17:36:29Z</time></trkpt><trkpt lat="41.644517797822644" lon="13.334061877840805"><ele>186.0</ele><time>2026-04-23T17:36:32Z</time></trkpt><trkpt lat="41.64457986878895" lon="13.334116271293249"><ele>186.0</ele><time>2026-04-23T17:36:45Z</time></trkpt><trkpt lat="41.64466296847529" lon="13.334189092589181"><ele>186.0</ele><time>2026-04-23T17:36:55Z</time></trkpt><trkpt lat="41.64474080601941" lon="13.33425730263485"><ele>186.0</ele><time>2026-04-23T17:37:03Z</time></trkpt><trkpt lat="41.64480654618612" lon="13.334298243509386"><ele>186.0</ele><time>2026-04-23T17:37:05Z</time></trkpt><trkpt lat="41.644860423581825" lon="13.334346934988108"><ele>186.0</ele><time>2026-04-23T17:37:08Z</time></trkpt><trkpt lat="41.644912638951205" lon="13.334407017808608"><ele>186.0</ele><time>2026-04-23T17:37:16Z</time></trkpt><trkpt lat="41.64493448520209" lon="13.334537635562281"><ele>186.0</ele><time>2026-04-23T17:37:44Z</time></trkpt><trkpt lat="41.64505030589713" lon="13.334615487399503"><ele>186.0</ele><time>2026-04-23T17:37:46Z</time></trkpt><trkpt lat="41.645111679279495" lon="13.334680576571428"><ele>186.0</ele><time>2026-04-23T17:37:48Z</time></trkpt><trkpt lat="41.64517400056231" lon="13.334746673627082"><ele>186.0</ele><time>2026-04-23T17:37:51.037Z</time></trkpt><trkpt lat="41.6454949998027" lon="13.334896611803117"><ele>186.57142857142858</ele><time>2026-04-23T17:38:31Z</time></trkpt><trkpt lat="41.64556236461788" lon="13.334966874375409"><ele>187.14285714285714</ele><time>2026-04-23T17:38:33Z</time></trkpt><trkpt lat="41.64562704188994" lon="13.335021890023679"><ele>187.71428571428572</ele><time>2026-04-23T17:38:40Z</time></trkpt><trkpt lat="41.64568454398206" lon="13.335073414187326"><ele>188.28571428571428</ele><time>2026-04-23T17:38:48Z</time></trkpt><trkpt lat="41.64574715278364" lon="13.33509581284839"><ele>188.85714285714286</ele><time>2026-04-23T17:39:05Z</time></trkpt><trkpt lat="41.64579256053453" lon="13.335156020218724"><ele>189.42857142857144</ele><time>2026-04-23T17:39:08Z</time></trkpt><trkpt lat="41.645851567000854" lon="13.33524188480787"><ele>190.0</ele><time>2026-04-23T17:39:17Z</time></trkpt><trkpt lat="41.64592500555159" lon="13.33527387379201"><ele>190.0</ele><time>2026-04-23T17:39:30Z</time></trkpt><trkpt lat="41.64599200637171" lon="13.335333066170051"><ele>190.0</ele><time>2026-04-23T17:39:34Z</time></trkpt><trkpt lat="41.64604755721748" lon="13.335380844807561"><ele>190.0</ele><time>2026-04-23T17:39:37Z</time></trkpt><trkpt lat="41.64610776663967" lon="13.335425192483696"><ele>190.0</ele><time>2026-04-23T17:39:42Z</time></trkpt><trkpt lat="41.64616345450606" lon="13.335468897351731"><ele>190.0</ele><time>2026-04-23T17:39:46Z</time></trkpt><trkpt lat="41.64611350551086" lon="13.335587503373338"><ele>190.0</ele><time>2026-04-23T17:39:47Z</time></trkpt><trkpt lat="41.64616598085502" lon="13.335637654751398"><ele>190.0</ele><time>2026-04-23T17:39:52Z</time></trkpt><trkpt lat="41.64623032740367" lon="13.33562373340909"><ele>190.14285714285714</ele><time>2026-04-23T17:39:55Z</time></trkpt><trkpt lat="41.646290990765586" lon="13.335579123247701"><ele>190.28571428571428</ele><time>2026-04-23T17:40:00Z</time></trkpt><trkpt lat="41.64631044874463" lon="13.335659341677877"><ele>190.42857142857144</ele><time>2026-04-23T17:40:05Z</time></trkpt><trkpt lat="41.646396835980184" lon="13.335676065678303"><ele>190.57142857142856</ele><time>2026-04-23T17:40:09Z</time></trkpt><trkpt lat="41.6464519470805" lon="13.335723278983073"><ele>190.7142857142857</ele><time>2026-04-23T17:40:14Z</time></trkpt><trkpt lat="41.646481214814955" lon="13.335798884734505"><ele>190.85714285714286</ele><time>2026-04-23T17:40:20Z</time></trkpt><trkpt lat="41.64654520588028" lon="13.335860195833533"><ele>191.0</ele><time>2026-04-23T17:40:47Z</time></trkpt><trkpt lat="41.64659926737344" lon="13.335910732767685"><ele>191.0</ele><time>2026-04-23T17:40:51Z</time></trkpt><trkpt lat="41.64665932243709" lon="13.335966872503116"><ele>191.0</ele><time>2026-04-23T17:40:55Z</time></trkpt><trkpt lat="41.646713137541745" lon="13.33601717907975"><ele>191.0</ele><time>2026-04-23T17:40:59Z</time></trkpt><trkpt lat="41.64677578278722" lon="13.336075739676067"><ele>191.0</ele><time>2026-04-23T17:41:02Z</time></trkpt><trkpt lat="41.64683307172173" lon="13.336128474476325"><ele>191.0</ele><time>2026-04-23T17:41:04Z</time></trkpt><trkpt lat="41.646891150279075" lon="13.336182242349862"><ele>191.0</ele><time>2026-04-23T17:41:06Z</time></trkpt><trkpt lat="41.64694374689825" lon="13.336230935120565"><ele>191.0</ele><time>2026-04-23T17:41:08Z</time></trkpt><trkpt lat="41.64701423079544" lon="13.336296187289483"><ele>190.85714285714286</ele><time>2026-04-23T17:41:11Z</time></trkpt><trkpt lat="41.647097952713544" lon="13.336323650832744"><ele>190.7142857142857</ele><time>2026-04-23T17:41:14Z</time></trkpt><trkpt lat="41.64715514669911" lon="13.33637620937349"><ele>190.57142857142856</ele><time>2026-04-23T17:41:17Z</time></trkpt><trkpt lat="41.64721101772013" lon="13.336425435177109"><ele>190.42857142857144</ele><time>2026-04-23T17:41:21Z</time></trkpt><trkpt lat="41.64726093627636" lon="13.336481260610075"><ele>190.28571428571428</ele><time>2026-04-23T17:41:37Z</time></trkpt><trkpt lat="41.6473170478048" lon="13.336536799107403"><ele>190.14285714285714</ele><time>2026-04-23T17:41:42Z</time></trkpt><trkpt lat="41.64738247457361" lon="13.336602037954584"><ele>190.0</ele><time>2026-04-23T17:41:48Z</time></trkpt><trkpt lat="41.64743334074862" lon="13.336674344669614"><ele>190.0</ele><time>2026-04-23T17:41:51Z</time></trkpt><trkpt lat="41.647502726119384" lon="13.336736421457523"><ele>190.0</ele><time>2026-04-23T17:41:54Z</time></trkpt><trkpt lat="41.647586324158006" lon="13.33678197674927"><ele>190.0</ele><time>2026-04-23T17:41:57Z</time></trkpt><trkpt lat="41.64767869912421" lon="13.336861946496093"><ele>190.0</ele><time>2026-04-23T17:42:02Z</time></trkpt><trkpt lat="41.64771994914914" lon="13.336928573051415"><ele>190.0</ele><time>2026-04-23T17:42:04Z</time></trkpt><trkpt lat="41.647794353379275" lon="13.336995086225237"><ele>190.0</ele><time>2026-04-23T17:42:07Z</time></trkpt><trkpt lat="41.647863581849414" lon="13.337027963381075"><ele>190.33333333333334</ele><time>2026-04-23T17:42:09Z</time></trkpt><trkpt lat="41.647941353159524" lon="13.337098948521048"><ele>190.66666666666669</ele><time>2026-04-23T17:42:11Z</time></trkpt><trkpt lat="41.64802437269968" lon="13.337172318885203"><ele>191.0</ele><time>2026-04-23T17:42:13Z</time></trkpt><trkpt lat="41.64806622982379" lon="13.337238105182994"><ele>191.33333333333334</ele><time>2026-04-23T17:42:14Z</time></trkpt><trkpt lat="41.64813466180835" lon="13.337270558898528"><ele>191.66666666666666</ele><time>2026-04-23T17:42:15Z</time></trkpt><trkpt lat="41.64819789817657" lon="13.337328784426287"><ele>192.0</ele><time>2026-04-23T17:42:16Z</time></trkpt><trkpt lat="41.648264590695064" lon="13.337388996610663"><ele>192.0</ele><time>2026-04-23T17:42:17Z</time></trkpt><trkpt lat="41.648330579047865" lon="13.337446626697249"><ele>192.0</ele><time>2026-04-23T17:42:18Z</time></trkpt><trkpt lat="41.64839044421548" lon="13.33749949745641"><ele>192.0</ele><time>2026-04-23T17:42:19Z</time></trkpt><trkpt lat="41.64843387346364" lon="13.337568010786633"><ele>192.0</ele><time>2026-04-23T17:42:20Z</time></trkpt><trkpt lat="41.64851218484711" lon="13.337638053037992"><ele>192.0</ele><time>2026-04-23T17:42:22Z</time></trkpt><trkpt lat="41.64860627266976" lon="13.33772220558183"><ele>192.0</ele><time>2026-04-23T17:42:38Z</time></trkpt><trkpt lat="41.64866186711998" lon="13.337772756563854"><ele>192.14285714285714</ele><time>2026-04-23T17:42:41Z</time></trkpt><trkpt lat="41.64871677302262" lon="13.337822438009871"><ele>192.28571428571428</ele><time>2026-04-23T17:42:43Z</time></trkpt><trkpt lat="41.6487788079983" lon="13.337863647549852"><ele>192.42857142857144</ele><time>2026-04-23T17:42:45Z</time></trkpt><trkpt lat="41.648840778110426" lon="13.337929509232263"><ele>192.57142857142856</ele><time>2026-04-23T17:42:47Z</time></trkpt><trkpt lat="41.64890923098253" lon="13.337985741136718"><ele>192.71428571428572</ele><time>2026-04-23T17:42:49Z</time></trkpt><trkpt lat="41.648962596605564" lon="13.338034344074316"><ele>192.85714285714286</ele><time>2026-04-23T17:42:51Z</time></trkpt><trkpt lat="41.64903232025636" lon="13.338091323277615"><ele>193.0</ele><time>2026-04-23T17:42:53Z</time></trkpt><trkpt lat="41.649096306207525" lon="13.338156236983206"><ele>192.49999999999997</ele><time>2026-04-23T17:42:55Z</time></trkpt><trkpt lat="41.649163219623695" lon="13.33822646297676"><ele>192.0</ele><time>2026-04-23T17:42:58Z</time></trkpt><trkpt lat="41.64924087717642" lon="13.33829437267937"><ele>191.5</ele><time>2026-04-23T17:43:01Z</time></trkpt><trkpt lat="41.64927855991836" lon="13.338381796844827"><ele>191.0</ele><time>2026-04-23T17:43:06Z</time></trkpt><trkpt lat="41.64929916771123" lon="13.338474481724244"><ele>190.5</ele><time>2026-04-23T17:43:08Z</time></trkpt><trkpt lat="41.649318478199675" lon="13.338560840463172"><ele>190.0</ele><time>2026-04-23T17:43:09Z</time></trkpt><trkpt lat="41.64939682365261" lon="13.338685154767239"><ele>190.0</ele><time>2026-04-23T17:43:11Z</time></trkpt><trkpt lat="41.64945064245074" lon="13.338729270288995"><ele>190.0</ele><time>2026-04-23T17:43:12Z</time></trkpt><trkpt lat="41.64951977490692" lon="13.33874017920284"><ele>190.0</ele><time>2026-04-23T17:43:13Z</time></trkpt><trkpt lat="41.649592594355084" lon="13.338733600012137"><ele>190.0</ele><time>2026-04-23T17:43:14Z</time></trkpt><trkpt lat="41.649666002730406" lon="13.338721336152995"><ele>190.0</ele><time>2026-04-23T17:43:15Z</time></trkpt><trkpt lat="41.64973077922082" lon="13.338728911866152"><ele>190.0</ele><time>2026-04-23T17:43:16Z</time></trkpt><trkpt lat="41.64979750911583" lon="13.338752551382182"><ele>190.0</ele><time>2026-04-23T17:43:17Z</time></trkpt><trkpt lat="41.6498506063995" lon="13.3388106693278"><ele>190.42857142857144</ele><time>2026-04-23T17:43:18Z</time></trkpt><trkpt lat="41.64990638090015" lon="13.338857285499609"><ele>190.85714285714286</ele><time>2026-04-23T17:43:19Z</time></trkpt><trkpt lat="41.64996253771761" lon="13.338904221226358"><ele>191.28571428571428</ele><time>2026-04-23T17:43:20Z</time></trkpt><trkpt lat="41.650026726614" lon="13.338957869645883"><ele>191.71428571428572</ele><time>2026-04-23T17:43:21Z</time></trkpt><trkpt lat="41.650089008165416" lon="13.338995942399558"><ele>192.14285714285714</ele><time>2026-04-23T17:43:22Z</time></trkpt><trkpt lat="41.65015270707716" lon="13.339043471061448"><ele>192.57142857142858</ele><time>2026-04-23T17:43:23Z</time></trkpt><trkpt lat="41.6502153770704" lon="13.339103676192476"><ele>193.0</ele><time>2026-04-23T17:43:24Z</time></trkpt><trkpt lat="41.65028322919834" lon="13.33916125601119"><ele>193.49999999999997</ele><time>2026-04-23T17:43:25Z</time></trkpt><trkpt lat="41.65035209708067" lon="13.339218823693836"><ele>194.0</ele><time>2026-04-23T17:43:26Z</time></trkpt><trkpt lat="41.6504178737684" lon="13.339273752584923"><ele>194.5</ele><time>2026-04-23T17:43:27Z</time></trkpt><trkpt lat="41.65048012131544" lon="13.339322477338643"><ele>195.0</ele><time>2026-04-23T17:43:28Z</time></trkpt><trkpt lat="41.65054021665554" lon="13.339368863628874"><ele>195.49999999999997</ele><time>2026-04-23T17:43:29Z</time></trkpt><trkpt lat="41.650602493424934" lon="13.339420966159075"><ele>196.0</ele><time>2026-04-23T17:43:30Z</time></trkpt><trkpt lat="41.65066783021326" lon="13.339493631495523"><ele>195.99999999999997</ele><time>2026-04-23T17:43:31Z</time></trkpt><trkpt lat="41.65073951822507" lon="13.339553541493508"><ele>196.0</ele><time>2026-04-23T17:43:32Z</time></trkpt><trkpt lat="41.650808297665954" lon="13.33961101969394"><ele>196.0</ele><time>2026-04-23T17:43:33Z</time></trkpt><trkpt lat="41.65088287408954" lon="13.339673342188835"><ele>196.0</ele><time>2026-04-23T17:43:34Z</time></trkpt><trkpt lat="41.65095707400861" lon="13.339735350146952"><ele>195.99999999999997</ele><time>2026-04-23T17:43:35Z</time></trkpt><trkpt lat="41.65104172317712" lon="13.339780001755763"><ele>196.0</ele><time>2026-04-23T17:43:36Z</time></trkpt><trkpt lat="41.651112161411085" lon="13.339864954707927"><ele>196.16666666666666</ele><time>2026-04-23T17:43:37Z</time></trkpt><trkpt lat="41.65119920827143" lon="13.339913377213527"><ele>196.33333333333331</ele><time>2026-04-23T17:43:38Z</time></trkpt><trkpt lat="41.65127634012182" lon="13.339977847303828"><ele>196.5</ele><time>2026-04-23T17:43:39Z</time></trkpt><trkpt lat="41.651347769269925" lon="13.34006184904111"><ele>196.66666666666669</ele><time>2026-04-23T17:43:40Z</time></trkpt><trkpt lat="41.651417239222816" lon="13.340119904123988"><ele>196.83333333333334</ele><time>2026-04-23T17:43:41Z</time></trkpt><trkpt lat="41.65148215263013" lon="13.340174151424248"><ele>197.0</ele><time>2026-04-23T17:43:42Z</time></trkpt><trkpt lat="41.65155368237063" lon="13.340209963632743"><ele>197.0</ele><time>2026-04-23T17:43:43Z</time></trkpt><trkpt lat="41.65160873352383" lon="13.340279933416241"><ele>197.0</ele><time>2026-04-23T17:43:44Z</time></trkpt><trkpt lat="41.65166694753471" lon="13.34032858175211"><ele>197.0</ele><time>2026-04-23T17:43:45Z</time></trkpt><trkpt lat="41.65177000276839" lon="13.34041802917231"><ele>197.0</ele><time>2026-04-23T17:43:47Z</time></trkpt><trkpt lat="41.65186531104884" lon="13.34049696558109"><ele>197.0</ele><time>2026-04-23T17:43:49Z</time></trkpt><trkpt lat="41.651976054283864" lon="13.34058995434457"><ele>197.16666666666669</ele><time>2026-04-23T17:43:51Z</time></trkpt><trkpt lat="41.65204276681593" lon="13.340645971467016"><ele>197.33333333333334</ele><time>2026-04-23T17:43:52Z</time></trkpt><trkpt lat="41.65215533020691" lon="13.340719327101626"><ele>197.5</ele><time>2026-04-23T17:43:54Z</time></trkpt><trkpt lat="41.65220988832157" lon="13.340768691763754"><ele>197.66666666666669</ele><time>2026-04-23T17:43:55Z</time></trkpt><trkpt lat="41.652265701408226" lon="13.340833393974622"><ele>197.83333333333334</ele><time>2026-04-23T17:43:56Z</time></trkpt><trkpt lat="41.65232297839984" lon="13.340881605777126"><ele>198.0</ele><time>2026-04-23T17:43:57Z</time></trkpt><trkpt lat="41.65237638551932" lon="13.340926559935665"><ele>198.0</ele><time>2026-04-23T17:43:58Z</time></trkpt><trkpt lat="41.65247167340545" lon="13.341006755265228"><ele>198.0</ele><time>2026-04-23T17:44:00Z</time></trkpt><trkpt lat="41.652574914646614" lon="13.341093645370206"><ele>198.0</ele><time>2026-04-23T17:44:02Z</time></trkpt><trkpt lat="41.65266160414485" lon="13.341166605171974"><ele>198.0</ele><time>2026-04-23T17:44:04Z</time></trkpt><trkpt lat="41.652741971566456" lon="13.341209025983161"><ele>198.0</ele><time>2026-04-23T17:44:06Z</time></trkpt><trkpt lat="41.652801113434876" lon="13.341264206450294"><ele>198.2</ele><time>2026-04-23T17:44:08Z</time></trkpt><trkpt lat="41.652886272456904" lon="13.341345479499385"><ele>198.4</ele><time>2026-04-23T17:44:10Z</time></trkpt><trkpt lat="41.65295045788246" lon="13.34141518774249"><ele>198.6</ele><time>2026-04-23T17:44:11Z</time></trkpt><trkpt lat="41.653001859359385" lon="13.341492355127901"><ele>198.79999999999998</ele><time>2026-04-23T17:44:12Z</time></trkpt><trkpt lat="41.6530500086727" lon="13.341604613739648"><ele>199.0</ele><time>2026-04-23T17:44:14Z</time></trkpt><trkpt lat="41.65310591327737" lon="13.341716423176656"><ele>199.2</ele><time>2026-04-23T17:44:16Z</time></trkpt><trkpt lat="41.65320573405646" lon="13.341771959006596"><ele>199.39999999999998</ele><time>2026-04-23T17:44:18Z</time></trkpt><trkpt lat="41.653307720728556" lon="13.34176517938895"><ele>199.6</ele><time>2026-04-23T17:44:20Z</time></trkpt><trkpt lat="41.65339436732177" lon="13.341793361790227"><ele>199.8</ele><time>2026-04-23T17:44:22Z</time></trkpt><trkpt lat="41.653476652335925" lon="13.341855844166261"><ele>200.0</ele><time>2026-04-23T17:44:24Z</time></trkpt><trkpt lat="41.653554305430085" lon="13.341940834683022"><ele>200.2</ele><time>2026-04-23T17:44:26Z</time></trkpt><trkpt lat="41.653657753162115" lon="13.342013624053129"><ele>200.4</ele><time>2026-04-23T17:44:28Z</time></trkpt><trkpt lat="41.65374727787266" lon="13.342097607106778"><ele>200.60000000000002</ele><time>2026-04-23T17:44:30Z</time></trkpt><trkpt lat="41.65380722459834" lon="13.342148962456083"><ele>200.8</ele><time>2026-04-23T17:44:31Z</time></trkpt><trkpt lat="41.65387660716555" lon="13.342198906299044"><ele>201.0</ele><time>2026-04-23T17:44:32Z</time></trkpt><trkpt lat="41.653946535088046" lon="13.342274011304717"><ele>201.0</ele><time>2026-04-23T17:44:33Z</time></trkpt><trkpt lat="41.65400518814605" lon="13.342355845025633"><ele>201.0</ele><time>2026-04-23T17:44:34Z</time></trkpt><trkpt lat="41.654048730326146" lon="13.342445964813974"><ele>201.0</ele><time>2026-04-23T17:44:35Z</time></trkpt><trkpt lat="41.65409743323617" lon="13.342518600299416"><ele>201.0</ele><time>2026-04-23T17:44:36Z</time></trkpt><trkpt lat="41.654136057148754" lon="13.342593050643458"><ele>201.0</ele><time>2026-04-23T17:44:38Z</time></trkpt><trkpt lat="41.65420383136252" lon="13.342705790885093"><ele>201.0</ele><time>2026-04-23T17:44:42Z</time></trkpt><trkpt lat="41.654326079839635" lon="13.342763803294824"><ele>201.0</ele><time>2026-04-23T17:44:44Z</time></trkpt><trkpt lat="41.65440500039569" lon="13.342749504223175"><ele>201.0</ele><time>2026-04-23T17:44:45Z</time></trkpt><trkpt lat="41.654485190862346" lon="13.342717610323158"><ele>201.0</ele><time>2026-04-23T17:44:46Z</time></trkpt><trkpt lat="41.65459203024208" lon="13.342725459015748"><ele>201.0</ele><time>2026-04-23T17:44:47Z</time></trkpt><trkpt lat="41.654696935232906" lon="13.342767741123557"><ele>201.0</ele><time>2026-04-23T17:44:48Z</time></trkpt><trkpt lat="41.65484574089796" lon="13.342868273838683"><ele>201.25</ele><time>2026-04-23T17:44:49Z</time></trkpt><trkpt lat="41.6549889831547" lon="13.34299458613846"><ele>201.5</ele><time>2026-04-23T17:44:50Z</time></trkpt><trkpt lat="41.6551191733899" lon="13.343077805564748"><ele>201.75</ele><time>2026-04-23T17:44:51Z</time></trkpt><trkpt lat="41.65523684533626" lon="13.343158953000675"><ele>202.0</ele><time>2026-04-23T17:44:52Z</time></trkpt><trkpt lat="41.65535189581649" lon="13.343239679138723"><ele>202.5</ele><time>2026-04-23T17:44:53Z</time></trkpt><trkpt lat="41.65546384091078" lon="13.343312218635885"><ele>203.0</ele><time>2026-04-23T17:44:54Z</time></trkpt><trkpt lat="41.6555584412687" lon="13.34341259145701"><ele>203.5</ele><time>2026-04-23T17:44:55Z</time></trkpt><trkpt lat="41.655660176659175" lon="13.343482062899977"><ele>204.0</ele><time>2026-04-23T17:44:56Z</time></trkpt><trkpt lat="41.65576282788119" lon="13.34355216072158"><ele>204.0</ele><time>2026-04-23T17:44:57Z</time></trkpt><trkpt lat="41.65587112023011" lon="13.34362627768934"><ele>204.0</ele><time>2026-04-23T17:44:58Z</time></trkpt><trkpt lat="41.655978768194075" lon="13.343699955100087"><ele>204.0</ele><time>2026-04-23T17:44:59Z</time></trkpt><trkpt lat="41.65609857305078" lon="13.343755019788839"><ele>204.0</ele><time>2026-04-23T17:45:00Z</time></trkpt><trkpt lat="41.65620696009578" lon="13.34382358078717"><ele>204.0</ele><time>2026-04-23T17:45:01Z</time></trkpt><trkpt lat="41.65632052890338" lon="13.343882852593564"><ele>204.0</ele><time>2026-04-23T17:45:02Z</time></trkpt><trkpt lat="41.65643662061629" lon="13.343933384839083"><ele>204.0</ele><time>2026-04-23T17:45:03Z</time></trkpt><trkpt lat="41.65655326307195" lon="13.34395830131656"><ele>204.0</ele><time>2026-04-23T17:45:04Z</time></trkpt><trkpt lat="41.65667830226581" lon="13.343991759904654"><ele>204.0</ele><time>2026-04-23T17:45:05Z</time></trkpt><trkpt lat="41.65679837121055" lon="13.344009050175035"><ele>204.0</ele><time>2026-04-23T17:45:06Z</time></trkpt><trkpt lat="41.6569107377031" lon="13.344017955718558"><ele>204.0</ele><time>2026-04-23T17:45:07Z</time></trkpt><trkpt lat="41.65702878807358" lon="13.3440161995575"><ele>204.0</ele><time>2026-04-23T17:45:08Z</time></trkpt><trkpt lat="41.65714669280911" lon="13.344021087936472"><ele>204.2</ele><time>2026-04-23T17:45:09Z</time></trkpt><trkpt lat="41.65725964941356" lon="13.344027761883744"><ele>204.39999999999998</ele><time>2026-04-23T17:45:10Z</time></trkpt><trkpt lat="41.657362842081454" lon="13.344036260680971"><ele>204.6</ele><time>2026-04-23T17:45:11Z</time></trkpt><trkpt lat="41.657464557103616" lon="13.344045755494319"><ele>204.8</ele><time>2026-04-23T17:45:12Z</time></trkpt><trkpt lat="41.65756054762057" lon="13.344057676615645"><ele>205.0</ele><time>2026-04-23T17:45:13Z</time></trkpt><trkpt lat="41.657648255018344" lon="13.344071129786776"><ele>204.99999999999997</ele><time>2026-04-23T17:45:14Z</time></trkpt><trkpt lat="41.65772701843553" lon="13.344086208024803"><ele>205.0</ele><time>2026-04-23T17:45:15Z</time></trkpt><trkpt lat="41.65781969319633" lon="13.344129454810156"><ele>205.0</ele><time>2026-04-23T17:45:17Z</time></trkpt><trkpt lat="41.657884745677144" lon="13.34413871947334"><ele>205.0</ele><time>2026-04-23T17:45:21Z</time></trkpt><trkpt lat="41.657993515705826" lon="13.344132751707901"><ele>204.99999999999997</ele><time>2026-04-23T17:45:23Z</time></trkpt><trkpt lat="41.65805890489085" lon="13.344161237908796"><ele>205.0</ele><time>2026-04-23T17:45:24Z</time></trkpt><trkpt lat="41.65813601650138" lon="13.344175616405746"><ele>205.25</ele><time>2026-04-23T17:45:25Z</time></trkpt><trkpt lat="41.6582400365712" lon="13.34417327568934"><ele>205.5</ele><time>2026-04-23T17:45:26Z</time></trkpt><trkpt lat="41.65838784533111" lon="13.344205200239719"><ele>205.75</ele><time>2026-04-23T17:45:27Z</time></trkpt><trkpt lat="41.65853869673031" lon="13.34422718116799"><ele>206.0</ele><time>2026-04-23T17:45:28Z</time></trkpt><trkpt lat="41.65869848669525" lon="13.344264877506427"><ele>206.0</ele><time>2026-04-23T17:45:29Z</time></trkpt><trkpt lat="41.65885500658168" lon="13.344307465495847"><ele>206.0</ele><time>2026-04-23T17:45:30Z</time></trkpt><trkpt lat="41.658998334077424" lon="13.34433557917994"><ele>206.0</ele><time>2026-04-23T17:45:31Z</time></trkpt><trkpt lat="41.659139991695845" lon="13.344363090058936"><ele>206.0</ele><time>2026-04-23T17:45:32Z</time></trkpt><trkpt lat="41.659281025816874" lon="13.344395488322904"><ele>206.0</ele><time>2026-04-23T17:45:33Z</time></trkpt><trkpt lat="41.6594264781419" lon="13.344422997612359"><ele>206.0</ele><time>2026-04-23T17:45:34Z</time></trkpt><trkpt lat="41.65958482020422" lon="13.344449332025517"><ele>206.0</ele><time>2026-04-23T17:45:35Z</time></trkpt><trkpt lat="41.65976223088625" lon="13.344458397525568"><ele>207.0</ele><time>2026-04-23T17:45:36Z</time></trkpt><trkpt lat="41.659953229513064" lon="13.34443429829235"><ele>208.0</ele><time>2026-04-23T17:45:37Z</time></trkpt><trkpt lat="41.66016198346123" lon="13.344406791697253"><ele>209.0</ele><time>2026-04-23T17:45:38Z</time></trkpt><trkpt lat="41.660385364511036" lon="13.344392319597182"><ele>209.5</ele><time>2026-04-23T17:45:39Z</time></trkpt><trkpt lat="41.66060660752821" lon="13.344429138908518"><ele>210.0</ele><time>2026-04-23T17:45:40Z</time></trkpt><trkpt lat="41.660844369544485" lon="13.344472297716221"><ele>210.0</ele><time>2026-04-23T17:45:41Z</time></trkpt><trkpt lat="41.661092453147894" lon="13.344519439244666"><ele>210.0</ele><time>2026-04-23T17:45:42Z</time></trkpt><trkpt lat="41.661329754015135" lon="13.344543790899971"><ele>211.0</ele><time>2026-04-23T17:45:43Z</time></trkpt><trkpt lat="41.661558734486704" lon="13.34461249002026"><ele>212.0</ele><time>2026-04-23T17:45:44Z</time></trkpt><trkpt lat="41.661779029781094" lon="13.34466351580142"><ele>212.33333333333334</ele><time>2026-04-23T17:45:45Z</time></trkpt><trkpt lat="41.66198032935753" lon="13.34471535422565"><ele>212.66666666666669</ele><time>2026-04-23T17:45:46Z</time></trkpt><trkpt lat="41.66216550703136" lon="13.344772327436807"><ele>213.0</ele><time>2026-04-23T17:45:47Z</time></trkpt><trkpt lat="41.6623383160511" lon="13.344832987684347"><ele>213.0</ele><time>2026-04-23T17:45:48Z</time></trkpt><trkpt lat="41.662497736755114" lon="13.344886322614006"><ele>213.0</ele><time>2026-04-23T17:45:49Z</time></trkpt><trkpt lat="41.662656528792695" lon="13.34492173743004"><ele>213.0</ele><time>2026-04-23T17:45:50Z</time></trkpt><trkpt lat="41.662798324837425" lon="13.344964240013086"><ele>213.25</ele><time>2026-04-23T17:45:51Z</time></trkpt><trkpt lat="41.66294658104675" lon="13.345005452158853"><ele>213.5</ele><time>2026-04-23T17:45:52Z</time></trkpt><trkpt lat="41.66309040489771" lon="13.345043237350499"><ele>213.75</ele><time>2026-04-23T17:45:53Z</time></trkpt><trkpt lat="41.66322208947189" lon="13.345080193104305"><ele>214.0</ele><time>2026-04-23T17:45:54Z</time></trkpt><trkpt lat="41.6633572040831" lon="13.34511736791355"><ele>214.0</ele><time>2026-04-23T17:45:55Z</time></trkpt><trkpt lat="41.663484174734286" lon="13.345156877221681"><ele>214.0</ele><time>2026-04-23T17:45:56Z</time></trkpt><trkpt lat="41.66360988388891" lon="13.345194162363665"><ele>214.0</ele><time>2026-04-23T17:45:57Z</time></trkpt><trkpt lat="41.66373168022378" lon="13.345259042961933"><ele>214.0</ele><time>2026-04-23T17:45:58Z</time></trkpt><trkpt lat="41.66385683610051" lon="13.345309839264463"><ele>214.0</ele><time>2026-04-23T17:45:59Z</time></trkpt><trkpt lat="41.66397816030244" lon="13.345363571206212"><ele>214.0</ele><time>2026-04-23T17:46:00Z</time></trkpt><trkpt lat="41.664107845517506" lon="13.345389343687222"><ele>214.0</ele><time>2026-04-23T17:46:01Z</time></trkpt><trkpt lat="41.66422855959236" lon="13.345460721884534"><ele>214.0</ele><time>2026-04-23T17:46:02Z</time></trkpt><trkpt lat="41.66434775089532" lon="13.345535445367933"><ele>214.0</ele><time>2026-04-23T17:46:03Z</time></trkpt><trkpt lat="41.664467904874485" lon="13.34560709657414"><ele>214.0</ele><time>2026-04-23T17:46:04Z</time></trkpt><trkpt lat="41.66459162747238" lon="13.345680629062214"><ele>214.0</ele><time>2026-04-23T17:46:05Z</time></trkpt><trkpt lat="41.66471678740772" lon="13.345756314366088"><ele>214.0</ele><time>2026-04-23T17:46:06Z</time></trkpt><trkpt lat="41.66484119477985" lon="13.345827897992452"><ele>214.0</ele><time>2026-04-23T17:46:07Z</time></trkpt><trkpt lat="41.66496794790464" lon="13.34590118042049"><ele>214.0</ele><time>2026-04-23T17:46:08Z</time></trkpt><trkpt lat="41.66509454810152" lon="13.345974809457944"><ele>214.0</ele><time>2026-04-23T17:46:09Z</time></trkpt><trkpt lat="41.66522106196177" lon="13.346049567063272"><ele>214.0</ele><time>2026-04-23T17:46:10Z</time></trkpt><trkpt lat="41.66534847010261" lon="13.34612151016256"><ele>214.5</ele><time>2026-04-23T17:46:11Z</time></trkpt><trkpt lat="41.665476337817395" lon="13.34619466899313"><ele>215.0</ele><time>2026-04-23T17:46:12Z</time></trkpt><trkpt lat="41.66560578292262" lon="13.346267161176545"><ele>215.5</ele><time>2026-04-23T17:46:13Z</time></trkpt><trkpt lat="41.66573321921345" lon="13.346340451385423"><ele>216.0</ele><time>2026-04-23T17:46:14Z</time></trkpt><trkpt lat="41.665862946498414" lon="13.346417671022058"><ele>216.0</ele><time>2026-04-23T17:46:15Z</time></trkpt><trkpt lat="41.66599301942284" lon="13.346494561925532"><ele>216.0</ele><time>2026-04-23T17:46:16Z</time></trkpt><trkpt lat="41.666121798343255" lon="13.346570180325031"><ele>216.0</ele><time>2026-04-23T17:46:17Z</time></trkpt><trkpt lat="41.666255320897015" lon="13.346640568700773"><ele>216.0</ele><time>2026-04-23T17:46:18Z</time></trkpt><trkpt lat="41.66639047281937" lon="13.346707255502814"><ele>216.5</ele><time>2026-04-23T17:46:19Z</time></trkpt><trkpt lat="41.666526302836566" lon="13.346767835688444"><ele>217.0</ele><time>2026-04-23T17:46:20Z</time></trkpt><trkpt lat="41.66666158834458" lon="13.346824800496929"><ele>217.5</ele><time>2026-04-23T17:46:21Z</time></trkpt><trkpt lat="41.666796496776925" lon="13.346881358983467"><ele>218.0</ele><time>2026-04-23T17:46:22Z</time></trkpt><trkpt lat="41.66693124019505" lon="13.34693905409255"><ele>218.0</ele><time>2026-04-23T17:46:23Z</time></trkpt><trkpt lat="41.667066127676875" lon="13.346994327887735"><ele>218.0</ele><time>2026-04-23T17:46:24Z</time></trkpt><trkpt lat="41.66719741006938" lon="13.347053983215666"><ele>218.0</ele><time>2026-04-23T17:46:25Z</time></trkpt><trkpt lat="41.667331389159365" lon="13.347109880391137"><ele>218.0</ele><time>2026-04-23T17:46:26Z</time></trkpt><trkpt lat="41.66746461523272" lon="13.347164791906525"><ele>218.25</ele><time>2026-04-23T17:46:27Z</time></trkpt><trkpt lat="41.667597058950776" lon="13.347224124257156"><ele>218.5</ele><time>2026-04-23T17:46:28Z</time></trkpt><trkpt lat="41.667731580943496" lon="13.347282984136768"><ele>218.75</ele><time>2026-04-23T17:46:29Z</time></trkpt><trkpt lat="41.66786081738294" lon="13.34733878884362"><ele>219.0</ele><time>2026-04-23T17:46:30Z</time></trkpt><trkpt lat="41.66800014993174" lon="13.347396440613958"><ele>219.25</ele><time>2026-04-23T17:46:31Z</time></trkpt><trkpt lat="41.66813274369913" lon="13.347456977430515"><ele>219.5</ele><time>2026-04-23T17:46:32Z</time></trkpt><trkpt lat="41.668268766747225" lon="13.347514588264103"><ele>219.75</ele><time>2026-04-23T17:46:33Z</time></trkpt><trkpt lat="41.66840622298059" lon="13.34757411762763"><ele>220.0</ele><time>2026-04-23T17:46:34Z</time></trkpt><trkpt lat="41.66854470910336" lon="13.347634744866445"><ele>220.0</ele><time>2026-04-23T17:46:35Z</time></trkpt><trkpt lat="41.66868533465748" lon="13.347696232572414"><ele>220.0</ele><time>2026-04-23T17:46:36Z</time></trkpt><trkpt lat="41.66882756419453" lon="13.347759572157843"><ele>220.0</ele><time>2026-04-23T17:46:37Z</time></trkpt><trkpt lat="41.66897117330253" lon="13.34782211677501"><ele>220.0</ele><time>2026-04-23T17:46:38Z</time></trkpt><trkpt lat="41.66911589421895" lon="13.347882301953689"><ele>220.0</ele><time>2026-04-23T17:46:39Z</time></trkpt><trkpt lat="41.66925886743605" lon="13.34793962766642"><ele>220.0</ele><time>2026-04-23T17:46:40Z</time></trkpt><trkpt lat="41.66940381652958" lon="13.347988142082173"><ele>220.0</ele><time>2026-04-23T17:46:41Z</time></trkpt><trkpt lat="41.669543939009905" lon="13.34802103865532"><ele>220.0</ele><time>2026-04-23T17:46:42Z</time></trkpt><trkpt lat="41.66968159484542" lon="13.348036872032333"><ele>220.75</ele><time>2026-04-23T17:46:43Z</time></trkpt><trkpt lat="41.669818075156996" lon="13.348040132922053"><ele>221.5</ele><time>2026-04-23T17:46:44Z</time></trkpt><trkpt lat="41.66995660572456" lon="13.34803273839"><ele>222.25</ele><time>2026-04-23T17:46:45Z</time></trkpt><trkpt lat="41.67009677817554" lon="13.34801877251705"><ele>223.0</ele><time>2026-04-23T17:46:46Z</time></trkpt><trkpt lat="41.670234171583" lon="13.348003183554855"><ele>223.5</ele><time>2026-04-23T17:46:47Z</time></trkpt><trkpt lat="41.67036929895694" lon="13.347986778109732"><ele>224.0</ele><time>2026-04-23T17:46:48Z</time></trkpt><trkpt lat="41.67050780844214" lon="13.347968057596553"><ele>224.5</ele><time>2026-04-23T17:46:49Z</time></trkpt><trkpt lat="41.67064055695361" lon="13.3479488625044"><ele>225.0</ele><time>2026-04-23T17:46:50Z</time></trkpt><trkpt lat="41.67077038717048" lon="13.34793012764969"><ele>225.0</ele><time>2026-04-23T17:46:51Z</time></trkpt><trkpt lat="41.67090178699896" lon="13.347910042490032"><ele>225.0</ele><time>2026-04-23T17:46:52Z</time></trkpt><trkpt lat="41.67103252386124" lon="13.34789113740422"><ele>225.0</ele><time>2026-04-23T17:46:53Z</time></trkpt><trkpt lat="41.67116724143448" lon="13.347868957849538"><ele>225.0</ele><time>2026-04-23T17:46:54Z</time></trkpt><trkpt lat="41.67130125023869" lon="13.347848666883824"><ele>225.75</ele><time>2026-04-23T17:46:55Z</time></trkpt><trkpt lat="41.67143968865412" lon="13.347825417839223"><ele>226.5</ele><time>2026-04-23T17:46:56Z</time></trkpt><trkpt lat="41.67158236770345" lon="13.347809767323406"><ele>227.25</ele><time>2026-04-23T17:46:57Z</time></trkpt><trkpt lat="41.671714835020765" lon="13.34779875512161"><ele>228.0</ele><time>2026-04-23T17:46:58Z</time></trkpt><trkpt lat="41.671870543315116" lon="13.347784595137984"><ele>228.25</ele><time>2026-04-23T17:46:59Z</time></trkpt><trkpt lat="41.672015247104255" lon="13.347768570595596"><ele>228.5</ele><time>2026-04-23T17:47:00Z</time></trkpt><trkpt lat="41.67216136857567" lon="13.347752791539675"><ele>228.75</ele><time>2026-04-23T17:47:01Z</time></trkpt><trkpt lat="41.67230505004813" lon="13.347734585260014"><ele>229.0</ele><time>2026-04-23T17:47:02Z</time></trkpt><trkpt lat="41.67244134280868" lon="13.347719422459738"><ele>229.0</ele><time>2026-04-23T17:47:03Z</time></trkpt><trkpt lat="41.67258077876494" lon="13.347708776070517"><ele>229.0</ele><time>2026-04-23T17:47:04Z</time></trkpt><trkpt lat="41.672727097831725" lon="13.34770343618778"><ele>229.0</ele><time>2026-04-23T17:47:05Z</time></trkpt><trkpt lat="41.672881970994254" lon="13.347703548312833"><ele>229.0</ele><time>2026-04-23T17:47:06Z</time></trkpt><trkpt lat="41.67302528739094" lon="13.347708186295097"><ele>229.25</ele><time>2026-04-23T17:47:07Z</time></trkpt><trkpt lat="41.67317300831809" lon="13.347733460158793"><ele>229.5</ele><time>2026-04-23T17:47:08Z</time></trkpt><trkpt lat="41.67331665489425" lon="13.347765138280915"><ele>229.75</ele><time>2026-04-23T17:47:09Z</time></trkpt><trkpt lat="41.67344319420801" lon="13.347801775223266"><ele>230.0</ele><time>2026-04-23T17:47:10Z</time></trkpt><trkpt lat="41.67356751764321" lon="13.34784296808805"><ele>230.5</ele><time>2026-04-23T17:47:11Z</time></trkpt><trkpt lat="41.673695387270456" lon="13.34788458020603"><ele>231.0</ele><time>2026-04-23T17:47:12Z</time></trkpt><trkpt lat="41.673821451382935" lon="13.347933683367021"><ele>231.5</ele><time>2026-04-23T17:47:13Z</time></trkpt><trkpt lat="41.67395674487828" lon="13.347973482707333"><ele>232.0</ele><time>2026-04-23T17:47:14Z</time></trkpt><trkpt lat="41.67409556922903" lon="13.348021992796797"><ele>232.25</ele><time>2026-04-23T17:47:15Z</time></trkpt><trkpt lat="41.67422894027061" lon="13.348064329106053"><ele>232.5</ele><time>2026-04-23T17:47:16Z</time></trkpt><trkpt lat="41.67436362619209" lon="13.34810113347547"><ele>232.75</ele><time>2026-04-23T17:47:17Z</time></trkpt><trkpt lat="41.674499052470274" lon="13.34814036175981"><ele>233.0</ele><time>2026-04-23T17:47:18Z</time></trkpt><trkpt lat="41.67463495165144" lon="13.348179591970034"><ele>233.25</ele><time>2026-04-23T17:47:19Z</time></trkpt><trkpt lat="41.674769212270604" lon="13.348224531224322"><ele>233.5</ele><time>2026-04-23T17:47:20Z</time></trkpt><trkpt lat="41.67490275744965" lon="13.348280530619526"><ele>233.75</ele><time>2026-04-23T17:47:21Z</time></trkpt><trkpt lat="41.67503589266022" lon="13.348347131955366"><ele>234.0</ele><time>2026-04-23T17:47:22Z</time></trkpt><trkpt lat="41.67515275087692" lon="13.348438563091934"><ele>234.0</ele><time>2026-04-23T17:47:23Z</time></trkpt><trkpt lat="41.67527401567958" lon="13.348506446966843"><ele>234.0</ele><time>2026-04-23T17:47:24Z</time></trkpt><trkpt lat="41.67538158718742" lon="13.348566558311234"><ele>234.0</ele><time>2026-04-23T17:47:25Z</time></trkpt><trkpt lat="41.675488972827715" lon="13.348626565887178"><ele>234.0</ele><time>2026-04-23T17:47:26Z</time></trkpt><trkpt lat="41.67556987383385" lon="13.348674484981483"><ele>234.0</ele><time>2026-04-23T17:47:27Z</time></trkpt><trkpt lat="41.67562920710011" lon="13.348709680133728"><ele>234.00000000000003</ele><time>2026-04-23T17:47:28Z</time></trkpt><trkpt lat="41.67568271909055" lon="13.34880499993556"><ele>234.0</ele><time>2026-04-23T17:47:31Z</time></trkpt><trkpt lat="41.675626795419475" lon="13.34886461509418"><ele>234.0</ele><time>2026-04-23T17:47:32Z</time></trkpt><trkpt lat="41.67561487107287" lon="13.348954426838203"><ele>234.00000000000003</ele><time>2026-04-23T17:47:33Z</time></trkpt><trkpt lat="41.67560037753815" lon="13.34905404563725"><ele>234.0</ele><time>2026-04-23T17:47:34Z</time></trkpt><trkpt lat="41.67558524177275" lon="13.349158078479965"><ele>234.0</ele><time>2026-04-23T17:47:35Z</time></trkpt><trkpt lat="41.6755690629952" lon="13.349272906000046"><ele>234.16666666666666</ele><time>2026-04-23T17:47:36Z</time></trkpt><trkpt lat="41.67555502709075" lon="13.349400945587893"><ele>234.33333333333331</ele><time>2026-04-23T17:47:37Z</time></trkpt><trkpt lat="41.675543744228115" lon="13.349520433845719"><ele>234.5</ele><time>2026-04-23T17:47:38Z</time></trkpt><trkpt lat="41.67553503174814" lon="13.349644622086254"><ele>234.66666666666666</ele><time>2026-04-23T17:47:39Z</time></trkpt><trkpt lat="41.675528452009935" lon="13.349745401756879"><ele>234.83333333333331</ele><time>2026-04-23T17:47:40Z</time></trkpt><trkpt lat="41.675522579238425" lon="13.349841858616806"><ele>235.0</ele><time>2026-04-23T17:47:41Z</time></trkpt><trkpt lat="41.675519420021885" lon="13.349931456063295"><ele>235.0</ele><time>2026-04-23T17:47:42Z</time></trkpt><trkpt lat="41.67551664993593" lon="13.350025079676204"><ele>234.99999999999997</ele><time>2026-04-23T17:47:43Z</time></trkpt><trkpt lat="41.675515471345996" lon="13.350117540170476"><ele>235.0</ele><time>2026-04-23T17:47:44Z</time></trkpt><trkpt lat="41.67553021348883" lon="13.350214139269914"><ele>235.0</ele><time>2026-04-23T17:47:45Z</time></trkpt><trkpt lat="41.67552644729256" lon="13.350319143682714"><ele>234.99999999999997</ele><time>2026-04-23T17:47:46Z</time></trkpt><trkpt lat="41.67552497298671" lon="13.350421857431158"><ele>235.0</ele><time>2026-04-23T17:47:47Z</time></trkpt><trkpt lat="41.67552411978457" lon="13.350524893205428"><ele>235.0</ele><time>2026-04-23T17:47:48Z</time></trkpt><trkpt lat="41.675523865500104" lon="13.350618887748357"><ele>235.0</ele><time>2026-04-23T17:47:49Z</time></trkpt><trkpt lat="41.675523826857834" lon="13.350725889560923"><ele>235.0</ele><time>2026-04-23T17:47:50Z</time></trkpt><trkpt lat="41.675536506516416" lon="13.35084839223005"><ele>235.0</ele><time>2026-04-23T17:47:51Z</time></trkpt><trkpt lat="41.675537173642674" lon="13.350978402936374"><ele>235.0</ele><time>2026-04-23T17:47:52Z</time></trkpt><trkpt lat="41.67554218198618" lon="13.351126937339602"><ele>235.0</ele><time>2026-04-23T17:47:53Z</time></trkpt><trkpt lat="41.67555284932365" lon="13.351313979218064"><ele>235.0</ele><time>2026-04-23T17:47:54Z</time></trkpt><trkpt lat="41.675564991734404" lon="13.351519393769278"><ele>235.0</ele><time>2026-04-23T17:47:55Z</time></trkpt><trkpt lat="41.67556345942827" lon="13.35169941981549"><ele>235.0</ele><time>2026-04-23T17:47:56Z</time></trkpt><trkpt lat="41.67557093216606" lon="13.35186858220967"><ele>235.0</ele><time>2026-04-23T17:47:57Z</time></trkpt><trkpt lat="41.675570944205475" lon="13.35203753073031"><ele>235.0</ele><time>2026-04-23T17:47:58Z</time></trkpt><trkpt lat="41.67556763321739" lon="13.352196939083978"><ele>235.0</ele><time>2026-04-23T17:47:59Z</time></trkpt><trkpt lat="41.67557128196431" lon="13.352350326197708"><ele>235.0</ele><time>2026-04-23T17:48:00Z</time></trkpt><trkpt lat="41.67556089212746" lon="13.352491791689113"><ele>235.0</ele><time>2026-04-23T17:48:01Z</time></trkpt><trkpt lat="41.67556510034324" lon="13.352612879103884"><ele>235.0</ele><time>2026-04-23T17:48:02Z</time></trkpt><trkpt lat="41.67554993890241" lon="13.352744789988899"><ele>234.8</ele><time>2026-04-23T17:48:03Z</time></trkpt><trkpt lat="41.67557412087363" lon="13.352876641614786"><ele>234.6</ele><time>2026-04-23T17:48:04Z</time></trkpt><trkpt lat="41.67557563502085" lon="13.35301194406067"><ele>234.39999999999998</ele><time>2026-04-23T17:48:05Z</time></trkpt><trkpt lat="41.675595119008" lon="13.353136402638054"><ele>234.2</ele><time>2026-04-23T17:48:06Z</time></trkpt><trkpt lat="41.67562084944232" lon="13.353266171261902"><ele>234.0</ele><time>2026-04-23T17:48:07Z</time></trkpt><trkpt lat="41.6756596844177" lon="13.353411407818518"><ele>233.66666666666669</ele><time>2026-04-23T17:48:08Z</time></trkpt><trkpt lat="41.67574406022554" lon="13.353589563591822"><ele>233.33333333333334</ele><time>2026-04-23T17:48:09Z</time></trkpt><trkpt lat="41.67580881788912" lon="13.35379657650089"><ele>233.0</ele><time>2026-04-23T17:48:10Z</time></trkpt><trkpt lat="41.67588078118063" lon="13.353969412923144"><ele>233.0</ele><time>2026-04-23T17:48:11Z</time></trkpt><trkpt lat="41.67595216691285" lon="13.354143221818257"><ele>233.0</ele><time>2026-04-23T17:48:12Z</time></trkpt><trkpt lat="41.67601672660342" lon="13.354302879519642"><ele>233.0</ele><time>2026-04-23T17:48:13Z</time></trkpt><trkpt lat="41.6760852234911" lon="13.354459801142148"><ele>233.0</ele><time>2026-04-23T17:48:14Z</time></trkpt><trkpt lat="41.676155473177865" lon="13.35460533249624"><ele>233.0</ele><time>2026-04-23T17:48:15Z</time></trkpt><trkpt lat="41.67623138351273" lon="13.354752069014934"><ele>233.0</ele><time>2026-04-23T17:48:16Z</time></trkpt><trkpt lat="41.676307457575476" lon="13.354888240970302"><ele>233.0</ele><time>2026-04-23T17:48:17Z</time></trkpt><trkpt lat="41.6763817562547" lon="13.354999269492614"><ele>233.0</ele><time>2026-04-23T17:48:18Z</time></trkpt><trkpt lat="41.67643297744622" lon="13.355092353437216"><ele>233.0</ele><time>2026-04-23T17:48:19Z</time></trkpt><trkpt lat="41.67644839356739" lon="13.355201902611686"><ele>233.0</ele><time>2026-04-23T17:48:20Z</time></trkpt><trkpt lat="41.676428169637084" lon="13.355323150432055"><ele>233.0</ele><time>2026-04-23T17:48:21Z</time></trkpt><trkpt lat="41.67639786561506" lon="13.355474154522696"><ele>233.0</ele><time>2026-04-23T17:48:22Z</time></trkpt><trkpt lat="41.676356527134246" lon="13.355640072290567"><ele>233.0</ele><time>2026-04-23T17:48:23Z</time></trkpt><trkpt lat="41.676316711725" lon="13.355783076055191"><ele>233.0</ele><time>2026-04-23T17:48:24Z</time></trkpt><trkpt lat="41.67627942644798" lon="13.3558967775282"><ele>233.0</ele><time>2026-04-23T17:48:25Z</time></trkpt><trkpt lat="41.67624774584538" lon="13.35598571967415"><ele>233.0</ele><time>2026-04-23T17:48:26Z</time></trkpt><trkpt lat="41.67636857987535" lon="13.356140198088204"><ele>233.0</ele><time>2026-04-23T17:48:29Z</time></trkpt><trkpt lat="41.67645902436625" lon="13.356124878618813"><ele>233.0</ele><time>2026-04-23T17:48:30Z</time></trkpt><trkpt lat="41.67657735653063" lon="13.356122292080387"><ele>233.0</ele><time>2026-04-23T17:48:31Z</time></trkpt><trkpt lat="41.676738650397404" lon="13.356102719344982"><ele>233.0</ele><time>2026-04-23T17:48:32Z</time></trkpt><trkpt lat="41.6768906098226" lon="13.356078448370267"><ele>233.0</ele><time>2026-04-23T17:48:33Z</time></trkpt><trkpt lat="41.67707111401281" lon="13.35603368049685"><ele>233.66666666666669</ele><time>2026-04-23T17:48:34Z</time></trkpt><trkpt lat="41.6772335835814" lon="13.356014912391252"><ele>234.33333333333331</ele><time>2026-04-23T17:48:35Z</time></trkpt><trkpt lat="41.67738947608336" lon="13.355987180459255"><ele>235.0</ele><time>2026-04-23T17:48:36Z</time></trkpt><trkpt lat="41.67754292623622" lon="13.355973390200177"><ele>235.0</ele><time>2026-04-23T17:48:37Z</time></trkpt><trkpt lat="41.677687002696885" lon="13.355957601855492"><ele>235.0</ele><time>2026-04-23T17:48:38Z</time></trkpt><trkpt lat="41.677822061399475" lon="13.35593943717907"><ele>235.0</ele><time>2026-04-23T17:48:39Z</time></trkpt><trkpt lat="41.67796044145785" lon="13.355921194041526"><ele>235.0</ele><time>2026-04-23T17:48:40Z</time></trkpt><trkpt lat="41.67810241709427" lon="13.3559041605528"><ele>235.5</ele><time>2026-04-23T17:48:41Z</time></trkpt><trkpt lat="41.67823981169519" lon="13.35588896063051"><ele>236.0</ele><time>2026-04-23T17:48:42Z</time></trkpt><trkpt lat="41.678374354560006" lon="13.355874837093339"><ele>236.5</ele><time>2026-04-23T17:48:43Z</time></trkpt><trkpt lat="41.678518637188" lon="13.35585450405206"><ele>237.0</ele><time>2026-04-23T17:48:44Z</time></trkpt><trkpt lat="41.6786668421525" lon="13.355826644651767"><ele>237.25</ele><time>2026-04-23T17:48:45Z</time></trkpt><trkpt lat="41.678804974822285" lon="13.355799798701279"><ele>237.5</ele><time>2026-04-23T17:48:46Z</time></trkpt><trkpt lat="41.67893705338186" lon="13.355765028989246"><ele>237.75</ele><time>2026-04-23T17:48:47Z</time></trkpt><trkpt lat="41.67906291557227" lon="13.355744570596435"><ele>238.0</ele><time>2026-04-23T17:48:48Z</time></trkpt><trkpt lat="41.679181901369304" lon="13.355732050993655"><ele>238.0</ele><time>2026-04-23T17:48:49Z</time></trkpt><trkpt lat="41.6793024193701" lon="13.355722467421225"><ele>238.0</ele><time>2026-04-23T17:48:50Z</time></trkpt><trkpt lat="41.67942354698424" lon="13.355711009717478"><ele>238.0</ele><time>2026-04-23T17:48:51Z</time></trkpt><trkpt lat="41.67954011982893" lon="13.35570862037662"><ele>238.0</ele><time>2026-04-23T17:48:52Z</time></trkpt><trkpt lat="41.67965123530904" lon="13.355701595425876"><ele>238.2</ele><time>2026-04-23T17:48:53Z</time></trkpt><trkpt lat="41.679755299932374" lon="13.355688381061677"><ele>238.4</ele><time>2026-04-23T17:48:54Z</time></trkpt><trkpt lat="41.67984672366458" lon="13.355677206407172"><ele>238.59999999999997</ele><time>2026-04-23T17:48:55Z</time></trkpt><trkpt lat="41.67992555625597" lon="13.35569258030535"><ele>238.79999999999998</ele><time>2026-04-23T17:48:56Z</time></trkpt><trkpt lat="41.680019517620075" lon="13.355684777568094"><ele>239.0</ele><time>2026-04-23T17:48:58Z</time></trkpt><trkpt lat="41.67996836114869" lon="13.355910522994026"><ele>239.0</ele><time>2026-04-23T17:49:02Z</time></trkpt><trkpt lat="41.67994079260493" lon="13.356039879577178"><ele>239.0</ele><time>2026-04-23T17:49:03Z</time></trkpt><trkpt lat="41.67990411926137" lon="13.356217832847005"><ele>239.0</ele><time>2026-04-23T17:49:04Z</time></trkpt><trkpt lat="41.67986160344856" lon="13.356428808409632"><ele>239.0</ele><time>2026-04-23T17:49:05Z</time></trkpt><trkpt lat="41.67981780474179" lon="13.356636689856863"><ele>239.33333333333334</ele><time>2026-04-23T17:49:06Z</time></trkpt><trkpt lat="41.67976349360217" lon="13.356857150626107"><ele>239.66666666666669</ele><time>2026-04-23T17:49:07Z</time></trkpt><trkpt lat="41.679707422956824" lon="13.357061293995109"><ele>240.0</ele><time>2026-04-23T17:49:08Z</time></trkpt><trkpt lat="41.67965141245523" lon="13.357261498075665"><ele>240.0</ele><time>2026-04-23T17:49:09Z</time></trkpt><trkpt lat="41.6795941507121" lon="13.35745564121093"><ele>240.0</ele><time>2026-04-23T17:49:10Z</time></trkpt><trkpt lat="41.679540163107276" lon="13.3576436828092"><ele>240.0</ele><time>2026-04-23T17:49:11Z</time></trkpt><trkpt lat="41.67948970412218" lon="13.357819687843095"><ele>240.0</ele><time>2026-04-23T17:49:12Z</time></trkpt><trkpt lat="41.67944145674259" lon="13.35799328503385"><ele>239.66666666666669</ele><time>2026-04-23T17:49:13Z</time></trkpt><trkpt lat="41.67939284762116" lon="13.358179376716473"><ele>239.33333333333334</ele><time>2026-04-23T17:49:14Z</time></trkpt><trkpt lat="41.67934209308648" lon="13.358379340023497"><ele>239.0</ele><time>2026-04-23T17:49:15Z</time></trkpt><trkpt lat="41.67928929890933" lon="13.35860116339653"><ele>239.0</ele><time>2026-04-23T17:49:16Z</time></trkpt><trkpt lat="41.679248027166516" lon="13.358810911209478"><ele>239.0</ele><time>2026-04-23T17:49:17Z</time></trkpt><trkpt lat="41.679208654647475" lon="13.359006632998645"><ele>239.0</ele><time>2026-04-23T17:49:18Z</time></trkpt><trkpt lat="41.6791683211851" lon="13.359190261534582"><ele>239.75</ele><time>2026-04-23T17:49:19Z</time></trkpt><trkpt lat="41.67912996611465" lon="13.359364882603947"><ele>240.5</ele><time>2026-04-23T17:49:20Z</time></trkpt><trkpt lat="41.67909312549267" lon="13.359532748037537"><ele>241.25</ele><time>2026-04-23T17:49:21Z</time></trkpt><trkpt lat="41.67905749708602" lon="13.359703010295165"><ele>242.0</ele><time>2026-04-23T17:49:22Z</time></trkpt><trkpt lat="41.67902292534588" lon="13.359874605957193"><ele>242.0</ele><time>2026-04-23T17:49:23Z</time></trkpt><trkpt lat="41.678992183005995" lon="13.360049820085328"><ele>242.0</ele><time>2026-04-23T17:49:24Z</time></trkpt><trkpt lat="41.678961502936836" lon="13.360224770181416"><ele>242.0</ele><time>2026-04-23T17:49:25Z</time></trkpt><trkpt lat="41.67893169989288" lon="13.360404061732645"><ele>242.0</ele><time>2026-04-23T17:49:26Z</time></trkpt><trkpt lat="41.67890291383807" lon="13.360580520118418"><ele>242.0</ele><time>2026-04-23T17:49:27Z</time></trkpt><trkpt lat="41.67887112731341" lon="13.360749780304157"><ele>242.0</ele><time>2026-04-23T17:49:28Z</time></trkpt><trkpt lat="41.67883298004733" lon="13.360917287623392"><ele>242.0</ele><time>2026-04-23T17:49:29Z</time></trkpt><trkpt lat="41.67879746344299" lon="13.361083520540513"><ele>242.0</ele><time>2026-04-23T17:49:30Z</time></trkpt><trkpt lat="41.67877550584578" lon="13.361254330613885"><ele>241.66666666666669</ele><time>2026-04-23T17:49:31Z</time></trkpt><trkpt lat="41.67877854065249" lon="13.361446016841992"><ele>241.33333333333331</ele><time>2026-04-23T17:49:32Z</time></trkpt><trkpt lat="41.67884438471521" lon="13.361645286061714"><ele>241.0</ele><time>2026-04-23T17:49:33Z</time></trkpt><trkpt lat="41.67895264288794" lon="13.361810276328375"><ele>241.0</ele><time>2026-04-23T17:49:34Z</time></trkpt><trkpt lat="41.679043566093426" lon="13.361962947750673"><ele>241.0</ele><time>2026-04-23T17:49:35Z</time></trkpt><trkpt lat="41.67911790380605" lon="13.362108459552946"><ele>241.0</ele><time>2026-04-23T17:49:36Z</time></trkpt><trkpt lat="41.67914372914517" lon="13.362260583804083"><ele>241.0</ele><time>2026-04-23T17:49:37Z</time></trkpt><trkpt lat="41.67913007248429" lon="13.362441520426552"><ele>241.33333333333331</ele><time>2026-04-23T17:49:38Z</time></trkpt><trkpt lat="41.679092441324045" lon="13.362675747477049"><ele>241.66666666666669</ele><time>2026-04-23T17:49:39Z</time></trkpt><trkpt lat="41.67905732657632" lon="13.36290719436215"><ele>242.0</ele><time>2026-04-23T17:49:40Z</time></trkpt><trkpt lat="41.679024429016394" lon="13.363114681978944"><ele>242.25</ele><time>2026-04-23T17:49:41Z</time></trkpt><trkpt lat="41.67899295073992" lon="13.363297576222854"><ele>242.5</ele><time>2026-04-23T17:49:42Z</time></trkpt><trkpt lat="41.67897515219031" lon="13.363463579849808"><ele>242.75</ele><time>2026-04-23T17:49:43Z</time></trkpt><trkpt lat="41.67897294171714" lon="13.36362717458491"><ele>243.0</ele><time>2026-04-23T17:49:44Z</time></trkpt><trkpt lat="41.67899330345766" lon="13.36379198177554"><ele>243.5</ele><time>2026-04-23T17:49:45Z</time></trkpt><trkpt lat="41.679056261686725" lon="13.363976224634"><ele>244.0</ele><time>2026-04-23T17:49:46Z</time></trkpt><trkpt lat="41.679126471670585" lon="13.364168362102834"><ele>244.5</ele><time>2026-04-23T17:49:47Z</time></trkpt><trkpt lat="41.67918609208488" lon="13.364335328675828"><ele>245.0</ele><time>2026-04-23T17:49:48Z</time></trkpt><trkpt lat="41.67924104848973" lon="13.364495842235916"><ele>245.0</ele><time>2026-04-23T17:49:49Z</time></trkpt><trkpt lat="41.6792797211971" lon="13.36463396444228"><ele>245.0</ele><time>2026-04-23T17:49:50Z</time></trkpt><trkpt lat="41.67930432935622" lon="13.364738984903274"><ele>245.0</ele><time>2026-04-23T17:49:51Z</time></trkpt><trkpt lat="41.67932158558588" lon="13.364824111068826"><ele>245.0</ele><time>2026-04-23T17:49:53Z</time></trkpt><trkpt lat="41.679488492377125" lon="13.3649071039412"><ele>245.0</ele><time>2026-04-23T17:50:07Z</time></trkpt><trkpt lat="41.67954980711807" lon="13.364878097207365"><ele>244.75</ele><time>2026-04-23T17:50:09Z</time></trkpt><trkpt lat="41.67953536489915" lon="13.365034561893347"><ele>244.5</ele><time>2026-04-23T17:50:12Z</time></trkpt><trkpt lat="41.67953130429251" lon="13.36516890075646"><ele>244.25</ele><time>2026-04-23T17:50:13Z</time></trkpt><trkpt lat="41.679527101564595" lon="13.365298611070305"><ele>244.0</ele><time>2026-04-23T17:50:14Z</time></trkpt><trkpt lat="41.67951851585395" lon="13.365504722063259"><ele>243.66666666666666</ele><time>2026-04-23T17:50:15Z</time></trkpt><trkpt lat="41.67950674192649" lon="13.365747264573994"><ele>243.33333333333331</ele><time>2026-04-23T17:50:16Z</time></trkpt><trkpt lat="41.679492845582686" lon="13.365963913517952"><ele>243.0</ele><time>2026-04-23T17:50:17Z</time></trkpt><trkpt lat="41.6794710276445" lon="13.366177397491901"><ele>242.66666666666669</ele><time>2026-04-23T17:50:18Z</time></trkpt><trkpt lat="41.67943954867325" lon="13.366395172063713"><ele>242.33333333333334</ele><time>2026-04-23T17:50:19Z</time></trkpt><trkpt lat="41.679375251653035" lon="13.366630750289952"><ele>242.0</ele><time>2026-04-23T17:50:20Z</time></trkpt><trkpt lat="41.67930704271551" lon="13.366877340648749"><ele>241.33333333333334</ele><time>2026-04-23T17:50:21Z</time></trkpt><trkpt lat="41.67924876483738" lon="13.367118385062454"><ele>240.66666666666669</ele><time>2026-04-23T17:50:22Z</time></trkpt><trkpt lat="41.67920001227019" lon="13.367347659868617"><ele>240.0</ele><time>2026-04-23T17:50:23Z</time></trkpt><trkpt lat="41.679146240238026" lon="13.367545861661027"><ele>240.2</ele><time>2026-04-23T17:50:24Z</time></trkpt><trkpt lat="41.6790887614529" lon="13.367708672278278"><ele>240.4</ele><time>2026-04-23T17:50:25Z</time></trkpt><trkpt lat="41.679034636579175" lon="13.367847919992911"><ele>240.60000000000002</ele><time>2026-04-23T17:50:26Z</time></trkpt><trkpt lat="41.678983503715955" lon="13.367967984274738"><ele>240.8</ele><time>2026-04-23T17:50:27Z</time></trkpt><trkpt lat="41.67894452900642" lon="13.368059500497807"><ele>241.0</ele><time>2026-04-23T17:50:28Z</time></trkpt><trkpt lat="41.67889058649543" lon="13.368186162460187"><ele>240.99999999999997</ele><time>2026-04-23T17:50:30Z</time></trkpt><trkpt lat="41.67885686279185" lon="13.368265348606132"><ele>241.0</ele><time>2026-04-23T17:50:32Z</time></trkpt><trkpt lat="41.6788235973009" lon="13.368343458932838"><ele>241.0</ele><time>2026-04-23T17:50:36Z</time></trkpt><trkpt lat="41.67878866264182" lon="13.3684267815968"><ele>241.0</ele><time>2026-04-23T17:50:45Z</time></trkpt><trkpt lat="41.678745217544645" lon="13.368534525703957"><ele>240.99999999999997</ele><time>2026-04-23T17:50:47Z</time></trkpt><trkpt lat="41.67870175863935" lon="13.36864449320594"><ele>241.0</ele><time>2026-04-23T17:50:49Z</time></trkpt><trkpt lat="41.67865216075715" lon="13.36877327705548"><ele>240.99999999999997</ele><time>2026-04-23T17:50:51Z</time></trkpt><trkpt lat="41.678620678950374" lon="13.36885976382957"><ele>241.0</ele><time>2026-04-23T17:50:52Z</time></trkpt><trkpt lat="41.67858836094963" lon="13.368948547329142"><ele>241.0</ele><time>2026-04-23T17:50:53Z</time></trkpt><trkpt lat="41.67855374619785" lon="13.369043640550492"><ele>241.0</ele><time>2026-04-23T17:50:54Z</time></trkpt><trkpt lat="41.67851578951435" lon="13.36914791502175"><ele>240.99999999999997</ele><time>2026-04-23T17:50:55Z</time></trkpt><trkpt lat="41.67847353870676" lon="13.36924734142271"><ele>241.0</ele><time>2026-04-23T17:50:56Z</time></trkpt><trkpt lat="41.6784331942162" lon="13.369341460166964"><ele>240.99999999999997</ele><time>2026-04-23T17:50:57Z</time></trkpt><trkpt lat="41.67840689938727" lon="13.369434467684142"><ele>241.0</ele><time>2026-04-23T17:50:58Z</time></trkpt><trkpt lat="41.678372028526525" lon="13.36950815593686"><ele>241.0</ele><time>2026-04-23T17:50:59Z</time></trkpt><trkpt lat="41.67835136912218" lon="13.369614534094996"><ele>241.0</ele><time>2026-04-23T17:51:01Z</time></trkpt><trkpt lat="41.67834973093306" lon="13.369724288869628"><ele>240.99999999999997</ele><time>2026-04-23T17:51:12Z</time></trkpt><trkpt lat="41.67823301370624" lon="13.369730960825272"><ele>241.0</ele><time>2026-04-23T17:51:14Z</time></trkpt><trkpt lat="41.678159253453174" lon="13.369743623161302"><ele>241.0</ele><time>2026-04-23T17:51:15Z</time></trkpt><trkpt lat="41.678071135597726" lon="13.369758750304007"><ele>241.0</ele><time>2026-04-23T17:51:16Z</time></trkpt><trkpt lat="41.67795320590908" lon="13.369802452983203"><ele>241.0</ele><time>2026-04-23T17:51:17Z</time></trkpt><trkpt lat="41.67779173083191" lon="13.369830576716785"><ele>241.0</ele><time>2026-04-23T17:51:18Z</time></trkpt><trkpt lat="41.6776255462678" lon="13.369860072732228"><ele>240.0</ele><time>2026-04-23T17:51:19Z</time></trkpt><trkpt lat="41.677452666741054" lon="13.369892491780707"><ele>239.0</ele><time>2026-04-23T17:51:20Z</time></trkpt><trkpt lat="41.67724674139829" lon="13.369931527222265"><ele>238.0</ele><time>2026-04-23T17:51:21Z</time></trkpt><trkpt lat="41.677047798129166" lon="13.369968545399002"><ele>237.33333333333331</ele><time>2026-04-23T17:51:22Z</time></trkpt><trkpt lat="41.67685745156597" lon="13.370003829910761"><ele>236.66666666666669</ele><time>2026-04-23T17:51:23Z</time></trkpt><trkpt lat="41.676683675899014" lon="13.370041837191414"><ele>236.0</ele><time>2026-04-23T17:51:24Z</time></trkpt><trkpt lat="41.67652859306688" lon="13.370077088065706"><ele>236.0</ele><time>2026-04-23T17:51:25Z</time></trkpt><trkpt lat="41.67639453206637" lon="13.370106718682512"><ele>236.00000000000003</ele><time>2026-04-23T17:51:26Z</time></trkpt><trkpt lat="41.67628053473945" lon="13.370113331660852"><ele>236.00000000000003</ele><time>2026-04-23T17:51:27Z</time></trkpt><trkpt lat="41.67618015230753" lon="13.3701272699749"><ele>236.0</ele><time>2026-04-23T17:51:28Z</time></trkpt><trkpt lat="41.67610917730199" lon="13.370137978901672"><ele>236.0</ele><time>2026-04-23T17:51:29Z</time></trkpt><trkpt lat="41.676033676865664" lon="13.37014964584098"><ele>235.75</ele><time>2026-04-23T17:51:31Z</time></trkpt><trkpt lat="41.676030773368446" lon="13.370295554287999"><ele>235.5</ele><time>2026-04-23T17:51:32Z</time></trkpt><trkpt lat="41.67608319638715" lon="13.370398643374273"><ele>235.25</ele><time>2026-04-23T17:51:33Z</time></trkpt><trkpt lat="41.67617261716678" lon="13.370532622927087"><ele>235.0</ele><time>2026-04-23T17:51:34Z</time></trkpt><trkpt lat="41.67629428208528" lon="13.370706998902934"><ele>234.66666666666666</ele><time>2026-04-23T17:51:35Z</time></trkpt><trkpt lat="41.67642817551753" lon="13.370856799514574"><ele>234.33333333333331</ele><time>2026-04-23T17:51:36Z</time></trkpt><trkpt lat="41.67656148134575" lon="13.370962127385354"><ele>234.0</ele><time>2026-04-23T17:51:37Z</time></trkpt><trkpt lat="41.67676055580299" lon="13.371059454205511"><ele>235.0</ele><time>2026-04-23T17:51:38Z</time></trkpt><trkpt lat="41.67700095501078" lon="13.37119341214476"><ele>236.0</ele><time>2026-04-23T17:51:39Z</time></trkpt><trkpt lat="41.677211766856665" lon="13.37132499773457"><ele>235.0</ele><time>2026-04-23T17:51:40Z</time></trkpt><trkpt lat="41.67739123330905" lon="13.371446909529668"><ele>234.0</ele><time>2026-04-23T17:51:41Z</time></trkpt><trkpt lat="41.67755504006311" lon="13.371560421280876"><ele>233.0</ele><time>2026-04-23T17:51:42Z</time></trkpt><trkpt lat="41.67770185468475" lon="13.371664072095811"><ele>233.5</ele><time>2026-04-23T17:51:43Z</time></trkpt><trkpt lat="41.67782297920039" lon="13.371755174976528"><ele>234.0</ele><time>2026-04-23T17:51:44Z</time></trkpt><trkpt lat="41.67793204972014" lon="13.371856465382615"><ele>234.5</ele><time>2026-04-23T17:51:45Z</time></trkpt><trkpt lat="41.67803196017592" lon="13.371988491086741"><ele>235.0</ele><time>2026-04-23T17:51:46Z</time></trkpt><trkpt lat="41.67811505202816" lon="13.372177415671423"><ele>235.25</ele><time>2026-04-23T17:51:47Z</time></trkpt><trkpt lat="41.67818264546855" lon="13.372384000081784"><ele>235.5</ele><time>2026-04-23T17:51:48Z</time></trkpt><trkpt lat="41.67825138212436" lon="13.372547127806348"><ele>235.75</ele><time>2026-04-23T17:51:49Z</time></trkpt><trkpt lat="41.678308684266845" lon="13.372685468933776"><ele>236.0</ele><time>2026-04-23T17:51:50Z</time></trkpt><trkpt lat="41.67839428363786" lon="13.37279073745916"><ele>236.0</ele><time>2026-04-23T17:51:51Z</time></trkpt><trkpt lat="41.678503416044016" lon="13.372871002160654"><ele>236.0</ele><time>2026-04-23T17:51:52Z</time></trkpt><trkpt lat="41.67865707367162" lon="13.372931123249916"><ele>236.0</ele><time>2026-04-23T17:51:53Z</time></trkpt><trkpt lat="41.67880101980372" lon="13.37297230743974"><ele>236.0</ele><time>2026-04-23T17:51:54Z</time></trkpt><trkpt lat="41.678916230528436" lon="13.372997670288829"><ele>236.83333333333334</ele><time>2026-04-23T17:51:55Z</time></trkpt><trkpt lat="41.679021379135186" lon="13.373031551323454"><ele>237.66666666666669</ele><time>2026-04-23T17:51:56Z</time></trkpt><trkpt lat="41.67909944094128" lon="13.373074332126748"><ele>238.5</ele><time>2026-04-23T17:51:57Z</time></trkpt><trkpt lat="41.67912759861692" lon="13.373161944524885"><ele>239.33333333333331</ele><time>2026-04-23T17:51:58Z</time></trkpt><trkpt lat="41.67915649878263" lon="13.373241952926309"><ele>240.16666666666666</ele><time>2026-04-23T17:51:59Z</time></trkpt><trkpt lat="41.6791936377493" lon="13.373366871468281"><ele>241.0</ele><time>2026-04-23T17:52:01Z</time></trkpt><trkpt lat="41.679327203069064" lon="13.373387866015939"><ele>241.60000000000002</ele><time>2026-04-23T17:52:05Z</time></trkpt><trkpt lat="41.67947403034344" lon="13.373349403729886"><ele>242.20000000000002</ele><time>2026-04-23T17:52:07Z</time></trkpt><trkpt lat="41.679553965413724" lon="13.373331792832815"><ele>242.79999999999998</ele><time>2026-04-23T17:52:08Z</time></trkpt><trkpt lat="41.67963424444457" lon="13.373307582773188"><ele>243.39999999999998</ele><time>2026-04-23T17:52:09Z</time></trkpt><trkpt lat="41.679708724091405" lon="13.373286942198053"><ele>244.0</ele><time>2026-04-23T17:52:10Z</time></trkpt><trkpt lat="41.67977348896065" lon="13.37326748727142"><ele>244.0</ele><time>2026-04-23T17:52:11Z</time></trkpt><trkpt lat="41.67989344268963" lon="13.373237594168696"><ele>243.99999999999997</ele><time>2026-04-23T17:52:13Z</time></trkpt><trkpt lat="41.68000007332242" lon="13.37321596761"><ele>243.99999999999997</ele><time>2026-04-23T17:52:15Z</time></trkpt><trkpt lat="41.68009649558656" lon="13.373199223452362"><ele>244.0</ele><time>2026-04-23T17:52:17Z</time></trkpt><trkpt lat="41.68018590932211" lon="13.373185848925266"><ele>244.0</ele><time>2026-04-23T17:52:19Z</time></trkpt><trkpt lat="41.68026745967126" lon="13.373174285090762"><ele>244.33333333333331</ele><time>2026-04-23T17:52:21Z</time></trkpt><trkpt lat="41.68033373181897" lon="13.37319457802729"><ele>244.66666666666666</ele><time>2026-04-23T17:52:23Z</time></trkpt><trkpt lat="41.68041346002617" lon="13.373192751201904"><ele>245.0</ele><time>2026-04-23T17:53:07Z</time></trkpt><trkpt lat="41.68045811969643" lon="13.373380778716264"><ele>245.33333333333331</ele><time>2026-04-23T17:59:14Z</time></trkpt><trkpt lat="41.680521078267994" lon="13.373387085111757"><ele>245.66666666666666</ele><time>2026-04-23T17:59:23Z</time></trkpt><trkpt lat="41.68056007038311" lon="13.373455350442104"><ele>246.0</ele><time>2026-04-23T17:59:35Z</time></trkpt><trkpt lat="41.680619785706014" lon="13.373553544241803"><ele>246.00000000000003</ele><time>2026-04-23T18:00:02Z</time></trkpt><trkpt lat="41.680557499498605" lon="13.37358514238532"><ele>246.0</ele><time>2026-04-23T18:00:09Z</time></trkpt><trkpt lat="41.68058289192365" lon="13.373507686323073"><ele>246.00000000000003</ele><time>2026-04-23T18:02:30Z</time></trkpt><trkpt lat="41.68052148810288" lon="13.3734777506216"><ele>246.00000000000003</ele><time>2026-04-23T18:02:39Z</time></trkpt><trkpt lat="41.680585126302184" lon="13.373489343556395"><ele>246.0</ele><time>2026-04-23T18:03:15Z</time></trkpt><trkpt lat="41.680576515475366" lon="13.373586384310496"><ele>246.00000000000003</ele><time>2026-04-23T18:03:38Z</time></trkpt><trkpt lat="41.68063890820571" lon="13.37364298067122"><ele>246.00000000000003</ele><time>2026-04-23T18:06:17Z</time></trkpt><trkpt lat="41.680583559131634" lon="13.373587049304048"><ele>246.0</ele><time>2026-04-23T18:06:31Z</time></trkpt><trkpt lat="41.68059776079662" lon="13.37348391570398"><ele>246.0</ele><time>2026-04-23T18:06:39Z</time></trkpt><trkpt lat="41.68053545983395" lon="13.373445625808516"><ele>246.0</ele><time>2026-04-23T18:06:57Z</time></trkpt><trkpt lat="41.680462067716384" lon="13.373520480842433"><ele>246.0</ele><time>2026-04-23T18:12:25Z</time></trkpt><trkpt lat="41.68049836492267" lon="13.373431442290524"><ele>246.0</ele><time>2026-04-23T18:18:15Z</time></trkpt><trkpt lat="41.68045418510738" lon="13.373495244431771"><ele>246.0</ele><time>2026-04-23T20:19:26Z</time></trkpt><trkpt lat="41.680447957851385" lon="13.373375488298542"><ele>246.0</ele><time>2026-04-23T20:58:30Z</time></trkpt><trkpt lat="41.68043892107186" lon="13.373290300292751"><ele>246.0</ele><time>2026-04-23T20:58:37Z</time></trkpt><trkpt lat="41.68037169587098" lon="13.373302297894279"><ele>246.0</ele><time>2026-04-23T20:59:11Z</time></trkpt><trkpt lat="41.68032949706304" lon="13.373213743057834"><ele>246.0</ele><time>2026-04-23T20:59:31Z</time></trkpt><trkpt lat="41.680271432068594" lon="13.3731760139619"><ele>246.0</ele><time>2026-04-23T20:59:34Z</time></trkpt><trkpt lat="41.68018252710541" lon="13.373195538552084"><ele>246.0</ele><time>2026-04-23T20:59:37Z</time></trkpt><trkpt lat="41.680086911541494" lon="13.373207622376716"><ele>245.66666666666666</ele><time>2026-04-23T20:59:40Z</time></trkpt><trkpt lat="41.67998961868566" lon="13.373219785783233"><ele>245.33333333333331</ele><time>2026-04-23T20:59:43Z</time></trkpt><trkpt lat="41.67991529969798" lon="13.373236406881007"><ele>245.0</ele><time>2026-04-23T20:59:45Z</time></trkpt><trkpt lat="41.679832698137965" lon="13.373251677515237"><ele>244.66666666666666</ele><time>2026-04-23T20:59:47Z</time></trkpt><trkpt lat="41.679743730065034" lon="13.373269288512116"><ele>244.33333333333331</ele><time>2026-04-23T20:59:49Z</time></trkpt><trkpt lat="41.67964329075177" lon="13.373288617347178"><ele>244.0</ele><time>2026-04-23T20:59:51Z</time></trkpt><trkpt lat="41.67953730725044" lon="13.373308581023615"><ele>243.39999999999998</ele><time>2026-04-23T20:59:53Z</time></trkpt><trkpt lat="41.67942866510022" lon="13.373307858367458"><ele>242.79999999999998</ele><time>2026-04-23T20:59:55Z</time></trkpt><trkpt lat="41.6793320428367" lon="13.37335138491334"><ele>242.20000000000002</ele><time>2026-04-23T20:59:57Z</time></trkpt><trkpt lat="41.67927043227187" lon="13.37336910486161"><ele>241.60000000000002</ele><time>2026-04-23T21:00:00Z</time></trkpt><trkpt lat="41.679242181607826" lon="13.373493690248829"><ele>241.0</ele><time>2026-04-23T21:00:10Z</time></trkpt><trkpt lat="41.679278244250895" lon="13.373623335656339"><ele>240.99999999999997</ele><time>2026-04-23T21:00:12Z</time></trkpt><trkpt lat="41.67929626769259" lon="13.373753781974312"><ele>241.0</ele><time>2026-04-23T21:00:14Z</time></trkpt><trkpt lat="41.679318003024264" lon="13.373838472152897"><ele>241.0</ele><time>2026-04-23T21:00:15Z</time></trkpt><trkpt lat="41.67934281038568" lon="13.373935540239657"><ele>241.0</ele><time>2026-04-23T21:00:16Z</time></trkpt><trkpt lat="41.679370830705736" lon="13.374045180268972"><ele>240.99999999999997</ele><time>2026-04-23T21:00:17Z</time></trkpt><trkpt lat="41.67939664339448" lon="13.374146182029204"><ele>241.0</ele><time>2026-04-23T21:00:18Z</time></trkpt><trkpt lat="41.679419868881915" lon="13.374237060413408"><ele>241.83333333333331</ele><time>2026-04-23T21:00:19Z</time></trkpt><trkpt lat="41.679445649039174" lon="13.374337934920522"><ele>242.66666666666666</ele><time>2026-04-23T21:00:20Z</time></trkpt><trkpt lat="41.67947129900798" lon="13.374438299954942"><ele>243.5</ele><time>2026-04-23T21:00:21Z</time></trkpt><trkpt lat="41.67949552713468" lon="13.374533100518377"><ele>244.33333333333331</ele><time>2026-04-23T21:00:22Z</time></trkpt><trkpt lat="41.67951910040038" lon="13.37462558197414"><ele>245.16666666666666</ele><time>2026-04-23T21:00:23Z</time></trkpt><trkpt lat="41.679545712390514" lon="13.374731153807266"><ele>246.0</ele><time>2026-04-23T21:00:24Z</time></trkpt><trkpt lat="41.67957366922945" lon="13.374848126720533"><ele>246.0</ele><time>2026-04-23T21:00:25Z</time></trkpt><trkpt lat="41.67960362134181" lon="13.374973448013241"><ele>246.00000000000003</ele><time>2026-04-23T21:00:26Z</time></trkpt><trkpt lat="41.67963623659885" lon="13.37510991208424"><ele>246.00000000000003</ele><time>2026-04-23T21:00:27Z</time></trkpt><trkpt lat="41.679671250402954" lon="13.375256411780573"><ele>246.0</ele><time>2026-04-23T21:00:28Z</time></trkpt><trkpt lat="41.67970799323655" lon="13.37541014578025"><ele>246.0</ele><time>2026-04-23T21:00:29Z</time></trkpt><trkpt lat="41.679742357823656" lon="13.375553929170598"><ele>245.8</ele><time>2026-04-23T21:00:30Z</time></trkpt><trkpt lat="41.6797751473533" lon="13.375691122360145"><ele>245.60000000000002</ele><time>2026-04-23T21:00:31Z</time></trkpt><trkpt lat="41.679806975652674" lon="13.375824293743229"><ele>245.4</ele><time>2026-04-23T21:00:32Z</time></trkpt><trkpt lat="41.67983956710306" lon="13.375955121226092"><ele>245.2</ele><time>2026-04-23T21:00:33Z</time></trkpt><trkpt lat="41.67987351656005" lon="13.376078419837738"><ele>245.0</ele><time>2026-04-23T21:00:34Z</time></trkpt><trkpt lat="41.679906239655885" lon="13.376197264642023"><ele>245.00000000000003</ele><time>2026-04-23T21:00:35Z</time></trkpt><trkpt lat="41.67993657625929" lon="13.376307442385423"><ele>245.0</ele><time>2026-04-23T21:00:36Z</time></trkpt><trkpt lat="41.679964055282106" lon="13.376408287072787"><ele>245.0</ele><time>2026-04-23T21:00:37Z</time></trkpt><trkpt lat="41.67998884889117" lon="13.376501525070777"><ele>245.0</ele><time>2026-04-23T21:00:38Z</time></trkpt><trkpt lat="41.68002724680088" lon="13.3766459228324"><ele>245.00000000000003</ele><time>2026-04-23T21:00:40Z</time></trkpt><trkpt lat="41.680061174277334" lon="13.376728262077753"><ele>245.0</ele><time>2026-04-23T21:00:43Z</time></trkpt><trkpt lat="41.680166366503194" lon="13.376831394180943"><ele>245.16666666666669</ele><time>2026-04-23T21:01:00Z</time></trkpt><trkpt lat="41.68025605783462" lon="13.376830480017459"><ele>245.33333333333334</ele><time>2026-04-23T21:01:03Z</time></trkpt><trkpt lat="41.68032047716321" lon="13.376836740435273"><ele>245.5</ele><time>2026-04-23T21:01:08Z</time></trkpt><trkpt lat="41.68027184005089" lon="13.376776016085035"><ele>245.66666666666669</ele><time>2026-04-23T21:03:10Z</time></trkpt><trkpt lat="41.680197390166285" lon="13.376788889243388"><ele>245.83333333333334</ele><time>2026-04-23T21:03:12Z</time></trkpt><trkpt lat="41.68012455018933" lon="13.376780097073397"><ele>246.0</ele><time>2026-04-23T21:03:14Z</time></trkpt><trkpt lat="41.680046422114756" lon="13.376651432626945"><ele>246.0</ele><time>2026-04-23T21:03:16Z</time></trkpt><trkpt lat="41.68002646456065" lon="13.376547345101379"><ele>246.0</ele><time>2026-04-23T21:03:17Z</time></trkpt><trkpt lat="41.68000717339434" lon="13.376449571575936"><ele>246.0</ele><time>2026-04-23T21:03:18Z</time></trkpt><trkpt lat="41.679982292158506" lon="13.376363171503456"><ele>246.0</ele><time>2026-04-23T21:03:19Z</time></trkpt><trkpt lat="41.67995297392489" lon="13.376261569840935"><ele>246.0</ele><time>2026-04-23T21:03:20Z</time></trkpt><trkpt lat="41.67992155871065" lon="13.376154389703961"><ele>246.0</ele><time>2026-04-23T21:03:21Z</time></trkpt><trkpt lat="41.679886783182035" lon="13.376028342713338"><ele>246.0</ele><time>2026-04-23T21:03:22Z</time></trkpt><trkpt lat="41.679850473078424" lon="13.375889270800714"><ele>246.00000000000003</ele><time>2026-04-23T21:03:23Z</time></trkpt><trkpt lat="41.67981871096696" lon="13.375755998409026"><ele>246.00000000000003</ele><time>2026-04-23T21:03:24Z</time></trkpt><trkpt lat="41.67978730496377" lon="13.375624821036773"><ele>246.0</ele><time>2026-04-23T21:03:25Z</time></trkpt><trkpt lat="41.67974809695172" lon="13.375471964475182"><ele>246.0</ele><time>2026-04-23T21:03:26Z</time></trkpt><trkpt lat="41.67971032995582" lon="13.375312385511382"><ele>246.0</ele><time>2026-04-23T21:03:27Z</time></trkpt><trkpt lat="41.67967109414559" lon="13.37514515205901"><ele>246.0</ele><time>2026-04-23T21:03:28Z</time></trkpt><trkpt lat="41.67963270117272" lon="13.3749778310746"><ele>246.0</ele><time>2026-04-23T21:03:29Z</time></trkpt><trkpt lat="41.679595484155534" lon="13.374817616566386"><ele>246.0</ele><time>2026-04-23T21:03:30Z</time></trkpt><trkpt lat="41.679556614327524" lon="13.374661151063474"><ele>246.25</ele><time>2026-04-23T21:03:31Z</time></trkpt><trkpt lat="41.67951785267664" lon="13.374508825772647"><ele>246.5</ele><time>2026-04-23T21:03:32Z</time></trkpt><trkpt lat="41.6794793261492" lon="13.37435793891011"><ele>246.75</ele><time>2026-04-23T21:03:33Z</time></trkpt><trkpt lat="41.67944333969536" lon="13.37421091330105"><ele>247.0</ele><time>2026-04-23T21:03:34Z</time></trkpt><trkpt lat="41.67940703776405" lon="13.374065115577386"><ele>245.8</ele><time>2026-04-23T21:03:35Z</time></trkpt><trkpt lat="41.67937095659932" lon="13.37392293296628"><ele>244.6</ele><time>2026-04-23T21:03:36Z</time></trkpt><trkpt lat="41.679338868844084" lon="13.373791311851024"><ele>243.40000000000003</ele><time>2026-04-23T21:03:37Z</time></trkpt><trkpt lat="41.67930587585824" lon="13.37367420290518"><ele>242.20000000000002</ele><time>2026-04-23T21:03:38Z</time></trkpt><trkpt lat="41.679280385358574" lon="13.373591445836892"><ele>241.0</ele><time>2026-04-23T21:03:39Z</time></trkpt><trkpt lat="41.67923997299437" lon="13.373464822372872"><ele>240.99999999999997</ele><time>2026-04-23T21:03:41Z</time></trkpt><trkpt lat="41.67923836769451" lon="13.37335744381333"><ele>241.0</ele><time>2026-04-23T21:03:44Z</time></trkpt><trkpt lat="41.679316540521484" lon="13.37338245195131"><ele>241.0</ele><time>2026-04-23T21:03:47Z</time></trkpt><trkpt lat="41.67940446914271" lon="13.373359357043476"><ele>241.0</ele><time>2026-04-23T21:03:49Z</time></trkpt><trkpt lat="41.67947689764287" lon="13.373341658433922"><ele>240.99999999999997</ele><time>2026-04-23T21:03:51Z</time></trkpt><trkpt lat="41.679575465751256" lon="13.373318533580793"><ele>241.0</ele><time>2026-04-23T21:03:53Z</time></trkpt><trkpt lat="41.67969108062296" lon="13.373294727533478"><ele>241.75</ele><time>2026-04-23T21:03:55Z</time></trkpt><trkpt lat="41.67981469192437" lon="13.373270466020408"><ele>242.5</ele><time>2026-04-23T21:03:57Z</time></trkpt><trkpt lat="41.67992750469246" lon="13.373228380230453"><ele>243.25</ele><time>2026-04-23T21:03:59Z</time></trkpt><trkpt lat="41.68004237223685" lon="13.373206347874405"><ele>244.0</ele><time>2026-04-23T21:04:01Z</time></trkpt><trkpt lat="41.68013684274028" lon="13.373192525042972"><ele>244.0</ele><time>2026-04-23T21:04:03Z</time></trkpt><trkpt lat="41.68021606626379" lon="13.373183163871122"><ele>244.0</ele><time>2026-04-23T21:04:05Z</time></trkpt><trkpt lat="41.680280881677746" lon="13.373173397020924"><ele>246.0</ele><time>2026-04-23T21:04:07Z</time></trkpt><trkpt lat="41.680353231279014" lon="13.373251583282615"><ele>246.0</ele><time>2026-04-23T21:04:31Z</time></trkpt></trkseg></trk></gpx>